<?xml version="1.0" encoding="UTF-8"?>
<gpx creator="Garmin Connect" version="1.1"
  xsi:schemaLocation="http://www.topografix.com/GPX/1/1 http://www.topografix.com/GPX/11.xsd"
  xmlns:ns3="http://www.garmin.com/xmlschemas/TrackPointExtension/v1"
  xmlns="http://www.topografix.com/GPX/1/1"
  xmlns:xsi="http://www.w3.org/2001/XMLSchema-instance" xmlns:ns2="http://www.garmin.com/xmlschemas/GpxExtensions/v3">
  <metadata>
    <link href="connect.garmin.com">
      <text>Garmin Connect</text>
    </link>
    <time>2025-09-07T07:24:05.000Z</time>
  </metadata>
  <trk>
    <name>sandlings 3/3</name>
    <desc></desc>
    <type>running</type>
    <trkseg>
      <trkpt lat="52.18697897158563137054443359375" lon="1.60044369287788867950439453125">
        <ele>-26.200000762939453125</ele>
        <time>2025-09-07T07:24:05.000Z</time>
        <extensions>
          <ns3:TrackPointExtension>
            <ns3:hr>95</ns3:hr>
            <ns3:cad>56</ns3:cad>
          </ns3:TrackPointExtension>
        </extensions>
      </trkpt>
      <trkpt lat="52.1869862638413906097412109375" lon="1.60046271979808807373046875">
        <ele>-26.200000762939453125</ele>
        <time>2025-09-07T07:24:06.000Z</time>
        <extensions>
          <ns3:TrackPointExtension>
            <ns3:hr>95</ns3:hr>
            <ns3:cad>59</ns3:cad>
          </ns3:TrackPointExtension>
        </extensions>
      </trkpt>
      <trkpt lat="52.18703806400299072265625" lon="1.60051167011260986328125">
        <ele>-26.6000003814697265625</ele>
        <time>2025-09-07T07:24:12.000Z</time>
        <extensions>
          <ns3:TrackPointExtension>
            <ns3:hr>95</ns3:hr>
            <ns3:cad>61</ns3:cad>
          </ns3:TrackPointExtension>
        </extensions>
      </trkpt>
      <trkpt lat="52.18706781975924968719482421875" lon="1.6005138494074344635009765625">
        <ele>-26.6000003814697265625</ele>
        <time>2025-09-07T07:24:14.000Z</time>
        <extensions>
          <ns3:TrackPointExtension>
            <ns3:hr>98</ns3:hr>
            <ns3:cad>62</ns3:cad>
          </ns3:TrackPointExtension>
        </extensions>
      </trkpt>
      <trkpt lat="52.187165804207324981689453125" lon="1.600548885762691497802734375">
        <ele>-26.799999237060546875</ele>
        <time>2025-09-07T07:24:19.000Z</time>
        <extensions>
          <ns3:TrackPointExtension>
            <ns3:hr>96</ns3:hr>
            <ns3:cad>58</ns3:cad>
          </ns3:TrackPointExtension>
        </extensions>
      </trkpt>
      <trkpt lat="52.1872447617352008819580078125" lon="1.6005510650575160980224609375">
        <ele>-27</ele>
        <time>2025-09-07T07:24:24.000Z</time>
        <extensions>
          <ns3:TrackPointExtension>
            <ns3:hr>99</ns3:hr>
            <ns3:cad>60</ns3:cad>
          </ns3:TrackPointExtension>
        </extensions>
      </trkpt>
      <trkpt lat="52.18725943006575107574462890625" lon="1.60055232234299182891845703125">
        <ele>-27</ele>
        <time>2025-09-07T07:24:25.000Z</time>
        <extensions>
          <ns3:TrackPointExtension>
            <ns3:hr>103</ns3:hr>
            <ns3:cad>60</ns3:cad>
          </ns3:TrackPointExtension>
        </extensions>
      </trkpt>
      <trkpt lat="52.187287844717502593994140625" lon="1.6005514003336429595947265625">
        <ele>-27</ele>
        <time>2025-09-07T07:24:27.000Z</time>
        <extensions>
          <ns3:TrackPointExtension>
            <ns3:hr>112</ns3:hr>
            <ns3:cad>60</ns3:cad>
          </ns3:TrackPointExtension>
        </extensions>
      </trkpt>
      <trkpt lat="52.187309972941875457763671875" lon="1.6005559265613555908203125">
        <ele>-27</ele>
        <time>2025-09-07T07:24:28.000Z</time>
        <extensions>
          <ns3:TrackPointExtension>
            <ns3:hr>115</ns3:hr>
            <ns3:cad>60</ns3:cad>
          </ns3:TrackPointExtension>
        </extensions>
      </trkpt>
      <trkpt lat="52.18735917471349239349365234375" lon="1.6005621291697025299072265625">
        <ele>-27.200000762939453125</ele>
        <time>2025-09-07T07:24:31.000Z</time>
        <extensions>
          <ns3:TrackPointExtension>
            <ns3:hr>116</ns3:hr>
            <ns3:cad>60</ns3:cad>
          </ns3:TrackPointExtension>
        </extensions>
      </trkpt>
      <trkpt lat="52.187393791973590850830078125" lon="1.6005695052444934844970703125">
        <ele>-27.200000762939453125</ele>
        <time>2025-09-07T07:24:33.000Z</time>
        <extensions>
          <ns3:TrackPointExtension>
            <ns3:hr>116</ns3:hr>
            <ns3:cad>60</ns3:cad>
          </ns3:TrackPointExtension>
        </extensions>
      </trkpt>
      <trkpt lat="52.18746629543602466583251953125" lon="1.60058367066085338592529296875">
        <ele>-27.3999996185302734375</ele>
        <time>2025-09-07T07:24:37.000Z</time>
        <extensions>
          <ns3:TrackPointExtension>
            <ns3:hr>117</ns3:hr>
            <ns3:cad>59</ns3:cad>
          </ns3:TrackPointExtension>
        </extensions>
      </trkpt>
      <trkpt lat="52.1874978952109813690185546875" lon="1.6005934774875640869140625">
        <ele>-27.3999996185302734375</ele>
        <time>2025-09-07T07:24:40.000Z</time>
        <extensions>
          <ns3:TrackPointExtension>
            <ns3:hr>114</ns3:hr>
            <ns3:cad>59</ns3:cad>
          </ns3:TrackPointExtension>
        </extensions>
      </trkpt>
      <trkpt lat="52.18751457519829273223876953125" lon="1.6005835868418216705322265625">
        <ele>-27.3999996185302734375</ele>
        <time>2025-09-07T07:24:43.000Z</time>
        <extensions>
          <ns3:TrackPointExtension>
            <ns3:hr>117</ns3:hr>
            <ns3:cad>61</ns3:cad>
          </ns3:TrackPointExtension>
        </extensions>
      </trkpt>
      <trkpt lat="52.1875377930700778961181640625" lon="1.600587107241153717041015625">
        <ele>-27.200000762939453125</ele>
        <time>2025-09-07T07:24:45.000Z</time>
        <extensions>
          <ns3:TrackPointExtension>
            <ns3:hr>115</ns3:hr>
            <ns3:cad>60</ns3:cad>
          </ns3:TrackPointExtension>
        </extensions>
      </trkpt>
      <trkpt lat="52.1875874139368534088134765625" lon="1.600588448345661163330078125">
        <ele>-27</ele>
        <time>2025-09-07T07:24:49.000Z</time>
        <extensions>
          <ns3:TrackPointExtension>
            <ns3:hr>112</ns3:hr>
            <ns3:cad>60</ns3:cad>
          </ns3:TrackPointExtension>
        </extensions>
      </trkpt>
      <trkpt lat="52.18764482997357845306396484375" lon="1.600588448345661163330078125">
        <ele>-26.799999237060546875</ele>
        <time>2025-09-07T07:24:53.000Z</time>
        <extensions>
          <ns3:TrackPointExtension>
            <ns3:hr>113</ns3:hr>
            <ns3:cad>61</ns3:cad>
          </ns3:TrackPointExtension>
        </extensions>
      </trkpt>
      <trkpt lat="52.187759913504123687744140625" lon="1.60054896958172321319580078125">
        <ele>-26.799999237060546875</ele>
        <time>2025-09-07T07:25:01.000Z</time>
        <extensions>
          <ns3:TrackPointExtension>
            <ns3:hr>109</ns3:hr>
            <ns3:cad>58</ns3:cad>
          </ns3:TrackPointExtension>
        </extensions>
      </trkpt>
      <trkpt lat="52.18776770867407321929931640625" lon="1.6005430184304714202880859375">
        <ele>-26.799999237060546875</ele>
        <time>2025-09-07T07:25:02.000Z</time>
        <extensions>
          <ns3:TrackPointExtension>
            <ns3:hr>111</ns3:hr>
            <ns3:cad>59</ns3:cad>
          </ns3:TrackPointExtension>
        </extensions>
      </trkpt>
      <trkpt lat="52.18787667341530323028564453125" lon="1.60053220577538013458251953125">
        <ele>-27</ele>
        <time>2025-09-07T07:25:11.000Z</time>
        <extensions>
          <ns3:TrackPointExtension>
            <ns3:hr>111</ns3:hr>
            <ns3:cad>60</ns3:cad>
          </ns3:TrackPointExtension>
        </extensions>
      </trkpt>
      <trkpt lat="52.18803257681429386138916015625" lon="1.6005586087703704833984375">
        <ele>-27.200000762939453125</ele>
        <time>2025-09-07T07:25:20.000Z</time>
        <extensions>
          <ns3:TrackPointExtension>
            <ns3:hr>111</ns3:hr>
            <ns3:cad>60</ns3:cad>
          </ns3:TrackPointExtension>
        </extensions>
      </trkpt>
      <trkpt lat="52.188108265399932861328125" lon="1.6005319543182849884033203125">
        <ele>-27.200000762939453125</ele>
        <time>2025-09-07T07:25:29.000Z</time>
        <extensions>
          <ns3:TrackPointExtension>
            <ns3:hr>109</ns3:hr>
            <ns3:cad>60</ns3:cad>
          </ns3:TrackPointExtension>
        </extensions>
      </trkpt>
      <trkpt lat="52.18824681825935840606689453125" lon="1.600514687597751617431640625">
        <ele>-27.200000762939453125</ele>
        <time>2025-09-07T07:25:39.000Z</time>
        <extensions>
          <ns3:TrackPointExtension>
            <ns3:hr>107</ns3:hr>
            <ns3:cad>60</ns3:cad>
          </ns3:TrackPointExtension>
        </extensions>
      </trkpt>
      <trkpt lat="52.188392579555511474609375" lon="1.60052734427154064178466796875">
        <ele>-27.200000762939453125</ele>
        <time>2025-09-07T07:25:48.000Z</time>
        <extensions>
          <ns3:TrackPointExtension>
            <ns3:hr>109</ns3:hr>
            <ns3:cad>61</ns3:cad>
          </ns3:TrackPointExtension>
        </extensions>
      </trkpt>
      <trkpt lat="52.18844345770776271820068359375" lon="1.60053840838372707366943359375">
        <ele>-27</ele>
        <time>2025-09-07T07:25:51.000Z</time>
        <extensions>
          <ns3:TrackPointExtension>
            <ns3:hr>106</ns3:hr>
            <ns3:cad>61</ns3:cad>
          </ns3:TrackPointExtension>
        </extensions>
      </trkpt>
      <trkpt lat="52.1885280311107635498046875" lon="1.600564308464527130126953125">
        <ele>-27.200000762939453125</ele>
        <time>2025-09-07T07:25:56.000Z</time>
        <extensions>
          <ns3:TrackPointExtension>
            <ns3:hr>105</ns3:hr>
            <ns3:cad>61</ns3:cad>
          </ns3:TrackPointExtension>
        </extensions>
      </trkpt>
      <trkpt lat="52.18862132169306278228759765625" lon="1.6005896218121051788330078125">
        <ele>-27.200000762939453125</ele>
        <time>2025-09-07T07:26:01.000Z</time>
        <extensions>
          <ns3:TrackPointExtension>
            <ns3:hr>108</ns3:hr>
            <ns3:cad>61</ns3:cad>
          </ns3:TrackPointExtension>
        </extensions>
      </trkpt>
      <trkpt lat="52.1886380016803741455078125" lon="1.600591130554676055908203125">
        <ele>-27.200000762939453125</ele>
        <time>2025-09-07T07:26:02.000Z</time>
        <extensions>
          <ns3:TrackPointExtension>
            <ns3:hr>111</ns3:hr>
            <ns3:cad>62</ns3:cad>
          </ns3:TrackPointExtension>
        </extensions>
      </trkpt>
      <trkpt lat="52.18865342438220977783203125" lon="1.60059138201177120208740234375">
        <ele>-27</ele>
        <time>2025-09-07T07:26:03.000Z</time>
        <extensions>
          <ns3:TrackPointExtension>
            <ns3:hr>111</ns3:hr>
            <ns3:cad>62</ns3:cad>
          </ns3:TrackPointExtension>
        </extensions>
      </trkpt>
      <trkpt lat="52.1886706911027431488037109375" lon="1.6005929745733737945556640625">
        <ele>-27.200000762939453125</ele>
        <time>2025-09-07T07:26:04.000Z</time>
        <extensions>
          <ns3:TrackPointExtension>
            <ns3:hr>113</ns3:hr>
            <ns3:cad>61</ns3:cad>
          </ns3:TrackPointExtension>
        </extensions>
      </trkpt>
      <trkpt lat="52.18878359533846378326416015625" lon="1.60056053660809993743896484375">
        <ele>-27.200000762939453125</ele>
        <time>2025-09-07T07:26:11.000Z</time>
        <extensions>
          <ns3:TrackPointExtension>
            <ns3:hr>112</ns3:hr>
            <ns3:cad>61</ns3:cad>
          </ns3:TrackPointExtension>
        </extensions>
      </trkpt>
      <trkpt lat="52.1889067254960536956787109375" lon="1.6005229018628597259521484375">
        <ele>-27</ele>
        <time>2025-09-07T07:26:20.000Z</time>
        <extensions>
          <ns3:TrackPointExtension>
            <ns3:hr>111</ns3:hr>
            <ns3:cad>60</ns3:cad>
          </ns3:TrackPointExtension>
        </extensions>
      </trkpt>
      <trkpt lat="52.18900554813444614410400390625" lon="1.60053270868957042694091796875">
        <ele>-26.799999237060546875</ele>
        <time>2025-09-07T07:26:26.000Z</time>
        <extensions>
          <ns3:TrackPointExtension>
            <ns3:hr>112</ns3:hr>
            <ns3:cad>62</ns3:cad>
          </ns3:TrackPointExtension>
        </extensions>
      </trkpt>
      <trkpt lat="52.18909590505063533782958984375" lon="1.60053606145083904266357421875">
        <ele>-26.799999237060546875</ele>
        <time>2025-09-07T07:26:34.000Z</time>
        <extensions>
          <ns3:TrackPointExtension>
            <ns3:hr>113</ns3:hr>
            <ns3:cad>60</ns3:cad>
          </ns3:TrackPointExtension>
        </extensions>
      </trkpt>
      <trkpt lat="52.18916312791407108306884765625" lon="1.6005604527890682220458984375">
        <ele>-26.799999237060546875</ele>
        <time>2025-09-07T07:26:42.000Z</time>
        <extensions>
          <ns3:TrackPointExtension>
            <ns3:hr>115</ns3:hr>
            <ns3:cad>57</ns3:cad>
          </ns3:TrackPointExtension>
        </extensions>
      </trkpt>
      <trkpt lat="52.18918584287166595458984375" lon="1.6006015241146087646484375">
        <ele>-26.6000003814697265625</ele>
        <time>2025-09-07T07:26:44.000Z</time>
        <extensions>
          <ns3:TrackPointExtension>
            <ns3:hr>113</ns3:hr>
            <ns3:cad>0</ns3:cad>
          </ns3:TrackPointExtension>
        </extensions>
      </trkpt>
      <trkpt lat="52.189225070178508758544921875" lon="1.6006565093994140625">
        <ele>-26.6000003814697265625</ele>
        <time>2025-09-07T07:26:47.000Z</time>
        <extensions>
          <ns3:TrackPointExtension>
            <ns3:hr>113</ns3:hr>
            <ns3:cad>60</ns3:cad>
          </ns3:TrackPointExtension>
        </extensions>
      </trkpt>
      <trkpt lat="52.18929103575646877288818359375" lon="1.60080210305750370025634765625">
        <ele>-26.3999996185302734375</ele>
        <time>2025-09-07T07:26:54.000Z</time>
        <extensions>
          <ns3:TrackPointExtension>
            <ns3:hr>112</ns3:hr>
            <ns3:cad>61</ns3:cad>
          </ns3:TrackPointExtension>
        </extensions>
      </trkpt>
      <trkpt lat="52.18934669159352779388427734375" lon="1.6009631194174289703369140625">
        <ele>-26.6000003814697265625</ele>
        <time>2025-09-07T07:27:03.000Z</time>
        <extensions>
          <ns3:TrackPointExtension>
            <ns3:hr>113</ns3:hr>
            <ns3:cad>61</ns3:cad>
          </ns3:TrackPointExtension>
        </extensions>
      </trkpt>
      <trkpt lat="52.18939312733709812164306640625" lon="1.60111709497869014739990234375">
        <ele>-26.6000003814697265625</ele>
        <time>2025-09-07T07:27:10.000Z</time>
        <extensions>
          <ns3:TrackPointExtension>
            <ns3:hr>113</ns3:hr>
            <ns3:cad>0</ns3:cad>
          </ns3:TrackPointExtension>
        </extensions>
      </trkpt>
      <trkpt lat="52.18944509513676166534423828125" lon="1.6012497805058956146240234375">
        <ele>-26.799999237060546875</ele>
        <time>2025-09-07T07:27:18.000Z</time>
        <extensions>
          <ns3:TrackPointExtension>
            <ns3:hr>112</ns3:hr>
            <ns3:cad>60</ns3:cad>
          </ns3:TrackPointExtension>
        </extensions>
      </trkpt>
      <trkpt lat="52.1894907765090465545654296875" lon="1.60134784877300262451171875">
        <ele>-27</ele>
        <time>2025-09-07T07:27:23.000Z</time>
        <extensions>
          <ns3:TrackPointExtension>
            <ns3:hr>115</ns3:hr>
            <ns3:cad>66</ns3:cad>
          </ns3:TrackPointExtension>
        </extensions>
      </trkpt>
      <trkpt lat="52.1894988231360912322998046875" lon="1.6013691388070583343505859375">
        <ele>-27</ele>
        <time>2025-09-07T07:27:24.000Z</time>
        <extensions>
          <ns3:TrackPointExtension>
            <ns3:hr>116</ns3:hr>
            <ns3:cad>66</ns3:cad>
          </ns3:TrackPointExtension>
        </extensions>
      </trkpt>
      <trkpt lat="52.18954986892640590667724609375" lon="1.60150215961039066314697265625">
        <ele>-27.3999996185302734375</ele>
        <time>2025-09-07T07:27:31.000Z</time>
        <extensions>
          <ns3:TrackPointExtension>
            <ns3:hr>119</ns3:hr>
            <ns3:cad>0</ns3:cad>
          </ns3:TrackPointExtension>
        </extensions>
      </trkpt>
      <trkpt lat="52.189571745693683624267578125" lon="1.60157809965312480926513671875">
        <ele>-28</ele>
        <time>2025-09-07T07:27:35.000Z</time>
        <extensions>
          <ns3:TrackPointExtension>
            <ns3:hr>122</ns3:hr>
            <ns3:cad>0</ns3:cad>
          </ns3:TrackPointExtension>
        </extensions>
      </trkpt>
      <trkpt lat="52.18959353864192962646484375" lon="1.6016216017305850982666015625">
        <ele>-28.200000762939453125</ele>
        <time>2025-09-07T07:27:38.000Z</time>
        <extensions>
          <ns3:TrackPointExtension>
            <ns3:hr>127</ns3:hr>
            <ns3:cad>61</ns3:cad>
          </ns3:TrackPointExtension>
        </extensions>
      </trkpt>
      <trkpt lat="52.1896035969257354736328125" lon="1.60163694061338901519775390625">
        <ele>-28.3999996185302734375</ele>
        <time>2025-09-07T07:27:39.000Z</time>
        <extensions>
          <ns3:TrackPointExtension>
            <ns3:hr>128</ns3:hr>
            <ns3:cad>61</ns3:cad>
          </ns3:TrackPointExtension>
        </extensions>
      </trkpt>
      <trkpt lat="52.189604602754116058349609375" lon="1.60167180933058261871337890625">
        <ele>-28.3999996185302734375</ele>
        <time>2025-09-07T07:27:40.000Z</time>
        <extensions>
          <ns3:TrackPointExtension>
            <ns3:hr>128</ns3:hr>
            <ns3:cad>62</ns3:cad>
          </ns3:TrackPointExtension>
        </extensions>
      </trkpt>
      <trkpt lat="52.18960904516279697418212890625" lon="1.60173282958567142486572265625">
        <ele>-28.799999237060546875</ele>
        <time>2025-09-07T07:27:42.000Z</time>
        <extensions>
          <ns3:TrackPointExtension>
            <ns3:hr>123</ns3:hr>
            <ns3:cad>0</ns3:cad>
          </ns3:TrackPointExtension>
        </extensions>
      </trkpt>
      <trkpt lat="52.18961508013308048248291015625" lon="1.601796448230743408203125">
        <ele>-29</ele>
        <time>2025-09-07T07:27:44.000Z</time>
        <extensions>
          <ns3:TrackPointExtension>
            <ns3:hr>120</ns3:hr>
            <ns3:cad>61</ns3:cad>
          </ns3:TrackPointExtension>
        </extensions>
      </trkpt>
      <trkpt lat="52.18963234685361385345458984375" lon="1.60190817900002002716064453125">
        <ele>-29.200000762939453125</ele>
        <time>2025-09-07T07:27:48.000Z</time>
        <extensions>
          <ns3:TrackPointExtension>
            <ns3:hr>116</ns3:hr>
            <ns3:cad>62</ns3:cad>
          </ns3:TrackPointExtension>
        </extensions>
      </trkpt>
      <trkpt lat="52.1896557323634624481201171875" lon="1.60207078792154788970947265625">
        <ele>-29.200000762939453125</ele>
        <time>2025-09-07T07:27:55.000Z</time>
        <extensions>
          <ns3:TrackPointExtension>
            <ns3:hr>114</ns3:hr>
            <ns3:cad>62</ns3:cad>
          </ns3:TrackPointExtension>
        </extensions>
      </trkpt>
      <trkpt lat="52.1896706521511077880859375" lon="1.602132059633731842041015625">
        <ele>-29.3999996185302734375</ele>
        <time>2025-09-07T07:27:58.000Z</time>
        <extensions>
          <ns3:TrackPointExtension>
            <ns3:hr>113</ns3:hr>
            <ns3:cad>61</ns3:cad>
          </ns3:TrackPointExtension>
        </extensions>
      </trkpt>
      <trkpt lat="52.18972228467464447021484375" lon="1.60231268964707851409912109375">
        <ele>-29.799999237060546875</ele>
        <time>2025-09-07T07:28:06.000Z</time>
        <extensions>
          <ns3:TrackPointExtension>
            <ns3:hr>114</ns3:hr>
            <ns3:cad>61</ns3:cad>
          </ns3:TrackPointExtension>
        </extensions>
      </trkpt>
      <trkpt lat="52.1897791139781475067138671875" lon="1.602488458156585693359375">
        <ele>-30</ele>
        <time>2025-09-07T07:28:13.000Z</time>
        <extensions>
          <ns3:TrackPointExtension>
            <ns3:hr>113</ns3:hr>
            <ns3:cad>60</ns3:cad>
          </ns3:TrackPointExtension>
        </extensions>
      </trkpt>
      <trkpt lat="52.18982663936913013458251953125" lon="1.60267378203570842742919921875">
        <ele>-29.799999237060546875</ele>
        <time>2025-09-07T07:28:22.000Z</time>
        <extensions>
          <ns3:TrackPointExtension>
            <ns3:hr>113</ns3:hr>
            <ns3:cad>63</ns3:cad>
          </ns3:TrackPointExtension>
        </extensions>
      </trkpt>
      <trkpt lat="52.1898351050913333892822265625" lon="1.60270026884973049163818359375">
        <ele>-30</ele>
        <time>2025-09-07T07:28:23.000Z</time>
        <extensions>
          <ns3:TrackPointExtension>
            <ns3:hr>113</ns3:hr>
            <ns3:cad>63</ns3:cad>
          </ns3:TrackPointExtension>
        </extensions>
      </trkpt>
      <trkpt lat="52.189889587461948394775390625" lon="1.6028572618961334228515625">
        <ele>-30.200000762939453125</ele>
        <time>2025-09-07T07:28:28.000Z</time>
        <extensions>
          <ns3:TrackPointExtension>
            <ns3:hr>116</ns3:hr>
            <ns3:cad>61</ns3:cad>
          </ns3:TrackPointExtension>
        </extensions>
      </trkpt>
      <trkpt lat="52.18989805318415164947509765625" lon="1.6028892807662487030029296875">
        <ele>-30.200000762939453125</ele>
        <time>2025-09-07T07:28:29.000Z</time>
        <extensions>
          <ns3:TrackPointExtension>
            <ns3:hr>116</ns3:hr>
            <ns3:cad>61</ns3:cad>
          </ns3:TrackPointExtension>
        </extensions>
      </trkpt>
      <trkpt lat="52.18997499905526638031005859375" lon="1.60308851860463619232177734375">
        <ele>-30.200000762939453125</ele>
        <time>2025-09-07T07:28:36.000Z</time>
        <extensions>
          <ns3:TrackPointExtension>
            <ns3:hr>117</ns3:hr>
            <ns3:cad>61</ns3:cad>
          </ns3:TrackPointExtension>
        </extensions>
      </trkpt>
      <trkpt lat="52.1900101192295551300048828125" lon="1.60321190021932125091552734375">
        <ele>-30.3999996185302734375</ele>
        <time>2025-09-07T07:28:43.000Z</time>
        <extensions>
          <ns3:TrackPointExtension>
            <ns3:hr>117</ns3:hr>
            <ns3:cad>60</ns3:cad>
          </ns3:TrackPointExtension>
        </extensions>
      </trkpt>
      <trkpt lat="52.1900134719908237457275390625" lon="1.603230424225330352783203125">
        <ele>-30.3999996185302734375</ele>
        <time>2025-09-07T07:28:44.000Z</time>
        <extensions>
          <ns3:TrackPointExtension>
            <ns3:hr>117</ns3:hr>
            <ns3:cad>60</ns3:cad>
          </ns3:TrackPointExtension>
        </extensions>
      </trkpt>
      <trkpt lat="52.19005085527896881103515625" lon="1.603422872722148895263671875">
        <ele>-30.6000003814697265625</ele>
        <time>2025-09-07T07:28:53.000Z</time>
        <extensions>
          <ns3:TrackPointExtension>
            <ns3:hr>117</ns3:hr>
            <ns3:cad>62</ns3:cad>
          </ns3:TrackPointExtension>
        </extensions>
      </trkpt>
      <trkpt lat="52.19011397100985050201416015625" lon="1.60355539061129093170166015625">
        <ele>-30.6000003814697265625</ele>
        <time>2025-09-07T07:28:59.000Z</time>
        <extensions>
          <ns3:TrackPointExtension>
            <ns3:hr>120</ns3:hr>
            <ns3:cad>61</ns3:cad>
          </ns3:TrackPointExtension>
        </extensions>
      </trkpt>
      <trkpt lat="52.19012436456978321075439453125" lon="1.6035735793411731719970703125">
        <ele>-30.6000003814697265625</ele>
        <time>2025-09-07T07:29:00.000Z</time>
        <extensions>
          <ns3:TrackPointExtension>
            <ns3:hr>120</ns3:hr>
            <ns3:cad>62</ns3:cad>
          </ns3:TrackPointExtension>
        </extensions>
      </trkpt>
      <trkpt lat="52.19020642340183258056640625" lon="1.60372856073081493377685546875">
        <ele>-30.200000762939453125</ele>
        <time>2025-09-07T07:29:08.000Z</time>
        <extensions>
          <ns3:TrackPointExtension>
            <ns3:hr>121</ns3:hr>
            <ns3:cad>61</ns3:cad>
          </ns3:TrackPointExtension>
        </extensions>
      </trkpt>
      <trkpt lat="52.190220840275287628173828125" lon="1.6038508526980876922607421875">
        <ele>-30.3999996185302734375</ele>
        <time>2025-09-07T07:29:13.000Z</time>
        <extensions>
          <ns3:TrackPointExtension>
            <ns3:hr>122</ns3:hr>
            <ns3:cad>61</ns3:cad>
          </ns3:TrackPointExtension>
        </extensions>
      </trkpt>
      <trkpt lat="52.19025126658380031585693359375" lon="1.60389653407037258148193359375">
        <ele>-30.3999996185302734375</ele>
        <time>2025-09-07T07:29:15.000Z</time>
        <extensions>
          <ns3:TrackPointExtension>
            <ns3:hr>119</ns3:hr>
            <ns3:cad>60</ns3:cad>
          </ns3:TrackPointExtension>
        </extensions>
      </trkpt>
      <trkpt lat="52.19029485248029232025146484375" lon="1.60397683270275592803955078125">
        <ele>-30.3999996185302734375</ele>
        <time>2025-09-07T07:29:18.000Z</time>
        <extensions>
          <ns3:TrackPointExtension>
            <ns3:hr>116</ns3:hr>
            <ns3:cad>57</ns3:cad>
          </ns3:TrackPointExtension>
        </extensions>
      </trkpt>
      <trkpt lat="52.19035905785858631134033203125" lon="1.60409652628004550933837890625">
        <ele>-30.6000003814697265625</ele>
        <time>2025-09-07T07:29:23.000Z</time>
        <extensions>
          <ns3:TrackPointExtension>
            <ns3:hr>117</ns3:hr>
            <ns3:cad>0</ns3:cad>
          </ns3:TrackPointExtension>
        </extensions>
      </trkpt>
      <trkpt lat="52.190428040921688079833984375" lon="1.60421311855316162109375">
        <ele>-30.799999237060546875</ele>
        <time>2025-09-07T07:29:29.000Z</time>
        <extensions>
          <ns3:TrackPointExtension>
            <ns3:hr>114</ns3:hr>
            <ns3:cad>0</ns3:cad>
          </ns3:TrackPointExtension>
        </extensions>
      </trkpt>
      <trkpt lat="52.19043717719614505767822265625" lon="1.60422879271209239959716796875">
        <ele>-30.799999237060546875</ele>
        <time>2025-09-07T07:29:30.000Z</time>
        <extensions>
          <ns3:TrackPointExtension>
            <ns3:hr>119</ns3:hr>
            <ns3:cad>0</ns3:cad>
          </ns3:TrackPointExtension>
        </extensions>
      </trkpt>
      <trkpt lat="52.19052535481750965118408203125" lon="1.6043353267014026641845703125">
        <ele>-30.799999237060546875</ele>
        <time>2025-09-07T07:29:36.000Z</time>
        <extensions>
          <ns3:TrackPointExtension>
            <ns3:hr>117</ns3:hr>
            <ns3:cad>61</ns3:cad>
          </ns3:TrackPointExtension>
        </extensions>
      </trkpt>
      <trkpt lat="52.19053767621517181396484375" lon="1.6043510846793651580810546875">
        <ele>-30.6000003814697265625</ele>
        <time>2025-09-07T07:29:37.000Z</time>
        <extensions>
          <ns3:TrackPointExtension>
            <ns3:hr>120</ns3:hr>
            <ns3:cad>61</ns3:cad>
          </ns3:TrackPointExtension>
        </extensions>
      </trkpt>
      <trkpt lat="52.190615125000476837158203125" lon="1.60444705747067928314208984375">
        <ele>-30.6000003814697265625</ele>
        <time>2025-09-07T07:29:43.000Z</time>
        <extensions>
          <ns3:TrackPointExtension>
            <ns3:hr>121</ns3:hr>
            <ns3:cad>61</ns3:cad>
          </ns3:TrackPointExtension>
        </extensions>
      </trkpt>
      <trkpt lat="52.1906250156462192535400390625" lon="1.60446348600089550018310546875">
        <ele>-30.3999996185302734375</ele>
        <time>2025-09-07T07:29:44.000Z</time>
        <extensions>
          <ns3:TrackPointExtension>
            <ns3:hr>117</ns3:hr>
            <ns3:cad>60</ns3:cad>
          </ns3:TrackPointExtension>
        </extensions>
      </trkpt>
      <trkpt lat="52.1906538493931293487548828125" lon="1.6045175492763519287109375">
        <ele>-30.3999996185302734375</ele>
        <time>2025-09-07T07:29:47.000Z</time>
        <extensions>
          <ns3:TrackPointExtension>
            <ns3:hr>120</ns3:hr>
            <ns3:cad>60</ns3:cad>
          </ns3:TrackPointExtension>
        </extensions>
      </trkpt>
      <trkpt lat="52.19068192876875400543212890625" lon="1.604552753269672393798828125">
        <ele>-30.3999996185302734375</ele>
        <time>2025-09-07T07:29:49.000Z</time>
        <extensions>
          <ns3:TrackPointExtension>
            <ns3:hr>121</ns3:hr>
            <ns3:cad>60</ns3:cad>
          </ns3:TrackPointExtension>
        </extensions>
      </trkpt>
      <trkpt lat="52.1907396800816059112548828125" lon="1.60462911240756511688232421875">
        <ele>-30.3999996185302734375</ele>
        <time>2025-09-07T07:29:56.000Z</time>
        <extensions>
          <ns3:TrackPointExtension>
            <ns3:hr>119</ns3:hr>
            <ns3:cad>0</ns3:cad>
          </ns3:TrackPointExtension>
        </extensions>
      </trkpt>
      <trkpt lat="52.190760634839534759521484375" lon="1.6046570241451263427734375">
        <ele>-30.3999996185302734375</ele>
        <time>2025-09-07T07:30:03.000Z</time>
        <extensions>
          <ns3:TrackPointExtension>
            <ns3:hr>118</ns3:hr>
            <ns3:cad>0</ns3:cad>
          </ns3:TrackPointExtension>
        </extensions>
      </trkpt>
      <trkpt lat="52.190750576555728912353515625" lon="1.60466046072542667388916015625">
        <ele>-30.3999996185302734375</ele>
        <time>2025-09-07T07:30:06.000Z</time>
        <extensions>
          <ns3:TrackPointExtension>
            <ns3:hr>121</ns3:hr>
            <ns3:cad>0</ns3:cad>
          </ns3:TrackPointExtension>
        </extensions>
      </trkpt>
      <trkpt lat="52.19076138921082019805908203125" lon="1.6047061420977115631103515625">
        <ele>-30.6000003814697265625</ele>
        <time>2025-09-07T07:30:09.000Z</time>
        <extensions>
          <ns3:TrackPointExtension>
            <ns3:hr>122</ns3:hr>
            <ns3:cad>0</ns3:cad>
          </ns3:TrackPointExtension>
        </extensions>
      </trkpt>
      <trkpt lat="52.19083548523485660552978515625" lon="1.6048560105264186859130859375">
        <ele>-30.799999237060546875</ele>
        <time>2025-09-07T07:30:16.000Z</time>
        <extensions>
          <ns3:TrackPointExtension>
            <ns3:hr>122</ns3:hr>
            <ns3:cad>60</ns3:cad>
          </ns3:TrackPointExtension>
        </extensions>
      </trkpt>
      <trkpt lat="52.1908628940582275390625" lon="1.604906804859638214111328125">
        <ele>-30.799999237060546875</ele>
        <time>2025-09-07T07:30:19.000Z</time>
        <extensions>
          <ns3:TrackPointExtension>
            <ns3:hr>126</ns3:hr>
            <ns3:cad>61</ns3:cad>
          </ns3:TrackPointExtension>
        </extensions>
      </trkpt>
      <trkpt lat="52.19089441001415252685546875" lon="1.60498081706464290618896484375">
        <ele>-30.799999237060546875</ele>
        <time>2025-09-07T07:30:23.000Z</time>
        <extensions>
          <ns3:TrackPointExtension>
            <ns3:hr>126</ns3:hr>
            <ns3:cad>61</ns3:cad>
          </ns3:TrackPointExtension>
        </extensions>
      </trkpt>
      <trkpt lat="52.190947718918323516845703125" lon="1.60508676432073116302490234375">
        <ele>-30.6000003814697265625</ele>
        <time>2025-09-07T07:30:30.000Z</time>
        <extensions>
          <ns3:TrackPointExtension>
            <ns3:hr>128</ns3:hr>
            <ns3:cad>62</ns3:cad>
          </ns3:TrackPointExtension>
        </extensions>
      </trkpt>
      <trkpt lat="52.19095417298376560211181640625" lon="1.605100929737091064453125">
        <ele>-30.6000003814697265625</ele>
        <time>2025-09-07T07:30:31.000Z</time>
        <extensions>
          <ns3:TrackPointExtension>
            <ns3:hr>125</ns3:hr>
            <ns3:cad>62</ns3:cad>
          </ns3:TrackPointExtension>
        </extensions>
      </trkpt>
      <trkpt lat="52.19103178940713405609130859375" lon="1.60521752201020717620849609375">
        <ele>-30.3999996185302734375</ele>
        <time>2025-09-07T07:30:38.000Z</time>
        <extensions>
          <ns3:TrackPointExtension>
            <ns3:hr>126</ns3:hr>
            <ns3:cad>61</ns3:cad>
          </ns3:TrackPointExtension>
        </extensions>
      </trkpt>
      <trkpt lat="52.19108694233000278472900390625" lon="1.60529195331037044525146484375">
        <ele>-30.3999996185302734375</ele>
        <time>2025-09-07T07:30:42.000Z</time>
        <extensions>
          <ns3:TrackPointExtension>
            <ns3:hr>123</ns3:hr>
            <ns3:cad>61</ns3:cad>
          </ns3:TrackPointExtension>
        </extensions>
      </trkpt>
      <trkpt lat="52.19113455154001712799072265625" lon="1.6053669713437557220458984375">
        <ele>-30.200000762939453125</ele>
        <time>2025-09-07T07:30:46.000Z</time>
        <extensions>
          <ns3:TrackPointExtension>
            <ns3:hr>122</ns3:hr>
            <ns3:cad>61</ns3:cad>
          </ns3:TrackPointExtension>
        </extensions>
      </trkpt>
      <trkpt lat="52.191255502402782440185546875" lon="1.6055493615567684173583984375">
        <ele>-30.200000762939453125</ele>
        <time>2025-09-07T07:30:55.000Z</time>
        <extensions>
          <ns3:TrackPointExtension>
            <ns3:hr>121</ns3:hr>
            <ns3:cad>122</ns3:cad>
          </ns3:TrackPointExtension>
        </extensions>
      </trkpt>
      <trkpt lat="52.19129749573767185211181640625" lon="1.60562437959015369415283203125">
        <ele>-30.200000762939453125</ele>
        <time>2025-09-07T07:30:58.000Z</time>
        <extensions>
          <ns3:TrackPointExtension>
            <ns3:hr>117</ns3:hr>
            <ns3:cad>61</ns3:cad>
          </ns3:TrackPointExtension>
        </extensions>
      </trkpt>
      <trkpt lat="52.1913334541022777557373046875" lon="1.60567693412303924560546875">
        <ele>-30.200000762939453125</ele>
        <time>2025-09-07T07:31:01.000Z</time>
        <extensions>
          <ns3:TrackPointExtension>
            <ns3:hr>118</ns3:hr>
            <ns3:cad>59</ns3:cad>
          </ns3:TrackPointExtension>
        </extensions>
      </trkpt>
      <trkpt lat="52.19141668640077114105224609375" lon="1.60579520277678966522216796875">
        <ele>-30.200000762939453125</ele>
        <time>2025-09-07T07:31:08.000Z</time>
        <extensions>
          <ns3:TrackPointExtension>
            <ns3:hr>119</ns3:hr>
            <ns3:cad>63</ns3:cad>
          </ns3:TrackPointExtension>
        </extensions>
      </trkpt>
      <trkpt lat="52.19149396754801273345947265625" lon="1.605934761464595794677734375">
        <ele>-30.200000762939453125</ele>
        <time>2025-09-07T07:31:15.000Z</time>
        <extensions>
          <ns3:TrackPointExtension>
            <ns3:hr>116</ns3:hr>
            <ns3:cad>61</ns3:cad>
          </ns3:TrackPointExtension>
        </extensions>
      </trkpt>
      <trkpt lat="52.19151659868657588958740234375" lon="1.6059659421443939208984375">
        <ele>-30.200000762939453125</ele>
        <time>2025-09-07T07:31:17.000Z</time>
        <extensions>
          <ns3:TrackPointExtension>
            <ns3:hr>116</ns3:hr>
            <ns3:cad>61</ns3:cad>
          </ns3:TrackPointExtension>
        </extensions>
      </trkpt>
      <trkpt lat="52.191592119634151458740234375" lon="1.60610868595540523529052734375">
        <ele>-30.200000762939453125</ele>
        <time>2025-09-07T07:31:25.000Z</time>
        <extensions>
          <ns3:TrackPointExtension>
            <ns3:hr>115</ns3:hr>
            <ns3:cad>61</ns3:cad>
          </ns3:TrackPointExtension>
        </extensions>
      </trkpt>
      <trkpt lat="52.19160812906920909881591796875" lon="1.60615277476608753204345703125">
        <ele>-30.200000762939453125</ele>
        <time>2025-09-07T07:31:27.000Z</time>
        <extensions>
          <ns3:TrackPointExtension>
            <ns3:hr>118</ns3:hr>
            <ns3:cad>61</ns3:cad>
          </ns3:TrackPointExtension>
        </extensions>
      </trkpt>
      <trkpt lat="52.19167359173297882080078125" lon="1.60624262876808643341064453125">
        <ele>-30.3999996185302734375</ele>
        <time>2025-09-07T07:31:32.000Z</time>
        <extensions>
          <ns3:TrackPointExtension>
            <ns3:hr>120</ns3:hr>
            <ns3:cad>61</ns3:cad>
          </ns3:TrackPointExtension>
        </extensions>
      </trkpt>
      <trkpt lat="52.1917411498725414276123046875" lon="1.60636466927826404571533203125">
        <ele>-30.3999996185302734375</ele>
        <time>2025-09-07T07:31:38.000Z</time>
        <extensions>
          <ns3:TrackPointExtension>
            <ns3:hr>122</ns3:hr>
            <ns3:cad>62</ns3:cad>
          </ns3:TrackPointExtension>
        </extensions>
      </trkpt>
      <trkpt lat="52.19174928031861782073974609375" lon="1.60640716552734375">
        <ele>-30.3999996185302734375</ele>
        <time>2025-09-07T07:31:40.000Z</time>
        <extensions>
          <ns3:TrackPointExtension>
            <ns3:hr>119</ns3:hr>
            <ns3:cad>61</ns3:cad>
          </ns3:TrackPointExtension>
        </extensions>
      </trkpt>
      <trkpt lat="52.19177761115133762359619140625" lon="1.6064606420695781707763671875">
        <ele>-30.3999996185302734375</ele>
        <time>2025-09-07T07:31:43.000Z</time>
        <extensions>
          <ns3:TrackPointExtension>
            <ns3:hr>115</ns3:hr>
            <ns3:cad>61</ns3:cad>
          </ns3:TrackPointExtension>
        </extensions>
      </trkpt>
      <trkpt lat="52.1917988173663616180419921875" lon="1.606503389775753021240234375">
        <ele>-30.3999996185302734375</ele>
        <time>2025-09-07T07:31:45.000Z</time>
        <extensions>
          <ns3:TrackPointExtension>
            <ns3:hr>116</ns3:hr>
            <ns3:cad>61</ns3:cad>
          </ns3:TrackPointExtension>
        </extensions>
      </trkpt>
      <trkpt lat="52.19183360226452350616455078125" lon="1.60654722712934017181396484375">
        <ele>-30.3999996185302734375</ele>
        <time>2025-09-07T07:31:48.000Z</time>
        <extensions>
          <ns3:TrackPointExtension>
            <ns3:hr>119</ns3:hr>
            <ns3:cad>61</ns3:cad>
          </ns3:TrackPointExtension>
        </extensions>
      </trkpt>
      <trkpt lat="52.191886492073535919189453125" lon="1.6066185571253299713134765625">
        <ele>-30.3999996185302734375</ele>
        <time>2025-09-07T07:31:53.000Z</time>
        <extensions>
          <ns3:TrackPointExtension>
            <ns3:hr>118</ns3:hr>
            <ns3:cad>60</ns3:cad>
          </ns3:TrackPointExtension>
        </extensions>
      </trkpt>
      <trkpt lat="52.19191499054431915283203125" lon="1.606650240719318389892578125">
        <ele>-30.3999996185302734375</ele>
        <time>2025-09-07T07:31:56.000Z</time>
        <extensions>
          <ns3:TrackPointExtension>
            <ns3:hr>114</ns3:hr>
            <ns3:cad>62</ns3:cad>
          </ns3:TrackPointExtension>
        </extensions>
      </trkpt>
      <trkpt lat="52.19196033664047718048095703125" lon="1.60670782439410686492919921875">
        <ele>-30.3999996185302734375</ele>
        <time>2025-09-07T07:32:00.000Z</time>
        <extensions>
          <ns3:TrackPointExtension>
            <ns3:hr>116</ns3:hr>
            <ns3:cad>0</ns3:cad>
          </ns3:TrackPointExtension>
        </extensions>
      </trkpt>
      <trkpt lat="52.19203895889222621917724609375" lon="1.606811843812465667724609375">
        <ele>-30</ele>
        <time>2025-09-07T07:32:07.000Z</time>
        <extensions>
          <ns3:TrackPointExtension>
            <ns3:hr>113</ns3:hr>
            <ns3:cad>61</ns3:cad>
          </ns3:TrackPointExtension>
        </extensions>
      </trkpt>
      <trkpt lat="52.19207785092294216156005859375" lon="1.60687864758074283599853515625">
        <ele>-30</ele>
        <time>2025-09-07T07:32:11.000Z</time>
        <extensions>
          <ns3:TrackPointExtension>
            <ns3:hr>112</ns3:hr>
            <ns3:cad>61</ns3:cad>
          </ns3:TrackPointExtension>
        </extensions>
      </trkpt>
      <trkpt lat="52.1921542100608348846435546875" lon="1.6070319525897502899169921875">
        <ele>-30</ele>
        <time>2025-09-07T07:32:18.000Z</time>
        <extensions>
          <ns3:TrackPointExtension>
            <ns3:hr>112</ns3:hr>
            <ns3:cad>75</ns3:cad>
          </ns3:TrackPointExtension>
        </extensions>
      </trkpt>
      <trkpt lat="52.19216317869722843170166015625" lon="1.60706338472664356231689453125">
        <ele>-30</ele>
        <time>2025-09-07T07:32:19.000Z</time>
        <extensions>
          <ns3:TrackPointExtension>
            <ns3:hr>116</ns3:hr>
            <ns3:cad>76</ns3:cad>
          </ns3:TrackPointExtension>
        </extensions>
      </trkpt>
      <trkpt lat="52.19216980040073394775390625" lon="1.6070939786732196807861328125">
        <ele>-30</ele>
        <time>2025-09-07T07:32:20.000Z</time>
        <extensions>
          <ns3:TrackPointExtension>
            <ns3:hr>120</ns3:hr>
            <ns3:cad>75</ns3:cad>
          </ns3:TrackPointExtension>
        </extensions>
      </trkpt>
      <trkpt lat="52.192175500094890594482421875" lon="1.607124991714954376220703125">
        <ele>-30</ele>
        <time>2025-09-07T07:32:21.000Z</time>
        <extensions>
          <ns3:TrackPointExtension>
            <ns3:hr>123</ns3:hr>
            <ns3:cad>75</ns3:cad>
          </ns3:TrackPointExtension>
        </extensions>
      </trkpt>
      <trkpt lat="52.192190252244472503662109375" lon="1.6072083078324794769287109375">
        <ele>-30</ele>
        <time>2025-09-07T07:32:24.000Z</time>
        <extensions>
          <ns3:TrackPointExtension>
            <ns3:hr>126</ns3:hr>
            <ns3:cad>77</ns3:cad>
          </ns3:TrackPointExtension>
        </extensions>
      </trkpt>
      <trkpt lat="52.1921934373676776885986328125" lon="1.6072317771613597869873046875">
        <ele>-30</ele>
        <time>2025-09-07T07:32:25.000Z</time>
        <extensions>
          <ns3:TrackPointExtension>
            <ns3:hr>128</ns3:hr>
            <ns3:cad>77</ns3:cad>
          </ns3:TrackPointExtension>
        </extensions>
      </trkpt>
      <trkpt lat="52.192198298871517181396484375" lon="1.60728382878005504608154296875">
        <ele>-30</ele>
        <time>2025-09-07T07:32:27.000Z</time>
        <extensions>
          <ns3:TrackPointExtension>
            <ns3:hr>132</ns3:hr>
            <ns3:cad>79</ns3:cad>
          </ns3:TrackPointExtension>
        </extensions>
      </trkpt>
      <trkpt lat="52.1922053396701812744140625" lon="1.60730444826185703277587890625">
        <ele>-30</ele>
        <time>2025-09-07T07:32:28.000Z</time>
        <extensions>
          <ns3:TrackPointExtension>
            <ns3:hr>136</ns3:hr>
            <ns3:cad>79</ns3:cad>
          </ns3:TrackPointExtension>
        </extensions>
      </trkpt>
      <trkpt lat="52.192263342440128326416015625" lon="1.6074530594050884246826171875">
        <ele>-30</ele>
        <time>2025-09-07T07:32:33.000Z</time>
        <extensions>
          <ns3:TrackPointExtension>
            <ns3:hr>135</ns3:hr>
            <ns3:cad>79</ns3:cad>
          </ns3:TrackPointExtension>
        </extensions>
      </trkpt>
      <trkpt lat="52.19227029941976070404052734375" lon="1.607485748827457427978515625">
        <ele>-30</ele>
        <time>2025-09-07T07:32:34.000Z</time>
        <extensions>
          <ns3:TrackPointExtension>
            <ns3:hr>138</ns3:hr>
            <ns3:cad>79</ns3:cad>
          </ns3:TrackPointExtension>
        </extensions>
      </trkpt>
      <trkpt lat="52.19229041598737239837646484375" lon="1.60754467360675334930419921875">
        <ele>-29.799999237060546875</ele>
        <time>2025-09-07T07:32:36.000Z</time>
        <extensions>
          <ns3:TrackPointExtension>
            <ns3:hr>142</ns3:hr>
            <ns3:cad>80</ns3:cad>
          </ns3:TrackPointExtension>
        </extensions>
      </trkpt>
      <trkpt lat="52.19234037213027477264404296875" lon="1.60766168497502803802490234375">
        <ele>-29.799999237060546875</ele>
        <time>2025-09-07T07:32:41.000Z</time>
        <extensions>
          <ns3:TrackPointExtension>
            <ns3:hr>144</ns3:hr>
            <ns3:cad>79</ns3:cad>
          </ns3:TrackPointExtension>
        </extensions>
      </trkpt>
      <trkpt lat="52.1923842094838619232177734375" lon="1.60781054757535457611083984375">
        <ele>-29.799999237060546875</ele>
        <time>2025-09-07T07:32:46.000Z</time>
        <extensions>
          <ns3:TrackPointExtension>
            <ns3:hr>147</ns3:hr>
            <ns3:cad>79</ns3:cad>
          </ns3:TrackPointExtension>
        </extensions>
      </trkpt>
      <trkpt lat="52.19242637045681476593017578125" lon="1.60792185924947261810302734375">
        <ele>-29.6000003814697265625</ele>
        <time>2025-09-07T07:32:50.000Z</time>
        <extensions>
          <ns3:TrackPointExtension>
            <ns3:hr>149</ns3:hr>
            <ns3:cad>79</ns3:cad>
          </ns3:TrackPointExtension>
        </extensions>
      </trkpt>
      <trkpt lat="52.19249568879604339599609375" lon="1.60810223780572414398193359375">
        <ele>-29.3999996185302734375</ele>
        <time>2025-09-07T07:32:56.000Z</time>
        <extensions>
          <ns3:TrackPointExtension>
            <ns3:hr>151</ns3:hr>
            <ns3:cad>80</ns3:cad>
          </ns3:TrackPointExtension>
        </extensions>
      </trkpt>
      <trkpt lat="52.1925112791359424591064453125" lon="1.60813123919069766998291015625">
        <ele>-29.200000762939453125</ele>
        <time>2025-09-07T07:32:57.000Z</time>
        <extensions>
          <ns3:TrackPointExtension>
            <ns3:hr>151</ns3:hr>
            <ns3:cad>80</ns3:cad>
          </ns3:TrackPointExtension>
        </extensions>
      </trkpt>
      <trkpt lat="52.19258529134094715118408203125" lon="1.6082862205803394317626953125">
        <ele>-29</ele>
        <time>2025-09-07T07:33:03.000Z</time>
        <extensions>
          <ns3:TrackPointExtension>
            <ns3:hr>150</ns3:hr>
            <ns3:cad>78</ns3:cad>
          </ns3:TrackPointExtension>
        </extensions>
      </trkpt>
      <trkpt lat="52.19267296604812145233154296875" lon="1.6085303016006946563720703125">
        <ele>-29</ele>
        <time>2025-09-07T07:33:12.000Z</time>
        <extensions>
          <ns3:TrackPointExtension>
            <ns3:hr>150</ns3:hr>
            <ns3:cad>78</ns3:cad>
          </ns3:TrackPointExtension>
        </extensions>
      </trkpt>
      <trkpt lat="52.1927122771739959716796875" lon="1.60874982364475727081298828125">
        <ele>-29</ele>
        <time>2025-09-07T07:33:19.000Z</time>
        <extensions>
          <ns3:TrackPointExtension>
            <ns3:hr>151</ns3:hr>
            <ns3:cad>78</ns3:cad>
          </ns3:TrackPointExtension>
        </extensions>
      </trkpt>
      <trkpt lat="52.19272443093359470367431640625" lon="1.60881537012755870819091796875">
        <ele>-29</ele>
        <time>2025-09-07T07:33:21.000Z</time>
        <extensions>
          <ns3:TrackPointExtension>
            <ns3:hr>154</ns3:hr>
            <ns3:cad>78</ns3:cad>
          </ns3:TrackPointExtension>
        </extensions>
      </trkpt>
      <trkpt lat="52.19277824275195598602294921875" lon="1.6090290248394012451171875">
        <ele>-28.799999237060546875</ele>
        <time>2025-09-07T07:33:27.000Z</time>
        <extensions>
          <ns3:TrackPointExtension>
            <ns3:hr>157</ns3:hr>
            <ns3:cad>79</ns3:cad>
          </ns3:TrackPointExtension>
        </extensions>
      </trkpt>
      <trkpt lat="52.1928234212100505828857421875" lon="1.60922138951718807220458984375">
        <ele>-29</ele>
        <time>2025-09-07T07:33:33.000Z</time>
        <extensions>
          <ns3:TrackPointExtension>
            <ns3:hr>158</ns3:hr>
            <ns3:cad>79</ns3:cad>
          </ns3:TrackPointExtension>
        </extensions>
      </trkpt>
      <trkpt lat="52.192862145602703094482421875" lon="1.60934745334088802337646484375">
        <ele>-29</ele>
        <time>2025-09-07T07:33:37.000Z</time>
        <extensions>
          <ns3:TrackPointExtension>
            <ns3:hr>155</ns3:hr>
            <ns3:cad>79</ns3:cad>
          </ns3:TrackPointExtension>
        </extensions>
      </trkpt>
      <trkpt lat="52.19287429936230182647705078125" lon="1.6093829087913036346435546875">
        <ele>-29</ele>
        <time>2025-09-07T07:33:38.000Z</time>
        <extensions>
          <ns3:TrackPointExtension>
            <ns3:hr>156</ns3:hr>
            <ns3:cad>79</ns3:cad>
          </ns3:TrackPointExtension>
        </extensions>
      </trkpt>
      <trkpt lat="52.19292995519936084747314453125" lon="1.6096105612814426422119140625">
        <ele>-29.200000762939453125</ele>
        <time>2025-09-07T07:33:45.000Z</time>
        <extensions>
          <ns3:TrackPointExtension>
            <ns3:hr>155</ns3:hr>
            <ns3:cad>79</ns3:cad>
          </ns3:TrackPointExtension>
        </extensions>
      </trkpt>
      <trkpt lat="52.19294227659702301025390625" lon="1.60966780968010425567626953125">
        <ele>-29.200000762939453125</ele>
        <time>2025-09-07T07:33:47.000Z</time>
        <extensions>
          <ns3:TrackPointExtension>
            <ns3:hr>158</ns3:hr>
            <ns3:cad>79</ns3:cad>
          </ns3:TrackPointExtension>
        </extensions>
      </trkpt>
      <trkpt lat="52.19295342452824115753173828125" lon="1.60972598008811473846435546875">
        <ele>-29.200000762939453125</ele>
        <time>2025-09-07T07:33:49.000Z</time>
        <extensions>
          <ns3:TrackPointExtension>
            <ns3:hr>155</ns3:hr>
            <ns3:cad>79</ns3:cad>
          </ns3:TrackPointExtension>
        </extensions>
      </trkpt>
      <trkpt lat="52.1929655782878398895263671875" lon="1.60978264175355434417724609375">
        <ele>-29.200000762939453125</ele>
        <time>2025-09-07T07:33:51.000Z</time>
        <extensions>
          <ns3:TrackPointExtension>
            <ns3:hr>157</ns3:hr>
            <ns3:cad>78</ns3:cad>
          </ns3:TrackPointExtension>
        </extensions>
      </trkpt>
      <trkpt lat="52.1929806657135486602783203125" lon="1.60984508693218231201171875">
        <ele>-29</ele>
        <time>2025-09-07T07:33:53.000Z</time>
        <extensions>
          <ns3:TrackPointExtension>
            <ns3:hr>154</ns3:hr>
            <ns3:cad>77</ns3:cad>
          </ns3:TrackPointExtension>
        </extensions>
      </trkpt>
      <trkpt lat="52.19299835152924060821533203125" lon="1.61000065505504608154296875">
        <ele>-29</ele>
        <time>2025-09-07T07:33:58.000Z</time>
        <extensions>
          <ns3:TrackPointExtension>
            <ns3:hr>154</ns3:hr>
            <ns3:cad>78</ns3:cad>
          </ns3:TrackPointExtension>
        </extensions>
      </trkpt>
      <trkpt lat="52.1930490620434284210205078125" lon="1.610186398029327392578125">
        <ele>-28.799999237060546875</ele>
        <time>2025-09-07T07:34:04.000Z</time>
        <extensions>
          <ns3:TrackPointExtension>
            <ns3:hr>157</ns3:hr>
            <ns3:cad>78</ns3:cad>
          </ns3:TrackPointExtension>
        </extensions>
      </trkpt>
      <trkpt lat="52.19306029379367828369140625" lon="1.6102140583097934722900390625">
        <ele>-28.799999237060546875</ele>
        <time>2025-09-07T07:34:05.000Z</time>
        <extensions>
          <ns3:TrackPointExtension>
            <ns3:hr>158</ns3:hr>
            <ns3:cad>79</ns3:cad>
          </ns3:TrackPointExtension>
        </extensions>
      </trkpt>
      <trkpt lat="52.19310916028916835784912109375" lon="1.61035336554050445556640625">
        <ele>-28.799999237060546875</ele>
        <time>2025-09-07T07:34:10.000Z</time>
        <extensions>
          <ns3:TrackPointExtension>
            <ns3:hr>161</ns3:hr>
            <ns3:cad>79</ns3:cad>
          </ns3:TrackPointExtension>
        </extensions>
      </trkpt>
      <trkpt lat="52.19313246197998523712158203125" lon="1.61043810658156871795654296875">
        <ele>-28.799999237060546875</ele>
        <time>2025-09-07T07:34:13.000Z</time>
        <extensions>
          <ns3:TrackPointExtension>
            <ns3:hr>158</ns3:hr>
            <ns3:cad>78</ns3:cad>
          </ns3:TrackPointExtension>
        </extensions>
      </trkpt>
      <trkpt lat="52.19317831099033355712890625" lon="1.6106321476399898529052734375">
        <ele>-28.799999237060546875</ele>
        <time>2025-09-07T07:34:20.000Z</time>
        <extensions>
          <ns3:TrackPointExtension>
            <ns3:hr>158</ns3:hr>
            <ns3:cad>78</ns3:cad>
          </ns3:TrackPointExtension>
        </extensions>
      </trkpt>
      <trkpt lat="52.193184681236743927001953125" lon="1.6107845306396484375">
        <ele>-28.799999237060546875</ele>
        <time>2025-09-07T07:34:25.000Z</time>
        <extensions>
          <ns3:TrackPointExtension>
            <ns3:hr>155</ns3:hr>
            <ns3:cad>78</ns3:cad>
          </ns3:TrackPointExtension>
        </extensions>
      </trkpt>
      <trkpt lat="52.193193733692169189453125" lon="1.6108390130102634429931640625">
        <ele>-28.799999237060546875</ele>
        <time>2025-09-07T07:34:27.000Z</time>
        <extensions>
          <ns3:TrackPointExtension>
            <ns3:hr>156</ns3:hr>
            <ns3:cad>78</ns3:cad>
          </ns3:TrackPointExtension>
        </extensions>
      </trkpt>
      <trkpt lat="52.19320169650018215179443359375" lon="1.61089106462895870208740234375">
        <ele>-28.6000003814697265625</ele>
        <time>2025-09-07T07:34:29.000Z</time>
        <extensions>
          <ns3:TrackPointExtension>
            <ns3:hr>153</ns3:hr>
            <ns3:cad>78</ns3:cad>
          </ns3:TrackPointExtension>
        </extensions>
      </trkpt>
      <trkpt lat="52.19323589466512203216552734375" lon="1.61100656725466251373291015625">
        <ele>-28.6000003814697265625</ele>
        <time>2025-09-07T07:34:33.000Z</time>
        <extensions>
          <ns3:TrackPointExtension>
            <ns3:hr>149</ns3:hr>
            <ns3:cad>77</ns3:cad>
          </ns3:TrackPointExtension>
        </extensions>
      </trkpt>
      <trkpt lat="52.1932612918317317962646484375" lon="1.61108938045799732208251953125">
        <ele>-28.6000003814697265625</ele>
        <time>2025-09-07T07:34:36.000Z</time>
        <extensions>
          <ns3:TrackPointExtension>
            <ns3:hr>151</ns3:hr>
            <ns3:cad>77</ns3:cad>
          </ns3:TrackPointExtension>
        </extensions>
      </trkpt>
      <trkpt lat="52.19329096376895904541015625" lon="1.61122768186032772064208984375">
        <ele>-28.3999996185302734375</ele>
        <time>2025-09-07T07:34:41.000Z</time>
        <extensions>
          <ns3:TrackPointExtension>
            <ns3:hr>151</ns3:hr>
            <ns3:cad>77</ns3:cad>
          </ns3:TrackPointExtension>
        </extensions>
      </trkpt>
      <trkpt lat="52.19330479390919208526611328125" lon="1.6113352216780185699462890625">
        <ele>-28.200000762939453125</ele>
        <time>2025-09-07T07:34:45.000Z</time>
        <extensions>
          <ns3:TrackPointExtension>
            <ns3:hr>151</ns3:hr>
            <ns3:cad>78</ns3:cad>
          </ns3:TrackPointExtension>
        </extensions>
      </trkpt>
      <trkpt lat="52.1933343820273876190185546875" lon="1.61152825690805912017822265625">
        <ele>-28</ele>
        <time>2025-09-07T07:34:52.000Z</time>
        <extensions>
          <ns3:TrackPointExtension>
            <ns3:hr>150</ns3:hr>
            <ns3:cad>77</ns3:cad>
          </ns3:TrackPointExtension>
        </extensions>
      </trkpt>
      <trkpt lat="52.19335910864174365997314453125" lon="1.61162934266030788421630859375">
        <ele>-28</ele>
        <time>2025-09-07T07:34:56.000Z</time>
        <extensions>
          <ns3:TrackPointExtension>
            <ns3:hr>153</ns3:hr>
            <ns3:cad>79</ns3:cad>
          </ns3:TrackPointExtension>
        </extensions>
      </trkpt>
      <trkpt lat="52.1933675743639469146728515625" lon="1.6117191128432750701904296875">
        <ele>-28</ele>
        <time>2025-09-07T07:34:59.000Z</time>
        <extensions>
          <ns3:TrackPointExtension>
            <ns3:hr>154</ns3:hr>
            <ns3:cad>80</ns3:cad>
          </ns3:TrackPointExtension>
        </extensions>
      </trkpt>
      <trkpt lat="52.19339095987379550933837890625" lon="1.6118694841861724853515625">
        <ele>-27.799999237060546875</ele>
        <time>2025-09-07T07:35:04.000Z</time>
        <extensions>
          <ns3:TrackPointExtension>
            <ns3:hr>157</ns3:hr>
            <ns3:cad>79</ns3:cad>
          </ns3:TrackPointExtension>
        </extensions>
      </trkpt>
      <trkpt lat="52.1934175305068492889404296875" lon="1.6119698993861675262451171875">
        <ele>-27.6000003814697265625</ele>
        <time>2025-09-07T07:35:08.000Z</time>
        <extensions>
          <ns3:TrackPointExtension>
            <ns3:hr>158</ns3:hr>
            <ns3:cad>79</ns3:cad>
          </ns3:TrackPointExtension>
        </extensions>
      </trkpt>
      <trkpt lat="52.1934842504560947418212890625" lon="1.61218472756445407867431640625">
        <ele>-27.3999996185302734375</ele>
        <time>2025-09-07T07:35:16.000Z</time>
        <extensions>
          <ns3:TrackPointExtension>
            <ns3:hr>157</ns3:hr>
            <ns3:cad>79</ns3:cad>
          </ns3:TrackPointExtension>
        </extensions>
      </trkpt>
      <trkpt lat="52.193505875766277313232421875" lon="1.61226787604391574859619140625">
        <ele>-27.3999996185302734375</ele>
        <time>2025-09-07T07:35:19.000Z</time>
        <extensions>
          <ns3:TrackPointExtension>
            <ns3:hr>154</ns3:hr>
            <ns3:cad>78</ns3:cad>
          </ns3:TrackPointExtension>
        </extensions>
      </trkpt>
      <trkpt lat="52.19352724961936473846435546875" lon="1.61235739476978778839111328125">
        <ele>-27.3999996185302734375</ele>
        <time>2025-09-07T07:35:22.000Z</time>
        <extensions>
          <ns3:TrackPointExtension>
            <ns3:hr>155</ns3:hr>
            <ns3:cad>79</ns3:cad>
          </ns3:TrackPointExtension>
        </extensions>
      </trkpt>
      <trkpt lat="52.1935637108981609344482421875" lon="1.61250391043722629547119140625">
        <ele>-27.200000762939453125</ele>
        <time>2025-09-07T07:35:28.000Z</time>
        <extensions>
          <ns3:TrackPointExtension>
            <ns3:hr>157</ns3:hr>
            <ns3:cad>79</ns3:cad>
          </ns3:TrackPointExtension>
        </extensions>
      </trkpt>
      <trkpt lat="52.193629257380962371826171875" lon="1.612746901810169219970703125">
        <ele>-27.200000762939453125</ele>
        <time>2025-09-07T07:35:36.000Z</time>
        <extensions>
          <ns3:TrackPointExtension>
            <ns3:hr>156</ns3:hr>
            <ns3:cad>79</ns3:cad>
          </ns3:TrackPointExtension>
        </extensions>
      </trkpt>
      <trkpt lat="52.19371852464973926544189453125" lon="1.61299810744822025299072265625">
        <ele>-26.799999237060546875</ele>
        <time>2025-09-07T07:35:45.000Z</time>
        <extensions>
          <ns3:TrackPointExtension>
            <ns3:hr>154</ns3:hr>
            <ns3:cad>78</ns3:cad>
          </ns3:TrackPointExtension>
        </extensions>
      </trkpt>
      <trkpt lat="52.19377568922936916351318359375" lon="1.613074131309986114501953125">
        <ele>-26.6000003814697265625</ele>
        <time>2025-09-07T07:35:52.000Z</time>
        <extensions>
          <ns3:TrackPointExtension>
            <ns3:hr>155</ns3:hr>
            <ns3:cad>0</ns3:cad>
          </ns3:TrackPointExtension>
        </extensions>
      </trkpt>
      <trkpt lat="52.19378407113254070281982421875" lon="1.61307840608060359954833984375">
        <ele>-26.3999996185302734375</ele>
        <time>2025-09-07T07:35:58.000Z</time>
        <extensions>
          <ns3:TrackPointExtension>
            <ns3:hr>152</ns3:hr>
            <ns3:cad>0</ns3:cad>
          </ns3:TrackPointExtension>
        </extensions>
      </trkpt>
      <trkpt lat="52.19380569644272327423095703125" lon="1.61310757510364055633544921875">
        <ele>-26.3999996185302734375</ele>
        <time>2025-09-07T07:36:04.000Z</time>
        <extensions>
          <ns3:TrackPointExtension>
            <ns3:hr>150</ns3:hr>
            <ns3:cad>0</ns3:cad>
          </ns3:TrackPointExtension>
        </extensions>
      </trkpt>
      <trkpt lat="52.1938077919185161590576171875" lon="1.6131126880645751953125">
        <ele>-26.3999996185302734375</ele>
        <time>2025-09-07T07:36:06.000Z</time>
        <extensions>
          <ns3:TrackPointExtension>
            <ns3:hr>146</ns3:hr>
            <ns3:cad>0</ns3:cad>
          </ns3:TrackPointExtension>
        </extensions>
      </trkpt>
      <trkpt lat="52.1938077919185161590576171875" lon="1.61312316544353961944580078125">
        <ele>-26.3999996185302734375</ele>
        <time>2025-09-07T07:36:07.000Z</time>
        <extensions>
          <ns3:TrackPointExtension>
            <ns3:hr>143</ns3:hr>
            <ns3:cad>0</ns3:cad>
          </ns3:TrackPointExtension>
        </extensions>
      </trkpt>
      <trkpt lat="52.193810641765594482421875" lon="1.61313481628894805908203125">
        <ele>-26.3999996185302734375</ele>
        <time>2025-09-07T07:36:08.000Z</time>
        <extensions>
          <ns3:TrackPointExtension>
            <ns3:hr>138</ns3:hr>
            <ns3:cad>0</ns3:cad>
          </ns3:TrackPointExtension>
        </extensions>
      </trkpt>
      <trkpt lat="52.1938128210604190826416015625" lon="1.6131504066288471221923828125">
        <ele>-26.3999996185302734375</ele>
        <time>2025-09-07T07:36:09.000Z</time>
        <extensions>
          <ns3:TrackPointExtension>
            <ns3:hr>135</ns3:hr>
            <ns3:cad>0</ns3:cad>
          </ns3:TrackPointExtension>
        </extensions>
      </trkpt>
      <trkpt lat="52.19384140335023403167724609375" lon="1.61324420012533664703369140625">
        <ele>-26.3999996185302734375</ele>
        <time>2025-09-07T07:36:13.000Z</time>
        <extensions>
          <ns3:TrackPointExtension>
            <ns3:hr>133</ns3:hr>
            <ns3:cad>0</ns3:cad>
          </ns3:TrackPointExtension>
        </extensions>
      </trkpt>
      <trkpt lat="52.19390041194856166839599609375" lon="1.61340563558042049407958984375">
        <ele>-26.799999237060546875</ele>
        <time>2025-09-07T07:36:20.000Z</time>
        <extensions>
          <ns3:TrackPointExtension>
            <ns3:hr>134</ns3:hr>
            <ns3:cad>79</ns3:cad>
          </ns3:TrackPointExtension>
        </extensions>
      </trkpt>
      <trkpt lat="52.19394567422568798065185546875" lon="1.6135416738688945770263671875">
        <ele>-26.799999237060546875</ele>
        <time>2025-09-07T07:36:25.000Z</time>
        <extensions>
          <ns3:TrackPointExtension>
            <ns3:hr>139</ns3:hr>
            <ns3:cad>80</ns3:cad>
          </ns3:TrackPointExtension>
        </extensions>
      </trkpt>
      <trkpt lat="52.193973250687122344970703125" lon="1.6136187873780727386474609375">
        <ele>-26.799999237060546875</ele>
        <time>2025-09-07T07:36:28.000Z</time>
        <extensions>
          <ns3:TrackPointExtension>
            <ns3:hr>142</ns3:hr>
            <ns3:cad>80</ns3:cad>
          </ns3:TrackPointExtension>
        </extensions>
      </trkpt>
      <trkpt lat="52.19398976303637027740478515625" lon="1.6136801429092884063720703125">
        <ele>-26.799999237060546875</ele>
        <time>2025-09-07T07:36:30.000Z</time>
        <extensions>
          <ns3:TrackPointExtension>
            <ns3:hr>145</ns3:hr>
            <ns3:cad>79</ns3:cad>
          </ns3:TrackPointExtension>
        </extensions>
      </trkpt>
      <trkpt lat="52.194040305912494659423828125" lon="1.6138189472258090972900390625">
        <ele>-26.799999237060546875</ele>
        <time>2025-09-07T07:36:34.000Z</time>
        <extensions>
          <ns3:TrackPointExtension>
            <ns3:hr>148</ns3:hr>
            <ns3:cad>80</ns3:cad>
          </ns3:TrackPointExtension>
        </extensions>
      </trkpt>
      <trkpt lat="52.1940740011632442474365234375" lon="1.613909639418125152587890625">
        <ele>-26.3999996185302734375</ele>
        <time>2025-09-07T07:36:37.000Z</time>
        <extensions>
          <ns3:TrackPointExtension>
            <ns3:hr>149</ns3:hr>
            <ns3:cad>79</ns3:cad>
          </ns3:TrackPointExtension>
        </extensions>
      </trkpt>
      <trkpt lat="52.19408615492284297943115234375" lon="1.613937132060527801513671875">
        <ele>-26.3999996185302734375</ele>
        <time>2025-09-07T07:36:38.000Z</time>
        <extensions>
          <ns3:TrackPointExtension>
            <ns3:hr>149</ns3:hr>
            <ns3:cad>79</ns3:cad>
          </ns3:TrackPointExtension>
        </extensions>
      </trkpt>
      <trkpt lat="52.1941740810871124267578125" lon="1.61412983201444149017333984375">
        <ele>-26.200000762939453125</ele>
        <time>2025-09-07T07:36:45.000Z</time>
        <extensions>
          <ns3:TrackPointExtension>
            <ns3:hr>148</ns3:hr>
            <ns3:cad>79</ns3:cad>
          </ns3:TrackPointExtension>
        </extensions>
      </trkpt>
      <trkpt lat="52.19430039636790752410888671875" lon="1.61428355611860752105712890625">
        <ele>-26</ele>
        <time>2025-09-07T07:36:53.000Z</time>
        <extensions>
          <ns3:TrackPointExtension>
            <ns3:hr>148</ns3:hr>
            <ns3:cad>79</ns3:cad>
          </ns3:TrackPointExtension>
        </extensions>
      </trkpt>
      <trkpt lat="52.19440802000463008880615234375" lon="1.6144016571342945098876953125">
        <ele>-26</ele>
        <time>2025-09-07T07:37:00.000Z</time>
        <extensions>
          <ns3:TrackPointExtension>
            <ns3:hr>145</ns3:hr>
            <ns3:cad>79</ns3:cad>
          </ns3:TrackPointExtension>
        </extensions>
      </trkpt>
      <trkpt lat="52.1944568865001201629638671875" lon="1.614453792572021484375">
        <ele>-26</ele>
        <time>2025-09-07T07:37:03.000Z</time>
        <extensions>
          <ns3:TrackPointExtension>
            <ns3:hr>146</ns3:hr>
            <ns3:cad>79</ns3:cad>
          </ns3:TrackPointExtension>
        </extensions>
      </trkpt>
      <trkpt lat="52.19458085484802722930908203125" lon="1.61460936069488525390625">
        <ele>-25.3999996185302734375</ele>
        <time>2025-09-07T07:37:12.000Z</time>
        <extensions>
          <ns3:TrackPointExtension>
            <ns3:hr>147</ns3:hr>
            <ns3:cad>79</ns3:cad>
          </ns3:TrackPointExtension>
        </extensions>
      </trkpt>
      <trkpt lat="52.1946023963391780853271484375" lon="1.6146407090127468109130859375">
        <ele>-25.200000762939453125</ele>
        <time>2025-09-07T07:37:14.000Z</time>
        <extensions>
          <ns3:TrackPointExtension>
            <ns3:hr>149</ns3:hr>
            <ns3:cad>79</ns3:cad>
          </ns3:TrackPointExtension>
        </extensions>
      </trkpt>
      <trkpt lat="52.19468772411346435546875" lon="1.61474548280239105224609375">
        <ele>-25.200000762939453125</ele>
        <time>2025-09-07T07:37:20.000Z</time>
        <extensions>
          <ns3:TrackPointExtension>
            <ns3:hr>148</ns3:hr>
            <ns3:cad>79</ns3:cad>
          </ns3:TrackPointExtension>
        </extensions>
      </trkpt>
      <trkpt lat="52.194823510944843292236328125" lon="1.61493885330855846405029296875">
        <ele>-25</ele>
        <time>2025-09-07T07:37:29.000Z</time>
        <extensions>
          <ns3:TrackPointExtension>
            <ns3:hr>149</ns3:hr>
            <ns3:cad>79</ns3:cad>
          </ns3:TrackPointExtension>
        </extensions>
      </trkpt>
      <trkpt lat="52.19483985565602779388427734375" lon="1.61495947279036045074462890625">
        <ele>-25</ele>
        <time>2025-09-07T07:37:30.000Z</time>
        <extensions>
          <ns3:TrackPointExtension>
            <ns3:hr>150</ns3:hr>
            <ns3:cad>81</ns3:cad>
          </ns3:TrackPointExtension>
        </extensions>
      </trkpt>
      <trkpt lat="52.19493448734283447265625" lon="1.6150799207389354705810546875">
        <ele>-25.200000762939453125</ele>
        <time>2025-09-07T07:37:37.000Z</time>
        <extensions>
          <ns3:TrackPointExtension>
            <ns3:hr>150</ns3:hr>
            <ns3:cad>80</ns3:cad>
          </ns3:TrackPointExtension>
        </extensions>
      </trkpt>
      <trkpt lat="52.19505627639591693878173828125" lon="1.61522551439702510833740234375">
        <ele>-25.200000762939453125</ele>
        <time>2025-09-07T07:37:46.000Z</time>
        <extensions>
          <ns3:TrackPointExtension>
            <ns3:hr>149</ns3:hr>
            <ns3:cad>79</ns3:cad>
          </ns3:TrackPointExtension>
        </extensions>
      </trkpt>
      <trkpt lat="52.1951371617615222930908203125" lon="1.61537772975862026214599609375">
        <ele>-25.200000762939453125</ele>
        <time>2025-09-07T07:37:53.000Z</time>
        <extensions>
          <ns3:TrackPointExtension>
            <ns3:hr>149</ns3:hr>
            <ns3:cad>79</ns3:cad>
          </ns3:TrackPointExtension>
        </extensions>
      </trkpt>
      <trkpt lat="52.195229865610599517822265625" lon="1.615575291216373443603515625">
        <ele>-25</ele>
        <time>2025-09-07T07:38:02.000Z</time>
        <extensions>
          <ns3:TrackPointExtension>
            <ns3:hr>147</ns3:hr>
            <ns3:cad>77</ns3:cad>
          </ns3:TrackPointExtension>
        </extensions>
      </trkpt>
      <trkpt lat="52.1953185461461544036865234375" lon="1.61572809331119060516357421875">
        <ele>-24.6000003814697265625</ele>
        <time>2025-09-07T07:38:10.000Z</time>
        <extensions>
          <ns3:TrackPointExtension>
            <ns3:hr>149</ns3:hr>
            <ns3:cad>78</ns3:cad>
          </ns3:TrackPointExtension>
        </extensions>
      </trkpt>
      <trkpt lat="52.19541921280324459075927734375" lon="1.6158188693225383758544921875">
        <ele>-24.3999996185302734375</ele>
        <time>2025-09-07T07:38:18.000Z</time>
        <extensions>
          <ns3:TrackPointExtension>
            <ns3:hr>148</ns3:hr>
            <ns3:cad>79</ns3:cad>
          </ns3:TrackPointExtension>
        </extensions>
      </trkpt>
      <trkpt lat="52.1954546682536602020263671875" lon="1.61583714187145233154296875">
        <ele>-24.200000762939453125</ele>
        <time>2025-09-07T07:38:20.000Z</time>
        <extensions>
          <ns3:TrackPointExtension>
            <ns3:hr>149</ns3:hr>
            <ns3:cad>79</ns3:cad>
          </ns3:TrackPointExtension>
        </extensions>
      </trkpt>
      <trkpt lat="52.195561118423938751220703125" lon="1.61590713076293468475341796875">
        <ele>-23.799999237060546875</ele>
        <time>2025-09-07T07:38:26.000Z</time>
        <extensions>
          <ns3:TrackPointExtension>
            <ns3:hr>149</ns3:hr>
            <ns3:cad>79</ns3:cad>
          </ns3:TrackPointExtension>
        </extensions>
      </trkpt>
      <trkpt lat="52.1957329474389553070068359375" lon="1.61601894535124301910400390625">
        <ele>-23.6000003814697265625</ele>
        <time>2025-09-07T07:38:33.000Z</time>
        <extensions>
          <ns3:TrackPointExtension>
            <ns3:hr>148</ns3:hr>
            <ns3:cad>79</ns3:cad>
          </ns3:TrackPointExtension>
        </extensions>
      </trkpt>
      <trkpt lat="52.19582992605865001678466796875" lon="1.61609153263270854949951171875">
        <ele>-23.6000003814697265625</ele>
        <time>2025-09-07T07:38:37.000Z</time>
        <extensions>
          <ns3:TrackPointExtension>
            <ns3:hr>149</ns3:hr>
            <ns3:cad>80</ns3:cad>
          </ns3:TrackPointExtension>
        </extensions>
      </trkpt>
      <trkpt lat="52.195999324321746826171875" lon="1.61615288816392421722412109375">
        <ele>-23.200000762939453125</ele>
        <time>2025-09-07T07:38:45.000Z</time>
        <extensions>
          <ns3:TrackPointExtension>
            <ns3:hr>151</ns3:hr>
            <ns3:cad>80</ns3:cad>
          </ns3:TrackPointExtension>
        </extensions>
      </trkpt>
      <trkpt lat="52.1960489451885223388671875" lon="1.61618205718696117401123046875">
        <ele>-23.200000762939453125</ele>
        <time>2025-09-07T07:38:48.000Z</time>
        <extensions>
          <ns3:TrackPointExtension>
            <ns3:hr>151</ns3:hr>
            <ns3:cad>80</ns3:cad>
          </ns3:TrackPointExtension>
        </extensions>
      </trkpt>
      <trkpt lat="52.19607518054544925689697265625" lon="1.61619630642235279083251953125">
        <ele>-23.200000762939453125</ele>
        <time>2025-09-07T07:38:49.000Z</time>
        <extensions>
          <ns3:TrackPointExtension>
            <ns3:hr>152</ns3:hr>
            <ns3:cad>81</ns3:cad>
          </ns3:TrackPointExtension>
        </extensions>
      </trkpt>
      <trkpt lat="52.19619135372340679168701171875" lon="1.616253890097141265869140625">
        <ele>-22.799999237060546875</ele>
        <time>2025-09-07T07:38:54.000Z</time>
        <extensions>
          <ns3:TrackPointExtension>
            <ns3:hr>149</ns3:hr>
            <ns3:cad>79</ns3:cad>
          </ns3:TrackPointExtension>
        </extensions>
      </trkpt>
      <trkpt lat="52.19620929099619388580322265625" lon="1.6162656247615814208984375">
        <ele>-22.799999237060546875</ele>
        <time>2025-09-07T07:38:55.000Z</time>
        <extensions>
          <ns3:TrackPointExtension>
            <ns3:hr>151</ns3:hr>
            <ns3:cad>79</ns3:cad>
          </ns3:TrackPointExtension>
        </extensions>
      </trkpt>
      <trkpt lat="52.19637391157448291778564453125" lon="1.616391353309154510498046875">
        <ele>-22.799999237060546875</ele>
        <time>2025-09-07T07:39:04.000Z</time>
        <extensions>
          <ns3:TrackPointExtension>
            <ns3:hr>149</ns3:hr>
            <ns3:cad>79</ns3:cad>
          </ns3:TrackPointExtension>
        </extensions>
      </trkpt>
      <trkpt lat="52.1965017355978488922119140625" lon="1.6164820455014705657958984375">
        <ele>-23</ele>
        <time>2025-09-07T07:39:11.000Z</time>
        <extensions>
          <ns3:TrackPointExtension>
            <ns3:hr>152</ns3:hr>
            <ns3:cad>81</ns3:cad>
          </ns3:TrackPointExtension>
        </extensions>
      </trkpt>
      <trkpt lat="52.19652059487998485565185546875" lon="1.616498641669750213623046875">
        <ele>-23</ele>
        <time>2025-09-07T07:39:12.000Z</time>
        <extensions>
          <ns3:TrackPointExtension>
            <ns3:hr>153</ns3:hr>
            <ns3:cad>81</ns3:cad>
          </ns3:TrackPointExtension>
        </extensions>
      </trkpt>
      <trkpt lat="52.1965386159718036651611328125" lon="1.61651565693318843841552734375">
        <ele>-23</ele>
        <time>2025-09-07T07:39:13.000Z</time>
        <extensions>
          <ns3:TrackPointExtension>
            <ns3:hr>150</ns3:hr>
            <ns3:cad>81</ns3:cad>
          </ns3:TrackPointExtension>
        </extensions>
      </trkpt>
      <trkpt lat="52.19669024460017681121826171875" lon="1.61668740212917327880859375">
        <ele>-23</ele>
        <time>2025-09-07T07:39:19.000Z</time>
        <extensions>
          <ns3:TrackPointExtension>
            <ns3:hr>148</ns3:hr>
            <ns3:cad>80</ns3:cad>
          </ns3:TrackPointExtension>
        </extensions>
      </trkpt>
      <trkpt lat="52.196710444986820220947265625" lon="1.6167060099542140960693359375">
        <ele>-23</ele>
        <time>2025-09-07T07:39:20.000Z</time>
        <extensions>
          <ns3:TrackPointExtension>
            <ns3:hr>148</ns3:hr>
            <ns3:cad>79</ns3:cad>
          </ns3:TrackPointExtension>
        </extensions>
      </trkpt>
      <trkpt lat="52.1968742273747920989990234375" lon="1.61688563413918018341064453125">
        <ele>-22.799999237060546875</ele>
        <time>2025-09-07T07:39:29.000Z</time>
        <extensions>
          <ns3:TrackPointExtension>
            <ns3:hr>148</ns3:hr>
            <ns3:cad>79</ns3:cad>
          </ns3:TrackPointExtension>
        </extensions>
      </trkpt>
      <trkpt lat="52.19699618406593799591064453125" lon="1.617032401263713836669921875">
        <ele>-23</ele>
        <time>2025-09-07T07:39:36.000Z</time>
        <extensions>
          <ns3:TrackPointExtension>
            <ns3:hr>148</ns3:hr>
            <ns3:cad>80</ns3:cad>
          </ns3:TrackPointExtension>
        </extensions>
      </trkpt>
      <trkpt lat="52.19706323929131031036376953125" lon="1.6171103529632091522216796875">
        <ele>-23.200000762939453125</ele>
        <time>2025-09-07T07:39:40.000Z</time>
        <extensions>
          <ns3:TrackPointExtension>
            <ns3:hr>152</ns3:hr>
            <ns3:cad>79</ns3:cad>
          </ns3:TrackPointExtension>
        </extensions>
      </trkpt>
      <trkpt lat="52.19714286737143993377685546875" lon="1.6171888075768947601318359375">
        <ele>-23.200000762939453125</ele>
        <time>2025-09-07T07:39:44.000Z</time>
        <extensions>
          <ns3:TrackPointExtension>
            <ns3:hr>150</ns3:hr>
            <ns3:cad>80</ns3:cad>
          </ns3:TrackPointExtension>
        </extensions>
      </trkpt>
      <trkpt lat="52.19728033058345317840576171875" lon="1.61732249893248081207275390625">
        <ele>-23.200000762939453125</ele>
        <time>2025-09-07T07:39:51.000Z</time>
        <extensions>
          <ns3:TrackPointExtension>
            <ns3:hr>150</ns3:hr>
            <ns3:cad>79</ns3:cad>
          </ns3:TrackPointExtension>
        </extensions>
      </trkpt>
      <trkpt lat="52.19742114655673503875732421875" lon="1.617486365139484405517578125">
        <ele>-23.200000762939453125</ele>
        <time>2025-09-07T07:39:59.000Z</time>
        <extensions>
          <ns3:TrackPointExtension>
            <ns3:hr>151</ns3:hr>
            <ns3:cad>80</ns3:cad>
          </ns3:TrackPointExtension>
        </extensions>
      </trkpt>
      <trkpt lat="52.19756984151899814605712890625" lon="1.6175861097872257232666015625">
        <ele>-23</ele>
        <time>2025-09-07T07:40:06.000Z</time>
        <extensions>
          <ns3:TrackPointExtension>
            <ns3:hr>149</ns3:hr>
            <ns3:cad>77</ns3:cad>
          </ns3:TrackPointExtension>
        </extensions>
      </trkpt>
      <trkpt lat="52.19764712266623973846435546875" lon="1.61763958632946014404296875">
        <ele>-23</ele>
        <time>2025-09-07T07:40:10.000Z</time>
        <extensions>
          <ns3:TrackPointExtension>
            <ns3:hr>145</ns3:hr>
            <ns3:cad>78</ns3:cad>
          </ns3:TrackPointExtension>
        </extensions>
      </trkpt>
      <trkpt lat="52.19768500886857509613037109375" lon="1.61767286248505115509033203125">
        <ele>-23</ele>
        <time>2025-09-07T07:40:12.000Z</time>
        <extensions>
          <ns3:TrackPointExtension>
            <ns3:hr>148</ns3:hr>
            <ns3:cad>79</ns3:cad>
          </ns3:TrackPointExtension>
        </extensions>
      </trkpt>
      <trkpt lat="52.19770194031298160552978515625" lon="1.61768727935850620269775390625">
        <ele>-23</ele>
        <time>2025-09-07T07:40:13.000Z</time>
        <extensions>
          <ns3:TrackPointExtension>
            <ns3:hr>147</ns3:hr>
            <ns3:cad>79</ns3:cad>
          </ns3:TrackPointExtension>
        </extensions>
      </trkpt>
      <trkpt lat="52.19779581762850284576416015625" lon="1.61773656494915485382080078125">
        <ele>-23</ele>
        <time>2025-09-07T07:40:18.000Z</time>
        <extensions>
          <ns3:TrackPointExtension>
            <ns3:hr>150</ns3:hr>
            <ns3:cad>79</ns3:cad>
          </ns3:TrackPointExtension>
        </extensions>
      </trkpt>
      <trkpt lat="52.1978542394936084747314453125" lon="1.617764644324779510498046875">
        <ele>-23</ele>
        <time>2025-09-07T07:40:21.000Z</time>
        <extensions>
          <ns3:TrackPointExtension>
            <ns3:hr>150</ns3:hr>
            <ns3:cad>79</ns3:cad>
          </ns3:TrackPointExtension>
        </extensions>
      </trkpt>
      <trkpt lat="52.19799463637173175811767578125" lon="1.61787721328437328338623046875">
        <ele>-23</ele>
        <time>2025-09-07T07:40:29.000Z</time>
        <extensions>
          <ns3:TrackPointExtension>
            <ns3:hr>150</ns3:hr>
            <ns3:cad>78</ns3:cad>
          </ns3:TrackPointExtension>
        </extensions>
      </trkpt>
      <trkpt lat="52.19812355004251003265380859375" lon="1.6179098188877105712890625">
        <ele>-23</ele>
        <time>2025-09-07T07:40:37.000Z</time>
        <extensions>
          <ns3:TrackPointExtension>
            <ns3:hr>147</ns3:hr>
            <ns3:cad>77</ns3:cad>
          </ns3:TrackPointExtension>
        </extensions>
      </trkpt>
      <trkpt lat="52.1981429122388362884521484375" lon="1.61791979335248470306396484375">
        <ele>-23</ele>
        <time>2025-09-07T07:40:38.000Z</time>
        <extensions>
          <ns3:TrackPointExtension>
            <ns3:hr>148</ns3:hr>
            <ns3:cad>77</ns3:cad>
          </ns3:TrackPointExtension>
        </extensions>
      </trkpt>
      <trkpt lat="52.1982307545840740203857421875" lon="1.6179366409778594970703125">
        <ele>-23</ele>
        <time>2025-09-07T07:40:42.000Z</time>
        <extensions>
          <ns3:TrackPointExtension>
            <ns3:hr>151</ns3:hr>
            <ns3:cad>78</ns3:cad>
          </ns3:TrackPointExtension>
        </extensions>
      </trkpt>
      <trkpt lat="52.1982897631824016571044921875" lon="1.617930941283702850341796875">
        <ele>-23</ele>
        <time>2025-09-07T07:40:45.000Z</time>
        <extensions>
          <ns3:TrackPointExtension>
            <ns3:hr>151</ns3:hr>
            <ns3:cad>79</ns3:cad>
          </ns3:TrackPointExtension>
        </extensions>
      </trkpt>
      <trkpt lat="52.19839495606720447540283203125" lon="1.61793370731174945831298828125">
        <ele>-22.799999237060546875</ele>
        <time>2025-09-07T07:40:51.000Z</time>
        <extensions>
          <ns3:TrackPointExtension>
            <ns3:hr>154</ns3:hr>
            <ns3:cad>79</ns3:cad>
          </ns3:TrackPointExtension>
        </extensions>
      </trkpt>
      <trkpt lat="52.19843150116503238677978515625" lon="1.61793865263462066650390625">
        <ele>-22.799999237060546875</ele>
        <time>2025-09-07T07:40:53.000Z</time>
        <extensions>
          <ns3:TrackPointExtension>
            <ns3:hr>154</ns3:hr>
            <ns3:cad>78</ns3:cad>
          </ns3:TrackPointExtension>
        </extensions>
      </trkpt>
      <trkpt lat="52.19848145730793476104736328125" lon="1.6179468668997287750244140625">
        <ele>-22.799999237060546875</ele>
        <time>2025-09-07T07:40:56.000Z</time>
        <extensions>
          <ns3:TrackPointExtension>
            <ns3:hr>151</ns3:hr>
            <ns3:cad>79</ns3:cad>
          </ns3:TrackPointExtension>
        </extensions>
      </trkpt>
      <trkpt lat="52.19856142066419124603271484375" lon="1.617953069508075714111328125">
        <ele>-22.6000003814697265625</ele>
        <time>2025-09-07T07:41:01.000Z</time>
        <extensions>
          <ns3:TrackPointExtension>
            <ns3:hr>151</ns3:hr>
            <ns3:cad>79</ns3:cad>
          </ns3:TrackPointExtension>
        </extensions>
      </trkpt>
      <trkpt lat="52.1987400390207767486572265625" lon="1.6179622896015644073486328125">
        <ele>-22.6000003814697265625</ele>
        <time>2025-09-07T07:41:10.000Z</time>
        <extensions>
          <ns3:TrackPointExtension>
            <ns3:hr>150</ns3:hr>
            <ns3:cad>79</ns3:cad>
          </ns3:TrackPointExtension>
        </extensions>
      </trkpt>
      <trkpt lat="52.1989070065319538116455078125" lon="1.6179834119975566864013671875">
        <ele>-22</ele>
        <time>2025-09-07T07:41:18.000Z</time>
        <extensions>
          <ns3:TrackPointExtension>
            <ns3:hr>151</ns3:hr>
            <ns3:cad>79</ns3:cad>
          </ns3:TrackPointExtension>
        </extensions>
      </trkpt>
      <trkpt lat="52.1990020573139190673828125" lon="1.61799958907067775726318359375">
        <ele>-22</ele>
        <time>2025-09-07T07:41:23.000Z</time>
        <extensions>
          <ns3:TrackPointExtension>
            <ns3:hr>147</ns3:hr>
            <ns3:cad>79</ns3:cad>
          </ns3:TrackPointExtension>
        </extensions>
      </trkpt>
      <trkpt lat="52.1990417875349521636962890625" lon="1.6180045343935489654541015625">
        <ele>-21.799999237060546875</ele>
        <time>2025-09-07T07:41:25.000Z</time>
        <extensions>
          <ns3:TrackPointExtension>
            <ns3:hr>150</ns3:hr>
            <ns3:cad>79</ns3:cad>
          </ns3:TrackPointExtension>
        </extensions>
      </trkpt>
      <trkpt lat="52.199104316532611846923828125" lon="1.618004702031612396240234375">
        <ele>-21.6000003814697265625</ele>
        <time>2025-09-07T07:41:29.000Z</time>
        <extensions>
          <ns3:TrackPointExtension>
            <ns3:hr>151</ns3:hr>
            <ns3:cad>79</ns3:cad>
          </ns3:TrackPointExtension>
        </extensions>
      </trkpt>
      <trkpt lat="52.19925083220005035400390625" lon="1.61799908615648746490478515625">
        <ele>-21.6000003814697265625</ele>
        <time>2025-09-07T07:41:37.000Z</time>
        <extensions>
          <ns3:TrackPointExtension>
            <ns3:hr>152</ns3:hr>
            <ns3:cad>79</ns3:cad>
          </ns3:TrackPointExtension>
        </extensions>
      </trkpt>
      <trkpt lat="52.19940195791423320770263671875" lon="1.61799539811909198760986328125">
        <ele>-21.3999996185302734375</ele>
        <time>2025-09-07T07:41:45.000Z</time>
        <extensions>
          <ns3:TrackPointExtension>
            <ns3:hr>150</ns3:hr>
            <ns3:cad>79</ns3:cad>
          </ns3:TrackPointExtension>
        </extensions>
      </trkpt>
      <trkpt lat="52.19959055073559284210205078125" lon="1.61802624352276325225830078125">
        <ele>-21.200000762939453125</ele>
        <time>2025-09-07T07:41:54.000Z</time>
        <extensions>
          <ns3:TrackPointExtension>
            <ns3:hr>151</ns3:hr>
            <ns3:cad>79</ns3:cad>
          </ns3:TrackPointExtension>
        </extensions>
      </trkpt>
      <trkpt lat="52.19977855682373046875" lon="1.61802984774112701416015625">
        <ele>-21.3999996185302734375</ele>
        <time>2025-09-07T07:42:03.000Z</time>
        <extensions>
          <ns3:TrackPointExtension>
            <ns3:hr>151</ns3:hr>
            <ns3:cad>80</ns3:cad>
          </ns3:TrackPointExtension>
        </extensions>
      </trkpt>
      <trkpt lat="52.1999463625252246856689453125" lon="1.61802272312343120574951171875">
        <ele>-21.6000003814697265625</ele>
        <time>2025-09-07T07:42:12.000Z</time>
        <extensions>
          <ns3:TrackPointExtension>
            <ns3:hr>150</ns3:hr>
            <ns3:cad>79</ns3:cad>
          </ns3:TrackPointExtension>
        </extensions>
      </trkpt>
      <trkpt lat="52.20009145326912403106689453125" lon="1.61801132373511791229248046875">
        <ele>-22</ele>
        <time>2025-09-07T07:42:21.000Z</time>
        <extensions>
          <ns3:TrackPointExtension>
            <ns3:hr>151</ns3:hr>
            <ns3:cad>80</ns3:cad>
          </ns3:TrackPointExtension>
        </extensions>
      </trkpt>
      <trkpt lat="52.20025599002838134765625" lon="1.617922894656658172607421875">
        <ele>-22.3999996185302734375</ele>
        <time>2025-09-07T07:42:29.000Z</time>
        <extensions>
          <ns3:TrackPointExtension>
            <ns3:hr>153</ns3:hr>
            <ns3:cad>79</ns3:cad>
          </ns3:TrackPointExtension>
        </extensions>
      </trkpt>
      <trkpt lat="52.2003738395869731903076171875" lon="1.61780026741325855255126953125">
        <ele>-22.6000003814697265625</ele>
        <time>2025-09-07T07:42:36.000Z</time>
        <extensions>
          <ns3:TrackPointExtension>
            <ns3:hr>151</ns3:hr>
            <ns3:cad>79</ns3:cad>
          </ns3:TrackPointExtension>
        </extensions>
      </trkpt>
      <trkpt lat="52.2004516236484050750732421875" lon="1.61767177283763885498046875">
        <ele>-23</ele>
        <time>2025-09-07T07:42:44.000Z</time>
        <extensions>
          <ns3:TrackPointExtension>
            <ns3:hr>150</ns3:hr>
            <ns3:cad>78</ns3:cad>
          </ns3:TrackPointExtension>
        </extensions>
      </trkpt>
      <trkpt lat="52.20046210102736949920654296875" lon="1.61766280420124530792236328125">
        <ele>-22.799999237060546875</ele>
        <time>2025-09-07T07:42:46.000Z</time>
        <extensions>
          <ns3:TrackPointExtension>
            <ns3:hr>153</ns3:hr>
            <ns3:cad>0</ns3:cad>
          </ns3:TrackPointExtension>
        </extensions>
      </trkpt>
      <trkpt lat="52.20050317235291004180908203125" lon="1.6176068969070911407470703125">
        <ele>-23</ele>
        <time>2025-09-07T07:42:52.000Z</time>
        <extensions>
          <ns3:TrackPointExtension>
            <ns3:hr>153</ns3:hr>
            <ns3:cad>0</ns3:cad>
          </ns3:TrackPointExtension>
        </extensions>
      </trkpt>
      <trkpt lat="52.20062680542469024658203125" lon="1.61754830740392208099365234375">
        <ele>-23</ele>
        <time>2025-09-07T07:42:59.000Z</time>
        <extensions>
          <ns3:TrackPointExtension>
            <ns3:hr>153</ns3:hr>
            <ns3:cad>79</ns3:cad>
          </ns3:TrackPointExtension>
        </extensions>
      </trkpt>
      <trkpt lat="52.2007010690867900848388671875" lon="1.61753137595951557159423828125">
        <ele>-23.200000762939453125</ele>
        <time>2025-09-07T07:43:02.000Z</time>
        <extensions>
          <ns3:TrackPointExtension>
            <ns3:hr>154</ns3:hr>
            <ns3:cad>79</ns3:cad>
          </ns3:TrackPointExtension>
        </extensions>
      </trkpt>
      <trkpt lat="52.2008045017719268798828125" lon="1.6175197251141071319580078125">
        <ele>-23.3999996185302734375</ele>
        <time>2025-09-07T07:43:07.000Z</time>
        <extensions>
          <ns3:TrackPointExtension>
            <ns3:hr>151</ns3:hr>
            <ns3:cad>79</ns3:cad>
          </ns3:TrackPointExtension>
        </extensions>
      </trkpt>
      <trkpt lat="52.200825624167919158935546875" lon="1.617517210543155670166015625">
        <ele>-23.3999996185302734375</ele>
        <time>2025-09-07T07:43:08.000Z</time>
        <extensions>
          <ns3:TrackPointExtension>
            <ns3:hr>151</ns3:hr>
            <ns3:cad>79</ns3:cad>
          </ns3:TrackPointExtension>
        </extensions>
      </trkpt>
      <trkpt lat="52.20098848454654216766357421875" lon="1.61748670041561126708984375">
        <ele>-23.3999996185302734375</ele>
        <time>2025-09-07T07:43:16.000Z</time>
        <extensions>
          <ns3:TrackPointExtension>
            <ns3:hr>151</ns3:hr>
            <ns3:cad>79</ns3:cad>
          </ns3:TrackPointExtension>
        </extensions>
      </trkpt>
      <trkpt lat="52.201111279428005218505859375" lon="1.6174815036356449127197265625">
        <ele>-23.6000003814697265625</ele>
        <time>2025-09-07T07:43:23.000Z</time>
        <extensions>
          <ns3:TrackPointExtension>
            <ns3:hr>151</ns3:hr>
            <ns3:cad>78</ns3:cad>
          </ns3:TrackPointExtension>
        </extensions>
      </trkpt>
      <trkpt lat="52.2012938372790813446044921875" lon="1.61748661659657955169677734375">
        <ele>-23.799999237060546875</ele>
        <time>2025-09-07T07:43:32.000Z</time>
        <extensions>
          <ns3:TrackPointExtension>
            <ns3:hr>155</ns3:hr>
            <ns3:cad>79</ns3:cad>
          </ns3:TrackPointExtension>
        </extensions>
      </trkpt>
      <trkpt lat="52.20131185837090015411376953125" lon="1.61748192273080348968505859375">
        <ele>-23.799999237060546875</ele>
        <time>2025-09-07T07:43:33.000Z</time>
        <extensions>
          <ns3:TrackPointExtension>
            <ns3:hr>154</ns3:hr>
            <ns3:cad>79</ns3:cad>
          </ns3:TrackPointExtension>
        </extensions>
      </trkpt>
      <trkpt lat="52.201342284679412841796875" lon="1.6173809207975864410400390625">
        <ele>-23.799999237060546875</ele>
        <time>2025-09-07T07:43:38.000Z</time>
        <extensions>
          <ns3:TrackPointExtension>
            <ns3:hr>151</ns3:hr>
            <ns3:cad>78</ns3:cad>
          </ns3:TrackPointExtension>
        </extensions>
      </trkpt>
      <trkpt lat="52.20138830132782459259033203125" lon="1.6173349879682064056396484375">
        <ele>-23.799999237060546875</ele>
        <time>2025-09-07T07:43:41.000Z</time>
        <extensions>
          <ns3:TrackPointExtension>
            <ns3:hr>150</ns3:hr>
            <ns3:cad>78</ns3:cad>
          </ns3:TrackPointExtension>
        </extensions>
      </trkpt>
      <trkpt lat="52.20151017419993877410888671875" lon="1.61727354861795902252197265625">
        <ele>-23.799999237060546875</ele>
        <time>2025-09-07T07:43:49.000Z</time>
        <extensions>
          <ns3:TrackPointExtension>
            <ns3:hr>148</ns3:hr>
            <ns3:cad>78</ns3:cad>
          </ns3:TrackPointExtension>
        </extensions>
      </trkpt>
      <trkpt lat="52.20163204707205295562744140625" lon="1.61716642789542675018310546875">
        <ele>-23.799999237060546875</ele>
        <time>2025-09-07T07:43:56.000Z</time>
        <extensions>
          <ns3:TrackPointExtension>
            <ns3:hr>147</ns3:hr>
            <ns3:cad>78</ns3:cad>
          </ns3:TrackPointExtension>
        </extensions>
      </trkpt>
      <trkpt lat="52.2017417661845684051513671875" lon="1.6170756518840789794921875">
        <ele>-23.799999237060546875</ele>
        <time>2025-09-07T07:44:02.000Z</time>
        <extensions>
          <ns3:TrackPointExtension>
            <ns3:hr>149</ns3:hr>
            <ns3:cad>79</ns3:cad>
          </ns3:TrackPointExtension>
        </extensions>
      </trkpt>
      <trkpt lat="52.20185651443898677825927734375" lon="1.61702795885503292083740234375">
        <ele>-23.799999237060546875</ele>
        <time>2025-09-07T07:44:08.000Z</time>
        <extensions>
          <ns3:TrackPointExtension>
            <ns3:hr>149</ns3:hr>
            <ns3:cad>78</ns3:cad>
          </ns3:TrackPointExtension>
        </extensions>
      </trkpt>
      <trkpt lat="52.20191694796085357666015625" lon="1.6170003823935985565185546875">
        <ele>-24</ele>
        <time>2025-09-07T07:44:12.000Z</time>
        <extensions>
          <ns3:TrackPointExtension>
            <ns3:hr>152</ns3:hr>
            <ns3:cad>78</ns3:cad>
          </ns3:TrackPointExtension>
        </extensions>
      </trkpt>
      <trkpt lat="52.20197821967303752899169921875" lon="1.6169762425124645233154296875">
        <ele>-24.200000762939453125</ele>
        <time>2025-09-07T07:44:16.000Z</time>
        <extensions>
          <ns3:TrackPointExtension>
            <ns3:hr>151</ns3:hr>
            <ns3:cad>78</ns3:cad>
          </ns3:TrackPointExtension>
        </extensions>
      </trkpt>
      <trkpt lat="52.20200018025934696197509765625" lon="1.616957969963550567626953125">
        <ele>-24.200000762939453125</ele>
        <time>2025-09-07T07:44:18.000Z</time>
        <extensions>
          <ns3:TrackPointExtension>
            <ns3:hr>152</ns3:hr>
            <ns3:cad>78</ns3:cad>
          </ns3:TrackPointExtension>
        </extensions>
      </trkpt>
      <trkpt lat="52.20214988104999065399169921875" lon="1.6169363446533679962158203125">
        <ele>-24.3999996185302734375</ele>
        <time>2025-09-07T07:44:27.000Z</time>
        <extensions>
          <ns3:TrackPointExtension>
            <ns3:hr>151</ns3:hr>
            <ns3:cad>78</ns3:cad>
          </ns3:TrackPointExtension>
        </extensions>
      </trkpt>
      <trkpt lat="52.20232623629271984100341796875" lon="1.6168307326734066009521484375">
        <ele>-24.6000003814697265625</ele>
        <time>2025-09-07T07:44:35.000Z</time>
        <extensions>
          <ns3:TrackPointExtension>
            <ns3:hr>153</ns3:hr>
            <ns3:cad>79</ns3:cad>
          </ns3:TrackPointExtension>
        </extensions>
      </trkpt>
      <trkpt lat="52.2023519687354564666748046875" lon="1.61682008765637874603271484375">
        <ele>-24.6000003814697265625</ele>
        <time>2025-09-07T07:44:36.000Z</time>
        <extensions>
          <ns3:TrackPointExtension>
            <ns3:hr>153</ns3:hr>
            <ns3:cad>79</ns3:cad>
          </ns3:TrackPointExtension>
        </extensions>
      </trkpt>
      <trkpt lat="52.20251549966633319854736328125" lon="1.61682427860796451568603515625">
        <ele>-24.6000003814697265625</ele>
        <time>2025-09-07T07:44:44.000Z</time>
        <extensions>
          <ns3:TrackPointExtension>
            <ns3:hr>152</ns3:hr>
            <ns3:cad>0</ns3:cad>
          </ns3:TrackPointExtension>
        </extensions>
      </trkpt>
      <trkpt lat="52.20254190266132354736328125" lon="1.61684489808976650238037109375">
        <ele>-24.6000003814697265625</ele>
        <time>2025-09-07T07:44:46.000Z</time>
        <extensions>
          <ns3:TrackPointExtension>
            <ns3:hr>152</ns3:hr>
            <ns3:cad>0</ns3:cad>
          </ns3:TrackPointExtension>
        </extensions>
      </trkpt>
      <trkpt lat="52.20259487628936767578125" lon="1.616890914738178253173828125">
        <ele>-24.6000003814697265625</ele>
        <time>2025-09-07T07:44:49.000Z</time>
        <extensions>
          <ns3:TrackPointExtension>
            <ns3:hr>153</ns3:hr>
            <ns3:cad>0</ns3:cad>
          </ns3:TrackPointExtension>
        </extensions>
      </trkpt>
      <trkpt lat="52.20266536809504032135009765625" lon="1.61689720116555690765380859375">
        <ele>-24.6000003814697265625</ele>
        <time>2025-09-07T07:44:54.000Z</time>
        <extensions>
          <ns3:TrackPointExtension>
            <ns3:hr>152</ns3:hr>
            <ns3:cad>0</ns3:cad>
          </ns3:TrackPointExtension>
        </extensions>
      </trkpt>
      <trkpt lat="52.202687077224254608154296875" lon="1.6168873943388462066650390625">
        <ele>-24.6000003814697265625</ele>
        <time>2025-09-07T07:44:55.000Z</time>
        <extensions>
          <ns3:TrackPointExtension>
            <ns3:hr>150</ns3:hr>
            <ns3:cad>0</ns3:cad>
          </ns3:TrackPointExtension>
        </extensions>
      </trkpt>
      <trkpt lat="52.20275086350739002227783203125" lon="1.616860739886760711669921875">
        <ele>-24.799999237060546875</ele>
        <time>2025-09-07T07:44:58.000Z</time>
        <extensions>
          <ns3:TrackPointExtension>
            <ns3:hr>145</ns3:hr>
            <ns3:cad>53</ns3:cad>
          </ns3:TrackPointExtension>
        </extensions>
      </trkpt>
      <trkpt lat="52.20277232117950916290283203125" lon="1.61684875376522541046142578125">
        <ele>-25</ele>
        <time>2025-09-07T07:44:59.000Z</time>
        <extensions>
          <ns3:TrackPointExtension>
            <ns3:hr>145</ns3:hr>
            <ns3:cad>54</ns3:cad>
          </ns3:TrackPointExtension>
        </extensions>
      </trkpt>
      <trkpt lat="52.20279310829937458038330078125" lon="1.616837270557880401611328125">
        <ele>-25</ele>
        <time>2025-09-07T07:45:00.000Z</time>
        <extensions>
          <ns3:TrackPointExtension>
            <ns3:hr>142</ns3:hr>
            <ns3:cad>56</ns3:cad>
          </ns3:TrackPointExtension>
        </extensions>
      </trkpt>
      <trkpt lat="52.2028666175901889801025390625" lon="1.616786979138851165771484375">
        <ele>-25</ele>
        <time>2025-09-07T07:45:04.000Z</time>
        <extensions>
          <ns3:TrackPointExtension>
            <ns3:hr>140</ns3:hr>
            <ns3:cad>59</ns3:cad>
          </ns3:TrackPointExtension>
        </extensions>
      </trkpt>
      <trkpt lat="52.202919088304042816162109375" lon="1.61674213595688343048095703125">
        <ele>-25</ele>
        <time>2025-09-07T07:45:08.000Z</time>
        <extensions>
          <ns3:TrackPointExtension>
            <ns3:hr>137</ns3:hr>
            <ns3:cad>60</ns3:cad>
          </ns3:TrackPointExtension>
        </extensions>
      </trkpt>
      <trkpt lat="52.202980779111385345458984375" lon="1.61666971631348133087158203125">
        <ele>-25</ele>
        <time>2025-09-07T07:45:13.000Z</time>
        <extensions>
          <ns3:TrackPointExtension>
            <ns3:hr>136</ns3:hr>
            <ns3:cad>60</ns3:cad>
          </ns3:TrackPointExtension>
        </extensions>
      </trkpt>
      <trkpt lat="52.20301807858049869537353515625" lon="1.61665513180196285247802734375">
        <ele>-25</ele>
        <time>2025-09-07T07:45:15.000Z</time>
        <extensions>
          <ns3:TrackPointExtension>
            <ns3:hr>132</ns3:hr>
            <ns3:cad>60</ns3:cad>
          </ns3:TrackPointExtension>
        </extensions>
      </trkpt>
      <trkpt lat="52.20313089899718761444091796875" lon="1.6166060976684093475341796875">
        <ele>-25</ele>
        <time>2025-09-07T07:45:20.000Z</time>
        <extensions>
          <ns3:TrackPointExtension>
            <ns3:hr>129</ns3:hr>
            <ns3:cad>77</ns3:cad>
          </ns3:TrackPointExtension>
        </extensions>
      </trkpt>
      <trkpt lat="52.20315470360219478607177734375" lon="1.61659813486039638519287109375">
        <ele>-25</ele>
        <time>2025-09-07T07:45:21.000Z</time>
        <extensions>
          <ns3:TrackPointExtension>
            <ns3:hr>130</ns3:hr>
            <ns3:cad>78</ns3:cad>
          </ns3:TrackPointExtension>
        </extensions>
      </trkpt>
      <trkpt lat="52.2032961063086986541748046875" lon="1.61655236966907978057861328125">
        <ele>-25.200000762939453125</ele>
        <time>2025-09-07T07:45:27.000Z</time>
        <extensions>
          <ns3:TrackPointExtension>
            <ns3:hr>133</ns3:hr>
            <ns3:cad>79</ns3:cad>
          </ns3:TrackPointExtension>
        </extensions>
      </trkpt>
      <trkpt lat="52.2033618204295635223388671875" lon="1.61653426475822925567626953125">
        <ele>-25.200000762939453125</ele>
        <time>2025-09-07T07:45:30.000Z</time>
        <extensions>
          <ns3:TrackPointExtension>
            <ns3:hr>135</ns3:hr>
            <ns3:cad>79</ns3:cad>
          </ns3:TrackPointExtension>
        </extensions>
      </trkpt>
      <trkpt lat="52.20342527143657207489013671875" lon="1.6165138967335224151611328125">
        <ele>-25.200000762939453125</ele>
        <time>2025-09-07T07:45:33.000Z</time>
        <extensions>
          <ns3:TrackPointExtension>
            <ns3:hr>138</ns3:hr>
            <ns3:cad>78</ns3:cad>
          </ns3:TrackPointExtension>
        </extensions>
      </trkpt>
      <trkpt lat="52.20354462973773479461669921875" lon="1.61646955646574497222900390625">
        <ele>-25.200000762939453125</ele>
        <time>2025-09-07T07:45:39.000Z</time>
        <extensions>
          <ns3:TrackPointExtension>
            <ns3:hr>140</ns3:hr>
            <ns3:cad>79</ns3:cad>
          </ns3:TrackPointExtension>
        </extensions>
      </trkpt>
      <trkpt lat="52.20359860919415950775146484375" lon="1.61643921397626399993896484375">
        <ele>-25.3999996185302734375</ele>
        <time>2025-09-07T07:45:42.000Z</time>
        <extensions>
          <ns3:TrackPointExtension>
            <ns3:hr>143</ns3:hr>
            <ns3:cad>79</ns3:cad>
          </ns3:TrackPointExtension>
        </extensions>
      </trkpt>
      <trkpt lat="52.203662730753421783447265625" lon="1.6164223663508892059326171875">
        <ele>-25.6000003814697265625</ele>
        <time>2025-09-07T07:45:45.000Z</time>
        <extensions>
          <ns3:TrackPointExtension>
            <ns3:hr>146</ns3:hr>
            <ns3:cad>80</ns3:cad>
          </ns3:TrackPointExtension>
        </extensions>
      </trkpt>
      <trkpt lat="52.20372802577912807464599609375" lon="1.616399399936199188232421875">
        <ele>-25.799999237060546875</ele>
        <time>2025-09-07T07:45:48.000Z</time>
        <extensions>
          <ns3:TrackPointExtension>
            <ns3:hr>148</ns3:hr>
            <ns3:cad>79</ns3:cad>
          </ns3:TrackPointExtension>
        </extensions>
      </trkpt>
      <trkpt lat="52.2038979269564151763916015625" lon="1.6163402236998081207275390625">
        <ele>-26.200000762939453125</ele>
        <time>2025-09-07T07:45:56.000Z</time>
        <extensions>
          <ns3:TrackPointExtension>
            <ns3:hr>147</ns3:hr>
            <ns3:cad>80</ns3:cad>
          </ns3:TrackPointExtension>
        </extensions>
      </trkpt>
      <trkpt lat="52.20395676791667938232421875" lon="1.6163251362740993499755859375">
        <ele>-26.3999996185302734375</ele>
        <time>2025-09-07T07:45:59.000Z</time>
        <extensions>
          <ns3:TrackPointExtension>
            <ns3:hr>147</ns3:hr>
            <ns3:cad>80</ns3:cad>
          </ns3:TrackPointExtension>
        </extensions>
      </trkpt>
      <trkpt lat="52.20411007292568683624267578125" lon="1.61629320122301578521728515625">
        <ele>-27</ele>
        <time>2025-09-07T07:46:07.000Z</time>
        <extensions>
          <ns3:TrackPointExtension>
            <ns3:hr>148</ns3:hr>
            <ns3:cad>79</ns3:cad>
          </ns3:TrackPointExtension>
        </extensions>
      </trkpt>
      <trkpt lat="52.20421166159212589263916015625" lon="1.6162704862654209136962890625">
        <ele>-27.200000762939453125</ele>
        <time>2025-09-07T07:46:12.000Z</time>
        <extensions>
          <ns3:TrackPointExtension>
            <ns3:hr>147</ns3:hr>
            <ns3:cad>79</ns3:cad>
          </ns3:TrackPointExtension>
        </extensions>
      </trkpt>
      <trkpt lat="52.20427687279880046844482421875" lon="1.61625615321099758148193359375">
        <ele>-27.3999996185302734375</ele>
        <time>2025-09-07T07:46:15.000Z</time>
        <extensions>
          <ns3:TrackPointExtension>
            <ns3:hr>148</ns3:hr>
            <ns3:cad>80</ns3:cad>
          </ns3:TrackPointExtension>
        </extensions>
      </trkpt>
      <trkpt lat="52.2044233046472072601318359375" lon="1.6162255592644214630126953125">
        <ele>-28.200000762939453125</ele>
        <time>2025-09-07T07:46:22.000Z</time>
        <extensions>
          <ns3:TrackPointExtension>
            <ns3:hr>149</ns3:hr>
            <ns3:cad>79</ns3:cad>
          </ns3:TrackPointExtension>
        </extensions>
      </trkpt>
      <trkpt lat="52.20458440482616424560546875" lon="1.6161950491368770599365234375">
        <ele>-28.799999237060546875</ele>
        <time>2025-09-07T07:46:30.000Z</time>
        <extensions>
          <ns3:TrackPointExtension>
            <ns3:hr>151</ns3:hr>
            <ns3:cad>79</ns3:cad>
          </ns3:TrackPointExtension>
        </extensions>
      </trkpt>
      <trkpt lat="52.20465221442282199859619140625" lon="1.61618876270949840545654296875">
        <ele>-29.3999996185302734375</ele>
        <time>2025-09-07T07:46:33.000Z</time>
        <extensions>
          <ns3:TrackPointExtension>
            <ns3:hr>151</ns3:hr>
            <ns3:cad>80</ns3:cad>
          </ns3:TrackPointExtension>
        </extensions>
      </trkpt>
      <trkpt lat="52.20476117916405200958251953125" lon="1.61615959368646144866943359375">
        <ele>-29.799999237060546875</ele>
        <time>2025-09-07T07:46:38.000Z</time>
        <extensions>
          <ns3:TrackPointExtension>
            <ns3:hr>150</ns3:hr>
            <ns3:cad>80</ns3:cad>
          </ns3:TrackPointExtension>
        </extensions>
      </trkpt>
      <trkpt lat="52.2048816271126270294189453125" lon="1.61613059230148792266845703125">
        <ele>-30.3999996185302734375</ele>
        <time>2025-09-07T07:46:43.000Z</time>
        <extensions>
          <ns3:TrackPointExtension>
            <ns3:hr>148</ns3:hr>
            <ns3:cad>80</ns3:cad>
          </ns3:TrackPointExtension>
        </extensions>
      </trkpt>
      <trkpt lat="52.204995453357696533203125" lon="1.61614115349948406219482421875">
        <ele>-31.200000762939453125</ele>
        <time>2025-09-07T07:46:48.000Z</time>
        <extensions>
          <ns3:TrackPointExtension>
            <ns3:hr>147</ns3:hr>
            <ns3:cad>80</ns3:cad>
          </ns3:TrackPointExtension>
        </extensions>
      </trkpt>
      <trkpt lat="52.20504063181579113006591796875" lon="1.61614685319364070892333984375">
        <ele>-31.3999996185302734375</ele>
        <time>2025-09-07T07:46:50.000Z</time>
        <extensions>
          <ns3:TrackPointExtension>
            <ns3:hr>147</ns3:hr>
            <ns3:cad>80</ns3:cad>
          </ns3:TrackPointExtension>
        </extensions>
      </trkpt>
      <trkpt lat="52.20514926128089427947998046875" lon="1.61618641577661037445068359375">
        <ele>-31.799999237060546875</ele>
        <time>2025-09-07T07:46:56.000Z</time>
        <extensions>
          <ns3:TrackPointExtension>
            <ns3:hr>148</ns3:hr>
            <ns3:cad>80</ns3:cad>
          </ns3:TrackPointExtension>
        </extensions>
      </trkpt>
      <trkpt lat="52.2052792645990848541259765625" lon="1.6162098012864589691162109375">
        <ele>-32</ele>
        <time>2025-09-07T07:47:03.000Z</time>
        <extensions>
          <ns3:TrackPointExtension>
            <ns3:hr>147</ns3:hr>
            <ns3:cad>80</ns3:cad>
          </ns3:TrackPointExtension>
        </extensions>
      </trkpt>
      <trkpt lat="52.205421924591064453125" lon="1.61622916348278522491455078125">
        <ele>-32.40000152587890625</ele>
        <time>2025-09-07T07:47:10.000Z</time>
        <extensions>
          <ns3:TrackPointExtension>
            <ns3:hr>146</ns3:hr>
            <ns3:cad>80</ns3:cad>
          </ns3:TrackPointExtension>
        </extensions>
      </trkpt>
      <trkpt lat="52.20550633035600185394287109375" lon="1.6162597574293613433837890625">
        <ele>-32.40000152587890625</ele>
        <time>2025-09-07T07:47:14.000Z</time>
        <extensions>
          <ns3:TrackPointExtension>
            <ns3:hr>149</ns3:hr>
            <ns3:cad>80</ns3:cad>
          </ns3:TrackPointExtension>
        </extensions>
      </trkpt>
      <trkpt lat="52.20552451908588409423828125" lon="1.61626227200031280517578125">
        <ele>-32.40000152587890625</ele>
        <time>2025-09-07T07:47:15.000Z</time>
        <extensions>
          <ns3:TrackPointExtension>
            <ns3:hr>150</ns3:hr>
            <ns3:cad>80</ns3:cad>
          </ns3:TrackPointExtension>
        </extensions>
      </trkpt>
      <trkpt lat="52.20557690598070621490478515625" lon="1.6162721626460552215576171875">
        <ele>-32.59999847412109375</ele>
        <time>2025-09-07T07:47:18.000Z</time>
        <extensions>
          <ns3:TrackPointExtension>
            <ns3:hr>151</ns3:hr>
            <ns3:cad>80</ns3:cad>
          </ns3:TrackPointExtension>
        </extensions>
      </trkpt>
      <trkpt lat="52.20575259067118167877197265625" lon="1.61631834693253040313720703125">
        <ele>-32.799999237060546875</ele>
        <time>2025-09-07T07:47:28.000Z</time>
        <extensions>
          <ns3:TrackPointExtension>
            <ns3:hr>151</ns3:hr>
            <ns3:cad>80</ns3:cad>
          </ns3:TrackPointExtension>
        </extensions>
      </trkpt>
      <trkpt lat="52.20594168640673160552978515625" lon="1.6163757629692554473876953125">
        <ele>-32.59999847412109375</ele>
        <time>2025-09-07T07:47:38.000Z</time>
        <extensions>
          <ns3:TrackPointExtension>
            <ns3:hr>152</ns3:hr>
            <ns3:cad>80</ns3:cad>
          </ns3:TrackPointExtension>
        </extensions>
      </trkpt>
      <trkpt lat="52.20596373081207275390625" lon="1.61638825200498104095458984375">
        <ele>-32.59999847412109375</ele>
        <time>2025-09-07T07:47:39.000Z</time>
        <extensions>
          <ns3:TrackPointExtension>
            <ns3:hr>152</ns3:hr>
            <ns3:cad>80</ns3:cad>
          </ns3:TrackPointExtension>
        </extensions>
      </trkpt>
      <trkpt lat="52.20604419708251953125" lon="1.6165122203528881072998046875">
        <ele>-32.59999847412109375</ele>
        <time>2025-09-07T07:47:44.000Z</time>
        <extensions>
          <ns3:TrackPointExtension>
            <ns3:hr>153</ns3:hr>
            <ns3:cad>81</ns3:cad>
          </ns3:TrackPointExtension>
        </extensions>
      </trkpt>
      <trkpt lat="52.20609256066381931304931640625" lon="1.6167871467769145965576171875">
        <ele>-32.40000152587890625</ele>
        <time>2025-09-07T07:47:52.000Z</time>
        <extensions>
          <ns3:TrackPointExtension>
            <ns3:hr>152</ns3:hr>
            <ns3:cad>80</ns3:cad>
          </ns3:TrackPointExtension>
        </extensions>
      </trkpt>
      <trkpt lat="52.20615358091890811920166015625" lon="1.6170600615441799163818359375">
        <ele>-32.200000762939453125</ele>
        <time>2025-09-07T07:48:00.000Z</time>
        <extensions>
          <ns3:TrackPointExtension>
            <ns3:hr>152</ns3:hr>
            <ns3:cad>80</ns3:cad>
          </ns3:TrackPointExtension>
        </extensions>
      </trkpt>
      <trkpt lat="52.20623052679002285003662109375" lon="1.61730355583131313323974609375">
        <ele>-32.200000762939453125</ele>
        <time>2025-09-07T07:48:08.000Z</time>
        <extensions>
          <ns3:TrackPointExtension>
            <ns3:hr>152</ns3:hr>
            <ns3:cad>79</ns3:cad>
          </ns3:TrackPointExtension>
        </extensions>
      </trkpt>
      <trkpt lat="52.2063306905329227447509765625" lon="1.617580242455005645751953125">
        <ele>-32.200000762939453125</ele>
        <time>2025-09-07T07:48:17.000Z</time>
        <extensions>
          <ns3:TrackPointExtension>
            <ns3:hr>153</ns3:hr>
            <ns3:cad>80</ns3:cad>
          </ns3:TrackPointExtension>
        </extensions>
      </trkpt>
      <trkpt lat="52.206425406038761138916015625" lon="1.61780454218387603759765625">
        <ele>-32</ele>
        <time>2025-09-07T07:48:25.000Z</time>
        <extensions>
          <ns3:TrackPointExtension>
            <ns3:hr>152</ns3:hr>
            <ns3:cad>79</ns3:cad>
          </ns3:TrackPointExtension>
        </extensions>
      </trkpt>
      <trkpt lat="52.206507883965969085693359375" lon="1.61802389658987522125244140625">
        <ele>-32</ele>
        <time>2025-09-07T07:48:33.000Z</time>
        <extensions>
          <ns3:TrackPointExtension>
            <ns3:hr>153</ns3:hr>
            <ns3:cad>79</ns3:cad>
          </ns3:TrackPointExtension>
        </extensions>
      </trkpt>
      <trkpt lat="52.2065764479339122772216796875" lon="1.61818734370172023773193359375">
        <ele>-32</ele>
        <time>2025-09-07T07:48:39.000Z</time>
        <extensions>
          <ns3:TrackPointExtension>
            <ns3:hr>150</ns3:hr>
            <ns3:cad>80</ns3:cad>
          </ns3:TrackPointExtension>
        </extensions>
      </trkpt>
      <trkpt lat="52.206619195640087127685546875" lon="1.61826764233410358428955078125">
        <ele>-32</ele>
        <time>2025-09-07T07:48:42.000Z</time>
        <extensions>
          <ns3:TrackPointExtension>
            <ns3:hr>153</ns3:hr>
            <ns3:cad>79</ns3:cad>
          </ns3:TrackPointExtension>
        </extensions>
      </trkpt>
      <trkpt lat="52.2067343629896640777587890625" lon="1.6185077838599681854248046875">
        <ele>-32</ele>
        <time>2025-09-07T07:48:51.000Z</time>
        <extensions>
          <ns3:TrackPointExtension>
            <ns3:hr>154</ns3:hr>
            <ns3:cad>80</ns3:cad>
          </ns3:TrackPointExtension>
        </extensions>
      </trkpt>
      <trkpt lat="52.206766717135906219482421875" lon="1.61858565174043178558349609375">
        <ele>-32</ele>
        <time>2025-09-07T07:48:54.000Z</time>
        <extensions>
          <ns3:TrackPointExtension>
            <ns3:hr>159</ns3:hr>
            <ns3:cad>79</ns3:cad>
          </ns3:TrackPointExtension>
        </extensions>
      </trkpt>
      <trkpt lat="52.2068077884614467620849609375" lon="1.61866427399218082427978515625">
        <ele>-32</ele>
        <time>2025-09-07T07:48:57.000Z</time>
        <extensions>
          <ns3:TrackPointExtension>
            <ns3:hr>162</ns3:hr>
            <ns3:cad>79</ns3:cad>
          </ns3:TrackPointExtension>
        </extensions>
      </trkpt>
      <trkpt lat="52.20684525556862354278564453125" lon="1.6187495179474353790283203125">
        <ele>-32.200000762939453125</ele>
        <time>2025-09-07T07:49:00.000Z</time>
        <extensions>
          <ns3:TrackPointExtension>
            <ns3:hr>163</ns3:hr>
            <ns3:cad>79</ns3:cad>
          </ns3:TrackPointExtension>
        </extensions>
      </trkpt>
      <trkpt lat="52.20694030635058879852294921875" lon="1.61893509328365325927734375">
        <ele>-32.59999847412109375</ele>
        <time>2025-09-07T07:49:07.000Z</time>
        <extensions>
          <ns3:TrackPointExtension>
            <ns3:hr>162</ns3:hr>
            <ns3:cad>80</ns3:cad>
          </ns3:TrackPointExtension>
        </extensions>
      </trkpt>
      <trkpt lat="52.20702932216227054595947265625" lon="1.619107089936733245849609375">
        <ele>-32.59999847412109375</ele>
        <time>2025-09-07T07:49:13.000Z</time>
        <extensions>
          <ns3:TrackPointExtension>
            <ns3:hr>167</ns3:hr>
            <ns3:cad>80</ns3:cad>
          </ns3:TrackPointExtension>
        </extensions>
      </trkpt>
      <trkpt lat="52.2070418111979961395263671875" lon="1.619135253131389617919921875">
        <ele>-32.59999847412109375</ele>
        <time>2025-09-07T07:49:14.000Z</time>
        <extensions>
          <ns3:TrackPointExtension>
            <ns3:hr>164</ns3:hr>
            <ns3:cad>80</ns3:cad>
          </ns3:TrackPointExtension>
        </extensions>
      </trkpt>
      <trkpt lat="52.2070538811385631561279296875" lon="1.61916366778314113616943359375">
        <ele>-32.59999847412109375</ele>
        <time>2025-09-07T07:49:15.000Z</time>
        <extensions>
          <ns3:TrackPointExtension>
            <ns3:hr>163</ns3:hr>
            <ns3:cad>80</ns3:cad>
          </ns3:TrackPointExtension>
        </extensions>
      </trkpt>
      <trkpt lat="52.20712713897228240966796875" lon="1.6193716228008270263671875">
        <ele>-33</ele>
        <time>2025-09-07T07:49:22.000Z</time>
        <extensions>
          <ns3:TrackPointExtension>
            <ns3:hr>162</ns3:hr>
            <ns3:cad>80</ns3:cad>
          </ns3:TrackPointExtension>
        </extensions>
      </trkpt>
      <trkpt lat="52.20715488307178020477294921875" lon="1.6195783205330371856689453125">
        <ele>-33</ele>
        <time>2025-09-07T07:49:29.000Z</time>
        <extensions>
          <ns3:TrackPointExtension>
            <ns3:hr>162</ns3:hr>
            <ns3:cad>80</ns3:cad>
          </ns3:TrackPointExtension>
        </extensions>
      </trkpt>
      <trkpt lat="52.20721808262169361114501953125" lon="1.61980773322284221649169921875">
        <ele>-33</ele>
        <time>2025-09-07T07:49:36.000Z</time>
        <extensions>
          <ns3:TrackPointExtension>
            <ns3:hr>162</ns3:hr>
            <ns3:cad>81</ns3:cad>
          </ns3:TrackPointExtension>
        </extensions>
      </trkpt>
      <trkpt lat="52.20727424137294292449951171875" lon="1.62001510150730609893798828125">
        <ele>-33</ele>
        <time>2025-09-07T07:49:43.000Z</time>
        <extensions>
          <ns3:TrackPointExtension>
            <ns3:hr>162</ns3:hr>
            <ns3:cad>79</ns3:cad>
          </ns3:TrackPointExtension>
        </extensions>
      </trkpt>
      <trkpt lat="52.2073646821081638336181640625" lon="1.620187349617481231689453125">
        <ele>-33.200000762939453125</ele>
        <time>2025-09-07T07:49:51.000Z</time>
        <extensions>
          <ns3:TrackPointExtension>
            <ns3:hr>162</ns3:hr>
            <ns3:cad>80</ns3:cad>
          </ns3:TrackPointExtension>
        </extensions>
      </trkpt>
      <trkpt lat="52.207372225821018218994140625" lon="1.6203088872134685516357421875">
        <ele>-33</ele>
        <time>2025-09-07T07:49:59.000Z</time>
        <extensions>
          <ns3:TrackPointExtension>
            <ns3:hr>161</ns3:hr>
            <ns3:cad>61</ns3:cad>
          </ns3:TrackPointExtension>
        </extensions>
      </trkpt>
      <trkpt lat="52.2073854692280292510986328125" lon="1.62049018777906894683837890625">
        <ele>-32.200000762939453125</ele>
        <time>2025-09-07T07:50:06.000Z</time>
        <extensions>
          <ns3:TrackPointExtension>
            <ns3:hr>157</ns3:hr>
            <ns3:cad>61</ns3:cad>
          </ns3:TrackPointExtension>
        </extensions>
      </trkpt>
      <trkpt lat="52.2073901630938053131103515625" lon="1.62057149223983287811279296875">
        <ele>-32</ele>
        <time>2025-09-07T07:50:09.000Z</time>
        <extensions>
          <ns3:TrackPointExtension>
            <ns3:hr>154</ns3:hr>
            <ns3:cad>61</ns3:cad>
          </ns3:TrackPointExtension>
        </extensions>
      </trkpt>
      <trkpt lat="52.2074054181575775146484375" lon="1.620672158896923065185546875">
        <ele>-31.799999237060546875</ele>
        <time>2025-09-07T07:50:13.000Z</time>
        <extensions>
          <ns3:TrackPointExtension>
            <ns3:hr>151</ns3:hr>
            <ns3:cad>61</ns3:cad>
          </ns3:TrackPointExtension>
        </extensions>
      </trkpt>
      <trkpt lat="52.2074052505195140838623046875" lon="1.620750613510608673095703125">
        <ele>-31.799999237060546875</ele>
        <time>2025-09-07T07:50:16.000Z</time>
        <extensions>
          <ns3:TrackPointExtension>
            <ns3:hr>150</ns3:hr>
            <ns3:cad>62</ns3:cad>
          </ns3:TrackPointExtension>
        </extensions>
      </trkpt>
      <trkpt lat="52.20747658051550388336181640625" lon="1.62090928293764591217041015625">
        <ele>-31.799999237060546875</ele>
        <time>2025-09-07T07:50:23.000Z</time>
        <extensions>
          <ns3:TrackPointExtension>
            <ns3:hr>147</ns3:hr>
            <ns3:cad>0</ns3:cad>
          </ns3:TrackPointExtension>
        </extensions>
      </trkpt>
      <trkpt lat="52.20752133987843990325927734375" lon="1.62096041254699230194091796875">
        <ele>-32.200000762939453125</ele>
        <time>2025-09-07T07:50:27.000Z</time>
        <extensions>
          <ns3:TrackPointExtension>
            <ns3:hr>144</ns3:hr>
            <ns3:cad>63</ns3:cad>
          </ns3:TrackPointExtension>
        </extensions>
      </trkpt>
      <trkpt lat="52.20754346810281276702880859375" lon="1.620966531336307525634765625">
        <ele>-32.200000762939453125</ele>
        <time>2025-09-07T07:50:29.000Z</time>
        <extensions>
          <ns3:TrackPointExtension>
            <ns3:hr>143</ns3:hr>
            <ns3:cad>63</ns3:cad>
          </ns3:TrackPointExtension>
        </extensions>
      </trkpt>
      <trkpt lat="52.20766165293753147125244140625" lon="1.62101724185049533843994140625">
        <ele>-32.59999847412109375</ele>
        <time>2025-09-07T07:50:35.000Z</time>
        <extensions>
          <ns3:TrackPointExtension>
            <ns3:hr>141</ns3:hr>
            <ns3:cad>75</ns3:cad>
          </ns3:TrackPointExtension>
        </extensions>
      </trkpt>
      <trkpt lat="52.2077770717442035675048828125" lon="1.6210528649389743804931640625">
        <ele>-33</ele>
        <time>2025-09-07T07:50:42.000Z</time>
        <extensions>
          <ns3:TrackPointExtension>
            <ns3:hr>139</ns3:hr>
            <ns3:cad>78</ns3:cad>
          </ns3:TrackPointExtension>
        </extensions>
      </trkpt>
      <trkpt lat="52.20781252719461917877197265625" lon="1.62105739116668701171875">
        <ele>-33</ele>
        <time>2025-09-07T07:50:44.000Z</time>
        <extensions>
          <ns3:TrackPointExtension>
            <ns3:hr>143</ns3:hr>
            <ns3:cad>79</ns3:cad>
          </ns3:TrackPointExtension>
        </extensions>
      </trkpt>
      <trkpt lat="52.207852341234683990478515625" lon="1.62105076946318149566650390625">
        <ele>-33</ele>
        <time>2025-09-07T07:50:46.000Z</time>
        <extensions>
          <ns3:TrackPointExtension>
            <ns3:hr>146</ns3:hr>
            <ns3:cad>79</ns3:cad>
          </ns3:TrackPointExtension>
        </extensions>
      </trkpt>
      <trkpt lat="52.20787547528743743896484375" lon="1.6210560500621795654296875">
        <ele>-33</ele>
        <time>2025-09-07T07:50:47.000Z</time>
        <extensions>
          <ns3:TrackPointExtension>
            <ns3:hr>143</ns3:hr>
            <ns3:cad>79</ns3:cad>
          </ns3:TrackPointExtension>
        </extensions>
      </trkpt>
      <trkpt lat="52.20791294239461421966552734375" lon="1.62106367759406566619873046875">
        <ele>-33</ele>
        <time>2025-09-07T07:50:49.000Z</time>
        <extensions>
          <ns3:TrackPointExtension>
            <ns3:hr>143</ns3:hr>
            <ns3:cad>79</ns3:cad>
          </ns3:TrackPointExtension>
        </extensions>
      </trkpt>
      <trkpt lat="52.208056859672069549560546875" lon="1.621060073375701904296875">
        <ele>-33.40000152587890625</ele>
        <time>2025-09-07T07:50:56.000Z</time>
        <extensions>
          <ns3:TrackPointExtension>
            <ns3:hr>143</ns3:hr>
            <ns3:cad>79</ns3:cad>
          </ns3:TrackPointExtension>
        </extensions>
      </trkpt>
      <trkpt lat="52.20813757739961147308349609375" lon="1.62105144001543521881103515625">
        <ele>-33.40000152587890625</ele>
        <time>2025-09-07T07:51:00.000Z</time>
        <extensions>
          <ns3:TrackPointExtension>
            <ns3:hr>146</ns3:hr>
            <ns3:cad>79</ns3:cad>
          </ns3:TrackPointExtension>
        </extensions>
      </trkpt>
      <trkpt lat="52.2082534991204738616943359375" lon="1.6210820339620113372802734375">
        <ele>-33.40000152587890625</ele>
        <time>2025-09-07T07:51:05.000Z</time>
        <extensions>
          <ns3:TrackPointExtension>
            <ns3:hr>147</ns3:hr>
            <ns3:cad>80</ns3:cad>
          </ns3:TrackPointExtension>
        </extensions>
      </trkpt>
      <trkpt lat="52.20827110111713409423828125" lon="1.62109686993062496185302734375">
        <ele>-33.40000152587890625</ele>
        <time>2025-09-07T07:51:06.000Z</time>
        <extensions>
          <ns3:TrackPointExtension>
            <ns3:hr>147</ns3:hr>
            <ns3:cad>80</ns3:cad>
          </ns3:TrackPointExtension>
        </extensions>
      </trkpt>
      <trkpt lat="52.20829918049275875091552734375" lon="1.62112838588654994964599609375">
        <ele>-33.40000152587890625</ele>
        <time>2025-09-07T07:51:08.000Z</time>
        <extensions>
          <ns3:TrackPointExtension>
            <ns3:hr>147</ns3:hr>
            <ns3:cad>80</ns3:cad>
          </ns3:TrackPointExtension>
        </extensions>
      </trkpt>
      <trkpt lat="52.20833203755319118499755859375" lon="1.6211420483887195587158203125">
        <ele>-33.200000762939453125</ele>
        <time>2025-09-07T07:51:10.000Z</time>
        <extensions>
          <ns3:TrackPointExtension>
            <ns3:hr>148</ns3:hr>
            <ns3:cad>0</ns3:cad>
          </ns3:TrackPointExtension>
        </extensions>
      </trkpt>
      <trkpt lat="52.2083446942269802093505859375" lon="1.6211360134184360504150390625">
        <ele>-33.200000762939453125</ele>
        <time>2025-09-07T07:51:11.000Z</time>
        <extensions>
          <ns3:TrackPointExtension>
            <ns3:hr>147</ns3:hr>
            <ns3:cad>0</ns3:cad>
          </ns3:TrackPointExtension>
        </extensions>
      </trkpt>
      <trkpt lat="52.20838584937155246734619140625" lon="1.62114447914063930511474609375">
        <ele>-33</ele>
        <time>2025-09-07T07:51:13.000Z</time>
        <extensions>
          <ns3:TrackPointExtension>
            <ns3:hr>146</ns3:hr>
            <ns3:cad>0</ns3:cad>
          </ns3:TrackPointExtension>
        </extensions>
      </trkpt>
      <trkpt lat="52.20840194262564182281494140625" lon="1.62117197178304195404052734375">
        <ele>-32.799999237060546875</ele>
        <time>2025-09-07T07:51:14.000Z</time>
        <extensions>
          <ns3:TrackPointExtension>
            <ns3:hr>146</ns3:hr>
            <ns3:cad>0</ns3:cad>
          </ns3:TrackPointExtension>
        </extensions>
      </trkpt>
      <trkpt lat="52.20844452269375324249267578125" lon="1.62126995623111724853515625">
        <ele>-32.59999847412109375</ele>
        <time>2025-09-07T07:51:18.000Z</time>
        <extensions>
          <ns3:TrackPointExtension>
            <ns3:hr>143</ns3:hr>
            <ns3:cad>0</ns3:cad>
          </ns3:TrackPointExtension>
        </extensions>
      </trkpt>
      <trkpt lat="52.20846690237522125244140625" lon="1.62131027318537235260009765625">
        <ele>-32.40000152587890625</ele>
        <time>2025-09-07T07:51:20.000Z</time>
        <extensions>
          <ns3:TrackPointExtension>
            <ns3:hr>143</ns3:hr>
            <ns3:cad>0</ns3:cad>
          </ns3:TrackPointExtension>
        </extensions>
      </trkpt>
      <trkpt lat="52.2085160203278064727783203125" lon="1.62150003947317600250244140625">
        <ele>-32.40000152587890625</ele>
        <time>2025-09-07T07:51:28.000Z</time>
        <extensions>
          <ns3:TrackPointExtension>
            <ns3:hr>140</ns3:hr>
            <ns3:cad>0</ns3:cad>
          </ns3:TrackPointExtension>
        </extensions>
      </trkpt>
      <trkpt lat="52.208530269563198089599609375" lon="1.62166717462241649627685546875">
        <ele>-32.200000762939453125</ele>
        <time>2025-09-07T07:51:35.000Z</time>
        <extensions>
          <ns3:TrackPointExtension>
            <ns3:hr>137</ns3:hr>
            <ns3:cad>61</ns3:cad>
          </ns3:TrackPointExtension>
        </extensions>
      </trkpt>
      <trkpt lat="52.20853404141962528228759765625" lon="1.6218330524861812591552734375">
        <ele>-31.3999996185302734375</ele>
        <time>2025-09-07T07:51:42.000Z</time>
        <extensions>
          <ns3:TrackPointExtension>
            <ns3:hr>138</ns3:hr>
            <ns3:cad>58</ns3:cad>
          </ns3:TrackPointExtension>
        </extensions>
      </trkpt>
      <trkpt lat="52.20853555016219615936279296875" lon="1.62185694091022014617919921875">
        <ele>-31.200000762939453125</ele>
        <time>2025-09-07T07:51:43.000Z</time>
        <extensions>
          <ns3:TrackPointExtension>
            <ns3:hr>139</ns3:hr>
            <ns3:cad>57</ns3:cad>
          </ns3:TrackPointExtension>
        </extensions>
      </trkpt>
      <trkpt lat="52.20856103114783763885498046875" lon="1.62197261117398738861083984375">
        <ele>-30.799999237060546875</ele>
        <time>2025-09-07T07:51:48.000Z</time>
        <extensions>
          <ns3:TrackPointExtension>
            <ns3:hr>142</ns3:hr>
            <ns3:cad>0</ns3:cad>
          </ns3:TrackPointExtension>
        </extensions>
      </trkpt>
      <trkpt lat="52.20858232118189334869384765625" lon="1.62200479768216609954833984375">
        <ele>-30.799999237060546875</ele>
        <time>2025-09-07T07:51:50.000Z</time>
        <extensions>
          <ns3:TrackPointExtension>
            <ns3:hr>142</ns3:hr>
            <ns3:cad>61</ns3:cad>
          </ns3:TrackPointExtension>
        </extensions>
      </trkpt>
      <trkpt lat="52.20867603085935115814208984375" lon="1.62215215153992176055908203125">
        <ele>-31.200000762939453125</ele>
        <time>2025-09-07T07:51:59.000Z</time>
        <extensions>
          <ns3:TrackPointExtension>
            <ns3:hr>142</ns3:hr>
            <ns3:cad>61</ns3:cad>
          </ns3:TrackPointExtension>
        </extensions>
      </trkpt>
      <trkpt lat="52.2087544016540050506591796875" lon="1.6222353838384151458740234375">
        <ele>-32</ele>
        <time>2025-09-07T07:52:05.000Z</time>
        <extensions>
          <ns3:TrackPointExtension>
            <ns3:hr>139</ns3:hr>
            <ns3:cad>60</ns3:cad>
          </ns3:TrackPointExtension>
        </extensions>
      </trkpt>
      <trkpt lat="52.20876554958522319793701171875" lon="1.62224317900836467742919921875">
        <ele>-32</ele>
        <time>2025-09-07T07:52:06.000Z</time>
        <extensions>
          <ns3:TrackPointExtension>
            <ns3:hr>138</ns3:hr>
            <ns3:cad>60</ns3:cad>
          </ns3:TrackPointExtension>
        </extensions>
      </trkpt>
      <trkpt lat="52.208798490464687347412109375" lon="1.62225474603474140167236328125">
        <ele>-32</ele>
        <time>2025-09-07T07:52:08.000Z</time>
        <extensions>
          <ns3:TrackPointExtension>
            <ns3:hr>135</ns3:hr>
            <ns3:cad>64</ns3:cad>
          </ns3:TrackPointExtension>
        </extensions>
      </trkpt>
      <trkpt lat="52.20883796922862529754638671875" lon="1.6223031096160411834716796875">
        <ele>-32.200000762939453125</ele>
        <time>2025-09-07T07:52:11.000Z</time>
        <extensions>
          <ns3:TrackPointExtension>
            <ns3:hr>135</ns3:hr>
            <ns3:cad>59</ns3:cad>
          </ns3:TrackPointExtension>
        </extensions>
      </trkpt>
      <trkpt lat="52.2088556550443172454833984375" lon="1.62245213985443115234375">
        <ele>-32.200000762939453125</ele>
        <time>2025-09-07T07:52:18.000Z</time>
        <extensions>
          <ns3:TrackPointExtension>
            <ns3:hr>130</ns3:hr>
            <ns3:cad>58</ns3:cad>
          </ns3:TrackPointExtension>
        </extensions>
      </trkpt>
      <trkpt lat="52.208842746913433074951171875" lon="1.622474603354930877685546875">
        <ele>-31.6000003814697265625</ele>
        <time>2025-09-07T07:52:29.000Z</time>
        <extensions>
          <ns3:TrackPointExtension>
            <ns3:hr>129</ns3:hr>
            <ns3:cad>0</ns3:cad>
          </ns3:TrackPointExtension>
        </extensions>
      </trkpt>
      <trkpt lat="52.20884065143764019012451171875" lon="1.62246747873723506927490234375">
        <ele>-30.3999996185302734375</ele>
        <time>2025-09-07T07:52:41.000Z</time>
        <extensions>
          <ns3:TrackPointExtension>
            <ns3:hr>129</ns3:hr>
            <ns3:cad>0</ns3:cad>
          </ns3:TrackPointExtension>
        </extensions>
      </trkpt>
      <trkpt lat="52.2088405676186084747314453125" lon="1.62246680818498134613037109375">
        <ele>-30.3999996185302734375</ele>
        <time>2025-09-07T07:52:43.000Z</time>
        <extensions>
          <ns3:TrackPointExtension>
            <ns3:hr>128</ns3:hr>
            <ns3:cad>0</ns3:cad>
          </ns3:TrackPointExtension>
        </extensions>
      </trkpt>
      <trkpt lat="52.2088368795812129974365234375" lon="1.62246747873723506927490234375">
        <ele>-30.200000762939453125</ele>
        <time>2025-09-07T07:52:52.000Z</time>
        <extensions>
          <ns3:TrackPointExtension>
            <ns3:hr>125</ns3:hr>
            <ns3:cad>0</ns3:cad>
          </ns3:TrackPointExtension>
        </extensions>
      </trkpt>
      <trkpt lat="52.20883646048605442047119140625" lon="1.62246848456561565399169921875">
        <ele>-30.200000762939453125</ele>
        <time>2025-09-07T07:52:55.000Z</time>
        <extensions>
          <ns3:TrackPointExtension>
            <ns3:hr>123</ns3:hr>
            <ns3:cad>0</ns3:cad>
          </ns3:TrackPointExtension>
        </extensions>
      </trkpt>
      <trkpt lat="52.20883411355316638946533203125" lon="1.62246747873723506927490234375">
        <ele>-30.3999996185302734375</ele>
        <time>2025-09-07T07:52:59.000Z</time>
        <extensions>
          <ns3:TrackPointExtension>
            <ns3:hr>120</ns3:hr>
            <ns3:cad>0</ns3:cad>
          </ns3:TrackPointExtension>
        </extensions>
      </trkpt>
      <trkpt lat="52.20882606692612171173095703125" lon="1.62246848456561565399169921875">
        <ele>-31</ele>
        <time>2025-09-07T07:53:07.000Z</time>
        <extensions>
          <ns3:TrackPointExtension>
            <ns3:hr>117</ns3:hr>
            <ns3:cad>0</ns3:cad>
          </ns3:TrackPointExtension>
        </extensions>
      </trkpt>
      <trkpt lat="52.20882589928805828094482421875" lon="1.62246890366077423095703125">
        <ele>-31</ele>
        <time>2025-09-07T07:53:09.000Z</time>
        <extensions>
          <ns3:TrackPointExtension>
            <ns3:hr>114</ns3:hr>
            <ns3:cad>0</ns3:cad>
          </ns3:TrackPointExtension>
        </extensions>
      </trkpt>
      <trkpt lat="52.20882489345967769622802734375" lon="1.62246999330818653106689453125">
        <ele>-30.799999237060546875</ele>
        <time>2025-09-07T07:53:12.000Z</time>
        <extensions>
          <ns3:TrackPointExtension>
            <ns3:hr>113</ns3:hr>
            <ns3:cad>0</ns3:cad>
          </ns3:TrackPointExtension>
        </extensions>
      </trkpt>
      <trkpt lat="52.2088231332600116729736328125" lon="1.62246865220367908477783203125">
        <ele>-30.6000003814697265625</ele>
        <time>2025-09-07T07:53:16.000Z</time>
        <extensions>
          <ns3:TrackPointExtension>
            <ns3:hr>110</ns3:hr>
            <ns3:cad>0</ns3:cad>
          </ns3:TrackPointExtension>
        </extensions>
      </trkpt>
      <trkpt lat="52.20882288180291652679443359375" lon="1.62246697582304477691650390625">
        <ele>-30.6000003814697265625</ele>
        <time>2025-09-07T07:53:18.000Z</time>
        <extensions>
          <ns3:TrackPointExtension>
            <ns3:hr>107</ns3:hr>
            <ns3:cad>0</ns3:cad>
          </ns3:TrackPointExtension>
        </extensions>
      </trkpt>
      <trkpt lat="52.20882229506969451904296875" lon="1.62246647290885448455810546875">
        <ele>-30.6000003814697265625</ele>
        <time>2025-09-07T07:53:21.000Z</time>
        <extensions>
          <ns3:TrackPointExtension>
            <ns3:hr>104</ns3:hr>
            <ns3:cad>0</ns3:cad>
          </ns3:TrackPointExtension>
        </extensions>
      </trkpt>
      <trkpt lat="52.2088229656219482421875" lon="1.62246043793857097625732421875">
        <ele>-30.6000003814697265625</ele>
        <time>2025-09-07T07:53:28.000Z</time>
        <extensions>
          <ns3:TrackPointExtension>
            <ns3:hr>107</ns3:hr>
            <ns3:cad>0</ns3:cad>
          </ns3:TrackPointExtension>
        </extensions>
      </trkpt>
      <trkpt lat="52.208823300898075103759765625" lon="1.62245959974825382232666015625">
        <ele>-30.6000003814697265625</ele>
        <time>2025-09-07T07:53:30.000Z</time>
        <extensions>
          <ns3:TrackPointExtension>
            <ns3:hr>110</ns3:hr>
            <ns3:cad>0</ns3:cad>
          </ns3:TrackPointExtension>
        </extensions>
      </trkpt>
      <trkpt lat="52.20882673747837543487548828125" lon="1.6224481165409088134765625">
        <ele>-30.6000003814697265625</ele>
        <time>2025-09-07T07:53:32.000Z</time>
        <extensions>
          <ns3:TrackPointExtension>
            <ns3:hr>111</ns3:hr>
            <ns3:cad>0</ns3:cad>
          </ns3:TrackPointExtension>
        </extensions>
      </trkpt>
      <trkpt lat="52.20887149684131145477294921875" lon="1.62236203439533710479736328125">
        <ele>-30.6000003814697265625</ele>
        <time>2025-09-07T07:53:37.000Z</time>
        <extensions>
          <ns3:TrackPointExtension>
            <ns3:hr>114</ns3:hr>
            <ns3:cad>0</ns3:cad>
          </ns3:TrackPointExtension>
        </extensions>
      </trkpt>
      <trkpt lat="52.20888524316251277923583984375" lon="1.62230889312922954559326171875">
        <ele>-30.6000003814697265625</ele>
        <time>2025-09-07T07:53:39.000Z</time>
        <extensions>
          <ns3:TrackPointExtension>
            <ns3:hr>117</ns3:hr>
            <ns3:cad>80</ns3:cad>
          </ns3:TrackPointExtension>
        </extensions>
      </trkpt>
      <trkpt lat="52.2088989056646823883056640625" lon="1.6222883574664592742919921875">
        <ele>-30.799999237060546875</ele>
        <time>2025-09-07T07:53:40.000Z</time>
        <extensions>
          <ns3:TrackPointExtension>
            <ns3:hr>119</ns3:hr>
            <ns3:cad>78</ns3:cad>
          </ns3:TrackPointExtension>
        </extensions>
      </trkpt>
      <trkpt lat="52.2089186869561672210693359375" lon="1.6222759522497653961181640625">
        <ele>-30.799999237060546875</ele>
        <time>2025-09-07T07:53:41.000Z</time>
        <extensions>
          <ns3:TrackPointExtension>
            <ns3:hr>123</ns3:hr>
            <ns3:cad>78</ns3:cad>
          </ns3:TrackPointExtension>
        </extensions>
      </trkpt>
      <trkpt lat="52.2089602611958980560302734375" lon="1.6222652234137058258056640625">
        <ele>-31</ele>
        <time>2025-09-07T07:53:43.000Z</time>
        <extensions>
          <ns3:TrackPointExtension>
            <ns3:hr>125</ns3:hr>
            <ns3:cad>81</ns3:cad>
          </ns3:TrackPointExtension>
        </extensions>
      </trkpt>
      <trkpt lat="52.20905338414013385772705078125" lon="1.62225943990051746368408203125">
        <ele>-31.3999996185302734375</ele>
        <time>2025-09-07T07:53:47.000Z</time>
        <extensions>
          <ns3:TrackPointExtension>
            <ns3:hr>128</ns3:hr>
            <ns3:cad>80</ns3:cad>
          </ns3:TrackPointExtension>
        </extensions>
      </trkpt>
      <trkpt lat="52.20911893062293529510498046875" lon="1.62226505577564239501953125">
        <ele>-31.6000003814697265625</ele>
        <time>2025-09-07T07:53:50.000Z</time>
        <extensions>
          <ns3:TrackPointExtension>
            <ns3:hr>130</ns3:hr>
            <ns3:cad>81</ns3:cad>
          </ns3:TrackPointExtension>
        </extensions>
      </trkpt>
      <trkpt lat="52.20918967388570308685302734375" lon="1.6222725994884967803955078125">
        <ele>-32</ele>
        <time>2025-09-07T07:53:53.000Z</time>
        <extensions>
          <ns3:TrackPointExtension>
            <ns3:hr>134</ns3:hr>
            <ns3:cad>80</ns3:cad>
          </ns3:TrackPointExtension>
        </extensions>
      </trkpt>
      <trkpt lat="52.20925840549170970916748046875" lon="1.6222789697349071502685546875">
        <ele>-32.200000762939453125</ele>
        <time>2025-09-07T07:53:56.000Z</time>
        <extensions>
          <ns3:TrackPointExtension>
            <ns3:hr>138</ns3:hr>
            <ns3:cad>80</ns3:cad>
          </ns3:TrackPointExtension>
        </extensions>
      </trkpt>
      <trkpt lat="52.20929981209337711334228515625" lon="1.622281484305858612060546875">
        <ele>-32.200000762939453125</ele>
        <time>2025-09-07T07:53:58.000Z</time>
        <extensions>
          <ns3:TrackPointExtension>
            <ns3:hr>139</ns3:hr>
            <ns3:cad>81</ns3:cad>
          </ns3:TrackPointExtension>
        </extensions>
      </trkpt>
      <trkpt lat="52.209389247000217437744140625" lon="1.62229246459901332855224609375">
        <ele>-32.200000762939453125</ele>
        <time>2025-09-07T07:54:02.000Z</time>
        <extensions>
          <ns3:TrackPointExtension>
            <ns3:hr>142</ns3:hr>
            <ns3:cad>80</ns3:cad>
          </ns3:TrackPointExtension>
        </extensions>
      </trkpt>
      <trkpt lat="52.20950382761657238006591796875" lon="1.62230621092021465301513671875">
        <ele>-32.200000762939453125</ele>
        <time>2025-09-07T07:54:07.000Z</time>
        <extensions>
          <ns3:TrackPointExtension>
            <ns3:hr>144</ns3:hr>
            <ns3:cad>81</ns3:cad>
          </ns3:TrackPointExtension>
        </extensions>
      </trkpt>
      <trkpt lat="52.2096552886068820953369140625" lon="1.62230587564408779144287109375">
        <ele>-32</ele>
        <time>2025-09-07T07:54:14.000Z</time>
        <extensions>
          <ns3:TrackPointExtension>
            <ns3:hr>147</ns3:hr>
            <ns3:cad>81</ns3:cad>
          </ns3:TrackPointExtension>
        </extensions>
      </trkpt>
      <trkpt lat="52.2096770815551280975341796875" lon="1.62230554036796092987060546875">
        <ele>-32</ele>
        <time>2025-09-07T07:54:15.000Z</time>
        <extensions>
          <ns3:TrackPointExtension>
            <ns3:hr>148</ns3:hr>
            <ns3:cad>81</ns3:cad>
          </ns3:TrackPointExtension>
        </extensions>
      </trkpt>
      <trkpt lat="52.209818065166473388671875" lon="1.62231576628983020782470703125">
        <ele>-32</ele>
        <time>2025-09-07T07:54:22.000Z</time>
        <extensions>
          <ns3:TrackPointExtension>
            <ns3:hr>151</ns3:hr>
            <ns3:cad>80</ns3:cad>
          </ns3:TrackPointExtension>
        </extensions>
      </trkpt>
      <trkpt lat="52.209836505353450775146484375" lon="1.62231677211821079254150390625">
        <ele>-32</ele>
        <time>2025-09-07T07:54:23.000Z</time>
        <extensions>
          <ns3:TrackPointExtension>
            <ns3:hr>151</ns3:hr>
            <ns3:cad>80</ns3:cad>
          </ns3:TrackPointExtension>
        </extensions>
      </trkpt>
      <trkpt lat="52.2099567018449306488037109375" lon="1.622319035232067108154296875">
        <ele>-32.40000152587890625</ele>
        <time>2025-09-07T07:54:29.000Z</time>
        <extensions>
          <ns3:TrackPointExtension>
            <ns3:hr>154</ns3:hr>
            <ns3:cad>80</ns3:cad>
          </ns3:TrackPointExtension>
        </extensions>
      </trkpt>
      <trkpt lat="52.20997706986963748931884765625" lon="1.62232012487947940826416015625">
        <ele>-32.40000152587890625</ele>
        <time>2025-09-07T07:54:30.000Z</time>
        <extensions>
          <ns3:TrackPointExtension>
            <ns3:hr>153</ns3:hr>
            <ns3:cad>80</ns3:cad>
          </ns3:TrackPointExtension>
        </extensions>
      </trkpt>
      <trkpt lat="52.21005879342555999755859375" lon="1.6223413310945034027099609375">
        <ele>-32.40000152587890625</ele>
        <time>2025-09-07T07:54:34.000Z</time>
        <extensions>
          <ns3:TrackPointExtension>
            <ns3:hr>153</ns3:hr>
            <ns3:cad>80</ns3:cad>
          </ns3:TrackPointExtension>
        </extensions>
      </trkpt>
      <trkpt lat="52.21011704765260219573974609375" lon="1.622351221740245819091796875">
        <ele>-32.40000152587890625</ele>
        <time>2025-09-07T07:54:37.000Z</time>
        <extensions>
          <ns3:TrackPointExtension>
            <ns3:hr>154</ns3:hr>
            <ns3:cad>81</ns3:cad>
          </ns3:TrackPointExtension>
        </extensions>
      </trkpt>
      <trkpt lat="52.21025182865560054779052734375" lon="1.622367314994335174560546875">
        <ele>-32.200000762939453125</ele>
        <time>2025-09-07T07:54:44.000Z</time>
        <extensions>
          <ns3:TrackPointExtension>
            <ns3:hr>155</ns3:hr>
            <ns3:cad>81</ns3:cad>
          </ns3:TrackPointExtension>
        </extensions>
      </trkpt>
      <trkpt lat="52.21044293604791164398193359375" lon="1.62239204160869121551513671875">
        <ele>-32</ele>
        <time>2025-09-07T07:54:53.000Z</time>
        <extensions>
          <ns3:TrackPointExtension>
            <ns3:hr>157</ns3:hr>
            <ns3:cad>81</ns3:cad>
          </ns3:TrackPointExtension>
        </extensions>
      </trkpt>
      <trkpt lat="52.21060420386493206024169921875" lon="1.62242271937429904937744140625">
        <ele>-31.799999237060546875</ele>
        <time>2025-09-07T07:55:01.000Z</time>
        <extensions>
          <ns3:TrackPointExtension>
            <ns3:hr>158</ns3:hr>
            <ns3:cad>80</ns3:cad>
          </ns3:TrackPointExtension>
        </extensions>
      </trkpt>
      <trkpt lat="52.2107422538101673126220703125" lon="1.622434370219707489013671875">
        <ele>-31.6000003814697265625</ele>
        <time>2025-09-07T07:55:08.000Z</time>
        <extensions>
          <ns3:TrackPointExtension>
            <ns3:hr>158</ns3:hr>
            <ns3:cad>80</ns3:cad>
          </ns3:TrackPointExtension>
        </extensions>
      </trkpt>
      <trkpt lat="52.21088482998311519622802734375" lon="1.62245239131152629852294921875">
        <ele>-31.3999996185302734375</ele>
        <time>2025-09-07T07:55:16.000Z</time>
        <extensions>
          <ns3:TrackPointExtension>
            <ns3:hr>159</ns3:hr>
            <ns3:cad>80</ns3:cad>
          </ns3:TrackPointExtension>
        </extensions>
      </trkpt>
      <trkpt lat="52.21107644028961658477783203125" lon="1.62247292697429656982421875">
        <ele>-31.6000003814697265625</ele>
        <time>2025-09-07T07:55:26.000Z</time>
        <extensions>
          <ns3:TrackPointExtension>
            <ns3:hr>161</ns3:hr>
            <ns3:cad>81</ns3:cad>
          </ns3:TrackPointExtension>
        </extensions>
      </trkpt>
      <trkpt lat="52.21121239475905895233154296875" lon="1.62246429361402988433837890625">
        <ele>-31.6000003814697265625</ele>
        <time>2025-09-07T07:55:32.000Z</time>
        <extensions>
          <ns3:TrackPointExtension>
            <ns3:hr>160</ns3:hr>
            <ns3:cad>80</ns3:cad>
          </ns3:TrackPointExtension>
        </extensions>
      </trkpt>
      <trkpt lat="52.21136771142482757568359375" lon="1.6224469430744647979736328125">
        <ele>-31.3999996185302734375</ele>
        <time>2025-09-07T07:55:39.000Z</time>
        <extensions>
          <ns3:TrackPointExtension>
            <ns3:hr>160</ns3:hr>
            <ns3:cad>81</ns3:cad>
          </ns3:TrackPointExtension>
        </extensions>
      </trkpt>
      <trkpt lat="52.211386151611804962158203125" lon="1.62244551815092563629150390625">
        <ele>-31.3999996185302734375</ele>
        <time>2025-09-07T07:55:40.000Z</time>
        <extensions>
          <ns3:TrackPointExtension>
            <ns3:hr>160</ns3:hr>
            <ns3:cad>81</ns3:cad>
          </ns3:TrackPointExtension>
        </extensions>
      </trkpt>
      <trkpt lat="52.211528979241847991943359375" lon="1.6224358789622783660888671875">
        <ele>-31.200000762939453125</ele>
        <time>2025-09-07T07:55:47.000Z</time>
        <extensions>
          <ns3:TrackPointExtension>
            <ns3:hr>161</ns3:hr>
            <ns3:cad>81</ns3:cad>
          </ns3:TrackPointExtension>
        </extensions>
      </trkpt>
      <trkpt lat="52.21167474053800106048583984375" lon="1.622435711324214935302734375">
        <ele>-31.200000762939453125</ele>
        <time>2025-09-07T07:55:54.000Z</time>
        <extensions>
          <ns3:TrackPointExtension>
            <ns3:hr>161</ns3:hr>
            <ns3:cad>80</ns3:cad>
          </ns3:TrackPointExtension>
        </extensions>
      </trkpt>
      <trkpt lat="52.21184539608657360076904296875" lon="1.62243646569550037384033203125">
        <ele>-31.200000762939453125</ele>
        <time>2025-09-07T07:56:02.000Z</time>
        <extensions>
          <ns3:TrackPointExtension>
            <ns3:hr>161</ns3:hr>
            <ns3:cad>79</ns3:cad>
          </ns3:TrackPointExtension>
        </extensions>
      </trkpt>
      <trkpt lat="52.21199878491461277008056640625" lon="1.622424311935901641845703125">
        <ele>-31.200000762939453125</ele>
        <time>2025-09-07T07:56:09.000Z</time>
        <extensions>
          <ns3:TrackPointExtension>
            <ns3:hr>162</ns3:hr>
            <ns3:cad>78</ns3:cad>
          </ns3:TrackPointExtension>
        </extensions>
      </trkpt>
      <trkpt lat="52.2121497429907321929931640625" lon="1.622394807636737823486328125">
        <ele>-31.6000003814697265625</ele>
        <time>2025-09-07T07:56:16.000Z</time>
        <extensions>
          <ns3:TrackPointExtension>
            <ns3:hr>161</ns3:hr>
            <ns3:cad>80</ns3:cad>
          </ns3:TrackPointExtension>
        </extensions>
      </trkpt>
      <trkpt lat="52.21228913404047489166259765625" lon="1.6224197857081890106201171875">
        <ele>-31.6000003814697265625</ele>
        <time>2025-09-07T07:56:23.000Z</time>
        <extensions>
          <ns3:TrackPointExtension>
            <ns3:hr>161</ns3:hr>
            <ns3:cad>80</ns3:cad>
          </ns3:TrackPointExtension>
        </extensions>
      </trkpt>
      <trkpt lat="52.212374545633792877197265625" lon="1.6225059516727924346923828125">
        <ele>-31.6000003814697265625</ele>
        <time>2025-09-07T07:56:28.000Z</time>
        <extensions>
          <ns3:TrackPointExtension>
            <ns3:hr>161</ns3:hr>
            <ns3:cad>80</ns3:cad>
          </ns3:TrackPointExtension>
        </extensions>
      </trkpt>
      <trkpt lat="52.21245777793228626251220703125" lon="1.6225714981555938720703125">
        <ele>-31.6000003814697265625</ele>
        <time>2025-09-07T07:56:33.000Z</time>
        <extensions>
          <ns3:TrackPointExtension>
            <ns3:hr>161</ns3:hr>
            <ns3:cad>80</ns3:cad>
          </ns3:TrackPointExtension>
        </extensions>
      </trkpt>
      <trkpt lat="52.21256908960640430450439453125" lon="1.6225763596594333648681640625">
        <ele>-31.6000003814697265625</ele>
        <time>2025-09-07T07:56:39.000Z</time>
        <extensions>
          <ns3:TrackPointExtension>
            <ns3:hr>161</ns3:hr>
            <ns3:cad>81</ns3:cad>
          </ns3:TrackPointExtension>
        </extensions>
      </trkpt>
      <trkpt lat="52.212731279432773590087890625" lon="1.62258583121001720428466796875">
        <ele>-32</ele>
        <time>2025-09-07T07:56:47.000Z</time>
        <extensions>
          <ns3:TrackPointExtension>
            <ns3:hr>162</ns3:hr>
            <ns3:cad>81</ns3:cad>
          </ns3:TrackPointExtension>
        </extensions>
      </trkpt>
      <trkpt lat="52.21279841847717761993408203125" lon="1.62258214317262172698974609375">
        <ele>-32</ele>
        <time>2025-09-07T07:56:50.000Z</time>
        <extensions>
          <ns3:TrackPointExtension>
            <ns3:hr>159</ns3:hr>
            <ns3:cad>81</ns3:cad>
          </ns3:TrackPointExtension>
        </extensions>
      </trkpt>
      <trkpt lat="52.2128917090594768524169921875" lon="1.6225766949355602264404296875">
        <ele>-32</ele>
        <time>2025-09-07T07:56:54.000Z</time>
        <extensions>
          <ns3:TrackPointExtension>
            <ns3:hr>161</ns3:hr>
            <ns3:cad>81</ns3:cad>
          </ns3:TrackPointExtension>
        </extensions>
      </trkpt>
      <trkpt lat="52.213030345737934112548828125" lon="1.622570492327213287353515625">
        <ele>-31.799999237060546875</ele>
        <time>2025-09-07T07:57:00.000Z</time>
        <extensions>
          <ns3:TrackPointExtension>
            <ns3:hr>162</ns3:hr>
            <ns3:cad>81</ns3:cad>
          </ns3:TrackPointExtension>
        </extensions>
      </trkpt>
      <trkpt lat="52.21317459829151630401611328125" lon="1.6225713305175304412841796875">
        <ele>-31.799999237060546875</ele>
        <time>2025-09-07T07:57:08.000Z</time>
        <extensions>
          <ns3:TrackPointExtension>
            <ns3:hr>160</ns3:hr>
            <ns3:cad>81</ns3:cad>
          </ns3:TrackPointExtension>
        </extensions>
      </trkpt>
      <trkpt lat="52.21332371234893798828125" lon="1.6226015053689479827880859375">
        <ele>-31.799999237060546875</ele>
        <time>2025-09-07T07:57:15.000Z</time>
        <extensions>
          <ns3:TrackPointExtension>
            <ns3:hr>161</ns3:hr>
            <ns3:cad>81</ns3:cad>
          </ns3:TrackPointExtension>
        </extensions>
      </trkpt>
      <trkpt lat="52.2134221158921718597412109375" lon="1.6226410679519176483154296875">
        <ele>-31.3999996185302734375</ele>
        <time>2025-09-07T07:57:21.000Z</time>
        <extensions>
          <ns3:TrackPointExtension>
            <ns3:hr>160</ns3:hr>
            <ns3:cad>62</ns3:cad>
          </ns3:TrackPointExtension>
        </extensions>
      </trkpt>
      <trkpt lat="52.21352898515760898590087890625" lon="1.62266814149916172027587890625">
        <ele>-31</ele>
        <time>2025-09-07T07:57:29.000Z</time>
        <extensions>
          <ns3:TrackPointExtension>
            <ns3:hr>157</ns3:hr>
            <ns3:cad>61</ns3:cad>
          </ns3:TrackPointExtension>
        </extensions>
      </trkpt>
      <trkpt lat="52.213654629886150360107421875" lon="1.62274709902703762054443359375">
        <ele>-30.799999237060546875</ele>
        <time>2025-09-07T07:57:37.000Z</time>
        <extensions>
          <ns3:TrackPointExtension>
            <ns3:hr>155</ns3:hr>
            <ns3:cad>0</ns3:cad>
          </ns3:TrackPointExtension>
        </extensions>
      </trkpt>
      <trkpt lat="52.21371707506477832794189453125" lon="1.622798480093479156494140625">
        <ele>-31</ele>
        <time>2025-09-07T07:57:41.000Z</time>
        <extensions>
          <ns3:TrackPointExtension>
            <ns3:hr>152</ns3:hr>
            <ns3:cad>63</ns3:cad>
          </ns3:TrackPointExtension>
        </extensions>
      </trkpt>
      <trkpt lat="52.2137560509145259857177734375" lon="1.62281884811818599700927734375">
        <ele>-31</ele>
        <time>2025-09-07T07:57:43.000Z</time>
        <extensions>
          <ns3:TrackPointExtension>
            <ns3:hr>153</ns3:hr>
            <ns3:cad>80</ns3:cad>
          </ns3:TrackPointExtension>
        </extensions>
      </trkpt>
      <trkpt lat="52.21383534371852874755859375" lon="1.622850783169269561767578125">
        <ele>-31.200000762939453125</ele>
        <time>2025-09-07T07:57:47.000Z</time>
        <extensions>
          <ns3:TrackPointExtension>
            <ns3:hr>150</ns3:hr>
            <ns3:cad>79</ns3:cad>
          </ns3:TrackPointExtension>
        </extensions>
      </trkpt>
      <trkpt lat="52.21389661543071269989013671875" lon="1.6228584945201873779296875">
        <ele>-31.200000762939453125</ele>
        <time>2025-09-07T07:57:50.000Z</time>
        <extensions>
          <ns3:TrackPointExtension>
            <ns3:hr>151</ns3:hr>
            <ns3:cad>79</ns3:cad>
          </ns3:TrackPointExtension>
        </extensions>
      </trkpt>
      <trkpt lat="52.213998623192310333251953125" lon="1.6228680498898029327392578125">
        <ele>-31.200000762939453125</ele>
        <time>2025-09-07T07:57:55.000Z</time>
        <extensions>
          <ns3:TrackPointExtension>
            <ns3:hr>154</ns3:hr>
            <ns3:cad>81</ns3:cad>
          </ns3:TrackPointExtension>
        </extensions>
      </trkpt>
      <trkpt lat="52.2140586376190185546875" lon="1.6228727437555789947509765625">
        <ele>-31.3999996185302734375</ele>
        <time>2025-09-07T07:57:58.000Z</time>
        <extensions>
          <ns3:TrackPointExtension>
            <ns3:hr>154</ns3:hr>
            <ns3:cad>81</ns3:cad>
          </ns3:TrackPointExtension>
        </extensions>
      </trkpt>
      <trkpt lat="52.21423507668077945709228515625" lon="1.62289864383637905120849609375">
        <ele>-31.799999237060546875</ele>
        <time>2025-09-07T07:58:06.000Z</time>
        <extensions>
          <ns3:TrackPointExtension>
            <ns3:hr>154</ns3:hr>
            <ns3:cad>81</ns3:cad>
          </ns3:TrackPointExtension>
        </extensions>
      </trkpt>
      <trkpt lat="52.214349992573261260986328125" lon="1.62291138432919979095458984375">
        <ele>-31.799999237060546875</ele>
        <time>2025-09-07T07:58:11.000Z</time>
        <extensions>
          <ns3:TrackPointExtension>
            <ns3:hr>158</ns3:hr>
            <ns3:cad>81</ns3:cad>
          </ns3:TrackPointExtension>
        </extensions>
      </trkpt>
      <trkpt lat="52.21441864036023616790771484375" lon="1.62291347980499267578125">
        <ele>-31.799999237060546875</ele>
        <time>2025-09-07T07:58:14.000Z</time>
        <extensions>
          <ns3:TrackPointExtension>
            <ns3:hr>158</ns3:hr>
            <ns3:cad>81</ns3:cad>
          </ns3:TrackPointExtension>
        </extensions>
      </trkpt>
      <trkpt lat="52.21460656262934207916259765625" lon="1.62288825027644634246826171875">
        <ele>-31.6000003814697265625</ele>
        <time>2025-09-07T07:58:22.000Z</time>
        <extensions>
          <ns3:TrackPointExtension>
            <ns3:hr>156</ns3:hr>
            <ns3:cad>81</ns3:cad>
          </ns3:TrackPointExtension>
        </extensions>
      </trkpt>
      <trkpt lat="52.21476070582866668701171875" lon="1.62286226637661457061767578125">
        <ele>-31.3999996185302734375</ele>
        <time>2025-09-07T07:58:29.000Z</time>
        <extensions>
          <ns3:TrackPointExtension>
            <ns3:hr>154</ns3:hr>
            <ns3:cad>81</ns3:cad>
          </ns3:TrackPointExtension>
        </extensions>
      </trkpt>
      <trkpt lat="52.2149087302386760711669921875" lon="1.622819267213344573974609375">
        <ele>-31.6000003814697265625</ele>
        <time>2025-09-07T07:58:36.000Z</time>
        <extensions>
          <ns3:TrackPointExtension>
            <ns3:hr>154</ns3:hr>
            <ns3:cad>79</ns3:cad>
          </ns3:TrackPointExtension>
        </extensions>
      </trkpt>
      <trkpt lat="52.2150602750480175018310546875" lon="1.62282018922269344329833984375">
        <ele>-31.200000762939453125</ele>
        <time>2025-09-07T07:58:43.000Z</time>
        <extensions>
          <ns3:TrackPointExtension>
            <ns3:hr>154</ns3:hr>
            <ns3:cad>80</ns3:cad>
          </ns3:TrackPointExtension>
        </extensions>
      </trkpt>
      <trkpt lat="52.21519656479358673095703125" lon="1.62288523279130458831787109375">
        <ele>-31.200000762939453125</ele>
        <time>2025-09-07T07:58:50.000Z</time>
        <extensions>
          <ns3:TrackPointExtension>
            <ns3:hr>155</ns3:hr>
            <ns3:cad>78</ns3:cad>
          </ns3:TrackPointExtension>
        </extensions>
      </trkpt>
      <trkpt lat="52.21522766165435314178466796875" lon="1.62289671599864959716796875">
        <ele>-31.200000762939453125</ele>
        <time>2025-09-07T07:58:53.000Z</time>
        <extensions>
          <ns3:TrackPointExtension>
            <ns3:hr>156</ns3:hr>
            <ns3:cad>81</ns3:cad>
          </ns3:TrackPointExtension>
        </extensions>
      </trkpt>
      <trkpt lat="52.21525632776319980621337890625" lon="1.6228995658457279205322265625">
        <ele>-31.200000762939453125</ele>
        <time>2025-09-07T07:58:55.000Z</time>
        <extensions>
          <ns3:TrackPointExtension>
            <ns3:hr>155</ns3:hr>
            <ns3:cad>41</ns3:cad>
          </ns3:TrackPointExtension>
        </extensions>
      </trkpt>
      <trkpt lat="52.2153046913444995880126953125" lon="1.622939966619014739990234375">
        <ele>-31.200000762939453125</ele>
        <time>2025-09-07T07:58:58.000Z</time>
        <extensions>
          <ns3:TrackPointExtension>
            <ns3:hr>158</ns3:hr>
            <ns3:cad>41</ns3:cad>
          </ns3:TrackPointExtension>
        </extensions>
      </trkpt>
      <trkpt lat="52.21533377654850482940673828125" lon="1.622970141470432281494140625">
        <ele>-31.200000762939453125</ele>
        <time>2025-09-07T07:59:00.000Z</time>
        <extensions>
          <ns3:TrackPointExtension>
            <ns3:hr>155</ns3:hr>
            <ns3:cad>0</ns3:cad>
          </ns3:TrackPointExtension>
        </extensions>
      </trkpt>
      <trkpt lat="52.21536110155284404754638671875" lon="1.62299436517059803009033203125">
        <ele>-31.200000762939453125</ele>
        <time>2025-09-07T07:59:02.000Z</time>
        <extensions>
          <ns3:TrackPointExtension>
            <ns3:hr>157</ns3:hr>
            <ns3:cad>0</ns3:cad>
          </ns3:TrackPointExtension>
        </extensions>
      </trkpt>
      <trkpt lat="52.21538909710943698883056640625" lon="1.62301565520465373992919921875">
        <ele>-31</ele>
        <time>2025-09-07T07:59:04.000Z</time>
        <extensions>
          <ns3:TrackPointExtension>
            <ns3:hr>154</ns3:hr>
            <ns3:cad>0</ns3:cad>
          </ns3:TrackPointExtension>
        </extensions>
      </trkpt>
      <trkpt lat="52.215454392135143280029296875" lon="1.62308220751583576202392578125">
        <ele>-30.3999996185302734375</ele>
        <time>2025-09-07T07:59:09.000Z</time>
        <extensions>
          <ns3:TrackPointExtension>
            <ns3:hr>156</ns3:hr>
            <ns3:cad>0</ns3:cad>
          </ns3:TrackPointExtension>
        </extensions>
      </trkpt>
      <trkpt lat="52.2154673002660274505615234375" lon="1.62309117615222930908203125">
        <ele>-30.3999996185302734375</ele>
        <time>2025-09-07T07:59:10.000Z</time>
        <extensions>
          <ns3:TrackPointExtension>
            <ns3:hr>157</ns3:hr>
            <ns3:cad>0</ns3:cad>
          </ns3:TrackPointExtension>
        </extensions>
      </trkpt>
      <trkpt lat="52.2155330143868923187255859375" lon="1.62315781228244304656982421875">
        <ele>-29.6000003814697265625</ele>
        <time>2025-09-07T07:59:16.000Z</time>
        <extensions>
          <ns3:TrackPointExtension>
            <ns3:hr>158</ns3:hr>
            <ns3:cad>0</ns3:cad>
          </ns3:TrackPointExtension>
        </extensions>
      </trkpt>
      <trkpt lat="52.2155440784990787506103515625" lon="1.6231640987098217010498046875">
        <ele>-29.200000762939453125</ele>
        <time>2025-09-07T07:59:17.000Z</time>
        <extensions>
          <ns3:TrackPointExtension>
            <ns3:hr>158</ns3:hr>
            <ns3:cad>0</ns3:cad>
          </ns3:TrackPointExtension>
        </extensions>
      </trkpt>
      <trkpt lat="52.21561624668538570404052734375" lon="1.62325487472116947174072265625">
        <ele>-28.200000762939453125</ele>
        <time>2025-09-07T07:59:22.000Z</time>
        <extensions>
          <ns3:TrackPointExtension>
            <ns3:hr>158</ns3:hr>
            <ns3:cad>76</ns3:cad>
          </ns3:TrackPointExtension>
        </extensions>
      </trkpt>
      <trkpt lat="52.21563267521560192108154296875" lon="1.62327599711716175079345703125">
        <ele>-28.200000762939453125</ele>
        <time>2025-09-07T07:59:23.000Z</time>
        <extensions>
          <ns3:TrackPointExtension>
            <ns3:hr>158</ns3:hr>
            <ns3:cad>77</ns3:cad>
          </ns3:TrackPointExtension>
        </extensions>
      </trkpt>
      <trkpt lat="52.215693779289722442626953125" lon="1.623401306569576263427734375">
        <ele>-28</ele>
        <time>2025-09-07T07:59:29.000Z</time>
        <extensions>
          <ns3:TrackPointExtension>
            <ns3:hr>161</ns3:hr>
            <ns3:cad>78</ns3:cad>
          </ns3:TrackPointExtension>
        </extensions>
      </trkpt>
      <trkpt lat="52.21573107875883579254150390625" lon="1.62348621524870395660400390625">
        <ele>-28.3999996185302734375</ele>
        <time>2025-09-07T07:59:33.000Z</time>
        <extensions>
          <ns3:TrackPointExtension>
            <ns3:hr>164</ns3:hr>
            <ns3:cad>78</ns3:cad>
          </ns3:TrackPointExtension>
        </extensions>
      </trkpt>
      <trkpt lat="52.21576225943863391876220703125" lon="1.62352762185037136077880859375">
        <ele>-28.799999237060546875</ele>
        <time>2025-09-07T07:59:35.000Z</time>
        <extensions>
          <ns3:TrackPointExtension>
            <ns3:hr>165</ns3:hr>
            <ns3:cad>79</ns3:cad>
          </ns3:TrackPointExtension>
        </extensions>
      </trkpt>
      <trkpt lat="52.215798385441303253173828125" lon="1.62357187829911708831787109375">
        <ele>-29.3999996185302734375</ele>
        <time>2025-09-07T07:59:37.000Z</time>
        <extensions>
          <ns3:TrackPointExtension>
            <ns3:hr>167</ns3:hr>
            <ns3:cad>79</ns3:cad>
          </ns3:TrackPointExtension>
        </extensions>
      </trkpt>
      <trkpt lat="52.2158696316182613372802734375" lon="1.6236596368253231048583984375">
        <ele>-29.799999237060546875</ele>
        <time>2025-09-07T07:59:41.000Z</time>
        <extensions>
          <ns3:TrackPointExtension>
            <ns3:hr>161</ns3:hr>
            <ns3:cad>79</ns3:cad>
          </ns3:TrackPointExtension>
        </extensions>
      </trkpt>
      <trkpt lat="52.21588480286300182342529296875" lon="1.62367145530879497528076171875">
        <ele>-29.799999237060546875</ele>
        <time>2025-09-07T07:59:42.000Z</time>
        <extensions>
          <ns3:TrackPointExtension>
            <ns3:hr>161</ns3:hr>
            <ns3:cad>79</ns3:cad>
          </ns3:TrackPointExtension>
        </extensions>
      </trkpt>
      <trkpt lat="52.215957306325435638427734375" lon="1.62367849610745906829833984375">
        <ele>-30</ele>
        <time>2025-09-07T07:59:46.000Z</time>
        <extensions>
          <ns3:TrackPointExtension>
            <ns3:hr>162</ns3:hr>
            <ns3:cad>80</ns3:cad>
          </ns3:TrackPointExtension>
        </extensions>
      </trkpt>
      <trkpt lat="52.216025032103061676025390625" lon="1.62367430515587329864501953125">
        <ele>-30.3999996185302734375</ele>
        <time>2025-09-07T07:59:49.000Z</time>
        <extensions>
          <ns3:TrackPointExtension>
            <ns3:hr>163</ns3:hr>
            <ns3:cad>80</ns3:cad>
          </ns3:TrackPointExtension>
        </extensions>
      </trkpt>
      <trkpt lat="52.21610826440155506134033203125" lon="1.62366575561463832855224609375">
        <ele>-31</ele>
        <time>2025-09-07T07:59:53.000Z</time>
        <extensions>
          <ns3:TrackPointExtension>
            <ns3:hr>161</ns3:hr>
            <ns3:cad>79</ns3:cad>
          </ns3:TrackPointExtension>
        </extensions>
      </trkpt>
      <trkpt lat="52.21619811840355396270751953125" lon="1.62364664487540721893310546875">
        <ele>-31.3999996185302734375</ele>
        <time>2025-09-07T07:59:59.000Z</time>
        <extensions>
          <ns3:TrackPointExtension>
            <ns3:hr>161</ns3:hr>
            <ns3:cad>0</ns3:cad>
          </ns3:TrackPointExtension>
        </extensions>
      </trkpt>
      <trkpt lat="52.2162025608122348785400390625" lon="1.6236479021608829498291015625">
        <ele>-31.3999996185302734375</ele>
        <time>2025-09-07T08:00:01.000Z</time>
        <extensions>
          <ns3:TrackPointExtension>
            <ns3:hr>161</ns3:hr>
            <ns3:cad>0</ns3:cad>
          </ns3:TrackPointExtension>
        </extensions>
      </trkpt>
      <trkpt lat="52.21620105206966400146484375" lon="1.62364664487540721893310546875">
        <ele>-31.3999996185302734375</ele>
        <time>2025-09-07T08:00:04.000Z</time>
        <extensions>
          <ns3:TrackPointExtension>
            <ns3:hr>158</ns3:hr>
            <ns3:cad>0</ns3:cad>
          </ns3:TrackPointExtension>
        </extensions>
      </trkpt>
      <trkpt lat="52.21620029769837856292724609375" lon="1.6236482374370098114013671875">
        <ele>-31.200000762939453125</ele>
        <time>2025-09-07T08:00:06.000Z</time>
        <extensions>
          <ns3:TrackPointExtension>
            <ns3:hr>155</ns3:hr>
            <ns3:cad>0</ns3:cad>
          </ns3:TrackPointExtension>
        </extensions>
      </trkpt>
      <trkpt lat="52.21621387638151645660400390625" lon="1.6236462257802486419677734375">
        <ele>-31</ele>
        <time>2025-09-07T08:00:09.000Z</time>
        <extensions>
          <ns3:TrackPointExtension>
            <ns3:hr>156</ns3:hr>
            <ns3:cad>0</ns3:cad>
          </ns3:TrackPointExtension>
        </extensions>
      </trkpt>
      <trkpt lat="52.2162786684930324554443359375" lon="1.62363792769610881805419921875">
        <ele>-31</ele>
        <time>2025-09-07T08:00:13.000Z</time>
        <extensions>
          <ns3:TrackPointExtension>
            <ns3:hr>152</ns3:hr>
            <ns3:cad>0</ns3:cad>
          </ns3:TrackPointExtension>
        </extensions>
      </trkpt>
      <trkpt lat="52.216307334601879119873046875" lon="1.62363440729677677154541015625">
        <ele>-31</ele>
        <time>2025-09-07T08:00:15.000Z</time>
        <extensions>
          <ns3:TrackPointExtension>
            <ns3:hr>149</ns3:hr>
            <ns3:cad>55</ns3:cad>
          </ns3:TrackPointExtension>
        </extensions>
      </trkpt>
      <trkpt lat="52.2163162194192409515380859375" lon="1.623637676239013671875">
        <ele>-31</ele>
        <time>2025-09-07T08:00:16.000Z</time>
        <extensions>
          <ns3:TrackPointExtension>
            <ns3:hr>148</ns3:hr>
            <ns3:cad>55</ns3:cad>
          </ns3:TrackPointExtension>
        </extensions>
      </trkpt>
      <trkpt lat="52.2163477353751659393310546875" lon="1.62364077754318714141845703125">
        <ele>-31.799999237060546875</ele>
        <time>2025-09-07T08:00:26.000Z</time>
        <extensions>
          <ns3:TrackPointExtension>
            <ns3:hr>147</ns3:hr>
            <ns3:cad>0</ns3:cad>
          </ns3:TrackPointExtension>
        </extensions>
      </trkpt>
      <trkpt lat="52.21648226492106914520263671875" lon="1.62361429072916507720947265625">
        <ele>-31.799999237060546875</ele>
        <time>2025-09-07T08:00:33.000Z</time>
        <extensions>
          <ns3:TrackPointExtension>
            <ns3:hr>145</ns3:hr>
            <ns3:cad>79</ns3:cad>
          </ns3:TrackPointExtension>
        </extensions>
      </trkpt>
      <trkpt lat="52.2165291197597980499267578125" lon="1.623609848320484161376953125">
        <ele>-31.799999237060546875</ele>
        <time>2025-09-07T08:00:35.000Z</time>
        <extensions>
          <ns3:TrackPointExtension>
            <ns3:hr>136</ns3:hr>
            <ns3:cad>80</ns3:cad>
          </ns3:TrackPointExtension>
        </extensions>
      </trkpt>
      <trkpt lat="52.216645292937755584716796875" lon="1.62360456772148609161376953125">
        <ele>-31.6000003814697265625</ele>
        <time>2025-09-07T08:00:40.000Z</time>
        <extensions>
          <ns3:TrackPointExtension>
            <ns3:hr>137</ns3:hr>
            <ns3:cad>81</ns3:cad>
          </ns3:TrackPointExtension>
        </extensions>
      </trkpt>
      <trkpt lat="52.2167416848242282867431640625" lon="1.6236066631972789764404296875">
        <ele>-31.6000003814697265625</ele>
        <time>2025-09-07T08:00:44.000Z</time>
        <extensions>
          <ns3:TrackPointExtension>
            <ns3:hr>140</ns3:hr>
            <ns3:cad>80</ns3:cad>
          </ns3:TrackPointExtension>
        </extensions>
      </trkpt>
      <trkpt lat="52.21681888215243816375732421875" lon="1.623614542186260223388671875">
        <ele>-31.6000003814697265625</ele>
        <time>2025-09-07T08:00:47.000Z</time>
        <extensions>
          <ns3:TrackPointExtension>
            <ns3:hr>143</ns3:hr>
            <ns3:cad>81</ns3:cad>
          </ns3:TrackPointExtension>
        </extensions>
      </trkpt>
      <trkpt lat="52.21686900593340396881103515625" lon="1.62361898459494113922119140625">
        <ele>-31.6000003814697265625</ele>
        <time>2025-09-07T08:00:49.000Z</time>
        <extensions>
          <ns3:TrackPointExtension>
            <ns3:hr>144</ns3:hr>
            <ns3:cad>80</ns3:cad>
          </ns3:TrackPointExtension>
        </extensions>
      </trkpt>
      <trkpt lat="52.21701149828732013702392578125" lon="1.62363759241998195648193359375">
        <ele>-31.6000003814697265625</ele>
        <time>2025-09-07T08:00:55.000Z</time>
        <extensions>
          <ns3:TrackPointExtension>
            <ns3:hr>148</ns3:hr>
            <ns3:cad>81</ns3:cad>
          </ns3:TrackPointExtension>
        </extensions>
      </trkpt>
      <trkpt lat="52.21705508418381214141845703125" lon="1.62364580668509006500244140625">
        <ele>-31.799999237060546875</ele>
        <time>2025-09-07T08:00:57.000Z</time>
        <extensions>
          <ns3:TrackPointExtension>
            <ns3:hr>151</ns3:hr>
            <ns3:cad>81</ns3:cad>
          </ns3:TrackPointExtension>
        </extensions>
      </trkpt>
      <trkpt lat="52.2172563336789608001708984375" lon="1.62368017248809337615966796875">
        <ele>-31.799999237060546875</ele>
        <time>2025-09-07T08:01:06.000Z</time>
        <extensions>
          <ns3:TrackPointExtension>
            <ns3:hr>153</ns3:hr>
            <ns3:cad>81</ns3:cad>
          </ns3:TrackPointExtension>
        </extensions>
      </trkpt>
      <trkpt lat="52.21741466782987117767333984375" lon="1.62368922494351863861083984375">
        <ele>-31.799999237060546875</ele>
        <time>2025-09-07T08:01:13.000Z</time>
        <extensions>
          <ns3:TrackPointExtension>
            <ns3:hr>151</ns3:hr>
            <ns3:cad>81</ns3:cad>
          </ns3:TrackPointExtension>
        </extensions>
      </trkpt>
      <trkpt lat="52.21759580075740814208984375" lon="1.62369794212281703948974609375">
        <ele>-32</ele>
        <time>2025-09-07T08:01:21.000Z</time>
        <extensions>
          <ns3:TrackPointExtension>
            <ns3:hr>151</ns3:hr>
            <ns3:cad>80</ns3:cad>
          </ns3:TrackPointExtension>
        </extensions>
      </trkpt>
      <trkpt lat="52.217747680842876434326171875" lon="1.623717807233333587646484375">
        <ele>-31.6000003814697265625</ele>
        <time>2025-09-07T08:01:28.000Z</time>
        <extensions>
          <ns3:TrackPointExtension>
            <ns3:hr>153</ns3:hr>
            <ns3:cad>81</ns3:cad>
          </ns3:TrackPointExtension>
        </extensions>
      </trkpt>
      <trkpt lat="52.2179196774959564208984375" lon="1.62373884581029415130615234375">
        <ele>-31.6000003814697265625</ele>
        <time>2025-09-07T08:01:36.000Z</time>
        <extensions>
          <ns3:TrackPointExtension>
            <ns3:hr>153</ns3:hr>
            <ns3:cad>81</ns3:cad>
          </ns3:TrackPointExtension>
        </extensions>
      </trkpt>
      <trkpt lat="52.21809645183384418487548828125" lon="1.623752675950527191162109375">
        <ele>-31.6000003814697265625</ele>
        <time>2025-09-07T08:01:45.000Z</time>
        <extensions>
          <ns3:TrackPointExtension>
            <ns3:hr>155</ns3:hr>
            <ns3:cad>81</ns3:cad>
          </ns3:TrackPointExtension>
        </extensions>
      </trkpt>
      <trkpt lat="52.21818186342716217041015625" lon="1.6237570345401763916015625">
        <ele>-31.6000003814697265625</ele>
        <time>2025-09-07T08:01:49.000Z</time>
        <extensions>
          <ns3:TrackPointExtension>
            <ns3:hr>152</ns3:hr>
            <ns3:cad>81</ns3:cad>
          </ns3:TrackPointExtension>
        </extensions>
      </trkpt>
      <trkpt lat="52.21827247180044651031494140625" lon="1.62374521605670452117919921875">
        <ele>-31.6000003814697265625</ele>
        <time>2025-09-07T08:01:53.000Z</time>
        <extensions>
          <ns3:TrackPointExtension>
            <ns3:hr>154</ns3:hr>
            <ns3:cad>80</ns3:cad>
          </ns3:TrackPointExtension>
        </extensions>
      </trkpt>
      <trkpt lat="52.2184663452208042144775390625" lon="1.623757369816303253173828125">
        <ele>-31.3999996185302734375</ele>
        <time>2025-09-07T08:02:02.000Z</time>
        <extensions>
          <ns3:TrackPointExtension>
            <ns3:hr>151</ns3:hr>
            <ns3:cad>80</ns3:cad>
          </ns3:TrackPointExtension>
        </extensions>
      </trkpt>
      <trkpt lat="52.21865636296570301055908203125" lon="1.62374152801930904388427734375">
        <ele>-31.200000762939453125</ele>
        <time>2025-09-07T08:02:11.000Z</time>
        <extensions>
          <ns3:TrackPointExtension>
            <ns3:hr>155</ns3:hr>
            <ns3:cad>81</ns3:cad>
          </ns3:TrackPointExtension>
        </extensions>
      </trkpt>
      <trkpt lat="52.21883925609290599822998046875" lon="1.62374253384768962860107421875">
        <ele>-31.3999996185302734375</ele>
        <time>2025-09-07T08:02:19.000Z</time>
        <extensions>
          <ns3:TrackPointExtension>
            <ns3:hr>154</ns3:hr>
            <ns3:cad>81</ns3:cad>
          </ns3:TrackPointExtension>
        </extensions>
      </trkpt>
      <trkpt lat="52.219010330736637115478515625" lon="1.62376516498625278472900390625">
        <ele>-31.6000003814697265625</ele>
        <time>2025-09-07T08:02:27.000Z</time>
        <extensions>
          <ns3:TrackPointExtension>
            <ns3:hr>152</ns3:hr>
            <ns3:cad>81</ns3:cad>
          </ns3:TrackPointExtension>
        </extensions>
      </trkpt>
      <trkpt lat="52.21908568404614925384521484375" lon="1.623772792518138885498046875">
        <ele>-31.6000003814697265625</ele>
        <time>2025-09-07T08:02:31.000Z</time>
        <extensions>
          <ns3:TrackPointExtension>
            <ns3:hr>155</ns3:hr>
            <ns3:cad>81</ns3:cad>
          </ns3:TrackPointExtension>
        </extensions>
      </trkpt>
      <trkpt lat="52.2191642224788665771484375" lon="1.62377555854618549346923828125">
        <ele>-31.6000003814697265625</ele>
        <time>2025-09-07T08:02:35.000Z</time>
        <extensions>
          <ns3:TrackPointExtension>
            <ns3:hr>154</ns3:hr>
            <ns3:cad>80</ns3:cad>
          </ns3:TrackPointExtension>
        </extensions>
      </trkpt>
      <trkpt lat="52.21931912004947662353515625" lon="1.62379383109509944915771484375">
        <ele>-32</ele>
        <time>2025-09-07T08:02:43.000Z</time>
        <extensions>
          <ns3:TrackPointExtension>
            <ns3:hr>153</ns3:hr>
            <ns3:cad>80</ns3:cad>
          </ns3:TrackPointExtension>
        </extensions>
      </trkpt>
      <trkpt lat="52.21951785497367382049560546875" lon="1.62382383830845355987548828125">
        <ele>-32</ele>
        <time>2025-09-07T08:02:52.000Z</time>
        <extensions>
          <ns3:TrackPointExtension>
            <ns3:hr>152</ns3:hr>
            <ns3:cad>79</ns3:cad>
          </ns3:TrackPointExtension>
        </extensions>
      </trkpt>
      <trkpt lat="52.21958474256098270416259765625" lon="1.6238363273441791534423828125">
        <ele>-32.200000762939453125</ele>
        <time>2025-09-07T08:02:55.000Z</time>
        <extensions>
          <ns3:TrackPointExtension>
            <ns3:hr>155</ns3:hr>
            <ns3:cad>80</ns3:cad>
          </ns3:TrackPointExtension>
        </extensions>
      </trkpt>
      <trkpt lat="52.219660095870494842529296875" lon="1.62383372895419597625732421875">
        <ele>-32</ele>
        <time>2025-09-07T08:02:59.000Z</time>
        <extensions>
          <ns3:TrackPointExtension>
            <ns3:hr>156</ns3:hr>
            <ns3:cad>80</ns3:cad>
          </ns3:TrackPointExtension>
        </extensions>
      </trkpt>
      <trkpt lat="52.21977241337299346923828125" lon="1.6238302923738956451416015625">
        <ele>-31.3999996185302734375</ele>
        <time>2025-09-07T08:03:06.000Z</time>
        <extensions>
          <ns3:TrackPointExtension>
            <ns3:hr>156</ns3:hr>
            <ns3:cad>0</ns3:cad>
          </ns3:TrackPointExtension>
        </extensions>
      </trkpt>
      <trkpt lat="52.219798900187015533447265625" lon="1.62382953800261020660400390625">
        <ele>-31.3999996185302734375</ele>
        <time>2025-09-07T08:03:08.000Z</time>
        <extensions>
          <ns3:TrackPointExtension>
            <ns3:hr>159</ns3:hr>
            <ns3:cad>58</ns3:cad>
          </ns3:TrackPointExtension>
        </extensions>
      </trkpt>
      <trkpt lat="52.219926305115222930908203125" lon="1.623852588236331939697265625">
        <ele>-30.6000003814697265625</ele>
        <time>2025-09-07T08:03:16.000Z</time>
        <extensions>
          <ns3:TrackPointExtension>
            <ns3:hr>159</ns3:hr>
            <ns3:cad>60</ns3:cad>
          </ns3:TrackPointExtension>
        </extensions>
      </trkpt>
      <trkpt lat="52.2200129739940166473388671875" lon="1.62386524491012096405029296875">
        <ele>-30.6000003814697265625</ele>
        <time>2025-09-07T08:03:22.000Z</time>
        <extensions>
          <ns3:TrackPointExtension>
            <ns3:hr>156</ns3:hr>
            <ns3:cad>124</ns3:cad>
          </ns3:TrackPointExtension>
        </extensions>
      </trkpt>
      <trkpt lat="52.22004960291087627410888671875" lon="1.623867340385913848876953125">
        <ele>-30.6000003814697265625</ele>
        <time>2025-09-07T08:03:24.000Z</time>
        <extensions>
          <ns3:TrackPointExtension>
            <ns3:hr>155</ns3:hr>
            <ns3:cad>124</ns3:cad>
          </ns3:TrackPointExtension>
        </extensions>
      </trkpt>
      <trkpt lat="52.2202228568494319915771484375" lon="1.62385719828307628631591796875">
        <ele>-30.799999237060546875</ele>
        <time>2025-09-07T08:03:32.000Z</time>
        <extensions>
          <ns3:TrackPointExtension>
            <ns3:hr>157</ns3:hr>
            <ns3:cad>80</ns3:cad>
          </ns3:TrackPointExtension>
        </extensions>
      </trkpt>
      <trkpt lat="52.22030005417764186859130859375" lon="1.6238353215157985687255859375">
        <ele>-30.799999237060546875</ele>
        <time>2025-09-07T08:03:35.000Z</time>
        <extensions>
          <ns3:TrackPointExtension>
            <ns3:hr>161</ns3:hr>
            <ns3:cad>79</ns3:cad>
          </ns3:TrackPointExtension>
        </extensions>
      </trkpt>
      <trkpt lat="52.22034565173089504241943359375" lon="1.6238255985081195831298828125">
        <ele>-30.799999237060546875</ele>
        <time>2025-09-07T08:03:37.000Z</time>
        <extensions>
          <ns3:TrackPointExtension>
            <ns3:hr>161</ns3:hr>
            <ns3:cad>79</ns3:cad>
          </ns3:TrackPointExtension>
        </extensions>
      </trkpt>
      <trkpt lat="52.2204315662384033203125" lon="1.623815037310123443603515625">
        <ele>-31</ele>
        <time>2025-09-07T08:03:41.000Z</time>
        <extensions>
          <ns3:TrackPointExtension>
            <ns3:hr>164</ns3:hr>
            <ns3:cad>80</ns3:cad>
          </ns3:TrackPointExtension>
        </extensions>
      </trkpt>
      <trkpt lat="52.220464088022708892822265625" lon="1.62381042726337909698486328125">
        <ele>-31.6000003814697265625</ele>
        <time>2025-09-07T08:03:43.000Z</time>
        <extensions>
          <ns3:TrackPointExtension>
            <ns3:hr>160</ns3:hr>
            <ns3:cad>80</ns3:cad>
          </ns3:TrackPointExtension>
        </extensions>
      </trkpt>
      <trkpt lat="52.22048311494290828704833984375" lon="1.62380975671112537384033203125">
        <ele>-32.200000762939453125</ele>
        <time>2025-09-07T08:03:44.000Z</time>
        <extensions>
          <ns3:TrackPointExtension>
            <ns3:hr>153</ns3:hr>
            <ns3:cad>80</ns3:cad>
          </ns3:TrackPointExtension>
        </extensions>
      </trkpt>
      <trkpt lat="52.22050205804407596588134765625" lon="1.62380841560661792755126953125">
        <ele>-32.59999847412109375</ele>
        <time>2025-09-07T08:03:45.000Z</time>
        <extensions>
          <ns3:TrackPointExtension>
            <ns3:hr>153</ns3:hr>
            <ns3:cad>80</ns3:cad>
          </ns3:TrackPointExtension>
        </extensions>
      </trkpt>
      <trkpt lat="52.22063935361802577972412109375" lon="1.62380338646471500396728515625">
        <ele>-33.59999847412109375</ele>
        <time>2025-09-07T08:03:52.000Z</time>
        <extensions>
          <ns3:TrackPointExtension>
            <ns3:hr>152</ns3:hr>
            <ns3:cad>80</ns3:cad>
          </ns3:TrackPointExtension>
        </extensions>
      </trkpt>
      <trkpt lat="52.2206892259418964385986328125" lon="1.62380062043666839599609375">
        <ele>-33.799999237060546875</ele>
        <time>2025-09-07T08:03:55.000Z</time>
        <extensions>
          <ns3:TrackPointExtension>
            <ns3:hr>151</ns3:hr>
            <ns3:cad>80</ns3:cad>
          </ns3:TrackPointExtension>
        </extensions>
      </trkpt>
      <trkpt lat="52.22076617181301116943359375" lon="1.62379802204668521881103515625">
        <ele>-33.799999237060546875</ele>
        <time>2025-09-07T08:03:59.000Z</time>
        <extensions>
          <ns3:TrackPointExtension>
            <ns3:hr>153</ns3:hr>
            <ns3:cad>81</ns3:cad>
          </ns3:TrackPointExtension>
        </extensions>
      </trkpt>
      <trkpt lat="52.22092769108712673187255859375" lon="1.6237930767238140106201171875">
        <ele>-34</ele>
        <time>2025-09-07T08:04:07.000Z</time>
        <extensions>
          <ns3:TrackPointExtension>
            <ns3:hr>154</ns3:hr>
            <ns3:cad>80</ns3:cad>
          </ns3:TrackPointExtension>
        </extensions>
      </trkpt>
      <trkpt lat="52.22104470245540142059326171875" lon="1.623778827488422393798828125">
        <ele>-34</ele>
        <time>2025-09-07T08:04:13.000Z</time>
        <extensions>
          <ns3:TrackPointExtension>
            <ns3:hr>154</ns3:hr>
            <ns3:cad>81</ns3:cad>
          </ns3:TrackPointExtension>
        </extensions>
      </trkpt>
      <trkpt lat="52.22118870355188846588134765625" lon="1.6237944178283214569091796875">
        <ele>-33.799999237060546875</ele>
        <time>2025-09-07T08:04:21.000Z</time>
        <extensions>
          <ns3:TrackPointExtension>
            <ns3:hr>153</ns3:hr>
            <ns3:cad>80</ns3:cad>
          </ns3:TrackPointExtension>
        </extensions>
      </trkpt>
      <trkpt lat="52.22136707045137882232666015625" lon="1.62381981499493122100830078125">
        <ele>-33.799999237060546875</ele>
        <time>2025-09-07T08:04:29.000Z</time>
        <extensions>
          <ns3:TrackPointExtension>
            <ns3:hr>155</ns3:hr>
            <ns3:cad>81</ns3:cad>
          </ns3:TrackPointExtension>
        </extensions>
      </trkpt>
      <trkpt lat="52.22153839655220508575439453125" lon="1.62385334260761737823486328125">
        <ele>-33.799999237060546875</ele>
        <time>2025-09-07T08:04:36.000Z</time>
        <extensions>
          <ns3:TrackPointExtension>
            <ns3:hr>158</ns3:hr>
            <ns3:cad>81</ns3:cad>
          </ns3:TrackPointExtension>
        </extensions>
      </trkpt>
      <trkpt lat="52.22156002186238765716552734375" lon="1.6238621436059474945068359375">
        <ele>-33.799999237060546875</ele>
        <time>2025-09-07T08:04:37.000Z</time>
        <extensions>
          <ns3:TrackPointExtension>
            <ns3:hr>159</ns3:hr>
            <ns3:cad>81</ns3:cad>
          </ns3:TrackPointExtension>
        </extensions>
      </trkpt>
      <trkpt lat="52.22159899771213531494140625" lon="1.62387245334684848785400390625">
        <ele>-33.799999237060546875</ele>
        <time>2025-09-07T08:04:39.000Z</time>
        <extensions>
          <ns3:TrackPointExtension>
            <ns3:hr>156</ns3:hr>
            <ns3:cad>81</ns3:cad>
          </ns3:TrackPointExtension>
        </extensions>
      </trkpt>
      <trkpt lat="52.22170268185436725616455078125" lon="1.62388972006738185882568359375">
        <ele>-34</ele>
        <time>2025-09-07T08:04:44.000Z</time>
        <extensions>
          <ns3:TrackPointExtension>
            <ns3:hr>157</ns3:hr>
            <ns3:cad>80</ns3:cad>
          </ns3:TrackPointExtension>
        </extensions>
      </trkpt>
      <trkpt lat="52.22174509428441524505615234375" lon="1.62390061654150485992431640625">
        <ele>-34</ele>
        <time>2025-09-07T08:04:46.000Z</time>
        <extensions>
          <ns3:TrackPointExtension>
            <ns3:hr>154</ns3:hr>
            <ns3:cad>80</ns3:cad>
          </ns3:TrackPointExtension>
        </extensions>
      </trkpt>
      <trkpt lat="52.2218093834817409515380859375" lon="1.62390396930277347564697265625">
        <ele>-34</ele>
        <time>2025-09-07T08:04:49.000Z</time>
        <extensions>
          <ns3:TrackPointExtension>
            <ns3:hr>156</ns3:hr>
            <ns3:cad>80</ns3:cad>
          </ns3:TrackPointExtension>
        </extensions>
      </trkpt>
      <trkpt lat="52.22187518142163753509521484375" lon="1.62390522658824920654296875">
        <ele>-33.799999237060546875</ele>
        <time>2025-09-07T08:04:52.000Z</time>
        <extensions>
          <ns3:TrackPointExtension>
            <ns3:hr>157</ns3:hr>
            <ns3:cad>81</ns3:cad>
          </ns3:TrackPointExtension>
        </extensions>
      </trkpt>
      <trkpt lat="52.22207282669842243194580078125" lon="1.6239033825695514678955078125">
        <ele>-33.40000152587890625</ele>
        <time>2025-09-07T08:05:01.000Z</time>
        <extensions>
          <ns3:TrackPointExtension>
            <ns3:hr>159</ns3:hr>
            <ns3:cad>81</ns3:cad>
          </ns3:TrackPointExtension>
        </extensions>
      </trkpt>
      <trkpt lat="52.2220910154283046722412109375" lon="1.6239003650844097137451171875">
        <ele>-33.200000762939453125</ele>
        <time>2025-09-07T08:05:02.000Z</time>
        <extensions>
          <ns3:TrackPointExtension>
            <ns3:hr>159</ns3:hr>
            <ns3:cad>81</ns3:cad>
          </ns3:TrackPointExtension>
        </extensions>
      </trkpt>
      <trkpt lat="52.2222398780286312103271484375" lon="1.6239010356366634368896484375">
        <ele>-33.200000762939453125</ele>
        <time>2025-09-07T08:05:09.000Z</time>
        <extensions>
          <ns3:TrackPointExtension>
            <ns3:hr>158</ns3:hr>
            <ns3:cad>80</ns3:cad>
          </ns3:TrackPointExtension>
        </extensions>
      </trkpt>
      <trkpt lat="52.22238765098154544830322265625" lon="1.62391327321529388427734375">
        <ele>-33.200000762939453125</ele>
        <time>2025-09-07T08:05:16.000Z</time>
        <extensions>
          <ns3:TrackPointExtension>
            <ns3:hr>158</ns3:hr>
            <ns3:cad>81</ns3:cad>
          </ns3:TrackPointExtension>
        </extensions>
      </trkpt>
      <trkpt lat="52.2225339151918888092041015625" lon="1.62394185550510883331298828125">
        <ele>-33.200000762939453125</ele>
        <time>2025-09-07T08:05:23.000Z</time>
        <extensions>
          <ns3:TrackPointExtension>
            <ns3:hr>160</ns3:hr>
            <ns3:cad>80</ns3:cad>
          </ns3:TrackPointExtension>
        </extensions>
      </trkpt>
      <trkpt lat="52.222676575183868408203125" lon="1.62396532483398914337158203125">
        <ele>-33.40000152587890625</ele>
        <time>2025-09-07T08:05:30.000Z</time>
        <extensions>
          <ns3:TrackPointExtension>
            <ns3:hr>161</ns3:hr>
            <ns3:cad>80</ns3:cad>
          </ns3:TrackPointExtension>
        </extensions>
      </trkpt>
      <trkpt lat="52.222813032567501068115234375" lon="1.62400849163532257080078125">
        <ele>-33.40000152587890625</ele>
        <time>2025-09-07T08:05:37.000Z</time>
        <extensions>
          <ns3:TrackPointExtension>
            <ns3:hr>163</ns3:hr>
            <ns3:cad>79</ns3:cad>
          </ns3:TrackPointExtension>
        </extensions>
      </trkpt>
      <trkpt lat="52.22296466119587421417236328125" lon="1.62403170950710773468017578125">
        <ele>-33.59999847412109375</ele>
        <time>2025-09-07T08:05:45.000Z</time>
        <extensions>
          <ns3:TrackPointExtension>
            <ns3:hr>163</ns3:hr>
            <ns3:cad>80</ns3:cad>
          </ns3:TrackPointExtension>
        </extensions>
      </trkpt>
      <trkpt lat="52.22309927456080913543701171875" lon="1.62398259155452251434326171875">
        <ele>-33.40000152587890625</ele>
        <time>2025-09-07T08:05:52.000Z</time>
        <extensions>
          <ns3:TrackPointExtension>
            <ns3:hr>163</ns3:hr>
            <ns3:cad>79</ns3:cad>
          </ns3:TrackPointExtension>
        </extensions>
      </trkpt>
      <trkpt lat="52.2231327183544635772705078125" lon="1.62381805479526519775390625">
        <ele>-33.200000762939453125</ele>
        <time>2025-09-07T08:05:57.000Z</time>
        <extensions>
          <ns3:TrackPointExtension>
            <ns3:hr>162</ns3:hr>
            <ns3:cad>79</ns3:cad>
          </ns3:TrackPointExtension>
        </extensions>
      </trkpt>
      <trkpt lat="52.22312928177416324615478515625" lon="1.62366441451013088226318359375">
        <ele>-33.200000762939453125</ele>
        <time>2025-09-07T08:06:03.000Z</time>
        <extensions>
          <ns3:TrackPointExtension>
            <ns3:hr>162</ns3:hr>
            <ns3:cad>62</ns3:cad>
          </ns3:TrackPointExtension>
        </extensions>
      </trkpt>
      <trkpt lat="52.2231297008693218231201171875" lon="1.623594760894775390625">
        <ele>-33.59999847412109375</ele>
        <time>2025-09-07T08:06:09.000Z</time>
        <extensions>
          <ns3:TrackPointExtension>
            <ns3:hr>161</ns3:hr>
            <ns3:cad>0</ns3:cad>
          </ns3:TrackPointExtension>
        </extensions>
      </trkpt>
      <trkpt lat="52.2231338918209075927734375" lon="1.623589061200618743896484375">
        <ele>-34.200000762939453125</ele>
        <time>2025-09-07T08:06:13.000Z</time>
        <extensions>
          <ns3:TrackPointExtension>
            <ns3:hr>157</ns3:hr>
            <ns3:cad>0</ns3:cad>
          </ns3:TrackPointExtension>
        </extensions>
      </trkpt>
      <trkpt lat="52.22313950769603252410888671875" lon="1.6235875524580478668212890625">
        <ele>-34.200000762939453125</ele>
        <time>2025-09-07T08:06:15.000Z</time>
        <extensions>
          <ns3:TrackPointExtension>
            <ns3:hr>154</ns3:hr>
            <ns3:cad>0</ns3:cad>
          </ns3:TrackPointExtension>
        </extensions>
      </trkpt>
      <trkpt lat="52.22317605279386043548583984375" lon="1.6235748119652271270751953125">
        <ele>-34.200000762939453125</ele>
        <time>2025-09-07T08:06:18.000Z</time>
        <extensions>
          <ns3:TrackPointExtension>
            <ns3:hr>151</ns3:hr>
            <ns3:cad>0</ns3:cad>
          </ns3:TrackPointExtension>
        </extensions>
      </trkpt>
      <trkpt lat="52.2232215665280818939208984375" lon="1.62358126603066921234130859375">
        <ele>-34.40000152587890625</ele>
        <time>2025-09-07T08:06:21.000Z</time>
        <extensions>
          <ns3:TrackPointExtension>
            <ns3:hr>148</ns3:hr>
            <ns3:cad>76</ns3:cad>
          </ns3:TrackPointExtension>
        </extensions>
      </trkpt>
      <trkpt lat="52.22330898977816104888916015625" lon="1.6235852055251598358154296875">
        <ele>-34.40000152587890625</ele>
        <time>2025-09-07T08:06:26.000Z</time>
        <extensions>
          <ns3:TrackPointExtension>
            <ns3:hr>147</ns3:hr>
            <ns3:cad>58</ns3:cad>
          </ns3:TrackPointExtension>
        </extensions>
      </trkpt>
      <trkpt lat="52.2234718501567840576171875" lon="1.62359685637056827545166015625">
        <ele>-34.40000152587890625</ele>
        <time>2025-09-07T08:06:34.000Z</time>
        <extensions>
          <ns3:TrackPointExtension>
            <ns3:hr>145</ns3:hr>
            <ns3:cad>61</ns3:cad>
          </ns3:TrackPointExtension>
        </extensions>
      </trkpt>
      <trkpt lat="52.22353798337280750274658203125" lon="1.62361613474786281585693359375">
        <ele>-34.799999237060546875</ele>
        <time>2025-09-07T08:06:37.000Z</time>
        <extensions>
          <ns3:TrackPointExtension>
            <ns3:hr>145</ns3:hr>
            <ns3:cad>77</ns3:cad>
          </ns3:TrackPointExtension>
        </extensions>
      </trkpt>
      <trkpt lat="52.22362582571804523468017578125" lon="1.62363323383033275604248046875">
        <ele>-41.200000762939453125</ele>
        <time>2025-09-07T08:06:41.000Z</time>
        <extensions>
          <ns3:TrackPointExtension>
            <ns3:hr>143</ns3:hr>
            <ns3:cad>78</ns3:cad>
          </ns3:TrackPointExtension>
        </extensions>
      </trkpt>
      <trkpt lat="52.2236473672091960906982421875" lon="1.6236385144293308258056640625">
        <ele>-51.40000152587890625</ele>
        <time>2025-09-07T08:06:42.000Z</time>
        <extensions>
          <ns3:TrackPointExtension>
            <ns3:hr>148</ns3:hr>
            <ns3:cad>78</ns3:cad>
          </ns3:TrackPointExtension>
        </extensions>
      </trkpt>
      <trkpt lat="52.2236691601574420928955078125" lon="1.62364530377089977264404296875">
        <ele>-61</ele>
        <time>2025-09-07T08:06:43.000Z</time>
        <extensions>
          <ns3:TrackPointExtension>
            <ns3:hr>148</ns3:hr>
            <ns3:cad>79</ns3:cad>
          </ns3:TrackPointExtension>
        </extensions>
      </trkpt>
      <trkpt lat="52.22369204275310039520263671875" lon="1.6236536018550395965576171875">
        <ele>-69.40000152587890625</ele>
        <time>2025-09-07T08:06:44.000Z</time>
        <extensions>
          <ns3:TrackPointExtension>
            <ns3:hr>150</ns3:hr>
            <ns3:cad>79</ns3:cad>
          </ns3:TrackPointExtension>
        </extensions>
      </trkpt>
      <trkpt lat="52.22371165640652179718017578125" lon="1.6236591339111328125">
        <ele>-77.40000152587890625</ele>
        <time>2025-09-07T08:06:45.000Z</time>
        <extensions>
          <ns3:TrackPointExtension>
            <ns3:hr>151</ns3:hr>
            <ns3:cad>80</ns3:cad>
          </ns3:TrackPointExtension>
        </extensions>
      </trkpt>
      <trkpt lat="52.22372976131737232208251953125" lon="1.623660810291767120361328125">
        <ele>-83.40000152587890625</ele>
        <time>2025-09-07T08:06:46.000Z</time>
        <extensions>
          <ns3:TrackPointExtension>
            <ns3:hr>151</ns3:hr>
            <ns3:cad>80</ns3:cad>
          </ns3:TrackPointExtension>
        </extensions>
      </trkpt>
      <trkpt lat="52.22374744713306427001953125" lon="1.6236631572246551513671875">
        <ele>-90.40000152587890625</ele>
        <time>2025-09-07T08:06:47.000Z</time>
        <extensions>
          <ns3:TrackPointExtension>
            <ns3:hr>148</ns3:hr>
            <ns3:cad>81</ns3:cad>
          </ns3:TrackPointExtension>
        </extensions>
      </trkpt>
      <trkpt lat="52.22376312129199504852294921875" lon="1.62366743199527263641357421875">
        <ele>-94.8000030517578125</ele>
        <time>2025-09-07T08:06:48.000Z</time>
        <extensions>
          <ns3:TrackPointExtension>
            <ns3:hr>147</ns3:hr>
            <ns3:cad>81</ns3:cad>
          </ns3:TrackPointExtension>
        </extensions>
      </trkpt>
      <trkpt lat="52.22378055565059185028076171875" lon="1.6236737184226512908935546875">
        <ele>-99.40000152587890625</ele>
        <time>2025-09-07T08:06:49.000Z</time>
        <extensions>
          <ns3:TrackPointExtension>
            <ns3:hr>147</ns3:hr>
            <ns3:cad>81</ns3:cad>
          </ns3:TrackPointExtension>
        </extensions>
      </trkpt>
      <trkpt lat="52.22379572689533233642578125" lon="1.6236792504787445068359375">
        <ele>-103</ele>
        <time>2025-09-07T08:06:50.000Z</time>
        <extensions>
          <ns3:TrackPointExtension>
            <ns3:hr>146</ns3:hr>
            <ns3:cad>80</ns3:cad>
          </ns3:TrackPointExtension>
        </extensions>
      </trkpt>
      <trkpt lat="52.22381223924458026885986328125" lon="1.62368469871580600738525390625">
        <ele>-106.1999969482421875</ele>
        <time>2025-09-07T08:06:51.000Z</time>
        <extensions>
          <ns3:TrackPointExtension>
            <ns3:hr>146</ns3:hr>
            <ns3:cad>80</ns3:cad>
          </ns3:TrackPointExtension>
        </extensions>
      </trkpt>
      <trkpt lat="52.22383051179349422454833984375" lon="1.62369391880929470062255859375">
        <ele>-109.1999969482421875</ele>
        <time>2025-09-07T08:06:52.000Z</time>
        <extensions>
          <ns3:TrackPointExtension>
            <ns3:hr>146</ns3:hr>
            <ns3:cad>80</ns3:cad>
          </ns3:TrackPointExtension>
        </extensions>
      </trkpt>
      <trkpt lat="52.22385079599916934967041015625" lon="1.62370397709310054779052734375">
        <ele>-111.8000030517578125</ele>
        <time>2025-09-07T08:06:53.000Z</time>
        <extensions>
          <ns3:TrackPointExtension>
            <ns3:hr>145</ns3:hr>
            <ns3:cad>81</ns3:cad>
          </ns3:TrackPointExtension>
        </extensions>
      </trkpt>
      <trkpt lat="52.22386923618614673614501953125" lon="1.62371219135820865631103515625">
        <ele>-114.59999847412109375</ele>
        <time>2025-09-07T08:06:54.000Z</time>
        <extensions>
          <ns3:TrackPointExtension>
            <ns3:hr>145</ns3:hr>
            <ns3:cad>81</ns3:cad>
          </ns3:TrackPointExtension>
        </extensions>
      </trkpt>
      <trkpt lat="52.223886586725711822509765625" lon="1.6237162984907627105712890625">
        <ele>-116.59999847412109375</ele>
        <time>2025-09-07T08:06:55.000Z</time>
        <extensions>
          <ns3:TrackPointExtension>
            <ns3:hr>145</ns3:hr>
            <ns3:cad>81</ns3:cad>
          </ns3:TrackPointExtension>
        </extensions>
      </trkpt>
      <trkpt lat="52.223902679979801177978515625" lon="1.62371671758592128753662109375">
        <ele>-118.40000152587890625</ele>
        <time>2025-09-07T08:06:56.000Z</time>
        <extensions>
          <ns3:TrackPointExtension>
            <ns3:hr>145</ns3:hr>
            <ns3:cad>81</ns3:cad>
          </ns3:TrackPointExtension>
        </extensions>
      </trkpt>
      <trkpt lat="52.223918773233890533447265625" lon="1.6237193159759044647216796875">
        <ele>-121.8000030517578125</ele>
        <time>2025-09-07T08:06:57.000Z</time>
        <extensions>
          <ns3:TrackPointExtension>
            <ns3:hr>145</ns3:hr>
            <ns3:cad>81</ns3:cad>
          </ns3:TrackPointExtension>
        </extensions>
      </trkpt>
      <trkpt lat="52.2239353694021701812744140625" lon="1.6237236745655536651611328125">
        <ele>-123.8000030517578125</ele>
        <time>2025-09-07T08:06:58.000Z</time>
        <extensions>
          <ns3:TrackPointExtension>
            <ns3:hr>146</ns3:hr>
            <ns3:cad>81</ns3:cad>
          </ns3:TrackPointExtension>
        </extensions>
      </trkpt>
      <trkpt lat="52.2239517979323863983154296875" lon="1.6237297095358371734619140625">
        <ele>-125</ele>
        <time>2025-09-07T08:06:59.000Z</time>
        <extensions>
          <ns3:TrackPointExtension>
            <ns3:hr>147</ns3:hr>
            <ns3:cad>81</ns3:cad>
          </ns3:TrackPointExtension>
        </extensions>
      </trkpt>
      <trkpt lat="52.223969064652919769287109375" lon="1.6237342357635498046875">
        <ele>-126.40000152587890625</ele>
        <time>2025-09-07T08:07:00.000Z</time>
        <extensions>
          <ns3:TrackPointExtension>
            <ns3:hr>148</ns3:hr>
            <ns3:cad>81</ns3:cad>
          </ns3:TrackPointExtension>
        </extensions>
      </trkpt>
      <trkpt lat="52.22398750483989715576171875" lon="1.62373783998191356658935546875">
        <ele>-128.600006103515625</ele>
        <time>2025-09-07T08:07:01.000Z</time>
        <extensions>
          <ns3:TrackPointExtension>
            <ns3:hr>149</ns3:hr>
            <ns3:cad>80</ns3:cad>
          </ns3:TrackPointExtension>
        </extensions>
      </trkpt>
      <trkpt lat="52.22400602884590625762939453125" lon="1.6237414442002773284912109375">
        <ele>-130.8000030517578125</ele>
        <time>2025-09-07T08:07:02.000Z</time>
        <extensions>
          <ns3:TrackPointExtension>
            <ns3:hr>149</ns3:hr>
            <ns3:cad>80</ns3:cad>
          </ns3:TrackPointExtension>
        </extensions>
      </trkpt>
      <trkpt lat="52.224025391042232513427734375" lon="1.62374353967607021331787109375">
        <ele>-132</ele>
        <time>2025-09-07T08:07:03.000Z</time>
        <extensions>
          <ns3:TrackPointExtension>
            <ns3:hr>150</ns3:hr>
            <ns3:cad>81</ns3:cad>
          </ns3:TrackPointExtension>
        </extensions>
      </trkpt>
      <trkpt lat="52.224065959453582763671875" lon="1.62374638952314853668212890625">
        <ele>-134.8000030517578125</ele>
        <time>2025-09-07T08:07:05.000Z</time>
        <extensions>
          <ns3:TrackPointExtension>
            <ns3:hr>151</ns3:hr>
            <ns3:cad>80</ns3:cad>
          </ns3:TrackPointExtension>
        </extensions>
      </trkpt>
      <trkpt lat="52.22408615984022617340087890625" lon="1.62374706007540225982666015625">
        <ele>-135.8000030517578125</ele>
        <time>2025-09-07T08:07:06.000Z</time>
        <extensions>
          <ns3:TrackPointExtension>
            <ns3:hr>151</ns3:hr>
            <ns3:cad>80</ns3:cad>
          </ns3:TrackPointExtension>
        </extensions>
      </trkpt>
      <trkpt lat="52.22410510294139385223388671875" lon="1.62374856881797313690185546875">
        <ele>-137</ele>
        <time>2025-09-07T08:07:07.000Z</time>
        <extensions>
          <ns3:TrackPointExtension>
            <ns3:hr>152</ns3:hr>
            <ns3:cad>81</ns3:cad>
          </ns3:TrackPointExtension>
        </extensions>
      </trkpt>
      <trkpt lat="52.2241248004138469696044921875" lon="1.62375225685536861419677734375">
        <ele>-138.1999969482421875</ele>
        <time>2025-09-07T08:07:08.000Z</time>
        <extensions>
          <ns3:TrackPointExtension>
            <ns3:hr>152</ns3:hr>
            <ns3:cad>81</ns3:cad>
          </ns3:TrackPointExtension>
        </extensions>
      </trkpt>
      <trkpt lat="52.224153466522693634033203125" lon="1.62375745363533496856689453125">
        <ele>-139.600006103515625</ele>
        <time>2025-09-07T08:07:09.000Z</time>
        <extensions>
          <ns3:TrackPointExtension>
            <ns3:hr>152</ns3:hr>
            <ns3:cad>81</ns3:cad>
          </ns3:TrackPointExtension>
        </extensions>
      </trkpt>
      <trkpt lat="52.224224545061588287353515625" lon="1.6237756423652172088623046875">
        <ele>-142.399993896484375</ele>
        <time>2025-09-07T08:07:12.000Z</time>
        <extensions>
          <ns3:TrackPointExtension>
            <ns3:hr>152</ns3:hr>
            <ns3:cad>81</ns3:cad>
          </ns3:TrackPointExtension>
        </extensions>
      </trkpt>
      <trkpt lat="52.2242470085620880126953125" lon="1.62378377281129360198974609375">
        <ele>-143.8000030517578125</ele>
        <time>2025-09-07T08:07:13.000Z</time>
        <extensions>
          <ns3:TrackPointExtension>
            <ns3:hr>151</ns3:hr>
            <ns3:cad>81</ns3:cad>
          </ns3:TrackPointExtension>
        </extensions>
      </trkpt>
      <trkpt lat="52.2242666222155094146728515625" lon="1.623785533010959625244140625">
        <ele>-144.8000030517578125</ele>
        <time>2025-09-07T08:07:14.000Z</time>
        <extensions>
          <ns3:TrackPointExtension>
            <ns3:hr>151</ns3:hr>
            <ns3:cad>81</ns3:cad>
          </ns3:TrackPointExtension>
        </extensions>
      </trkpt>
      <trkpt lat="52.2242877446115016937255859375" lon="1.62378595210611820220947265625">
        <ele>-146</ele>
        <time>2025-09-07T08:07:15.000Z</time>
        <extensions>
          <ns3:TrackPointExtension>
            <ns3:hr>150</ns3:hr>
            <ns3:cad>81</ns3:cad>
          </ns3:TrackPointExtension>
        </extensions>
      </trkpt>
      <trkpt lat="52.2243065200746059417724609375" lon="1.623790226876735687255859375">
        <ele>-147.8000030517578125</ele>
        <time>2025-09-07T08:07:16.000Z</time>
        <extensions>
          <ns3:TrackPointExtension>
            <ns3:hr>150</ns3:hr>
            <ns3:cad>81</ns3:cad>
          </ns3:TrackPointExtension>
        </extensions>
      </trkpt>
      <trkpt lat="52.224323786795139312744140625" lon="1.62379550747573375701904296875">
        <ele>-149.600006103515625</ele>
        <time>2025-09-07T08:07:17.000Z</time>
        <extensions>
          <ns3:TrackPointExtension>
            <ns3:hr>150</ns3:hr>
            <ns3:cad>81</ns3:cad>
          </ns3:TrackPointExtension>
        </extensions>
      </trkpt>
      <trkpt lat="52.2243440710008144378662109375" lon="1.623800285160541534423828125">
        <ele>-151.399993896484375</ele>
        <time>2025-09-07T08:07:18.000Z</time>
        <extensions>
          <ns3:TrackPointExtension>
            <ns3:hr>150</ns3:hr>
            <ns3:cad>81</ns3:cad>
          </ns3:TrackPointExtension>
        </extensions>
      </trkpt>
      <trkpt lat="52.22436360083520412445068359375" lon="1.6238044761121273040771484375">
        <ele>-153.1999969482421875</ele>
        <time>2025-09-07T08:07:19.000Z</time>
        <extensions>
          <ns3:TrackPointExtension>
            <ns3:hr>151</ns3:hr>
            <ns3:cad>81</ns3:cad>
          </ns3:TrackPointExtension>
        </extensions>
      </trkpt>
      <trkpt lat="52.22438287921249866485595703125" lon="1.623806320130825042724609375">
        <ele>-154.600006103515625</ele>
        <time>2025-09-07T08:07:20.000Z</time>
        <extensions>
          <ns3:TrackPointExtension>
            <ns3:hr>151</ns3:hr>
            <ns3:cad>80</ns3:cad>
          </ns3:TrackPointExtension>
        </extensions>
      </trkpt>
      <trkpt lat="52.2244027443230152130126953125" lon="1.623809002339839935302734375">
        <ele>-155.600006103515625</ele>
        <time>2025-09-07T08:07:21.000Z</time>
        <extensions>
          <ns3:TrackPointExtension>
            <ns3:hr>152</ns3:hr>
            <ns3:cad>80</ns3:cad>
          </ns3:TrackPointExtension>
        </extensions>
      </trkpt>
      <trkpt lat="52.22444021143019199371337890625" lon="1.623815707862377166748046875">
        <ele>-157.1999969482421875</ele>
        <time>2025-09-07T08:07:23.000Z</time>
        <extensions>
          <ns3:TrackPointExtension>
            <ns3:hr>152</ns3:hr>
            <ns3:cad>81</ns3:cad>
          </ns3:TrackPointExtension>
        </extensions>
      </trkpt>
      <trkpt lat="52.2244597412645816802978515625" lon="1.6238168813288211822509765625">
        <ele>-158.8000030517578125</ele>
        <time>2025-09-07T08:07:24.000Z</time>
        <extensions>
          <ns3:TrackPointExtension>
            <ns3:hr>153</ns3:hr>
            <ns3:cad>81</ns3:cad>
          </ns3:TrackPointExtension>
        </extensions>
      </trkpt>
      <trkpt lat="52.22448145039379596710205078125" lon="1.62382031790912151336669921875">
        <ele>-160</ele>
        <time>2025-09-07T08:07:25.000Z</time>
        <extensions>
          <ns3:TrackPointExtension>
            <ns3:hr>153</ns3:hr>
            <ns3:cad>81</ns3:cad>
          </ns3:TrackPointExtension>
        </extensions>
      </trkpt>
      <trkpt lat="52.224528305232524871826171875" lon="1.62382601760327816009521484375">
        <ele>-162</ele>
        <time>2025-09-07T08:07:27.000Z</time>
        <extensions>
          <ns3:TrackPointExtension>
            <ns3:hr>154</ns3:hr>
            <ns3:cad>80</ns3:cad>
          </ns3:TrackPointExtension>
        </extensions>
      </trkpt>
      <trkpt lat="52.2245700471103191375732421875" lon="1.62383238784968852996826171875">
        <ele>-163.399993896484375</ele>
        <time>2025-09-07T08:07:29.000Z</time>
        <extensions>
          <ns3:TrackPointExtension>
            <ns3:hr>154</ns3:hr>
            <ns3:cad>80</ns3:cad>
          </ns3:TrackPointExtension>
        </extensions>
      </trkpt>
      <trkpt lat="52.2246116213500499725341796875" lon="1.6238467209041118621826171875">
        <ele>-165.8000030517578125</ele>
        <time>2025-09-07T08:07:31.000Z</time>
        <extensions>
          <ns3:TrackPointExtension>
            <ns3:hr>155</ns3:hr>
            <ns3:cad>82</ns3:cad>
          </ns3:TrackPointExtension>
        </extensions>
      </trkpt>
      <trkpt lat="52.2246305644512176513671875" lon="1.6238527558743953704833984375">
        <ele>-166.8000030517578125</ele>
        <time>2025-09-07T08:07:32.000Z</time>
        <extensions>
          <ns3:TrackPointExtension>
            <ns3:hr>156</ns3:hr>
            <ns3:cad>82</ns3:cad>
          </ns3:TrackPointExtension>
        </extensions>
      </trkpt>
      <trkpt lat="52.22465026192367076873779296875" lon="1.62386876530945301055908203125">
        <ele>-167.1999969482421875</ele>
        <time>2025-09-07T08:07:33.000Z</time>
        <extensions>
          <ns3:TrackPointExtension>
            <ns3:hr>157</ns3:hr>
            <ns3:cad>82</ns3:cad>
          </ns3:TrackPointExtension>
        </extensions>
      </trkpt>
      <trkpt lat="52.2247088514268398284912109375" lon="1.62388871423900127410888671875">
        <ele>-168.399993896484375</ele>
        <time>2025-09-07T08:07:36.000Z</time>
        <extensions>
          <ns3:TrackPointExtension>
            <ns3:hr>158</ns3:hr>
            <ns3:cad>81</ns3:cad>
          </ns3:TrackPointExtension>
        </extensions>
      </trkpt>
      <trkpt lat="52.224727459251880645751953125" lon="1.6238893009722232818603515625">
        <ele>-169.600006103515625</ele>
        <time>2025-09-07T08:07:37.000Z</time>
        <extensions>
          <ns3:TrackPointExtension>
            <ns3:hr>158</ns3:hr>
            <ns3:cad>80</ns3:cad>
          </ns3:TrackPointExtension>
        </extensions>
      </trkpt>
      <trkpt lat="52.22477297298610210418701171875" lon="1.62388653494417667388916015625">
        <ele>-170.600006103515625</ele>
        <time>2025-09-07T08:07:39.000Z</time>
        <extensions>
          <ns3:TrackPointExtension>
            <ns3:hr>158</ns3:hr>
            <ns3:cad>80</ns3:cad>
          </ns3:TrackPointExtension>
        </extensions>
      </trkpt>
      <trkpt lat="52.2248131223022937774658203125" lon="1.62388242781162261962890625">
        <ele>-171.1999969482421875</ele>
        <time>2025-09-07T08:07:41.000Z</time>
        <extensions>
          <ns3:TrackPointExtension>
            <ns3:hr>158</ns3:hr>
            <ns3:cad>80</ns3:cad>
          </ns3:TrackPointExtension>
        </extensions>
      </trkpt>
      <trkpt lat="52.22483147867023944854736328125" lon="1.623883433640003204345703125">
        <ele>-172</ele>
        <time>2025-09-07T08:07:42.000Z</time>
        <extensions>
          <ns3:TrackPointExtension>
            <ns3:hr>160</ns3:hr>
            <ns3:cad>80</ns3:cad>
          </ns3:TrackPointExtension>
        </extensions>
      </trkpt>
      <trkpt lat="52.22487238235771656036376953125" lon="1.62389189936220645904541015625">
        <ele>-174.399993896484375</ele>
        <time>2025-09-07T08:07:44.000Z</time>
        <extensions>
          <ns3:TrackPointExtension>
            <ns3:hr>159</ns3:hr>
            <ns3:cad>80</ns3:cad>
          </ns3:TrackPointExtension>
        </extensions>
      </trkpt>
      <trkpt lat="52.224893756210803985595703125" lon="1.623897850513458251953125">
        <ele>-175.600006103515625</ele>
        <time>2025-09-07T08:07:45.000Z</time>
        <extensions>
          <ns3:TrackPointExtension>
            <ns3:hr>158</ns3:hr>
            <ns3:cad>80</ns3:cad>
          </ns3:TrackPointExtension>
        </extensions>
      </trkpt>
      <trkpt lat="52.22494128160178661346435546875" lon="1.62391385994851589202880859375">
        <ele>-176.600006103515625</ele>
        <time>2025-09-07T08:07:47.000Z</time>
        <extensions>
          <ns3:TrackPointExtension>
            <ns3:hr>158</ns3:hr>
            <ns3:cad>78</ns3:cad>
          </ns3:TrackPointExtension>
        </extensions>
      </trkpt>
      <trkpt lat="52.2249864600598812103271484375" lon="1.62392676807940006256103515625">
        <ele>-177</ele>
        <time>2025-09-07T08:07:49.000Z</time>
        <extensions>
          <ns3:TrackPointExtension>
            <ns3:hr>159</ns3:hr>
            <ns3:cad>79</ns3:cad>
          </ns3:TrackPointExtension>
        </extensions>
      </trkpt>
      <trkpt lat="52.2250085882842540740966796875" lon="1.62393146194517612457275390625">
        <ele>-177.600006103515625</ele>
        <time>2025-09-07T08:07:50.000Z</time>
        <extensions>
          <ns3:TrackPointExtension>
            <ns3:hr>159</ns3:hr>
            <ns3:cad>79</ns3:cad>
          </ns3:TrackPointExtension>
        </extensions>
      </trkpt>
      <trkpt lat="52.22505242563784122467041015625" lon="1.623949147760868072509765625">
        <ele>-179.1999969482421875</ele>
        <time>2025-09-07T08:07:52.000Z</time>
        <extensions>
          <ns3:TrackPointExtension>
            <ns3:hr>158</ns3:hr>
            <ns3:cad>80</ns3:cad>
          </ns3:TrackPointExtension>
        </extensions>
      </trkpt>
      <trkpt lat="52.22509584389626979827880859375" lon="1.62395744584500789642333984375">
        <ele>-180.600006103515625</ele>
        <time>2025-09-07T08:07:54.000Z</time>
        <extensions>
          <ns3:TrackPointExtension>
            <ns3:hr>159</ns3:hr>
            <ns3:cad>80</ns3:cad>
          </ns3:TrackPointExtension>
        </extensions>
      </trkpt>
      <trkpt lat="52.22513959743082523345947265625" lon="1.6239600442349910736083984375">
        <ele>-182</ele>
        <time>2025-09-07T08:07:56.000Z</time>
        <extensions>
          <ns3:TrackPointExtension>
            <ns3:hr>159</ns3:hr>
            <ns3:cad>81</ns3:cad>
          </ns3:TrackPointExtension>
        </extensions>
      </trkpt>
      <trkpt lat="52.22517949528992176055908203125" lon="1.62396146915853023529052734375">
        <ele>-183</ele>
        <time>2025-09-07T08:07:58.000Z</time>
        <extensions>
          <ns3:TrackPointExtension>
            <ns3:hr>160</ns3:hr>
            <ns3:cad>81</ns3:cad>
          </ns3:TrackPointExtension>
        </extensions>
      </trkpt>
      <trkpt lat="52.22520598210394382476806640625" lon="1.62396498955786228179931640625">
        <ele>-184.1999969482421875</ele>
        <time>2025-09-07T08:07:59.000Z</time>
        <extensions>
          <ns3:TrackPointExtension>
            <ns3:hr>160</ns3:hr>
            <ns3:cad>81</ns3:cad>
          </ns3:TrackPointExtension>
        </extensions>
      </trkpt>
      <trkpt lat="52.22522442229092121124267578125" lon="1.6239647381007671356201171875">
        <ele>-185.399993896484375</ele>
        <time>2025-09-07T08:08:00.000Z</time>
        <extensions>
          <ns3:TrackPointExtension>
            <ns3:hr>161</ns3:hr>
            <ns3:cad>81</ns3:cad>
          </ns3:TrackPointExtension>
        </extensions>
      </trkpt>
      <trkpt lat="52.2252664156258106231689453125" lon="1.6239670850336551666259765625">
        <ele>-187</ele>
        <time>2025-09-07T08:08:02.000Z</time>
        <extensions>
          <ns3:TrackPointExtension>
            <ns3:hr>161</ns3:hr>
            <ns3:cad>81</ns3:cad>
          </ns3:TrackPointExtension>
        </extensions>
      </trkpt>
      <trkpt lat="52.22528544254601001739501953125" lon="1.62396884523332118988037109375">
        <ele>-188</ele>
        <time>2025-09-07T08:08:03.000Z</time>
        <extensions>
          <ns3:TrackPointExtension>
            <ns3:hr>160</ns3:hr>
            <ns3:cad>81</ns3:cad>
          </ns3:TrackPointExtension>
        </extensions>
      </trkpt>
      <trkpt lat="52.225305140018463134765625" lon="1.623973958194255828857421875">
        <ele>-188.8000030517578125</ele>
        <time>2025-09-07T08:08:04.000Z</time>
        <extensions>
          <ns3:TrackPointExtension>
            <ns3:hr>160</ns3:hr>
            <ns3:cad>81</ns3:cad>
          </ns3:TrackPointExtension>
        </extensions>
      </trkpt>
      <trkpt lat="52.22532751969993114471435546875" lon="1.62398091517388820648193359375">
        <ele>-189.1999969482421875</ele>
        <time>2025-09-07T08:08:05.000Z</time>
        <extensions>
          <ns3:TrackPointExtension>
            <ns3:hr>160</ns3:hr>
            <ns3:cad>80</ns3:cad>
          </ns3:TrackPointExtension>
        </extensions>
      </trkpt>
      <trkpt lat="52.225391305983066558837890625" lon="1.62400052882730960845947265625">
        <ele>-190.600006103515625</ele>
        <time>2025-09-07T08:08:08.000Z</time>
        <extensions>
          <ns3:TrackPointExtension>
            <ns3:hr>161</ns3:hr>
            <ns3:cad>81</ns3:cad>
          </ns3:TrackPointExtension>
        </extensions>
      </trkpt>
      <trkpt lat="52.22541578114032745361328125" lon="1.62400438450276851654052734375">
        <ele>-190.8000030517578125</ele>
        <time>2025-09-07T08:08:09.000Z</time>
        <extensions>
          <ns3:TrackPointExtension>
            <ns3:hr>158</ns3:hr>
            <ns3:cad>81</ns3:cad>
          </ns3:TrackPointExtension>
        </extensions>
      </trkpt>
      <trkpt lat="52.22551410086452960968017578125" lon="1.62402852438390254974365234375">
        <ele>-192.1999969482421875</ele>
        <time>2025-09-07T08:08:13.000Z</time>
        <extensions>
          <ns3:TrackPointExtension>
            <ns3:hr>160</ns3:hr>
            <ns3:cad>81</ns3:cad>
          </ns3:TrackPointExtension>
        </extensions>
      </trkpt>
      <trkpt lat="52.2255571000277996063232421875" lon="1.624040342867374420166015625">
        <ele>-193.8000030517578125</ele>
        <time>2025-09-07T08:08:15.000Z</time>
        <extensions>
          <ns3:TrackPointExtension>
            <ns3:hr>161</ns3:hr>
            <ns3:cad>81</ns3:cad>
          </ns3:TrackPointExtension>
        </extensions>
      </trkpt>
      <trkpt lat="52.22559222020208835601806640625" lon="1.624043695628643035888671875">
        <ele>-195.399993896484375</ele>
        <time>2025-09-07T08:08:17.000Z</time>
        <extensions>
          <ns3:TrackPointExtension>
            <ns3:hr>162</ns3:hr>
            <ns3:cad>82</ns3:cad>
          </ns3:TrackPointExtension>
        </extensions>
      </trkpt>
      <trkpt lat="52.22560621798038482666015625" lon="1.6240435279905796051025390625">
        <ele>-196.600006103515625</ele>
        <time>2025-09-07T08:08:18.000Z</time>
        <extensions>
          <ns3:TrackPointExtension>
            <ns3:hr>162</ns3:hr>
            <ns3:cad>81</ns3:cad>
          </ns3:TrackPointExtension>
        </extensions>
      </trkpt>
      <trkpt lat="52.225623317062854766845703125" lon="1.6240448690950870513916015625">
        <ele>-197.600006103515625</ele>
        <time>2025-09-07T08:08:19.000Z</time>
        <extensions>
          <ns3:TrackPointExtension>
            <ns3:hr>162</ns3:hr>
            <ns3:cad>81</ns3:cad>
          </ns3:TrackPointExtension>
        </extensions>
      </trkpt>
      <trkpt lat="52.22566246055066585540771484375" lon="1.62404763512313365936279296875">
        <ele>-198.600006103515625</ele>
        <time>2025-09-07T08:08:21.000Z</time>
        <extensions>
          <ns3:TrackPointExtension>
            <ns3:hr>162</ns3:hr>
            <ns3:cad>81</ns3:cad>
          </ns3:TrackPointExtension>
        </extensions>
      </trkpt>
      <trkpt lat="52.22568333148956298828125" lon="1.6240482218563556671142578125">
        <ele>-199.399993896484375</ele>
        <time>2025-09-07T08:08:22.000Z</time>
        <extensions>
          <ns3:TrackPointExtension>
            <ns3:hr>163</ns3:hr>
            <ns3:cad>81</ns3:cad>
          </ns3:TrackPointExtension>
        </extensions>
      </trkpt>
      <trkpt lat="52.22576673142611980438232421875" lon="1.6240628063678741455078125">
        <ele>-200.600006103515625</ele>
        <time>2025-09-07T08:08:26.000Z</time>
        <extensions>
          <ns3:TrackPointExtension>
            <ns3:hr>162</ns3:hr>
            <ns3:cad>81</ns3:cad>
          </ns3:TrackPointExtension>
        </extensions>
      </trkpt>
      <trkpt lat="52.225804366171360015869140625" lon="1.624068506062030792236328125">
        <ele>-202</ele>
        <time>2025-09-07T08:08:28.000Z</time>
        <extensions>
          <ns3:TrackPointExtension>
            <ns3:hr>163</ns3:hr>
            <ns3:cad>81</ns3:cad>
          </ns3:TrackPointExtension>
        </extensions>
      </trkpt>
      <trkpt lat="52.2258655540645122528076171875" lon="1.62408334203064441680908203125">
        <ele>-202.8000030517578125</ele>
        <time>2025-09-07T08:08:31.000Z</time>
        <extensions>
          <ns3:TrackPointExtension>
            <ns3:hr>162</ns3:hr>
            <ns3:cad>81</ns3:cad>
          </ns3:TrackPointExtension>
        </extensions>
      </trkpt>
      <trkpt lat="52.2259051166474819183349609375" lon="1.62408887408673763275146484375">
        <ele>-203.399993896484375</ele>
        <time>2025-09-07T08:08:33.000Z</time>
        <extensions>
          <ns3:TrackPointExtension>
            <ns3:hr>162</ns3:hr>
            <ns3:cad>80</ns3:cad>
          </ns3:TrackPointExtension>
        </extensions>
      </trkpt>
      <trkpt lat="52.22597678191959857940673828125" lon="1.62411938421428203582763671875">
        <ele>-204.600006103515625</ele>
        <time>2025-09-07T08:08:37.000Z</time>
        <extensions>
          <ns3:TrackPointExtension>
            <ns3:hr>162</ns3:hr>
            <ns3:cad>80</ns3:cad>
          </ns3:TrackPointExtension>
        </extensions>
      </trkpt>
      <trkpt lat="52.2260442562401294708251953125" lon="1.62413028068840503692626953125">
        <ele>-205.399993896484375</ele>
        <time>2025-09-07T08:08:40.000Z</time>
        <extensions>
          <ns3:TrackPointExtension>
            <ns3:hr>162</ns3:hr>
            <ns3:cad>81</ns3:cad>
          </ns3:TrackPointExtension>
        </extensions>
      </trkpt>
      <trkpt lat="52.22608658485114574432373046875" lon="1.62413598038256168365478515625">
        <ele>-205.8000030517578125</ele>
        <time>2025-09-07T08:08:42.000Z</time>
        <extensions>
          <ns3:TrackPointExtension>
            <ns3:hr>162</ns3:hr>
            <ns3:cad>81</ns3:cad>
          </ns3:TrackPointExtension>
        </extensions>
      </trkpt>
      <trkpt lat="52.22615749575197696685791015625" lon="1.62414737977087497711181640625">
        <ele>-207.1999969482421875</ele>
        <time>2025-09-07T08:08:45.000Z</time>
        <extensions>
          <ns3:TrackPointExtension>
            <ns3:hr>162</ns3:hr>
            <ns3:cad>81</ns3:cad>
          </ns3:TrackPointExtension>
        </extensions>
      </trkpt>
      <trkpt lat="52.22620443440973758697509765625" lon="1.62415274418890476226806640625">
        <ele>-207.600006103515625</ele>
        <time>2025-09-07T08:08:47.000Z</time>
        <extensions>
          <ns3:TrackPointExtension>
            <ns3:hr>162</ns3:hr>
            <ns3:cad>81</ns3:cad>
          </ns3:TrackPointExtension>
        </extensions>
      </trkpt>
      <trkpt lat="52.22624835558235645294189453125" lon="1.62416498176753520965576171875">
        <ele>-208.600006103515625</ele>
        <time>2025-09-07T08:08:49.000Z</time>
        <extensions>
          <ns3:TrackPointExtension>
            <ns3:hr>162</ns3:hr>
            <ns3:cad>80</ns3:cad>
          </ns3:TrackPointExtension>
        </extensions>
      </trkpt>
      <trkpt lat="52.22633217461407184600830078125" lon="1.62419465370476245880126953125">
        <ele>-210.600006103515625</ele>
        <time>2025-09-07T08:08:53.000Z</time>
        <extensions>
          <ns3:TrackPointExtension>
            <ns3:hr>162</ns3:hr>
            <ns3:cad>80</ns3:cad>
          </ns3:TrackPointExtension>
        </extensions>
      </trkpt>
      <trkpt lat="52.22637869417667388916015625" lon="1.62420705892145633697509765625">
        <ele>-211.600006103515625</ele>
        <time>2025-09-07T08:08:55.000Z</time>
        <extensions>
          <ns3:TrackPointExtension>
            <ns3:hr>162</ns3:hr>
            <ns3:cad>80</ns3:cad>
          </ns3:TrackPointExtension>
        </extensions>
      </trkpt>
      <trkpt lat="52.22640023566782474517822265625" lon="1.624212004244327545166015625">
        <ele>-211.600006103515625</ele>
        <time>2025-09-07T08:08:56.000Z</time>
        <extensions>
          <ns3:TrackPointExtension>
            <ns3:hr>162</ns3:hr>
            <ns3:cad>80</ns3:cad>
          </ns3:TrackPointExtension>
        </extensions>
      </trkpt>
      <trkpt lat="52.2265260480344295501708984375" lon="1.6242586076259613037109375">
        <ele>-212.8000030517578125</ele>
        <time>2025-09-07T08:09:02.000Z</time>
        <extensions>
          <ns3:TrackPointExtension>
            <ns3:hr>161</ns3:hr>
            <ns3:cad>80</ns3:cad>
          </ns3:TrackPointExtension>
        </extensions>
      </trkpt>
      <trkpt lat="52.22656418569386005401611328125" lon="1.624273695051670074462890625">
        <ele>-213.600006103515625</ele>
        <time>2025-09-07T08:09:04.000Z</time>
        <extensions>
          <ns3:TrackPointExtension>
            <ns3:hr>161</ns3:hr>
            <ns3:cad>80</ns3:cad>
          </ns3:TrackPointExtension>
        </extensions>
      </trkpt>
      <trkpt lat="52.2266933508217334747314453125" lon="1.6243043728172779083251953125">
        <ele>-212.1999969482421875</ele>
        <time>2025-09-07T08:09:11.000Z</time>
        <extensions>
          <ns3:TrackPointExtension>
            <ns3:hr>161</ns3:hr>
            <ns3:cad>81</ns3:cad>
          </ns3:TrackPointExtension>
        </extensions>
      </trkpt>
      <trkpt lat="52.22689795307815074920654296875" lon="1.62435072474181652069091796875">
        <ele>-213.399993896484375</ele>
        <time>2025-09-07T08:09:20.000Z</time>
        <extensions>
          <ns3:TrackPointExtension>
            <ns3:hr>163</ns3:hr>
            <ns3:cad>81</ns3:cad>
          </ns3:TrackPointExtension>
        </extensions>
      </trkpt>
      <trkpt lat="52.22702921368181705474853515625" lon="1.62437151186168193817138671875">
        <ele>-215.1999969482421875</ele>
        <time>2025-09-07T08:09:25.000Z</time>
        <extensions>
          <ns3:TrackPointExtension>
            <ns3:hr>161</ns3:hr>
            <ns3:cad>58</ns3:cad>
          </ns3:TrackPointExtension>
        </extensions>
      </trkpt>
      <trkpt lat="52.22704681567847728729248046875" lon="1.62437603808939456939697265625">
        <ele>-216.1999969482421875</ele>
        <time>2025-09-07T08:09:26.000Z</time>
        <extensions>
          <ns3:TrackPointExtension>
            <ns3:hr>162</ns3:hr>
            <ns3:cad>58</ns3:cad>
          </ns3:TrackPointExtension>
        </extensions>
      </trkpt>
      <trkpt lat="52.22708051092922687530517578125" lon="1.62439330480992794036865234375">
        <ele>-217.600006103515625</ele>
        <time>2025-09-07T08:09:28.000Z</time>
        <extensions>
          <ns3:TrackPointExtension>
            <ns3:hr>161</ns3:hr>
            <ns3:cad>61</ns3:cad>
          </ns3:TrackPointExtension>
        </extensions>
      </trkpt>
      <trkpt lat="52.22709484398365020751953125" lon="1.62439741194248199462890625">
        <ele>-218.600006103515625</ele>
        <time>2025-09-07T08:09:29.000Z</time>
        <extensions>
          <ns3:TrackPointExtension>
            <ns3:hr>161</ns3:hr>
            <ns3:cad>61</ns3:cad>
          </ns3:TrackPointExtension>
        </extensions>
      </trkpt>
      <trkpt lat="52.22710884176194667816162109375" lon="1.624401770532131195068359375">
        <ele>-220</ele>
        <time>2025-09-07T08:09:30.000Z</time>
        <extensions>
          <ns3:TrackPointExtension>
            <ns3:hr>159</ns3:hr>
            <ns3:cad>61</ns3:cad>
          </ns3:TrackPointExtension>
        </extensions>
      </trkpt>
      <trkpt lat="52.2271241806447505950927734375" lon="1.62440587766468524932861328125">
        <ele>-221.1999969482421875</ele>
        <time>2025-09-07T08:09:31.000Z</time>
        <extensions>
          <ns3:TrackPointExtension>
            <ns3:hr>159</ns3:hr>
            <ns3:cad>68</ns3:cad>
          </ns3:TrackPointExtension>
        </extensions>
      </trkpt>
      <trkpt lat="52.22714153118431568145751953125" lon="1.62441208027303218841552734375">
        <ele>-222.8000030517578125</ele>
        <time>2025-09-07T08:09:32.000Z</time>
        <extensions>
          <ns3:TrackPointExtension>
            <ns3:hr>158</ns3:hr>
            <ns3:cad>68</ns3:cad>
          </ns3:TrackPointExtension>
        </extensions>
      </trkpt>
      <trkpt lat="52.22716231830418109893798828125" lon="1.624419204890727996826171875">
        <ele>-224.399993896484375</ele>
        <time>2025-09-07T08:09:33.000Z</time>
        <extensions>
          <ns3:TrackPointExtension>
            <ns3:hr>159</ns3:hr>
            <ns3:cad>68</ns3:cad>
          </ns3:TrackPointExtension>
        </extensions>
      </trkpt>
      <trkpt lat="52.22720137797296047210693359375" lon="1.62443228065967559814453125">
        <ele>-226.1999969482421875</ele>
        <time>2025-09-07T08:09:35.000Z</time>
        <extensions>
          <ns3:TrackPointExtension>
            <ns3:hr>160</ns3:hr>
            <ns3:cad>0</ns3:cad>
          </ns3:TrackPointExtension>
        </extensions>
      </trkpt>
      <trkpt lat="52.2272301279008388519287109375" lon="1.62444024346768856048583984375">
        <ele>-229.8000030517578125</ele>
        <time>2025-09-07T08:09:37.000Z</time>
        <extensions>
          <ns3:TrackPointExtension>
            <ns3:hr>157</ns3:hr>
            <ns3:cad>0</ns3:cad>
          </ns3:TrackPointExtension>
        </extensions>
      </trkpt>
      <trkpt lat="52.22724529914557933807373046875" lon="1.62444594316184520721435546875">
        <ele>-231.8000030517578125</ele>
        <time>2025-09-07T08:09:38.000Z</time>
        <extensions>
          <ns3:TrackPointExtension>
            <ns3:hr>152</ns3:hr>
            <ns3:cad>0</ns3:cad>
          </ns3:TrackPointExtension>
        </extensions>
      </trkpt>
      <trkpt lat="52.22725904546678066253662109375" lon="1.6244475357234477996826171875">
        <ele>-233.399993896484375</ele>
        <time>2025-09-07T08:09:39.000Z</time>
        <extensions>
          <ns3:TrackPointExtension>
            <ns3:hr>150</ns3:hr>
            <ns3:cad>0</ns3:cad>
          </ns3:TrackPointExtension>
        </extensions>
      </trkpt>
      <trkpt lat="52.227288298308849334716796875" lon="1.6244549117982387542724609375">
        <ele>-234.600006103515625</ele>
        <time>2025-09-07T08:09:41.000Z</time>
        <extensions>
          <ns3:TrackPointExtension>
            <ns3:hr>149</ns3:hr>
            <ns3:cad>0</ns3:cad>
          </ns3:TrackPointExtension>
        </extensions>
      </trkpt>
      <trkpt lat="52.227352671325206756591796875" lon="1.62446488626301288604736328125">
        <ele>-235.600006103515625</ele>
        <time>2025-09-07T08:09:45.000Z</time>
        <extensions>
          <ns3:TrackPointExtension>
            <ns3:hr>149</ns3:hr>
            <ns3:cad>58</ns3:cad>
          </ns3:TrackPointExtension>
        </extensions>
      </trkpt>
      <trkpt lat="52.22736750729382038116455078125" lon="1.62447209469974040985107421875">
        <ele>-235.8000030517578125</ele>
        <time>2025-09-07T08:09:46.000Z</time>
        <extensions>
          <ns3:TrackPointExtension>
            <ns3:hr>150</ns3:hr>
            <ns3:cad>0</ns3:cad>
          </ns3:TrackPointExtension>
        </extensions>
      </trkpt>
      <trkpt lat="52.22746725194156169891357421875" lon="1.62450361065566539764404296875">
        <ele>-235.600006103515625</ele>
        <time>2025-09-07T08:09:54.000Z</time>
        <extensions>
          <ns3:TrackPointExtension>
            <ns3:hr>144</ns3:hr>
            <ns3:cad>62</ns3:cad>
          </ns3:TrackPointExtension>
        </extensions>
      </trkpt>
      <trkpt lat="52.227500863373279571533203125" lon="1.62451886571943759918212890625">
        <ele>-235.1999969482421875</ele>
        <time>2025-09-07T08:09:57.000Z</time>
        <extensions>
          <ns3:TrackPointExtension>
            <ns3:hr>140</ns3:hr>
            <ns3:cad>62</ns3:cad>
          </ns3:TrackPointExtension>
        </extensions>
      </trkpt>
      <trkpt lat="52.22756364382803440093994140625" lon="1.624543927609920501708984375">
        <ele>-236.399993896484375</ele>
        <time>2025-09-07T08:10:02.000Z</time>
        <extensions>
          <ns3:TrackPointExtension>
            <ns3:hr>137</ns3:hr>
            <ns3:cad>60</ns3:cad>
          </ns3:TrackPointExtension>
        </extensions>
      </trkpt>
      <trkpt lat="52.22759365104138851165771484375" lon="1.62454895675182342529296875">
        <ele>-236.600006103515625</ele>
        <time>2025-09-07T08:10:04.000Z</time>
        <extensions>
          <ns3:TrackPointExtension>
            <ns3:hr>137</ns3:hr>
            <ns3:cad>60</ns3:cad>
          </ns3:TrackPointExtension>
        </extensions>
      </trkpt>
      <trkpt lat="52.2276073135435581207275390625" lon="1.62455038167536258697509765625">
        <ele>-236.8000030517578125</ele>
        <time>2025-09-07T08:10:05.000Z</time>
        <extensions>
          <ns3:TrackPointExtension>
            <ns3:hr>137</ns3:hr>
            <ns3:cad>60</ns3:cad>
          </ns3:TrackPointExtension>
        </extensions>
      </trkpt>
      <trkpt lat="52.22771845757961273193359375" lon="1.6245645470917224884033203125">
        <ele>-237.600006103515625</ele>
        <time>2025-09-07T08:10:13.000Z</time>
        <extensions>
          <ns3:TrackPointExtension>
            <ns3:hr>136</ns3:hr>
            <ns3:cad>61</ns3:cad>
          </ns3:TrackPointExtension>
        </extensions>
      </trkpt>
      <trkpt lat="52.2277848422527313232421875" lon="1.624581478536128997802734375">
        <ele>-238.8000030517578125</ele>
        <time>2025-09-07T08:10:18.000Z</time>
        <extensions>
          <ns3:TrackPointExtension>
            <ns3:hr>134</ns3:hr>
            <ns3:cad>61</ns3:cad>
          </ns3:TrackPointExtension>
        </extensions>
      </trkpt>
      <trkpt lat="52.22786908037960529327392578125" lon="1.62459991872310638427734375">
        <ele>-239.8000030517578125</ele>
        <time>2025-09-07T08:10:23.000Z</time>
        <extensions>
          <ns3:TrackPointExtension>
            <ns3:hr>132</ns3:hr>
            <ns3:cad>60</ns3:cad>
          </ns3:TrackPointExtension>
        </extensions>
      </trkpt>
      <trkpt lat="52.22788500599563121795654296875" lon="1.62460528314113616943359375">
        <ele>-240</ele>
        <time>2025-09-07T08:10:24.000Z</time>
        <extensions>
          <ns3:TrackPointExtension>
            <ns3:hr>133</ns3:hr>
            <ns3:cad>61</ns3:cad>
          </ns3:TrackPointExtension>
        </extensions>
      </trkpt>
      <trkpt lat="52.22793437540531158447265625" lon="1.62462766282260417938232421875">
        <ele>-242</ele>
        <time>2025-09-07T08:10:27.000Z</time>
        <extensions>
          <ns3:TrackPointExtension>
            <ns3:hr>133</ns3:hr>
            <ns3:cad>61</ns3:cad>
          </ns3:TrackPointExtension>
        </extensions>
      </trkpt>
      <trkpt lat="52.22797335125505924224853515625" lon="1.62463487125933170318603515625">
        <ele>-243.399993896484375</ele>
        <time>2025-09-07T08:10:30.000Z</time>
        <extensions>
          <ns3:TrackPointExtension>
            <ns3:hr>133</ns3:hr>
            <ns3:cad>61</ns3:cad>
          </ns3:TrackPointExtension>
        </extensions>
      </trkpt>
      <trkpt lat="52.22803688608109951019287109375" lon="1.62465356290340423583984375">
        <ele>-244.600006103515625</ele>
        <time>2025-09-07T08:10:34.000Z</time>
        <extensions>
          <ns3:TrackPointExtension>
            <ns3:hr>132</ns3:hr>
            <ns3:cad>60</ns3:cad>
          </ns3:TrackPointExtension>
        </extensions>
      </trkpt>
      <trkpt lat="52.22810612060129642486572265625" lon="1.624667644500732421875">
        <ele>-245.600006103515625</ele>
        <time>2025-09-07T08:10:38.000Z</time>
        <extensions>
          <ns3:TrackPointExtension>
            <ns3:hr>132</ns3:hr>
            <ns3:cad>60</ns3:cad>
          </ns3:TrackPointExtension>
        </extensions>
      </trkpt>
      <trkpt lat="52.22823067568242549896240234375" lon="1.6246958076953887939453125">
        <ele>-244.399993896484375</ele>
        <time>2025-09-07T08:10:46.000Z</time>
        <extensions>
          <ns3:TrackPointExtension>
            <ns3:hr>132</ns3:hr>
            <ns3:cad>60</ns3:cad>
          </ns3:TrackPointExtension>
        </extensions>
      </trkpt>
      <trkpt lat="52.22829823382198810577392578125" lon="1.6247207857668399810791015625">
        <ele>-243</ele>
        <time>2025-09-07T08:10:51.000Z</time>
        <extensions>
          <ns3:TrackPointExtension>
            <ns3:hr>131</ns3:hr>
            <ns3:cad>61</ns3:cad>
          </ns3:TrackPointExtension>
        </extensions>
      </trkpt>
      <trkpt lat="52.22831365652382373809814453125" lon="1.6247264854609966278076171875">
        <ele>-241.600006103515625</ele>
        <time>2025-09-07T08:10:52.000Z</time>
        <extensions>
          <ns3:TrackPointExtension>
            <ns3:hr>131</ns3:hr>
            <ns3:cad>61</ns3:cad>
          </ns3:TrackPointExtension>
        </extensions>
      </trkpt>
      <trkpt lat="52.22832757048308849334716796875" lon="1.6247308440506458282470703125">
        <ele>-239.600006103515625</ele>
        <time>2025-09-07T08:10:53.000Z</time>
        <extensions>
          <ns3:TrackPointExtension>
            <ns3:hr>130</ns3:hr>
            <ns3:cad>61</ns3:cad>
          </ns3:TrackPointExtension>
        </extensions>
      </trkpt>
      <trkpt lat="52.22834534011781215667724609375" lon="1.62472975440323352813720703125">
        <ele>-238.600006103515625</ele>
        <time>2025-09-07T08:10:54.000Z</time>
        <extensions>
          <ns3:TrackPointExtension>
            <ns3:hr>129</ns3:hr>
            <ns3:cad>61</ns3:cad>
          </ns3:TrackPointExtension>
        </extensions>
      </trkpt>
      <trkpt lat="52.2283600084483623504638671875" lon="1.6247298382222652435302734375">
        <ele>-238</ele>
        <time>2025-09-07T08:10:55.000Z</time>
        <extensions>
          <ns3:TrackPointExtension>
            <ns3:hr>132</ns3:hr>
            <ns3:cad>61</ns3:cad>
          </ns3:TrackPointExtension>
        </extensions>
      </trkpt>
      <trkpt lat="52.22837300039827823638916015625" lon="1.62473310716450214385986328125">
        <ele>-237.600006103515625</ele>
        <time>2025-09-07T08:10:56.000Z</time>
        <extensions>
          <ns3:TrackPointExtension>
            <ns3:hr>130</ns3:hr>
            <ns3:cad>61</ns3:cad>
          </ns3:TrackPointExtension>
        </extensions>
      </trkpt>
      <trkpt lat="52.2284166701138019561767578125" lon="1.62473939359188079833984375">
        <ele>-236.600006103515625</ele>
        <time>2025-09-07T08:10:59.000Z</time>
        <extensions>
          <ns3:TrackPointExtension>
            <ns3:hr>129</ns3:hr>
            <ns3:cad>61</ns3:cad>
          </ns3:TrackPointExtension>
        </extensions>
      </trkpt>
      <trkpt lat="52.22846553660929203033447265625" lon="1.62474735639989376068115234375">
        <ele>-236.399993896484375</ele>
        <time>2025-09-07T08:11:02.000Z</time>
        <extensions>
          <ns3:TrackPointExtension>
            <ns3:hr>129</ns3:hr>
            <ns3:cad>60</ns3:cad>
          </ns3:TrackPointExtension>
        </extensions>
      </trkpt>
      <trkpt lat="52.22855656407773494720458984375" lon="1.62477065809071063995361328125">
        <ele>-236.399993896484375</ele>
        <time>2025-09-07T08:11:10.000Z</time>
        <extensions>
          <ns3:TrackPointExtension>
            <ns3:hr>126</ns3:hr>
            <ns3:cad>61</ns3:cad>
          </ns3:TrackPointExtension>
        </extensions>
      </trkpt>
      <trkpt lat="52.2285688854753971099853515625" lon="1.62477116100490093231201171875">
        <ele>-236.399993896484375</ele>
        <time>2025-09-07T08:11:11.000Z</time>
        <extensions>
          <ns3:TrackPointExtension>
            <ns3:hr>126</ns3:hr>
            <ns3:cad>61</ns3:cad>
          </ns3:TrackPointExtension>
        </extensions>
      </trkpt>
      <trkpt lat="52.22860953770577907562255859375" lon="1.62477803416550159454345703125">
        <ele>-235.399993896484375</ele>
        <time>2025-09-07T08:11:14.000Z</time>
        <extensions>
          <ns3:TrackPointExtension>
            <ns3:hr>124</ns3:hr>
            <ns3:cad>61</ns3:cad>
          </ns3:TrackPointExtension>
        </extensions>
      </trkpt>
      <trkpt lat="52.2286248765885829925537109375" lon="1.6247784532606601715087890625">
        <ele>-235</ele>
        <time>2025-09-07T08:11:15.000Z</time>
        <extensions>
          <ns3:TrackPointExtension>
            <ns3:hr>127</ns3:hr>
            <ns3:cad>61</ns3:cad>
          </ns3:TrackPointExtension>
        </extensions>
      </trkpt>
      <trkpt lat="52.2286684624850749969482421875" lon="1.62478758953511714935302734375">
        <ele>-234.399993896484375</ele>
        <time>2025-09-07T08:11:18.000Z</time>
        <extensions>
          <ns3:TrackPointExtension>
            <ns3:hr>126</ns3:hr>
            <ns3:cad>60</ns3:cad>
          </ns3:TrackPointExtension>
        </extensions>
      </trkpt>
      <trkpt lat="52.22870148718357086181640625" lon="1.62479680962860584259033203125">
        <ele>-233.600006103515625</ele>
        <time>2025-09-07T08:11:20.000Z</time>
        <extensions>
          <ns3:TrackPointExtension>
            <ns3:hr>129</ns3:hr>
            <ns3:cad>60</ns3:cad>
          </ns3:TrackPointExtension>
        </extensions>
      </trkpt>
      <trkpt lat="52.2287187539041042327880859375" lon="1.624801419675350189208984375">
        <ele>-233.1999969482421875</ele>
        <time>2025-09-07T08:11:21.000Z</time>
        <extensions>
          <ns3:TrackPointExtension>
            <ns3:hr>125</ns3:hr>
            <ns3:cad>60</ns3:cad>
          </ns3:TrackPointExtension>
        </extensions>
      </trkpt>
      <trkpt lat="52.228856049478054046630859375" lon="1.62482262589037418365478515625">
        <ele>-232.1999969482421875</ele>
        <time>2025-09-07T08:11:29.000Z</time>
        <extensions>
          <ns3:TrackPointExtension>
            <ns3:hr>129</ns3:hr>
            <ns3:cad>61</ns3:cad>
          </ns3:TrackPointExtension>
        </extensions>
      </trkpt>
      <trkpt lat="52.2288823686540126800537109375" lon="1.62481742911040782928466796875">
        <ele>-232.1999969482421875</ele>
        <time>2025-09-07T08:11:30.000Z</time>
        <extensions>
          <ns3:TrackPointExtension>
            <ns3:hr>130</ns3:hr>
            <ns3:cad>61</ns3:cad>
          </ns3:TrackPointExtension>
        </extensions>
      </trkpt>
      <trkpt lat="52.22895034588873386383056640625" lon="1.624832265079021453857421875">
        <ele>-231.8000030517578125</ele>
        <time>2025-09-07T08:11:34.000Z</time>
        <extensions>
          <ns3:TrackPointExtension>
            <ns3:hr>126</ns3:hr>
            <ns3:cad>63</ns3:cad>
          </ns3:TrackPointExtension>
        </extensions>
      </trkpt>
      <trkpt lat="52.228996865451335906982421875" lon="1.6248502023518085479736328125">
        <ele>-230.8000030517578125</ele>
        <time>2025-09-07T08:11:37.000Z</time>
        <extensions>
          <ns3:TrackPointExtension>
            <ns3:hr>126</ns3:hr>
            <ns3:cad>60</ns3:cad>
          </ns3:TrackPointExtension>
        </extensions>
      </trkpt>
      <trkpt lat="52.22901153378188610076904296875" lon="1.62485531531274318695068359375">
        <ele>-229.399993896484375</ele>
        <time>2025-09-07T08:11:38.000Z</time>
        <extensions>
          <ns3:TrackPointExtension>
            <ns3:hr>124</ns3:hr>
            <ns3:cad>60</ns3:cad>
          </ns3:TrackPointExtension>
        </extensions>
      </trkpt>
      <trkpt lat="52.2290376015007495880126953125" lon="1.62486277520656585693359375">
        <ele>-228.1999969482421875</ele>
        <time>2025-09-07T08:11:40.000Z</time>
        <extensions>
          <ns3:TrackPointExtension>
            <ns3:hr>125</ns3:hr>
            <ns3:cad>60</ns3:cad>
          </ns3:TrackPointExtension>
        </extensions>
      </trkpt>
      <trkpt lat="52.22910474054515361785888671875" lon="1.6248750127851963043212890625">
        <ele>-227.1999969482421875</ele>
        <time>2025-09-07T08:11:45.000Z</time>
        <extensions>
          <ns3:TrackPointExtension>
            <ns3:hr>124</ns3:hr>
            <ns3:cad>60</ns3:cad>
          </ns3:TrackPointExtension>
        </extensions>
      </trkpt>
      <trkpt lat="52.2291475720703601837158203125" lon="1.62488699890673160552978515625">
        <ele>-226.1999969482421875</ele>
        <time>2025-09-07T08:11:48.000Z</time>
        <extensions>
          <ns3:TrackPointExtension>
            <ns3:hr>123</ns3:hr>
            <ns3:cad>62</ns3:cad>
          </ns3:TrackPointExtension>
        </extensions>
      </trkpt>
      <trkpt lat="52.229167185723781585693359375" lon="1.62488934583961963653564453125">
        <ele>-225.8000030517578125</ele>
        <time>2025-09-07T08:11:49.000Z</time>
        <extensions>
          <ns3:TrackPointExtension>
            <ns3:hr>124</ns3:hr>
            <ns3:cad>60</ns3:cad>
          </ns3:TrackPointExtension>
        </extensions>
      </trkpt>
      <trkpt lat="52.2292501665651798248291015625" lon="1.6249172575771808624267578125">
        <ele>-226</ele>
        <time>2025-09-07T08:11:54.000Z</time>
        <extensions>
          <ns3:TrackPointExtension>
            <ns3:hr>127</ns3:hr>
            <ns3:cad>61</ns3:cad>
          </ns3:TrackPointExtension>
        </extensions>
      </trkpt>
      <trkpt lat="52.22930791787803173065185546875" lon="1.6249279864132404327392578125">
        <ele>-225.399993896484375</ele>
        <time>2025-09-07T08:11:58.000Z</time>
        <extensions>
          <ns3:TrackPointExtension>
            <ns3:hr>126</ns3:hr>
            <ns3:cad>61</ns3:cad>
          </ns3:TrackPointExtension>
        </extensions>
      </trkpt>
      <trkpt lat="52.2294137813150882720947265625" lon="1.62496143020689487457275390625">
        <ele>-225.8000030517578125</ele>
        <time>2025-09-07T08:12:05.000Z</time>
        <extensions>
          <ns3:TrackPointExtension>
            <ns3:hr>123</ns3:hr>
            <ns3:cad>60</ns3:cad>
          </ns3:TrackPointExtension>
        </extensions>
      </trkpt>
      <trkpt lat="52.22942836582660675048828125" lon="1.6249682195484638214111328125">
        <ele>-226</ele>
        <time>2025-09-07T08:12:06.000Z</time>
        <extensions>
          <ns3:TrackPointExtension>
            <ns3:hr>128</ns3:hr>
            <ns3:cad>60</ns3:cad>
          </ns3:TrackPointExtension>
        </extensions>
      </trkpt>
      <trkpt lat="52.22944638691842555999755859375" lon="1.62497006356716156005859375">
        <ele>-226.600006103515625</ele>
        <time>2025-09-07T08:12:07.000Z</time>
        <extensions>
          <ns3:TrackPointExtension>
            <ns3:hr>128</ns3:hr>
            <ns3:cad>60</ns3:cad>
          </ns3:TrackPointExtension>
        </extensions>
      </trkpt>
      <trkpt lat="52.22946264781057834625244140625" lon="1.62497618235647678375244140625">
        <ele>-227.1999969482421875</ele>
        <time>2025-09-07T08:12:08.000Z</time>
        <extensions>
          <ns3:TrackPointExtension>
            <ns3:hr>127</ns3:hr>
            <ns3:cad>61</ns3:cad>
          </ns3:TrackPointExtension>
        </extensions>
      </trkpt>
      <trkpt lat="52.2294939123094081878662109375" lon="1.624988503754138946533203125">
        <ele>-229.1999969482421875</ele>
        <time>2025-09-07T08:12:10.000Z</time>
        <extensions>
          <ns3:TrackPointExtension>
            <ns3:hr>127</ns3:hr>
            <ns3:cad>59</ns3:cad>
          </ns3:TrackPointExtension>
        </extensions>
      </trkpt>
      <trkpt lat="52.22952081821858882904052734375" lon="1.62500300444662570953369140625">
        <ele>-230.8000030517578125</ele>
        <time>2025-09-07T08:12:12.000Z</time>
        <extensions>
          <ns3:TrackPointExtension>
            <ns3:hr>127</ns3:hr>
            <ns3:cad>58</ns3:cad>
          </ns3:TrackPointExtension>
        </extensions>
      </trkpt>
      <trkpt lat="52.22954998724162578582763671875" lon="1.62501960061490535736083984375">
        <ele>-231.600006103515625</ele>
        <time>2025-09-07T08:12:14.000Z</time>
        <extensions>
          <ns3:TrackPointExtension>
            <ns3:hr>126</ns3:hr>
            <ns3:cad>60</ns3:cad>
          </ns3:TrackPointExtension>
        </extensions>
      </trkpt>
      <trkpt lat="52.22956742160022258758544921875" lon="1.62502060644328594207763671875">
        <ele>-232.1999969482421875</ele>
        <time>2025-09-07T08:12:15.000Z</time>
        <extensions>
          <ns3:TrackPointExtension>
            <ns3:hr>126</ns3:hr>
            <ns3:cad>60</ns3:cad>
          </ns3:TrackPointExtension>
        </extensions>
      </trkpt>
      <trkpt lat="52.22961067222058773040771484375" lon="1.62502664141356945037841796875">
        <ele>-233.399993896484375</ele>
        <time>2025-09-07T08:12:18.000Z</time>
        <extensions>
          <ns3:TrackPointExtension>
            <ns3:hr>127</ns3:hr>
            <ns3:cad>58</ns3:cad>
          </ns3:TrackPointExtension>
        </extensions>
      </trkpt>
      <trkpt lat="52.22965635359287261962890625" lon="1.625038124620914459228515625">
        <ele>-233.399993896484375</ele>
        <time>2025-09-07T08:12:21.000Z</time>
        <extensions>
          <ns3:TrackPointExtension>
            <ns3:hr>130</ns3:hr>
            <ns3:cad>61</ns3:cad>
          </ns3:TrackPointExtension>
        </extensions>
      </trkpt>
      <trkpt lat="52.2296719439327716827392578125" lon="1.625040471553802490234375">
        <ele>-233.600006103515625</ele>
        <time>2025-09-07T08:12:22.000Z</time>
        <extensions>
          <ns3:TrackPointExtension>
            <ns3:hr>130</ns3:hr>
            <ns3:cad>61</ns3:cad>
          </ns3:TrackPointExtension>
        </extensions>
      </trkpt>
      <trkpt lat="52.229768671095371246337890625" lon="1.625067628920078277587890625">
        <ele>-233.8000030517578125</ele>
        <time>2025-09-07T08:12:29.000Z</time>
        <extensions>
          <ns3:TrackPointExtension>
            <ns3:hr>127</ns3:hr>
            <ns3:cad>62</ns3:cad>
          </ns3:TrackPointExtension>
        </extensions>
      </trkpt>
      <trkpt lat="52.22979960031807422637939453125" lon="1.625075675547122955322265625">
        <ele>-234.1999969482421875</ele>
        <time>2025-09-07T08:12:31.000Z</time>
        <extensions>
          <ns3:TrackPointExtension>
            <ns3:hr>128</ns3:hr>
            <ns3:cad>0</ns3:cad>
          </ns3:TrackPointExtension>
        </extensions>
      </trkpt>
      <trkpt lat="52.22982608713209629058837890625" lon="1.62507995031774044036865234375">
        <ele>-234.399993896484375</ele>
        <time>2025-09-07T08:12:33.000Z</time>
        <extensions>
          <ns3:TrackPointExtension>
            <ns3:hr>129</ns3:hr>
            <ns3:cad>55</ns3:cad>
          </ns3:TrackPointExtension>
        </extensions>
      </trkpt>
      <trkpt lat="52.22988811321556568145751953125" lon="1.625086404383182525634765625">
        <ele>-237.399993896484375</ele>
        <time>2025-09-07T08:12:37.000Z</time>
        <extensions>
          <ns3:TrackPointExtension>
            <ns3:hr>130</ns3:hr>
            <ns3:cad>0</ns3:cad>
          </ns3:TrackPointExtension>
        </extensions>
      </trkpt>
      <trkpt lat="52.22990537993609905242919921875" lon="1.6250889189541339874267578125">
        <ele>-239.1999969482421875</ele>
        <time>2025-09-07T08:12:38.000Z</time>
        <extensions>
          <ns3:TrackPointExtension>
            <ns3:hr>130</ns3:hr>
            <ns3:cad>0</ns3:cad>
          </ns3:TrackPointExtension>
        </extensions>
      </trkpt>
      <trkpt lat="52.22993488423526287078857421875" lon="1.625096797943115234375">
        <ele>-241</ele>
        <time>2025-09-07T08:12:40.000Z</time>
        <extensions>
          <ns3:TrackPointExtension>
            <ns3:hr>131</ns3:hr>
            <ns3:cad>0</ns3:cad>
          </ns3:TrackPointExtension>
        </extensions>
      </trkpt>
      <trkpt lat="52.2299589402973651885986328125" lon="1.62509688176214694976806640625">
        <ele>-242.600006103515625</ele>
        <time>2025-09-07T08:12:42.000Z</time>
        <extensions>
          <ns3:TrackPointExtension>
            <ns3:hr>130</ns3:hr>
            <ns3:cad>0</ns3:cad>
          </ns3:TrackPointExtension>
        </extensions>
      </trkpt>
      <trkpt lat="52.22996941767632961273193359375" lon="1.6251036711037158966064453125">
        <ele>-245.1999969482421875</ele>
        <time>2025-09-07T08:12:44.000Z</time>
        <extensions>
          <ns3:TrackPointExtension>
            <ns3:hr>129</ns3:hr>
            <ns3:cad>0</ns3:cad>
          </ns3:TrackPointExtension>
        </extensions>
      </trkpt>
      <trkpt lat="52.2299700044095516204833984375" lon="1.62510727532207965850830078125">
        <ele>-246.600006103515625</ele>
        <time>2025-09-07T08:12:45.000Z</time>
        <extensions>
          <ns3:TrackPointExtension>
            <ns3:hr>128</ns3:hr>
            <ns3:cad>0</ns3:cad>
          </ns3:TrackPointExtension>
        </extensions>
      </trkpt>
      <trkpt lat="52.22997059114277362823486328125" lon="1.62511129863560199737548828125">
        <ele>-247.1999969482421875</ele>
        <time>2025-09-07T08:12:46.000Z</time>
        <extensions>
          <ns3:TrackPointExtension>
            <ns3:hr>127</ns3:hr>
            <ns3:cad>0</ns3:cad>
          </ns3:TrackPointExtension>
        </extensions>
      </trkpt>
      <trkpt lat="52.2299706749618053436279296875" lon="1.62511163391172885894775390625">
        <ele>-247.600006103515625</ele>
        <time>2025-09-07T08:12:48.000Z</time>
        <extensions>
          <ns3:TrackPointExtension>
            <ns3:hr>127</ns3:hr>
            <ns3:cad>0</ns3:cad>
          </ns3:TrackPointExtension>
        </extensions>
      </trkpt>
      <trkpt lat="52.22996723838150501251220703125" lon="1.62511481903493404388427734375">
        <ele>-247.399993896484375</ele>
        <time>2025-09-07T08:12:54.000Z</time>
        <extensions>
          <ns3:TrackPointExtension>
            <ns3:hr>124</ns3:hr>
            <ns3:cad>0</ns3:cad>
          </ns3:TrackPointExtension>
        </extensions>
      </trkpt>
      <trkpt lat="52.229966484010219573974609375" lon="1.625114567577838897705078125">
        <ele>-245.399993896484375</ele>
        <time>2025-09-07T08:12:56.000Z</time>
        <extensions>
          <ns3:TrackPointExtension>
            <ns3:hr>121</ns3:hr>
            <ns3:cad>0</ns3:cad>
          </ns3:TrackPointExtension>
        </extensions>
      </trkpt>
      <trkpt lat="52.22996355034410953521728515625" lon="1.625114567577838897705078125">
        <ele>-244</ele>
        <time>2025-09-07T08:12:58.000Z</time>
        <extensions>
          <ns3:TrackPointExtension>
            <ns3:hr>122</ns3:hr>
            <ns3:cad>0</ns3:cad>
          </ns3:TrackPointExtension>
        </extensions>
      </trkpt>
      <trkpt lat="52.2299654781818389892578125" lon="1.625110544264316558837890625">
        <ele>-242.600006103515625</ele>
        <time>2025-09-07T08:12:59.000Z</time>
        <extensions>
          <ns3:TrackPointExtension>
            <ns3:hr>120</ns3:hr>
            <ns3:cad>0</ns3:cad>
          </ns3:TrackPointExtension>
        </extensions>
      </trkpt>
      <trkpt lat="52.2299689985811710357666015625" lon="1.6251127235591411590576171875">
        <ele>-241.399993896484375</ele>
        <time>2025-09-07T08:13:00.000Z</time>
        <extensions>
          <ns3:TrackPointExtension>
            <ns3:hr>121</ns3:hr>
            <ns3:cad>0</ns3:cad>
          </ns3:TrackPointExtension>
        </extensions>
      </trkpt>
      <trkpt lat="52.22998626530170440673828125" lon="1.62512487731873989105224609375">
        <ele>-240.1999969482421875</ele>
        <time>2025-09-07T08:13:02.000Z</time>
        <extensions>
          <ns3:TrackPointExtension>
            <ns3:hr>123</ns3:hr>
            <ns3:cad>0</ns3:cad>
          </ns3:TrackPointExtension>
        </extensions>
      </trkpt>
      <trkpt lat="52.2300159372389316558837890625" lon="1.6251328401267528533935546875">
        <ele>-239</ele>
        <time>2025-09-07T08:13:04.000Z</time>
        <extensions>
          <ns3:TrackPointExtension>
            <ns3:hr>121</ns3:hr>
            <ns3:cad>0</ns3:cad>
          </ns3:TrackPointExtension>
        </extensions>
      </trkpt>
      <trkpt lat="52.23004384897649288177490234375" lon="1.6251437366008758544921875">
        <ele>-238.1999969482421875</ele>
        <time>2025-09-07T08:13:06.000Z</time>
        <extensions>
          <ns3:TrackPointExtension>
            <ns3:hr>119</ns3:hr>
            <ns3:cad>57</ns3:cad>
          </ns3:TrackPointExtension>
        </extensions>
      </trkpt>
      <trkpt lat="52.23007368855178356170654296875" lon="1.6251536272466182708740234375">
        <ele>-237.8000030517578125</ele>
        <time>2025-09-07T08:13:08.000Z</time>
        <extensions>
          <ns3:TrackPointExtension>
            <ns3:hr>119</ns3:hr>
            <ns3:cad>57</ns3:cad>
          </ns3:TrackPointExtension>
        </extensions>
      </trkpt>
      <trkpt lat="52.23017779178917407989501953125" lon="1.62519210018217563629150390625">
        <ele>-237.1999969482421875</ele>
        <time>2025-09-07T08:13:15.000Z</time>
        <extensions>
          <ns3:TrackPointExtension>
            <ns3:hr>121</ns3:hr>
            <ns3:cad>61</ns3:cad>
          </ns3:TrackPointExtension>
        </extensions>
      </trkpt>
      <trkpt lat="52.2302201204001903533935546875" lon="1.625203751027584075927734375">
        <ele>-237.1999969482421875</ele>
        <time>2025-09-07T08:13:18.000Z</time>
        <extensions>
          <ns3:TrackPointExtension>
            <ns3:hr>117</ns3:hr>
            <ns3:cad>61</ns3:cad>
          </ns3:TrackPointExtension>
        </extensions>
      </trkpt>
      <trkpt lat="52.2303015924990177154541015625" lon="1.62522445432841777801513671875">
        <ele>-237.600006103515625</ele>
        <time>2025-09-07T08:13:22.000Z</time>
        <extensions>
          <ns3:TrackPointExtension>
            <ns3:hr>120</ns3:hr>
            <ns3:cad>61</ns3:cad>
          </ns3:TrackPointExtension>
        </extensions>
      </trkpt>
      <trkpt lat="52.23032900132238864898681640625" lon="1.625227220356464385986328125">
        <ele>-237.8000030517578125</ele>
        <time>2025-09-07T08:13:23.000Z</time>
        <extensions>
          <ns3:TrackPointExtension>
            <ns3:hr>121</ns3:hr>
            <ns3:cad>61</ns3:cad>
          </ns3:TrackPointExtension>
        </extensions>
      </trkpt>
      <trkpt lat="52.23040200769901275634765625" lon="1.6252263821661472320556640625">
        <ele>-239</ele>
        <time>2025-09-07T08:13:26.000Z</time>
        <extensions>
          <ns3:TrackPointExtension>
            <ns3:hr>119</ns3:hr>
            <ns3:cad>79</ns3:cad>
          </ns3:TrackPointExtension>
        </extensions>
      </trkpt>
      <trkpt lat="52.2304222919046878814697265625" lon="1.62522487342357635498046875">
        <ele>-240</ele>
        <time>2025-09-07T08:13:27.000Z</time>
        <extensions>
          <ns3:TrackPointExtension>
            <ns3:hr>119</ns3:hr>
            <ns3:cad>79</ns3:cad>
          </ns3:TrackPointExtension>
        </extensions>
      </trkpt>
      <trkpt lat="52.23046294413506984710693359375" lon="1.6252183355391025543212890625">
        <ele>-241</ele>
        <time>2025-09-07T08:13:29.000Z</time>
        <extensions>
          <ns3:TrackPointExtension>
            <ns3:hr>120</ns3:hr>
            <ns3:cad>79</ns3:cad>
          </ns3:TrackPointExtension>
        </extensions>
      </trkpt>
      <trkpt lat="52.23048306070268154144287109375" lon="1.62521473132073879241943359375">
        <ele>-241.1999969482421875</ele>
        <time>2025-09-07T08:13:30.000Z</time>
        <extensions>
          <ns3:TrackPointExtension>
            <ns3:hr>121</ns3:hr>
            <ns3:cad>80</ns3:cad>
          </ns3:TrackPointExtension>
        </extensions>
      </trkpt>
      <trkpt lat="52.230506278574466705322265625" lon="1.625212132930755615234375">
        <ele>-241.8000030517578125</ele>
        <time>2025-09-07T08:13:31.000Z</time>
        <extensions>
          <ns3:TrackPointExtension>
            <ns3:hr>125</ns3:hr>
            <ns3:cad>81</ns3:cad>
          </ns3:TrackPointExtension>
        </extensions>
      </trkpt>
      <trkpt lat="52.23052815534174442291259765625" lon="1.625211797654628753662109375">
        <ele>-242.1999969482421875</ele>
        <time>2025-09-07T08:13:32.000Z</time>
        <extensions>
          <ns3:TrackPointExtension>
            <ns3:hr>130</ns3:hr>
            <ns3:cad>81</ns3:cad>
          </ns3:TrackPointExtension>
        </extensions>
      </trkpt>
      <trkpt lat="52.23055011592805385589599609375" lon="1.62521607242524623870849609375">
        <ele>-242.399993896484375</ele>
        <time>2025-09-07T08:13:33.000Z</time>
        <extensions>
          <ns3:TrackPointExtension>
            <ns3:hr>133</ns3:hr>
            <ns3:cad>80</ns3:cad>
          </ns3:TrackPointExtension>
        </extensions>
      </trkpt>
      <trkpt lat="52.23057090304791927337646484375" lon="1.62522395141422748565673828125">
        <ele>-242.600006103515625</ele>
        <time>2025-09-07T08:13:34.000Z</time>
        <extensions>
          <ns3:TrackPointExtension>
            <ns3:hr>136</ns3:hr>
            <ns3:cad>80</ns3:cad>
          </ns3:TrackPointExtension>
        </extensions>
      </trkpt>
      <trkpt lat="52.23061264492571353912353515625" lon="1.62522965110838413238525390625">
        <ele>-243.600006103515625</ele>
        <time>2025-09-07T08:13:36.000Z</time>
        <extensions>
          <ns3:TrackPointExtension>
            <ns3:hr>139</ns3:hr>
            <ns3:cad>79</ns3:cad>
          </ns3:TrackPointExtension>
        </extensions>
      </trkpt>
      <trkpt lat="52.2306311689317226409912109375" lon="1.62522898055613040924072265625">
        <ele>-244.399993896484375</ele>
        <time>2025-09-07T08:13:37.000Z</time>
        <extensions>
          <ns3:TrackPointExtension>
            <ns3:hr>141</ns3:hr>
            <ns3:cad>79</ns3:cad>
          </ns3:TrackPointExtension>
        </extensions>
      </trkpt>
      <trkpt lat="52.23065145313739776611328125" lon="1.62522462196648120880126953125">
        <ele>-245.1999969482421875</ele>
        <time>2025-09-07T08:13:38.000Z</time>
        <extensions>
          <ns3:TrackPointExtension>
            <ns3:hr>142</ns3:hr>
            <ns3:cad>79</ns3:cad>
          </ns3:TrackPointExtension>
        </extensions>
      </trkpt>
      <trkpt lat="52.23069847561419010162353515625" lon="1.6252161562442779541015625">
        <ele>-246.8000030517578125</ele>
        <time>2025-09-07T08:13:40.000Z</time>
        <extensions>
          <ns3:TrackPointExtension>
            <ns3:hr>143</ns3:hr>
            <ns3:cad>80</ns3:cad>
          </ns3:TrackPointExtension>
        </extensions>
      </trkpt>
      <trkpt lat="52.230720855295658111572265625" lon="1.6252066008746623992919921875">
        <ele>-247.600006103515625</ele>
        <time>2025-09-07T08:13:41.000Z</time>
        <extensions>
          <ns3:TrackPointExtension>
            <ns3:hr>146</ns3:hr>
            <ns3:cad>81</ns3:cad>
          </ns3:TrackPointExtension>
        </extensions>
      </trkpt>
      <trkpt lat="52.230742312967777252197265625" lon="1.625198386609554290771484375">
        <ele>-248</ele>
        <time>2025-09-07T08:13:42.000Z</time>
        <extensions>
          <ns3:TrackPointExtension>
            <ns3:hr>146</ns3:hr>
            <ns3:cad>81</ns3:cad>
          </ns3:TrackPointExtension>
        </extensions>
      </trkpt>
      <trkpt lat="52.2307867370545864105224609375" lon="1.62518539465963840484619140625">
        <ele>-249</ele>
        <time>2025-09-07T08:13:44.000Z</time>
        <extensions>
          <ns3:TrackPointExtension>
            <ns3:hr>147</ns3:hr>
            <ns3:cad>80</ns3:cad>
          </ns3:TrackPointExtension>
        </extensions>
      </trkpt>
      <trkpt lat="52.23082487471401691436767578125" lon="1.62517122924327850341796875">
        <ele>-249.1999969482421875</ele>
        <time>2025-09-07T08:13:46.000Z</time>
        <extensions>
          <ns3:TrackPointExtension>
            <ns3:hr>149</ns3:hr>
            <ns3:cad>79</ns3:cad>
          </ns3:TrackPointExtension>
        </extensions>
      </trkpt>
      <trkpt lat="52.23090433515608310699462890625" lon="1.6251526214182376861572265625">
        <ele>-250.1999969482421875</ele>
        <time>2025-09-07T08:13:50.000Z</time>
        <extensions>
          <ns3:TrackPointExtension>
            <ns3:hr>150</ns3:hr>
            <ns3:cad>81</ns3:cad>
          </ns3:TrackPointExtension>
        </extensions>
      </trkpt>
      <trkpt lat="52.230956219136714935302734375" lon="1.62515521980822086334228515625">
        <ele>-250.600006103515625</ele>
        <time>2025-09-07T08:13:53.000Z</time>
        <extensions>
          <ns3:TrackPointExtension>
            <ns3:hr>153</ns3:hr>
            <ns3:cad>81</ns3:cad>
          </ns3:TrackPointExtension>
        </extensions>
      </trkpt>
      <trkpt lat="52.23100684583187103271484375" lon="1.62517567165195941925048828125">
        <ele>-250.8000030517578125</ele>
        <time>2025-09-07T08:13:56.000Z</time>
        <extensions>
          <ns3:TrackPointExtension>
            <ns3:hr>156</ns3:hr>
            <ns3:cad>81</ns3:cad>
          </ns3:TrackPointExtension>
        </extensions>
      </trkpt>
      <trkpt lat="52.23111212253570556640625" lon="1.62519847042858600616455078125">
        <ele>-250.8000030517578125</ele>
        <time>2025-09-07T08:14:01.000Z</time>
        <extensions>
          <ns3:TrackPointExtension>
            <ns3:hr>154</ns3:hr>
            <ns3:cad>80</ns3:cad>
          </ns3:TrackPointExtension>
        </extensions>
      </trkpt>
      <trkpt lat="52.23118697293102741241455078125" lon="1.62521406076848506927490234375">
        <ele>-251.600006103515625</ele>
        <time>2025-09-07T08:14:05.000Z</time>
        <extensions>
          <ns3:TrackPointExtension>
            <ns3:hr>154</ns3:hr>
            <ns3:cad>81</ns3:cad>
          </ns3:TrackPointExtension>
        </extensions>
      </trkpt>
      <trkpt lat="52.23124112002551555633544921875" lon="1.62523048929870128631591796875">
        <ele>-252</ele>
        <time>2025-09-07T08:14:08.000Z</time>
        <extensions>
          <ns3:TrackPointExtension>
            <ns3:hr>156</ns3:hr>
            <ns3:cad>81</ns3:cad>
          </ns3:TrackPointExtension>
        </extensions>
      </trkpt>
      <trkpt lat="52.23135109059512615203857421875" lon="1.6252615861594676971435546875">
        <ele>-252.399993896484375</ele>
        <time>2025-09-07T08:14:14.000Z</time>
        <extensions>
          <ns3:TrackPointExtension>
            <ns3:hr>158</ns3:hr>
            <ns3:cad>82</ns3:cad>
          </ns3:TrackPointExtension>
        </extensions>
      </trkpt>
      <trkpt lat="52.23139065317809581756591796875" lon="1.62527340464293956756591796875">
        <ele>-252.600006103515625</ele>
        <time>2025-09-07T08:14:16.000Z</time>
        <extensions>
          <ns3:TrackPointExtension>
            <ns3:hr>158</ns3:hr>
            <ns3:cad>81</ns3:cad>
          </ns3:TrackPointExtension>
        </extensions>
      </trkpt>
      <trkpt lat="52.23146676085889339447021484375" lon="1.625285558402538299560546875">
        <ele>-253.8000030517578125</ele>
        <time>2025-09-07T08:14:20.000Z</time>
        <extensions>
          <ns3:TrackPointExtension>
            <ns3:hr>156</ns3:hr>
            <ns3:cad>80</ns3:cad>
          </ns3:TrackPointExtension>
        </extensions>
      </trkpt>
      <trkpt lat="52.23151135258376598358154296875" lon="1.62530408240854740142822265625">
        <ele>-254</ele>
        <time>2025-09-07T08:14:22.000Z</time>
        <extensions>
          <ns3:TrackPointExtension>
            <ns3:hr>155</ns3:hr>
            <ns3:cad>80</ns3:cad>
          </ns3:TrackPointExtension>
        </extensions>
      </trkpt>
      <trkpt lat="52.23165200091898441314697265625" lon="1.6253601573407649993896484375">
        <ele>-253.600006103515625</ele>
        <time>2025-09-07T08:14:29.000Z</time>
        <extensions>
          <ns3:TrackPointExtension>
            <ns3:hr>155</ns3:hr>
            <ns3:cad>80</ns3:cad>
          </ns3:TrackPointExtension>
        </extensions>
      </trkpt>
      <trkpt lat="52.23181880079209804534912109375" lon="1.62535973824560642242431640625">
        <ele>-253.8000030517578125</ele>
        <time>2025-09-07T08:14:36.000Z</time>
        <extensions>
          <ns3:TrackPointExtension>
            <ns3:hr>155</ns3:hr>
            <ns3:cad>80</ns3:cad>
          </ns3:TrackPointExtension>
        </extensions>
      </trkpt>
      <trkpt lat="52.23199389874935150146484375" lon="1.625362001359462738037109375">
        <ele>-254</ele>
        <time>2025-09-07T08:14:43.000Z</time>
        <extensions>
          <ns3:TrackPointExtension>
            <ns3:hr>158</ns3:hr>
            <ns3:cad>81</ns3:cad>
          </ns3:TrackPointExtension>
        </extensions>
      </trkpt>
      <trkpt lat="52.232018373906612396240234375" lon="1.625365354120731353759765625">
        <ele>-254</ele>
        <time>2025-09-07T08:14:44.000Z</time>
        <extensions>
          <ns3:TrackPointExtension>
            <ns3:hr>158</ns3:hr>
            <ns3:cad>81</ns3:cad>
          </ns3:TrackPointExtension>
        </extensions>
      </trkpt>
      <trkpt lat="52.23208735696971416473388671875" lon="1.6253744065761566162109375">
        <ele>-254.8000030517578125</ele>
        <time>2025-09-07T08:14:47.000Z</time>
        <extensions>
          <ns3:TrackPointExtension>
            <ns3:hr>157</ns3:hr>
            <ns3:cad>80</ns3:cad>
          </ns3:TrackPointExtension>
        </extensions>
      </trkpt>
      <trkpt lat="52.23214946687221527099609375" lon="1.62538153119385242462158203125">
        <ele>-255.8000030517578125</ele>
        <time>2025-09-07T08:14:50.000Z</time>
        <extensions>
          <ns3:TrackPointExtension>
            <ns3:hr>157</ns3:hr>
            <ns3:cad>81</ns3:cad>
          </ns3:TrackPointExtension>
        </extensions>
      </trkpt>
      <trkpt lat="52.232216186821460723876953125" lon="1.62539519369602203369140625">
        <ele>-256.399993896484375</ele>
        <time>2025-09-07T08:14:53.000Z</time>
        <extensions>
          <ns3:TrackPointExtension>
            <ns3:hr>157</ns3:hr>
            <ns3:cad>80</ns3:cad>
          </ns3:TrackPointExtension>
        </extensions>
      </trkpt>
      <trkpt lat="52.2322569228708744049072265625" lon="1.62540667690336704254150390625">
        <ele>-257</ele>
        <time>2025-09-07T08:14:55.000Z</time>
        <extensions>
          <ns3:TrackPointExtension>
            <ns3:hr>157</ns3:hr>
            <ns3:cad>80</ns3:cad>
          </ns3:TrackPointExtension>
        </extensions>
      </trkpt>
      <trkpt lat="52.2323823161423206329345703125" lon="1.62546384148299694061279296875">
        <ele>-258.20001220703125</ele>
        <time>2025-09-07T08:15:00.000Z</time>
        <extensions>
          <ns3:TrackPointExtension>
            <ns3:hr>157</ns3:hr>
            <ns3:cad>80</ns3:cad>
          </ns3:TrackPointExtension>
        </extensions>
      </trkpt>
      <trkpt lat="52.23240318708121776580810546875" lon="1.62547297775745391845703125">
        <ele>-258.20001220703125</ele>
        <time>2025-09-07T08:15:02.000Z</time>
        <extensions>
          <ns3:TrackPointExtension>
            <ns3:hr>156</ns3:hr>
            <ns3:cad>80</ns3:cad>
          </ns3:TrackPointExtension>
        </extensions>
      </trkpt>
      <trkpt lat="52.23258155398070812225341796875" lon="1.6255281306803226470947265625">
        <ele>-259.20001220703125</ele>
        <time>2025-09-07T08:15:10.000Z</time>
        <extensions>
          <ns3:TrackPointExtension>
            <ns3:hr>155</ns3:hr>
            <ns3:cad>81</ns3:cad>
          </ns3:TrackPointExtension>
        </extensions>
      </trkpt>
      <trkpt lat="52.23262513987720012664794921875" lon="1.62553709931671619415283203125">
        <ele>-259.399993896484375</ele>
        <time>2025-09-07T08:15:12.000Z</time>
        <extensions>
          <ns3:TrackPointExtension>
            <ns3:hr>156</ns3:hr>
            <ns3:cad>81</ns3:cad>
          </ns3:TrackPointExtension>
        </extensions>
      </trkpt>
      <trkpt lat="52.232716083526611328125" lon="1.62557817064225673675537109375">
        <ele>-259.20001220703125</ele>
        <time>2025-09-07T08:15:17.000Z</time>
        <extensions>
          <ns3:TrackPointExtension>
            <ns3:hr>155</ns3:hr>
            <ns3:cad>81</ns3:cad>
          </ns3:TrackPointExtension>
        </extensions>
      </trkpt>
      <trkpt lat="52.23290761001408100128173828125" lon="1.625622175633907318115234375">
        <ele>-259.20001220703125</ele>
        <time>2025-09-07T08:15:27.000Z</time>
        <extensions>
          <ns3:TrackPointExtension>
            <ns3:hr>153</ns3:hr>
            <ns3:cad>80</ns3:cad>
          </ns3:TrackPointExtension>
        </extensions>
      </trkpt>
      <trkpt lat="52.23302428610622882843017578125" lon="1.62566869519650936126708984375">
        <ele>-258.600006103515625</ele>
        <time>2025-09-07T08:15:34.000Z</time>
        <extensions>
          <ns3:TrackPointExtension>
            <ns3:hr>154</ns3:hr>
            <ns3:cad>80</ns3:cad>
          </ns3:TrackPointExtension>
        </extensions>
      </trkpt>
      <trkpt lat="52.23304909653961658477783203125" lon="1.62567690946161746978759765625">
        <ele>-258</ele>
        <time>2025-09-07T08:15:35.000Z</time>
        <extensions>
          <ns3:TrackPointExtension>
            <ns3:hr>154</ns3:hr>
            <ns3:cad>80</ns3:cad>
          </ns3:TrackPointExtension>
        </extensions>
      </trkpt>
      <trkpt lat="52.23319628275930881500244140625" lon="1.6257078386843204498291015625">
        <ele>-258</ele>
        <time>2025-09-07T08:15:42.000Z</time>
        <extensions>
          <ns3:TrackPointExtension>
            <ns3:hr>155</ns3:hr>
            <ns3:cad>81</ns3:cad>
          </ns3:TrackPointExtension>
        </extensions>
      </trkpt>
      <trkpt lat="52.23333693109452724456787109375" lon="1.62574782036244869232177734375">
        <ele>-258.399993896484375</ele>
        <time>2025-09-07T08:15:49.000Z</time>
        <extensions>
          <ns3:TrackPointExtension>
            <ns3:hr>155</ns3:hr>
            <ns3:cad>80</ns3:cad>
          </ns3:TrackPointExtension>
        </extensions>
      </trkpt>
      <trkpt lat="52.23337800242006778717041015625" lon="1.6257544420659542083740234375">
        <ele>-259</ele>
        <time>2025-09-07T08:15:51.000Z</time>
        <extensions>
          <ns3:TrackPointExtension>
            <ns3:hr>156</ns3:hr>
            <ns3:cad>79</ns3:cad>
          </ns3:TrackPointExtension>
        </extensions>
      </trkpt>
      <trkpt lat="52.2334711253643035888671875" lon="1.62576575763523578643798828125">
        <ele>-259.79998779296875</ele>
        <time>2025-09-07T08:15:56.000Z</time>
        <extensions>
          <ns3:TrackPointExtension>
            <ns3:hr>156</ns3:hr>
            <ns3:cad>80</ns3:cad>
          </ns3:TrackPointExtension>
        </extensions>
      </trkpt>
      <trkpt lat="52.23349350504577159881591796875" lon="1.62576827220618724822998046875">
        <ele>-260.20001220703125</ele>
        <time>2025-09-07T08:15:57.000Z</time>
        <extensions>
          <ns3:TrackPointExtension>
            <ns3:hr>156</ns3:hr>
            <ns3:cad>80</ns3:cad>
          </ns3:TrackPointExtension>
        </extensions>
      </trkpt>
      <trkpt lat="52.233607582747936248779296875" lon="1.6257936693727970123291015625">
        <ele>-260.600006103515625</ele>
        <time>2025-09-07T08:16:03.000Z</time>
        <extensions>
          <ns3:TrackPointExtension>
            <ns3:hr>157</ns3:hr>
            <ns3:cad>80</ns3:cad>
          </ns3:TrackPointExtension>
        </extensions>
      </trkpt>
      <trkpt lat="52.233696766197681427001953125" lon="1.62580615840852260589599609375">
        <ele>-260.79998779296875</ele>
        <time>2025-09-07T08:16:09.000Z</time>
        <extensions>
          <ns3:TrackPointExtension>
            <ns3:hr>158</ns3:hr>
            <ns3:cad>0</ns3:cad>
          </ns3:TrackPointExtension>
        </extensions>
      </trkpt>
      <trkpt lat="52.23370623774826526641845703125" lon="1.6258228383958339691162109375">
        <ele>-258.79998779296875</ele>
        <time>2025-09-07T08:16:14.000Z</time>
        <extensions>
          <ns3:TrackPointExtension>
            <ns3:hr>159</ns3:hr>
            <ns3:cad>0</ns3:cad>
          </ns3:TrackPointExtension>
        </extensions>
      </trkpt>
      <trkpt lat="52.2337063215672969818115234375" lon="1.625829041004180908203125">
        <ele>-258.399993896484375</ele>
        <time>2025-09-07T08:16:15.000Z</time>
        <extensions>
          <ns3:TrackPointExtension>
            <ns3:hr>159</ns3:hr>
            <ns3:cad>0</ns3:cad>
          </ns3:TrackPointExtension>
        </extensions>
      </trkpt>
      <trkpt lat="52.2337096743285655975341796875" lon="1.62583465687930583953857421875">
        <ele>-257.79998779296875</ele>
        <time>2025-09-07T08:16:16.000Z</time>
        <extensions>
          <ns3:TrackPointExtension>
            <ns3:hr>157</ns3:hr>
            <ns3:cad>0</ns3:cad>
          </ns3:TrackPointExtension>
        </extensions>
      </trkpt>
      <trkpt lat="52.23371227271854877471923828125" lon="1.62583834491670131683349609375">
        <ele>-256.79998779296875</ele>
        <time>2025-09-07T08:16:17.000Z</time>
        <extensions>
          <ns3:TrackPointExtension>
            <ns3:hr>155</ns3:hr>
            <ns3:cad>0</ns3:cad>
          </ns3:TrackPointExtension>
        </extensions>
      </trkpt>
      <trkpt lat="52.23371344618499279022216796875" lon="1.625836081802845001220703125">
        <ele>-255</ele>
        <time>2025-09-07T08:16:19.000Z</time>
        <extensions>
          <ns3:TrackPointExtension>
            <ns3:hr>152</ns3:hr>
            <ns3:cad>0</ns3:cad>
          </ns3:TrackPointExtension>
        </extensions>
      </trkpt>
      <trkpt lat="52.23375141620635986328125" lon="1.6258054040372371673583984375">
        <ele>-254</ele>
        <time>2025-09-07T08:16:23.000Z</time>
        <extensions>
          <ns3:TrackPointExtension>
            <ns3:hr>149</ns3:hr>
            <ns3:cad>0</ns3:cad>
          </ns3:TrackPointExtension>
        </extensions>
      </trkpt>
      <trkpt lat="52.2337660007178783416748046875" lon="1.62579777650535106658935546875">
        <ele>-254</ele>
        <time>2025-09-07T08:16:24.000Z</time>
        <extensions>
          <ns3:TrackPointExtension>
            <ns3:hr>149</ns3:hr>
            <ns3:cad>0</ns3:cad>
          </ns3:TrackPointExtension>
        </extensions>
      </trkpt>
      <trkpt lat="52.23378217779099941253662109375" lon="1.6257928311824798583984375">
        <ele>-254</ele>
        <time>2025-09-07T08:16:25.000Z</time>
        <extensions>
          <ns3:TrackPointExtension>
            <ns3:hr>149</ns3:hr>
            <ns3:cad>75</ns3:cad>
          </ns3:TrackPointExtension>
        </extensions>
      </trkpt>
      <trkpt lat="52.23391033709049224853515625" lon="1.62578050978481769561767578125">
        <ele>-254.8000030517578125</ele>
        <time>2025-09-07T08:16:31.000Z</time>
        <extensions>
          <ns3:TrackPointExtension>
            <ns3:hr>151</ns3:hr>
            <ns3:cad>77</ns3:cad>
          </ns3:TrackPointExtension>
        </extensions>
      </trkpt>
      <trkpt lat="52.2339292801916599273681640625" lon="1.62578084506094455718994140625">
        <ele>-255.1999969482421875</ele>
        <time>2025-09-07T08:16:32.000Z</time>
        <extensions>
          <ns3:TrackPointExtension>
            <ns3:hr>152</ns3:hr>
            <ns3:cad>77</ns3:cad>
          </ns3:TrackPointExtension>
        </extensions>
      </trkpt>
      <trkpt lat="52.23396993242204189300537109375" lon="1.625786125659942626953125">
        <ele>-255.8000030517578125</ele>
        <time>2025-09-07T08:16:34.000Z</time>
        <extensions>
          <ns3:TrackPointExtension>
            <ns3:hr>156</ns3:hr>
            <ns3:cad>77</ns3:cad>
          </ns3:TrackPointExtension>
        </extensions>
      </trkpt>
      <trkpt lat="52.23400949500501155853271484375" lon="1.6257842816412448883056640625">
        <ele>-256.600006103515625</ele>
        <time>2025-09-07T08:16:36.000Z</time>
        <extensions>
          <ns3:TrackPointExtension>
            <ns3:hr>155</ns3:hr>
            <ns3:cad>77</ns3:cad>
          </ns3:TrackPointExtension>
        </extensions>
      </trkpt>
      <trkpt lat="52.23407168872654438018798828125" lon="1.6257893107831478118896484375">
        <ele>-257.79998779296875</ele>
        <time>2025-09-07T08:16:39.000Z</time>
        <extensions>
          <ns3:TrackPointExtension>
            <ns3:hr>158</ns3:hr>
            <ns3:cad>79</ns3:cad>
          </ns3:TrackPointExtension>
        </extensions>
      </trkpt>
      <trkpt lat="52.23409272730350494384765625" lon="1.625788472592830657958984375">
        <ele>-258</ele>
        <time>2025-09-07T08:16:40.000Z</time>
        <extensions>
          <ns3:TrackPointExtension>
            <ns3:hr>159</ns3:hr>
            <ns3:cad>80</ns3:cad>
          </ns3:TrackPointExtension>
        </extensions>
      </trkpt>
      <trkpt lat="52.234211079776287078857421875" lon="1.62578168325126171112060546875">
        <ele>-258.399993896484375</ele>
        <time>2025-09-07T08:16:46.000Z</time>
        <extensions>
          <ns3:TrackPointExtension>
            <ns3:hr>162</ns3:hr>
            <ns3:cad>80</ns3:cad>
          </ns3:TrackPointExtension>
        </extensions>
      </trkpt>
      <trkpt lat="52.23423077724874019622802734375" lon="1.62578453309834003448486328125">
        <ele>-258.399993896484375</ele>
        <time>2025-09-07T08:16:47.000Z</time>
        <extensions>
          <ns3:TrackPointExtension>
            <ns3:hr>160</ns3:hr>
            <ns3:cad>80</ns3:cad>
          </ns3:TrackPointExtension>
        </extensions>
      </trkpt>
      <trkpt lat="52.2343101538717746734619140625" lon="1.625804901123046875">
        <ele>-259</ele>
        <time>2025-09-07T08:16:51.000Z</time>
        <extensions>
          <ns3:TrackPointExtension>
            <ns3:hr>157</ns3:hr>
            <ns3:cad>80</ns3:cad>
          </ns3:TrackPointExtension>
        </extensions>
      </trkpt>
      <trkpt lat="52.23434980027377605438232421875" lon="1.6258208267390727996826171875">
        <ele>-259</ele>
        <time>2025-09-07T08:16:53.000Z</time>
        <extensions>
          <ns3:TrackPointExtension>
            <ns3:hr>151</ns3:hr>
            <ns3:cad>80</ns3:cad>
          </ns3:TrackPointExtension>
        </extensions>
      </trkpt>
      <trkpt lat="52.23441182635724544525146484375" lon="1.625842787325382232666015625">
        <ele>-259.79998779296875</ele>
        <time>2025-09-07T08:16:56.000Z</time>
        <extensions>
          <ns3:TrackPointExtension>
            <ns3:hr>148</ns3:hr>
            <ns3:cad>81</ns3:cad>
          </ns3:TrackPointExtension>
        </extensions>
      </trkpt>
      <trkpt lat="52.23442926071584224700927734375" lon="1.6258543543517589569091796875">
        <ele>-260</ele>
        <time>2025-09-07T08:16:57.000Z</time>
        <extensions>
          <ns3:TrackPointExtension>
            <ns3:hr>148</ns3:hr>
            <ns3:cad>81</ns3:cad>
          </ns3:TrackPointExtension>
        </extensions>
      </trkpt>
      <trkpt lat="52.234567813575267791748046875" lon="1.62592828273773193359375">
        <ele>-260.399993896484375</ele>
        <time>2025-09-07T08:17:04.000Z</time>
        <extensions>
          <ns3:TrackPointExtension>
            <ns3:hr>147</ns3:hr>
            <ns3:cad>79</ns3:cad>
          </ns3:TrackPointExtension>
        </extensions>
      </trkpt>
      <trkpt lat="52.2346980683505535125732421875" lon="1.6259676776826381683349609375">
        <ele>-260.79998779296875</ele>
        <time>2025-09-07T08:17:11.000Z</time>
        <extensions>
          <ns3:TrackPointExtension>
            <ns3:hr>150</ns3:hr>
            <ns3:cad>80</ns3:cad>
          </ns3:TrackPointExtension>
        </extensions>
      </trkpt>
      <trkpt lat="52.23472078330814838409423828125" lon="1.62597429938614368438720703125">
        <ele>-261</ele>
        <time>2025-09-07T08:17:12.000Z</time>
        <extensions>
          <ns3:TrackPointExtension>
            <ns3:hr>150</ns3:hr>
            <ns3:cad>80</ns3:cad>
          </ns3:TrackPointExtension>
        </extensions>
      </trkpt>
      <trkpt lat="52.234791778028011322021484375" lon="1.62599156610667705535888671875">
        <ele>-261</ele>
        <time>2025-09-07T08:17:15.000Z</time>
        <extensions>
          <ns3:TrackPointExtension>
            <ns3:hr>152</ns3:hr>
            <ns3:cad>80</ns3:cad>
          </ns3:TrackPointExtension>
        </extensions>
      </trkpt>
      <trkpt lat="52.234872244298458099365234375" lon="1.62600271403789520263671875">
        <ele>-261.399993896484375</ele>
        <time>2025-09-07T08:17:19.000Z</time>
        <extensions>
          <ns3:TrackPointExtension>
            <ns3:hr>151</ns3:hr>
            <ns3:cad>79</ns3:cad>
          </ns3:TrackPointExtension>
        </extensions>
      </trkpt>
      <trkpt lat="52.234990932047367095947265625" lon="1.62605124525725841522216796875">
        <ele>-261.79998779296875</ele>
        <time>2025-09-07T08:17:25.000Z</time>
        <extensions>
          <ns3:TrackPointExtension>
            <ns3:hr>154</ns3:hr>
            <ns3:cad>80</ns3:cad>
          </ns3:TrackPointExtension>
        </extensions>
      </trkpt>
      <trkpt lat="52.23501674830913543701171875" lon="1.62606448866426944732666015625">
        <ele>-261.79998779296875</ele>
        <time>2025-09-07T08:17:26.000Z</time>
        <extensions>
          <ns3:TrackPointExtension>
            <ns3:hr>154</ns3:hr>
            <ns3:cad>80</ns3:cad>
          </ns3:TrackPointExtension>
        </extensions>
      </trkpt>
      <trkpt lat="52.23508841358125209808349609375" lon="1.62609198130667209625244140625">
        <ele>-262.20001220703125</ele>
        <time>2025-09-07T08:17:29.000Z</time>
        <extensions>
          <ns3:TrackPointExtension>
            <ns3:hr>155</ns3:hr>
            <ns3:cad>79</ns3:cad>
          </ns3:TrackPointExtension>
        </extensions>
      </trkpt>
      <trkpt lat="52.2351647727191448211669921875" lon="1.62612802349030971527099609375">
        <ele>-263</ele>
        <time>2025-09-07T08:17:33.000Z</time>
        <extensions>
          <ns3:TrackPointExtension>
            <ns3:hr>155</ns3:hr>
            <ns3:cad>80</ns3:cad>
          </ns3:TrackPointExtension>
        </extensions>
      </trkpt>
      <trkpt lat="52.23517675884068012237548828125" lon="1.62613439373672008514404296875">
        <ele>-264.600006103515625</ele>
        <time>2025-09-07T08:17:34.000Z</time>
        <extensions>
          <ns3:TrackPointExtension>
            <ns3:hr>155</ns3:hr>
            <ns3:cad>80</ns3:cad>
          </ns3:TrackPointExtension>
        </extensions>
      </trkpt>
      <trkpt lat="52.23520978353917598724365234375" lon="1.6261468827724456787109375">
        <ele>-266.600006103515625</ele>
        <time>2025-09-07T08:17:36.000Z</time>
        <extensions>
          <ns3:TrackPointExtension>
            <ns3:hr>155</ns3:hr>
            <ns3:cad>80</ns3:cad>
          </ns3:TrackPointExtension>
        </extensions>
      </trkpt>
      <trkpt lat="52.235235013067722320556640625" lon="1.62615233100950717926025390625">
        <ele>-267.600006103515625</ele>
        <time>2025-09-07T08:17:37.000Z</time>
        <extensions>
          <ns3:TrackPointExtension>
            <ns3:hr>156</ns3:hr>
            <ns3:cad>80</ns3:cad>
          </ns3:TrackPointExtension>
        </extensions>
      </trkpt>
      <trkpt lat="52.2352552972733974456787109375" lon="1.6261587850749492645263671875">
        <ele>-269</ele>
        <time>2025-09-07T08:17:38.000Z</time>
        <extensions>
          <ns3:TrackPointExtension>
            <ns3:hr>156</ns3:hr>
            <ns3:cad>80</ns3:cad>
          </ns3:TrackPointExtension>
        </extensions>
      </trkpt>
      <trkpt lat="52.235294692218303680419921875" lon="1.62617596797645092010498046875">
        <ele>-270.399993896484375</ele>
        <time>2025-09-07T08:17:40.000Z</time>
        <extensions>
          <ns3:TrackPointExtension>
            <ns3:hr>157</ns3:hr>
            <ns3:cad>80</ns3:cad>
          </ns3:TrackPointExtension>
        </extensions>
      </trkpt>
      <trkpt lat="52.23531086929142475128173828125" lon="1.62617948837578296661376953125">
        <ele>-271.20001220703125</ele>
        <time>2025-09-07T08:17:41.000Z</time>
        <extensions>
          <ns3:TrackPointExtension>
            <ns3:hr>157</ns3:hr>
            <ns3:cad>81</ns3:cad>
          </ns3:TrackPointExtension>
        </extensions>
      </trkpt>
      <trkpt lat="52.23532897420227527618408203125" lon="1.62618150003254413604736328125">
        <ele>-271.600006103515625</ele>
        <time>2025-09-07T08:17:42.000Z</time>
        <extensions>
          <ns3:TrackPointExtension>
            <ns3:hr>158</ns3:hr>
            <ns3:cad>81</ns3:cad>
          </ns3:TrackPointExtension>
        </extensions>
      </trkpt>
      <trkpt lat="52.2354886494576930999755859375" lon="1.626214273273944854736328125">
        <ele>-271.600006103515625</ele>
        <time>2025-09-07T08:17:49.000Z</time>
        <extensions>
          <ns3:TrackPointExtension>
            <ns3:hr>160</ns3:hr>
            <ns3:cad>80</ns3:cad>
          </ns3:TrackPointExtension>
        </extensions>
      </trkpt>
      <trkpt lat="52.23552812822163105010986328125" lon="1.62622793577611446380615234375">
        <ele>-271</ele>
        <time>2025-09-07T08:17:51.000Z</time>
        <extensions>
          <ns3:TrackPointExtension>
            <ns3:hr>163</ns3:hr>
            <ns3:cad>81</ns3:cad>
          </ns3:TrackPointExtension>
        </extensions>
      </trkpt>
      <trkpt lat="52.23556132055819034576416015625" lon="1.6262399218976497650146484375">
        <ele>-270.600006103515625</ele>
        <time>2025-09-07T08:17:53.000Z</time>
        <extensions>
          <ns3:TrackPointExtension>
            <ns3:hr>162</ns3:hr>
            <ns3:cad>81</ns3:cad>
          </ns3:TrackPointExtension>
        </extensions>
      </trkpt>
      <trkpt lat="52.23561161197721958160400390625" lon="1.62624570541083812713623046875">
        <ele>-270.399993896484375</ele>
        <time>2025-09-07T08:17:56.000Z</time>
        <extensions>
          <ns3:TrackPointExtension>
            <ns3:hr>163</ns3:hr>
            <ns3:cad>81</ns3:cad>
          </ns3:TrackPointExtension>
        </extensions>
      </trkpt>
      <trkpt lat="52.2356468997895717620849609375" lon="1.62625215947628021240234375">
        <ele>-269.399993896484375</ele>
        <time>2025-09-07T08:17:58.000Z</time>
        <extensions>
          <ns3:TrackPointExtension>
            <ns3:hr>163</ns3:hr>
            <ns3:cad>81</ns3:cad>
          </ns3:TrackPointExtension>
        </extensions>
      </trkpt>
      <trkpt lat="52.23568671382963657379150390625" lon="1.6262533329427242279052734375">
        <ele>-268</ele>
        <time>2025-09-07T08:18:00.000Z</time>
        <extensions>
          <ns3:TrackPointExtension>
            <ns3:hr>162</ns3:hr>
            <ns3:cad>81</ns3:cad>
          </ns3:TrackPointExtension>
        </extensions>
      </trkpt>
      <trkpt lat="52.23574371077120304107666015625" lon="1.626270599663257598876953125">
        <ele>-267.79998779296875</ele>
        <time>2025-09-07T08:18:03.000Z</time>
        <extensions>
          <ns3:TrackPointExtension>
            <ns3:hr>159</ns3:hr>
            <ns3:cad>80</ns3:cad>
          </ns3:TrackPointExtension>
        </extensions>
      </trkpt>
      <trkpt lat="52.235802970826625823974609375" lon="1.62630714476108551025390625">
        <ele>-268.20001220703125</ele>
        <time>2025-09-07T08:18:06.000Z</time>
        <extensions>
          <ns3:TrackPointExtension>
            <ns3:hr>158</ns3:hr>
            <ns3:cad>81</ns3:cad>
          </ns3:TrackPointExtension>
        </extensions>
      </trkpt>
      <trkpt lat="52.23585669882595539093017578125" lon="1.62635064683854579925537109375">
        <ele>-268.399993896484375</ele>
        <time>2025-09-07T08:18:09.000Z</time>
        <extensions>
          <ns3:TrackPointExtension>
            <ns3:hr>158</ns3:hr>
            <ns3:cad>81</ns3:cad>
          </ns3:TrackPointExtension>
        </extensions>
      </trkpt>
      <trkpt lat="52.2359226644039154052734375" lon="1.62638761103153228759765625">
        <ele>-269.399993896484375</ele>
        <time>2025-09-07T08:18:12.000Z</time>
        <extensions>
          <ns3:TrackPointExtension>
            <ns3:hr>159</ns3:hr>
            <ns3:cad>81</ns3:cad>
          </ns3:TrackPointExtension>
        </extensions>
      </trkpt>
      <trkpt lat="52.23594638518989086151123046875" lon="1.62639875896275043487548828125">
        <ele>-269.399993896484375</ele>
        <time>2025-09-07T08:18:13.000Z</time>
        <extensions>
          <ns3:TrackPointExtension>
            <ns3:hr>160</ns3:hr>
            <ns3:cad>81</ns3:cad>
          </ns3:TrackPointExtension>
        </extensions>
      </trkpt>
      <trkpt lat="52.23611704073846340179443359375" lon="1.6265061311423778533935546875">
        <ele>-269.79998779296875</ele>
        <time>2025-09-07T08:18:21.000Z</time>
        <extensions>
          <ns3:TrackPointExtension>
            <ns3:hr>158</ns3:hr>
            <ns3:cad>81</ns3:cad>
          </ns3:TrackPointExtension>
        </extensions>
      </trkpt>
      <trkpt lat="52.2362403385341167449951171875" lon="1.6265926323831081390380859375">
        <ele>-270.20001220703125</ele>
        <time>2025-09-07T08:18:28.000Z</time>
        <extensions>
          <ns3:TrackPointExtension>
            <ns3:hr>162</ns3:hr>
            <ns3:cad>81</ns3:cad>
          </ns3:TrackPointExtension>
        </extensions>
      </trkpt>
      <trkpt lat="52.2362713515758514404296875" lon="1.62661417387425899505615234375">
        <ele>-270.600006103515625</ele>
        <time>2025-09-07T08:18:30.000Z</time>
        <extensions>
          <ns3:TrackPointExtension>
            <ns3:hr>163</ns3:hr>
            <ns3:cad>81</ns3:cad>
          </ns3:TrackPointExtension>
        </extensions>
      </trkpt>
      <trkpt lat="52.23633530549705028533935546875" lon="1.62662993185222148895263671875">
        <ele>-271.600006103515625</ele>
        <time>2025-09-07T08:18:33.000Z</time>
        <extensions>
          <ns3:TrackPointExtension>
            <ns3:hr>163</ns3:hr>
            <ns3:cad>81</ns3:cad>
          </ns3:TrackPointExtension>
        </extensions>
      </trkpt>
      <trkpt lat="52.2363928891718387603759765625" lon="1.62664711475372314453125">
        <ele>-272</ele>
        <time>2025-09-07T08:18:36.000Z</time>
        <extensions>
          <ns3:TrackPointExtension>
            <ns3:hr>163</ns3:hr>
            <ns3:cad>80</ns3:cad>
          </ns3:TrackPointExtension>
        </extensions>
      </trkpt>
      <trkpt lat="52.2364522330462932586669921875" lon="1.6266699135303497314453125">
        <ele>-273</ele>
        <time>2025-09-07T08:18:39.000Z</time>
        <extensions>
          <ns3:TrackPointExtension>
            <ns3:hr>163</ns3:hr>
            <ns3:cad>80</ns3:cad>
          </ns3:TrackPointExtension>
        </extensions>
      </trkpt>
      <trkpt lat="52.2365702502429485321044921875" lon="1.62674836814403533935546875">
        <ele>-274</ele>
        <time>2025-09-07T08:18:45.000Z</time>
        <extensions>
          <ns3:TrackPointExtension>
            <ns3:hr>163</ns3:hr>
            <ns3:cad>80</ns3:cad>
          </ns3:TrackPointExtension>
        </extensions>
      </trkpt>
      <trkpt lat="52.23669740371406078338623046875" lon="1.62678332068026065826416015625">
        <ele>-275</ele>
        <time>2025-09-07T08:18:50.000Z</time>
        <extensions>
          <ns3:TrackPointExtension>
            <ns3:hr>162</ns3:hr>
            <ns3:cad>80</ns3:cad>
          </ns3:TrackPointExtension>
        </extensions>
      </trkpt>
      <trkpt lat="52.236718274652957916259765625" lon="1.62677946500480175018310546875">
        <ele>-275.399993896484375</ele>
        <time>2025-09-07T08:18:51.000Z</time>
        <extensions>
          <ns3:TrackPointExtension>
            <ns3:hr>162</ns3:hr>
            <ns3:cad>80</ns3:cad>
          </ns3:TrackPointExtension>
        </extensions>
      </trkpt>
      <trkpt lat="52.2368988208472728729248046875" lon="1.6267750225961208343505859375">
        <ele>-274.20001220703125</ele>
        <time>2025-09-07T08:18:59.000Z</time>
        <extensions>
          <ns3:TrackPointExtension>
            <ns3:hr>163</ns3:hr>
            <ns3:cad>80</ns3:cad>
          </ns3:TrackPointExtension>
        </extensions>
      </trkpt>
      <trkpt lat="52.23692136816680431365966796875" lon="1.62678466178476810455322265625">
        <ele>-274.20001220703125</ele>
        <time>2025-09-07T08:19:00.000Z</time>
        <extensions>
          <ns3:TrackPointExtension>
            <ns3:hr>162</ns3:hr>
            <ns3:cad>80</ns3:cad>
          </ns3:TrackPointExtension>
        </extensions>
      </trkpt>
      <trkpt lat="52.23694433458149433135986328125" lon="1.62680737674236297607421875">
        <ele>-274</ele>
        <time>2025-09-07T08:19:01.000Z</time>
        <extensions>
          <ns3:TrackPointExtension>
            <ns3:hr>162</ns3:hr>
            <ns3:cad>80</ns3:cad>
          </ns3:TrackPointExtension>
        </extensions>
      </trkpt>
      <trkpt lat="52.237040139734745025634765625" lon="1.6269064508378505706787109375">
        <ele>-272.79998779296875</ele>
        <time>2025-09-07T08:19:07.000Z</time>
        <extensions>
          <ns3:TrackPointExtension>
            <ns3:hr>163</ns3:hr>
            <ns3:cad>79</ns3:cad>
          </ns3:TrackPointExtension>
        </extensions>
      </trkpt>
      <trkpt lat="52.23710618913173675537109375" lon="1.6269604302942752838134765625">
        <ele>-271.600006103515625</ele>
        <time>2025-09-07T08:19:12.000Z</time>
        <extensions>
          <ns3:TrackPointExtension>
            <ns3:hr>165</ns3:hr>
            <ns3:cad>80</ns3:cad>
          </ns3:TrackPointExtension>
        </extensions>
      </trkpt>
      <trkpt lat="52.23716042004525661468505859375" lon="1.626988090574741363525390625">
        <ele>-271.20001220703125</ele>
        <time>2025-09-07T08:19:15.000Z</time>
        <extensions>
          <ns3:TrackPointExtension>
            <ns3:hr>164</ns3:hr>
            <ns3:cad>79</ns3:cad>
          </ns3:TrackPointExtension>
        </extensions>
      </trkpt>
      <trkpt lat="52.2373132221400737762451171875" lon="1.627046428620815277099609375">
        <ele>-271</ele>
        <time>2025-09-07T08:19:23.000Z</time>
        <extensions>
          <ns3:TrackPointExtension>
            <ns3:hr>165</ns3:hr>
            <ns3:cad>80</ns3:cad>
          </ns3:TrackPointExtension>
        </extensions>
      </trkpt>
      <trkpt lat="52.2374872304499149322509765625" lon="1.6271267272531986236572265625">
        <ele>-271.20001220703125</ele>
        <time>2025-09-07T08:19:32.000Z</time>
        <extensions>
          <ns3:TrackPointExtension>
            <ns3:hr>164</ns3:hr>
            <ns3:cad>80</ns3:cad>
          </ns3:TrackPointExtension>
        </extensions>
      </trkpt>
      <trkpt lat="52.23767188377678394317626953125" lon="1.62715078331530094146728515625">
        <ele>-272.399993896484375</ele>
        <time>2025-09-07T08:19:40.000Z</time>
        <extensions>
          <ns3:TrackPointExtension>
            <ns3:hr>164</ns3:hr>
            <ns3:cad>79</ns3:cad>
          </ns3:TrackPointExtension>
        </extensions>
      </trkpt>
      <trkpt lat="52.23772175610065460205078125" lon="1.62714223377406597137451171875">
        <ele>-272.600006103515625</ele>
        <time>2025-09-07T08:19:42.000Z</time>
        <extensions>
          <ns3:TrackPointExtension>
            <ns3:hr>164</ns3:hr>
            <ns3:cad>79</ns3:cad>
          </ns3:TrackPointExtension>
        </extensions>
      </trkpt>
      <trkpt lat="52.2377836145460605621337890625" lon="1.6271196864545345306396484375">
        <ele>-273.600006103515625</ele>
        <time>2025-09-07T08:19:45.000Z</time>
        <extensions>
          <ns3:TrackPointExtension>
            <ns3:hr>163</ns3:hr>
            <ns3:cad>79</ns3:cad>
          </ns3:TrackPointExtension>
        </extensions>
      </trkpt>
      <trkpt lat="52.23782476969063282012939453125" lon="1.62711708806455135345458984375">
        <ele>-273.600006103515625</ele>
        <time>2025-09-07T08:19:47.000Z</time>
        <extensions>
          <ns3:TrackPointExtension>
            <ns3:hr>164</ns3:hr>
            <ns3:cad>79</ns3:cad>
          </ns3:TrackPointExtension>
        </extensions>
      </trkpt>
      <trkpt lat="52.23792501725256443023681640625" lon="1.62710568867623805999755859375">
        <ele>-272.399993896484375</ele>
        <time>2025-09-07T08:19:52.000Z</time>
        <extensions>
          <ns3:TrackPointExtension>
            <ns3:hr>163</ns3:hr>
            <ns3:cad>80</ns3:cad>
          </ns3:TrackPointExtension>
        </extensions>
      </trkpt>
      <trkpt lat="52.2379653342068195343017578125" lon="1.6271156631410121917724609375">
        <ele>-271</ele>
        <time>2025-09-07T08:19:54.000Z</time>
        <extensions>
          <ns3:TrackPointExtension>
            <ns3:hr>162</ns3:hr>
            <ns3:cad>80</ns3:cad>
          </ns3:TrackPointExtension>
        </extensions>
      </trkpt>
      <trkpt lat="52.23801755346357822418212890625" lon="1.62713251076638698577880859375">
        <ele>-270</ele>
        <time>2025-09-07T08:19:56.000Z</time>
        <extensions>
          <ns3:TrackPointExtension>
            <ns3:hr>162</ns3:hr>
            <ns3:cad>79</ns3:cad>
          </ns3:TrackPointExtension>
        </extensions>
      </trkpt>
      <trkpt lat="52.238039262592792510986328125" lon="1.6271384619176387786865234375">
        <ele>-269.79998779296875</ele>
        <time>2025-09-07T08:19:57.000Z</time>
        <extensions>
          <ns3:TrackPointExtension>
            <ns3:hr>162</ns3:hr>
            <ns3:cad>80</ns3:cad>
          </ns3:TrackPointExtension>
        </extensions>
      </trkpt>
      <trkpt lat="52.238163985311985015869140625" lon="1.62719654850661754608154296875">
        <ele>-268.399993896484375</ele>
        <time>2025-09-07T08:20:03.000Z</time>
        <extensions>
          <ns3:TrackPointExtension>
            <ns3:hr>162</ns3:hr>
            <ns3:cad>80</ns3:cad>
          </ns3:TrackPointExtension>
        </extensions>
      </trkpt>
      <trkpt lat="52.2383203916251659393310546875" lon="1.62725991569459438323974609375">
        <ele>-267</ele>
        <time>2025-09-07T08:20:11.000Z</time>
        <extensions>
          <ns3:TrackPointExtension>
            <ns3:hr>161</ns3:hr>
            <ns3:cad>80</ns3:cad>
          </ns3:TrackPointExtension>
        </extensions>
      </trkpt>
      <trkpt lat="52.23834360949695110321044921875" lon="1.62727005779743194580078125">
        <ele>-266.79998779296875</ele>
        <time>2025-09-07T08:20:12.000Z</time>
        <extensions>
          <ns3:TrackPointExtension>
            <ns3:hr>161</ns3:hr>
            <ns3:cad>80</ns3:cad>
          </ns3:TrackPointExtension>
        </extensions>
      </trkpt>
      <trkpt lat="52.23844503052532672882080078125" lon="1.6272930242121219635009765625">
        <ele>-266</ele>
        <time>2025-09-07T08:20:18.000Z</time>
        <extensions>
          <ns3:TrackPointExtension>
            <ns3:hr>161</ns3:hr>
            <ns3:cad>80</ns3:cad>
          </ns3:TrackPointExtension>
        </extensions>
      </trkpt>
      <trkpt lat="52.2384585253894329071044921875" lon="1.62729931063950061798095703125">
        <ele>-265.399993896484375</ele>
        <time>2025-09-07T08:20:19.000Z</time>
        <extensions>
          <ns3:TrackPointExtension>
            <ns3:hr>161</ns3:hr>
            <ns3:cad>65</ns3:cad>
          </ns3:TrackPointExtension>
        </extensions>
      </trkpt>
      <trkpt lat="52.23849465139210224151611328125" lon="1.62730869837105274200439453125">
        <ele>-265</ele>
        <time>2025-09-07T08:20:22.000Z</time>
        <extensions>
          <ns3:TrackPointExtension>
            <ns3:hr>162</ns3:hr>
            <ns3:cad>65</ns3:cad>
          </ns3:TrackPointExtension>
        </extensions>
      </trkpt>
      <trkpt lat="52.23855751566588878631591796875" lon="1.6273091174662113189697265625">
        <ele>-266.20001220703125</ele>
        <time>2025-09-07T08:20:25.000Z</time>
        <extensions>
          <ns3:TrackPointExtension>
            <ns3:hr>161</ns3:hr>
            <ns3:cad>56</ns3:cad>
          </ns3:TrackPointExtension>
        </extensions>
      </trkpt>
      <trkpt lat="52.23857411183416843414306640625" lon="1.62730802781879901885986328125">
        <ele>-266.399993896484375</ele>
        <time>2025-09-07T08:20:26.000Z</time>
        <extensions>
          <ns3:TrackPointExtension>
            <ns3:hr>159</ns3:hr>
            <ns3:cad>56</ns3:cad>
          </ns3:TrackPointExtension>
        </extensions>
      </trkpt>
      <trkpt lat="52.23864577710628509521484375" lon="1.627311296761035919189453125">
        <ele>-267.399993896484375</ele>
        <time>2025-09-07T08:20:30.000Z</time>
        <extensions>
          <ns3:TrackPointExtension>
            <ns3:hr>151</ns3:hr>
            <ns3:cad>61</ns3:cad>
          </ns3:TrackPointExtension>
        </extensions>
      </trkpt>
      <trkpt lat="52.2386891953647136688232421875" lon="1.62732345052063465118408203125">
        <ele>-267.600006103515625</ele>
        <time>2025-09-07T08:20:32.000Z</time>
        <extensions>
          <ns3:TrackPointExtension>
            <ns3:hr>148</ns3:hr>
            <ns3:cad>61</ns3:cad>
          </ns3:TrackPointExtension>
        </extensions>
      </trkpt>
      <trkpt lat="52.23871149122714996337890625" lon="1.627328060567378997802734375">
        <ele>-267.600006103515625</ele>
        <time>2025-09-07T08:20:33.000Z</time>
        <extensions>
          <ns3:TrackPointExtension>
            <ns3:hr>148</ns3:hr>
            <ns3:cad>80</ns3:cad>
          </ns3:TrackPointExtension>
        </extensions>
      </trkpt>
      <trkpt lat="52.23879841156303882598876953125" lon="1.62733577191829681396484375">
        <ele>-268.600006103515625</ele>
        <time>2025-09-07T08:20:37.000Z</time>
        <extensions>
          <ns3:TrackPointExtension>
            <ns3:hr>147</ns3:hr>
            <ns3:cad>81</ns3:cad>
          </ns3:TrackPointExtension>
        </extensions>
      </trkpt>
      <trkpt lat="52.238841913640499114990234375" lon="1.62733535282313823699951171875">
        <ele>-270.20001220703125</ele>
        <time>2025-09-07T08:20:39.000Z</time>
        <extensions>
          <ns3:TrackPointExtension>
            <ns3:hr>148</ns3:hr>
            <ns3:cad>81</ns3:cad>
          </ns3:TrackPointExtension>
        </extensions>
      </trkpt>
      <trkpt lat="52.2388851642608642578125" lon="1.6273399628698825836181640625">
        <ele>-271.20001220703125</ele>
        <time>2025-09-07T08:20:41.000Z</time>
        <extensions>
          <ns3:TrackPointExtension>
            <ns3:hr>149</ns3:hr>
            <ns3:cad>80</ns3:cad>
          </ns3:TrackPointExtension>
        </extensions>
      </trkpt>
      <trkpt lat="52.23890419118106365203857421875" lon="1.6273377835750579833984375">
        <ele>-271.600006103515625</ele>
        <time>2025-09-07T08:20:42.000Z</time>
        <extensions>
          <ns3:TrackPointExtension>
            <ns3:hr>150</ns3:hr>
            <ns3:cad>80</ns3:cad>
          </ns3:TrackPointExtension>
        </extensions>
      </trkpt>
      <trkpt lat="52.238941490650177001953125" lon="1.62733183242380619049072265625">
        <ele>-271.79998779296875</ele>
        <time>2025-09-07T08:20:44.000Z</time>
        <extensions>
          <ns3:TrackPointExtension>
            <ns3:hr>153</ns3:hr>
            <ns3:cad>80</ns3:cad>
          </ns3:TrackPointExtension>
        </extensions>
      </trkpt>
      <trkpt lat="52.23903880454599857330322265625" lon="1.6273339278995990753173828125">
        <ele>-270.600006103515625</ele>
        <time>2025-09-07T08:20:49.000Z</time>
        <extensions>
          <ns3:TrackPointExtension>
            <ns3:hr>152</ns3:hr>
            <ns3:cad>80</ns3:cad>
          </ns3:TrackPointExtension>
        </extensions>
      </trkpt>
      <trkpt lat="52.23920208401978015899658203125" lon="1.627336442470550537109375">
        <ele>-270.399993896484375</ele>
        <time>2025-09-07T08:20:57.000Z</time>
        <extensions>
          <ns3:TrackPointExtension>
            <ns3:hr>152</ns3:hr>
            <ns3:cad>80</ns3:cad>
          </ns3:TrackPointExtension>
        </extensions>
      </trkpt>
      <trkpt lat="52.2393785230815410614013671875" lon="1.62734976969659328460693359375">
        <ele>-271.20001220703125</ele>
        <time>2025-09-07T08:21:06.000Z</time>
        <extensions>
          <ns3:TrackPointExtension>
            <ns3:hr>154</ns3:hr>
            <ns3:cad>81</ns3:cad>
          </ns3:TrackPointExtension>
        </extensions>
      </trkpt>
      <trkpt lat="52.239417918026447296142578125" lon="1.6273516975343227386474609375">
        <ele>-271.79998779296875</ele>
        <time>2025-09-07T08:21:08.000Z</time>
        <extensions>
          <ns3:TrackPointExtension>
            <ns3:hr>155</ns3:hr>
            <ns3:cad>81</ns3:cad>
          </ns3:TrackPointExtension>
        </extensions>
      </trkpt>
      <trkpt lat="52.2395464964210987091064453125" lon="1.6273305751383304595947265625">
        <ele>-272.600006103515625</ele>
        <time>2025-09-07T08:21:14.000Z</time>
        <extensions>
          <ns3:TrackPointExtension>
            <ns3:hr>153</ns3:hr>
            <ns3:cad>79</ns3:cad>
          </ns3:TrackPointExtension>
        </extensions>
      </trkpt>
      <trkpt lat="52.23972729407250881195068359375" lon="1.6273144818842411041259765625">
        <ele>-272.79998779296875</ele>
        <time>2025-09-07T08:21:23.000Z</time>
        <extensions>
          <ns3:TrackPointExtension>
            <ns3:hr>152</ns3:hr>
            <ns3:cad>80</ns3:cad>
          </ns3:TrackPointExtension>
        </extensions>
      </trkpt>
      <trkpt lat="52.2397469915449619293212890625" lon="1.6273144818842411041259765625">
        <ele>-272.79998779296875</ele>
        <time>2025-09-07T08:21:24.000Z</time>
        <extensions>
          <ns3:TrackPointExtension>
            <ns3:hr>152</ns3:hr>
            <ns3:cad>80</ns3:cad>
          </ns3:TrackPointExtension>
        </extensions>
      </trkpt>
      <trkpt lat="52.2399397753179073333740234375" lon="1.62733334116637706756591796875">
        <ele>-272.600006103515625</ele>
        <time>2025-09-07T08:21:34.000Z</time>
        <extensions>
          <ns3:TrackPointExtension>
            <ns3:hr>154</ns3:hr>
            <ns3:cad>80</ns3:cad>
          </ns3:TrackPointExtension>
        </extensions>
      </trkpt>
      <trkpt lat="52.239957712590694427490234375" lon="1.62733434699475765228271484375">
        <ele>-272.399993896484375</ele>
        <time>2025-09-07T08:21:35.000Z</time>
        <extensions>
          <ns3:TrackPointExtension>
            <ns3:hr>154</ns3:hr>
            <ns3:cad>81</ns3:cad>
          </ns3:TrackPointExtension>
        </extensions>
      </trkpt>
      <trkpt lat="52.24009282886981964111328125" lon="1.6273704729974269866943359375">
        <ele>-272.399993896484375</ele>
        <time>2025-09-07T08:21:43.000Z</time>
        <extensions>
          <ns3:TrackPointExtension>
            <ns3:hr>154</ns3:hr>
            <ns3:cad>79</ns3:cad>
          </ns3:TrackPointExtension>
        </extensions>
      </trkpt>
      <trkpt lat="52.240150831639766693115234375" lon="1.62738396786153316497802734375">
        <ele>-272.79998779296875</ele>
        <time>2025-09-07T08:21:46.000Z</time>
        <extensions>
          <ns3:TrackPointExtension>
            <ns3:hr>154</ns3:hr>
            <ns3:cad>61</ns3:cad>
          </ns3:TrackPointExtension>
        </extensions>
      </trkpt>
      <trkpt lat="52.2402053140103816986083984375" lon="1.62738631479442119598388671875">
        <ele>-274</ele>
        <time>2025-09-07T08:21:49.000Z</time>
        <extensions>
          <ns3:TrackPointExtension>
            <ns3:hr>153</ns3:hr>
            <ns3:cad>0</ns3:cad>
          </ns3:TrackPointExtension>
        </extensions>
      </trkpt>
      <trkpt lat="52.2402624785900115966796875" lon="1.62738673388957977294921875">
        <ele>-274.600006103515625</ele>
        <time>2025-09-07T08:21:52.000Z</time>
        <extensions>
          <ns3:TrackPointExtension>
            <ns3:hr>153</ns3:hr>
            <ns3:cad>78</ns3:cad>
          </ns3:TrackPointExtension>
        </extensions>
      </trkpt>
      <trkpt lat="52.24032090045511722564697265625" lon="1.627416573464870452880859375">
        <ele>-275.20001220703125</ele>
        <time>2025-09-07T08:21:55.000Z</time>
        <extensions>
          <ns3:TrackPointExtension>
            <ns3:hr>154</ns3:hr>
            <ns3:cad>80</ns3:cad>
          </ns3:TrackPointExtension>
        </extensions>
      </trkpt>
      <trkpt lat="52.240384183824062347412109375" lon="1.62743769586086273193359375">
        <ele>-276.20001220703125</ele>
        <time>2025-09-07T08:21:59.000Z</time>
        <extensions>
          <ns3:TrackPointExtension>
            <ns3:hr>154</ns3:hr>
            <ns3:cad>81</ns3:cad>
          </ns3:TrackPointExtension>
        </extensions>
      </trkpt>
      <trkpt lat="52.24039600230753421783447265625" lon="1.62743006832897663116455078125">
        <ele>-277.20001220703125</ele>
        <time>2025-09-07T08:22:00.000Z</time>
        <extensions>
          <ns3:TrackPointExtension>
            <ns3:hr>154</ns3:hr>
            <ns3:cad>81</ns3:cad>
          </ns3:TrackPointExtension>
        </extensions>
      </trkpt>
      <trkpt lat="52.24044830538332462310791015625" lon="1.62741481326520442962646484375">
        <ele>-278.20001220703125</ele>
        <time>2025-09-07T08:22:03.000Z</time>
        <extensions>
          <ns3:TrackPointExtension>
            <ns3:hr>155</ns3:hr>
            <ns3:cad>60</ns3:cad>
          </ns3:TrackPointExtension>
        </extensions>
      </trkpt>
      <trkpt lat="52.2405308671295642852783203125" lon="1.627405174076557159423828125">
        <ele>-278.399993896484375</ele>
        <time>2025-09-07T08:22:09.000Z</time>
        <extensions>
          <ns3:TrackPointExtension>
            <ns3:hr>152</ns3:hr>
            <ns3:cad>60</ns3:cad>
          </ns3:TrackPointExtension>
        </extensions>
      </trkpt>
      <trkpt lat="52.24059515632688999176025390625" lon="1.6273969598114490509033203125">
        <ele>-278.399993896484375</ele>
        <time>2025-09-07T08:22:14.000Z</time>
        <extensions>
          <ns3:TrackPointExtension>
            <ns3:hr>149</ns3:hr>
            <ns3:cad>60</ns3:cad>
          </ns3:TrackPointExtension>
        </extensions>
      </trkpt>
      <trkpt lat="52.240631617605686187744140625" lon="1.627398468554019927978515625">
        <ele>-278</ele>
        <time>2025-09-07T08:22:16.000Z</time>
        <extensions>
          <ns3:TrackPointExtension>
            <ns3:hr>148</ns3:hr>
            <ns3:cad>59</ns3:cad>
          </ns3:TrackPointExtension>
        </extensions>
      </trkpt>
      <trkpt lat="52.2407236509025096893310546875" lon="1.62741380743682384490966796875">
        <ele>-277.20001220703125</ele>
        <time>2025-09-07T08:22:21.000Z</time>
        <extensions>
          <ns3:TrackPointExtension>
            <ns3:hr>145</ns3:hr>
            <ns3:cad>59</ns3:cad>
          </ns3:TrackPointExtension>
        </extensions>
      </trkpt>
      <trkpt lat="52.24074167199432849884033203125" lon="1.62741816602647304534912109375">
        <ele>-277.20001220703125</ele>
        <time>2025-09-07T08:22:22.000Z</time>
        <extensions>
          <ns3:TrackPointExtension>
            <ns3:hr>145</ns3:hr>
            <ns3:cad>59</ns3:cad>
          </ns3:TrackPointExtension>
        </extensions>
      </trkpt>
      <trkpt lat="52.240772433578968048095703125" lon="1.6274214349687099456787109375">
        <ele>-277.20001220703125</ele>
        <time>2025-09-07T08:22:24.000Z</time>
        <extensions>
          <ns3:TrackPointExtension>
            <ns3:hr>144</ns3:hr>
            <ns3:cad>59</ns3:cad>
          </ns3:TrackPointExtension>
        </extensions>
      </trkpt>
      <trkpt lat="52.2408755309879779815673828125" lon="1.62742721848189830780029296875">
        <ele>-276.79998779296875</ele>
        <time>2025-09-07T08:22:31.000Z</time>
        <extensions>
          <ns3:TrackPointExtension>
            <ns3:hr>141</ns3:hr>
            <ns3:cad>57</ns3:cad>
          </ns3:TrackPointExtension>
        </extensions>
      </trkpt>
      <trkpt lat="52.24098994396626949310302734375" lon="1.62744968198239803314208984375">
        <ele>-276.79998779296875</ele>
        <time>2025-09-07T08:22:38.000Z</time>
        <extensions>
          <ns3:TrackPointExtension>
            <ns3:hr>142</ns3:hr>
            <ns3:cad>57</ns3:cad>
          </ns3:TrackPointExtension>
        </extensions>
      </trkpt>
      <trkpt lat="52.24104928784072399139404296875" lon="1.6274489276111125946044921875">
        <ele>-276</ele>
        <time>2025-09-07T08:22:42.000Z</time>
        <extensions>
          <ns3:TrackPointExtension>
            <ns3:hr>141</ns3:hr>
            <ns3:cad>60</ns3:cad>
          </ns3:TrackPointExtension>
        </extensions>
      </trkpt>
      <trkpt lat="52.2411229647696018218994140625" lon="1.62746854126453399658203125">
        <ele>-275.20001220703125</ele>
        <time>2025-09-07T08:22:46.000Z</time>
        <extensions>
          <ns3:TrackPointExtension>
            <ns3:hr>140</ns3:hr>
            <ns3:cad>61</ns3:cad>
          </ns3:TrackPointExtension>
        </extensions>
      </trkpt>
      <trkpt lat="52.2411950491368770599365234375" lon="1.627482287585735321044921875">
        <ele>-275</ele>
        <time>2025-09-07T08:22:50.000Z</time>
        <extensions>
          <ns3:TrackPointExtension>
            <ns3:hr>140</ns3:hr>
            <ns3:cad>61</ns3:cad>
          </ns3:TrackPointExtension>
        </extensions>
      </trkpt>
      <trkpt lat="52.24126654677093029022216796875" lon="1.6275096125900745391845703125">
        <ele>-274.79998779296875</ele>
        <time>2025-09-07T08:22:54.000Z</time>
        <extensions>
          <ns3:TrackPointExtension>
            <ns3:hr>139</ns3:hr>
            <ns3:cad>61</ns3:cad>
          </ns3:TrackPointExtension>
        </extensions>
      </trkpt>
      <trkpt lat="52.24134114570915699005126953125" lon="1.62755093537271022796630859375">
        <ele>-274.20001220703125</ele>
        <time>2025-09-07T08:23:00.000Z</time>
        <extensions>
          <ns3:TrackPointExtension>
            <ns3:hr>136</ns3:hr>
            <ns3:cad>0</ns3:cad>
          </ns3:TrackPointExtension>
        </extensions>
      </trkpt>
      <trkpt lat="52.24136193282902240753173828125" lon="1.62755898199975490570068359375">
        <ele>-274</ele>
        <time>2025-09-07T08:23:02.000Z</time>
        <extensions>
          <ns3:TrackPointExtension>
            <ns3:hr>135</ns3:hr>
            <ns3:cad>61</ns3:cad>
          </ns3:TrackPointExtension>
        </extensions>
      </trkpt>
      <trkpt lat="52.24139194004237651824951171875" lon="1.6275657713413238525390625">
        <ele>-274</ele>
        <time>2025-09-07T08:23:04.000Z</time>
        <extensions>
          <ns3:TrackPointExtension>
            <ns3:hr>135</ns3:hr>
            <ns3:cad>62</ns3:cad>
          </ns3:TrackPointExtension>
        </extensions>
      </trkpt>
      <trkpt lat="52.24150056950747966766357421875" lon="1.6275531984865665435791015625">
        <ele>-273.600006103515625</ele>
        <time>2025-09-07T08:23:11.000Z</time>
        <extensions>
          <ns3:TrackPointExtension>
            <ns3:hr>134</ns3:hr>
            <ns3:cad>121</ns3:cad>
          </ns3:TrackPointExtension>
        </extensions>
      </trkpt>
      <trkpt lat="52.24154281429946422576904296875" lon="1.62755697034299373626708984375">
        <ele>-272.600006103515625</ele>
        <time>2025-09-07T08:23:15.000Z</time>
        <extensions>
          <ns3:TrackPointExtension>
            <ns3:hr>134</ns3:hr>
            <ns3:cad>121</ns3:cad>
          </ns3:TrackPointExtension>
        </extensions>
      </trkpt>
      <trkpt lat="52.2416138090193271636962890625" lon="1.62757582962512969970703125">
        <ele>-271.79998779296875</ele>
        <time>2025-09-07T08:23:20.000Z</time>
        <extensions>
          <ns3:TrackPointExtension>
            <ns3:hr>133</ns3:hr>
            <ns3:cad>78</ns3:cad>
          </ns3:TrackPointExtension>
        </extensions>
      </trkpt>
      <trkpt lat="52.24164851009845733642578125" lon="1.627583540976047515869140625">
        <ele>-271</ele>
        <time>2025-09-07T08:23:22.000Z</time>
        <extensions>
          <ns3:TrackPointExtension>
            <ns3:hr>134</ns3:hr>
            <ns3:cad>80</ns3:cad>
          </ns3:TrackPointExtension>
        </extensions>
      </trkpt>
      <trkpt lat="52.24168631248176097869873046875" lon="1.62759452126920223236083984375">
        <ele>-270</ele>
        <time>2025-09-07T08:23:24.000Z</time>
        <extensions>
          <ns3:TrackPointExtension>
            <ns3:hr>135</ns3:hr>
            <ns3:cad>80</ns3:cad>
          </ns3:TrackPointExtension>
        </extensions>
      </trkpt>
      <trkpt lat="52.24170257337391376495361328125" lon="1.62759804166853427886962890625">
        <ele>-269.600006103515625</ele>
        <time>2025-09-07T08:23:25.000Z</time>
        <extensions>
          <ns3:TrackPointExtension>
            <ns3:hr>138</ns3:hr>
            <ns3:cad>80</ns3:cad>
          </ns3:TrackPointExtension>
        </extensions>
      </trkpt>
      <trkpt lat="52.24171397276222705841064453125" lon="1.62760005332529544830322265625">
        <ele>-269.20001220703125</ele>
        <time>2025-09-07T08:23:26.000Z</time>
        <extensions>
          <ns3:TrackPointExtension>
            <ns3:hr>141</ns3:hr>
            <ns3:cad>80</ns3:cad>
          </ns3:TrackPointExtension>
        </extensions>
      </trkpt>
      <trkpt lat="52.24172822199761867523193359375" lon="1.6276011429727077484130859375">
        <ele>-268.79998779296875</ele>
        <time>2025-09-07T08:23:27.000Z</time>
        <extensions>
          <ns3:TrackPointExtension>
            <ns3:hr>143</ns3:hr>
            <ns3:cad>80</ns3:cad>
          </ns3:TrackPointExtension>
        </extensions>
      </trkpt>
      <trkpt lat="52.2417425550520420074462890625" lon="1.627611033618450164794921875">
        <ele>-268.399993896484375</ele>
        <time>2025-09-07T08:23:28.000Z</time>
        <extensions>
          <ns3:TrackPointExtension>
            <ns3:hr>146</ns3:hr>
            <ns3:cad>80</ns3:cad>
          </ns3:TrackPointExtension>
        </extensions>
      </trkpt>
      <trkpt lat="52.241760157048702239990234375" lon="1.6276232711970806121826171875">
        <ele>-268.20001220703125</ele>
        <time>2025-09-07T08:23:29.000Z</time>
        <extensions>
          <ns3:TrackPointExtension>
            <ns3:hr>147</ns3:hr>
            <ns3:cad>80</ns3:cad>
          </ns3:TrackPointExtension>
        </extensions>
      </trkpt>
      <trkpt lat="52.24179862998425960540771484375" lon="1.627647243440151214599609375">
        <ele>-267.79998779296875</ele>
        <time>2025-09-07T08:23:31.000Z</time>
        <extensions>
          <ns3:TrackPointExtension>
            <ns3:hr>149</ns3:hr>
            <ns3:cad>80</ns3:cad>
          </ns3:TrackPointExtension>
        </extensions>
      </trkpt>
      <trkpt lat="52.24187708459794521331787109375" lon="1.62768236361443996429443359375">
        <ele>-267.79998779296875</ele>
        <time>2025-09-07T08:23:35.000Z</time>
        <extensions>
          <ns3:TrackPointExtension>
            <ns3:hr>148</ns3:hr>
            <ns3:cad>79</ns3:cad>
          </ns3:TrackPointExtension>
        </extensions>
      </trkpt>
      <trkpt lat="52.24197498522698879241943359375" lon="1.62767666392028331756591796875">
        <ele>-267.399993896484375</ele>
        <time>2025-09-07T08:23:40.000Z</time>
        <extensions>
          <ns3:TrackPointExtension>
            <ns3:hr>151</ns3:hr>
            <ns3:cad>80</ns3:cad>
          </ns3:TrackPointExtension>
        </extensions>
      </trkpt>
      <trkpt lat="52.2420354187488555908203125" lon="1.627681441605091094970703125">
        <ele>-267</ele>
        <time>2025-09-07T08:23:43.000Z</time>
        <extensions>
          <ns3:TrackPointExtension>
            <ns3:hr>151</ns3:hr>
            <ns3:cad>80</ns3:cad>
          </ns3:TrackPointExtension>
        </extensions>
      </trkpt>
      <trkpt lat="52.242053858935832977294921875" lon="1.6276824474334716796875">
        <ele>-266.600006103515625</ele>
        <time>2025-09-07T08:23:44.000Z</time>
        <extensions>
          <ns3:TrackPointExtension>
            <ns3:hr>151</ns3:hr>
            <ns3:cad>80</ns3:cad>
          </ns3:TrackPointExtension>
        </extensions>
      </trkpt>
      <trkpt lat="52.2421861253678798675537109375" lon="1.627680771052837371826171875">
        <ele>-265</ele>
        <time>2025-09-07T08:23:51.000Z</time>
        <extensions>
          <ns3:TrackPointExtension>
            <ns3:hr>151</ns3:hr>
            <ns3:cad>82</ns3:cad>
          </ns3:TrackPointExtension>
        </extensions>
      </trkpt>
      <trkpt lat="52.24220448173582553863525390625" lon="1.6276832856237888336181640625">
        <ele>-264</ele>
        <time>2025-09-07T08:23:52.000Z</time>
        <extensions>
          <ns3:TrackPointExtension>
            <ns3:hr>151</ns3:hr>
            <ns3:cad>82</ns3:cad>
          </ns3:TrackPointExtension>
        </extensions>
      </trkpt>
      <trkpt lat="52.242233566939830780029296875" lon="1.62768621928989887237548828125">
        <ele>-262.399993896484375</ele>
        <time>2025-09-07T08:23:54.000Z</time>
        <extensions>
          <ns3:TrackPointExtension>
            <ns3:hr>152</ns3:hr>
            <ns3:cad>80</ns3:cad>
          </ns3:TrackPointExtension>
        </extensions>
      </trkpt>
      <trkpt lat="52.24226097576320171356201171875" lon="1.6276846267282962799072265625">
        <ele>-261.20001220703125</ele>
        <time>2025-09-07T08:23:56.000Z</time>
        <extensions>
          <ns3:TrackPointExtension>
            <ns3:hr>153</ns3:hr>
            <ns3:cad>79</ns3:cad>
          </ns3:TrackPointExtension>
        </extensions>
      </trkpt>
      <trkpt lat="52.24231394939124584197998046875" lon="1.6276839561760425567626953125">
        <ele>-260.600006103515625</ele>
        <time>2025-09-07T08:23:59.000Z</time>
        <extensions>
          <ns3:TrackPointExtension>
            <ns3:hr>153</ns3:hr>
            <ns3:cad>78</ns3:cad>
          </ns3:TrackPointExtension>
        </extensions>
      </trkpt>
      <trkpt lat="52.24246121942996978759765625" lon="1.62768068723380565643310546875">
        <ele>-261</ele>
        <time>2025-09-07T08:24:07.000Z</time>
        <extensions>
          <ns3:TrackPointExtension>
            <ns3:hr>152</ns3:hr>
            <ns3:cad>80</ns3:cad>
          </ns3:TrackPointExtension>
        </extensions>
      </trkpt>
      <trkpt lat="52.242567501962184906005859375" lon="1.6276745684444904327392578125">
        <ele>-262.20001220703125</ele>
        <time>2025-09-07T08:24:13.000Z</time>
        <extensions>
          <ns3:TrackPointExtension>
            <ns3:hr>153</ns3:hr>
            <ns3:cad>80</ns3:cad>
          </ns3:TrackPointExtension>
        </extensions>
      </trkpt>
      <trkpt lat="52.24260681308805942535400390625" lon="1.62767901085317134857177734375">
        <ele>-262.79998779296875</ele>
        <time>2025-09-07T08:24:15.000Z</time>
        <extensions>
          <ns3:TrackPointExtension>
            <ns3:hr>153</ns3:hr>
            <ns3:cad>55</ns3:cad>
          </ns3:TrackPointExtension>
        </extensions>
      </trkpt>
      <trkpt lat="52.24264369346201419830322265625" lon="1.62768269889056682586669921875">
        <ele>-263.20001220703125</ele>
        <time>2025-09-07T08:24:17.000Z</time>
        <extensions>
          <ns3:TrackPointExtension>
            <ns3:hr>153</ns3:hr>
            <ns3:cad>55</ns3:cad>
          </ns3:TrackPointExtension>
        </extensions>
      </trkpt>
      <trkpt lat="52.24274109117686748504638671875" lon="1.62769007496535778045654296875">
        <ele>-263.20001220703125</ele>
        <time>2025-09-07T08:24:22.000Z</time>
        <extensions>
          <ns3:TrackPointExtension>
            <ns3:hr>152</ns3:hr>
            <ns3:cad>55</ns3:cad>
          </ns3:TrackPointExtension>
        </extensions>
      </trkpt>
      <trkpt lat="52.24279724992811679840087890625" lon="1.6276909969747066497802734375">
        <ele>-263.399993896484375</ele>
        <time>2025-09-07T08:24:25.000Z</time>
        <extensions>
          <ns3:TrackPointExtension>
            <ns3:hr>155</ns3:hr>
            <ns3:cad>55</ns3:cad>
          </ns3:TrackPointExtension>
        </extensions>
      </trkpt>
      <trkpt lat="52.24283278919756412506103515625" lon="1.62769652903079986572265625">
        <ele>-263.79998779296875</ele>
        <time>2025-09-07T08:24:27.000Z</time>
        <extensions>
          <ns3:TrackPointExtension>
            <ns3:hr>158</ns3:hr>
            <ns3:cad>61</ns3:cad>
          </ns3:TrackPointExtension>
        </extensions>
      </trkpt>
      <trkpt lat="52.24286497570574283599853515625" lon="1.62771170027554035186767578125">
        <ele>-264</ele>
        <time>2025-09-07T08:24:29.000Z</time>
        <extensions>
          <ns3:TrackPointExtension>
            <ns3:hr>155</ns3:hr>
            <ns3:cad>61</ns3:cad>
          </ns3:TrackPointExtension>
        </extensions>
      </trkpt>
      <trkpt lat="52.242882661521434783935546875" lon="1.627717316150665283203125">
        <ele>-264.20001220703125</ele>
        <time>2025-09-07T08:24:30.000Z</time>
        <extensions>
          <ns3:TrackPointExtension>
            <ns3:hr>155</ns3:hr>
            <ns3:cad>61</ns3:cad>
          </ns3:TrackPointExtension>
        </extensions>
      </trkpt>
      <trkpt lat="52.24298751913011074066162109375" lon="1.62774757482111454010009765625">
        <ele>-264.79998779296875</ele>
        <time>2025-09-07T08:24:36.000Z</time>
        <extensions>
          <ns3:TrackPointExtension>
            <ns3:hr>152</ns3:hr>
            <ns3:cad>61</ns3:cad>
          </ns3:TrackPointExtension>
        </extensions>
      </trkpt>
      <trkpt lat="52.24306127987802028656005859375" lon="1.62780004553496837615966796875">
        <ele>-265.20001220703125</ele>
        <time>2025-09-07T08:24:41.000Z</time>
        <extensions>
          <ns3:TrackPointExtension>
            <ns3:hr>149</ns3:hr>
            <ns3:cad>0</ns3:cad>
          </ns3:TrackPointExtension>
        </extensions>
      </trkpt>
      <trkpt lat="52.24308039061725139617919921875" lon="1.627804823219776153564453125">
        <ele>-265</ele>
        <time>2025-09-07T08:24:42.000Z</time>
        <extensions>
          <ns3:TrackPointExtension>
            <ns3:hr>149</ns3:hr>
            <ns3:cad>0</ns3:cad>
          </ns3:TrackPointExtension>
        </extensions>
      </trkpt>
      <trkpt lat="52.24317996762692928314208984375" lon="1.627805493772029876708984375">
        <ele>-262.600006103515625</ele>
        <time>2025-09-07T08:24:49.000Z</time>
        <extensions>
          <ns3:TrackPointExtension>
            <ns3:hr>149</ns3:hr>
            <ns3:cad>74</ns3:cad>
          </ns3:TrackPointExtension>
        </extensions>
      </trkpt>
      <trkpt lat="52.2432150878012180328369140625" lon="1.6278056614100933074951171875">
        <ele>-261.399993896484375</ele>
        <time>2025-09-07T08:24:51.000Z</time>
        <extensions>
          <ns3:TrackPointExtension>
            <ns3:hr>150</ns3:hr>
            <ns3:cad>74</ns3:cad>
          </ns3:TrackPointExtension>
        </extensions>
      </trkpt>
      <trkpt lat="52.2432834841310977935791015625" lon="1.627808175981044769287109375">
        <ele>-260</ele>
        <time>2025-09-07T08:24:55.000Z</time>
        <extensions>
          <ns3:TrackPointExtension>
            <ns3:hr>152</ns3:hr>
            <ns3:cad>76</ns3:cad>
          </ns3:TrackPointExtension>
        </extensions>
      </trkpt>
      <trkpt lat="52.24329832009971141815185546875" lon="1.62780918180942535400390625">
        <ele>-259.79998779296875</ele>
        <time>2025-09-07T08:24:56.000Z</time>
        <extensions>
          <ns3:TrackPointExtension>
            <ns3:hr>153</ns3:hr>
            <ns3:cad>76</ns3:cad>
          </ns3:TrackPointExtension>
        </extensions>
      </trkpt>
      <trkpt lat="52.24334894679486751556396484375" lon="1.62781848572194576263427734375">
        <ele>-259</ele>
        <time>2025-09-07T08:24:59.000Z</time>
        <extensions>
          <ns3:TrackPointExtension>
            <ns3:hr>153</ns3:hr>
            <ns3:cad>79</ns3:cad>
          </ns3:TrackPointExtension>
        </extensions>
      </trkpt>
      <trkpt lat="52.24338431842625141143798828125" lon="1.62782334722578525543212890625">
        <ele>-258.79998779296875</ele>
        <time>2025-09-07T08:25:01.000Z</time>
        <extensions>
          <ns3:TrackPointExtension>
            <ns3:hr>156</ns3:hr>
            <ns3:cad>80</ns3:cad>
          </ns3:TrackPointExtension>
        </extensions>
      </trkpt>
      <trkpt lat="52.2434301674365997314453125" lon="1.62783307023346424102783203125">
        <ele>-257.600006103515625</ele>
        <time>2025-09-07T08:25:04.000Z</time>
        <extensions>
          <ns3:TrackPointExtension>
            <ns3:hr>157</ns3:hr>
            <ns3:cad>80</ns3:cad>
          </ns3:TrackPointExtension>
        </extensions>
      </trkpt>
      <trkpt lat="52.243445254862308502197265625" lon="1.6278321482241153717041015625">
        <ele>-257</ele>
        <time>2025-09-07T08:25:05.000Z</time>
        <extensions>
          <ns3:TrackPointExtension>
            <ns3:hr>157</ns3:hr>
            <ns3:cad>80</ns3:cad>
          </ns3:TrackPointExtension>
        </extensions>
      </trkpt>
      <trkpt lat="52.243462018668651580810546875" lon="1.62783357314765453338623046875">
        <ele>-256.600006103515625</ele>
        <time>2025-09-07T08:25:06.000Z</time>
        <extensions>
          <ns3:TrackPointExtension>
            <ns3:hr>157</ns3:hr>
            <ns3:cad>80</ns3:cad>
          </ns3:TrackPointExtension>
        </extensions>
      </trkpt>
      <trkpt lat="52.24351264536380767822265625" lon="1.62783491425216197967529296875">
        <ele>-255.399993896484375</ele>
        <time>2025-09-07T08:25:09.000Z</time>
        <extensions>
          <ns3:TrackPointExtension>
            <ns3:hr>155</ns3:hr>
            <ns3:cad>62</ns3:cad>
          </ns3:TrackPointExtension>
        </extensions>
      </trkpt>
      <trkpt lat="52.243602164089679718017578125" lon="1.627859808504581451416015625">
        <ele>-255.1999969482421875</ele>
        <time>2025-09-07T08:25:15.000Z</time>
        <extensions>
          <ns3:TrackPointExtension>
            <ns3:hr>154</ns3:hr>
            <ns3:cad>60</ns3:cad>
          </ns3:TrackPointExtension>
        </extensions>
      </trkpt>
      <trkpt lat="52.24367869086563587188720703125" lon="1.6278878040611743927001953125">
        <ele>-255.1999969482421875</ele>
        <time>2025-09-07T08:25:19.000Z</time>
        <extensions>
          <ns3:TrackPointExtension>
            <ns3:hr>151</ns3:hr>
            <ns3:cad>78</ns3:cad>
          </ns3:TrackPointExtension>
        </extensions>
      </trkpt>
      <trkpt lat="52.24375479854643344879150390625" lon="1.6279132850468158721923828125">
        <ele>-254.600006103515625</ele>
        <time>2025-09-07T08:25:23.000Z</time>
        <extensions>
          <ns3:TrackPointExtension>
            <ns3:hr>150</ns3:hr>
            <ns3:cad>79</ns3:cad>
          </ns3:TrackPointExtension>
        </extensions>
      </trkpt>
      <trkpt lat="52.24379117600619792938232421875" lon="1.6279233433306217193603515625">
        <ele>-254.1999969482421875</ele>
        <time>2025-09-07T08:25:25.000Z</time>
        <extensions>
          <ns3:TrackPointExtension>
            <ns3:hr>151</ns3:hr>
            <ns3:cad>80</ns3:cad>
          </ns3:TrackPointExtension>
        </extensions>
      </trkpt>
      <trkpt lat="52.24382973276078701019287109375" lon="1.6279337368905544281005859375">
        <ele>-253.1999969482421875</ele>
        <time>2025-09-07T08:25:27.000Z</time>
        <extensions>
          <ns3:TrackPointExtension>
            <ns3:hr>150</ns3:hr>
            <ns3:cad>80</ns3:cad>
          </ns3:TrackPointExtension>
        </extensions>
      </trkpt>
      <trkpt lat="52.24388991482555866241455078125" lon="1.62794840522110462188720703125">
        <ele>-252.8000030517578125</ele>
        <time>2025-09-07T08:25:30.000Z</time>
        <extensions>
          <ns3:TrackPointExtension>
            <ns3:hr>150</ns3:hr>
            <ns3:cad>81</ns3:cad>
          </ns3:TrackPointExtension>
        </extensions>
      </trkpt>
      <trkpt lat="52.24403165280818939208984375" lon="1.62796298973262310028076171875">
        <ele>-252.8000030517578125</ele>
        <time>2025-09-07T08:25:38.000Z</time>
        <extensions>
          <ns3:TrackPointExtension>
            <ns3:hr>152</ns3:hr>
            <ns3:cad>81</ns3:cad>
          </ns3:TrackPointExtension>
        </extensions>
      </trkpt>
      <trkpt lat="52.24418797530233860015869140625" lon="1.6279652528464794158935546875">
        <ele>-253.399993896484375</ele>
        <time>2025-09-07T08:25:46.000Z</time>
        <extensions>
          <ns3:TrackPointExtension>
            <ns3:hr>155</ns3:hr>
            <ns3:cad>78</ns3:cad>
          </ns3:TrackPointExtension>
        </extensions>
      </trkpt>
      <trkpt lat="52.24423147737979888916015625" lon="1.62796265445649623870849609375">
        <ele>-253.8000030517578125</ele>
        <time>2025-09-07T08:25:48.000Z</time>
        <extensions>
          <ns3:TrackPointExtension>
            <ns3:hr>155</ns3:hr>
            <ns3:cad>80</ns3:cad>
          </ns3:TrackPointExtension>
        </extensions>
      </trkpt>
      <trkpt lat="52.2443587146699428558349609375" lon="1.62798914127051830291748046875">
        <ele>-254.1999969482421875</ele>
        <time>2025-09-07T08:25:55.000Z</time>
        <extensions>
          <ns3:TrackPointExtension>
            <ns3:hr>155</ns3:hr>
            <ns3:cad>0</ns3:cad>
          </ns3:TrackPointExtension>
        </extensions>
      </trkpt>
      <trkpt lat="52.24438008852303028106689453125" lon="1.62799584679305553436279296875">
        <ele>-254.1999969482421875</ele>
        <time>2025-09-07T08:25:56.000Z</time>
        <extensions>
          <ns3:TrackPointExtension>
            <ns3:hr>155</ns3:hr>
            <ns3:cad>0</ns3:cad>
          </ns3:TrackPointExtension>
        </extensions>
      </trkpt>
      <trkpt lat="52.2445298731327056884765625" lon="1.62805904634296894073486328125">
        <ele>-254.399993896484375</ele>
        <time>2025-09-07T08:26:04.000Z</time>
        <extensions>
          <ns3:TrackPointExtension>
            <ns3:hr>154</ns3:hr>
            <ns3:cad>58</ns3:cad>
          </ns3:TrackPointExtension>
        </extensions>
      </trkpt>
      <trkpt lat="52.2447176277637481689453125" lon="1.62811872549355030059814453125">
        <ele>-253.399993896484375</ele>
        <time>2025-09-07T08:26:13.000Z</time>
        <extensions>
          <ns3:TrackPointExtension>
            <ns3:hr>153</ns3:hr>
            <ns3:cad>80</ns3:cad>
          </ns3:TrackPointExtension>
        </extensions>
      </trkpt>
      <trkpt lat="52.2447385825216770172119140625" lon="1.6281295381486415863037109375">
        <ele>-253.1999969482421875</ele>
        <time>2025-09-07T08:26:14.000Z</time>
        <extensions>
          <ns3:TrackPointExtension>
            <ns3:hr>153</ns3:hr>
            <ns3:cad>80</ns3:cad>
          </ns3:TrackPointExtension>
        </extensions>
      </trkpt>
      <trkpt lat="52.24475962109863758087158203125" lon="1.62813750095665454864501953125">
        <ele>-251.399993896484375</ele>
        <time>2025-09-07T08:26:15.000Z</time>
        <extensions>
          <ns3:TrackPointExtension>
            <ns3:hr>153</ns3:hr>
            <ns3:cad>80</ns3:cad>
          </ns3:TrackPointExtension>
        </extensions>
      </trkpt>
      <trkpt lat="52.244799770414829254150390625" lon="1.62815024144947528839111328125">
        <ele>-250</ele>
        <time>2025-09-07T08:26:17.000Z</time>
        <extensions>
          <ns3:TrackPointExtension>
            <ns3:hr>154</ns3:hr>
            <ns3:cad>80</ns3:cad>
          </ns3:TrackPointExtension>
        </extensions>
      </trkpt>
      <trkpt lat="52.244861461222171783447265625" lon="1.62816482596099376678466796875">
        <ele>-249</ele>
        <time>2025-09-07T08:26:20.000Z</time>
        <extensions>
          <ns3:TrackPointExtension>
            <ns3:hr>157</ns3:hr>
            <ns3:cad>81</ns3:cad>
          </ns3:TrackPointExtension>
        </extensions>
      </trkpt>
      <trkpt lat="52.2449055500328540802001953125" lon="1.62817790172994136810302734375">
        <ele>-249</ele>
        <time>2025-09-07T08:26:22.000Z</time>
        <extensions>
          <ns3:TrackPointExtension>
            <ns3:hr>158</ns3:hr>
            <ns3:cad>81</ns3:cad>
          </ns3:TrackPointExtension>
        </extensions>
      </trkpt>
      <trkpt lat="52.24494636990129947662353515625" lon="1.62819265387952327728271484375">
        <ele>-249</ele>
        <time>2025-09-07T08:26:24.000Z</time>
        <extensions>
          <ns3:TrackPointExtension>
            <ns3:hr>158</ns3:hr>
            <ns3:cad>81</ns3:cad>
          </ns3:TrackPointExtension>
        </extensions>
      </trkpt>
      <trkpt lat="52.24505332298576831817626953125" lon="1.62822651676833629608154296875">
        <ele>-248.1999969482421875</ele>
        <time>2025-09-07T08:26:29.000Z</time>
        <extensions>
          <ns3:TrackPointExtension>
            <ns3:hr>161</ns3:hr>
            <ns3:cad>81</ns3:cad>
          </ns3:TrackPointExtension>
        </extensions>
      </trkpt>
      <trkpt lat="52.24507528357207775115966796875" lon="1.62822986952960491180419921875">
        <ele>-247.600006103515625</ele>
        <time>2025-09-07T08:26:30.000Z</time>
        <extensions>
          <ns3:TrackPointExtension>
            <ns3:hr>159</ns3:hr>
            <ns3:cad>81</ns3:cad>
          </ns3:TrackPointExtension>
        </extensions>
      </trkpt>
      <trkpt lat="52.245097495615482330322265625" lon="1.6282297857105731964111328125">
        <ele>-247.399993896484375</ele>
        <time>2025-09-07T08:26:31.000Z</time>
        <extensions>
          <ns3:TrackPointExtension>
            <ns3:hr>156</ns3:hr>
            <ns3:cad>81</ns3:cad>
          </ns3:TrackPointExtension>
        </extensions>
      </trkpt>
      <trkpt lat="52.24518324248492717742919921875" lon="1.6282250918447971343994140625">
        <ele>-246.399993896484375</ele>
        <time>2025-09-07T08:26:35.000Z</time>
        <extensions>
          <ns3:TrackPointExtension>
            <ns3:hr>158</ns3:hr>
            <ns3:cad>81</ns3:cad>
          </ns3:TrackPointExtension>
        </extensions>
      </trkpt>
      <trkpt lat="52.245228588581085205078125" lon="1.6282336413860321044921875">
        <ele>-245</ele>
        <time>2025-09-07T08:26:37.000Z</time>
        <extensions>
          <ns3:TrackPointExtension>
            <ns3:hr>159</ns3:hr>
            <ns3:cad>81</ns3:cad>
          </ns3:TrackPointExtension>
        </extensions>
      </trkpt>
      <trkpt lat="52.2452518902719020843505859375" lon="1.6282368265092372894287109375">
        <ele>-244.399993896484375</ele>
        <time>2025-09-07T08:26:38.000Z</time>
        <extensions>
          <ns3:TrackPointExtension>
            <ns3:hr>158</ns3:hr>
            <ns3:cad>81</ns3:cad>
          </ns3:TrackPointExtension>
        </extensions>
      </trkpt>
      <trkpt lat="52.24527510814368724822998046875" lon="1.6282388381659984588623046875">
        <ele>-242.600006103515625</ele>
        <time>2025-09-07T08:26:39.000Z</time>
        <extensions>
          <ns3:TrackPointExtension>
            <ns3:hr>158</ns3:hr>
            <ns3:cad>81</ns3:cad>
          </ns3:TrackPointExtension>
        </extensions>
      </trkpt>
      <trkpt lat="52.24531718529760837554931640625" lon="1.6282445378601551055908203125">
        <ele>-240.399993896484375</ele>
        <time>2025-09-07T08:26:41.000Z</time>
        <extensions>
          <ns3:TrackPointExtension>
            <ns3:hr>158</ns3:hr>
            <ns3:cad>81</ns3:cad>
          </ns3:TrackPointExtension>
        </extensions>
      </trkpt>
      <trkpt lat="52.24535775370895862579345703125" lon="1.62824948318302631378173828125">
        <ele>-239.399993896484375</ele>
        <time>2025-09-07T08:26:43.000Z</time>
        <extensions>
          <ns3:TrackPointExtension>
            <ns3:hr>161</ns3:hr>
            <ns3:cad>81</ns3:cad>
          </ns3:TrackPointExtension>
        </extensions>
      </trkpt>
      <trkpt lat="52.24539496935904026031494140625" lon="1.62824613042175769805908203125">
        <ele>-239</ele>
        <time>2025-09-07T08:26:45.000Z</time>
        <extensions>
          <ns3:TrackPointExtension>
            <ns3:hr>164</ns3:hr>
            <ns3:cad>81</ns3:cad>
          </ns3:TrackPointExtension>
        </extensions>
      </trkpt>
      <trkpt lat="52.24545263685286045074462890625" lon="1.62823808379471302032470703125">
        <ele>-238.1999969482421875</ele>
        <time>2025-09-07T08:26:48.000Z</time>
        <extensions>
          <ns3:TrackPointExtension>
            <ns3:hr>165</ns3:hr>
            <ns3:cad>81</ns3:cad>
          </ns3:TrackPointExtension>
        </extensions>
      </trkpt>
      <trkpt lat="52.24553477950394153594970703125" lon="1.6282336413860321044921875">
        <ele>-237.600006103515625</ele>
        <time>2025-09-07T08:26:52.000Z</time>
        <extensions>
          <ns3:TrackPointExtension>
            <ns3:hr>162</ns3:hr>
            <ns3:cad>79</ns3:cad>
          </ns3:TrackPointExtension>
        </extensions>
      </trkpt>
      <trkpt lat="52.24561407230794429779052734375" lon="1.62823456339538097381591796875">
        <ele>-237.600006103515625</ele>
        <time>2025-09-07T08:26:56.000Z</time>
        <extensions>
          <ns3:TrackPointExtension>
            <ns3:hr>162</ns3:hr>
            <ns3:cad>79</ns3:cad>
          </ns3:TrackPointExtension>
        </extensions>
      </trkpt>
      <trkpt lat="52.2457159124314785003662109375" lon="1.62824026308953762054443359375">
        <ele>-239.1999969482421875</ele>
        <time>2025-09-07T08:27:03.000Z</time>
        <extensions>
          <ns3:TrackPointExtension>
            <ns3:hr>161</ns3:hr>
            <ns3:cad>60</ns3:cad>
          </ns3:TrackPointExtension>
        </extensions>
      </trkpt>
      <trkpt lat="52.24572655744850635528564453125" lon="1.62824244238436222076416015625">
        <ele>-239.399993896484375</ele>
        <time>2025-09-07T08:27:04.000Z</time>
        <extensions>
          <ns3:TrackPointExtension>
            <ns3:hr>161</ns3:hr>
            <ns3:cad>60</ns3:cad>
          </ns3:TrackPointExtension>
        </extensions>
      </trkpt>
      <trkpt lat="52.245759665966033935546875" lon="1.62824193947017192840576171875">
        <ele>-239.8000030517578125</ele>
        <time>2025-09-07T08:27:07.000Z</time>
        <extensions>
          <ns3:TrackPointExtension>
            <ns3:hr>157</ns3:hr>
            <ns3:cad>58</ns3:cad>
          </ns3:TrackPointExtension>
        </extensions>
      </trkpt>
      <trkpt lat="52.2457905113697052001953125" lon="1.6282442025840282440185546875">
        <ele>-240.399993896484375</ele>
        <time>2025-09-07T08:27:09.000Z</time>
        <extensions>
          <ns3:TrackPointExtension>
            <ns3:hr>154</ns3:hr>
            <ns3:cad>58</ns3:cad>
          </ns3:TrackPointExtension>
        </extensions>
      </trkpt>
      <trkpt lat="52.24584910087287425994873046875" lon="1.62825183011591434478759765625">
        <ele>-240.8000030517578125</ele>
        <time>2025-09-07T08:27:12.000Z</time>
        <extensions>
          <ns3:TrackPointExtension>
            <ns3:hr>151</ns3:hr>
            <ns3:cad>0</ns3:cad>
          </ns3:TrackPointExtension>
        </extensions>
      </trkpt>
      <trkpt lat="52.24597625434398651123046875" lon="1.62826591171324253082275390625">
        <ele>-241.1999969482421875</ele>
        <time>2025-09-07T08:27:19.000Z</time>
        <extensions>
          <ns3:TrackPointExtension>
            <ns3:hr>149</ns3:hr>
            <ns3:cad>80</ns3:cad>
          </ns3:TrackPointExtension>
        </extensions>
      </trkpt>
      <trkpt lat="52.2460756637156009674072265625" lon="1.62827747873961925506591796875">
        <ele>-239.399993896484375</ele>
        <time>2025-09-07T08:27:24.000Z</time>
        <extensions>
          <ns3:TrackPointExtension>
            <ns3:hr>149</ns3:hr>
            <ns3:cad>80</ns3:cad>
          </ns3:TrackPointExtension>
        </extensions>
      </trkpt>
      <trkpt lat="52.2461135499179363250732421875" lon="1.62828301079571247100830078125">
        <ele>-238.399993896484375</ele>
        <time>2025-09-07T08:27:26.000Z</time>
        <extensions>
          <ns3:TrackPointExtension>
            <ns3:hr>151</ns3:hr>
            <ns3:cad>81</ns3:cad>
          </ns3:TrackPointExtension>
        </extensions>
      </trkpt>
      <trkpt lat="52.24613274447619915008544921875" lon="1.62828988395631313323974609375">
        <ele>-238.399993896484375</ele>
        <time>2025-09-07T08:27:27.000Z</time>
        <extensions>
          <ns3:TrackPointExtension>
            <ns3:hr>151</ns3:hr>
            <ns3:cad>81</ns3:cad>
          </ns3:TrackPointExtension>
        </extensions>
      </trkpt>
      <trkpt lat="52.24617364816367626190185546875" lon="1.6282948292791843414306640625">
        <ele>-237.600006103515625</ele>
        <time>2025-09-07T08:27:29.000Z</time>
        <extensions>
          <ns3:TrackPointExtension>
            <ns3:hr>154</ns3:hr>
            <ns3:cad>81</ns3:cad>
          </ns3:TrackPointExtension>
        </extensions>
      </trkpt>
      <trkpt lat="52.24625252187252044677734375" lon="1.62833581678569316864013671875">
        <ele>-237.8000030517578125</ele>
        <time>2025-09-07T08:27:33.000Z</time>
        <extensions>
          <ns3:TrackPointExtension>
            <ns3:hr>151</ns3:hr>
            <ns3:cad>81</ns3:cad>
          </ns3:TrackPointExtension>
        </extensions>
      </trkpt>
      <trkpt lat="52.24626953713595867156982421875" lon="1.62834017537534236907958984375">
        <ele>-237.8000030517578125</ele>
        <time>2025-09-07T08:27:34.000Z</time>
        <extensions>
          <ns3:TrackPointExtension>
            <ns3:hr>149</ns3:hr>
            <ns3:cad>81</ns3:cad>
          </ns3:TrackPointExtension>
        </extensions>
      </trkpt>
      <trkpt lat="52.24641337059438228607177734375" lon="1.6283731162548065185546875">
        <ele>-238</ele>
        <time>2025-09-07T08:27:41.000Z</time>
        <extensions>
          <ns3:TrackPointExtension>
            <ns3:hr>151</ns3:hr>
            <ns3:cad>82</ns3:cad>
          </ns3:TrackPointExtension>
        </extensions>
      </trkpt>
      <trkpt lat="52.24655938334763050079345703125" lon="1.628406308591365814208984375">
        <ele>-238.600006103515625</ele>
        <time>2025-09-07T08:27:48.000Z</time>
        <extensions>
          <ns3:TrackPointExtension>
            <ns3:hr>149</ns3:hr>
            <ns3:cad>80</ns3:cad>
          </ns3:TrackPointExtension>
        </extensions>
      </trkpt>
      <trkpt lat="52.2467090003192424774169921875" lon="1.62843556143343448638916015625">
        <ele>-239.1999969482421875</ele>
        <time>2025-09-07T08:27:55.000Z</time>
        <extensions>
          <ns3:TrackPointExtension>
            <ns3:hr>150</ns3:hr>
            <ns3:cad>78</ns3:cad>
          </ns3:TrackPointExtension>
        </extensions>
      </trkpt>
      <trkpt lat="52.24676390178501605987548828125" lon="1.628450565040111541748046875">
        <ele>-239.399993896484375</ele>
        <time>2025-09-07T08:27:58.000Z</time>
        <extensions>
          <ns3:TrackPointExtension>
            <ns3:hr>149</ns3:hr>
            <ns3:cad>80</ns3:cad>
          </ns3:TrackPointExtension>
        </extensions>
      </trkpt>
      <trkpt lat="52.24681955762207508087158203125" lon="1.628475375473499298095703125">
        <ele>-239.1999969482421875</ele>
        <time>2025-09-07T08:28:01.000Z</time>
        <extensions>
          <ns3:TrackPointExtension>
            <ns3:hr>152</ns3:hr>
            <ns3:cad>80</ns3:cad>
          </ns3:TrackPointExtension>
        </extensions>
      </trkpt>
      <trkpt lat="52.24683699198067188262939453125" lon="1.628502197563648223876953125">
        <ele>-239</ele>
        <time>2025-09-07T08:28:03.000Z</time>
        <extensions>
          <ns3:TrackPointExtension>
            <ns3:hr>153</ns3:hr>
            <ns3:cad>80</ns3:cad>
          </ns3:TrackPointExtension>
        </extensions>
      </trkpt>
      <trkpt lat="52.2468508221209049224853515625" lon="1.6285125911235809326171875">
        <ele>-239.1999969482421875</ele>
        <time>2025-09-07T08:28:04.000Z</time>
        <extensions>
          <ns3:TrackPointExtension>
            <ns3:hr>152</ns3:hr>
            <ns3:cad>80</ns3:cad>
          </ns3:TrackPointExtension>
        </extensions>
      </trkpt>
      <trkpt lat="52.246891222894191741943359375" lon="1.6285201348364353179931640625">
        <ele>-239.600006103515625</ele>
        <time>2025-09-07T08:28:07.000Z</time>
        <extensions>
          <ns3:TrackPointExtension>
            <ns3:hr>151</ns3:hr>
            <ns3:cad>79</ns3:cad>
          </ns3:TrackPointExtension>
        </extensions>
      </trkpt>
      <trkpt lat="52.2469011135399341583251953125" lon="1.6285192966461181640625">
        <ele>-239.8000030517578125</ele>
        <time>2025-09-07T08:28:08.000Z</time>
        <extensions>
          <ns3:TrackPointExtension>
            <ns3:hr>152</ns3:hr>
            <ns3:cad>79</ns3:cad>
          </ns3:TrackPointExtension>
        </extensions>
      </trkpt>
      <trkpt lat="52.24691502749919891357421875" lon="1.62851720117032527923583984375">
        <ele>-240.399993896484375</ele>
        <time>2025-09-07T08:28:09.000Z</time>
        <extensions>
          <ns3:TrackPointExtension>
            <ns3:hr>155</ns3:hr>
            <ns3:cad>60</ns3:cad>
          </ns3:TrackPointExtension>
        </extensions>
      </trkpt>
      <trkpt lat="52.246929444372653961181640625" lon="1.6285167820751667022705078125">
        <ele>-241</ele>
        <time>2025-09-07T08:28:10.000Z</time>
        <extensions>
          <ns3:TrackPointExtension>
            <ns3:hr>152</ns3:hr>
            <ns3:cad>60</ns3:cad>
          </ns3:TrackPointExtension>
        </extensions>
      </trkpt>
      <trkpt lat="52.24696188233792781829833984375" lon="1.6285157762467861175537109375">
        <ele>-241.8000030517578125</ele>
        <time>2025-09-07T08:28:12.000Z</time>
        <extensions>
          <ns3:TrackPointExtension>
            <ns3:hr>156</ns3:hr>
            <ns3:cad>60</ns3:cad>
          </ns3:TrackPointExtension>
        </extensions>
      </trkpt>
      <trkpt lat="52.246979065239429473876953125" lon="1.62851854227483272552490234375">
        <ele>-243</ele>
        <time>2025-09-07T08:28:13.000Z</time>
        <extensions>
          <ns3:TrackPointExtension>
            <ns3:hr>157</ns3:hr>
            <ns3:cad>60</ns3:cad>
          </ns3:TrackPointExtension>
        </extensions>
      </trkpt>
      <trkpt lat="52.24699658341705799102783203125" lon="1.62852155975997447967529296875">
        <ele>-243.8000030517578125</ele>
        <time>2025-09-07T08:28:14.000Z</time>
        <extensions>
          <ns3:TrackPointExtension>
            <ns3:hr>158</ns3:hr>
            <ns3:cad>60</ns3:cad>
          </ns3:TrackPointExtension>
        </extensions>
      </trkpt>
      <trkpt lat="52.24701418541371822357177734375" lon="1.6285233199596405029296875">
        <ele>-245.1999969482421875</ele>
        <time>2025-09-07T08:28:15.000Z</time>
        <extensions>
          <ns3:TrackPointExtension>
            <ns3:hr>158</ns3:hr>
            <ns3:cad>0</ns3:cad>
          </ns3:TrackPointExtension>
        </extensions>
      </trkpt>
      <trkpt lat="52.24705559201538562774658203125" lon="1.62853471934795379638671875">
        <ele>-246.1999969482421875</ele>
        <time>2025-09-07T08:28:17.000Z</time>
        <extensions>
          <ns3:TrackPointExtension>
            <ns3:hr>158</ns3:hr>
            <ns3:cad>0</ns3:cad>
          </ns3:TrackPointExtension>
        </extensions>
      </trkpt>
      <trkpt lat="52.24709716625511646270751953125" lon="1.62854611873626708984375">
        <ele>-246.399993896484375</ele>
        <time>2025-09-07T08:28:19.000Z</time>
        <extensions>
          <ns3:TrackPointExtension>
            <ns3:hr>155</ns3:hr>
            <ns3:cad>0</ns3:cad>
          </ns3:TrackPointExtension>
        </extensions>
      </trkpt>
      <trkpt lat="52.247154749929904937744140625" lon="1.628563888370990753173828125">
        <ele>-246.399993896484375</ele>
        <time>2025-09-07T08:28:22.000Z</time>
        <extensions>
          <ns3:TrackPointExtension>
            <ns3:hr>152</ns3:hr>
            <ns3:cad>80</ns3:cad>
          </ns3:TrackPointExtension>
        </extensions>
      </trkpt>
      <trkpt lat="52.2472186200320720672607421875" lon="1.62859062664210796356201171875">
        <ele>-244.600006103515625</ele>
        <time>2025-09-07T08:28:25.000Z</time>
        <extensions>
          <ns3:TrackPointExtension>
            <ns3:hr>150</ns3:hr>
            <ns3:cad>81</ns3:cad>
          </ns3:TrackPointExtension>
        </extensions>
      </trkpt>
      <trkpt lat="52.2472404129803180694580078125" lon="1.62859431467950344085693359375">
        <ele>-243.399993896484375</ele>
        <time>2025-09-07T08:28:26.000Z</time>
        <extensions>
          <ns3:TrackPointExtension>
            <ns3:hr>150</ns3:hr>
            <ns3:cad>81</ns3:cad>
          </ns3:TrackPointExtension>
        </extensions>
      </trkpt>
      <trkpt lat="52.2472622059285640716552734375" lon="1.62859783507883548736572265625">
        <ele>-241.399993896484375</ele>
        <time>2025-09-07T08:28:27.000Z</time>
        <extensions>
          <ns3:TrackPointExtension>
            <ns3:hr>149</ns3:hr>
            <ns3:cad>81</ns3:cad>
          </ns3:TrackPointExtension>
        </extensions>
      </trkpt>
      <trkpt lat="52.24730520509183406829833984375" lon="1.6286076419055461883544921875">
        <ele>-239</ele>
        <time>2025-09-07T08:28:29.000Z</time>
        <extensions>
          <ns3:TrackPointExtension>
            <ns3:hr>149</ns3:hr>
            <ns3:cad>80</ns3:cad>
          </ns3:TrackPointExtension>
        </extensions>
      </trkpt>
      <trkpt lat="52.24732431583106517791748046875" lon="1.62861024029552936553955078125">
        <ele>-238.1999969482421875</ele>
        <time>2025-09-07T08:28:30.000Z</time>
        <extensions>
          <ns3:TrackPointExtension>
            <ns3:hr>148</ns3:hr>
            <ns3:cad>80</ns3:cad>
          </ns3:TrackPointExtension>
        </extensions>
      </trkpt>
      <trkpt lat="52.24734426476061344146728515625" lon="1.62861384451389312744140625">
        <ele>-237.8000030517578125</ele>
        <time>2025-09-07T08:28:31.000Z</time>
        <extensions>
          <ns3:TrackPointExtension>
            <ns3:hr>147</ns3:hr>
            <ns3:cad>80</ns3:cad>
          </ns3:TrackPointExtension>
        </extensions>
      </trkpt>
      <trkpt lat="52.24738365970551967620849609375" lon="1.628625579178333282470703125">
        <ele>-236</ele>
        <time>2025-09-07T08:28:33.000Z</time>
        <extensions>
          <ns3:TrackPointExtension>
            <ns3:hr>146</ns3:hr>
            <ns3:cad>80</ns3:cad>
          </ns3:TrackPointExtension>
        </extensions>
      </trkpt>
      <trkpt lat="52.24741886369884014129638671875" lon="1.62863806821405887603759765625">
        <ele>-234.8000030517578125</ele>
        <time>2025-09-07T08:28:35.000Z</time>
        <extensions>
          <ns3:TrackPointExtension>
            <ns3:hr>146</ns3:hr>
            <ns3:cad>80</ns3:cad>
          </ns3:TrackPointExtension>
        </extensions>
      </trkpt>
      <trkpt lat="52.24744878709316253662109375" lon="1.628646366298198699951171875">
        <ele>-234.600006103515625</ele>
        <time>2025-09-07T08:28:37.000Z</time>
        <extensions>
          <ns3:TrackPointExtension>
            <ns3:hr>146</ns3:hr>
            <ns3:cad>79</ns3:cad>
          </ns3:TrackPointExtension>
        </extensions>
      </trkpt>
      <trkpt lat="52.24753302522003650665283203125" lon="1.6286525689065456390380859375">
        <ele>-234.1999969482421875</ele>
        <time>2025-09-07T08:28:43.000Z</time>
        <extensions>
          <ns3:TrackPointExtension>
            <ns3:hr>147</ns3:hr>
            <ns3:cad>55</ns3:cad>
          </ns3:TrackPointExtension>
        </extensions>
      </trkpt>
      <trkpt lat="52.24757216870784759521484375" lon="1.62859766744077205657958984375">
        <ele>-234.600006103515625</ele>
        <time>2025-09-07T08:28:48.000Z</time>
        <extensions>
          <ns3:TrackPointExtension>
            <ns3:hr>150</ns3:hr>
            <ns3:cad>57</ns3:cad>
          </ns3:TrackPointExtension>
        </extensions>
      </trkpt>
      <trkpt lat="52.247581891715526580810546875" lon="1.62858970463275909423828125">
        <ele>-234.8000030517578125</ele>
        <time>2025-09-07T08:28:49.000Z</time>
        <extensions>
          <ns3:TrackPointExtension>
            <ns3:hr>151</ns3:hr>
            <ns3:cad>57</ns3:cad>
          </ns3:TrackPointExtension>
        </extensions>
      </trkpt>
      <trkpt lat="52.24763394333422183990478515625" lon="1.6285774670541286468505859375">
        <ele>-234.8000030517578125</ele>
        <time>2025-09-07T08:28:54.000Z</time>
        <extensions>
          <ns3:TrackPointExtension>
            <ns3:hr>150</ns3:hr>
            <ns3:cad>60</ns3:cad>
          </ns3:TrackPointExtension>
        </extensions>
      </trkpt>
      <trkpt lat="52.2476615197956562042236328125" lon="1.62859372794628143310546875">
        <ele>-234.8000030517578125</ele>
        <time>2025-09-07T08:28:56.000Z</time>
        <extensions>
          <ns3:TrackPointExtension>
            <ns3:hr>148</ns3:hr>
            <ns3:cad>60</ns3:cad>
          </ns3:TrackPointExtension>
        </extensions>
      </trkpt>
      <trkpt lat="52.247775010764598846435546875" lon="1.62860018201172351837158203125">
        <ele>-233.600006103515625</ele>
        <time>2025-09-07T08:29:03.000Z</time>
        <extensions>
          <ns3:TrackPointExtension>
            <ns3:hr>146</ns3:hr>
            <ns3:cad>52</ns3:cad>
          </ns3:TrackPointExtension>
        </extensions>
      </trkpt>
      <trkpt lat="52.24781013093888759613037109375" lon="1.628598086535930633544921875">
        <ele>-232.1999969482421875</ele>
        <time>2025-09-07T08:29:05.000Z</time>
        <extensions>
          <ns3:TrackPointExtension>
            <ns3:hr>145</ns3:hr>
            <ns3:cad>52</ns3:cad>
          </ns3:TrackPointExtension>
        </extensions>
      </trkpt>
      <trkpt lat="52.24784349091351032257080078125" lon="1.62860621698200702667236328125">
        <ele>-231.1999969482421875</ele>
        <time>2025-09-07T08:29:07.000Z</time>
        <extensions>
          <ns3:TrackPointExtension>
            <ns3:hr>145</ns3:hr>
            <ns3:cad>52</ns3:cad>
          </ns3:TrackPointExtension>
        </extensions>
      </trkpt>
      <trkpt lat="52.2479062713682651519775390625" lon="1.62861191667616367340087890625">
        <ele>-230.399993896484375</ele>
        <time>2025-09-07T08:29:11.000Z</time>
        <extensions>
          <ns3:TrackPointExtension>
            <ns3:hr>145</ns3:hr>
            <ns3:cad>60</ns3:cad>
          </ns3:TrackPointExtension>
        </extensions>
      </trkpt>
      <trkpt lat="52.24802671931684017181396484375" lon="1.62859867326915264129638671875">
        <ele>-230.399993896484375</ele>
        <time>2025-09-07T08:29:19.000Z</time>
        <extensions>
          <ns3:TrackPointExtension>
            <ns3:hr>145</ns3:hr>
            <ns3:cad>60</ns3:cad>
          </ns3:TrackPointExtension>
        </extensions>
      </trkpt>
      <trkpt lat="52.24810115061700344085693359375" lon="1.62859565578401088714599609375">
        <ele>-230.1999969482421875</ele>
        <time>2025-09-07T08:29:24.000Z</time>
        <extensions>
          <ns3:TrackPointExtension>
            <ns3:hr>142</ns3:hr>
            <ns3:cad>60</ns3:cad>
          </ns3:TrackPointExtension>
        </extensions>
      </trkpt>
      <trkpt lat="52.24813283421099185943603515625" lon="1.6285930573940277099609375">
        <ele>-230</ele>
        <time>2025-09-07T08:29:26.000Z</time>
        <extensions>
          <ns3:TrackPointExtension>
            <ns3:hr>141</ns3:hr>
            <ns3:cad>60</ns3:cad>
          </ns3:TrackPointExtension>
        </extensions>
      </trkpt>
      <trkpt lat="52.24814825691282749176025390625" lon="1.62859112955629825592041015625">
        <ele>-229.8000030517578125</ele>
        <time>2025-09-07T08:29:27.000Z</time>
        <extensions>
          <ns3:TrackPointExtension>
            <ns3:hr>141</ns3:hr>
            <ns3:cad>59</ns3:cad>
          </ns3:TrackPointExtension>
        </extensions>
      </trkpt>
      <trkpt lat="52.248202823102474212646484375" lon="1.62859213538467884063720703125">
        <ele>-229</ele>
        <time>2025-09-07T08:29:31.000Z</time>
        <extensions>
          <ns3:TrackPointExtension>
            <ns3:hr>142</ns3:hr>
            <ns3:cad>60</ns3:cad>
          </ns3:TrackPointExtension>
        </extensions>
      </trkpt>
      <trkpt lat="52.24824917502701282501220703125" lon="1.6286145150661468505859375">
        <ele>-228.1999969482421875</ele>
        <time>2025-09-07T08:29:35.000Z</time>
        <extensions>
          <ns3:TrackPointExtension>
            <ns3:hr>143</ns3:hr>
            <ns3:cad>59</ns3:cad>
          </ns3:TrackPointExtension>
        </extensions>
      </trkpt>
      <trkpt lat="52.2482613287866115570068359375" lon="1.6286306083202362060546875">
        <ele>-227.8000030517578125</ele>
        <time>2025-09-07T08:29:36.000Z</time>
        <extensions>
          <ns3:TrackPointExtension>
            <ns3:hr>143</ns3:hr>
            <ns3:cad>59</ns3:cad>
          </ns3:TrackPointExtension>
        </extensions>
      </trkpt>
      <trkpt lat="52.2483344189822673797607421875" lon="1.628629267215728759765625">
        <ele>-227.1999969482421875</ele>
        <time>2025-09-07T08:29:41.000Z</time>
        <extensions>
          <ns3:TrackPointExtension>
            <ns3:hr>142</ns3:hr>
            <ns3:cad>59</ns3:cad>
          </ns3:TrackPointExtension>
        </extensions>
      </trkpt>
      <trkpt lat="52.24836031906306743621826171875" lon="1.62862968631088733673095703125">
        <ele>-226.600006103515625</ele>
        <time>2025-09-07T08:29:43.000Z</time>
        <extensions>
          <ns3:TrackPointExtension>
            <ns3:hr>142</ns3:hr>
            <ns3:cad>59</ns3:cad>
          </ns3:TrackPointExtension>
        </extensions>
      </trkpt>
      <trkpt lat="52.24841840565204620361328125" lon="1.62860671989619731903076171875">
        <ele>-225.399993896484375</ele>
        <time>2025-09-07T08:29:47.000Z</time>
        <extensions>
          <ns3:TrackPointExtension>
            <ns3:hr>143</ns3:hr>
            <ns3:cad>60</ns3:cad>
          </ns3:TrackPointExtension>
        </extensions>
      </trkpt>
      <trkpt lat="52.2484611533582210540771484375" lon="1.6286049596965312957763671875">
        <ele>-222</ele>
        <time>2025-09-07T08:29:50.000Z</time>
        <extensions>
          <ns3:TrackPointExtension>
            <ns3:hr>144</ns3:hr>
            <ns3:cad>59</ns3:cad>
          </ns3:TrackPointExtension>
        </extensions>
      </trkpt>
      <trkpt lat="52.24847548641264438629150390625" lon="1.62860889919102191925048828125">
        <ele>-220.600006103515625</ele>
        <time>2025-09-07T08:29:51.000Z</time>
        <extensions>
          <ns3:TrackPointExtension>
            <ns3:hr>144</ns3:hr>
            <ns3:cad>60</ns3:cad>
          </ns3:TrackPointExtension>
        </extensions>
      </trkpt>
      <trkpt lat="52.248511612415313720703125" lon="1.6286096535623073577880859375">
        <ele>-219.399993896484375</ele>
        <time>2025-09-07T08:29:53.000Z</time>
        <extensions>
          <ns3:TrackPointExtension>
            <ns3:hr>144</ns3:hr>
            <ns3:cad>62</ns3:cad>
          </ns3:TrackPointExtension>
        </extensions>
      </trkpt>
      <trkpt lat="52.24862116388976573944091796875" lon="1.6286083124577999114990234375">
        <ele>-218.600006103515625</ele>
        <time>2025-09-07T08:30:00.000Z</time>
        <extensions>
          <ns3:TrackPointExtension>
            <ns3:hr>142</ns3:hr>
            <ns3:cad>61</ns3:cad>
          </ns3:TrackPointExtension>
        </extensions>
      </trkpt>
      <trkpt lat="52.24875996820628643035888671875" lon="1.6286079771816730499267578125">
        <ele>-218.1999969482421875</ele>
        <time>2025-09-07T08:30:09.000Z</time>
        <extensions>
          <ns3:TrackPointExtension>
            <ns3:hr>139</ns3:hr>
            <ns3:cad>61</ns3:cad>
          </ns3:TrackPointExtension>
        </extensions>
      </trkpt>
      <trkpt lat="52.24882400594651699066162109375" lon="1.62860454060137271881103515625">
        <ele>-217</ele>
        <time>2025-09-07T08:30:13.000Z</time>
        <extensions>
          <ns3:TrackPointExtension>
            <ns3:hr>138</ns3:hr>
            <ns3:cad>60</ns3:cad>
          </ns3:TrackPointExtension>
        </extensions>
      </trkpt>
      <trkpt lat="52.24885418079793453216552734375" lon="1.6286036185920238494873046875">
        <ele>-215.399993896484375</ele>
        <time>2025-09-07T08:30:15.000Z</time>
        <extensions>
          <ns3:TrackPointExtension>
            <ns3:hr>138</ns3:hr>
            <ns3:cad>60</ns3:cad>
          </ns3:TrackPointExtension>
        </extensions>
      </trkpt>
      <trkpt lat="52.24887974560260772705078125" lon="1.6285918839275836944580078125">
        <ele>-213.8000030517578125</ele>
        <time>2025-09-07T08:30:17.000Z</time>
        <extensions>
          <ns3:TrackPointExtension>
            <ns3:hr>138</ns3:hr>
            <ns3:cad>60</ns3:cad>
          </ns3:TrackPointExtension>
        </extensions>
      </trkpt>
      <trkpt lat="52.2488996945321559906005859375" lon="1.6285757906734943389892578125">
        <ele>-212.8000030517578125</ele>
        <time>2025-09-07T08:30:19.000Z</time>
        <extensions>
          <ns3:TrackPointExtension>
            <ns3:hr>139</ns3:hr>
            <ns3:cad>60</ns3:cad>
          </ns3:TrackPointExtension>
        </extensions>
      </trkpt>
      <trkpt lat="52.24893632344901561737060546875" lon="1.628560535609722137451171875">
        <ele>-211.600006103515625</ele>
        <time>2025-09-07T08:30:23.000Z</time>
        <extensions>
          <ns3:TrackPointExtension>
            <ns3:hr>140</ns3:hr>
            <ns3:cad>121</ns3:cad>
          </ns3:TrackPointExtension>
        </extensions>
      </trkpt>
      <trkpt lat="52.24896264262497425079345703125" lon="1.6285367310047149658203125">
        <ele>-211</ele>
        <time>2025-09-07T08:30:25.000Z</time>
        <extensions>
          <ns3:TrackPointExtension>
            <ns3:hr>140</ns3:hr>
            <ns3:cad>0</ns3:cad>
          </ns3:TrackPointExtension>
        </extensions>
      </trkpt>
      <trkpt lat="52.249001450836658477783203125" lon="1.62852927111089229583740234375">
        <ele>-210.399993896484375</ele>
        <time>2025-09-07T08:30:27.000Z</time>
        <extensions>
          <ns3:TrackPointExtension>
            <ns3:hr>141</ns3:hr>
            <ns3:cad>0</ns3:cad>
          </ns3:TrackPointExtension>
        </extensions>
      </trkpt>
      <trkpt lat="52.2490904666483402252197265625" lon="1.6285231523215770721435546875">
        <ele>-208.8000030517578125</ele>
        <time>2025-09-07T08:30:31.000Z</time>
        <extensions>
          <ns3:TrackPointExtension>
            <ns3:hr>139</ns3:hr>
            <ns3:cad>80</ns3:cad>
          </ns3:TrackPointExtension>
        </extensions>
      </trkpt>
      <trkpt lat="52.2491109184920787811279296875" lon="1.62851988337934017181396484375">
        <ele>-208.600006103515625</ele>
        <time>2025-09-07T08:30:32.000Z</time>
        <extensions>
          <ns3:TrackPointExtension>
            <ns3:hr>138</ns3:hr>
            <ns3:cad>80</ns3:cad>
          </ns3:TrackPointExtension>
        </extensions>
      </trkpt>
      <trkpt lat="52.2491508163511753082275390625" lon="1.62851435132324695587158203125">
        <ele>-207.600006103515625</ele>
        <time>2025-09-07T08:30:34.000Z</time>
        <extensions>
          <ns3:TrackPointExtension>
            <ns3:hr>138</ns3:hr>
            <ns3:cad>81</ns3:cad>
          </ns3:TrackPointExtension>
        </extensions>
      </trkpt>
      <trkpt lat="52.24918576888740062713623046875" lon="1.6285125911235809326171875">
        <ele>-204.8000030517578125</ele>
        <time>2025-09-07T08:30:36.000Z</time>
        <extensions>
          <ns3:TrackPointExtension>
            <ns3:hr>140</ns3:hr>
            <ns3:cad>82</ns3:cad>
          </ns3:TrackPointExtension>
        </extensions>
      </trkpt>
      <trkpt lat="52.2492041252553462982177734375" lon="1.62850789725780487060546875">
        <ele>-202.399993896484375</ele>
        <time>2025-09-07T08:30:37.000Z</time>
        <extensions>
          <ns3:TrackPointExtension>
            <ns3:hr>139</ns3:hr>
            <ns3:cad>82</ns3:cad>
          </ns3:TrackPointExtension>
        </extensions>
      </trkpt>
      <trkpt lat="52.24922382272779941558837890625" lon="1.628503538668155670166015625">
        <ele>-201</ele>
        <time>2025-09-07T08:30:38.000Z</time>
        <extensions>
          <ns3:TrackPointExtension>
            <ns3:hr>139</ns3:hr>
            <ns3:cad>82</ns3:cad>
          </ns3:TrackPointExtension>
        </extensions>
      </trkpt>
      <trkpt lat="52.24924343638122081756591796875" lon="1.628500856459140777587890625">
        <ele>-199.8000030517578125</ele>
        <time>2025-09-07T08:30:39.000Z</time>
        <extensions>
          <ns3:TrackPointExtension>
            <ns3:hr>142</ns3:hr>
            <ns3:cad>82</ns3:cad>
          </ns3:TrackPointExtension>
        </extensions>
      </trkpt>
      <trkpt lat="52.2492819093167781829833984375" lon="1.628495492041110992431640625">
        <ele>-197.399993896484375</ele>
        <time>2025-09-07T08:30:41.000Z</time>
        <extensions>
          <ns3:TrackPointExtension>
            <ns3:hr>144</ns3:hr>
            <ns3:cad>82</ns3:cad>
          </ns3:TrackPointExtension>
        </extensions>
      </trkpt>
      <trkpt lat="52.2493016906082630157470703125" lon="1.6284919716417789459228515625">
        <ele>-195.8000030517578125</ele>
        <time>2025-09-07T08:30:42.000Z</time>
        <extensions>
          <ns3:TrackPointExtension>
            <ns3:hr>146</ns3:hr>
            <ns3:cad>81</ns3:cad>
          </ns3:TrackPointExtension>
        </extensions>
      </trkpt>
      <trkpt lat="52.24932088516652584075927734375" lon="1.62848937325179576873779296875">
        <ele>-194.399993896484375</ele>
        <time>2025-09-07T08:30:43.000Z</time>
        <extensions>
          <ns3:TrackPointExtension>
            <ns3:hr>146</ns3:hr>
            <ns3:cad>81</ns3:cad>
          </ns3:TrackPointExtension>
        </extensions>
      </trkpt>
      <trkpt lat="52.24936245940625667572021484375" lon="1.6284882836043834686279296875">
        <ele>-193</ele>
        <time>2025-09-07T08:30:45.000Z</time>
        <extensions>
          <ns3:TrackPointExtension>
            <ns3:hr>147</ns3:hr>
            <ns3:cad>81</ns3:cad>
          </ns3:TrackPointExtension>
        </extensions>
      </trkpt>
      <trkpt lat="52.2494233958423137664794921875" lon="1.6284785605967044830322265625">
        <ele>-191.600006103515625</ele>
        <time>2025-09-07T08:30:48.000Z</time>
        <extensions>
          <ns3:TrackPointExtension>
            <ns3:hr>147</ns3:hr>
            <ns3:cad>80</ns3:cad>
          </ns3:TrackPointExtension>
        </extensions>
      </trkpt>
      <trkpt lat="52.2494455240666866302490234375" lon="1.628477387130260467529296875">
        <ele>-191</ele>
        <time>2025-09-07T08:30:49.000Z</time>
        <extensions>
          <ns3:TrackPointExtension>
            <ns3:hr>148</ns3:hr>
            <ns3:cad>81</ns3:cad>
          </ns3:TrackPointExtension>
        </extensions>
      </trkpt>
      <trkpt lat="52.24952657707035541534423828125" lon="1.62846188060939311981201171875">
        <ele>-190.8000030517578125</ele>
        <time>2025-09-07T08:30:53.000Z</time>
        <extensions>
          <ns3:TrackPointExtension>
            <ns3:hr>151</ns3:hr>
            <ns3:cad>81</ns3:cad>
          </ns3:TrackPointExtension>
        </extensions>
      </trkpt>
      <trkpt lat="52.249562703073024749755859375" lon="1.62845668382942676544189453125">
        <ele>-192.8000030517578125</ele>
        <time>2025-09-07T08:30:55.000Z</time>
        <extensions>
          <ns3:TrackPointExtension>
            <ns3:hr>151</ns3:hr>
            <ns3:cad>81</ns3:cad>
          </ns3:TrackPointExtension>
        </extensions>
      </trkpt>
      <trkpt lat="52.24960251711308956146240234375" lon="1.6284510679543018341064453125">
        <ele>-194.1999969482421875</ele>
        <time>2025-09-07T08:30:57.000Z</time>
        <extensions>
          <ns3:TrackPointExtension>
            <ns3:hr>153</ns3:hr>
            <ns3:cad>81</ns3:cad>
          </ns3:TrackPointExtension>
        </extensions>
      </trkpt>
      <trkpt lat="52.24964409135282039642333984375" lon="1.62844645790755748748779296875">
        <ele>-195.399993896484375</ele>
        <time>2025-09-07T08:30:59.000Z</time>
        <extensions>
          <ns3:TrackPointExtension>
            <ns3:hr>153</ns3:hr>
            <ns3:cad>81</ns3:cad>
          </ns3:TrackPointExtension>
        </extensions>
      </trkpt>
      <trkpt lat="52.2497858293354511260986328125" lon="1.628428436815738677978515625">
        <ele>-196</ele>
        <time>2025-09-07T08:31:08.000Z</time>
        <extensions>
          <ns3:TrackPointExtension>
            <ns3:hr>156</ns3:hr>
            <ns3:cad>81</ns3:cad>
          </ns3:TrackPointExtension>
        </extensions>
      </trkpt>
      <trkpt lat="52.249908708035945892333984375" lon="1.62838988006114959716796875">
        <ele>-196.1999969482421875</ele>
        <time>2025-09-07T08:31:14.000Z</time>
        <extensions>
          <ns3:TrackPointExtension>
            <ns3:hr>152</ns3:hr>
            <ns3:cad>81</ns3:cad>
          </ns3:TrackPointExtension>
        </extensions>
      </trkpt>
      <trkpt lat="52.24993511103093624114990234375" lon="1.6283846832811832427978515625">
        <ele>-196.399993896484375</ele>
        <time>2025-09-07T08:31:15.000Z</time>
        <extensions>
          <ns3:TrackPointExtension>
            <ns3:hr>152</ns3:hr>
            <ns3:cad>81</ns3:cad>
          </ns3:TrackPointExtension>
        </extensions>
      </trkpt>
      <trkpt lat="52.24995522759854793548583984375" lon="1.62837906740605831146240234375">
        <ele>-196.399993896484375</ele>
        <time>2025-09-07T08:31:16.000Z</time>
        <extensions>
          <ns3:TrackPointExtension>
            <ns3:hr>152</ns3:hr>
            <ns3:cad>81</ns3:cad>
          </ns3:TrackPointExtension>
        </extensions>
      </trkpt>
      <trkpt lat="52.250112555921077728271484375" lon="1.6283581964671611785888671875">
        <ele>-197.1999969482421875</ele>
        <time>2025-09-07T08:31:23.000Z</time>
        <extensions>
          <ns3:TrackPointExtension>
            <ns3:hr>152</ns3:hr>
            <ns3:cad>82</ns3:cad>
          </ns3:TrackPointExtension>
        </extensions>
      </trkpt>
      <trkpt lat="52.25013409741222858428955078125" lon="1.62835744209587574005126953125">
        <ele>-197.600006103515625</ele>
        <time>2025-09-07T08:31:24.000Z</time>
        <extensions>
          <ns3:TrackPointExtension>
            <ns3:hr>153</ns3:hr>
            <ns3:cad>82</ns3:cad>
          </ns3:TrackPointExtension>
        </extensions>
      </trkpt>
      <trkpt lat="52.2501760907471179962158203125" lon="1.6283508203923702239990234375">
        <ele>-198</ele>
        <time>2025-09-07T08:31:26.000Z</time>
        <extensions>
          <ns3:TrackPointExtension>
            <ns3:hr>153</ns3:hr>
            <ns3:cad>82</ns3:cad>
          </ns3:TrackPointExtension>
        </extensions>
      </trkpt>
      <trkpt lat="52.25021925754845142364501953125" lon="1.6283410973846912384033203125">
        <ele>-199</ele>
        <time>2025-09-07T08:31:28.000Z</time>
        <extensions>
          <ns3:TrackPointExtension>
            <ns3:hr>151</ns3:hr>
            <ns3:cad>81</ns3:cad>
          </ns3:TrackPointExtension>
        </extensions>
      </trkpt>
      <trkpt lat="52.2503502666950225830078125" lon="1.62832408212125301361083984375">
        <ele>-200</ele>
        <time>2025-09-07T08:31:34.000Z</time>
        <extensions>
          <ns3:TrackPointExtension>
            <ns3:hr>152</ns3:hr>
            <ns3:cad>81</ns3:cad>
          </ns3:TrackPointExtension>
        </extensions>
      </trkpt>
      <trkpt lat="52.25037214346230030059814453125" lon="1.6283233277499675750732421875">
        <ele>-200.1999969482421875</ele>
        <time>2025-09-07T08:31:35.000Z</time>
        <extensions>
          <ns3:TrackPointExtension>
            <ns3:hr>152</ns3:hr>
            <ns3:cad>81</ns3:cad>
          </ns3:TrackPointExtension>
        </extensions>
      </trkpt>
      <trkpt lat="52.25054539740085601806640625" lon="1.62829776294529438018798828125">
        <ele>-201.1999969482421875</ele>
        <time>2025-09-07T08:31:43.000Z</time>
        <extensions>
          <ns3:TrackPointExtension>
            <ns3:hr>151</ns3:hr>
            <ns3:cad>81</ns3:cad>
          </ns3:TrackPointExtension>
        </extensions>
      </trkpt>
      <trkpt lat="52.2506387718021869659423828125" lon="1.62827898748219013214111328125">
        <ele>-202</ele>
        <time>2025-09-07T08:31:47.000Z</time>
        <extensions>
          <ns3:TrackPointExtension>
            <ns3:hr>154</ns3:hr>
            <ns3:cad>80</ns3:cad>
          </ns3:TrackPointExtension>
        </extensions>
      </trkpt>
      <trkpt lat="52.250705324113368988037109375" lon="1.62827747873961925506591796875">
        <ele>-202.399993896484375</ele>
        <time>2025-09-07T08:31:50.000Z</time>
        <extensions>
          <ns3:TrackPointExtension>
            <ns3:hr>152</ns3:hr>
            <ns3:cad>81</ns3:cad>
          </ns3:TrackPointExtension>
        </extensions>
      </trkpt>
      <trkpt lat="52.25074924528598785400390625" lon="1.62827379070222377777099609375">
        <ele>-202.8000030517578125</ele>
        <time>2025-09-07T08:31:52.000Z</time>
        <extensions>
          <ns3:TrackPointExtension>
            <ns3:hr>153</ns3:hr>
            <ns3:cad>82</ns3:cad>
          </ns3:TrackPointExtension>
        </extensions>
      </trkpt>
      <trkpt lat="52.25087790749967098236083984375" lon="1.62826021201908588409423828125">
        <ele>-203.600006103515625</ele>
        <time>2025-09-07T08:31:58.000Z</time>
        <extensions>
          <ns3:TrackPointExtension>
            <ns3:hr>150</ns3:hr>
            <ns3:cad>81</ns3:cad>
          </ns3:TrackPointExtension>
        </extensions>
      </trkpt>
      <trkpt lat="52.250958792865276336669921875" lon="1.628249399363994598388671875">
        <ele>-203.8000030517578125</ele>
        <time>2025-09-07T08:32:02.000Z</time>
        <extensions>
          <ns3:TrackPointExtension>
            <ns3:hr>151</ns3:hr>
            <ns3:cad>81</ns3:cad>
          </ns3:TrackPointExtension>
        </extensions>
      </trkpt>
      <trkpt lat="52.25104965269565582275390625" lon="1.6282577812671661376953125">
        <ele>-205.399993896484375</ele>
        <time>2025-09-07T08:32:08.000Z</time>
        <extensions>
          <ns3:TrackPointExtension>
            <ns3:hr>152</ns3:hr>
            <ns3:cad>81</ns3:cad>
          </ns3:TrackPointExtension>
        </extensions>
      </trkpt>
      <trkpt lat="52.2510682605206966400146484375" lon="1.62824110127985477447509765625">
        <ele>-206.600006103515625</ele>
        <time>2025-09-07T08:32:10.000Z</time>
        <extensions>
          <ns3:TrackPointExtension>
            <ns3:hr>153</ns3:hr>
            <ns3:cad>81</ns3:cad>
          </ns3:TrackPointExtension>
        </extensions>
      </trkpt>
      <trkpt lat="52.2511041350662708282470703125" lon="1.62819449789822101593017578125">
        <ele>-207.8000030517578125</ele>
        <time>2025-09-07T08:32:13.000Z</time>
        <extensions>
          <ns3:TrackPointExtension>
            <ns3:hr>154</ns3:hr>
            <ns3:cad>0</ns3:cad>
          </ns3:TrackPointExtension>
        </extensions>
      </trkpt>
      <trkpt lat="52.25112886168062686920166015625" lon="1.628168933093547821044921875">
        <ele>-209.600006103515625</ele>
        <time>2025-09-07T08:32:15.000Z</time>
        <extensions>
          <ns3:TrackPointExtension>
            <ns3:hr>155</ns3:hr>
            <ns3:cad>0</ns3:cad>
          </ns3:TrackPointExtension>
        </extensions>
      </trkpt>
      <trkpt lat="52.2511537559330463409423828125" lon="1.62813263945281505584716796875">
        <ele>-211</ele>
        <time>2025-09-07T08:32:17.000Z</time>
        <extensions>
          <ns3:TrackPointExtension>
            <ns3:hr>156</ns3:hr>
            <ns3:cad>0</ns3:cad>
          </ns3:TrackPointExtension>
        </extensions>
      </trkpt>
      <trkpt lat="52.2511628083884716033935546875" lon="1.62811495363712310791015625">
        <ele>-211.8000030517578125</ele>
        <time>2025-09-07T08:32:18.000Z</time>
        <extensions>
          <ns3:TrackPointExtension>
            <ns3:hr>157</ns3:hr>
            <ns3:cad>0</ns3:cad>
          </ns3:TrackPointExtension>
        </extensions>
      </trkpt>
      <trkpt lat="52.25117714144289493560791015625" lon="1.62809575907886028289794921875">
        <ele>-212.1999969482421875</ele>
        <time>2025-09-07T08:32:19.000Z</time>
        <extensions>
          <ns3:TrackPointExtension>
            <ns3:hr>157</ns3:hr>
            <ns3:cad>0</ns3:cad>
          </ns3:TrackPointExtension>
        </extensions>
      </trkpt>
      <trkpt lat="52.25122894160449504852294921875" lon="1.6280205734074115753173828125">
        <ele>-212.600006103515625</ele>
        <time>2025-09-07T08:32:24.000Z</time>
        <extensions>
          <ns3:TrackPointExtension>
            <ns3:hr>157</ns3:hr>
            <ns3:cad>56</ns3:cad>
          </ns3:TrackPointExtension>
        </extensions>
      </trkpt>
      <trkpt lat="52.251264564692974090576171875" lon="1.62796617485582828521728515625">
        <ele>-210.399993896484375</ele>
        <time>2025-09-07T08:32:28.000Z</time>
        <extensions>
          <ns3:TrackPointExtension>
            <ns3:hr>156</ns3:hr>
            <ns3:cad>61</ns3:cad>
          </ns3:TrackPointExtension>
        </extensions>
      </trkpt>
      <trkpt lat="52.2512757964432239532470703125" lon="1.62795410491526126861572265625">
        <ele>-209.1999969482421875</ele>
        <time>2025-09-07T08:32:29.000Z</time>
        <extensions>
          <ns3:TrackPointExtension>
            <ns3:hr>155</ns3:hr>
            <ns3:cad>62</ns3:cad>
          </ns3:TrackPointExtension>
        </extensions>
      </trkpt>
      <trkpt lat="52.25129683502018451690673828125" lon="1.62793256342411041259765625">
        <ele>-208</ele>
        <time>2025-09-07T08:32:31.000Z</time>
        <extensions>
          <ns3:TrackPointExtension>
            <ns3:hr>155</ns3:hr>
            <ns3:cad>61</ns3:cad>
          </ns3:TrackPointExtension>
        </extensions>
      </trkpt>
      <trkpt lat="52.25133773870766162872314453125" lon="1.62789425812661647796630859375">
        <ele>-207.600006103515625</ele>
        <time>2025-09-07T08:32:35.000Z</time>
        <extensions>
          <ns3:TrackPointExtension>
            <ns3:hr>154</ns3:hr>
            <ns3:cad>60</ns3:cad>
          </ns3:TrackPointExtension>
        </extensions>
      </trkpt>
      <trkpt lat="52.25141066126525402069091796875" lon="1.62777791731059551239013671875">
        <ele>-209.1999969482421875</ele>
        <time>2025-09-07T08:32:43.000Z</time>
        <extensions>
          <ns3:TrackPointExtension>
            <ns3:hr>152</ns3:hr>
            <ns3:cad>59</ns3:cad>
          </ns3:TrackPointExtension>
        </extensions>
      </trkpt>
      <trkpt lat="52.25142993964254856109619140625" lon="1.627748496830463409423828125">
        <ele>-212</ele>
        <time>2025-09-07T08:32:45.000Z</time>
        <extensions>
          <ns3:TrackPointExtension>
            <ns3:hr>151</ns3:hr>
            <ns3:cad>60</ns3:cad>
          </ns3:TrackPointExtension>
        </extensions>
      </trkpt>
      <trkpt lat="52.2514414228498935699462890625" lon="1.6277365945279598236083984375">
        <ele>-213</ele>
        <time>2025-09-07T08:32:46.000Z</time>
        <extensions>
          <ns3:TrackPointExtension>
            <ns3:hr>150</ns3:hr>
            <ns3:cad>61</ns3:cad>
          </ns3:TrackPointExtension>
        </extensions>
      </trkpt>
      <trkpt lat="52.25146313197910785675048828125" lon="1.6277174837887287139892578125">
        <ele>-214</ele>
        <time>2025-09-07T08:32:48.000Z</time>
        <extensions>
          <ns3:TrackPointExtension>
            <ns3:hr>149</ns3:hr>
            <ns3:cad>60</ns3:cad>
          </ns3:TrackPointExtension>
        </extensions>
      </trkpt>
      <trkpt lat="52.2514930553734302520751953125" lon="1.6276889853179454803466796875">
        <ele>-215.399993896484375</ele>
        <time>2025-09-07T08:32:51.000Z</time>
        <extensions>
          <ns3:TrackPointExtension>
            <ns3:hr>147</ns3:hr>
            <ns3:cad>58</ns3:cad>
          </ns3:TrackPointExtension>
        </extensions>
      </trkpt>
      <trkpt lat="52.25153588689863681793212890625" lon="1.62763743661344051361083984375">
        <ele>-216.8000030517578125</ele>
        <time>2025-09-07T08:32:55.000Z</time>
        <extensions>
          <ns3:TrackPointExtension>
            <ns3:hr>147</ns3:hr>
            <ns3:cad>59</ns3:cad>
          </ns3:TrackPointExtension>
        </extensions>
      </trkpt>
      <trkpt lat="52.25154745392501354217529296875" lon="1.6276229359209537506103515625">
        <ele>-217</ele>
        <time>2025-09-07T08:32:56.000Z</time>
        <extensions>
          <ns3:TrackPointExtension>
            <ns3:hr>147</ns3:hr>
            <ns3:cad>59</ns3:cad>
          </ns3:TrackPointExtension>
        </extensions>
      </trkpt>
      <trkpt lat="52.251645438373088836669921875" lon="1.62748991511762142181396484375">
        <ele>-217.8000030517578125</ele>
        <time>2025-09-07T08:33:06.000Z</time>
        <extensions>
          <ns3:TrackPointExtension>
            <ns3:hr>149</ns3:hr>
            <ns3:cad>60</ns3:cad>
          </ns3:TrackPointExtension>
        </extensions>
      </trkpt>
      <trkpt lat="52.25167284719645977020263671875" lon="1.6274678707122802734375">
        <ele>-217.8000030517578125</ele>
        <time>2025-09-07T08:33:08.000Z</time>
        <extensions>
          <ns3:TrackPointExtension>
            <ns3:hr>149</ns3:hr>
            <ns3:cad>60</ns3:cad>
          </ns3:TrackPointExtension>
        </extensions>
      </trkpt>
      <trkpt lat="52.2517341189086437225341796875" lon="1.627378351986408233642578125">
        <ele>-219</ele>
        <time>2025-09-07T08:33:14.000Z</time>
        <extensions>
          <ns3:TrackPointExtension>
            <ns3:hr>150</ns3:hr>
            <ns3:cad>60</ns3:cad>
          </ns3:TrackPointExtension>
        </extensions>
      </trkpt>
      <trkpt lat="52.25177410058677196502685546875" lon="1.627318672835826873779296875">
        <ele>-220.1999969482421875</ele>
        <time>2025-09-07T08:33:18.000Z</time>
        <extensions>
          <ns3:TrackPointExtension>
            <ns3:hr>149</ns3:hr>
            <ns3:cad>60</ns3:cad>
          </ns3:TrackPointExtension>
        </extensions>
      </trkpt>
      <trkpt lat="52.2518286667764186859130859375" lon="1.6272497735917568206787109375">
        <ele>-221</ele>
        <time>2025-09-07T08:33:23.000Z</time>
        <extensions>
          <ns3:TrackPointExtension>
            <ns3:hr>147</ns3:hr>
            <ns3:cad>60</ns3:cad>
          </ns3:TrackPointExtension>
        </extensions>
      </trkpt>
      <trkpt lat="52.25183763541281223297119140625" lon="1.62723728455603122711181640625">
        <ele>-221.1999969482421875</ele>
        <time>2025-09-07T08:33:24.000Z</time>
        <extensions>
          <ns3:TrackPointExtension>
            <ns3:hr>146</ns3:hr>
            <ns3:cad>60</ns3:cad>
          </ns3:TrackPointExtension>
        </extensions>
      </trkpt>
      <trkpt lat="52.251885831356048583984375" lon="1.627189256250858306884765625">
        <ele>-222.399993896484375</ele>
        <time>2025-09-07T08:33:28.000Z</time>
        <extensions>
          <ns3:TrackPointExtension>
            <ns3:hr>147</ns3:hr>
            <ns3:cad>59</ns3:cad>
          </ns3:TrackPointExtension>
        </extensions>
      </trkpt>
      <trkpt lat="52.2519403137266635894775390625" lon="1.62713854573667049407958984375">
        <ele>-223.600006103515625</ele>
        <time>2025-09-07T08:33:33.000Z</time>
        <extensions>
          <ns3:TrackPointExtension>
            <ns3:hr>149</ns3:hr>
            <ns3:cad>60</ns3:cad>
          </ns3:TrackPointExtension>
        </extensions>
      </trkpt>
      <trkpt lat="52.2520036809146404266357421875" lon="1.62706813775002956390380859375">
        <ele>-224.600006103515625</ele>
        <time>2025-09-07T08:33:38.000Z</time>
        <extensions>
          <ns3:TrackPointExtension>
            <ns3:hr>148</ns3:hr>
            <ns3:cad>61</ns3:cad>
          </ns3:TrackPointExtension>
        </extensions>
      </trkpt>
      <trkpt lat="52.2520308382809162139892578125" lon="1.62701298482716083526611328125">
        <ele>-224.8000030517578125</ele>
        <time>2025-09-07T08:33:40.000Z</time>
        <extensions>
          <ns3:TrackPointExtension>
            <ns3:hr>148</ns3:hr>
            <ns3:cad>61</ns3:cad>
          </ns3:TrackPointExtension>
        </extensions>
      </trkpt>
      <trkpt lat="52.25206797011196613311767578125" lon="1.6269480250775814056396484375">
        <ele>-225.8000030517578125</ele>
        <time>2025-09-07T08:33:43.000Z</time>
        <extensions>
          <ns3:TrackPointExtension>
            <ns3:hr>148</ns3:hr>
            <ns3:cad>61</ns3:cad>
          </ns3:TrackPointExtension>
        </extensions>
      </trkpt>
      <trkpt lat="52.252120859920978546142578125" lon="1.62689027376472949981689453125">
        <ele>-226.600006103515625</ele>
        <time>2025-09-07T08:33:47.000Z</time>
        <extensions>
          <ns3:TrackPointExtension>
            <ns3:hr>149</ns3:hr>
            <ns3:cad>59</ns3:cad>
          </ns3:TrackPointExtension>
        </extensions>
      </trkpt>
      <trkpt lat="52.252222113311290740966796875" lon="1.62683478556573390960693359375">
        <ele>-224</ele>
        <time>2025-09-07T08:33:54.000Z</time>
        <extensions>
          <ns3:TrackPointExtension>
            <ns3:hr>150</ns3:hr>
            <ns3:cad>61</ns3:cad>
          </ns3:TrackPointExtension>
        </extensions>
      </trkpt>
      <trkpt lat="52.2522336803376674652099609375" lon="1.62683151662349700927734375">
        <ele>-222.1999969482421875</ele>
        <time>2025-09-07T08:33:55.000Z</time>
        <extensions>
          <ns3:TrackPointExtension>
            <ns3:hr>150</ns3:hr>
            <ns3:cad>61</ns3:cad>
          </ns3:TrackPointExtension>
        </extensions>
      </trkpt>
      <trkpt lat="52.252245582640171051025390625" lon="1.62682749330997467041015625">
        <ele>-220.8000030517578125</ele>
        <time>2025-09-07T08:33:56.000Z</time>
        <extensions>
          <ns3:TrackPointExtension>
            <ns3:hr>148</ns3:hr>
            <ns3:cad>61</ns3:cad>
          </ns3:TrackPointExtension>
        </extensions>
      </trkpt>
      <trkpt lat="52.25225723348557949066162109375" lon="1.62682221271097660064697265625">
        <ele>-219.1999969482421875</ele>
        <time>2025-09-07T08:33:57.000Z</time>
        <extensions>
          <ns3:TrackPointExtension>
            <ns3:hr>149</ns3:hr>
            <ns3:cad>60</ns3:cad>
          </ns3:TrackPointExtension>
        </extensions>
      </trkpt>
      <trkpt lat="52.25226745940744876861572265625" lon="1.62681701593101024627685546875">
        <ele>-216.8000030517578125</ele>
        <time>2025-09-07T08:33:58.000Z</time>
        <extensions>
          <ns3:TrackPointExtension>
            <ns3:hr>149</ns3:hr>
            <ns3:cad>60</ns3:cad>
          </ns3:TrackPointExtension>
        </extensions>
      </trkpt>
      <trkpt lat="52.252278439700603485107421875" lon="1.62681014277040958404541015625">
        <ele>-215.1999969482421875</ele>
        <time>2025-09-07T08:33:59.000Z</time>
        <extensions>
          <ns3:TrackPointExtension>
            <ns3:hr>148</ns3:hr>
            <ns3:cad>60</ns3:cad>
          </ns3:TrackPointExtension>
        </extensions>
      </trkpt>
      <trkpt lat="52.25229126401245594024658203125" lon="1.62680159322917461395263671875">
        <ele>-213.600006103515625</ele>
        <time>2025-09-07T08:34:00.000Z</time>
        <extensions>
          <ns3:TrackPointExtension>
            <ns3:hr>148</ns3:hr>
            <ns3:cad>58</ns3:cad>
          </ns3:TrackPointExtension>
        </extensions>
      </trkpt>
      <trkpt lat="52.25231607444584369659423828125" lon="1.626787595450878143310546875">
        <ele>-212</ele>
        <time>2025-09-07T08:34:02.000Z</time>
        <extensions>
          <ns3:TrackPointExtension>
            <ns3:hr>146</ns3:hr>
            <ns3:cad>59</ns3:cad>
          </ns3:TrackPointExtension>
        </extensions>
      </trkpt>
      <trkpt lat="52.25234021432697772979736328125" lon="1.62676957435905933380126953125">
        <ele>-211</ele>
        <time>2025-09-07T08:34:04.000Z</time>
        <extensions>
          <ns3:TrackPointExtension>
            <ns3:hr>146</ns3:hr>
            <ns3:cad>59</ns3:cad>
          </ns3:TrackPointExtension>
        </extensions>
      </trkpt>
      <trkpt lat="52.25236368365585803985595703125" lon="1.6267503798007965087890625">
        <ele>-210.600006103515625</ele>
        <time>2025-09-07T08:34:06.000Z</time>
        <extensions>
          <ns3:TrackPointExtension>
            <ns3:hr>146</ns3:hr>
            <ns3:cad>59</ns3:cad>
          </ns3:TrackPointExtension>
        </extensions>
      </trkpt>
      <trkpt lat="52.25241967476904392242431640625" lon="1.62670268677175045013427734375">
        <ele>-213</ele>
        <time>2025-09-07T08:34:10.000Z</time>
        <extensions>
          <ns3:TrackPointExtension>
            <ns3:hr>145</ns3:hr>
            <ns3:cad>59</ns3:cad>
          </ns3:TrackPointExtension>
        </extensions>
      </trkpt>
      <trkpt lat="52.25244951434433460235595703125" lon="1.62670536898076534271240234375">
        <ele>-212.1999969482421875</ele>
        <time>2025-09-07T08:34:12.000Z</time>
        <extensions>
          <ns3:TrackPointExtension>
            <ns3:hr>145</ns3:hr>
            <ns3:cad>59</ns3:cad>
          </ns3:TrackPointExtension>
        </extensions>
      </trkpt>
      <trkpt lat="52.25246041081845760345458984375" lon="1.6267129965126514434814453125">
        <ele>-211.8000030517578125</ele>
        <time>2025-09-07T08:34:13.000Z</time>
        <extensions>
          <ns3:TrackPointExtension>
            <ns3:hr>146</ns3:hr>
            <ns3:cad>0</ns3:cad>
          </ns3:TrackPointExtension>
        </extensions>
      </trkpt>
      <trkpt lat="52.2524730674922466278076171875" lon="1.6267254017293453216552734375">
        <ele>-210.1999969482421875</ele>
        <time>2025-09-07T08:34:17.000Z</time>
        <extensions>
          <ns3:TrackPointExtension>
            <ns3:hr>148</ns3:hr>
            <ns3:cad>0</ns3:cad>
          </ns3:TrackPointExtension>
        </extensions>
      </trkpt>
      <trkpt lat="52.25248304195702075958251953125" lon="1.62672850303351879119873046875">
        <ele>-209.1999969482421875</ele>
        <time>2025-09-07T08:34:18.000Z</time>
        <extensions>
          <ns3:TrackPointExtension>
            <ns3:hr>149</ns3:hr>
            <ns3:cad>0</ns3:cad>
          </ns3:TrackPointExtension>
        </extensions>
      </trkpt>
      <trkpt lat="52.252550683915615081787109375" lon="1.626723222434520721435546875">
        <ele>-210.399993896484375</ele>
        <time>2025-09-07T08:34:23.000Z</time>
        <extensions>
          <ns3:TrackPointExtension>
            <ns3:hr>148</ns3:hr>
            <ns3:cad>59</ns3:cad>
          </ns3:TrackPointExtension>
        </extensions>
      </trkpt>
      <trkpt lat="52.25257541052997112274169921875" lon="1.6267166845500469207763671875">
        <ele>-209.1999969482421875</ele>
        <time>2025-09-07T08:34:25.000Z</time>
        <extensions>
          <ns3:TrackPointExtension>
            <ns3:hr>147</ns3:hr>
            <ns3:cad>58</ns3:cad>
          </ns3:TrackPointExtension>
        </extensions>
      </trkpt>
      <trkpt lat="52.25258521735668182373046875" lon="1.626709811389446258544921875">
        <ele>-206.8000030517578125</ele>
        <time>2025-09-07T08:34:26.000Z</time>
        <extensions>
          <ns3:TrackPointExtension>
            <ns3:hr>146</ns3:hr>
            <ns3:cad>58</ns3:cad>
          </ns3:TrackPointExtension>
        </extensions>
      </trkpt>
      <trkpt lat="52.25259351544082164764404296875" lon="1.62670151330530643463134765625">
        <ele>-204.8000030517578125</ele>
        <time>2025-09-07T08:34:27.000Z</time>
        <extensions>
          <ns3:TrackPointExtension>
            <ns3:hr>146</ns3:hr>
            <ns3:cad>58</ns3:cad>
          </ns3:TrackPointExtension>
        </extensions>
      </trkpt>
      <trkpt lat="52.252598293125629425048828125" lon="1.62668877281248569488525390625">
        <ele>-203.399993896484375</ele>
        <time>2025-09-07T08:34:28.000Z</time>
        <extensions>
          <ns3:TrackPointExtension>
            <ns3:hr>145</ns3:hr>
            <ns3:cad>58</ns3:cad>
          </ns3:TrackPointExtension>
        </extensions>
      </trkpt>
      <trkpt lat="52.25260072387754917144775390625" lon="1.626672931015491485595703125">
        <ele>-202</ele>
        <time>2025-09-07T08:34:29.000Z</time>
        <extensions>
          <ns3:TrackPointExtension>
            <ns3:hr>145</ns3:hr>
            <ns3:cad>56</ns3:cad>
          </ns3:TrackPointExtension>
        </extensions>
      </trkpt>
      <trkpt lat="52.25260139442980289459228515625" lon="1.62665071897208690643310546875">
        <ele>-200.600006103515625</ele>
        <time>2025-09-07T08:34:30.000Z</time>
        <extensions>
          <ns3:TrackPointExtension>
            <ns3:hr>143</ns3:hr>
            <ns3:cad>54</ns3:cad>
          </ns3:TrackPointExtension>
        </extensions>
      </trkpt>
      <trkpt lat="52.25260055623948574066162109375" lon="1.6266325302422046661376953125">
        <ele>-198.399993896484375</ele>
        <time>2025-09-07T08:34:31.000Z</time>
        <extensions>
          <ns3:TrackPointExtension>
            <ns3:hr>141</ns3:hr>
            <ns3:cad>54</ns3:cad>
          </ns3:TrackPointExtension>
        </extensions>
      </trkpt>
      <trkpt lat="52.25259703584015369415283203125" lon="1.62661786191165447235107421875">
        <ele>-197</ele>
        <time>2025-09-07T08:34:32.000Z</time>
        <extensions>
          <ns3:TrackPointExtension>
            <ns3:hr>139</ns3:hr>
            <ns3:cad>55</ns3:cad>
          </ns3:TrackPointExtension>
        </extensions>
      </trkpt>
      <trkpt lat="52.2525887377560138702392578125" lon="1.62657410837709903717041015625">
        <ele>-195.399993896484375</ele>
        <time>2025-09-07T08:34:34.000Z</time>
        <extensions>
          <ns3:TrackPointExtension>
            <ns3:hr>137</ns3:hr>
            <ns3:cad>58</ns3:cad>
          </ns3:TrackPointExtension>
        </extensions>
      </trkpt>
      <trkpt lat="52.25257608108222484588623046875" lon="1.6265282593667507171630859375">
        <ele>-195.1999969482421875</ele>
        <time>2025-09-07T08:34:36.000Z</time>
        <extensions>
          <ns3:TrackPointExtension>
            <ns3:hr>141</ns3:hr>
            <ns3:cad>60</ns3:cad>
          </ns3:TrackPointExtension>
        </extensions>
      </trkpt>
      <trkpt lat="52.25256510078907012939453125" lon="1.6265044547617435455322265625">
        <ele>-195.399993896484375</ele>
        <time>2025-09-07T08:34:37.000Z</time>
        <extensions>
          <ns3:TrackPointExtension>
            <ns3:hr>140</ns3:hr>
            <ns3:cad>60</ns3:cad>
          </ns3:TrackPointExtension>
        </extensions>
      </trkpt>
      <trkpt lat="52.25248354487121105194091796875" lon="1.6263374872505664825439453125">
        <ele>-201</ele>
        <time>2025-09-07T08:34:45.000Z</time>
        <extensions>
          <ns3:TrackPointExtension>
            <ns3:hr>139</ns3:hr>
            <ns3:cad>0</ns3:cad>
          </ns3:TrackPointExtension>
        </extensions>
      </trkpt>
      <trkpt lat="52.2524734027683734893798828125" lon="1.62631929852068424224853515625">
        <ele>-203.8000030517578125</ele>
        <time>2025-09-07T08:34:46.000Z</time>
        <extensions>
          <ns3:TrackPointExtension>
            <ns3:hr>138</ns3:hr>
            <ns3:cad>0</ns3:cad>
          </ns3:TrackPointExtension>
        </extensions>
      </trkpt>
      <trkpt lat="52.25246317684650421142578125" lon="1.62629867903888225555419921875">
        <ele>-205.8000030517578125</ele>
        <time>2025-09-07T08:34:47.000Z</time>
        <extensions>
          <ns3:TrackPointExtension>
            <ns3:hr>139</ns3:hr>
            <ns3:cad>59</ns3:cad>
          </ns3:TrackPointExtension>
        </extensions>
      </trkpt>
      <trkpt lat="52.25245404057204723358154296875" lon="1.62627671845257282257080078125">
        <ele>-207</ele>
        <time>2025-09-07T08:34:48.000Z</time>
        <extensions>
          <ns3:TrackPointExtension>
            <ns3:hr>140</ns3:hr>
            <ns3:cad>60</ns3:cad>
          </ns3:TrackPointExtension>
        </extensions>
      </trkpt>
      <trkpt lat="52.2524385340511798858642578125" lon="1.62622944451868534088134765625">
        <ele>-208</ele>
        <time>2025-09-07T08:34:50.000Z</time>
        <extensions>
          <ns3:TrackPointExtension>
            <ns3:hr>139</ns3:hr>
            <ns3:cad>60</ns3:cad>
          </ns3:TrackPointExtension>
        </extensions>
      </trkpt>
      <trkpt lat="52.2524289786815643310546875" lon="1.62618200294673442840576171875">
        <ele>-208.399993896484375</ele>
        <time>2025-09-07T08:34:52.000Z</time>
        <extensions>
          <ns3:TrackPointExtension>
            <ns3:hr>139</ns3:hr>
            <ns3:cad>60</ns3:cad>
          </ns3:TrackPointExtension>
        </extensions>
      </trkpt>
      <trkpt lat="52.25241581909358501434326171875" lon="1.6261440329253673553466796875">
        <ele>-209.600006103515625</ele>
        <time>2025-09-07T08:34:55.000Z</time>
        <extensions>
          <ns3:TrackPointExtension>
            <ns3:hr>137</ns3:hr>
            <ns3:cad>59</ns3:cad>
          </ns3:TrackPointExtension>
        </extensions>
      </trkpt>
      <trkpt lat="52.25241213105618953704833984375" lon="1.6261037997901439666748046875">
        <ele>-210.399993896484375</ele>
        <time>2025-09-07T08:34:58.000Z</time>
        <extensions>
          <ns3:TrackPointExtension>
            <ns3:hr>137</ns3:hr>
            <ns3:cad>0</ns3:cad>
          </ns3:TrackPointExtension>
        </extensions>
      </trkpt>
      <trkpt lat="52.25241229869425296783447265625" lon="1.6260870359838008880615234375">
        <ele>-210.600006103515625</ele>
        <time>2025-09-07T08:34:59.000Z</time>
        <extensions>
          <ns3:TrackPointExtension>
            <ns3:hr>136</ns3:hr>
            <ns3:cad>0</ns3:cad>
          </ns3:TrackPointExtension>
        </extensions>
      </trkpt>
      <trkpt lat="52.25243073888123035430908203125" lon="1.626010425388813018798828125">
        <ele>-211.399993896484375</ele>
        <time>2025-09-07T08:35:05.000Z</time>
        <extensions>
          <ns3:TrackPointExtension>
            <ns3:hr>133</ns3:hr>
            <ns3:cad>0</ns3:cad>
          </ns3:TrackPointExtension>
        </extensions>
      </trkpt>
      <trkpt lat="52.2524304874241352081298828125" lon="1.626002378761768341064453125">
        <ele>-211.8000030517578125</ele>
        <time>2025-09-07T08:35:06.000Z</time>
        <extensions>
          <ns3:TrackPointExtension>
            <ns3:hr>132</ns3:hr>
            <ns3:cad>0</ns3:cad>
          </ns3:TrackPointExtension>
        </extensions>
      </trkpt>
      <trkpt lat="52.252431996166706085205078125" lon="1.625983603298664093017578125">
        <ele>-212</ele>
        <time>2025-09-07T08:35:08.000Z</time>
        <extensions>
          <ns3:TrackPointExtension>
            <ns3:hr>131</ns3:hr>
            <ns3:cad>41</ns3:cad>
          </ns3:TrackPointExtension>
        </extensions>
      </trkpt>
      <trkpt lat="52.252431996166706085205078125" lon="1.6259752213954925537109375">
        <ele>-210.8000030517578125</ele>
        <time>2025-09-07T08:35:11.000Z</time>
        <extensions>
          <ns3:TrackPointExtension>
            <ns3:hr>131</ns3:hr>
            <ns3:cad>0</ns3:cad>
          </ns3:TrackPointExtension>
        </extensions>
      </trkpt>
      <trkpt lat="52.25241648964583873748779296875" lon="1.62599542178213596343994140625">
        <ele>-209.1999969482421875</ele>
        <time>2025-09-07T08:35:14.000Z</time>
        <extensions>
          <ns3:TrackPointExtension>
            <ns3:hr>130</ns3:hr>
            <ns3:cad>0</ns3:cad>
          </ns3:TrackPointExtension>
        </extensions>
      </trkpt>
      <trkpt lat="52.252406179904937744140625" lon="1.62600497715175151824951171875">
        <ele>-207.8000030517578125</ele>
        <time>2025-09-07T08:35:16.000Z</time>
        <extensions>
          <ns3:TrackPointExtension>
            <ns3:hr>132</ns3:hr>
            <ns3:cad>0</ns3:cad>
          </ns3:TrackPointExtension>
        </extensions>
      </trkpt>
      <trkpt lat="52.25238732062280178070068359375" lon="1.62602509371936321258544921875">
        <ele>-207</ele>
        <time>2025-09-07T08:35:19.000Z</time>
        <extensions>
          <ns3:TrackPointExtension>
            <ns3:hr>129</ns3:hr>
            <ns3:cad>0</ns3:cad>
          </ns3:TrackPointExtension>
        </extensions>
      </trkpt>
      <trkpt lat="52.2523872368037700653076171875" lon="1.626046635210514068603515625">
        <ele>-206.600006103515625</ele>
        <time>2025-09-07T08:35:20.000Z</time>
        <extensions>
          <ns3:TrackPointExtension>
            <ns3:hr>129</ns3:hr>
            <ns3:cad>0</ns3:cad>
          </ns3:TrackPointExtension>
        </extensions>
      </trkpt>
      <trkpt lat="52.252397798001766204833984375" lon="1.626054011285305023193359375">
        <ele>-205.399993896484375</ele>
        <time>2025-09-07T08:35:24.000Z</time>
        <extensions>
          <ns3:TrackPointExtension>
            <ns3:hr>128</ns3:hr>
            <ns3:cad>0</ns3:cad>
          </ns3:TrackPointExtension>
        </extensions>
      </trkpt>
      <trkpt lat="52.2524021565914154052734375" lon="1.62607069127261638641357421875">
        <ele>-204.399993896484375</ele>
        <time>2025-09-07T08:35:25.000Z</time>
        <extensions>
          <ns3:TrackPointExtension>
            <ns3:hr>128</ns3:hr>
            <ns3:cad>0</ns3:cad>
          </ns3:TrackPointExtension>
        </extensions>
      </trkpt>
      <trkpt lat="52.2524311579763889312744140625" lon="1.626088209450244903564453125">
        <ele>-205.1999969482421875</ele>
        <time>2025-09-07T08:35:29.000Z</time>
        <extensions>
          <ns3:TrackPointExtension>
            <ns3:hr>125</ns3:hr>
            <ns3:cad>0</ns3:cad>
          </ns3:TrackPointExtension>
        </extensions>
      </trkpt>
      <trkpt lat="52.25243526510894298553466796875" lon="1.62609734572470188140869140625">
        <ele>-205.399993896484375</ele>
        <time>2025-09-07T08:35:31.000Z</time>
        <extensions>
          <ns3:TrackPointExtension>
            <ns3:hr>125</ns3:hr>
            <ns3:cad>0</ns3:cad>
          </ns3:TrackPointExtension>
        </extensions>
      </trkpt>
      <trkpt lat="52.25247256457805633544921875" lon="1.62610589526593685150146484375">
        <ele>-206.399993896484375</ele>
        <time>2025-09-07T08:35:36.000Z</time>
        <extensions>
          <ns3:TrackPointExtension>
            <ns3:hr>122</ns3:hr>
            <ns3:cad>68</ns3:cad>
          </ns3:TrackPointExtension>
        </extensions>
      </trkpt>
      <trkpt lat="52.25248203612864017486572265625" lon="1.62610187195241451263427734375">
        <ele>-207</ele>
        <time>2025-09-07T08:35:37.000Z</time>
        <extensions>
          <ns3:TrackPointExtension>
            <ns3:hr>123</ns3:hr>
            <ns3:cad>0</ns3:cad>
          </ns3:TrackPointExtension>
        </extensions>
      </trkpt>
      <trkpt lat="52.2524995543062686920166015625" lon="1.6260883770883083343505859375">
        <ele>-208.1999969482421875</ele>
        <time>2025-09-07T08:35:39.000Z</time>
        <extensions>
          <ns3:TrackPointExtension>
            <ns3:hr>121</ns3:hr>
            <ns3:cad>0</ns3:cad>
          </ns3:TrackPointExtension>
        </extensions>
      </trkpt>
      <trkpt lat="52.25249980576336383819580078125" lon="1.6260945796966552734375">
        <ele>-209.399993896484375</ele>
        <time>2025-09-07T08:35:41.000Z</time>
        <extensions>
          <ns3:TrackPointExtension>
            <ns3:hr>119</ns3:hr>
            <ns3:cad>0</ns3:cad>
          </ns3:TrackPointExtension>
        </extensions>
      </trkpt>
      <trkpt lat="52.25246242247521877288818359375" lon="1.62614353001117706298828125">
        <ele>-210</ele>
        <time>2025-09-07T08:35:45.000Z</time>
        <extensions>
          <ns3:TrackPointExtension>
            <ns3:hr>120</ns3:hr>
            <ns3:cad>0</ns3:cad>
          </ns3:TrackPointExtension>
        </extensions>
      </trkpt>
      <trkpt lat="52.25244683213531970977783203125" lon="1.6262023709714412689208984375">
        <ele>-209.1999969482421875</ele>
        <time>2025-09-07T08:35:50.000Z</time>
        <extensions>
          <ns3:TrackPointExtension>
            <ns3:hr>116</ns3:hr>
            <ns3:cad>0</ns3:cad>
          </ns3:TrackPointExtension>
        </extensions>
      </trkpt>
      <trkpt lat="52.252451442182064056396484375" lon="1.6261530853807926177978515625">
        <ele>-207.600006103515625</ele>
        <time>2025-09-07T08:35:52.000Z</time>
        <extensions>
          <ns3:TrackPointExtension>
            <ns3:hr>117</ns3:hr>
            <ns3:cad>0</ns3:cad>
          </ns3:TrackPointExtension>
        </extensions>
      </trkpt>
      <trkpt lat="52.25245110690593719482421875" lon="1.62614093162119388580322265625">
        <ele>-207.1999969482421875</ele>
        <time>2025-09-07T08:35:53.000Z</time>
        <extensions>
          <ns3:TrackPointExtension>
            <ns3:hr>117</ns3:hr>
            <ns3:cad>0</ns3:cad>
          </ns3:TrackPointExtension>
        </extensions>
      </trkpt>
      <trkpt lat="52.25248807109892368316650390625" lon="1.6261691786348819732666015625">
        <ele>-206.600006103515625</ele>
        <time>2025-09-07T08:35:56.000Z</time>
        <extensions>
          <ns3:TrackPointExtension>
            <ns3:hr>118</ns3:hr>
            <ns3:cad>0</ns3:cad>
          </ns3:TrackPointExtension>
        </extensions>
      </trkpt>
      <trkpt lat="52.25250634364783763885498046875" lon="1.62610463798046112060546875">
        <ele>-205</ele>
        <time>2025-09-07T08:35:58.000Z</time>
        <extensions>
          <ns3:TrackPointExtension>
            <ns3:hr>118</ns3:hr>
            <ns3:cad>0</ns3:cad>
          </ns3:TrackPointExtension>
        </extensions>
      </trkpt>
      <trkpt lat="52.2525082714855670928955078125" lon="1.6260583698749542236328125">
        <ele>-203.8000030517578125</ele>
        <time>2025-09-07T08:36:00.000Z</time>
        <extensions>
          <ns3:TrackPointExtension>
            <ns3:hr>115</ns3:hr>
            <ns3:cad>0</ns3:cad>
          </ns3:TrackPointExtension>
        </extensions>
      </trkpt>
      <trkpt lat="52.252513803541660308837890625" lon="1.6260377503931522369384765625">
        <ele>-203</ele>
        <time>2025-09-07T08:36:01.000Z</time>
        <extensions>
          <ns3:TrackPointExtension>
            <ns3:hr>115</ns3:hr>
            <ns3:cad>0</ns3:cad>
          </ns3:TrackPointExtension>
        </extensions>
      </trkpt>
      <trkpt lat="52.25249125622212886810302734375" lon="1.6260411031544208526611328125">
        <ele>-204.8000030517578125</ele>
        <time>2025-09-07T08:36:10.000Z</time>
        <extensions>
          <ns3:TrackPointExtension>
            <ns3:hr>116</ns3:hr>
            <ns3:cad>0</ns3:cad>
          </ns3:TrackPointExtension>
        </extensions>
      </trkpt>
      <trkpt lat="52.25249142386019229888916015625" lon="1.6260427795350551605224609375">
        <ele>-205</ele>
        <time>2025-09-07T08:36:11.000Z</time>
        <extensions>
          <ns3:TrackPointExtension>
            <ns3:hr>117</ns3:hr>
            <ns3:cad>0</ns3:cad>
          </ns3:TrackPointExtension>
        </extensions>
      </trkpt>
      <trkpt lat="52.25251573137938976287841796875" lon="1.62601654417812824249267578125">
        <ele>-204.600006103515625</ele>
        <time>2025-09-07T08:36:14.000Z</time>
        <extensions>
          <ns3:TrackPointExtension>
            <ns3:hr>120</ns3:hr>
            <ns3:cad>0</ns3:cad>
          </ns3:TrackPointExtension>
        </extensions>
      </trkpt>
      <trkpt lat="52.252483628690242767333984375" lon="1.62600112147629261016845703125">
        <ele>-204.600006103515625</ele>
        <time>2025-09-07T08:36:18.000Z</time>
        <extensions>
          <ns3:TrackPointExtension>
            <ns3:hr>120</ns3:hr>
            <ns3:cad>0</ns3:cad>
          </ns3:TrackPointExtension>
        </extensions>
      </trkpt>
      <trkpt lat="52.25244331173598766326904296875" lon="1.62603414617478847503662109375">
        <ele>-203.8000030517578125</ele>
        <time>2025-09-07T08:36:24.000Z</time>
        <extensions>
          <ns3:TrackPointExtension>
            <ns3:hr>119</ns3:hr>
            <ns3:cad>0</ns3:cad>
          </ns3:TrackPointExtension>
        </extensions>
      </trkpt>
      <trkpt lat="52.25243241526186466217041015625" lon="1.62605660967528820037841796875">
        <ele>-203.1999969482421875</ele>
        <time>2025-09-07T08:36:28.000Z</time>
        <extensions>
          <ns3:TrackPointExtension>
            <ns3:hr>118</ns3:hr>
            <ns3:cad>0</ns3:cad>
          </ns3:TrackPointExtension>
        </extensions>
      </trkpt>
      <trkpt lat="52.25241162814199924468994140625" lon="1.62605007179081439971923828125">
        <ele>-206</ele>
        <time>2025-09-07T08:36:33.000Z</time>
        <extensions>
          <ns3:TrackPointExtension>
            <ns3:hr>119</ns3:hr>
            <ns3:cad>0</ns3:cad>
          </ns3:TrackPointExtension>
        </extensions>
      </trkpt>
      <trkpt lat="52.25242118351161479949951171875" lon="1.62605728022754192352294921875">
        <ele>-208.600006103515625</ele>
        <time>2025-09-07T08:36:34.000Z</time>
        <extensions>
          <ns3:TrackPointExtension>
            <ns3:hr>118</ns3:hr>
            <ns3:cad>0</ns3:cad>
          </ns3:TrackPointExtension>
        </extensions>
      </trkpt>
      <trkpt lat="52.25242604501545429229736328125" lon="1.626129783689975738525390625">
        <ele>-212</ele>
        <time>2025-09-07T08:36:35.000Z</time>
        <extensions>
          <ns3:TrackPointExtension>
            <ns3:hr>118</ns3:hr>
            <ns3:cad>0</ns3:cad>
          </ns3:TrackPointExtension>
        </extensions>
      </trkpt>
      <trkpt lat="52.25242738611996173858642578125" lon="1.62620932795107364654541015625">
        <ele>-213.600006103515625</ele>
        <time>2025-09-07T08:36:36.000Z</time>
        <extensions>
          <ns3:TrackPointExtension>
            <ns3:hr>116</ns3:hr>
            <ns3:cad>0</ns3:cad>
          </ns3:TrackPointExtension>
        </extensions>
      </trkpt>
      <trkpt lat="52.25244180299341678619384765625" lon="1.62623967044055461883544921875">
        <ele>-216.600006103515625</ele>
        <time>2025-09-07T08:36:37.000Z</time>
        <extensions>
          <ns3:TrackPointExtension>
            <ns3:hr>119</ns3:hr>
            <ns3:cad>61</ns3:cad>
          </ns3:TrackPointExtension>
        </extensions>
      </trkpt>
      <trkpt lat="52.2524499334394931793212890625" lon="1.6262607090175151824951171875">
        <ele>-218.600006103515625</ele>
        <time>2025-09-07T08:36:38.000Z</time>
        <extensions>
          <ns3:TrackPointExtension>
            <ns3:hr>120</ns3:hr>
            <ns3:cad>61</ns3:cad>
          </ns3:TrackPointExtension>
        </extensions>
      </trkpt>
      <trkpt lat="52.252466864883899688720703125" lon="1.62627889774739742279052734375">
        <ele>-220.600006103515625</ele>
        <time>2025-09-07T08:36:39.000Z</time>
        <extensions>
          <ns3:TrackPointExtension>
            <ns3:hr>120</ns3:hr>
            <ns3:cad>61</ns3:cad>
          </ns3:TrackPointExtension>
        </extensions>
      </trkpt>
      <trkpt lat="52.25247700698673725128173828125" lon="1.6262996010482311248779296875">
        <ele>-222</ele>
        <time>2025-09-07T08:36:40.000Z</time>
        <extensions>
          <ns3:TrackPointExtension>
            <ns3:hr>120</ns3:hr>
            <ns3:cad>61</ns3:cad>
          </ns3:TrackPointExtension>
        </extensions>
      </trkpt>
      <trkpt lat="52.25250215269625186920166015625" lon="1.6263391636312007904052734375">
        <ele>-223</ele>
        <time>2025-09-07T08:36:42.000Z</time>
        <extensions>
          <ns3:TrackPointExtension>
            <ns3:hr>123</ns3:hr>
            <ns3:cad>60</ns3:cad>
          </ns3:TrackPointExtension>
        </extensions>
      </trkpt>
      <trkpt lat="52.2525072656571865081787109375" lon="1.62635953165590763092041015625">
        <ele>-223</ele>
        <time>2025-09-07T08:36:43.000Z</time>
        <extensions>
          <ns3:TrackPointExtension>
            <ns3:hr>123</ns3:hr>
            <ns3:cad>60</ns3:cad>
          </ns3:TrackPointExtension>
        </extensions>
      </trkpt>
      <trkpt lat="52.2525263763964176177978515625" lon="1.62640043534338474273681640625">
        <ele>-223.1999969482421875</ele>
        <time>2025-09-07T08:36:46.000Z</time>
        <extensions>
          <ns3:TrackPointExtension>
            <ns3:hr>123</ns3:hr>
            <ns3:cad>60</ns3:cad>
          </ns3:TrackPointExtension>
        </extensions>
      </trkpt>
      <trkpt lat="52.25254439748823642730712890625" lon="1.626497916877269744873046875">
        <ele>-223.600006103515625</ele>
        <time>2025-09-07T08:36:50.000Z</time>
        <extensions>
          <ns3:TrackPointExtension>
            <ns3:hr>120</ns3:hr>
            <ns3:cad>57</ns3:cad>
          </ns3:TrackPointExtension>
        </extensions>
      </trkpt>
      <trkpt lat="52.25255646742880344390869140625" lon="1.62654720246791839599609375">
        <ele>-223.399993896484375</ele>
        <time>2025-09-07T08:36:52.000Z</time>
        <extensions>
          <ns3:TrackPointExtension>
            <ns3:hr>120</ns3:hr>
            <ns3:cad>60</ns3:cad>
          </ns3:TrackPointExtension>
        </extensions>
      </trkpt>
      <trkpt lat="52.2525877319276332855224609375" lon="1.62663311697542667388916015625">
        <ele>-222</ele>
        <time>2025-09-07T08:36:56.000Z</time>
        <extensions>
          <ns3:TrackPointExtension>
            <ns3:hr>121</ns3:hr>
            <ns3:cad>62</ns3:cad>
          </ns3:TrackPointExtension>
        </extensions>
      </trkpt>
      <trkpt lat="52.25262469612061977386474609375" lon="1.6266590170562267303466796875">
        <ele>-220.600006103515625</ele>
        <time>2025-09-07T08:36:58.000Z</time>
        <extensions>
          <ns3:TrackPointExtension>
            <ns3:hr>122</ns3:hr>
            <ns3:cad>62</ns3:cad>
          </ns3:TrackPointExtension>
        </extensions>
      </trkpt>
      <trkpt lat="52.25266006775200366973876953125" lon="1.62668894045054912567138671875">
        <ele>-219.1999969482421875</ele>
        <time>2025-09-07T08:37:00.000Z</time>
        <extensions>
          <ns3:TrackPointExtension>
            <ns3:hr>122</ns3:hr>
            <ns3:cad>62</ns3:cad>
          </ns3:TrackPointExtension>
        </extensions>
      </trkpt>
      <trkpt lat="52.25274086929857730865478515625" lon="1.62674057297408580780029296875">
        <ele>-218.600006103515625</ele>
        <time>2025-09-07T08:37:04.000Z</time>
        <extensions>
          <ns3:TrackPointExtension>
            <ns3:hr>125</ns3:hr>
            <ns3:cad>78</ns3:cad>
          </ns3:TrackPointExtension>
        </extensions>
      </trkpt>
      <trkpt lat="52.25276014767587184906005859375" lon="1.62674291990697383880615234375">
        <ele>-218.1999969482421875</ele>
        <time>2025-09-07T08:37:05.000Z</time>
        <extensions>
          <ns3:TrackPointExtension>
            <ns3:hr>125</ns3:hr>
            <ns3:cad>78</ns3:cad>
          </ns3:TrackPointExtension>
        </extensions>
      </trkpt>
      <trkpt lat="52.252778001129627227783203125" lon="1.62674434483051300048828125">
        <ele>-217.600006103515625</ele>
        <time>2025-09-07T08:37:06.000Z</time>
        <extensions>
          <ns3:TrackPointExtension>
            <ns3:hr>128</ns3:hr>
            <ns3:cad>78</ns3:cad>
          </ns3:TrackPointExtension>
        </extensions>
      </trkpt>
      <trkpt lat="52.2528137080371379852294921875" lon="1.62674308754503726959228515625">
        <ele>-216.8000030517578125</ele>
        <time>2025-09-07T08:37:08.000Z</time>
        <extensions>
          <ns3:TrackPointExtension>
            <ns3:hr>130</ns3:hr>
            <ns3:cad>78</ns3:cad>
          </ns3:TrackPointExtension>
        </extensions>
      </trkpt>
      <trkpt lat="52.25285368971526622772216796875" lon="1.62673973478376865386962890625">
        <ele>-212.8000030517578125</ele>
        <time>2025-09-07T08:37:10.000Z</time>
        <extensions>
          <ns3:TrackPointExtension>
            <ns3:hr>130</ns3:hr>
            <ns3:cad>78</ns3:cad>
          </ns3:TrackPointExtension>
        </extensions>
      </trkpt>
      <trkpt lat="52.25286860950291156768798828125" lon="1.626735627651214599609375">
        <ele>-210.8000030517578125</ele>
        <time>2025-09-07T08:37:11.000Z</time>
        <extensions>
          <ns3:TrackPointExtension>
            <ns3:hr>132</ns3:hr>
            <ns3:cad>78</ns3:cad>
          </ns3:TrackPointExtension>
        </extensions>
      </trkpt>
      <trkpt lat="52.25288336165249347686767578125" lon="1.62672498263418674468994140625">
        <ele>-209</ele>
        <time>2025-09-07T08:37:12.000Z</time>
        <extensions>
          <ns3:TrackPointExtension>
            <ns3:hr>133</ns3:hr>
            <ns3:cad>77</ns3:cad>
          </ns3:TrackPointExtension>
        </extensions>
      </trkpt>
      <trkpt lat="52.25289694033563137054443359375" lon="1.62670603953301906585693359375">
        <ele>-207.8000030517578125</ele>
        <time>2025-09-07T08:37:13.000Z</time>
        <extensions>
          <ns3:TrackPointExtension>
            <ns3:hr>134</ns3:hr>
            <ns3:cad>77</ns3:cad>
          </ns3:TrackPointExtension>
        </extensions>
      </trkpt>
      <trkpt lat="52.25290750153362751007080078125" lon="1.6266881860792636871337890625">
        <ele>-205.8000030517578125</ele>
        <time>2025-09-07T08:37:14.000Z</time>
        <extensions>
          <ns3:TrackPointExtension>
            <ns3:hr>136</ns3:hr>
            <ns3:cad>78</ns3:cad>
          </ns3:TrackPointExtension>
        </extensions>
      </trkpt>
      <trkpt lat="52.2529176436364650726318359375" lon="1.62666765041649341583251953125">
        <ele>-204.600006103515625</ele>
        <time>2025-09-07T08:37:15.000Z</time>
        <extensions>
          <ns3:TrackPointExtension>
            <ns3:hr>137</ns3:hr>
            <ns3:cad>78</ns3:cad>
          </ns3:TrackPointExtension>
        </extensions>
      </trkpt>
      <trkpt lat="52.25292962975800037384033203125" lon="1.6266442649066448211669921875">
        <ele>-203.399993896484375</ele>
        <time>2025-09-07T08:37:16.000Z</time>
        <extensions>
          <ns3:TrackPointExtension>
            <ns3:hr>138</ns3:hr>
            <ns3:cad>78</ns3:cad>
          </ns3:TrackPointExtension>
        </extensions>
      </trkpt>
      <trkpt lat="52.25295125506818294525146484375" lon="1.6265939734876155853271484375">
        <ele>-201.8000030517578125</ele>
        <time>2025-09-07T08:37:18.000Z</time>
        <extensions>
          <ns3:TrackPointExtension>
            <ns3:hr>141</ns3:hr>
            <ns3:cad>78</ns3:cad>
          </ns3:TrackPointExtension>
        </extensions>
      </trkpt>
      <trkpt lat="52.25295829586684703826904296875" lon="1.6265666484832763671875">
        <ele>-200.8000030517578125</ele>
        <time>2025-09-07T08:37:19.000Z</time>
        <extensions>
          <ns3:TrackPointExtension>
            <ns3:hr>141</ns3:hr>
            <ns3:cad>77</ns3:cad>
          </ns3:TrackPointExtension>
        </extensions>
      </trkpt>
      <trkpt lat="52.25296718068420886993408203125" lon="1.62650571204721927642822265625">
        <ele>-199</ele>
        <time>2025-09-07T08:37:21.000Z</time>
        <extensions>
          <ns3:TrackPointExtension>
            <ns3:hr>142</ns3:hr>
            <ns3:cad>77</ns3:cad>
          </ns3:TrackPointExtension>
        </extensions>
      </trkpt>
      <trkpt lat="52.2529707849025726318359375" lon="1.62647436372935771942138671875">
        <ele>-198</ele>
        <time>2025-09-07T08:37:22.000Z</time>
        <extensions>
          <ns3:TrackPointExtension>
            <ns3:hr>142</ns3:hr>
            <ns3:cad>78</ns3:cad>
          </ns3:TrackPointExtension>
        </extensions>
      </trkpt>
      <trkpt lat="52.25297489203512668609619140625" lon="1.62644502706825733184814453125">
        <ele>-196.8000030517578125</ele>
        <time>2025-09-07T08:37:23.000Z</time>
        <extensions>
          <ns3:TrackPointExtension>
            <ns3:hr>143</ns3:hr>
            <ns3:cad>78</ns3:cad>
          </ns3:TrackPointExtension>
        </extensions>
      </trkpt>
      <trkpt lat="52.25297891534864902496337890625" lon="1.62641803734004497528076171875">
        <ele>-195.399993896484375</ele>
        <time>2025-09-07T08:37:24.000Z</time>
        <extensions>
          <ns3:TrackPointExtension>
            <ns3:hr>144</ns3:hr>
            <ns3:cad>78</ns3:cad>
          </ns3:TrackPointExtension>
        </extensions>
      </trkpt>
      <trkpt lat="52.2529810108244419097900390625" lon="1.6263850964605808258056640625">
        <ele>-194.1999969482421875</ele>
        <time>2025-09-07T08:37:25.000Z</time>
        <extensions>
          <ns3:TrackPointExtension>
            <ns3:hr>145</ns3:hr>
            <ns3:cad>78</ns3:cad>
          </ns3:TrackPointExtension>
        </extensions>
      </trkpt>
      <trkpt lat="52.252983190119266510009765625" lon="1.62635081447660923004150390625">
        <ele>-193</ele>
        <time>2025-09-07T08:37:26.000Z</time>
        <extensions>
          <ns3:TrackPointExtension>
            <ns3:hr>146</ns3:hr>
            <ns3:cad>78</ns3:cad>
          </ns3:TrackPointExtension>
        </extensions>
      </trkpt>
      <trkpt lat="52.25298754870891571044921875" lon="1.62631846033036708831787109375">
        <ele>-191.600006103515625</ele>
        <time>2025-09-07T08:37:27.000Z</time>
        <extensions>
          <ns3:TrackPointExtension>
            <ns3:hr>144</ns3:hr>
            <ns3:cad>78</ns3:cad>
          </ns3:TrackPointExtension>
        </extensions>
      </trkpt>
      <trkpt lat="52.2529997862875461578369140625" lon="1.62625894881784915924072265625">
        <ele>-189.399993896484375</ele>
        <time>2025-09-07T08:37:29.000Z</time>
        <extensions>
          <ns3:TrackPointExtension>
            <ns3:hr>144</ns3:hr>
            <ns3:cad>78</ns3:cad>
          </ns3:TrackPointExtension>
        </extensions>
      </trkpt>
      <trkpt lat="52.2530098445713520050048828125" lon="1.62619273178279399871826171875">
        <ele>-187.399993896484375</ele>
        <time>2025-09-07T08:37:31.000Z</time>
        <extensions>
          <ns3:TrackPointExtension>
            <ns3:hr>144</ns3:hr>
            <ns3:cad>78</ns3:cad>
          </ns3:TrackPointExtension>
        </extensions>
      </trkpt>
      <trkpt lat="52.2530199028551578521728515625" lon="1.6261307895183563232421875">
        <ele>-185.600006103515625</ele>
        <time>2025-09-07T08:37:33.000Z</time>
        <extensions>
          <ns3:TrackPointExtension>
            <ns3:hr>146</ns3:hr>
            <ns3:cad>79</ns3:cad>
          </ns3:TrackPointExtension>
        </extensions>
      </trkpt>
      <trkpt lat="52.2530266083776950836181640625" lon="1.626098938286304473876953125">
        <ele>-184.600006103515625</ele>
        <time>2025-09-07T08:37:34.000Z</time>
        <extensions>
          <ns3:TrackPointExtension>
            <ns3:hr>147</ns3:hr>
            <ns3:cad>80</ns3:cad>
          </ns3:TrackPointExtension>
        </extensions>
      </trkpt>
      <trkpt lat="52.25303021259605884552001953125" lon="1.62606582976877689361572265625">
        <ele>-183.600006103515625</ele>
        <time>2025-09-07T08:37:35.000Z</time>
        <extensions>
          <ns3:TrackPointExtension>
            <ns3:hr>148</ns3:hr>
            <ns3:cad>80</ns3:cad>
          </ns3:TrackPointExtension>
        </extensions>
      </trkpt>
      <trkpt lat="52.25303976796567440032958984375" lon="1.62600464187562465667724609375">
        <ele>-181.8000030517578125</ele>
        <time>2025-09-07T08:37:37.000Z</time>
        <extensions>
          <ns3:TrackPointExtension>
            <ns3:hr>149</ns3:hr>
            <ns3:cad>80</ns3:cad>
          </ns3:TrackPointExtension>
        </extensions>
      </trkpt>
      <trkpt lat="52.25304446183145046234130859375" lon="1.62594974040985107421875">
        <ele>-180.399993896484375</ele>
        <time>2025-09-07T08:37:39.000Z</time>
        <extensions>
          <ns3:TrackPointExtension>
            <ns3:hr>149</ns3:hr>
            <ns3:cad>80</ns3:cad>
          </ns3:TrackPointExtension>
        </extensions>
      </trkpt>
      <trkpt lat="52.2530564479529857635498046875" lon="1.62582141347229480743408203125">
        <ele>-179</ele>
        <time>2025-09-07T08:37:43.000Z</time>
        <extensions>
          <ns3:TrackPointExtension>
            <ns3:hr>146</ns3:hr>
            <ns3:cad>80</ns3:cad>
          </ns3:TrackPointExtension>
        </extensions>
      </trkpt>
      <trkpt lat="52.2530728764832019805908203125" lon="1.6257775761187076568603515625">
        <ele>-178.600006103515625</ele>
        <time>2025-09-07T08:37:45.000Z</time>
        <extensions>
          <ns3:TrackPointExtension>
            <ns3:hr>144</ns3:hr>
            <ns3:cad>80</ns3:cad>
          </ns3:TrackPointExtension>
        </extensions>
      </trkpt>
      <trkpt lat="52.25309190340340137481689453125" lon="1.62578009068965911865234375">
        <ele>-178</ele>
        <time>2025-09-07T08:37:46.000Z</time>
        <extensions>
          <ns3:TrackPointExtension>
            <ns3:hr>145</ns3:hr>
            <ns3:cad>80</ns3:cad>
          </ns3:TrackPointExtension>
        </extensions>
      </trkpt>
      <trkpt lat="52.2531218267977237701416015625" lon="1.62581118755042552947998046875">
        <ele>-177.399993896484375</ele>
        <time>2025-09-07T08:37:48.000Z</time>
        <extensions>
          <ns3:TrackPointExtension>
            <ns3:hr>147</ns3:hr>
            <ns3:cad>0</ns3:cad>
          </ns3:TrackPointExtension>
        </extensions>
      </trkpt>
      <trkpt lat="52.25313029251992702484130859375" lon="1.62583448924124240875244140625">
        <ele>-176.8000030517578125</ele>
        <time>2025-09-07T08:37:50.000Z</time>
        <extensions>
          <ns3:TrackPointExtension>
            <ns3:hr>149</ns3:hr>
            <ns3:cad>0</ns3:cad>
          </ns3:TrackPointExtension>
        </extensions>
      </trkpt>
      <trkpt lat="52.253128699958324432373046875" lon="1.6258463077247142791748046875">
        <ele>-175.600006103515625</ele>
        <time>2025-09-07T08:37:54.000Z</time>
        <extensions>
          <ns3:TrackPointExtension>
            <ns3:hr>147</ns3:hr>
            <ns3:cad>0</ns3:cad>
          </ns3:TrackPointExtension>
        </extensions>
      </trkpt>
      <trkpt lat="52.253128699958324432373046875" lon="1.62584823556244373321533203125">
        <ele>-174.399993896484375</ele>
        <time>2025-09-07T08:37:56.000Z</time>
        <extensions>
          <ns3:TrackPointExtension>
            <ns3:hr>147</ns3:hr>
            <ns3:cad>0</ns3:cad>
          </ns3:TrackPointExtension>
        </extensions>
      </trkpt>
      <trkpt lat="52.25312392227351665496826171875" lon="1.62585075013339519500732421875">
        <ele>-172.8000030517578125</ele>
        <time>2025-09-07T08:37:59.000Z</time>
        <extensions>
          <ns3:TrackPointExtension>
            <ns3:hr>148</ns3:hr>
            <ns3:cad>0</ns3:cad>
          </ns3:TrackPointExtension>
        </extensions>
      </trkpt>
      <trkpt lat="52.25312006659805774688720703125" lon="1.625858210027217864990234375">
        <ele>-171.600006103515625</ele>
        <time>2025-09-07T08:38:04.000Z</time>
        <extensions>
          <ns3:TrackPointExtension>
            <ns3:hr>145</ns3:hr>
            <ns3:cad>0</ns3:cad>
          </ns3:TrackPointExtension>
        </extensions>
      </trkpt>
      <trkpt lat="52.25313414819538593292236328125" lon="1.62583683617413043975830078125">
        <ele>-171.399993896484375</ele>
        <time>2025-09-07T08:38:06.000Z</time>
        <extensions>
          <ns3:TrackPointExtension>
            <ns3:hr>144</ns3:hr>
            <ns3:cad>0</ns3:cad>
          </ns3:TrackPointExtension>
        </extensions>
      </trkpt>
      <trkpt lat="52.253146804869174957275390625" lon="1.62580288946628570556640625">
        <ele>-171.399993896484375</ele>
        <time>2025-09-07T08:38:08.000Z</time>
        <extensions>
          <ns3:TrackPointExtension>
            <ns3:hr>141</ns3:hr>
            <ns3:cad>0</ns3:cad>
          </ns3:TrackPointExtension>
        </extensions>
      </trkpt>
      <trkpt lat="52.25318326614797115325927734375" lon="1.62573851644992828369140625">
        <ele>-171.399993896484375</ele>
        <time>2025-09-07T08:38:12.000Z</time>
        <extensions>
          <ns3:TrackPointExtension>
            <ns3:hr>135</ns3:hr>
            <ns3:cad>58</ns3:cad>
          </ns3:TrackPointExtension>
        </extensions>
      </trkpt>
      <trkpt lat="52.253197096288204193115234375" lon="1.62572552450001239776611328125">
        <ele>-171.399993896484375</ele>
        <time>2025-09-07T08:38:13.000Z</time>
        <extensions>
          <ns3:TrackPointExtension>
            <ns3:hr>132</ns3:hr>
            <ns3:cad>0</ns3:cad>
          </ns3:TrackPointExtension>
        </extensions>
      </trkpt>
      <trkpt lat="52.25323054008185863494873046875" lon="1.62569023668766021728515625">
        <ele>-171.399993896484375</ele>
        <time>2025-09-07T08:38:15.000Z</time>
        <extensions>
          <ns3:TrackPointExtension>
            <ns3:hr>130</ns3:hr>
            <ns3:cad>0</ns3:cad>
          </ns3:TrackPointExtension>
        </extensions>
      </trkpt>
      <trkpt lat="52.25327211432158946990966796875" lon="1.62565947510302066802978515625">
        <ele>-171.1999969482421875</ele>
        <time>2025-09-07T08:38:17.000Z</time>
        <extensions>
          <ns3:TrackPointExtension>
            <ns3:hr>127</ns3:hr>
            <ns3:cad>76</ns3:cad>
          </ns3:TrackPointExtension>
        </extensions>
      </trkpt>
      <trkpt lat="52.25329290144145488739013671875" lon="1.62564598023891448974609375">
        <ele>-171</ele>
        <time>2025-09-07T08:38:18.000Z</time>
        <extensions>
          <ns3:TrackPointExtension>
            <ns3:hr>130</ns3:hr>
            <ns3:cad>77</ns3:cad>
          </ns3:TrackPointExtension>
        </extensions>
      </trkpt>
      <trkpt lat="52.25331251509487628936767578125" lon="1.62563583813607692718505859375">
        <ele>-170.600006103515625</ele>
        <time>2025-09-07T08:38:19.000Z</time>
        <extensions>
          <ns3:TrackPointExtension>
            <ns3:hr>131</ns3:hr>
            <ns3:cad>78</ns3:cad>
          </ns3:TrackPointExtension>
        </extensions>
      </trkpt>
      <trkpt lat="52.25334319286048412322998046875" lon="1.62561303935945034027099609375">
        <ele>-169.600006103515625</ele>
        <time>2025-09-07T08:38:21.000Z</time>
        <extensions>
          <ns3:TrackPointExtension>
            <ns3:hr>132</ns3:hr>
            <ns3:cad>79</ns3:cad>
          </ns3:TrackPointExtension>
        </extensions>
      </trkpt>
      <trkpt lat="52.25335844792425632476806640625" lon="1.6256015561521053314208984375">
        <ele>-168.399993896484375</ele>
        <time>2025-09-07T08:38:22.000Z</time>
        <extensions>
          <ns3:TrackPointExtension>
            <ns3:hr>133</ns3:hr>
            <ns3:cad>79</ns3:cad>
          </ns3:TrackPointExtension>
        </extensions>
      </trkpt>
      <trkpt lat="52.2533974237740039825439453125" lon="1.62555268965661525726318359375">
        <ele>-166.8000030517578125</ele>
        <time>2025-09-07T08:38:25.000Z</time>
        <extensions>
          <ns3:TrackPointExtension>
            <ns3:hr>137</ns3:hr>
            <ns3:cad>81</ns3:cad>
          </ns3:TrackPointExtension>
        </extensions>
      </trkpt>
      <trkpt lat="52.253427095711231231689453125" lon="1.62552662193775177001953125">
        <ele>-165.600006103515625</ele>
        <time>2025-09-07T08:38:27.000Z</time>
        <extensions>
          <ns3:TrackPointExtension>
            <ns3:hr>138</ns3:hr>
            <ns3:cad>81</ns3:cad>
          </ns3:TrackPointExtension>
        </extensions>
      </trkpt>
      <trkpt lat="52.25344218313694000244140625" lon="1.62551463581621646881103515625">
        <ele>-165</ele>
        <time>2025-09-07T08:38:28.000Z</time>
        <extensions>
          <ns3:TrackPointExtension>
            <ns3:hr>138</ns3:hr>
            <ns3:cad>81</ns3:cad>
          </ns3:TrackPointExtension>
        </extensions>
      </trkpt>
      <trkpt lat="52.25345735438168048858642578125" lon="1.6255029849708080291748046875">
        <ele>-164.1999969482421875</ele>
        <time>2025-09-07T08:38:29.000Z</time>
        <extensions>
          <ns3:TrackPointExtension>
            <ns3:hr>139</ns3:hr>
            <ns3:cad>81</ns3:cad>
          </ns3:TrackPointExtension>
        </extensions>
      </trkpt>
      <trkpt lat="52.25347244180738925933837890625" lon="1.62549083121120929718017578125">
        <ele>-163.399993896484375</ele>
        <time>2025-09-07T08:38:30.000Z</time>
        <extensions>
          <ns3:TrackPointExtension>
            <ns3:hr>135</ns3:hr>
            <ns3:cad>81</ns3:cad>
          </ns3:TrackPointExtension>
        </extensions>
      </trkpt>
      <trkpt lat="52.2534876130521297454833984375" lon="1.62547691725194454193115234375">
        <ele>-161</ele>
        <time>2025-09-07T08:38:31.000Z</time>
        <extensions>
          <ns3:TrackPointExtension>
            <ns3:hr>136</ns3:hr>
            <ns3:cad>81</ns3:cad>
          </ns3:TrackPointExtension>
        </extensions>
      </trkpt>
      <trkpt lat="52.25350110791623592376708984375" lon="1.6254637576639652252197265625">
        <ele>-158.1999969482421875</ele>
        <time>2025-09-07T08:38:32.000Z</time>
        <extensions>
          <ns3:TrackPointExtension>
            <ns3:hr>137</ns3:hr>
            <ns3:cad>81</ns3:cad>
          </ns3:TrackPointExtension>
        </extensions>
      </trkpt>
      <trkpt lat="52.2535161115229129791259765625" lon="1.6254526935517787933349609375">
        <ele>-156.600006103515625</ele>
        <time>2025-09-07T08:38:33.000Z</time>
        <extensions>
          <ns3:TrackPointExtension>
            <ns3:hr>137</ns3:hr>
            <ns3:cad>61</ns3:cad>
          </ns3:TrackPointExtension>
        </extensions>
      </trkpt>
      <trkpt lat="52.25353044457733631134033203125" lon="1.62543836049735546112060546875">
        <ele>-153.8000030517578125</ele>
        <time>2025-09-07T08:38:34.000Z</time>
        <extensions>
          <ns3:TrackPointExtension>
            <ns3:hr>137</ns3:hr>
            <ns3:cad>61</ns3:cad>
          </ns3:TrackPointExtension>
        </extensions>
      </trkpt>
      <trkpt lat="52.2535462863743305206298828125" lon="1.6254295594990253448486328125">
        <ele>-152.399993896484375</ele>
        <time>2025-09-07T08:38:35.000Z</time>
        <extensions>
          <ns3:TrackPointExtension>
            <ns3:hr>137</ns3:hr>
            <ns3:cad>62</ns3:cad>
          </ns3:TrackPointExtension>
        </extensions>
      </trkpt>
      <trkpt lat="52.2535747848451137542724609375" lon="1.62540986202657222747802734375">
        <ele>-150.600006103515625</ele>
        <time>2025-09-07T08:38:37.000Z</time>
        <extensions>
          <ns3:TrackPointExtension>
            <ns3:hr>136</ns3:hr>
            <ns3:cad>62</ns3:cad>
          </ns3:TrackPointExtension>
        </extensions>
      </trkpt>
      <trkpt lat="52.25360286422073841094970703125" lon="1.6253785975277423858642578125">
        <ele>-149.399993896484375</ele>
        <time>2025-09-07T08:38:39.000Z</time>
        <extensions>
          <ns3:TrackPointExtension>
            <ns3:hr>136</ns3:hr>
            <ns3:cad>62</ns3:cad>
          </ns3:TrackPointExtension>
        </extensions>
      </trkpt>
      <trkpt lat="52.25363270379602909088134765625" lon="1.62534959614276885986328125">
        <ele>-148.399993896484375</ele>
        <time>2025-09-07T08:38:41.000Z</time>
        <extensions>
          <ns3:TrackPointExtension>
            <ns3:hr>135</ns3:hr>
            <ns3:cad>0</ns3:cad>
          </ns3:TrackPointExtension>
        </extensions>
      </trkpt>
      <trkpt lat="52.2536763735115528106689453125" lon="1.6253071837127208709716796875">
        <ele>-146.8000030517578125</ele>
        <time>2025-09-07T08:38:44.000Z</time>
        <extensions>
          <ns3:TrackPointExtension>
            <ns3:hr>135</ns3:hr>
            <ns3:cad>61</ns3:cad>
          </ns3:TrackPointExtension>
        </extensions>
      </trkpt>
      <trkpt lat="52.253815345466136932373046875" lon="1.6252072714269161224365234375">
        <ele>-146</ele>
        <time>2025-09-07T08:38:53.000Z</time>
        <extensions>
          <ns3:TrackPointExtension>
            <ns3:hr>136</ns3:hr>
            <ns3:cad>0</ns3:cad>
          </ns3:TrackPointExtension>
        </extensions>
      </trkpt>
      <trkpt lat="52.25392271764576435089111328125" lon="1.625139713287353515625">
        <ele>-148</ele>
        <time>2025-09-07T08:38:59.000Z</time>
        <extensions>
          <ns3:TrackPointExtension>
            <ns3:hr>135</ns3:hr>
            <ns3:cad>78</ns3:cad>
          </ns3:TrackPointExtension>
        </extensions>
      </trkpt>
      <trkpt lat="52.25394082255661487579345703125" lon="1.625130660831928253173828125">
        <ele>-148.399993896484375</ele>
        <time>2025-09-07T08:39:00.000Z</time>
        <extensions>
          <ns3:TrackPointExtension>
            <ns3:hr>135</ns3:hr>
            <ns3:cad>77</ns3:cad>
          </ns3:TrackPointExtension>
        </extensions>
      </trkpt>
      <trkpt lat="52.25395926274359226226806640625" lon="1.62511649541556835174560546875">
        <ele>-149.1999969482421875</ele>
        <time>2025-09-07T08:39:01.000Z</time>
        <extensions>
          <ns3:TrackPointExtension>
            <ns3:hr>135</ns3:hr>
            <ns3:cad>77</ns3:cad>
          </ns3:TrackPointExtension>
        </extensions>
      </trkpt>
      <trkpt lat="52.25399480201303958892822265625" lon="1.62508933804929256439208984375">
        <ele>-150.8000030517578125</ele>
        <time>2025-09-07T08:39:03.000Z</time>
        <extensions>
          <ns3:TrackPointExtension>
            <ns3:hr>134</ns3:hr>
            <ns3:cad>78</ns3:cad>
          </ns3:TrackPointExtension>
        </extensions>
      </trkpt>
      <trkpt lat="52.254028581082820892333984375" lon="1.62506804801523685455322265625">
        <ele>-151.399993896484375</ele>
        <time>2025-09-07T08:39:05.000Z</time>
        <extensions>
          <ns3:TrackPointExtension>
            <ns3:hr>138</ns3:hr>
            <ns3:cad>78</ns3:cad>
          </ns3:TrackPointExtension>
        </extensions>
      </trkpt>
      <trkpt lat="52.2540461830794811248779296875" lon="1.62505664862692356109619140625">
        <ele>-151.8000030517578125</ele>
        <time>2025-09-07T08:39:06.000Z</time>
        <extensions>
          <ns3:TrackPointExtension>
            <ns3:hr>137</ns3:hr>
            <ns3:cad>79</ns3:cad>
          </ns3:TrackPointExtension>
        </extensions>
      </trkpt>
      <trkpt lat="52.254082895815372467041015625" lon="1.6250403039157390594482421875">
        <ele>-152.399993896484375</ele>
        <time>2025-09-07T08:39:08.000Z</time>
        <extensions>
          <ns3:TrackPointExtension>
            <ns3:hr>140</ns3:hr>
            <ns3:cad>79</ns3:cad>
          </ns3:TrackPointExtension>
        </extensions>
      </trkpt>
      <trkpt lat="52.25409924052655696868896484375" lon="1.6250262223184108734130859375">
        <ele>-152.600006103515625</ele>
        <time>2025-09-07T08:39:09.000Z</time>
        <extensions>
          <ns3:TrackPointExtension>
            <ns3:hr>139</ns3:hr>
            <ns3:cad>80</ns3:cad>
          </ns3:TrackPointExtension>
        </extensions>
      </trkpt>
      <trkpt lat="52.25415707565844058990478515625" lon="1.6249923594295978546142578125">
        <ele>-152.8000030517578125</ele>
        <time>2025-09-07T08:39:12.000Z</time>
        <extensions>
          <ns3:TrackPointExtension>
            <ns3:hr>142</ns3:hr>
            <ns3:cad>79</ns3:cad>
          </ns3:TrackPointExtension>
        </extensions>
      </trkpt>
      <trkpt lat="52.254176773130893707275390625" lon="1.6249856539070606231689453125">
        <ele>-153</ele>
        <time>2025-09-07T08:39:13.000Z</time>
        <extensions>
          <ns3:TrackPointExtension>
            <ns3:hr>142</ns3:hr>
            <ns3:cad>79</ns3:cad>
          </ns3:TrackPointExtension>
        </extensions>
      </trkpt>
      <trkpt lat="52.2542341053485870361328125" lon="1.62494651041924953460693359375">
        <ele>-153.1999969482421875</ele>
        <time>2025-09-07T08:39:16.000Z</time>
        <extensions>
          <ns3:TrackPointExtension>
            <ns3:hr>145</ns3:hr>
            <ns3:cad>80</ns3:cad>
          </ns3:TrackPointExtension>
        </extensions>
      </trkpt>
      <trkpt lat="52.254302501678466796875" lon="1.62490258924663066864013671875">
        <ele>-154</ele>
        <time>2025-09-07T08:39:21.000Z</time>
        <extensions>
          <ns3:TrackPointExtension>
            <ns3:hr>145</ns3:hr>
            <ns3:cad>79</ns3:cad>
          </ns3:TrackPointExtension>
        </extensions>
      </trkpt>
      <trkpt lat="52.2543486021459102630615234375" lon="1.6248709894716739654541015625">
        <ele>-156</ele>
        <time>2025-09-07T08:39:24.000Z</time>
        <extensions>
          <ns3:TrackPointExtension>
            <ns3:hr>146</ns3:hr>
            <ns3:cad>72</ns3:cad>
          </ns3:TrackPointExtension>
        </extensions>
      </trkpt>
      <trkpt lat="52.2543787769973278045654296875" lon="1.62484659813344478607177734375">
        <ele>-157</ele>
        <time>2025-09-07T08:39:26.000Z</time>
        <extensions>
          <ns3:TrackPointExtension>
            <ns3:hr>145</ns3:hr>
            <ns3:cad>0</ns3:cad>
          </ns3:TrackPointExtension>
        </extensions>
      </trkpt>
      <trkpt lat="52.25440517999231815338134765625" lon="1.62482329644262790679931640625">
        <ele>-157.399993896484375</ele>
        <time>2025-09-07T08:39:28.000Z</time>
        <extensions>
          <ns3:TrackPointExtension>
            <ns3:hr>142</ns3:hr>
            <ns3:cad>0</ns3:cad>
          </ns3:TrackPointExtension>
        </extensions>
      </trkpt>
      <trkpt lat="52.2544206865131855010986328125" lon="1.624810807406902313232421875">
        <ele>-157.600006103515625</ele>
        <time>2025-09-07T08:39:29.000Z</time>
        <extensions>
          <ns3:TrackPointExtension>
            <ns3:hr>141</ns3:hr>
            <ns3:cad>0</ns3:cad>
          </ns3:TrackPointExtension>
        </extensions>
      </trkpt>
      <trkpt lat="52.25451464764773845672607421875" lon="1.6247690655291080474853515625">
        <ele>-157.600006103515625</ele>
        <time>2025-09-07T08:39:36.000Z</time>
        <extensions>
          <ns3:TrackPointExtension>
            <ns3:hr>139</ns3:hr>
            <ns3:cad>0</ns3:cad>
          </ns3:TrackPointExtension>
        </extensions>
      </trkpt>
      <trkpt lat="52.25451548583805561065673828125" lon="1.6247640363872051239013671875">
        <ele>-156.8000030517578125</ele>
        <time>2025-09-07T08:39:41.000Z</time>
        <extensions>
          <ns3:TrackPointExtension>
            <ns3:hr>136</ns3:hr>
            <ns3:cad>0</ns3:cad>
          </ns3:TrackPointExtension>
        </extensions>
      </trkpt>
      <trkpt lat="52.25451297126710414886474609375" lon="1.62476277910172939300537109375">
        <ele>-156.600006103515625</ele>
        <time>2025-09-07T08:39:43.000Z</time>
        <extensions>
          <ns3:TrackPointExtension>
            <ns3:hr>136</ns3:hr>
            <ns3:cad>0</ns3:cad>
          </ns3:TrackPointExtension>
        </extensions>
      </trkpt>
      <trkpt lat="52.2545108757913112640380859375" lon="1.6247655451297760009765625">
        <ele>-156.600006103515625</ele>
        <time>2025-09-07T08:39:46.000Z</time>
        <extensions>
          <ns3:TrackPointExtension>
            <ns3:hr>132</ns3:hr>
            <ns3:cad>0</ns3:cad>
          </ns3:TrackPointExtension>
        </extensions>
      </trkpt>
      <trkpt lat="52.25451028905808925628662109375" lon="1.6247754357755184173583984375">
        <ele>-158.1999969482421875</ele>
        <time>2025-09-07T08:39:49.000Z</time>
        <extensions>
          <ns3:TrackPointExtension>
            <ns3:hr>131</ns3:hr>
            <ns3:cad>0</ns3:cad>
          </ns3:TrackPointExtension>
        </extensions>
      </trkpt>
      <trkpt lat="52.25451012142002582550048828125" lon="1.62477719597518444061279296875">
        <ele>-159.1999969482421875</ele>
        <time>2025-09-07T08:39:50.000Z</time>
        <extensions>
          <ns3:TrackPointExtension>
            <ns3:hr>131</ns3:hr>
            <ns3:cad>0</ns3:cad>
          </ns3:TrackPointExtension>
        </extensions>
      </trkpt>
      <trkpt lat="52.254528142511844635009765625" lon="1.62476353347301483154296875">
        <ele>-160.399993896484375</ele>
        <time>2025-09-07T08:39:54.000Z</time>
        <extensions>
          <ns3:TrackPointExtension>
            <ns3:hr>131</ns3:hr>
            <ns3:cad>0</ns3:cad>
          </ns3:TrackPointExtension>
        </extensions>
      </trkpt>
      <trkpt lat="52.25463752634823322296142578125" lon="1.62469320930540561676025390625">
        <ele>-160.8000030517578125</ele>
        <time>2025-09-07T08:40:00.000Z</time>
        <extensions>
          <ns3:TrackPointExtension>
            <ns3:hr>129</ns3:hr>
            <ns3:cad>76</ns3:cad>
          </ns3:TrackPointExtension>
        </extensions>
      </trkpt>
      <trkpt lat="52.25465663708746433258056640625" lon="1.6246818937361240386962890625">
        <ele>-160.8000030517578125</ele>
        <time>2025-09-07T08:40:01.000Z</time>
        <extensions>
          <ns3:TrackPointExtension>
            <ns3:hr>132</ns3:hr>
            <ns3:cad>77</ns3:cad>
          </ns3:TrackPointExtension>
        </extensions>
      </trkpt>
      <trkpt lat="52.2547164000570774078369140625" lon="1.62464710883796215057373046875">
        <ele>-160.8000030517578125</ele>
        <time>2025-09-07T08:40:04.000Z</time>
        <extensions>
          <ns3:TrackPointExtension>
            <ns3:hr>135</ns3:hr>
            <ns3:cad>78</ns3:cad>
          </ns3:TrackPointExtension>
        </extensions>
      </trkpt>
      <trkpt lat="52.2547908313572406768798828125" lon="1.624596901237964630126953125">
        <ele>-160.8000030517578125</ele>
        <time>2025-09-07T08:40:08.000Z</time>
        <extensions>
          <ns3:TrackPointExtension>
            <ns3:hr>137</ns3:hr>
            <ns3:cad>80</ns3:cad>
          </ns3:TrackPointExtension>
        </extensions>
      </trkpt>
      <trkpt lat="52.254862748086452484130859375" lon="1.62453210912644863128662109375">
        <ele>-160.8000030517578125</ele>
        <time>2025-09-07T08:40:12.000Z</time>
        <extensions>
          <ns3:TrackPointExtension>
            <ns3:hr>140</ns3:hr>
            <ns3:cad>80</ns3:cad>
          </ns3:TrackPointExtension>
        </extensions>
      </trkpt>
      <trkpt lat="52.2548964433372020721435546875" lon="1.62451249547302722930908203125">
        <ele>-161</ele>
        <time>2025-09-07T08:40:14.000Z</time>
        <extensions>
          <ns3:TrackPointExtension>
            <ns3:hr>141</ns3:hr>
            <ns3:cad>80</ns3:cad>
          </ns3:TrackPointExtension>
        </extensions>
      </trkpt>
      <trkpt lat="52.2549142129719257354736328125" lon="1.624504029750823974609375">
        <ele>-161.399993896484375</ele>
        <time>2025-09-07T08:40:15.000Z</time>
        <extensions>
          <ns3:TrackPointExtension>
            <ns3:hr>142</ns3:hr>
            <ns3:cad>80</ns3:cad>
          </ns3:TrackPointExtension>
        </extensions>
      </trkpt>
      <trkpt lat="52.2550218366086483001708984375" lon="1.62445533089339733123779296875">
        <ele>-162.399993896484375</ele>
        <time>2025-09-07T08:40:20.000Z</time>
        <extensions>
          <ns3:TrackPointExtension>
            <ns3:hr>140</ns3:hr>
            <ns3:cad>0</ns3:cad>
          </ns3:TrackPointExtension>
        </extensions>
      </trkpt>
      <trkpt lat="52.25506718270480632781982421875" lon="1.624442674219608306884765625">
        <ele>-165</ele>
        <time>2025-09-07T08:40:22.000Z</time>
        <extensions>
          <ns3:TrackPointExtension>
            <ns3:hr>141</ns3:hr>
            <ns3:cad>61</ns3:cad>
          </ns3:TrackPointExtension>
        </extensions>
      </trkpt>
      <trkpt lat="52.2550828568637371063232421875" lon="1.62443504668772220611572265625">
        <ele>-166.399993896484375</ele>
        <time>2025-09-07T08:40:23.000Z</time>
        <extensions>
          <ns3:TrackPointExtension>
            <ns3:hr>140</ns3:hr>
            <ns3:cad>61</ns3:cad>
          </ns3:TrackPointExtension>
        </extensions>
      </trkpt>
      <trkpt lat="52.2551140375435352325439453125" lon="1.624415852129459381103515625">
        <ele>-167.600006103515625</ele>
        <time>2025-09-07T08:40:25.000Z</time>
        <extensions>
          <ns3:TrackPointExtension>
            <ns3:hr>139</ns3:hr>
            <ns3:cad>62</ns3:cad>
          </ns3:TrackPointExtension>
        </extensions>
      </trkpt>
      <trkpt lat="52.2551549412310123443603515625" lon="1.62438224069774150848388671875">
        <ele>-168.1999969482421875</ele>
        <time>2025-09-07T08:40:28.000Z</time>
        <extensions>
          <ns3:TrackPointExtension>
            <ns3:hr>140</ns3:hr>
            <ns3:cad>62</ns3:cad>
          </ns3:TrackPointExtension>
        </extensions>
      </trkpt>
      <trkpt lat="52.2552184760570526123046875" lon="1.624312587082386016845703125">
        <ele>-167.8000030517578125</ele>
        <time>2025-09-07T08:40:35.000Z</time>
        <extensions>
          <ns3:TrackPointExtension>
            <ns3:hr>138</ns3:hr>
            <ns3:cad>63</ns3:cad>
          </ns3:TrackPointExtension>
        </extensions>
      </trkpt>
      <trkpt lat="52.255252338945865631103515625" lon="1.6242765448987483978271484375">
        <ele>-167.8000030517578125</ele>
        <time>2025-09-07T08:40:38.000Z</time>
        <extensions>
          <ns3:TrackPointExtension>
            <ns3:hr>141</ns3:hr>
            <ns3:cad>60</ns3:cad>
          </ns3:TrackPointExtension>
        </extensions>
      </trkpt>
      <trkpt lat="52.255312018096446990966796875" lon="1.624217368662357330322265625">
        <ele>-167.600006103515625</ele>
        <time>2025-09-07T08:40:42.000Z</time>
        <extensions>
          <ns3:TrackPointExtension>
            <ns3:hr>139</ns3:hr>
            <ns3:cad>62</ns3:cad>
          </ns3:TrackPointExtension>
        </extensions>
      </trkpt>
      <trkpt lat="52.2553681768476963043212890625" lon="1.62416816689074039459228515625">
        <ele>-168.600006103515625</ele>
        <time>2025-09-07T08:40:46.000Z</time>
        <extensions>
          <ns3:TrackPointExtension>
            <ns3:hr>138</ns3:hr>
            <ns3:cad>62</ns3:cad>
          </ns3:TrackPointExtension>
        </extensions>
      </trkpt>
      <trkpt lat="52.25538200698792934417724609375" lon="1.6241508163511753082275390625">
        <ele>-169</ele>
        <time>2025-09-07T08:40:47.000Z</time>
        <extensions>
          <ns3:TrackPointExtension>
            <ns3:hr>134</ns3:hr>
            <ns3:cad>62</ns3:cad>
          </ns3:TrackPointExtension>
        </extensions>
      </trkpt>
      <trkpt lat="52.25539558567106723785400390625" lon="1.6241333819925785064697265625">
        <ele>-169.1999969482421875</ele>
        <time>2025-09-07T08:40:48.000Z</time>
        <extensions>
          <ns3:TrackPointExtension>
            <ns3:hr>134</ns3:hr>
            <ns3:cad>61</ns3:cad>
          </ns3:TrackPointExtension>
        </extensions>
      </trkpt>
      <trkpt lat="52.25542324595153331756591796875" lon="1.6241057217121124267578125">
        <ele>-170.600006103515625</ele>
        <time>2025-09-07T08:40:50.000Z</time>
        <extensions>
          <ns3:TrackPointExtension>
            <ns3:hr>135</ns3:hr>
            <ns3:cad>61</ns3:cad>
          </ns3:TrackPointExtension>
        </extensions>
      </trkpt>
      <trkpt lat="52.25544713437557220458984375" lon="1.62408099509775638580322265625">
        <ele>-172.1999969482421875</ele>
        <time>2025-09-07T08:40:52.000Z</time>
        <extensions>
          <ns3:TrackPointExtension>
            <ns3:hr>135</ns3:hr>
            <ns3:cad>62</ns3:cad>
          </ns3:TrackPointExtension>
        </extensions>
      </trkpt>
      <trkpt lat="52.25548728369176387786865234375" lon="1.62405065260827541351318359375">
        <ele>-173.399993896484375</ele>
        <time>2025-09-07T08:40:55.000Z</time>
        <extensions>
          <ns3:TrackPointExtension>
            <ns3:hr>137</ns3:hr>
            <ns3:cad>61</ns3:cad>
          </ns3:TrackPointExtension>
        </extensions>
      </trkpt>
      <trkpt lat="52.25553028285503387451171875" lon="1.62402483634650707244873046875">
        <ele>-174.399993896484375</ele>
        <time>2025-09-07T08:40:58.000Z</time>
        <extensions>
          <ns3:TrackPointExtension>
            <ns3:hr>138</ns3:hr>
            <ns3:cad>61</ns3:cad>
          </ns3:TrackPointExtension>
        </extensions>
      </trkpt>
      <trkpt lat="52.255612425506114959716796875" lon="1.6239724494516849517822265625">
        <ele>-175.399993896484375</ele>
        <time>2025-09-07T08:41:03.000Z</time>
        <extensions>
          <ns3:TrackPointExtension>
            <ns3:hr>137</ns3:hr>
            <ns3:cad>61</ns3:cad>
          </ns3:TrackPointExtension>
        </extensions>
      </trkpt>
      <trkpt lat="52.25567109882831573486328125" lon="1.62392458878457546234130859375">
        <ele>-175.399993896484375</ele>
        <time>2025-09-07T08:41:10.000Z</time>
        <extensions>
          <ns3:TrackPointExtension>
            <ns3:hr>135</ns3:hr>
            <ns3:cad>61</ns3:cad>
          </ns3:TrackPointExtension>
        </extensions>
      </trkpt>
      <trkpt lat="52.25566162727773189544677734375" lon="1.62395124323666095733642578125">
        <ele>-175.1999969482421875</ele>
        <time>2025-09-07T08:41:16.000Z</time>
        <extensions>
          <ns3:TrackPointExtension>
            <ns3:hr>133</ns3:hr>
            <ns3:cad>0</ns3:cad>
          </ns3:TrackPointExtension>
        </extensions>
      </trkpt>
      <trkpt lat="52.2556622140109539031982421875" lon="1.62395912222564220428466796875">
        <ele>-173.399993896484375</ele>
        <time>2025-09-07T08:41:27.000Z</time>
        <extensions>
          <ns3:TrackPointExtension>
            <ns3:hr>132</ns3:hr>
            <ns3:cad>0</ns3:cad>
          </ns3:TrackPointExtension>
        </extensions>
      </trkpt>
      <trkpt lat="52.2556632198393344879150390625" lon="1.62396046333014965057373046875">
        <ele>-173</ele>
        <time>2025-09-07T08:41:28.000Z</time>
        <extensions>
          <ns3:TrackPointExtension>
            <ns3:hr>131</ns3:hr>
            <ns3:cad>0</ns3:cad>
          </ns3:TrackPointExtension>
        </extensions>
      </trkpt>
      <trkpt lat="52.25566162727773189544677734375" lon="1.62396289408206939697265625">
        <ele>-172</ele>
        <time>2025-09-07T08:41:29.000Z</time>
        <extensions>
          <ns3:TrackPointExtension>
            <ns3:hr>131</ns3:hr>
            <ns3:cad>0</ns3:cad>
          </ns3:TrackPointExtension>
        </extensions>
      </trkpt>
      <trkpt lat="52.255661375820636749267578125" lon="1.623966582119464874267578125">
        <ele>-171</ele>
        <time>2025-09-07T08:41:30.000Z</time>
        <extensions>
          <ns3:TrackPointExtension>
            <ns3:hr>131</ns3:hr>
            <ns3:cad>0</ns3:cad>
          </ns3:TrackPointExtension>
        </extensions>
      </trkpt>
      <trkpt lat="52.25565995089709758758544921875" lon="1.62396557629108428955078125">
        <ele>-169.8000030517578125</ele>
        <time>2025-09-07T08:41:32.000Z</time>
        <extensions>
          <ns3:TrackPointExtension>
            <ns3:hr>131</ns3:hr>
            <ns3:cad>0</ns3:cad>
          </ns3:TrackPointExtension>
        </extensions>
      </trkpt>
      <trkpt lat="52.25566045381128787994384765625" lon="1.62397169508039951324462890625">
        <ele>-167.8000030517578125</ele>
        <time>2025-09-07T08:41:34.000Z</time>
        <extensions>
          <ns3:TrackPointExtension>
            <ns3:hr>132</ns3:hr>
            <ns3:cad>0</ns3:cad>
          </ns3:TrackPointExtension>
        </extensions>
      </trkpt>
      <trkpt lat="52.25566162727773189544677734375" lon="1.6239721141755580902099609375">
        <ele>-165.8000030517578125</ele>
        <time>2025-09-07T08:41:36.000Z</time>
        <extensions>
          <ns3:TrackPointExtension>
            <ns3:hr>132</ns3:hr>
            <ns3:cad>0</ns3:cad>
          </ns3:TrackPointExtension>
        </extensions>
      </trkpt>
      <trkpt lat="52.25566145963966846466064453125" lon="1.62397320382297039031982421875">
        <ele>-164.8000030517578125</ele>
        <time>2025-09-07T08:41:39.000Z</time>
        <extensions>
          <ns3:TrackPointExtension>
            <ns3:hr>131</ns3:hr>
            <ns3:cad>0</ns3:cad>
          </ns3:TrackPointExtension>
        </extensions>
      </trkpt>
      <trkpt lat="52.25566129200160503387451171875" lon="1.623973958194255828857421875">
        <ele>-164.8000030517578125</ele>
        <time>2025-09-07T08:41:40.000Z</time>
        <extensions>
          <ns3:TrackPointExtension>
            <ns3:hr>130</ns3:hr>
            <ns3:cad>0</ns3:cad>
          </ns3:TrackPointExtension>
        </extensions>
      </trkpt>
      <trkpt lat="52.255706302821636199951171875" lon="1.62396649830043315887451171875">
        <ele>-164.399993896484375</ele>
        <time>2025-09-07T08:41:50.000Z</time>
        <extensions>
          <ns3:TrackPointExtension>
            <ns3:hr>124</ns3:hr>
            <ns3:cad>0</ns3:cad>
          </ns3:TrackPointExtension>
        </extensions>
      </trkpt>
      <trkpt lat="52.25572432391345500946044921875" lon="1.62395593710243701934814453125">
        <ele>-164.399993896484375</ele>
        <time>2025-09-07T08:41:51.000Z</time>
        <extensions>
          <ns3:TrackPointExtension>
            <ns3:hr>122</ns3:hr>
            <ns3:cad>75</ns3:cad>
          </ns3:TrackPointExtension>
        </extensions>
      </trkpt>
      <trkpt lat="52.25580126978456974029541015625" lon="1.6239047236740589141845703125">
        <ele>-165.1999969482421875</ele>
        <time>2025-09-07T08:41:55.000Z</time>
        <extensions>
          <ns3:TrackPointExtension>
            <ns3:hr>126</ns3:hr>
            <ns3:cad>77</ns3:cad>
          </ns3:TrackPointExtension>
        </extensions>
      </trkpt>
      <trkpt lat="52.25582172162830829620361328125" lon="1.6238896362483501434326171875">
        <ele>-165.600006103515625</ele>
        <time>2025-09-07T08:41:56.000Z</time>
        <extensions>
          <ns3:TrackPointExtension>
            <ns3:hr>129</ns3:hr>
            <ns3:cad>79</ns3:cad>
          </ns3:TrackPointExtension>
        </extensions>
      </trkpt>
      <trkpt lat="52.255840413272380828857421875" lon="1.6238809190690517425537109375">
        <ele>-165</ele>
        <time>2025-09-07T08:41:57.000Z</time>
        <extensions>
          <ns3:TrackPointExtension>
            <ns3:hr>128</ns3:hr>
            <ns3:cad>79</ns3:cad>
          </ns3:TrackPointExtension>
        </extensions>
      </trkpt>
      <trkpt lat="52.25588525645434856414794921875" lon="1.6238591261208057403564453125">
        <ele>-164.1999969482421875</ele>
        <time>2025-09-07T08:41:59.000Z</time>
        <extensions>
          <ns3:TrackPointExtension>
            <ns3:hr>131</ns3:hr>
            <ns3:cad>79</ns3:cad>
          </ns3:TrackPointExtension>
        </extensions>
      </trkpt>
      <trkpt lat="52.2559200413525104522705078125" lon="1.62383951246738433837890625">
        <ele>-163.600006103515625</ele>
        <time>2025-09-07T08:42:01.000Z</time>
        <extensions>
          <ns3:TrackPointExtension>
            <ns3:hr>134</ns3:hr>
            <ns3:cad>79</ns3:cad>
          </ns3:TrackPointExtension>
        </extensions>
      </trkpt>
      <trkpt lat="52.25595884956419467926025390625" lon="1.62380657158792018890380859375">
        <ele>-162.600006103515625</ele>
        <time>2025-09-07T08:42:03.000Z</time>
        <extensions>
          <ns3:TrackPointExtension>
            <ns3:hr>134</ns3:hr>
            <ns3:cad>80</ns3:cad>
          </ns3:TrackPointExtension>
        </extensions>
      </trkpt>
      <trkpt lat="52.25602372549474239349365234375" lon="1.6237756423652172088623046875">
        <ele>-162.1999969482421875</ele>
        <time>2025-09-07T08:42:06.000Z</time>
        <extensions>
          <ns3:TrackPointExtension>
            <ns3:hr>138</ns3:hr>
            <ns3:cad>80</ns3:cad>
          </ns3:TrackPointExtension>
        </extensions>
      </trkpt>
      <trkpt lat="52.2561108134686946868896484375" lon="1.62374270148575305938720703125">
        <ele>-163.8000030517578125</ele>
        <time>2025-09-07T08:42:10.000Z</time>
        <extensions>
          <ns3:TrackPointExtension>
            <ns3:hr>139</ns3:hr>
            <ns3:cad>80</ns3:cad>
          </ns3:TrackPointExtension>
        </extensions>
      </trkpt>
      <trkpt lat="52.2562127374112606048583984375" lon="1.62369601428508758544921875">
        <ele>-164.8000030517578125</ele>
        <time>2025-09-07T08:42:15.000Z</time>
        <extensions>
          <ns3:TrackPointExtension>
            <ns3:hr>139</ns3:hr>
            <ns3:cad>79</ns3:cad>
          </ns3:TrackPointExtension>
        </extensions>
      </trkpt>
      <trkpt lat="52.2562355361878871917724609375" lon="1.6236874647438526153564453125">
        <ele>-165.600006103515625</ele>
        <time>2025-09-07T08:42:16.000Z</time>
        <extensions>
          <ns3:TrackPointExtension>
            <ns3:hr>139</ns3:hr>
            <ns3:cad>78</ns3:cad>
          </ns3:TrackPointExtension>
        </extensions>
      </trkpt>
      <trkpt lat="52.25630016066133975982666015625" lon="1.623663492500782012939453125">
        <ele>-165.8000030517578125</ele>
        <time>2025-09-07T08:42:19.000Z</time>
        <extensions>
          <ns3:TrackPointExtension>
            <ns3:hr>138</ns3:hr>
            <ns3:cad>80</ns3:cad>
          </ns3:TrackPointExtension>
        </extensions>
      </trkpt>
      <trkpt lat="52.25631776265799999237060546875" lon="1.623652093112468719482421875">
        <ele>-165.8000030517578125</ele>
        <time>2025-09-07T08:42:20.000Z</time>
        <extensions>
          <ns3:TrackPointExtension>
            <ns3:hr>141</ns3:hr>
            <ns3:cad>80</ns3:cad>
          </ns3:TrackPointExtension>
        </extensions>
      </trkpt>
      <trkpt lat="52.25633368827402591705322265625" lon="1.623634994029998779296875">
        <ele>-166</ele>
        <time>2025-09-07T08:42:21.000Z</time>
        <extensions>
          <ns3:TrackPointExtension>
            <ns3:hr>138</ns3:hr>
            <ns3:cad>80</ns3:cad>
          </ns3:TrackPointExtension>
        </extensions>
      </trkpt>
      <trkpt lat="52.2563491947948932647705078125" lon="1.62361596710979938507080078125">
        <ele>-166.600006103515625</ele>
        <time>2025-09-07T08:42:22.000Z</time>
        <extensions>
          <ns3:TrackPointExtension>
            <ns3:hr>141</ns3:hr>
            <ns3:cad>80</ns3:cad>
          </ns3:TrackPointExtension>
        </extensions>
      </trkpt>
      <trkpt lat="52.25636470131576061248779296875" lon="1.62359677255153656005859375">
        <ele>-166.399993896484375</ele>
        <time>2025-09-07T08:42:23.000Z</time>
        <extensions>
          <ns3:TrackPointExtension>
            <ns3:hr>141</ns3:hr>
            <ns3:cad>80</ns3:cad>
          </ns3:TrackPointExtension>
        </extensions>
      </trkpt>
      <trkpt lat="52.2563981451094150543212890625" lon="1.62356282584369182586669921875">
        <ele>-167</ele>
        <time>2025-09-07T08:42:25.000Z</time>
        <extensions>
          <ns3:TrackPointExtension>
            <ns3:hr>140</ns3:hr>
            <ns3:cad>80</ns3:cad>
          </ns3:TrackPointExtension>
        </extensions>
      </trkpt>
      <trkpt lat="52.2565273940563201904296875" lon="1.6234534420073032379150390625">
        <ele>-167.399993896484375</ele>
        <time>2025-09-07T08:42:32.000Z</time>
        <extensions>
          <ns3:TrackPointExtension>
            <ns3:hr>139</ns3:hr>
            <ns3:cad>78</ns3:cad>
          </ns3:TrackPointExtension>
        </extensions>
      </trkpt>
      <trkpt lat="52.25661448203027248382568359375" lon="1.62339954636991024017333984375">
        <ele>-168</ele>
        <time>2025-09-07T08:42:37.000Z</time>
        <extensions>
          <ns3:TrackPointExtension>
            <ns3:hr>140</ns3:hr>
            <ns3:cad>80</ns3:cad>
          </ns3:TrackPointExtension>
        </extensions>
      </trkpt>
      <trkpt lat="52.256647087633609771728515625" lon="1.623370461165904998779296875">
        <ele>-168.1999969482421875</ele>
        <time>2025-09-07T08:42:39.000Z</time>
        <extensions>
          <ns3:TrackPointExtension>
            <ns3:hr>139</ns3:hr>
            <ns3:cad>80</ns3:cad>
          </ns3:TrackPointExtension>
        </extensions>
      </trkpt>
      <trkpt lat="52.2567017376422882080078125" lon="1.62332494743168354034423828125">
        <ele>-168.1999969482421875</ele>
        <time>2025-09-07T08:42:42.000Z</time>
        <extensions>
          <ns3:TrackPointExtension>
            <ns3:hr>142</ns3:hr>
            <ns3:cad>79</ns3:cad>
          </ns3:TrackPointExtension>
        </extensions>
      </trkpt>
      <trkpt lat="52.25673903711140155792236328125" lon="1.6232961975038051605224609375">
        <ele>-168.399993896484375</ele>
        <time>2025-09-07T08:42:44.000Z</time>
        <extensions>
          <ns3:TrackPointExtension>
            <ns3:hr>145</ns3:hr>
            <ns3:cad>80</ns3:cad>
          </ns3:TrackPointExtension>
        </extensions>
      </trkpt>
      <trkpt lat="52.2567971237003803253173828125" lon="1.623253785073757171630859375">
        <ele>-169.1999969482421875</ele>
        <time>2025-09-07T08:42:47.000Z</time>
        <extensions>
          <ns3:TrackPointExtension>
            <ns3:hr>145</ns3:hr>
            <ns3:cad>81</ns3:cad>
          </ns3:TrackPointExtension>
        </extensions>
      </trkpt>
      <trkpt lat="52.256863676011562347412109375" lon="1.62321187555789947509765625">
        <ele>-170.399993896484375</ele>
        <time>2025-09-07T08:42:50.000Z</time>
        <extensions>
          <ns3:TrackPointExtension>
            <ns3:hr>146</ns3:hr>
            <ns3:cad>81</ns3:cad>
          </ns3:TrackPointExtension>
        </extensions>
      </trkpt>
      <trkpt lat="52.25696283392608165740966796875" lon="1.623151190578937530517578125">
        <ele>-171</ele>
        <time>2025-09-07T08:42:55.000Z</time>
        <extensions>
          <ns3:TrackPointExtension>
            <ns3:hr>145</ns3:hr>
            <ns3:cad>80</ns3:cad>
          </ns3:TrackPointExtension>
        </extensions>
      </trkpt>
      <trkpt lat="52.25698093883693218231201171875" lon="1.6231352649629116058349609375">
        <ele>-171</ele>
        <time>2025-09-07T08:42:56.000Z</time>
        <extensions>
          <ns3:TrackPointExtension>
            <ns3:hr>148</ns3:hr>
            <ns3:cad>80</ns3:cad>
          </ns3:TrackPointExtension>
        </extensions>
      </trkpt>
      <trkpt lat="52.2570646740496158599853515625" lon="1.62305789999663829803466796875">
        <ele>-171.1999969482421875</ele>
        <time>2025-09-07T08:43:00.000Z</time>
        <extensions>
          <ns3:TrackPointExtension>
            <ns3:hr>151</ns3:hr>
            <ns3:cad>80</ns3:cad>
          </ns3:TrackPointExtension>
        </extensions>
      </trkpt>
      <trkpt lat="52.25711907260119915008544921875" lon="1.6230122186243534088134765625">
        <ele>-170.600006103515625</ele>
        <time>2025-09-07T08:43:04.000Z</time>
        <extensions>
          <ns3:TrackPointExtension>
            <ns3:hr>151</ns3:hr>
            <ns3:cad>80</ns3:cad>
          </ns3:TrackPointExtension>
        </extensions>
      </trkpt>
      <trkpt lat="52.257225774228572845458984375" lon="1.6229148209095001220703125">
        <ele>-169.1999969482421875</ele>
        <time>2025-09-07T08:43:10.000Z</time>
        <extensions>
          <ns3:TrackPointExtension>
            <ns3:hr>150</ns3:hr>
            <ns3:cad>81</ns3:cad>
          </ns3:TrackPointExtension>
        </extensions>
      </trkpt>
      <trkpt lat="52.25726374424993991851806640625" lon="1.622882299125194549560546875">
        <ele>-169</ele>
        <time>2025-09-07T08:43:12.000Z</time>
        <extensions>
          <ns3:TrackPointExtension>
            <ns3:hr>152</ns3:hr>
            <ns3:cad>81</ns3:cad>
          </ns3:TrackPointExtension>
        </extensions>
      </trkpt>
      <trkpt lat="52.25739844143390655517578125" lon="1.6227875836193561553955078125">
        <ele>-168</ele>
        <time>2025-09-07T08:43:19.000Z</time>
        <extensions>
          <ns3:TrackPointExtension>
            <ns3:hr>151</ns3:hr>
            <ns3:cad>81</ns3:cad>
          </ns3:TrackPointExtension>
        </extensions>
      </trkpt>
      <trkpt lat="52.2574334777891635894775390625" lon="1.62276260554790496826171875">
        <ele>-167.8000030517578125</ele>
        <time>2025-09-07T08:43:21.000Z</time>
        <extensions>
          <ns3:TrackPointExtension>
            <ns3:hr>152</ns3:hr>
            <ns3:cad>81</ns3:cad>
          </ns3:TrackPointExtension>
        </extensions>
      </trkpt>
      <trkpt lat="52.25747966207563877105712890625" lon="1.622718684375286102294921875">
        <ele>-167</ele>
        <time>2025-09-07T08:43:24.000Z</time>
        <extensions>
          <ns3:TrackPointExtension>
            <ns3:hr>151</ns3:hr>
            <ns3:cad>80</ns3:cad>
          </ns3:TrackPointExtension>
        </extensions>
      </trkpt>
      <trkpt lat="52.25757278501987457275390625" lon="1.622637547552585601806640625">
        <ele>-165.8000030517578125</ele>
        <time>2025-09-07T08:43:30.000Z</time>
        <extensions>
          <ns3:TrackPointExtension>
            <ns3:hr>151</ns3:hr>
            <ns3:cad>81</ns3:cad>
          </ns3:TrackPointExtension>
        </extensions>
      </trkpt>
      <trkpt lat="52.2575887106359004974365234375" lon="1.62262220866978168487548828125">
        <ele>-165.600006103515625</ele>
        <time>2025-09-07T08:43:31.000Z</time>
        <extensions>
          <ns3:TrackPointExtension>
            <ns3:hr>151</ns3:hr>
            <ns3:cad>81</ns3:cad>
          </ns3:TrackPointExtension>
        </extensions>
      </trkpt>
      <trkpt lat="52.25765635259449481964111328125" lon="1.6225549019873142242431640625">
        <ele>-164.600006103515625</ele>
        <time>2025-09-07T08:43:35.000Z</time>
        <extensions>
          <ns3:TrackPointExtension>
            <ns3:hr>151</ns3:hr>
            <ns3:cad>81</ns3:cad>
          </ns3:TrackPointExtension>
        </extensions>
      </trkpt>
      <trkpt lat="52.25771536119282245635986328125" lon="1.622505448758602142333984375">
        <ele>-164.600006103515625</ele>
        <time>2025-09-07T08:43:38.000Z</time>
        <extensions>
          <ns3:TrackPointExtension>
            <ns3:hr>150</ns3:hr>
            <ns3:cad>81</ns3:cad>
          </ns3:TrackPointExtension>
        </extensions>
      </trkpt>
      <trkpt lat="52.257817201316356658935546875" lon="1.6224335320293903350830078125">
        <ele>-164.8000030517578125</ele>
        <time>2025-09-07T08:43:43.000Z</time>
        <extensions>
          <ns3:TrackPointExtension>
            <ns3:hr>154</ns3:hr>
            <ns3:cad>81</ns3:cad>
          </ns3:TrackPointExtension>
        </extensions>
      </trkpt>
      <trkpt lat="52.25785852409899234771728515625" lon="1.62240562029182910919189453125">
        <ele>-164.399993896484375</ele>
        <time>2025-09-07T08:43:45.000Z</time>
        <extensions>
          <ns3:TrackPointExtension>
            <ns3:hr>156</ns3:hr>
            <ns3:cad>81</ns3:cad>
          </ns3:TrackPointExtension>
        </extensions>
      </trkpt>
      <trkpt lat="52.25793479941785335540771484375" lon="1.62233688868582248687744140625">
        <ele>-163</ele>
        <time>2025-09-07T08:43:50.000Z</time>
        <extensions>
          <ns3:TrackPointExtension>
            <ns3:hr>156</ns3:hr>
            <ns3:cad>79</ns3:cad>
          </ns3:TrackPointExtension>
        </extensions>
      </trkpt>
      <trkpt lat="52.25796279497444629669189453125" lon="1.6223212145268917083740234375">
        <ele>-162</ele>
        <time>2025-09-07T08:43:52.000Z</time>
        <extensions>
          <ns3:TrackPointExtension>
            <ns3:hr>155</ns3:hr>
            <ns3:cad>80</ns3:cad>
          </ns3:TrackPointExtension>
        </extensions>
      </trkpt>
      <trkpt lat="52.2580302692949771881103515625" lon="1.6222860105335712432861328125">
        <ele>-160.8000030517578125</ele>
        <time>2025-09-07T08:43:56.000Z</time>
        <extensions>
          <ns3:TrackPointExtension>
            <ns3:hr>155</ns3:hr>
            <ns3:cad>80</ns3:cad>
          </ns3:TrackPointExtension>
        </extensions>
      </trkpt>
      <trkpt lat="52.25807704031467437744140625" lon="1.62224301137030124664306640625">
        <ele>-160</ele>
        <time>2025-09-07T08:43:59.000Z</time>
        <extensions>
          <ns3:TrackPointExtension>
            <ns3:hr>154</ns3:hr>
            <ns3:cad>81</ns3:cad>
          </ns3:TrackPointExtension>
        </extensions>
      </trkpt>
      <trkpt lat="52.2581908665597438812255859375" lon="1.622165478765964508056640625">
        <ele>-160</ele>
        <time>2025-09-07T08:44:05.000Z</time>
        <extensions>
          <ns3:TrackPointExtension>
            <ns3:hr>157</ns3:hr>
            <ns3:cad>81</ns3:cad>
          </ns3:TrackPointExtension>
        </extensions>
      </trkpt>
      <trkpt lat="52.25824601948261260986328125" lon="1.6221197135746479034423828125">
        <ele>-160.399993896484375</ele>
        <time>2025-09-07T08:44:08.000Z</time>
        <extensions>
          <ns3:TrackPointExtension>
            <ns3:hr>153</ns3:hr>
            <ns3:cad>81</ns3:cad>
          </ns3:TrackPointExtension>
        </extensions>
      </trkpt>
      <trkpt lat="52.25829253904521465301513671875" lon="1.6220824979245662689208984375">
        <ele>-161.1999969482421875</ele>
        <time>2025-09-07T08:44:11.000Z</time>
        <extensions>
          <ns3:TrackPointExtension>
            <ns3:hr>150</ns3:hr>
            <ns3:cad>81</ns3:cad>
          </ns3:TrackPointExtension>
        </extensions>
      </trkpt>
      <trkpt lat="52.2583219595253467559814453125" lon="1.62206112407147884368896484375">
        <ele>-161.8000030517578125</ele>
        <time>2025-09-07T08:44:13.000Z</time>
        <extensions>
          <ns3:TrackPointExtension>
            <ns3:hr>150</ns3:hr>
            <ns3:cad>82</ns3:cad>
          </ns3:TrackPointExtension>
        </extensions>
      </trkpt>
      <trkpt lat="52.2583340294659137725830078125" lon="1.62205140106379985809326171875">
        <ele>-162</ele>
        <time>2025-09-07T08:44:14.000Z</time>
        <extensions>
          <ns3:TrackPointExtension>
            <ns3:hr>151</ns3:hr>
            <ns3:cad>82</ns3:cad>
          </ns3:TrackPointExtension>
        </extensions>
      </trkpt>
      <trkpt lat="52.25841592065989971160888671875" lon="1.621988117694854736328125">
        <ele>-163</ele>
        <time>2025-09-07T08:44:19.000Z</time>
        <extensions>
          <ns3:TrackPointExtension>
            <ns3:hr>152</ns3:hr>
            <ns3:cad>81</ns3:cad>
          </ns3:TrackPointExtension>
        </extensions>
      </trkpt>
      <trkpt lat="52.25848934613168239593505859375" lon="1.62194880656898021697998046875">
        <ele>-163.1999969482421875</ele>
        <time>2025-09-07T08:44:22.000Z</time>
        <extensions>
          <ns3:TrackPointExtension>
            <ns3:hr>152</ns3:hr>
            <ns3:cad>81</ns3:cad>
          </ns3:TrackPointExtension>
        </extensions>
      </trkpt>
      <trkpt lat="52.25866687484085559844970703125" lon="1.6218340583145618438720703125">
        <ele>-162.8000030517578125</ele>
        <time>2025-09-07T08:44:31.000Z</time>
        <extensions>
          <ns3:TrackPointExtension>
            <ns3:hr>154</ns3:hr>
            <ns3:cad>80</ns3:cad>
          </ns3:TrackPointExtension>
        </extensions>
      </trkpt>
      <trkpt lat="52.25868917070329189300537109375" lon="1.62182291038334369659423828125">
        <ele>-163</ele>
        <time>2025-09-07T08:44:32.000Z</time>
        <extensions>
          <ns3:TrackPointExtension>
            <ns3:hr>154</ns3:hr>
            <ns3:cad>80</ns3:cad>
          </ns3:TrackPointExtension>
        </extensions>
      </trkpt>
      <trkpt lat="52.2588367760181427001953125" lon="1.62172551266849040985107421875">
        <ele>-163</ele>
        <time>2025-09-07T08:44:40.000Z</time>
        <extensions>
          <ns3:TrackPointExtension>
            <ns3:hr>154</ns3:hr>
            <ns3:cad>81</ns3:cad>
          </ns3:TrackPointExtension>
        </extensions>
      </trkpt>
      <trkpt lat="52.25897935219109058380126953125" lon="1.6216094233095645904541015625">
        <ele>-163.399993896484375</ele>
        <time>2025-09-07T08:44:48.000Z</time>
        <extensions>
          <ns3:TrackPointExtension>
            <ns3:hr>153</ns3:hr>
            <ns3:cad>80</ns3:cad>
          </ns3:TrackPointExtension>
        </extensions>
      </trkpt>
      <trkpt lat="52.25910524837672710418701171875" lon="1.6215185634791851043701171875">
        <ele>-163.1999969482421875</ele>
        <time>2025-09-07T08:44:55.000Z</time>
        <extensions>
          <ns3:TrackPointExtension>
            <ns3:hr>154</ns3:hr>
            <ns3:cad>80</ns3:cad>
          </ns3:TrackPointExtension>
        </extensions>
      </trkpt>
      <trkpt lat="52.2592630796134471893310546875" lon="1.621399708092212677001953125">
        <ele>-163</ele>
        <time>2025-09-07T08:45:04.000Z</time>
        <extensions>
          <ns3:TrackPointExtension>
            <ns3:hr>152</ns3:hr>
            <ns3:cad>80</ns3:cad>
          </ns3:TrackPointExtension>
        </extensions>
      </trkpt>
      <trkpt lat="52.25938403047621250152587890625" lon="1.62130021490156650543212890625">
        <ele>-163.399993896484375</ele>
        <time>2025-09-07T08:45:11.000Z</time>
        <extensions>
          <ns3:TrackPointExtension>
            <ns3:hr>155</ns3:hr>
            <ns3:cad>81</ns3:cad>
          </ns3:TrackPointExtension>
        </extensions>
      </trkpt>
      <trkpt lat="52.25940062664449214935302734375" lon="1.62128546275198459625244140625">
        <ele>-163.1999969482421875</ele>
        <time>2025-09-07T08:45:12.000Z</time>
        <extensions>
          <ns3:TrackPointExtension>
            <ns3:hr>155</ns3:hr>
            <ns3:cad>81</ns3:cad>
          </ns3:TrackPointExtension>
        </extensions>
      </trkpt>
      <trkpt lat="52.259547896683216094970703125" lon="1.6211913339793682098388671875">
        <ele>-162.8000030517578125</ele>
        <time>2025-09-07T08:45:21.000Z</time>
        <extensions>
          <ns3:TrackPointExtension>
            <ns3:hr>154</ns3:hr>
            <ns3:cad>81</ns3:cad>
          </ns3:TrackPointExtension>
        </extensions>
      </trkpt>
      <trkpt lat="52.2596768103539943695068359375" lon="1.62110642530024051666259765625">
        <ele>-163.8000030517578125</ele>
        <time>2025-09-07T08:45:28.000Z</time>
        <extensions>
          <ns3:TrackPointExtension>
            <ns3:hr>153</ns3:hr>
            <ns3:cad>80</ns3:cad>
          </ns3:TrackPointExtension>
        </extensions>
      </trkpt>
      <trkpt lat="52.259819470345973968505859375" lon="1.62095990963280200958251953125">
        <ele>-162.1999969482421875</ele>
        <time>2025-09-07T08:45:36.000Z</time>
        <extensions>
          <ns3:TrackPointExtension>
            <ns3:hr>153</ns3:hr>
            <ns3:cad>80</ns3:cad>
          </ns3:TrackPointExtension>
        </extensions>
      </trkpt>
      <trkpt lat="52.259868085384368896484375" lon="1.620909869670867919921875">
        <ele>-162</ele>
        <time>2025-09-07T08:45:39.000Z</time>
        <extensions>
          <ns3:TrackPointExtension>
            <ns3:hr>156</ns3:hr>
            <ns3:cad>79</ns3:cad>
          </ns3:TrackPointExtension>
        </extensions>
      </trkpt>
      <trkpt lat="52.25997872650623321533203125" lon="1.6208433173596858978271484375">
        <ele>-161.8000030517578125</ele>
        <time>2025-09-07T08:45:45.000Z</time>
        <extensions>
          <ns3:TrackPointExtension>
            <ns3:hr>155</ns3:hr>
            <ns3:cad>79</ns3:cad>
          </ns3:TrackPointExtension>
        </extensions>
      </trkpt>
      <trkpt lat="52.2600493021309375762939453125" lon="1.620786488056182861328125">
        <ele>-161.8000030517578125</ele>
        <time>2025-09-07T08:45:49.000Z</time>
        <extensions>
          <ns3:TrackPointExtension>
            <ns3:hr>152</ns3:hr>
            <ns3:cad>80</ns3:cad>
          </ns3:TrackPointExtension>
        </extensions>
      </trkpt>
      <trkpt lat="52.2601156868040561676025390625" lon="1.6207309998571872711181640625">
        <ele>-162.1999969482421875</ele>
        <time>2025-09-07T08:45:53.000Z</time>
        <extensions>
          <ns3:TrackPointExtension>
            <ns3:hr>150</ns3:hr>
            <ns3:cad>80</ns3:cad>
          </ns3:TrackPointExtension>
        </extensions>
      </trkpt>
      <trkpt lat="52.2602048702538013458251953125" lon="1.62068925797939300537109375">
        <ele>-163</ele>
        <time>2025-09-07T08:45:58.000Z</time>
        <extensions>
          <ns3:TrackPointExtension>
            <ns3:hr>150</ns3:hr>
            <ns3:cad>80</ns3:cad>
          </ns3:TrackPointExtension>
        </extensions>
      </trkpt>
      <trkpt lat="52.26025625132024288177490234375" lon="1.62070895545184612274169921875">
        <ele>-163.399993896484375</ele>
        <time>2025-09-07T08:46:01.000Z</time>
        <extensions>
          <ns3:TrackPointExtension>
            <ns3:hr>151</ns3:hr>
            <ns3:cad>80</ns3:cad>
          </ns3:TrackPointExtension>
        </extensions>
      </trkpt>
      <trkpt lat="52.2603889368474483489990234375" lon="1.620800234377384185791015625">
        <ele>-163.8000030517578125</ele>
        <time>2025-09-07T08:46:08.000Z</time>
        <extensions>
          <ns3:TrackPointExtension>
            <ns3:hr>151</ns3:hr>
            <ns3:cad>80</ns3:cad>
          </ns3:TrackPointExtension>
        </extensions>
      </trkpt>
      <trkpt lat="52.2605012543499469757080078125" lon="1.62081171758472919464111328125">
        <ele>-163.8000030517578125</ele>
        <time>2025-09-07T08:46:14.000Z</time>
        <extensions>
          <ns3:TrackPointExtension>
            <ns3:hr>152</ns3:hr>
            <ns3:cad>78</ns3:cad>
          </ns3:TrackPointExtension>
        </extensions>
      </trkpt>
      <trkpt lat="52.260633520781993865966796875" lon="1.62075337953865528106689453125">
        <ele>-163.1999969482421875</ele>
        <time>2025-09-07T08:46:22.000Z</time>
        <extensions>
          <ns3:TrackPointExtension>
            <ns3:hr>149</ns3:hr>
            <ns3:cad>79</ns3:cad>
          </ns3:TrackPointExtension>
        </extensions>
      </trkpt>
      <trkpt lat="52.26072530262172222137451171875" lon="1.6205697320401668548583984375">
        <ele>-162.600006103515625</ele>
        <time>2025-09-07T08:46:30.000Z</time>
        <extensions>
          <ns3:TrackPointExtension>
            <ns3:hr>147</ns3:hr>
            <ns3:cad>80</ns3:cad>
          </ns3:TrackPointExtension>
        </extensions>
      </trkpt>
      <trkpt lat="52.26075245998799800872802734375" lon="1.62048867903649806976318359375">
        <ele>-161.8000030517578125</ele>
        <time>2025-09-07T08:46:33.000Z</time>
        <extensions>
          <ns3:TrackPointExtension>
            <ns3:hr>147</ns3:hr>
            <ns3:cad>79</ns3:cad>
          </ns3:TrackPointExtension>
        </extensions>
      </trkpt>
      <trkpt lat="52.26076352410018444061279296875" lon="1.62042665295302867889404296875">
        <ele>-160.8000030517578125</ele>
        <time>2025-09-07T08:46:35.000Z</time>
        <extensions>
          <ns3:TrackPointExtension>
            <ns3:hr>147</ns3:hr>
            <ns3:cad>79</ns3:cad>
          </ns3:TrackPointExtension>
        </extensions>
      </trkpt>
      <trkpt lat="52.26079906336963176727294921875" lon="1.62034618668258190155029296875">
        <ele>-159.399993896484375</ele>
        <time>2025-09-07T08:46:38.000Z</time>
        <extensions>
          <ns3:TrackPointExtension>
            <ns3:hr>147</ns3:hr>
            <ns3:cad>80</ns3:cad>
          </ns3:TrackPointExtension>
        </extensions>
      </trkpt>
      <trkpt lat="52.26084214635193347930908203125" lon="1.620293967425823211669921875">
        <ele>-157.8000030517578125</ele>
        <time>2025-09-07T08:46:41.000Z</time>
        <extensions>
          <ns3:TrackPointExtension>
            <ns3:hr>148</ns3:hr>
            <ns3:cad>79</ns3:cad>
          </ns3:TrackPointExtension>
        </extensions>
      </trkpt>
      <trkpt lat="52.26088858209550380706787109375" lon="1.62023554556071758270263671875">
        <ele>-156.8000030517578125</ele>
        <time>2025-09-07T08:46:44.000Z</time>
        <extensions>
          <ns3:TrackPointExtension>
            <ns3:hr>147</ns3:hr>
            <ns3:cad>79</ns3:cad>
          </ns3:TrackPointExtension>
        </extensions>
      </trkpt>
      <trkpt lat="52.26090677082538604736328125" lon="1.6202223859727382659912109375">
        <ele>-156.600006103515625</ele>
        <time>2025-09-07T08:46:45.000Z</time>
        <extensions>
          <ns3:TrackPointExtension>
            <ns3:hr>147</ns3:hr>
            <ns3:cad>79</ns3:cad>
          </ns3:TrackPointExtension>
        </extensions>
      </trkpt>
      <trkpt lat="52.2610008157789707183837890625" lon="1.6201311908662319183349609375">
        <ele>-156.1999969482421875</ele>
        <time>2025-09-07T08:46:51.000Z</time>
        <extensions>
          <ns3:TrackPointExtension>
            <ns3:hr>149</ns3:hr>
            <ns3:cad>79</ns3:cad>
          </ns3:TrackPointExtension>
        </extensions>
      </trkpt>
      <trkpt lat="52.26117323152720928192138671875" lon="1.61998023279011249542236328125">
        <ele>-157.399993896484375</ele>
        <time>2025-09-07T08:47:01.000Z</time>
        <extensions>
          <ns3:TrackPointExtension>
            <ns3:hr>149</ns3:hr>
            <ns3:cad>79</ns3:cad>
          </ns3:TrackPointExtension>
        </extensions>
      </trkpt>
      <trkpt lat="52.26131103001534938812255859375" lon="1.619873531162738800048828125">
        <ele>-156.600006103515625</ele>
        <time>2025-09-07T08:47:09.000Z</time>
        <extensions>
          <ns3:TrackPointExtension>
            <ns3:hr>151</ns3:hr>
            <ns3:cad>80</ns3:cad>
          </ns3:TrackPointExtension>
        </extensions>
      </trkpt>
      <trkpt lat="52.2614064998924732208251953125" lon="1.61980010569095611572265625">
        <ele>-155.399993896484375</ele>
        <time>2025-09-07T08:47:14.000Z</time>
        <extensions>
          <ns3:TrackPointExtension>
            <ns3:hr>151</ns3:hr>
            <ns3:cad>80</ns3:cad>
          </ns3:TrackPointExtension>
        </extensions>
      </trkpt>
      <trkpt lat="52.26148285903036594390869140625" lon="1.6197556816041469573974609375">
        <ele>-154.8000030517578125</ele>
        <time>2025-09-07T08:47:18.000Z</time>
        <extensions>
          <ns3:TrackPointExtension>
            <ns3:hr>152</ns3:hr>
            <ns3:cad>80</ns3:cad>
          </ns3:TrackPointExtension>
        </extensions>
      </trkpt>
      <trkpt lat="52.26163725368678569793701171875" lon="1.61968133412301540374755859375">
        <ele>-154.8000030517578125</ele>
        <time>2025-09-07T08:47:26.000Z</time>
        <extensions>
          <ns3:TrackPointExtension>
            <ns3:hr>152</ns3:hr>
            <ns3:cad>79</ns3:cad>
          </ns3:TrackPointExtension>
        </extensions>
      </trkpt>
      <trkpt lat="52.2617675922811031341552734375" lon="1.6195934079587459564208984375">
        <ele>-155</ele>
        <time>2025-09-07T08:47:34.000Z</time>
        <extensions>
          <ns3:TrackPointExtension>
            <ns3:hr>150</ns3:hr>
            <ns3:cad>79</ns3:cad>
          </ns3:TrackPointExtension>
        </extensions>
      </trkpt>
      <trkpt lat="52.26188317872583866119384765625" lon="1.61950967274606227874755859375">
        <ele>-156.399993896484375</ele>
        <time>2025-09-07T08:47:41.000Z</time>
        <extensions>
          <ns3:TrackPointExtension>
            <ns3:hr>151</ns3:hr>
            <ns3:cad>79</ns3:cad>
          </ns3:TrackPointExtension>
        </extensions>
      </trkpt>
      <trkpt lat="52.26190262474119663238525390625" lon="1.61949777044355869293212890625">
        <ele>-156.600006103515625</ele>
        <time>2025-09-07T08:47:42.000Z</time>
        <extensions>
          <ns3:TrackPointExtension>
            <ns3:hr>151</ns3:hr>
            <ns3:cad>79</ns3:cad>
          </ns3:TrackPointExtension>
        </extensions>
      </trkpt>
      <trkpt lat="52.26198443211615085601806640625" lon="1.6194261051714420318603515625">
        <ele>-157.399993896484375</ele>
        <time>2025-09-07T08:47:47.000Z</time>
        <extensions>
          <ns3:TrackPointExtension>
            <ns3:hr>150</ns3:hr>
            <ns3:cad>79</ns3:cad>
          </ns3:TrackPointExtension>
        </extensions>
      </trkpt>
      <trkpt lat="52.2620378248393535614013671875" lon="1.6193823516368865966796875">
        <ele>-157.399993896484375</ele>
        <time>2025-09-07T08:47:50.000Z</time>
        <extensions>
          <ns3:TrackPointExtension>
            <ns3:hr>150</ns3:hr>
            <ns3:cad>79</ns3:cad>
          </ns3:TrackPointExtension>
        </extensions>
      </trkpt>
      <trkpt lat="52.2622212208807468414306640625" lon="1.61927095614373683929443359375">
        <ele>-157.399993896484375</ele>
        <time>2025-09-07T08:48:00.000Z</time>
        <extensions>
          <ns3:TrackPointExtension>
            <ns3:hr>151</ns3:hr>
            <ns3:cad>79</ns3:cad>
          </ns3:TrackPointExtension>
        </extensions>
      </trkpt>
      <trkpt lat="52.2623684071004390716552734375" lon="1.61916576325893402099609375">
        <ele>-157.399993896484375</ele>
        <time>2025-09-07T08:48:08.000Z</time>
        <extensions>
          <ns3:TrackPointExtension>
            <ns3:hr>152</ns3:hr>
            <ns3:cad>81</ns3:cad>
          </ns3:TrackPointExtension>
        </extensions>
      </trkpt>
      <trkpt lat="52.26250058971345424652099609375" lon="1.61907582543790340423583984375">
        <ele>-158.399993896484375</ele>
        <time>2025-09-07T08:48:16.000Z</time>
        <extensions>
          <ns3:TrackPointExtension>
            <ns3:hr>150</ns3:hr>
            <ns3:cad>79</ns3:cad>
          </ns3:TrackPointExtension>
        </extensions>
      </trkpt>
      <trkpt lat="52.26265314035117626190185546875" lon="1.61897943355143070220947265625">
        <ele>-159.600006103515625</ele>
        <time>2025-09-07T08:48:25.000Z</time>
        <extensions>
          <ns3:TrackPointExtension>
            <ns3:hr>150</ns3:hr>
            <ns3:cad>80</ns3:cad>
          </ns3:TrackPointExtension>
        </extensions>
      </trkpt>
      <trkpt lat="52.2627045214176177978515625" lon="1.61894087679684162139892578125">
        <ele>-161</ele>
        <time>2025-09-07T08:48:28.000Z</time>
        <extensions>
          <ns3:TrackPointExtension>
            <ns3:hr>150</ns3:hr>
            <ns3:cad>80</ns3:cad>
          </ns3:TrackPointExtension>
        </extensions>
      </trkpt>
      <trkpt lat="52.2627402283251285552978515625" lon="1.61891221068799495697021484375">
        <ele>-162.600006103515625</ele>
        <time>2025-09-07T08:48:30.000Z</time>
        <extensions>
          <ns3:TrackPointExtension>
            <ns3:hr>149</ns3:hr>
            <ns3:cad>80</ns3:cad>
          </ns3:TrackPointExtension>
        </extensions>
      </trkpt>
      <trkpt lat="52.262813150882720947265625" lon="1.61884968169033527374267578125">
        <ele>-163.600006103515625</ele>
        <time>2025-09-07T08:48:34.000Z</time>
        <extensions>
          <ns3:TrackPointExtension>
            <ns3:hr>149</ns3:hr>
            <ns3:cad>82</ns3:cad>
          </ns3:TrackPointExtension>
        </extensions>
      </trkpt>
      <trkpt lat="52.26282932795584201812744140625" lon="1.61883643828332424163818359375">
        <ele>-163.600006103515625</ele>
        <time>2025-09-07T08:48:35.000Z</time>
        <extensions>
          <ns3:TrackPointExtension>
            <ns3:hr>150</ns3:hr>
            <ns3:cad>82</ns3:cad>
          </ns3:TrackPointExtension>
        </extensions>
      </trkpt>
      <trkpt lat="52.26298556663095951080322265625" lon="1.61876670084893703460693359375">
        <ele>-162.8000030517578125</ele>
        <time>2025-09-07T08:48:43.000Z</time>
        <extensions>
          <ns3:TrackPointExtension>
            <ns3:hr>152</ns3:hr>
            <ns3:cad>81</ns3:cad>
          </ns3:TrackPointExtension>
        </extensions>
      </trkpt>
      <trkpt lat="52.2630017437040805816650390625" lon="1.6187532059848308563232421875">
        <ele>-162.399993896484375</ele>
        <time>2025-09-07T08:48:44.000Z</time>
        <extensions>
          <ns3:TrackPointExtension>
            <ns3:hr>151</ns3:hr>
            <ns3:cad>81</ns3:cad>
          </ns3:TrackPointExtension>
        </extensions>
      </trkpt>
      <trkpt lat="52.26308933459222316741943359375" lon="1.61863393150269985198974609375">
        <ele>-161.8000030517578125</ele>
        <time>2025-09-07T08:48:51.000Z</time>
        <extensions>
          <ns3:TrackPointExtension>
            <ns3:hr>151</ns3:hr>
            <ns3:cad>80</ns3:cad>
          </ns3:TrackPointExtension>
        </extensions>
      </trkpt>
      <trkpt lat="52.26311833597719669342041015625" lon="1.6186103783547878265380859375">
        <ele>-161</ele>
        <time>2025-09-07T08:48:53.000Z</time>
        <extensions>
          <ns3:TrackPointExtension>
            <ns3:hr>150</ns3:hr>
            <ns3:cad>81</ns3:cad>
          </ns3:TrackPointExtension>
        </extensions>
      </trkpt>
      <trkpt lat="52.26313560269773006439208984375" lon="1.61859051324427127838134765625">
        <ele>-159.8000030517578125</ele>
        <time>2025-09-07T08:48:54.000Z</time>
        <extensions>
          <ns3:TrackPointExtension>
            <ns3:hr>150</ns3:hr>
            <ns3:cad>81</ns3:cad>
          </ns3:TrackPointExtension>
        </extensions>
      </trkpt>
      <trkpt lat="52.26316695101559162139892578125" lon="1.6185629367828369140625">
        <ele>-158.399993896484375</ele>
        <time>2025-09-07T08:48:56.000Z</time>
        <extensions>
          <ns3:TrackPointExtension>
            <ns3:hr>152</ns3:hr>
            <ns3:cad>81</ns3:cad>
          </ns3:TrackPointExtension>
        </extensions>
      </trkpt>
      <trkpt lat="52.2632143087685108184814453125" lon="1.6185463406145572662353515625">
        <ele>-157.399993896484375</ele>
        <time>2025-09-07T08:48:59.000Z</time>
        <extensions>
          <ns3:TrackPointExtension>
            <ns3:hr>151</ns3:hr>
            <ns3:cad>0</ns3:cad>
          </ns3:TrackPointExtension>
        </extensions>
      </trkpt>
      <trkpt lat="52.26323501206934452056884765625" lon="1.6185084544122219085693359375">
        <ele>-158.600006103515625</ele>
        <time>2025-09-07T08:49:05.000Z</time>
        <extensions>
          <ns3:TrackPointExtension>
            <ns3:hr>149</ns3:hr>
            <ns3:cad>0</ns3:cad>
          </ns3:TrackPointExtension>
        </extensions>
      </trkpt>
      <trkpt lat="52.26323895156383514404296875" lon="1.61850283853709697723388671875">
        <ele>-160</ele>
        <time>2025-09-07T08:49:06.000Z</time>
        <extensions>
          <ns3:TrackPointExtension>
            <ns3:hr>149</ns3:hr>
            <ns3:cad>0</ns3:cad>
          </ns3:TrackPointExtension>
        </extensions>
      </trkpt>
      <trkpt lat="52.263243980705738067626953125" lon="1.61849043332040309906005859375">
        <ele>-161</ele>
        <time>2025-09-07T08:49:08.000Z</time>
        <extensions>
          <ns3:TrackPointExtension>
            <ns3:hr>150</ns3:hr>
            <ns3:cad>0</ns3:cad>
          </ns3:TrackPointExtension>
        </extensions>
      </trkpt>
      <trkpt lat="52.2632448188960552215576171875" lon="1.618494875729084014892578125">
        <ele>-162.8000030517578125</ele>
        <time>2025-09-07T08:49:10.000Z</time>
        <extensions>
          <ns3:TrackPointExtension>
            <ns3:hr>150</ns3:hr>
            <ns3:cad>0</ns3:cad>
          </ns3:TrackPointExtension>
        </extensions>
      </trkpt>
      <trkpt lat="52.2632394544780254364013671875" lon="1.61848372779786586761474609375">
        <ele>-164</ele>
        <time>2025-09-07T08:49:13.000Z</time>
        <extensions>
          <ns3:TrackPointExtension>
            <ns3:hr>150</ns3:hr>
            <ns3:cad>0</ns3:cad>
          </ns3:TrackPointExtension>
        </extensions>
      </trkpt>
      <trkpt lat="52.2632334195077419281005859375" lon="1.61847651936113834381103515625">
        <ele>-165</ele>
        <time>2025-09-07T08:49:16.000Z</time>
        <extensions>
          <ns3:TrackPointExtension>
            <ns3:hr>149</ns3:hr>
            <ns3:cad>0</ns3:cad>
          </ns3:TrackPointExtension>
        </extensions>
      </trkpt>
      <trkpt lat="52.2632451541721820831298828125" lon="1.6184543073177337646484375">
        <ele>-166</ele>
        <time>2025-09-07T08:49:22.000Z</time>
        <extensions>
          <ns3:TrackPointExtension>
            <ns3:hr>147</ns3:hr>
            <ns3:cad>0</ns3:cad>
          </ns3:TrackPointExtension>
        </extensions>
      </trkpt>
      <trkpt lat="52.26325060240924358367919921875" lon="1.61844835616648197174072265625">
        <ele>-165.8000030517578125</ele>
        <time>2025-09-07T08:49:25.000Z</time>
        <extensions>
          <ns3:TrackPointExtension>
            <ns3:hr>146</ns3:hr>
            <ns3:cad>0</ns3:cad>
          </ns3:TrackPointExtension>
        </extensions>
      </trkpt>
      <trkpt lat="52.263251356780529022216796875" lon="1.61845036782324314117431640625">
        <ele>-165</ele>
        <time>2025-09-07T08:49:26.000Z</time>
        <extensions>
          <ns3:TrackPointExtension>
            <ns3:hr>147</ns3:hr>
            <ns3:cad>0</ns3:cad>
          </ns3:TrackPointExtension>
        </extensions>
      </trkpt>
      <trkpt lat="52.263252697885036468505859375" lon="1.6184516251087188720703125">
        <ele>-162.600006103515625</ele>
        <time>2025-09-07T08:49:27.000Z</time>
        <extensions>
          <ns3:TrackPointExtension>
            <ns3:hr>146</ns3:hr>
            <ns3:cad>0</ns3:cad>
          </ns3:TrackPointExtension>
        </extensions>
      </trkpt>
      <trkpt lat="52.26325211115181446075439453125" lon="1.6184517927467823028564453125">
        <ele>-161.399993896484375</ele>
        <time>2025-09-07T08:49:28.000Z</time>
        <extensions>
          <ns3:TrackPointExtension>
            <ns3:hr>147</ns3:hr>
            <ns3:cad>0</ns3:cad>
          </ns3:TrackPointExtension>
        </extensions>
      </trkpt>
      <trkpt lat="52.2632585652172565460205078125" lon="1.6184692271053791046142578125">
        <ele>-160.1999969482421875</ele>
        <time>2025-09-07T08:49:30.000Z</time>
        <extensions>
          <ns3:TrackPointExtension>
            <ns3:hr>147</ns3:hr>
            <ns3:cad>19</ns3:cad>
          </ns3:TrackPointExtension>
        </extensions>
      </trkpt>
      <trkpt lat="52.2633145563304424285888671875" lon="1.61844701506197452545166015625">
        <ele>-159.600006103515625</ele>
        <time>2025-09-07T08:49:37.000Z</time>
        <extensions>
          <ns3:TrackPointExtension>
            <ns3:hr>145</ns3:hr>
            <ns3:cad>56</ns3:cad>
          </ns3:TrackPointExtension>
        </extensions>
      </trkpt>
      <trkpt lat="52.26336291991174221038818359375" lon="1.618350036442279815673828125">
        <ele>-161.8000030517578125</ele>
        <time>2025-09-07T08:49:43.000Z</time>
        <extensions>
          <ns3:TrackPointExtension>
            <ns3:hr>144</ns3:hr>
            <ns3:cad>61</ns3:cad>
          </ns3:TrackPointExtension>
        </extensions>
      </trkpt>
      <trkpt lat="52.26336828432977199554443359375" lon="1.61832933314144611358642578125">
        <ele>-163.1999969482421875</ele>
        <time>2025-09-07T08:49:44.000Z</time>
        <extensions>
          <ns3:TrackPointExtension>
            <ns3:hr>145</ns3:hr>
            <ns3:cad>61</ns3:cad>
          </ns3:TrackPointExtension>
        </extensions>
      </trkpt>
      <trkpt lat="52.26337599568068981170654296875" lon="1.61831340752542018890380859375">
        <ele>-165.1999969482421875</ele>
        <time>2025-09-07T08:49:45.000Z</time>
        <extensions>
          <ns3:TrackPointExtension>
            <ns3:hr>146</ns3:hr>
            <ns3:cad>61</ns3:cad>
          </ns3:TrackPointExtension>
        </extensions>
      </trkpt>
      <trkpt lat="52.26338337175548076629638671875" lon="1.61829999648034572601318359375">
        <ele>-166.399993896484375</ele>
        <time>2025-09-07T08:49:46.000Z</time>
        <extensions>
          <ns3:TrackPointExtension>
            <ns3:hr>144</ns3:hr>
            <ns3:cad>60</ns3:cad>
          </ns3:TrackPointExtension>
        </extensions>
      </trkpt>
      <trkpt lat="52.2633936814963817596435546875" lon="1.61829111166298389434814453125">
        <ele>-168.1999969482421875</ele>
        <time>2025-09-07T08:49:47.000Z</time>
        <extensions>
          <ns3:TrackPointExtension>
            <ns3:hr>144</ns3:hr>
            <ns3:cad>60</ns3:cad>
          </ns3:TrackPointExtension>
        </extensions>
      </trkpt>
      <trkpt lat="52.2634044103324413299560546875" lon="1.61827971227467060089111328125">
        <ele>-169.399993896484375</ele>
        <time>2025-09-07T08:49:48.000Z</time>
        <extensions>
          <ns3:TrackPointExtension>
            <ns3:hr>144</ns3:hr>
            <ns3:cad>64</ns3:cad>
          </ns3:TrackPointExtension>
        </extensions>
      </trkpt>
      <trkpt lat="52.2634396143257617950439453125" lon="1.618266887962818145751953125">
        <ele>-170.600006103515625</ele>
        <time>2025-09-07T08:49:50.000Z</time>
        <extensions>
          <ns3:TrackPointExtension>
            <ns3:hr>145</ns3:hr>
            <ns3:cad>64</ns3:cad>
          </ns3:TrackPointExtension>
        </extensions>
      </trkpt>
      <trkpt lat="52.2635063342750072479248046875" lon="1.61834006197750568389892578125">
        <ele>-170.8000030517578125</ele>
        <time>2025-09-07T08:49:55.000Z</time>
        <extensions>
          <ns3:TrackPointExtension>
            <ns3:hr>145</ns3:hr>
            <ns3:cad>78</ns3:cad>
          </ns3:TrackPointExtension>
        </extensions>
      </trkpt>
      <trkpt lat="52.263551764190196990966796875" lon="1.6184087097644805908203125">
        <ele>-171.399993896484375</ele>
        <time>2025-09-07T08:49:59.000Z</time>
        <extensions>
          <ns3:TrackPointExtension>
            <ns3:hr>142</ns3:hr>
            <ns3:cad>80</ns3:cad>
          </ns3:TrackPointExtension>
        </extensions>
      </trkpt>
      <trkpt lat="52.263581268489360809326171875" lon="1.6184730827808380126953125">
        <ele>-170.8000030517578125</ele>
        <time>2025-09-07T08:50:02.000Z</time>
        <extensions>
          <ns3:TrackPointExtension>
            <ns3:hr>142</ns3:hr>
            <ns3:cad>81</ns3:cad>
          </ns3:TrackPointExtension>
        </extensions>
      </trkpt>
      <trkpt lat="52.2636404447257518768310546875" lon="1.6185791976749897003173828125">
        <ele>-169.8000030517578125</ele>
        <time>2025-09-07T08:50:06.000Z</time>
        <extensions>
          <ns3:TrackPointExtension>
            <ns3:hr>145</ns3:hr>
            <ns3:cad>81</ns3:cad>
          </ns3:TrackPointExtension>
        </extensions>
      </trkpt>
      <trkpt lat="52.26365335285663604736328125" lon="1.618602164089679718017578125">
        <ele>-169.600006103515625</ele>
        <time>2025-09-07T08:50:07.000Z</time>
        <extensions>
          <ns3:TrackPointExtension>
            <ns3:hr>146</ns3:hr>
            <ns3:cad>81</ns3:cad>
          </ns3:TrackPointExtension>
        </extensions>
      </trkpt>
      <trkpt lat="52.26369786076247692108154296875" lon="1.6186715662479400634765625">
        <ele>-169.399993896484375</ele>
        <time>2025-09-07T08:50:10.000Z</time>
        <extensions>
          <ns3:TrackPointExtension>
            <ns3:hr>149</ns3:hr>
            <ns3:cad>80</ns3:cad>
          </ns3:TrackPointExtension>
        </extensions>
      </trkpt>
      <trkpt lat="52.26371412165462970733642578125" lon="1.61870014853775501251220703125">
        <ele>-168.8000030517578125</ele>
        <time>2025-09-07T08:50:11.000Z</time>
        <extensions>
          <ns3:TrackPointExtension>
            <ns3:hr>147</ns3:hr>
            <ns3:cad>80</ns3:cad>
          </ns3:TrackPointExtension>
        </extensions>
      </trkpt>
      <trkpt lat="52.26375619880855083465576171875" lon="1.6187622584402561187744140625">
        <ele>-168.1999969482421875</ele>
        <time>2025-09-07T08:50:14.000Z</time>
        <extensions>
          <ns3:TrackPointExtension>
            <ns3:hr>146</ns3:hr>
            <ns3:cad>80</ns3:cad>
          </ns3:TrackPointExtension>
        </extensions>
      </trkpt>
      <trkpt lat="52.26379408501088619232177734375" lon="1.61881950683891773223876953125">
        <ele>-167</ele>
        <time>2025-09-07T08:50:17.000Z</time>
        <extensions>
          <ns3:TrackPointExtension>
            <ns3:hr>148</ns3:hr>
            <ns3:cad>80</ns3:cad>
          </ns3:TrackPointExtension>
        </extensions>
      </trkpt>
      <trkpt lat="52.26380816660821437835693359375" lon="1.61883987486362457275390625">
        <ele>-166.600006103515625</ele>
        <time>2025-09-07T08:50:18.000Z</time>
        <extensions>
          <ns3:TrackPointExtension>
            <ns3:hr>146</ns3:hr>
            <ns3:cad>80</ns3:cad>
          </ns3:TrackPointExtension>
        </extensions>
      </trkpt>
      <trkpt lat="52.26383440196514129638671875" lon="1.618887484073638916015625">
        <ele>-165</ele>
        <time>2025-09-07T08:50:20.000Z</time>
        <extensions>
          <ns3:TrackPointExtension>
            <ns3:hr>148</ns3:hr>
            <ns3:cad>80</ns3:cad>
          </ns3:TrackPointExtension>
        </extensions>
      </trkpt>
      <trkpt lat="52.26386650465428829193115234375" lon="1.61894137971103191375732421875">
        <ele>-163.8000030517578125</ele>
        <time>2025-09-07T08:50:22.000Z</time>
        <extensions>
          <ns3:TrackPointExtension>
            <ns3:hr>147</ns3:hr>
            <ns3:cad>80</ns3:cad>
          </ns3:TrackPointExtension>
        </extensions>
      </trkpt>
      <trkpt lat="52.26392065174877643585205078125" lon="1.619036011397838592529296875">
        <ele>-163.1999969482421875</ele>
        <time>2025-09-07T08:50:26.000Z</time>
        <extensions>
          <ns3:TrackPointExtension>
            <ns3:hr>149</ns3:hr>
            <ns3:cad>81</ns3:cad>
          </ns3:TrackPointExtension>
        </extensions>
      </trkpt>
      <trkpt lat="52.26394227705895900726318359375" lon="1.61908135749399662017822265625">
        <ele>-162.600006103515625</ele>
        <time>2025-09-07T08:50:28.000Z</time>
        <extensions>
          <ns3:TrackPointExtension>
            <ns3:hr>149</ns3:hr>
            <ns3:cad>81</ns3:cad>
          </ns3:TrackPointExtension>
        </extensions>
      </trkpt>
      <trkpt lat="52.26396323181688785552978515625" lon="1.619132570922374725341796875">
        <ele>-161.399993896484375</ele>
        <time>2025-09-07T08:50:30.000Z</time>
        <extensions>
          <ns3:TrackPointExtension>
            <ns3:hr>149</ns3:hr>
            <ns3:cad>79</ns3:cad>
          </ns3:TrackPointExtension>
        </extensions>
      </trkpt>
      <trkpt lat="52.2640089131891727447509765625" lon="1.619237847626209259033203125">
        <ele>-159.600006103515625</ele>
        <time>2025-09-07T08:50:34.000Z</time>
        <extensions>
          <ns3:TrackPointExtension>
            <ns3:hr>149</ns3:hr>
            <ns3:cad>80</ns3:cad>
          </ns3:TrackPointExtension>
        </extensions>
      </trkpt>
      <trkpt lat="52.26404118351638317108154296875" lon="1.61928000859916210174560546875">
        <ele>-158.600006103515625</ele>
        <time>2025-09-07T08:50:36.000Z</time>
        <extensions>
          <ns3:TrackPointExtension>
            <ns3:hr>147</ns3:hr>
            <ns3:cad>80</ns3:cad>
          </ns3:TrackPointExtension>
        </extensions>
      </trkpt>
      <trkpt lat="52.26407286711037158966064453125" lon="1.6193305514752864837646484375">
        <ele>-157.399993896484375</ele>
        <time>2025-09-07T08:50:38.000Z</time>
        <extensions>
          <ns3:TrackPointExtension>
            <ns3:hr>147</ns3:hr>
            <ns3:cad>80</ns3:cad>
          </ns3:TrackPointExtension>
        </extensions>
      </trkpt>
      <trkpt lat="52.2641175426542758941650390625" lon="1.619402468204498291015625">
        <ele>-156.600006103515625</ele>
        <time>2025-09-07T08:50:41.000Z</time>
        <extensions>
          <ns3:TrackPointExtension>
            <ns3:hr>147</ns3:hr>
            <ns3:cad>80</ns3:cad>
          </ns3:TrackPointExtension>
        </extensions>
      </trkpt>
      <trkpt lat="52.26414528675377368927001953125" lon="1.61945669911801815032958984375">
        <ele>-155.8000030517578125</ele>
        <time>2025-09-07T08:50:43.000Z</time>
        <extensions>
          <ns3:TrackPointExtension>
            <ns3:hr>147</ns3:hr>
            <ns3:cad>80</ns3:cad>
          </ns3:TrackPointExtension>
        </extensions>
      </trkpt>
      <trkpt lat="52.2641933150589466094970703125" lon="1.619561724364757537841796875">
        <ele>-154.399993896484375</ele>
        <time>2025-09-07T08:50:47.000Z</time>
        <extensions>
          <ns3:TrackPointExtension>
            <ns3:hr>146</ns3:hr>
            <ns3:cad>81</ns3:cad>
          </ns3:TrackPointExtension>
        </extensions>
      </trkpt>
      <trkpt lat="52.26422541774809360504150390625" lon="1.6196152009069919586181640625">
        <ele>-153.600006103515625</ele>
        <time>2025-09-07T08:50:49.000Z</time>
        <extensions>
          <ns3:TrackPointExtension>
            <ns3:hr>147</ns3:hr>
            <ns3:cad>81</ns3:cad>
          </ns3:TrackPointExtension>
        </extensions>
      </trkpt>
      <trkpt lat="52.26424343883991241455078125" lon="1.619642190635204315185546875">
        <ele>-153</ele>
        <time>2025-09-07T08:50:50.000Z</time>
        <extensions>
          <ns3:TrackPointExtension>
            <ns3:hr>147</ns3:hr>
            <ns3:cad>80</ns3:cad>
          </ns3:TrackPointExtension>
        </extensions>
      </trkpt>
      <trkpt lat="52.26429381407797336578369140625" lon="1.619717963039875030517578125">
        <ele>-152.1999969482421875</ele>
        <time>2025-09-07T08:50:53.000Z</time>
        <extensions>
          <ns3:TrackPointExtension>
            <ns3:hr>150</ns3:hr>
            <ns3:cad>81</ns3:cad>
          </ns3:TrackPointExtension>
        </extensions>
      </trkpt>
      <trkpt lat="52.264320552349090576171875" lon="1.6197556816041469573974609375">
        <ele>-152</ele>
        <time>2025-09-07T08:50:55.000Z</time>
        <extensions>
          <ns3:TrackPointExtension>
            <ns3:hr>152</ns3:hr>
            <ns3:cad>80</ns3:cad>
          </ns3:TrackPointExtension>
        </extensions>
      </trkpt>
      <trkpt lat="52.26435072720050811767578125" lon="1.61979096941649913787841796875">
        <ele>-152</ele>
        <time>2025-09-07T08:50:57.000Z</time>
        <extensions>
          <ns3:TrackPointExtension>
            <ns3:hr>152</ns3:hr>
            <ns3:cad>80</ns3:cad>
          </ns3:TrackPointExtension>
        </extensions>
      </trkpt>
      <trkpt lat="52.264379896223545074462890625" lon="1.61982919089496135711669921875">
        <ele>-150.8000030517578125</ele>
        <time>2025-09-07T08:50:59.000Z</time>
        <extensions>
          <ns3:TrackPointExtension>
            <ns3:hr>152</ns3:hr>
            <ns3:cad>80</ns3:cad>
          </ns3:TrackPointExtension>
        </extensions>
      </trkpt>
      <trkpt lat="52.2644333727657794952392578125" lon="1.6198911331593990325927734375">
        <ele>-149.8000030517578125</ele>
        <time>2025-09-07T08:51:02.000Z</time>
        <extensions>
          <ns3:TrackPointExtension>
            <ns3:hr>153</ns3:hr>
            <ns3:cad>81</ns3:cad>
          </ns3:TrackPointExtension>
        </extensions>
      </trkpt>
      <trkpt lat="52.26448324508965015411376953125" lon="1.61995894275605678558349609375">
        <ele>-148.600006103515625</ele>
        <time>2025-09-07T08:51:05.000Z</time>
        <extensions>
          <ns3:TrackPointExtension>
            <ns3:hr>152</ns3:hr>
            <ns3:cad>80</ns3:cad>
          </ns3:TrackPointExtension>
        </extensions>
      </trkpt>
      <trkpt lat="52.26449824869632720947265625" lon="1.619978137314319610595703125">
        <ele>-148</ele>
        <time>2025-09-07T08:51:06.000Z</time>
        <extensions>
          <ns3:TrackPointExtension>
            <ns3:hr>152</ns3:hr>
            <ns3:cad>80</ns3:cad>
          </ns3:TrackPointExtension>
        </extensions>
      </trkpt>
      <trkpt lat="52.2645272500813007354736328125" lon="1.62002314813435077667236328125">
        <ele>-147.399993896484375</ele>
        <time>2025-09-07T08:51:08.000Z</time>
        <extensions>
          <ns3:TrackPointExtension>
            <ns3:hr>153</ns3:hr>
            <ns3:cad>78</ns3:cad>
          </ns3:TrackPointExtension>
        </extensions>
      </trkpt>
      <trkpt lat="52.264552228152751922607421875" lon="1.6200617887079715728759765625">
        <ele>-146.1999969482421875</ele>
        <time>2025-09-07T08:51:10.000Z</time>
        <extensions>
          <ns3:TrackPointExtension>
            <ns3:hr>154</ns3:hr>
            <ns3:cad>78</ns3:cad>
          </ns3:TrackPointExtension>
        </extensions>
      </trkpt>
      <trkpt lat="52.26457293145358562469482421875" lon="1.6200966574251651763916015625">
        <ele>-145.8000030517578125</ele>
        <time>2025-09-07T08:51:12.000Z</time>
        <extensions>
          <ns3:TrackPointExtension>
            <ns3:hr>154</ns3:hr>
            <ns3:cad>79</ns3:cad>
          </ns3:TrackPointExtension>
        </extensions>
      </trkpt>
      <trkpt lat="52.26466312073171138763427734375" lon="1.6202406585216522216796875">
        <ele>-145.1999969482421875</ele>
        <time>2025-09-07T08:51:19.000Z</time>
        <extensions>
          <ns3:TrackPointExtension>
            <ns3:hr>153</ns3:hr>
            <ns3:cad>80</ns3:cad>
          </ns3:TrackPointExtension>
        </extensions>
      </trkpt>
      <trkpt lat="52.26475113071501255035400390625" lon="1.620402596890926361083984375">
        <ele>-144.399993896484375</ele>
        <time>2025-09-07T08:51:26.000Z</time>
        <extensions>
          <ns3:TrackPointExtension>
            <ns3:hr>151</ns3:hr>
            <ns3:cad>80</ns3:cad>
          </ns3:TrackPointExtension>
        </extensions>
      </trkpt>
      <trkpt lat="52.2647671401500701904296875" lon="1.6204245574772357940673828125">
        <ele>-143.600006103515625</ele>
        <time>2025-09-07T08:51:27.000Z</time>
        <extensions>
          <ns3:TrackPointExtension>
            <ns3:hr>151</ns3:hr>
            <ns3:cad>80</ns3:cad>
          </ns3:TrackPointExtension>
        </extensions>
      </trkpt>
      <trkpt lat="52.264835201203823089599609375" lon="1.620507873594760894775390625">
        <ele>-142.399993896484375</ele>
        <time>2025-09-07T08:51:31.000Z</time>
        <extensions>
          <ns3:TrackPointExtension>
            <ns3:hr>151</ns3:hr>
            <ns3:cad>80</ns3:cad>
          </ns3:TrackPointExtension>
        </extensions>
      </trkpt>
      <trkpt lat="52.26488591171801090240478515625" lon="1.62058574147522449493408203125">
        <ele>-142.399993896484375</ele>
        <time>2025-09-07T08:51:35.000Z</time>
        <extensions>
          <ns3:TrackPointExtension>
            <ns3:hr>151</ns3:hr>
            <ns3:cad>79</ns3:cad>
          </ns3:TrackPointExtension>
        </extensions>
      </trkpt>
      <trkpt lat="52.26498113013803958892822265625" lon="1.62073745392262935638427734375">
        <ele>-141.600006103515625</ele>
        <time>2025-09-07T08:51:42.000Z</time>
        <extensions>
          <ns3:TrackPointExtension>
            <ns3:hr>152</ns3:hr>
            <ns3:cad>80</ns3:cad>
          </ns3:TrackPointExtension>
        </extensions>
      </trkpt>
      <trkpt lat="52.2650192677974700927734375" lon="1.620819680392742156982421875">
        <ele>-141.399993896484375</ele>
        <time>2025-09-07T08:51:45.000Z</time>
        <extensions>
          <ns3:TrackPointExtension>
            <ns3:hr>154</ns3:hr>
            <ns3:cad>80</ns3:cad>
          </ns3:TrackPointExtension>
        </extensions>
      </trkpt>
      <trkpt lat="52.265077941119670867919921875" lon="1.62091615609824657440185546875">
        <ele>-141.1999969482421875</ele>
        <time>2025-09-07T08:51:49.000Z</time>
        <extensions>
          <ns3:TrackPointExtension>
            <ns3:hr>157</ns3:hr>
            <ns3:cad>80</ns3:cad>
          </ns3:TrackPointExtension>
        </extensions>
      </trkpt>
      <trkpt lat="52.2651086188852787017822265625" lon="1.620974577963352203369140625">
        <ele>-140.600006103515625</ele>
        <time>2025-09-07T08:51:51.000Z</time>
        <extensions>
          <ns3:TrackPointExtension>
            <ns3:hr>155</ns3:hr>
            <ns3:cad>80</ns3:cad>
          </ns3:TrackPointExtension>
        </extensions>
      </trkpt>
      <trkpt lat="52.26512379013001918792724609375" lon="1.620998047292232513427734375">
        <ele>-140</ele>
        <time>2025-09-07T08:51:52.000Z</time>
        <extensions>
          <ns3:TrackPointExtension>
            <ns3:hr>155</ns3:hr>
            <ns3:cad>80</ns3:cad>
          </ns3:TrackPointExtension>
        </extensions>
      </trkpt>
      <trkpt lat="52.26518665440380573272705078125" lon="1.621074490249156951904296875">
        <ele>-138.600006103515625</ele>
        <time>2025-09-07T08:51:56.000Z</time>
        <extensions>
          <ns3:TrackPointExtension>
            <ns3:hr>156</ns3:hr>
            <ns3:cad>80</ns3:cad>
          </ns3:TrackPointExtension>
        </extensions>
      </trkpt>
      <trkpt lat="52.2652018256485462188720703125" lon="1.62110424600541591644287109375">
        <ele>-137.8000030517578125</ele>
        <time>2025-09-07T08:51:58.000Z</time>
        <extensions>
          <ns3:TrackPointExtension>
            <ns3:hr>155</ns3:hr>
            <ns3:cad>80</ns3:cad>
          </ns3:TrackPointExtension>
        </extensions>
      </trkpt>
      <trkpt lat="52.26520945318043231964111328125" lon="1.6211204230785369873046875">
        <ele>-137.399993896484375</ele>
        <time>2025-09-07T08:51:59.000Z</time>
        <extensions>
          <ns3:TrackPointExtension>
            <ns3:hr>152</ns3:hr>
            <ns3:cad>80</ns3:cad>
          </ns3:TrackPointExtension>
        </extensions>
      </trkpt>
      <trkpt lat="52.2652913443744182586669921875" lon="1.62124405615031719207763671875">
        <ele>-137.600006103515625</ele>
        <time>2025-09-07T08:52:05.000Z</time>
        <extensions>
          <ns3:TrackPointExtension>
            <ns3:hr>151</ns3:hr>
            <ns3:cad>79</ns3:cad>
          </ns3:TrackPointExtension>
        </extensions>
      </trkpt>
      <trkpt lat="52.26535948924720287322998046875" lon="1.62137062288820743560791015625">
        <ele>-137.8000030517578125</ele>
        <time>2025-09-07T08:52:11.000Z</time>
        <extensions>
          <ns3:TrackPointExtension>
            <ns3:hr>148</ns3:hr>
            <ns3:cad>79</ns3:cad>
          </ns3:TrackPointExtension>
        </extensions>
      </trkpt>
      <trkpt lat="52.26537876762449741363525390625" lon="1.6214196570217609405517578125">
        <ele>-138.600006103515625</ele>
        <time>2025-09-07T08:52:13.000Z</time>
        <extensions>
          <ns3:TrackPointExtension>
            <ns3:hr>148</ns3:hr>
            <ns3:cad>79</ns3:cad>
          </ns3:TrackPointExtension>
        </extensions>
      </trkpt>
      <trkpt lat="52.26541019976139068603515625" lon="1.621477492153644561767578125">
        <ele>-139</ele>
        <time>2025-09-07T08:52:16.000Z</time>
        <extensions>
          <ns3:TrackPointExtension>
            <ns3:hr>146</ns3:hr>
            <ns3:cad>79</ns3:cad>
          </ns3:TrackPointExtension>
        </extensions>
      </trkpt>
      <trkpt lat="52.26551187224686145782470703125" lon="1.6216375865042209625244140625">
        <ele>-139.600006103515625</ele>
        <time>2025-09-07T08:52:25.000Z</time>
        <extensions>
          <ns3:TrackPointExtension>
            <ns3:hr>145</ns3:hr>
            <ns3:cad>79</ns3:cad>
          </ns3:TrackPointExtension>
        </extensions>
      </trkpt>
      <trkpt lat="52.2655961103737354278564453125" lon="1.62179566919803619384765625">
        <ele>-139.600006103515625</ele>
        <time>2025-09-07T08:52:32.000Z</time>
        <extensions>
          <ns3:TrackPointExtension>
            <ns3:hr>142</ns3:hr>
            <ns3:cad>78</ns3:cad>
          </ns3:TrackPointExtension>
        </extensions>
      </trkpt>
      <trkpt lat="52.26563340984284877777099609375" lon="1.62183816544711589813232421875">
        <ele>-139.600006103515625</ele>
        <time>2025-09-07T08:52:34.000Z</time>
        <extensions>
          <ns3:TrackPointExtension>
            <ns3:hr>142</ns3:hr>
            <ns3:cad>79</ns3:cad>
          </ns3:TrackPointExtension>
        </extensions>
      </trkpt>
      <trkpt lat="52.26574254222214221954345703125" lon="1.622008569538593292236328125">
        <ele>-137.600006103515625</ele>
        <time>2025-09-07T08:52:41.000Z</time>
        <extensions>
          <ns3:TrackPointExtension>
            <ns3:hr>144</ns3:hr>
            <ns3:cad>79</ns3:cad>
          </ns3:TrackPointExtension>
        </extensions>
      </trkpt>
      <trkpt lat="52.26583139039576053619384765625" lon="1.62215776741504669189453125">
        <ele>-136.399993896484375</ele>
        <time>2025-09-07T08:52:47.000Z</time>
        <extensions>
          <ns3:TrackPointExtension>
            <ns3:hr>144</ns3:hr>
            <ns3:cad>80</ns3:cad>
          </ns3:TrackPointExtension>
        </extensions>
      </trkpt>
      <trkpt lat="52.265863828361034393310546875" lon="1.62222071550786495208740234375">
        <ele>-136.1999969482421875</ele>
        <time>2025-09-07T08:52:50.000Z</time>
        <extensions>
          <ns3:TrackPointExtension>
            <ns3:hr>144</ns3:hr>
            <ns3:cad>79</ns3:cad>
          </ns3:TrackPointExtension>
        </extensions>
      </trkpt>
      <trkpt lat="52.26593163795769214630126953125" lon="1.62228726781904697418212890625">
        <ele>-135.399993896484375</ele>
        <time>2025-09-07T08:52:54.000Z</time>
        <extensions>
          <ns3:TrackPointExtension>
            <ns3:hr>144</ns3:hr>
            <ns3:cad>79</ns3:cad>
          </ns3:TrackPointExtension>
        </extensions>
      </trkpt>
      <trkpt lat="52.2660007886588573455810546875" lon="1.6223852522671222686767578125">
        <ele>-134.399993896484375</ele>
        <time>2025-09-07T08:52:58.000Z</time>
        <extensions>
          <ns3:TrackPointExtension>
            <ns3:hr>143</ns3:hr>
            <ns3:cad>79</ns3:cad>
          </ns3:TrackPointExtension>
        </extensions>
      </trkpt>
      <trkpt lat="52.26601562462747097015380859375" lon="1.62240997888147830963134765625">
        <ele>-134.399993896484375</ele>
        <time>2025-09-07T08:52:59.000Z</time>
        <extensions>
          <ns3:TrackPointExtension>
            <ns3:hr>143</ns3:hr>
            <ns3:cad>80</ns3:cad>
          </ns3:TrackPointExtension>
        </extensions>
      </trkpt>
      <trkpt lat="52.26606323383748531341552734375" lon="1.62247116677463054656982421875">
        <ele>-132.8000030517578125</ele>
        <time>2025-09-07T08:53:02.000Z</time>
        <extensions>
          <ns3:TrackPointExtension>
            <ns3:hr>145</ns3:hr>
            <ns3:cad>81</ns3:cad>
          </ns3:TrackPointExtension>
        </extensions>
      </trkpt>
      <trkpt lat="52.266081757843494415283203125" lon="1.62251718342304229736328125">
        <ele>-131.8000030517578125</ele>
        <time>2025-09-07T08:53:04.000Z</time>
        <extensions>
          <ns3:TrackPointExtension>
            <ns3:hr>145</ns3:hr>
            <ns3:cad>80</ns3:cad>
          </ns3:TrackPointExtension>
        </extensions>
      </trkpt>
      <trkpt lat="52.26609441451728343963623046875" lon="1.6225458495318889617919921875">
        <ele>-130.399993896484375</ele>
        <time>2025-09-07T08:53:05.000Z</time>
        <extensions>
          <ns3:TrackPointExtension>
            <ns3:hr>145</ns3:hr>
            <ns3:cad>79</ns3:cad>
          </ns3:TrackPointExtension>
        </extensions>
      </trkpt>
      <trkpt lat="52.26610757410526275634765625" lon="1.62257309071719646453857421875">
        <ele>-129.600006103515625</ele>
        <time>2025-09-07T08:53:06.000Z</time>
        <extensions>
          <ns3:TrackPointExtension>
            <ns3:hr>145</ns3:hr>
            <ns3:cad>79</ns3:cad>
          </ns3:TrackPointExtension>
        </extensions>
      </trkpt>
      <trkpt lat="52.26612375117838382720947265625" lon="1.62259790115058422088623046875">
        <ele>-129.1999969482421875</ele>
        <time>2025-09-07T08:53:07.000Z</time>
        <extensions>
          <ns3:TrackPointExtension>
            <ns3:hr>145</ns3:hr>
            <ns3:cad>80</ns3:cad>
          </ns3:TrackPointExtension>
        </extensions>
      </trkpt>
      <trkpt lat="52.26622165180742740631103515625" lon="1.6227657906711101531982421875">
        <ele>-128.600006103515625</ele>
        <time>2025-09-07T08:53:14.000Z</time>
        <extensions>
          <ns3:TrackPointExtension>
            <ns3:hr>145</ns3:hr>
            <ns3:cad>79</ns3:cad>
          </ns3:TrackPointExtension>
        </extensions>
      </trkpt>
      <trkpt lat="52.26625869981944561004638671875" lon="1.622840724885463714599609375">
        <ele>-128</ele>
        <time>2025-09-07T08:53:17.000Z</time>
        <extensions>
          <ns3:TrackPointExtension>
            <ns3:hr>146</ns3:hr>
            <ns3:cad>79</ns3:cad>
          </ns3:TrackPointExtension>
        </extensions>
      </trkpt>
      <trkpt lat="52.2663172893226146697998046875" lon="1.62294122390449047088623046875">
        <ele>-129</ele>
        <time>2025-09-07T08:53:22.000Z</time>
        <extensions>
          <ns3:TrackPointExtension>
            <ns3:hr>147</ns3:hr>
            <ns3:cad>80</ns3:cad>
          </ns3:TrackPointExtension>
        </extensions>
      </trkpt>
      <trkpt lat="52.266344614326953887939453125" lon="1.62296771071851253509521484375">
        <ele>-131</ele>
        <time>2025-09-07T08:53:27.000Z</time>
        <extensions>
          <ns3:TrackPointExtension>
            <ns3:hr>145</ns3:hr>
            <ns3:cad>0</ns3:cad>
          </ns3:TrackPointExtension>
        </extensions>
      </trkpt>
      <trkpt lat="52.2663424350321292877197265625" lon="1.62297307513654232025146484375">
        <ele>-132.1999969482421875</ele>
        <time>2025-09-07T08:53:28.000Z</time>
        <extensions>
          <ns3:TrackPointExtension>
            <ns3:hr>145</ns3:hr>
            <ns3:cad>0</ns3:cad>
          </ns3:TrackPointExtension>
        </extensions>
      </trkpt>
      <trkpt lat="52.26634654216468334197998046875" lon="1.62300710566341876983642578125">
        <ele>-133.399993896484375</ele>
        <time>2025-09-07T08:53:31.000Z</time>
        <extensions>
          <ns3:TrackPointExtension>
            <ns3:hr>143</ns3:hr>
            <ns3:cad>0</ns3:cad>
          </ns3:TrackPointExtension>
        </extensions>
      </trkpt>
      <trkpt lat="52.266350649297237396240234375" lon="1.623083464801311492919921875">
        <ele>-134.399993896484375</ele>
        <time>2025-09-07T08:53:35.000Z</time>
        <extensions>
          <ns3:TrackPointExtension>
            <ns3:hr>142</ns3:hr>
            <ns3:cad>50</ns3:cad>
          </ns3:TrackPointExtension>
        </extensions>
      </trkpt>
      <trkpt lat="52.26632609032094478607177734375" lon="1.62319150753319263458251953125">
        <ele>-136.399993896484375</ele>
        <time>2025-09-07T08:53:39.000Z</time>
        <extensions>
          <ns3:TrackPointExtension>
            <ns3:hr>141</ns3:hr>
            <ns3:cad>52</ns3:cad>
          </ns3:TrackPointExtension>
        </extensions>
      </trkpt>
      <trkpt lat="52.26632483303546905517578125" lon="1.62322050891816616058349609375">
        <ele>-138.1999969482421875</ele>
        <time>2025-09-07T08:53:41.000Z</time>
        <extensions>
          <ns3:TrackPointExtension>
            <ns3:hr>139</ns3:hr>
            <ns3:cad>53</ns3:cad>
          </ns3:TrackPointExtension>
        </extensions>
      </trkpt>
      <trkpt lat="52.26632743142545223236083984375" lon="1.623277924954891204833984375">
        <ele>-139.399993896484375</ele>
        <time>2025-09-07T08:53:43.000Z</time>
        <extensions>
          <ns3:TrackPointExtension>
            <ns3:hr>135</ns3:hr>
            <ns3:cad>56</ns3:cad>
          </ns3:TrackPointExtension>
        </extensions>
      </trkpt>
      <trkpt lat="52.2663256712257862091064453125" lon="1.62331522442400455474853515625">
        <ele>-140.399993896484375</ele>
        <time>2025-09-07T08:53:45.000Z</time>
        <extensions>
          <ns3:TrackPointExtension>
            <ns3:hr>132</ns3:hr>
            <ns3:cad>56</ns3:cad>
          </ns3:TrackPointExtension>
        </extensions>
      </trkpt>
      <trkpt lat="52.26631972007453441619873046875" lon="1.62337540648877620697021484375">
        <ele>-142</ele>
        <time>2025-09-07T08:53:49.000Z</time>
        <extensions>
          <ns3:TrackPointExtension>
            <ns3:hr>129</ns3:hr>
            <ns3:cad>52</ns3:cad>
          </ns3:TrackPointExtension>
        </extensions>
      </trkpt>
      <trkpt lat="52.26633899845182895660400390625" lon="1.6234041564166545867919921875">
        <ele>-143</ele>
        <time>2025-09-07T08:53:51.000Z</time>
        <extensions>
          <ns3:TrackPointExtension>
            <ns3:hr>128</ns3:hr>
            <ns3:cad>52</ns3:cad>
          </ns3:TrackPointExtension>
        </extensions>
      </trkpt>
      <trkpt lat="52.26634855382144451141357421875" lon="1.623415052890777587890625">
        <ele>-143.399993896484375</ele>
        <time>2025-09-07T08:53:52.000Z</time>
        <extensions>
          <ns3:TrackPointExtension>
            <ns3:hr>127</ns3:hr>
            <ns3:cad>52</ns3:cad>
          </ns3:TrackPointExtension>
        </extensions>
      </trkpt>
      <trkpt lat="52.26635945029556751251220703125" lon="1.62346400320529937744140625">
        <ele>-144.600006103515625</ele>
        <time>2025-09-07T08:53:55.000Z</time>
        <extensions>
          <ns3:TrackPointExtension>
            <ns3:hr>126</ns3:hr>
            <ns3:cad>53</ns3:cad>
          </ns3:TrackPointExtension>
        </extensions>
      </trkpt>
      <trkpt lat="52.26638962514698505401611328125" lon="1.62351538427174091339111328125">
        <ele>-145.1999969482421875</ele>
        <time>2025-09-07T08:53:58.000Z</time>
        <extensions>
          <ns3:TrackPointExtension>
            <ns3:hr>126</ns3:hr>
            <ns3:cad>57</ns3:cad>
          </ns3:TrackPointExtension>
        </extensions>
      </trkpt>
      <trkpt lat="52.26647394709289073944091796875" lon="1.6236043162643909454345703125">
        <ele>-145.399993896484375</ele>
        <time>2025-09-07T08:54:07.000Z</time>
        <extensions>
          <ns3:TrackPointExtension>
            <ns3:hr>126</ns3:hr>
            <ns3:cad>58</ns3:cad>
          </ns3:TrackPointExtension>
        </extensions>
      </trkpt>
      <trkpt lat="52.266545780003070831298828125" lon="1.62360205315053462982177734375">
        <ele>-145.8000030517578125</ele>
        <time>2025-09-07T08:54:12.000Z</time>
        <extensions>
          <ns3:TrackPointExtension>
            <ns3:hr>123</ns3:hr>
            <ns3:cad>59</ns3:cad>
          </ns3:TrackPointExtension>
        </extensions>
      </trkpt>
      <trkpt lat="52.266630269587039947509765625" lon="1.62361579947173595428466796875">
        <ele>-147</ele>
        <time>2025-09-07T08:54:17.000Z</time>
        <extensions>
          <ns3:TrackPointExtension>
            <ns3:hr>122</ns3:hr>
            <ns3:cad>77</ns3:cad>
          </ns3:TrackPointExtension>
        </extensions>
      </trkpt>
      <trkpt lat="52.2666555829346179962158203125" lon="1.6236264444887638092041015625">
        <ele>-147</ele>
        <time>2025-09-07T08:54:18.000Z</time>
        <extensions>
          <ns3:TrackPointExtension>
            <ns3:hr>121</ns3:hr>
            <ns3:cad>77</ns3:cad>
          </ns3:TrackPointExtension>
        </extensions>
      </trkpt>
      <trkpt lat="52.26669103838503360748291015625" lon="1.623629964888095855712890625">
        <ele>-148</ele>
        <time>2025-09-07T08:54:20.000Z</time>
        <extensions>
          <ns3:TrackPointExtension>
            <ns3:hr>120</ns3:hr>
            <ns3:cad>78</ns3:cad>
          </ns3:TrackPointExtension>
        </extensions>
      </trkpt>
      <trkpt lat="52.26671836338937282562255859375" lon="1.6236311383545398712158203125">
        <ele>-149</ele>
        <time>2025-09-07T08:54:22.000Z</time>
        <extensions>
          <ns3:TrackPointExtension>
            <ns3:hr>123</ns3:hr>
            <ns3:cad>79</ns3:cad>
          </ns3:TrackPointExtension>
        </extensions>
      </trkpt>
      <trkpt lat="52.26673294790089130401611328125" lon="1.62362418137490749359130859375">
        <ele>-149.1999969482421875</ele>
        <time>2025-09-07T08:54:23.000Z</time>
        <extensions>
          <ns3:TrackPointExtension>
            <ns3:hr>126</ns3:hr>
            <ns3:cad>79</ns3:cad>
          </ns3:TrackPointExtension>
        </extensions>
      </trkpt>
      <trkpt lat="52.266748957335948944091796875" lon="1.6236183978617191314697265625">
        <ele>-149.399993896484375</ele>
        <time>2025-09-07T08:54:24.000Z</time>
        <extensions>
          <ns3:TrackPointExtension>
            <ns3:hr>126</ns3:hr>
            <ns3:cad>79</ns3:cad>
          </ns3:TrackPointExtension>
        </extensions>
      </trkpt>
      <trkpt lat="52.266800589859485626220703125" lon="1.6236234270036220550537109375">
        <ele>-150</ele>
        <time>2025-09-07T08:54:27.000Z</time>
        <extensions>
          <ns3:TrackPointExtension>
            <ns3:hr>127</ns3:hr>
            <ns3:cad>79</ns3:cad>
          </ns3:TrackPointExtension>
        </extensions>
      </trkpt>
      <trkpt lat="52.26692439056932926177978515625" lon="1.6236837767064571380615234375">
        <ele>-149.399993896484375</ele>
        <time>2025-09-07T08:54:34.000Z</time>
        <extensions>
          <ns3:TrackPointExtension>
            <ns3:hr>131</ns3:hr>
            <ns3:cad>78</ns3:cad>
          </ns3:TrackPointExtension>
        </extensions>
      </trkpt>
      <trkpt lat="52.2669409029185771942138671875" lon="1.62373398430645465850830078125">
        <ele>-149.1999969482421875</ele>
        <time>2025-09-07T08:54:36.000Z</time>
        <extensions>
          <ns3:TrackPointExtension>
            <ns3:hr>129</ns3:hr>
            <ns3:cad>78</ns3:cad>
          </ns3:TrackPointExtension>
        </extensions>
      </trkpt>
      <trkpt lat="52.266973592340946197509765625" lon="1.623794920742511749267578125">
        <ele>-148.399993896484375</ele>
        <time>2025-09-07T08:54:39.000Z</time>
        <extensions>
          <ns3:TrackPointExtension>
            <ns3:hr>132</ns3:hr>
            <ns3:cad>78</ns3:cad>
          </ns3:TrackPointExtension>
        </extensions>
      </trkpt>
      <trkpt lat="52.266986332833766937255859375" lon="1.62381227128207683563232421875">
        <ele>-148</ele>
        <time>2025-09-07T08:54:40.000Z</time>
        <extensions>
          <ns3:TrackPointExtension>
            <ns3:hr>131</ns3:hr>
            <ns3:cad>78</ns3:cad>
          </ns3:TrackPointExtension>
        </extensions>
      </trkpt>
      <trkpt lat="52.2670139931142330169677734375" lon="1.62384621798992156982421875">
        <ele>-146.600006103515625</ele>
        <time>2025-09-07T08:54:42.000Z</time>
        <extensions>
          <ns3:TrackPointExtension>
            <ns3:hr>133</ns3:hr>
            <ns3:cad>80</ns3:cad>
          </ns3:TrackPointExtension>
        </extensions>
      </trkpt>
      <trkpt lat="52.26704408414661884307861328125" lon="1.62388334982097148895263671875">
        <ele>-145.8000030517578125</ele>
        <time>2025-09-07T08:54:44.000Z</time>
        <extensions>
          <ns3:TrackPointExtension>
            <ns3:hr>134</ns3:hr>
            <ns3:cad>79</ns3:cad>
          </ns3:TrackPointExtension>
        </extensions>
      </trkpt>
      <trkpt lat="52.2670673020184040069580078125" lon="1.62391453050076961517333984375">
        <ele>-145.399993896484375</ele>
        <time>2025-09-07T08:54:46.000Z</time>
        <extensions>
          <ns3:TrackPointExtension>
            <ns3:hr>134</ns3:hr>
            <ns3:cad>79</ns3:cad>
          </ns3:TrackPointExtension>
        </extensions>
      </trkpt>
      <trkpt lat="52.267088927328586578369140625" lon="1.62395895458757877349853515625">
        <ele>-143.8000030517578125</ele>
        <time>2025-09-07T08:54:49.000Z</time>
        <extensions>
          <ns3:TrackPointExtension>
            <ns3:hr>134</ns3:hr>
            <ns3:cad>79</ns3:cad>
          </ns3:TrackPointExtension>
        </extensions>
      </trkpt>
      <trkpt lat="52.267092280089855194091796875" lon="1.62397588603198528289794921875">
        <ele>-143.399993896484375</ele>
        <time>2025-09-07T08:54:50.000Z</time>
        <extensions>
          <ns3:TrackPointExtension>
            <ns3:hr>134</ns3:hr>
            <ns3:cad>79</ns3:cad>
          </ns3:TrackPointExtension>
        </extensions>
      </trkpt>
      <trkpt lat="52.26710242219269275665283203125" lon="1.62398527376353740692138671875">
        <ele>-142.8000030517578125</ele>
        <time>2025-09-07T08:54:51.000Z</time>
        <extensions>
          <ns3:TrackPointExtension>
            <ns3:hr>134</ns3:hr>
            <ns3:cad>79</ns3:cad>
          </ns3:TrackPointExtension>
        </extensions>
      </trkpt>
      <trkpt lat="52.26714835502207279205322265625" lon="1.6240079887211322784423828125">
        <ele>-141.1999969482421875</ele>
        <time>2025-09-07T08:54:54.000Z</time>
        <extensions>
          <ns3:TrackPointExtension>
            <ns3:hr>134</ns3:hr>
            <ns3:cad>80</ns3:cad>
          </ns3:TrackPointExtension>
        </extensions>
      </trkpt>
      <trkpt lat="52.26719898171722888946533203125" lon="1.62405752576887607574462890625">
        <ele>-140</ele>
        <time>2025-09-07T08:54:58.000Z</time>
        <extensions>
          <ns3:TrackPointExtension>
            <ns3:hr>137</ns3:hr>
            <ns3:cad>80</ns3:cad>
          </ns3:TrackPointExtension>
        </extensions>
      </trkpt>
      <trkpt lat="52.26729067973792552947998046875" lon="1.6241752915084362030029296875">
        <ele>-139</ele>
        <time>2025-09-07T08:55:04.000Z</time>
        <extensions>
          <ns3:TrackPointExtension>
            <ns3:hr>139</ns3:hr>
            <ns3:cad>80</ns3:cad>
          </ns3:TrackPointExtension>
        </extensions>
      </trkpt>
      <trkpt lat="52.26736293174326419830322265625" lon="1.62427076138556003570556640625">
        <ele>-138.399993896484375</ele>
        <time>2025-09-07T08:55:08.000Z</time>
        <extensions>
          <ns3:TrackPointExtension>
            <ns3:hr>139</ns3:hr>
            <ns3:cad>79</ns3:cad>
          </ns3:TrackPointExtension>
        </extensions>
      </trkpt>
      <trkpt lat="52.2675045020878314971923828125" lon="1.62437235005199909210205078125">
        <ele>-138.1999969482421875</ele>
        <time>2025-09-07T08:55:16.000Z</time>
        <extensions>
          <ns3:TrackPointExtension>
            <ns3:hr>139</ns3:hr>
            <ns3:cad>79</ns3:cad>
          </ns3:TrackPointExtension>
        </extensions>
      </trkpt>
      <trkpt lat="52.26753576658666133880615234375" lon="1.624408476054668426513671875">
        <ele>-138</ele>
        <time>2025-09-07T08:55:19.000Z</time>
        <extensions>
          <ns3:TrackPointExtension>
            <ns3:hr>139</ns3:hr>
            <ns3:cad>79</ns3:cad>
          </ns3:TrackPointExtension>
        </extensions>
      </trkpt>
      <trkpt lat="52.2676144726574420928955078125" lon="1.6244944743812084197998046875">
        <ele>-137</ele>
        <time>2025-09-07T08:55:25.000Z</time>
        <extensions>
          <ns3:TrackPointExtension>
            <ns3:hr>139</ns3:hr>
            <ns3:cad>0</ns3:cad>
          </ns3:TrackPointExtension>
        </extensions>
      </trkpt>
      <trkpt lat="52.2676530294120311737060546875" lon="1.62451266311109066009521484375">
        <ele>-137</ele>
        <time>2025-09-07T08:55:28.000Z</time>
        <extensions>
          <ns3:TrackPointExtension>
            <ns3:hr>141</ns3:hr>
            <ns3:cad>0</ns3:cad>
          </ns3:TrackPointExtension>
        </extensions>
      </trkpt>
      <trkpt lat="52.2677425481379032135009765625" lon="1.6245377250015735626220703125">
        <ele>-137.600006103515625</ele>
        <time>2025-09-07T08:55:33.000Z</time>
        <extensions>
          <ns3:TrackPointExtension>
            <ns3:hr>143</ns3:hr>
            <ns3:cad>78</ns3:cad>
          </ns3:TrackPointExtension>
        </extensions>
      </trkpt>
      <trkpt lat="52.26783064194023609161376953125" lon="1.6245296783745288848876953125">
        <ele>-138.1999969482421875</ele>
        <time>2025-09-07T08:55:38.000Z</time>
        <extensions>
          <ns3:TrackPointExtension>
            <ns3:hr>139</ns3:hr>
            <ns3:cad>78</ns3:cad>
          </ns3:TrackPointExtension>
        </extensions>
      </trkpt>
      <trkpt lat="52.2678458131849765777587890625" lon="1.62452406249940395355224609375">
        <ele>-138.399993896484375</ele>
        <time>2025-09-07T08:55:39.000Z</time>
        <extensions>
          <ns3:TrackPointExtension>
            <ns3:hr>142</ns3:hr>
            <ns3:cad>79</ns3:cad>
          </ns3:TrackPointExtension>
        </extensions>
      </trkpt>
      <trkpt lat="52.26787959225475788116455078125" lon="1.6245139203965663909912109375">
        <ele>-139</ele>
        <time>2025-09-07T08:55:41.000Z</time>
        <extensions>
          <ns3:TrackPointExtension>
            <ns3:hr>141</ns3:hr>
            <ns3:cad>79</ns3:cad>
          </ns3:TrackPointExtension>
        </extensions>
      </trkpt>
      <trkpt lat="52.26801194250583648681640625" lon="1.624530516564846038818359375">
        <ele>-140</ele>
        <time>2025-09-07T08:55:49.000Z</time>
        <extensions>
          <ns3:TrackPointExtension>
            <ns3:hr>141</ns3:hr>
            <ns3:cad>58</ns3:cad>
          </ns3:TrackPointExtension>
        </extensions>
      </trkpt>
      <trkpt lat="52.268047146499156951904296875" lon="1.6245174407958984375">
        <ele>-140.8000030517578125</ele>
        <time>2025-09-07T08:55:51.000Z</time>
        <extensions>
          <ns3:TrackPointExtension>
            <ns3:hr>140</ns3:hr>
            <ns3:cad>78</ns3:cad>
          </ns3:TrackPointExtension>
        </extensions>
      </trkpt>
      <trkpt lat="52.26808696053922176361083984375" lon="1.6244974918663501739501953125">
        <ele>-141</ele>
        <time>2025-09-07T08:55:53.000Z</time>
        <extensions>
          <ns3:TrackPointExtension>
            <ns3:hr>139</ns3:hr>
            <ns3:cad>79</ns3:cad>
          </ns3:TrackPointExtension>
        </extensions>
      </trkpt>
      <trkpt lat="52.268196009099483489990234375" lon="1.62450327537953853607177734375">
        <ele>-142</ele>
        <time>2025-09-07T08:55:58.000Z</time>
        <extensions>
          <ns3:TrackPointExtension>
            <ns3:hr>140</ns3:hr>
            <ns3:cad>80</ns3:cad>
          </ns3:TrackPointExtension>
        </extensions>
      </trkpt>
      <trkpt lat="52.268212102353572845458984375" lon="1.6245025210082530975341796875">
        <ele>-142.1999969482421875</ele>
        <time>2025-09-07T08:55:59.000Z</time>
        <extensions>
          <ns3:TrackPointExtension>
            <ns3:hr>139</ns3:hr>
            <ns3:cad>80</ns3:cad>
          </ns3:TrackPointExtension>
        </extensions>
      </trkpt>
      <trkpt lat="52.26827303878962993621826171875" lon="1.62452121265232563018798828125">
        <ele>-143.399993896484375</ele>
        <time>2025-09-07T08:56:04.000Z</time>
        <extensions>
          <ns3:TrackPointExtension>
            <ns3:hr>137</ns3:hr>
            <ns3:cad>68</ns3:cad>
          </ns3:TrackPointExtension>
        </extensions>
      </trkpt>
      <trkpt lat="52.2683141939342021942138671875" lon="1.62454183213412761688232421875">
        <ele>-143.8000030517578125</ele>
        <time>2025-09-07T08:56:07.000Z</time>
        <extensions>
          <ns3:TrackPointExtension>
            <ns3:hr>135</ns3:hr>
            <ns3:cad>75</ns3:cad>
          </ns3:TrackPointExtension>
        </extensions>
      </trkpt>
      <trkpt lat="52.26846523582935333251953125" lon="1.62455239333212375640869140625">
        <ele>-142.399993896484375</ele>
        <time>2025-09-07T08:56:16.000Z</time>
        <extensions>
          <ns3:TrackPointExtension>
            <ns3:hr>135</ns3:hr>
            <ns3:cad>80</ns3:cad>
          </ns3:TrackPointExtension>
        </extensions>
      </trkpt>
      <trkpt lat="52.268499098718166351318359375" lon="1.6245739348232746124267578125">
        <ele>-141.8000030517578125</ele>
        <time>2025-09-07T08:56:18.000Z</time>
        <extensions>
          <ns3:TrackPointExtension>
            <ns3:hr>135</ns3:hr>
            <ns3:cad>80</ns3:cad>
          </ns3:TrackPointExtension>
        </extensions>
      </trkpt>
      <trkpt lat="52.2685425169765949249267578125" lon="1.6246205382049083709716796875">
        <ele>-140.1999969482421875</ele>
        <time>2025-09-07T08:56:20.000Z</time>
        <extensions>
          <ns3:TrackPointExtension>
            <ns3:hr>138</ns3:hr>
            <ns3:cad>81</ns3:cad>
          </ns3:TrackPointExtension>
        </extensions>
      </trkpt>
      <trkpt lat="52.26858434267342090606689453125" lon="1.62467527203261852264404296875">
        <ele>-138.1999969482421875</ele>
        <time>2025-09-07T08:56:22.000Z</time>
        <extensions>
          <ns3:TrackPointExtension>
            <ns3:hr>144</ns3:hr>
            <ns3:cad>81</ns3:cad>
          </ns3:TrackPointExtension>
        </extensions>
      </trkpt>
      <trkpt lat="52.2686322033405303955078125" lon="1.62476261146366596221923828125">
        <ele>-137.1999969482421875</ele>
        <time>2025-09-07T08:56:25.000Z</time>
        <extensions>
          <ns3:TrackPointExtension>
            <ns3:hr>148</ns3:hr>
            <ns3:cad>80</ns3:cad>
          </ns3:TrackPointExtension>
        </extensions>
      </trkpt>
      <trkpt lat="52.26864553056657314300537109375" lon="1.62478758953511714935302734375">
        <ele>-137</ele>
        <time>2025-09-07T08:56:26.000Z</time>
        <extensions>
          <ns3:TrackPointExtension>
            <ns3:hr>150</ns3:hr>
            <ns3:cad>80</ns3:cad>
          </ns3:TrackPointExtension>
        </extensions>
      </trkpt>
      <trkpt lat="52.2686940617859363555908203125" lon="1.62484827451407909393310546875">
        <ele>-136.8000030517578125</ele>
        <time>2025-09-07T08:56:29.000Z</time>
        <extensions>
          <ns3:TrackPointExtension>
            <ns3:hr>153</ns3:hr>
            <ns3:cad>80</ns3:cad>
          </ns3:TrackPointExtension>
        </extensions>
      </trkpt>
      <trkpt lat="52.26877779699862003326416015625" lon="1.62490275688469409942626953125">
        <ele>-137</ele>
        <time>2025-09-07T08:56:34.000Z</time>
        <extensions>
          <ns3:TrackPointExtension>
            <ns3:hr>152</ns3:hr>
            <ns3:cad>79</ns3:cad>
          </ns3:TrackPointExtension>
        </extensions>
      </trkpt>
      <trkpt lat="52.26884501986205577850341796875" lon="1.62494868971407413482666015625">
        <ele>-137.1999969482421875</ele>
        <time>2025-09-07T08:56:39.000Z</time>
        <extensions>
          <ns3:TrackPointExtension>
            <ns3:hr>149</ns3:hr>
            <ns3:cad>80</ns3:cad>
          </ns3:TrackPointExtension>
        </extensions>
      </trkpt>
      <trkpt lat="52.2688821516931056976318359375" lon="1.62495757453143596649169921875">
        <ele>-137.1999969482421875</ele>
        <time>2025-09-07T08:56:42.000Z</time>
        <extensions>
          <ns3:TrackPointExtension>
            <ns3:hr>148</ns3:hr>
            <ns3:cad>80</ns3:cad>
          </ns3:TrackPointExtension>
        </extensions>
      </trkpt>
      <trkpt lat="52.2690398991107940673828125" lon="1.624950282275676727294921875">
        <ele>-137.399993896484375</ele>
        <time>2025-09-07T08:56:52.000Z</time>
        <extensions>
          <ns3:TrackPointExtension>
            <ns3:hr>150</ns3:hr>
            <ns3:cad>80</ns3:cad>
          </ns3:TrackPointExtension>
        </extensions>
      </trkpt>
      <trkpt lat="52.26915054023265838623046875" lon="1.6249559819698333740234375">
        <ele>-138.1999969482421875</ele>
        <time>2025-09-07T08:57:00.000Z</time>
        <extensions>
          <ns3:TrackPointExtension>
            <ns3:hr>151</ns3:hr>
            <ns3:cad>81</ns3:cad>
          </ns3:TrackPointExtension>
        </extensions>
      </trkpt>
      <trkpt lat="52.26916437037289142608642578125" lon="1.6249601729214191436767578125">
        <ele>-138.1999969482421875</ele>
        <time>2025-09-07T08:57:01.000Z</time>
        <extensions>
          <ns3:TrackPointExtension>
            <ns3:hr>151</ns3:hr>
            <ns3:cad>81</ns3:cad>
          </ns3:TrackPointExtension>
        </extensions>
      </trkpt>
      <trkpt lat="52.2693019174039363861083984375" lon="1.62497450597584247589111328125">
        <ele>-138.600006103515625</ele>
        <time>2025-09-07T08:57:11.000Z</time>
        <extensions>
          <ns3:TrackPointExtension>
            <ns3:hr>150</ns3:hr>
            <ns3:cad>80</ns3:cad>
          </ns3:TrackPointExtension>
        </extensions>
      </trkpt>
      <trkpt lat="52.26934709586203098297119140625" lon="1.624967716634273529052734375">
        <ele>-139.1999969482421875</ele>
        <time>2025-09-07T08:57:14.000Z</time>
        <extensions>
          <ns3:TrackPointExtension>
            <ns3:hr>151</ns3:hr>
            <ns3:cad>79</ns3:cad>
          </ns3:TrackPointExtension>
        </extensions>
      </trkpt>
      <trkpt lat="52.26952881552278995513916015625" lon="1.62500048987567424774169921875">
        <ele>-139.600006103515625</ele>
        <time>2025-09-07T08:57:22.000Z</time>
        <extensions>
          <ns3:TrackPointExtension>
            <ns3:hr>150</ns3:hr>
            <ns3:cad>80</ns3:cad>
          </ns3:TrackPointExtension>
        </extensions>
      </trkpt>
      <trkpt lat="52.269555889070034027099609375" lon="1.62499529309570789337158203125">
        <ele>-139.600006103515625</ele>
        <time>2025-09-07T08:57:23.000Z</time>
        <extensions>
          <ns3:TrackPointExtension>
            <ns3:hr>150</ns3:hr>
            <ns3:cad>80</ns3:cad>
          </ns3:TrackPointExtension>
        </extensions>
      </trkpt>
      <trkpt lat="52.26975579746067523956298828125" lon="1.624961681663990020751953125">
        <ele>-139.399993896484375</ele>
        <time>2025-09-07T08:57:31.000Z</time>
        <extensions>
          <ns3:TrackPointExtension>
            <ns3:hr>148</ns3:hr>
            <ns3:cad>80</ns3:cad>
          </ns3:TrackPointExtension>
        </extensions>
      </trkpt>
      <trkpt lat="52.26993466727435588836669921875" lon="1.624891944229602813720703125">
        <ele>-138.8000030517578125</ele>
        <time>2025-09-07T08:57:39.000Z</time>
        <extensions>
          <ns3:TrackPointExtension>
            <ns3:hr>149</ns3:hr>
            <ns3:cad>0</ns3:cad>
          </ns3:TrackPointExtension>
        </extensions>
      </trkpt>
      <trkpt lat="52.269939444959163665771484375" lon="1.62486587651073932647705078125">
        <ele>-138</ele>
        <time>2025-09-07T08:57:42.000Z</time>
        <extensions>
          <ns3:TrackPointExtension>
            <ns3:hr>147</ns3:hr>
            <ns3:cad>0</ns3:cad>
          </ns3:TrackPointExtension>
        </extensions>
      </trkpt>
      <trkpt lat="52.2699469886720180511474609375" lon="1.624859087169170379638671875">
        <ele>-137.600006103515625</ele>
        <time>2025-09-07T08:57:45.000Z</time>
        <extensions>
          <ns3:TrackPointExtension>
            <ns3:hr>144</ns3:hr>
            <ns3:cad>0</ns3:cad>
          </ns3:TrackPointExtension>
        </extensions>
      </trkpt>
      <trkpt lat="52.26996685378253459930419921875" lon="1.62485565058887004852294921875">
        <ele>-138.1999969482421875</ele>
        <time>2025-09-07T08:57:48.000Z</time>
        <extensions>
          <ns3:TrackPointExtension>
            <ns3:hr>142</ns3:hr>
            <ns3:cad>0</ns3:cad>
          </ns3:TrackPointExtension>
        </extensions>
      </trkpt>
      <trkpt lat="52.2699795104563236236572265625" lon="1.6248609311878681182861328125">
        <ele>-139</ele>
        <time>2025-09-07T08:57:50.000Z</time>
        <extensions>
          <ns3:TrackPointExtension>
            <ns3:hr>140</ns3:hr>
            <ns3:cad>0</ns3:cad>
          </ns3:TrackPointExtension>
        </extensions>
      </trkpt>
      <trkpt lat="52.2700019739568233489990234375" lon="1.62485196255147457122802734375">
        <ele>-140.1999969482421875</ele>
        <time>2025-09-07T08:57:53.000Z</time>
        <extensions>
          <ns3:TrackPointExtension>
            <ns3:hr>138</ns3:hr>
            <ns3:cad>0</ns3:cad>
          </ns3:TrackPointExtension>
        </extensions>
      </trkpt>
      <trkpt lat="52.270043380558490753173828125" lon="1.62483218125998973846435546875">
        <ele>-141</ele>
        <time>2025-09-07T08:57:56.000Z</time>
        <extensions>
          <ns3:TrackPointExtension>
            <ns3:hr>137</ns3:hr>
            <ns3:cad>79</ns3:cad>
          </ns3:TrackPointExtension>
        </extensions>
      </trkpt>
      <trkpt lat="52.27005687542259693145751953125" lon="1.6248337738215923309326171875">
        <ele>-141.1999969482421875</ele>
        <time>2025-09-07T08:57:57.000Z</time>
        <extensions>
          <ns3:TrackPointExtension>
            <ns3:hr>138</ns3:hr>
            <ns3:cad>79</ns3:cad>
          </ns3:TrackPointExtension>
        </extensions>
      </trkpt>
      <trkpt lat="52.27014689706265926361083984375" lon="1.62481726147234439849853515625">
        <ele>-142.8000030517578125</ele>
        <time>2025-09-07T08:58:03.000Z</time>
        <extensions>
          <ns3:TrackPointExtension>
            <ns3:hr>140</ns3:hr>
            <ns3:cad>79</ns3:cad>
          </ns3:TrackPointExtension>
        </extensions>
      </trkpt>
      <trkpt lat="52.2701773233711719512939453125" lon="1.62480904720723628997802734375">
        <ele>-143.600006103515625</ele>
        <time>2025-09-07T08:58:05.000Z</time>
        <extensions>
          <ns3:TrackPointExtension>
            <ns3:hr>140</ns3:hr>
            <ns3:cad>79</ns3:cad>
          </ns3:TrackPointExtension>
        </extensions>
      </trkpt>
      <trkpt lat="52.27019065059721469879150390625" lon="1.6248059459030628204345703125">
        <ele>-143.8000030517578125</ele>
        <time>2025-09-07T08:58:06.000Z</time>
        <extensions>
          <ns3:TrackPointExtension>
            <ns3:hr>140</ns3:hr>
            <ns3:cad>79</ns3:cad>
          </ns3:TrackPointExtension>
        </extensions>
      </trkpt>
      <trkpt lat="52.27022099308669567108154296875" lon="1.62481005303561687469482421875">
        <ele>-145.1999969482421875</ele>
        <time>2025-09-07T08:58:08.000Z</time>
        <extensions>
          <ns3:TrackPointExtension>
            <ns3:hr>141</ns3:hr>
            <ns3:cad>80</ns3:cad>
          </ns3:TrackPointExtension>
        </extensions>
      </trkpt>
      <trkpt lat="52.2703238390386104583740234375" lon="1.62482229061424732208251953125">
        <ele>-146.600006103515625</ele>
        <time>2025-09-07T08:58:16.000Z</time>
        <extensions>
          <ns3:TrackPointExtension>
            <ns3:hr>143</ns3:hr>
            <ns3:cad>80</ns3:cad>
          </ns3:TrackPointExtension>
        </extensions>
      </trkpt>
      <trkpt lat="52.270334064960479736328125" lon="1.6248180158436298370361328125">
        <ele>-146.1999969482421875</ele>
        <time>2025-09-07T08:58:17.000Z</time>
        <extensions>
          <ns3:TrackPointExtension>
            <ns3:hr>143</ns3:hr>
            <ns3:cad>80</ns3:cad>
          </ns3:TrackPointExtension>
        </extensions>
      </trkpt>
      <trkpt lat="52.2704064846038818359375" lon="1.6247533075511455535888671875">
        <ele>-145</ele>
        <time>2025-09-07T08:58:22.000Z</time>
        <extensions>
          <ns3:TrackPointExtension>
            <ns3:hr>144</ns3:hr>
            <ns3:cad>0</ns3:cad>
          </ns3:TrackPointExtension>
        </extensions>
      </trkpt>
      <trkpt lat="52.27042567916214466094970703125" lon="1.6247360408306121826171875">
        <ele>-143.1999969482421875</ele>
        <time>2025-09-07T08:58:24.000Z</time>
        <extensions>
          <ns3:TrackPointExtension>
            <ns3:hr>144</ns3:hr>
            <ns3:cad>0</ns3:cad>
          </ns3:TrackPointExtension>
        </extensions>
      </trkpt>
      <trkpt lat="52.2704534232616424560546875" lon="1.62472656928002834320068359375">
        <ele>-142</ele>
        <time>2025-09-07T08:58:26.000Z</time>
        <extensions>
          <ns3:TrackPointExtension>
            <ns3:hr>143</ns3:hr>
            <ns3:cad>0</ns3:cad>
          </ns3:TrackPointExtension>
        </extensions>
      </trkpt>
      <trkpt lat="52.27046490646898746490478515625" lon="1.62473612464964389801025390625">
        <ele>-141</ele>
        <time>2025-09-07T08:58:27.000Z</time>
        <extensions>
          <ns3:TrackPointExtension>
            <ns3:hr>143</ns3:hr>
            <ns3:cad>0</ns3:cad>
          </ns3:TrackPointExtension>
        </extensions>
      </trkpt>
      <trkpt lat="52.27049005217850208282470703125" lon="1.6247395612299442291259765625">
        <ele>-139.399993896484375</ele>
        <time>2025-09-07T08:58:29.000Z</time>
        <extensions>
          <ns3:TrackPointExtension>
            <ns3:hr>144</ns3:hr>
            <ns3:cad>0</ns3:cad>
          </ns3:TrackPointExtension>
        </extensions>
      </trkpt>
      <trkpt lat="52.2705022059381008148193359375" lon="1.62474450655281543731689453125">
        <ele>-137.8000030517578125</ele>
        <time>2025-09-07T08:58:31.000Z</time>
        <extensions>
          <ns3:TrackPointExtension>
            <ns3:hr>143</ns3:hr>
            <ns3:cad>0</ns3:cad>
          </ns3:TrackPointExtension>
        </extensions>
      </trkpt>
      <trkpt lat="52.27050103247165679931640625" lon="1.62474635057151317596435546875">
        <ele>-136.600006103515625</ele>
        <time>2025-09-07T08:58:33.000Z</time>
        <extensions>
          <ns3:TrackPointExtension>
            <ns3:hr>143</ns3:hr>
            <ns3:cad>0</ns3:cad>
          </ns3:TrackPointExtension>
        </extensions>
      </trkpt>
      <trkpt lat="52.2704995237290859222412109375" lon="1.62475238554179668426513671875">
        <ele>-135.600006103515625</ele>
        <time>2025-09-07T08:58:36.000Z</time>
        <extensions>
          <ns3:TrackPointExtension>
            <ns3:hr>142</ns3:hr>
            <ns3:cad>0</ns3:cad>
          </ns3:TrackPointExtension>
        </extensions>
      </trkpt>
      <trkpt lat="52.2705028764903545379638671875" lon="1.624750792980194091796875">
        <ele>-135.1999969482421875</ele>
        <time>2025-09-07T08:58:37.000Z</time>
        <extensions>
          <ns3:TrackPointExtension>
            <ns3:hr>142</ns3:hr>
            <ns3:cad>0</ns3:cad>
          </ns3:TrackPointExtension>
        </extensions>
      </trkpt>
      <trkpt lat="52.27053816430270671844482421875" lon="1.624729670584201812744140625">
        <ele>-134.399993896484375</ele>
        <time>2025-09-07T08:58:40.000Z</time>
        <extensions>
          <ns3:TrackPointExtension>
            <ns3:hr>141</ns3:hr>
            <ns3:cad>0</ns3:cad>
          </ns3:TrackPointExtension>
        </extensions>
      </trkpt>
      <trkpt lat="52.27053816430270671844482421875" lon="1.62473671138286590576171875">
        <ele>-134.1999969482421875</ele>
        <time>2025-09-07T08:58:42.000Z</time>
        <extensions>
          <ns3:TrackPointExtension>
            <ns3:hr>138</ns3:hr>
            <ns3:cad>0</ns3:cad>
          </ns3:TrackPointExtension>
        </extensions>
      </trkpt>
      <trkpt lat="52.27054201997816562652587890625" lon="1.62474249489605426788330078125">
        <ele>-134</ele>
        <time>2025-09-07T08:58:46.000Z</time>
        <extensions>
          <ns3:TrackPointExtension>
            <ns3:hr>137</ns3:hr>
            <ns3:cad>0</ns3:cad>
          </ns3:TrackPointExtension>
        </extensions>
      </trkpt>
      <trkpt lat="52.27054771967232227325439453125" lon="1.62475339137017726898193359375">
        <ele>-135</ele>
        <time>2025-09-07T08:58:50.000Z</time>
        <extensions>
          <ns3:TrackPointExtension>
            <ns3:hr>134</ns3:hr>
            <ns3:cad>0</ns3:cad>
          </ns3:TrackPointExtension>
        </extensions>
      </trkpt>
      <trkpt lat="52.27054436691105365753173828125" lon="1.62475406192243099212646484375">
        <ele>-135.600006103515625</ele>
        <time>2025-09-07T08:58:52.000Z</time>
        <extensions>
          <ns3:TrackPointExtension>
            <ns3:hr>133</ns3:hr>
            <ns3:cad>0</ns3:cad>
          </ns3:TrackPointExtension>
        </extensions>
      </trkpt>
      <trkpt lat="52.2705444507300853729248046875" lon="1.62475883960723876953125">
        <ele>-139</ele>
        <time>2025-09-07T08:58:53.000Z</time>
        <extensions>
          <ns3:TrackPointExtension>
            <ns3:hr>133</ns3:hr>
            <ns3:cad>0</ns3:cad>
          </ns3:TrackPointExtension>
        </extensions>
      </trkpt>
      <trkpt lat="52.27054269053041934967041015625" lon="1.624759174883365631103515625">
        <ele>-142.1999969482421875</ele>
        <time>2025-09-07T08:58:54.000Z</time>
        <extensions>
          <ns3:TrackPointExtension>
            <ns3:hr>134</ns3:hr>
            <ns3:cad>0</ns3:cad>
          </ns3:TrackPointExtension>
        </extensions>
      </trkpt>
      <trkpt lat="52.2705427743494510650634765625" lon="1.62475548684597015380859375">
        <ele>-144.600006103515625</ele>
        <time>2025-09-07T08:58:55.000Z</time>
        <extensions>
          <ns3:TrackPointExtension>
            <ns3:hr>135</ns3:hr>
            <ns3:cad>0</ns3:cad>
          </ns3:TrackPointExtension>
        </extensions>
      </trkpt>
      <trkpt lat="52.27054403163492679595947265625" lon="1.62475037388503551483154296875">
        <ele>-146.8000030517578125</ele>
        <time>2025-09-07T08:58:56.000Z</time>
        <extensions>
          <ns3:TrackPointExtension>
            <ns3:hr>134</ns3:hr>
            <ns3:cad>0</ns3:cad>
          </ns3:TrackPointExtension>
        </extensions>
      </trkpt>
      <trkpt lat="52.27055199444293975830078125" lon="1.6247429139912128448486328125">
        <ele>-148</ele>
        <time>2025-09-07T08:58:57.000Z</time>
        <extensions>
          <ns3:TrackPointExtension>
            <ns3:hr>132</ns3:hr>
            <ns3:cad>0</ns3:cad>
          </ns3:TrackPointExtension>
        </extensions>
      </trkpt>
      <trkpt lat="52.27055911906063556671142578125" lon="1.624740399420261383056640625">
        <ele>-149</ele>
        <time>2025-09-07T08:58:58.000Z</time>
        <extensions>
          <ns3:TrackPointExtension>
            <ns3:hr>131</ns3:hr>
            <ns3:cad>0</ns3:cad>
          </ns3:TrackPointExtension>
        </extensions>
      </trkpt>
      <trkpt lat="52.27057739160954952239990234375" lon="1.62473495118319988250732421875">
        <ele>-151</ele>
        <time>2025-09-07T08:59:00.000Z</time>
        <extensions>
          <ns3:TrackPointExtension>
            <ns3:hr>132</ns3:hr>
            <ns3:cad>0</ns3:cad>
          </ns3:TrackPointExtension>
        </extensions>
      </trkpt>
      <trkpt lat="52.27059197612106800079345703125" lon="1.62473478354513645172119140625">
        <ele>-151.8000030517578125</ele>
        <time>2025-09-07T08:59:01.000Z</time>
        <extensions>
          <ns3:TrackPointExtension>
            <ns3:hr>136</ns3:hr>
            <ns3:cad>0</ns3:cad>
          </ns3:TrackPointExtension>
        </extensions>
      </trkpt>
      <trkpt lat="52.2705996036529541015625" lon="1.62473813630640506744384765625">
        <ele>-152.1999969482421875</ele>
        <time>2025-09-07T08:59:02.000Z</time>
        <extensions>
          <ns3:TrackPointExtension>
            <ns3:hr>136</ns3:hr>
            <ns3:cad>74</ns3:cad>
          </ns3:TrackPointExtension>
        </extensions>
      </trkpt>
      <trkpt lat="52.27062483318150043487548828125" lon="1.62473578937351703643798828125">
        <ele>-153.8000030517578125</ele>
        <time>2025-09-07T08:59:04.000Z</time>
        <extensions>
          <ns3:TrackPointExtension>
            <ns3:hr>138</ns3:hr>
            <ns3:cad>75</ns3:cad>
          </ns3:TrackPointExtension>
        </extensions>
      </trkpt>
      <trkpt lat="52.270645201206207275390625" lon="1.62474417127668857574462890625">
        <ele>-155</ele>
        <time>2025-09-07T08:59:06.000Z</time>
        <extensions>
          <ns3:TrackPointExtension>
            <ns3:hr>139</ns3:hr>
            <ns3:cad>78</ns3:cad>
          </ns3:TrackPointExtension>
        </extensions>
      </trkpt>
      <trkpt lat="52.2706792317330837249755859375" lon="1.624733023345470428466796875">
        <ele>-156.1999969482421875</ele>
        <time>2025-09-07T08:59:08.000Z</time>
        <extensions>
          <ns3:TrackPointExtension>
            <ns3:hr>139</ns3:hr>
            <ns3:cad>78</ns3:cad>
          </ns3:TrackPointExtension>
        </extensions>
      </trkpt>
      <trkpt lat="52.2706882841885089874267578125" lon="1.62473411299288272857666015625">
        <ele>-156.399993896484375</ele>
        <time>2025-09-07T08:59:09.000Z</time>
        <extensions>
          <ns3:TrackPointExtension>
            <ns3:hr>143</ns3:hr>
            <ns3:cad>79</ns3:cad>
          </ns3:TrackPointExtension>
        </extensions>
      </trkpt>
      <trkpt lat="52.27072189562022686004638671875" lon="1.62472522817552089691162109375">
        <ele>-156.600006103515625</ele>
        <time>2025-09-07T08:59:11.000Z</time>
        <extensions>
          <ns3:TrackPointExtension>
            <ns3:hr>145</ns3:hr>
            <ns3:cad>79</ns3:cad>
          </ns3:TrackPointExtension>
        </extensions>
      </trkpt>
      <trkpt lat="52.270857430994510650634765625" lon="1.62469807080924510955810546875">
        <ele>-157.1999969482421875</ele>
        <time>2025-09-07T08:59:17.000Z</time>
        <extensions>
          <ns3:TrackPointExtension>
            <ns3:hr>141</ns3:hr>
            <ns3:cad>80</ns3:cad>
          </ns3:TrackPointExtension>
        </extensions>
      </trkpt>
      <trkpt lat="52.270881570875644683837890625" lon="1.62469957955181598663330078125">
        <ele>-157.399993896484375</ele>
        <time>2025-09-07T08:59:18.000Z</time>
        <extensions>
          <ns3:TrackPointExtension>
            <ns3:hr>140</ns3:hr>
            <ns3:cad>80</ns3:cad>
          </ns3:TrackPointExtension>
        </extensions>
      </trkpt>
      <trkpt lat="52.270934879779815673828125" lon="1.6246862523257732391357421875">
        <ele>-157.600006103515625</ele>
        <time>2025-09-07T08:59:21.000Z</time>
        <extensions>
          <ns3:TrackPointExtension>
            <ns3:hr>139</ns3:hr>
            <ns3:cad>80</ns3:cad>
          </ns3:TrackPointExtension>
        </extensions>
      </trkpt>
      <trkpt lat="52.27108315564692020416259765625" lon="1.62464157678186893463134765625">
        <ele>-156.1999969482421875</ele>
        <time>2025-09-07T08:59:30.000Z</time>
        <extensions>
          <ns3:TrackPointExtension>
            <ns3:hr>139</ns3:hr>
            <ns3:cad>79</ns3:cad>
          </ns3:TrackPointExtension>
        </extensions>
      </trkpt>
      <trkpt lat="52.2711033560335636138916015625" lon="1.62463587708771228790283203125">
        <ele>-156</ele>
        <time>2025-09-07T08:59:31.000Z</time>
        <extensions>
          <ns3:TrackPointExtension>
            <ns3:hr>140</ns3:hr>
            <ns3:cad>79</ns3:cad>
          </ns3:TrackPointExtension>
        </extensions>
      </trkpt>
      <trkpt lat="52.2711784578859806060791015625" lon="1.62460704334080219268798828125">
        <ele>-155.1999969482421875</ele>
        <time>2025-09-07T08:59:35.000Z</time>
        <extensions>
          <ns3:TrackPointExtension>
            <ns3:hr>140</ns3:hr>
            <ns3:cad>78</ns3:cad>
          </ns3:TrackPointExtension>
        </extensions>
      </trkpt>
      <trkpt lat="52.27124123834073543548583984375" lon="1.62457535974681377410888671875">
        <ele>-154.1999969482421875</ele>
        <time>2025-09-07T08:59:39.000Z</time>
        <extensions>
          <ns3:TrackPointExtension>
            <ns3:hr>141</ns3:hr>
            <ns3:cad>79</ns3:cad>
          </ns3:TrackPointExtension>
        </extensions>
      </trkpt>
      <trkpt lat="52.27125339210033416748046875" lon="1.62456764839589595794677734375">
        <ele>-154</ele>
        <time>2025-09-07T08:59:40.000Z</time>
        <extensions>
          <ns3:TrackPointExtension>
            <ns3:hr>141</ns3:hr>
            <ns3:cad>79</ns3:cad>
          </ns3:TrackPointExtension>
        </extensions>
      </trkpt>
      <trkpt lat="52.2712934575974941253662109375" lon="1.62454736419022083282470703125">
        <ele>-153</ele>
        <time>2025-09-07T08:59:43.000Z</time>
        <extensions>
          <ns3:TrackPointExtension>
            <ns3:hr>142</ns3:hr>
            <ns3:cad>80</ns3:cad>
          </ns3:TrackPointExtension>
        </extensions>
      </trkpt>
      <trkpt lat="52.27136612869799137115478515625" lon="1.62451568059623241424560546875">
        <ele>-152</ele>
        <time>2025-09-07T08:59:47.000Z</time>
        <extensions>
          <ns3:TrackPointExtension>
            <ns3:hr>141</ns3:hr>
            <ns3:cad>80</ns3:cad>
          </ns3:TrackPointExtension>
        </extensions>
      </trkpt>
      <trkpt lat="52.2713823057711124420166015625" lon="1.62451534532010555267333984375">
        <ele>-151.600006103515625</ele>
        <time>2025-09-07T08:59:48.000Z</time>
        <extensions>
          <ns3:TrackPointExtension>
            <ns3:hr>144</ns3:hr>
            <ns3:cad>80</ns3:cad>
          </ns3:TrackPointExtension>
        </extensions>
      </trkpt>
      <trkpt lat="52.27143636904656887054443359375" lon="1.6244850866496562957763671875">
        <ele>-150.399993896484375</ele>
        <time>2025-09-07T08:59:51.000Z</time>
        <extensions>
          <ns3:TrackPointExtension>
            <ns3:hr>143</ns3:hr>
            <ns3:cad>81</ns3:cad>
          </ns3:TrackPointExtension>
        </extensions>
      </trkpt>
      <trkpt lat="52.27149168960750102996826171875" lon="1.624423898756504058837890625">
        <ele>-149.399993896484375</ele>
        <time>2025-09-07T08:59:54.000Z</time>
        <extensions>
          <ns3:TrackPointExtension>
            <ns3:hr>146</ns3:hr>
            <ns3:cad>81</ns3:cad>
          </ns3:TrackPointExtension>
        </extensions>
      </trkpt>
      <trkpt lat="52.27151733823120594024658203125" lon="1.6243767924606800079345703125">
        <ele>-149.1999969482421875</ele>
        <time>2025-09-07T08:59:56.000Z</time>
        <extensions>
          <ns3:TrackPointExtension>
            <ns3:hr>147</ns3:hr>
            <ns3:cad>81</ns3:cad>
          </ns3:TrackPointExtension>
        </extensions>
      </trkpt>
      <trkpt lat="52.271528653800487518310546875" lon="1.62434854544699192047119140625">
        <ele>-148.399993896484375</ele>
        <time>2025-09-07T08:59:57.000Z</time>
        <extensions>
          <ns3:TrackPointExtension>
            <ns3:hr>148</ns3:hr>
            <ns3:cad>80</ns3:cad>
          </ns3:TrackPointExtension>
        </extensions>
      </trkpt>
      <trkpt lat="52.27154214866459369659423828125" lon="1.62431904114782810211181640625">
        <ele>-147.1999969482421875</ele>
        <time>2025-09-07T08:59:58.000Z</time>
        <extensions>
          <ns3:TrackPointExtension>
            <ns3:hr>147</ns3:hr>
            <ns3:cad>80</ns3:cad>
          </ns3:TrackPointExtension>
        </extensions>
      </trkpt>
      <trkpt lat="52.271572239696979522705078125" lon="1.62426103837788105010986328125">
        <ele>-146.1999969482421875</ele>
        <time>2025-09-07T09:00:01.000Z</time>
        <extensions>
          <ns3:TrackPointExtension>
            <ns3:hr>146</ns3:hr>
            <ns3:cad>80</ns3:cad>
          </ns3:TrackPointExtension>
        </extensions>
      </trkpt>
      <trkpt lat="52.27160501293838024139404296875" lon="1.62419113330543041229248046875">
        <ele>-145.399993896484375</ele>
        <time>2025-09-07T09:00:05.000Z</time>
        <extensions>
          <ns3:TrackPointExtension>
            <ns3:hr>147</ns3:hr>
            <ns3:cad>80</ns3:cad>
          </ns3:TrackPointExtension>
        </extensions>
      </trkpt>
      <trkpt lat="52.27167122997343540191650390625" lon="1.62397630512714385986328125">
        <ele>-145.1999969482421875</ele>
        <time>2025-09-07T09:00:12.000Z</time>
        <extensions>
          <ns3:TrackPointExtension>
            <ns3:hr>147</ns3:hr>
            <ns3:cad>80</ns3:cad>
          </ns3:TrackPointExtension>
        </extensions>
      </trkpt>
      <trkpt lat="52.27168799377977848052978515625" lon="1.62391117773950099945068359375">
        <ele>-144.8000030517578125</ele>
        <time>2025-09-07T09:00:14.000Z</time>
        <extensions>
          <ns3:TrackPointExtension>
            <ns3:hr>148</ns3:hr>
            <ns3:cad>81</ns3:cad>
          </ns3:TrackPointExtension>
        </extensions>
      </trkpt>
      <trkpt lat="52.2716899216175079345703125" lon="1.6238804161548614501953125">
        <ele>-144</ele>
        <time>2025-09-07T09:00:15.000Z</time>
        <extensions>
          <ns3:TrackPointExtension>
            <ns3:hr>148</ns3:hr>
            <ns3:cad>81</ns3:cad>
          </ns3:TrackPointExtension>
        </extensions>
      </trkpt>
      <trkpt lat="52.27173484861850738525390625" lon="1.6237501613795757293701171875">
        <ele>-142.8000030517578125</ele>
        <time>2025-09-07T09:00:21.000Z</time>
        <extensions>
          <ns3:TrackPointExtension>
            <ns3:hr>146</ns3:hr>
            <ns3:cad>79</ns3:cad>
          </ns3:TrackPointExtension>
        </extensions>
      </trkpt>
      <trkpt lat="52.27179980836808681488037109375" lon="1.62369123660027980804443359375">
        <ele>-141.1999969482421875</ele>
        <time>2025-09-07T09:00:27.000Z</time>
        <extensions>
          <ns3:TrackPointExtension>
            <ns3:hr>146</ns3:hr>
            <ns3:cad>80</ns3:cad>
          </ns3:TrackPointExtension>
        </extensions>
      </trkpt>
      <trkpt lat="52.27183350361883640289306640625" lon="1.6236660070717334747314453125">
        <ele>-142.399993896484375</ele>
        <time>2025-09-07T09:00:29.000Z</time>
        <extensions>
          <ns3:TrackPointExtension>
            <ns3:hr>146</ns3:hr>
            <ns3:cad>81</ns3:cad>
          </ns3:TrackPointExtension>
        </extensions>
      </trkpt>
      <trkpt lat="52.2718469984829425811767578125" lon="1.62365980446338653564453125">
        <ele>-141.399993896484375</ele>
        <time>2025-09-07T09:00:30.000Z</time>
        <extensions>
          <ns3:TrackPointExtension>
            <ns3:hr>146</ns3:hr>
            <ns3:cad>81</ns3:cad>
          </ns3:TrackPointExtension>
        </extensions>
      </trkpt>
      <trkpt lat="52.27187138982117176055908203125" lon="1.62363893352448940277099609375">
        <ele>-141.600006103515625</ele>
        <time>2025-09-07T09:00:31.000Z</time>
        <extensions>
          <ns3:TrackPointExtension>
            <ns3:hr>147</ns3:hr>
            <ns3:cad>80</ns3:cad>
          </ns3:TrackPointExtension>
        </extensions>
      </trkpt>
      <trkpt lat="52.27201472036540508270263671875" lon="1.6235422901809215545654296875">
        <ele>-141.600006103515625</ele>
        <time>2025-09-07T09:00:39.000Z</time>
        <extensions>
          <ns3:TrackPointExtension>
            <ns3:hr>150</ns3:hr>
            <ns3:cad>79</ns3:cad>
          </ns3:TrackPointExtension>
        </extensions>
      </trkpt>
      <trkpt lat="52.27203215472400188446044921875" lon="1.62352435290813446044921875">
        <ele>-141.600006103515625</ele>
        <time>2025-09-07T09:00:40.000Z</time>
        <extensions>
          <ns3:TrackPointExtension>
            <ns3:hr>150</ns3:hr>
            <ns3:cad>79</ns3:cad>
          </ns3:TrackPointExtension>
        </extensions>
      </trkpt>
      <trkpt lat="52.27218520827591419219970703125" lon="1.62344992160797119140625">
        <ele>-142.399993896484375</ele>
        <time>2025-09-07T09:00:46.000Z</time>
        <extensions>
          <ns3:TrackPointExtension>
            <ns3:hr>150</ns3:hr>
            <ns3:cad>79</ns3:cad>
          </ns3:TrackPointExtension>
        </extensions>
      </trkpt>
      <trkpt lat="52.27238402701914310455322265625" lon="1.6233186610043048858642578125">
        <ele>-142</ele>
        <time>2025-09-07T09:00:54.000Z</time>
        <extensions>
          <ns3:TrackPointExtension>
            <ns3:hr>148</ns3:hr>
            <ns3:cad>79</ns3:cad>
          </ns3:TrackPointExtension>
        </extensions>
      </trkpt>
      <trkpt lat="52.272407747805118560791015625" lon="1.6232982091605663299560546875">
        <ele>-142</ele>
        <time>2025-09-07T09:00:55.000Z</time>
        <extensions>
          <ns3:TrackPointExtension>
            <ns3:hr>148</ns3:hr>
            <ns3:cad>79</ns3:cad>
          </ns3:TrackPointExtension>
        </extensions>
      </trkpt>
      <trkpt lat="52.2725732065737247467041015625" lon="1.6231490112841129302978515625">
        <ele>-142.8000030517578125</ele>
        <time>2025-09-07T09:01:02.000Z</time>
        <extensions>
          <ns3:TrackPointExtension>
            <ns3:hr>151</ns3:hr>
            <ns3:cad>79</ns3:cad>
          </ns3:TrackPointExtension>
        </extensions>
      </trkpt>
      <trkpt lat="52.27261637337505817413330078125" lon="1.62311531603336334228515625">
        <ele>-143</ele>
        <time>2025-09-07T09:01:04.000Z</time>
        <extensions>
          <ns3:TrackPointExtension>
            <ns3:hr>150</ns3:hr>
            <ns3:cad>79</ns3:cad>
          </ns3:TrackPointExtension>
        </extensions>
      </trkpt>
      <trkpt lat="52.2726530022919178009033203125" lon="1.6230822913348674774169921875">
        <ele>-143.600006103515625</ele>
        <time>2025-09-07T09:01:06.000Z</time>
        <extensions>
          <ns3:TrackPointExtension>
            <ns3:hr>150</ns3:hr>
            <ns3:cad>79</ns3:cad>
          </ns3:TrackPointExtension>
        </extensions>
      </trkpt>
      <trkpt lat="52.2727116756141185760498046875" lon="1.62303191609680652618408203125">
        <ele>-144.8000030517578125</ele>
        <time>2025-09-07T09:01:10.000Z</time>
        <extensions>
          <ns3:TrackPointExtension>
            <ns3:hr>150</ns3:hr>
            <ns3:cad>80</ns3:cad>
          </ns3:TrackPointExtension>
        </extensions>
      </trkpt>
      <trkpt lat="52.2727458737790584564208984375" lon="1.62301096133887767791748046875">
        <ele>-145.399993896484375</ele>
        <time>2025-09-07T09:01:13.000Z</time>
        <extensions>
          <ns3:TrackPointExtension>
            <ns3:hr>148</ns3:hr>
            <ns3:cad>79</ns3:cad>
          </ns3:TrackPointExtension>
        </extensions>
      </trkpt>
      <trkpt lat="52.27276925928890705108642578125" lon="1.62301875650882720947265625">
        <ele>-145.8000030517578125</ele>
        <time>2025-09-07T09:01:15.000Z</time>
        <extensions>
          <ns3:TrackPointExtension>
            <ns3:hr>148</ns3:hr>
            <ns3:cad>79</ns3:cad>
          </ns3:TrackPointExtension>
        </extensions>
      </trkpt>
      <trkpt lat="52.27280563674867153167724609375" lon="1.62309922277927398681640625">
        <ele>-146</ele>
        <time>2025-09-07T09:01:19.000Z</time>
        <extensions>
          <ns3:TrackPointExtension>
            <ns3:hr>145</ns3:hr>
            <ns3:cad>0</ns3:cad>
          </ns3:TrackPointExtension>
        </extensions>
      </trkpt>
      <trkpt lat="52.2728374041616916656494140625" lon="1.62320910952985286712646484375">
        <ele>-147.1999969482421875</ele>
        <time>2025-09-07T09:01:23.000Z</time>
        <extensions>
          <ns3:TrackPointExtension>
            <ns3:hr>145</ns3:hr>
            <ns3:cad>80</ns3:cad>
          </ns3:TrackPointExtension>
        </extensions>
      </trkpt>
      <trkpt lat="52.27286296896636486053466796875" lon="1.62330281920731067657470703125">
        <ele>-148</ele>
        <time>2025-09-07T09:01:26.000Z</time>
        <extensions>
          <ns3:TrackPointExtension>
            <ns3:hr>145</ns3:hr>
            <ns3:cad>80</ns3:cad>
          </ns3:TrackPointExtension>
        </extensions>
      </trkpt>
      <trkpt lat="52.27286749519407749176025390625" lon="1.6233359277248382568359375">
        <ele>-148.399993896484375</ele>
        <time>2025-09-07T09:01:27.000Z</time>
        <extensions>
          <ns3:TrackPointExtension>
            <ns3:hr>145</ns3:hr>
            <ns3:cad>81</ns3:cad>
          </ns3:TrackPointExtension>
        </extensions>
      </trkpt>
      <trkpt lat="52.2729037888348102569580078125" lon="1.62356617860496044158935546875">
        <ele>-149.399993896484375</ele>
        <time>2025-09-07T09:01:34.000Z</time>
        <extensions>
          <ns3:TrackPointExtension>
            <ns3:hr>144</ns3:hr>
            <ns3:cad>80</ns3:cad>
          </ns3:TrackPointExtension>
        </extensions>
      </trkpt>
      <trkpt lat="52.2729198820888996124267578125" lon="1.6236738860607147216796875">
        <ele>-150.399993896484375</ele>
        <time>2025-09-07T09:01:37.000Z</time>
        <extensions>
          <ns3:TrackPointExtension>
            <ns3:hr>144</ns3:hr>
            <ns3:cad>81</ns3:cad>
          </ns3:TrackPointExtension>
        </extensions>
      </trkpt>
      <trkpt lat="52.2729232348501682281494140625" lon="1.62380388937890529632568359375">
        <ele>-151.600006103515625</ele>
        <time>2025-09-07T09:01:41.000Z</time>
        <extensions>
          <ns3:TrackPointExtension>
            <ns3:hr>145</ns3:hr>
            <ns3:cad>81</ns3:cad>
          </ns3:TrackPointExtension>
        </extensions>
      </trkpt>
      <trkpt lat="52.2729299403727054595947265625" lon="1.62402383051812648773193359375">
        <ele>-152.1999969482421875</ele>
        <time>2025-09-07T09:01:48.000Z</time>
        <extensions>
          <ns3:TrackPointExtension>
            <ns3:hr>145</ns3:hr>
            <ns3:cad>79</ns3:cad>
          </ns3:TrackPointExtension>
        </extensions>
      </trkpt>
      <trkpt lat="52.27293522097170352935791015625" lon="1.624095328152179718017578125">
        <ele>-152.1999969482421875</ele>
        <time>2025-09-07T09:01:53.000Z</time>
        <extensions>
          <ns3:TrackPointExtension>
            <ns3:hr>144</ns3:hr>
            <ns3:cad>0</ns3:cad>
          </ns3:TrackPointExtension>
        </extensions>
      </trkpt>
      <trkpt lat="52.27292315103113651275634765625" lon="1.62419750355184078216552734375">
        <ele>-150</ele>
        <time>2025-09-07T09:01:59.000Z</time>
        <extensions>
          <ns3:TrackPointExtension>
            <ns3:hr>142</ns3:hr>
            <ns3:cad>58</ns3:cad>
          </ns3:TrackPointExtension>
        </extensions>
      </trkpt>
      <trkpt lat="52.27292449213564395904541015625" lon="1.62421795539557933807373046875">
        <ele>-148.399993896484375</ele>
        <time>2025-09-07T09:02:00.000Z</time>
        <extensions>
          <ns3:TrackPointExtension>
            <ns3:hr>141</ns3:hr>
            <ns3:cad>58</ns3:cad>
          </ns3:TrackPointExtension>
        </extensions>
      </trkpt>
      <trkpt lat="52.27292516268789768218994140625" lon="1.624237485229969024658203125">
        <ele>-147.600006103515625</ele>
        <time>2025-09-07T09:02:01.000Z</time>
        <extensions>
          <ns3:TrackPointExtension>
            <ns3:hr>139</ns3:hr>
            <ns3:cad>59</ns3:cad>
          </ns3:TrackPointExtension>
        </extensions>
      </trkpt>
      <trkpt lat="52.2729259170591831207275390625" lon="1.62426070310175418853759765625">
        <ele>-147.399993896484375</ele>
        <time>2025-09-07T09:02:02.000Z</time>
        <extensions>
          <ns3:TrackPointExtension>
            <ns3:hr>138</ns3:hr>
            <ns3:cad>59</ns3:cad>
          </ns3:TrackPointExtension>
        </extensions>
      </trkpt>
      <trkpt lat="52.27292574942111968994140625" lon="1.62433966062963008880615234375">
        <ele>-147</ele>
        <time>2025-09-07T09:02:05.000Z</time>
        <extensions>
          <ns3:TrackPointExtension>
            <ns3:hr>135</ns3:hr>
            <ns3:cad>58</ns3:cad>
          </ns3:TrackPointExtension>
        </extensions>
      </trkpt>
      <trkpt lat="52.27294343523681163787841796875" lon="1.6244297660887241363525390625">
        <ele>-147</ele>
        <time>2025-09-07T09:02:09.000Z</time>
        <extensions>
          <ns3:TrackPointExtension>
            <ns3:hr>133</ns3:hr>
            <ns3:cad>59</ns3:cad>
          </ns3:TrackPointExtension>
        </extensions>
      </trkpt>
      <trkpt lat="52.2730037011206150054931640625" lon="1.6245678998529911041259765625">
        <ele>-148.399993896484375</ele>
        <time>2025-09-07T09:02:16.000Z</time>
        <extensions>
          <ns3:TrackPointExtension>
            <ns3:hr>133</ns3:hr>
            <ns3:cad>58</ns3:cad>
          </ns3:TrackPointExtension>
        </extensions>
      </trkpt>
      <trkpt lat="52.27300864644348621368408203125" lon="1.62459480576217174530029296875">
        <ele>-148.399993896484375</ele>
        <time>2025-09-07T09:02:17.000Z</time>
        <extensions>
          <ns3:TrackPointExtension>
            <ns3:hr>132</ns3:hr>
            <ns3:cad>58</ns3:cad>
          </ns3:TrackPointExtension>
        </extensions>
      </trkpt>
      <trkpt lat="52.27301334030926227569580078125" lon="1.62464593537151813507080078125">
        <ele>-149.399993896484375</ele>
        <time>2025-09-07T09:02:19.000Z</time>
        <extensions>
          <ns3:TrackPointExtension>
            <ns3:hr>132</ns3:hr>
            <ns3:cad>75</ns3:cad>
          </ns3:TrackPointExtension>
        </extensions>
      </trkpt>
      <trkpt lat="52.27302641607820987701416015625" lon="1.62471785210072994232177734375">
        <ele>-150.600006103515625</ele>
        <time>2025-09-07T09:02:22.000Z</time>
        <extensions>
          <ns3:TrackPointExtension>
            <ns3:hr>133</ns3:hr>
            <ns3:cad>78</ns3:cad>
          </ns3:TrackPointExtension>
        </extensions>
      </trkpt>
      <trkpt lat="52.273048460483551025390625" lon="1.62477535195648670196533203125">
        <ele>-153.399993896484375</ele>
        <time>2025-09-07T09:02:25.000Z</time>
        <extensions>
          <ns3:TrackPointExtension>
            <ns3:hr>130</ns3:hr>
            <ns3:cad>79</ns3:cad>
          </ns3:TrackPointExtension>
        </extensions>
      </trkpt>
      <trkpt lat="52.27305659092962741851806640625" lon="1.624796725809574127197265625">
        <ele>-154.600006103515625</ele>
        <time>2025-09-07T09:02:26.000Z</time>
        <extensions>
          <ns3:TrackPointExtension>
            <ns3:hr>131</ns3:hr>
            <ns3:cad>79</ns3:cad>
          </ns3:TrackPointExtension>
        </extensions>
      </trkpt>
      <trkpt lat="52.27306413464248180389404296875" lon="1.62485028617084026336669921875">
        <ele>-155.8000030517578125</ele>
        <time>2025-09-07T09:02:28.000Z</time>
        <extensions>
          <ns3:TrackPointExtension>
            <ns3:hr>135</ns3:hr>
            <ns3:cad>79</ns3:cad>
          </ns3:TrackPointExtension>
        </extensions>
      </trkpt>
      <trkpt lat="52.273096404969692230224609375" lon="1.6249843128025531768798828125">
        <ele>-156.399993896484375</ele>
        <time>2025-09-07T09:02:32.000Z</time>
        <extensions>
          <ns3:TrackPointExtension>
            <ns3:hr>138</ns3:hr>
            <ns3:cad>80</ns3:cad>
          </ns3:TrackPointExtension>
        </extensions>
      </trkpt>
      <trkpt lat="52.27310621179640293121337890625" lon="1.6250185109674930572509765625">
        <ele>-157</ele>
        <time>2025-09-07T09:02:33.000Z</time>
        <extensions>
          <ns3:TrackPointExtension>
            <ns3:hr>138</ns3:hr>
            <ns3:cad>80</ns3:cad>
          </ns3:TrackPointExtension>
        </extensions>
      </trkpt>
      <trkpt lat="52.2731116600334644317626953125" lon="1.62504893727600574493408203125">
        <ele>-157.1999969482421875</ele>
        <time>2025-09-07T09:02:34.000Z</time>
        <extensions>
          <ns3:TrackPointExtension>
            <ns3:hr>139</ns3:hr>
            <ns3:cad>80</ns3:cad>
          </ns3:TrackPointExtension>
        </extensions>
      </trkpt>
      <trkpt lat="52.27317226119339466094970703125" lon="1.6252766735851764678955078125">
        <ele>-158</ele>
        <time>2025-09-07T09:02:41.000Z</time>
        <extensions>
          <ns3:TrackPointExtension>
            <ns3:hr>139</ns3:hr>
            <ns3:cad>79</ns3:cad>
          </ns3:TrackPointExtension>
        </extensions>
      </trkpt>
      <trkpt lat="52.27318315766751766204833984375" lon="1.62535739131271839141845703125">
        <ele>-158</ele>
        <time>2025-09-07T09:02:43.000Z</time>
        <extensions>
          <ns3:TrackPointExtension>
            <ns3:hr>140</ns3:hr>
            <ns3:cad>79</ns3:cad>
          </ns3:TrackPointExtension>
        </extensions>
      </trkpt>
      <trkpt lat="52.2732471115887165069580078125" lon="1.6255871392786502838134765625">
        <ele>-157.600006103515625</ele>
        <time>2025-09-07T09:02:51.000Z</time>
        <extensions>
          <ns3:TrackPointExtension>
            <ns3:hr>142</ns3:hr>
            <ns3:cad>79</ns3:cad>
          </ns3:TrackPointExtension>
        </extensions>
      </trkpt>
      <trkpt lat="52.2732625342905521392822265625" lon="1.62583180703222751617431640625">
        <ele>-157.600006103515625</ele>
        <time>2025-09-07T09:02:59.000Z</time>
        <extensions>
          <ns3:TrackPointExtension>
            <ns3:hr>143</ns3:hr>
            <ns3:cad>79</ns3:cad>
          </ns3:TrackPointExtension>
        </extensions>
      </trkpt>
      <trkpt lat="52.2732742689549922943115234375" lon="1.62609122693538665771484375">
        <ele>-158.8000030517578125</ele>
        <time>2025-09-07T09:03:06.000Z</time>
        <extensions>
          <ns3:TrackPointExtension>
            <ns3:hr>144</ns3:hr>
            <ns3:cad>79</ns3:cad>
          </ns3:TrackPointExtension>
        </extensions>
      </trkpt>
      <trkpt lat="52.2732883505523204803466796875" lon="1.62620027549564838409423828125">
        <ele>-159.1999969482421875</ele>
        <time>2025-09-07T09:03:09.000Z</time>
        <extensions>
          <ns3:TrackPointExtension>
            <ns3:hr>144</ns3:hr>
            <ns3:cad>79</ns3:cad>
          </ns3:TrackPointExtension>
        </extensions>
      </trkpt>
      <trkpt lat="52.273315005004405975341796875" lon="1.6263612918555736541748046875">
        <ele>-159.8000030517578125</ele>
        <time>2025-09-07T09:03:14.000Z</time>
        <extensions>
          <ns3:TrackPointExtension>
            <ns3:hr>146</ns3:hr>
            <ns3:cad>80</ns3:cad>
          </ns3:TrackPointExtension>
        </extensions>
      </trkpt>
      <trkpt lat="52.27330871857702732086181640625" lon="1.62648324854671955108642578125">
        <ele>-160.8000030517578125</ele>
        <time>2025-09-07T09:03:17.000Z</time>
        <extensions>
          <ns3:TrackPointExtension>
            <ns3:hr>147</ns3:hr>
            <ns3:cad>79</ns3:cad>
          </ns3:TrackPointExtension>
        </extensions>
      </trkpt>
      <trkpt lat="52.27330788038671016693115234375" lon="1.626585088670253753662109375">
        <ele>-163</ele>
        <time>2025-09-07T09:03:20.000Z</time>
        <extensions>
          <ns3:TrackPointExtension>
            <ns3:hr>149</ns3:hr>
            <ns3:cad>79</ns3:cad>
          </ns3:TrackPointExtension>
        </extensions>
      </trkpt>
      <trkpt lat="52.27331324480473995208740234375" lon="1.62665273062884807586669921875">
        <ele>-164.399993896484375</ele>
        <time>2025-09-07T09:03:22.000Z</time>
        <extensions>
          <ns3:TrackPointExtension>
            <ns3:hr>149</ns3:hr>
            <ns3:cad>79</ns3:cad>
          </ns3:TrackPointExtension>
        </extensions>
      </trkpt>
      <trkpt lat="52.27332347072660923004150390625" lon="1.626794300973415374755859375">
        <ele>-165.1999969482421875</ele>
        <time>2025-09-07T09:03:26.000Z</time>
        <extensions>
          <ns3:TrackPointExtension>
            <ns3:hr>148</ns3:hr>
            <ns3:cad>79</ns3:cad>
          </ns3:TrackPointExtension>
        </extensions>
      </trkpt>
      <trkpt lat="52.273343838751316070556640625" lon="1.6269148327410221099853515625">
        <ele>-165.8000030517578125</ele>
        <time>2025-09-07T09:03:30.000Z</time>
        <extensions>
          <ns3:TrackPointExtension>
            <ns3:hr>148</ns3:hr>
            <ns3:cad>80</ns3:cad>
          </ns3:TrackPointExtension>
        </extensions>
      </trkpt>
      <trkpt lat="52.2733681462705135345458984375" lon="1.6269976459443569183349609375">
        <ele>-167</ele>
        <time>2025-09-07T09:03:33.000Z</time>
        <extensions>
          <ns3:TrackPointExtension>
            <ns3:hr>149</ns3:hr>
            <ns3:cad>80</ns3:cad>
          </ns3:TrackPointExtension>
        </extensions>
      </trkpt>
      <trkpt lat="52.27336755953729152679443359375" lon="1.627060510218143463134765625">
        <ele>-167</ele>
        <time>2025-09-07T09:03:35.000Z</time>
        <extensions>
          <ns3:TrackPointExtension>
            <ns3:hr>149</ns3:hr>
            <ns3:cad>80</ns3:cad>
          </ns3:TrackPointExtension>
        </extensions>
      </trkpt>
      <trkpt lat="52.27334978990256786346435546875" lon="1.6272251307964324951171875">
        <ele>-168</ele>
        <time>2025-09-07T09:03:40.000Z</time>
        <extensions>
          <ns3:TrackPointExtension>
            <ns3:hr>149</ns3:hr>
            <ns3:cad>79</ns3:cad>
          </ns3:TrackPointExtension>
        </extensions>
      </trkpt>
      <trkpt lat="52.273349873721599578857421875" lon="1.62725756876170635223388671875">
        <ele>-167.1999969482421875</ele>
        <time>2025-09-07T09:03:41.000Z</time>
        <extensions>
          <ns3:TrackPointExtension>
            <ns3:hr>147</ns3:hr>
            <ns3:cad>80</ns3:cad>
          </ns3:TrackPointExtension>
        </extensions>
      </trkpt>
      <trkpt lat="52.2733480297029018402099609375" lon="1.62742386572062969207763671875">
        <ele>-167</ele>
        <time>2025-09-07T09:03:46.000Z</time>
        <extensions>
          <ns3:TrackPointExtension>
            <ns3:hr>144</ns3:hr>
            <ns3:cad>80</ns3:cad>
          </ns3:TrackPointExtension>
        </extensions>
      </trkpt>
      <trkpt lat="52.27334610186517238616943359375" lon="1.62745890207588672637939453125">
        <ele>-166.8000030517578125</ele>
        <time>2025-09-07T09:03:47.000Z</time>
        <extensions>
          <ns3:TrackPointExtension>
            <ns3:hr>144</ns3:hr>
            <ns3:cad>80</ns3:cad>
          </ns3:TrackPointExtension>
        </extensions>
      </trkpt>
      <trkpt lat="52.27330603636801242828369140625" lon="1.62768521346151828765869140625">
        <ele>-167.8000030517578125</ele>
        <time>2025-09-07T09:03:54.000Z</time>
        <extensions>
          <ns3:TrackPointExtension>
            <ns3:hr>145</ns3:hr>
            <ns3:cad>79</ns3:cad>
          </ns3:TrackPointExtension>
        </extensions>
      </trkpt>
      <trkpt lat="52.27329614572227001190185546875" lon="1.62775377742946147918701171875">
        <ele>-168.399993896484375</ele>
        <time>2025-09-07T09:03:56.000Z</time>
        <extensions>
          <ns3:TrackPointExtension>
            <ns3:hr>146</ns3:hr>
            <ns3:cad>80</ns3:cad>
          </ns3:TrackPointExtension>
        </extensions>
      </trkpt>
      <trkpt lat="52.27328826673328876495361328125" lon="1.62778730504214763641357421875">
        <ele>-168.8000030517578125</ele>
        <time>2025-09-07T09:03:57.000Z</time>
        <extensions>
          <ns3:TrackPointExtension>
            <ns3:hr>146</ns3:hr>
            <ns3:cad>80</ns3:cad>
          </ns3:TrackPointExtension>
        </extensions>
      </trkpt>
      <trkpt lat="52.273261360824108123779296875" lon="1.6278827749192714691162109375">
        <ele>-170</ele>
        <time>2025-09-07T09:04:00.000Z</time>
        <extensions>
          <ns3:TrackPointExtension>
            <ns3:hr>147</ns3:hr>
            <ns3:cad>80</ns3:cad>
          </ns3:TrackPointExtension>
        </extensions>
      </trkpt>
      <trkpt lat="52.27321433834731578826904296875" lon="1.62799484096467494964599609375">
        <ele>-170.399993896484375</ele>
        <time>2025-09-07T09:04:04.000Z</time>
        <extensions>
          <ns3:TrackPointExtension>
            <ns3:hr>148</ns3:hr>
            <ns3:cad>80</ns3:cad>
          </ns3:TrackPointExtension>
        </extensions>
      </trkpt>
      <trkpt lat="52.2731770388782024383544921875" lon="1.62825115956366062164306640625">
        <ele>-170</ele>
        <time>2025-09-07T09:04:13.000Z</time>
        <extensions>
          <ns3:TrackPointExtension>
            <ns3:hr>148</ns3:hr>
            <ns3:cad>79</ns3:cad>
          </ns3:TrackPointExtension>
        </extensions>
      </trkpt>
      <trkpt lat="52.27318324148654937744140625" lon="1.628369428217411041259765625">
        <ele>-168</ele>
        <time>2025-09-07T09:04:17.000Z</time>
        <extensions>
          <ns3:TrackPointExtension>
            <ns3:hr>149</ns3:hr>
            <ns3:cad>79</ns3:cad>
          </ns3:TrackPointExtension>
        </extensions>
      </trkpt>
      <trkpt lat="52.27320604026317596435546875" lon="1.6284500621259212493896484375">
        <ele>-166.8000030517578125</ele>
        <time>2025-09-07T09:04:20.000Z</time>
        <extensions>
          <ns3:TrackPointExtension>
            <ns3:hr>148</ns3:hr>
            <ns3:cad>79</ns3:cad>
          </ns3:TrackPointExtension>
        </extensions>
      </trkpt>
      <trkpt lat="52.27324116043746471405029296875" lon="1.6285278461873531341552734375">
        <ele>-165.600006103515625</ele>
        <time>2025-09-07T09:04:23.000Z</time>
        <extensions>
          <ns3:TrackPointExtension>
            <ns3:hr>149</ns3:hr>
            <ns3:cad>78</ns3:cad>
          </ns3:TrackPointExtension>
        </extensions>
      </trkpt>
      <trkpt lat="52.2732779569923877716064453125" lon="1.62860252894461154937744140625">
        <ele>-164.399993896484375</ele>
        <time>2025-09-07T09:04:26.000Z</time>
        <extensions>
          <ns3:TrackPointExtension>
            <ns3:hr>149</ns3:hr>
            <ns3:cad>80</ns3:cad>
          </ns3:TrackPointExtension>
        </extensions>
      </trkpt>
      <trkpt lat="52.2733020968735218048095703125" lon="1.62865399383008480072021484375">
        <ele>-164.1999969482421875</ele>
        <time>2025-09-07T09:04:28.000Z</time>
        <extensions>
          <ns3:TrackPointExtension>
            <ns3:hr>150</ns3:hr>
            <ns3:cad>79</ns3:cad>
          </ns3:TrackPointExtension>
        </extensions>
      </trkpt>
      <trkpt lat="52.27337325923144817352294921875" lon="1.6287997551262378692626953125">
        <ele>-163.600006103515625</ele>
        <time>2025-09-07T09:04:35.000Z</time>
        <extensions>
          <ns3:TrackPointExtension>
            <ns3:hr>149</ns3:hr>
            <ns3:cad>79</ns3:cad>
          </ns3:TrackPointExtension>
        </extensions>
      </trkpt>
      <trkpt lat="52.273378707468509674072265625" lon="1.62884761579334735870361328125">
        <ele>-163.399993896484375</ele>
        <time>2025-09-07T09:04:37.000Z</time>
        <extensions>
          <ns3:TrackPointExtension>
            <ns3:hr>149</ns3:hr>
            <ns3:cad>79</ns3:cad>
          </ns3:TrackPointExtension>
        </extensions>
      </trkpt>
      <trkpt lat="52.27338172495365142822265625" lon="1.628935374319553375244140625">
        <ele>-162</ele>
        <time>2025-09-07T09:04:41.000Z</time>
        <extensions>
          <ns3:TrackPointExtension>
            <ns3:hr>149</ns3:hr>
            <ns3:cad>79</ns3:cad>
          </ns3:TrackPointExtension>
        </extensions>
      </trkpt>
      <trkpt lat="52.2733822278678417205810546875" lon="1.62898306734859943389892578125">
        <ele>-161.399993896484375</ele>
        <time>2025-09-07T09:04:43.000Z</time>
        <extensions>
          <ns3:TrackPointExtension>
            <ns3:hr>147</ns3:hr>
            <ns3:cad>78</ns3:cad>
          </ns3:TrackPointExtension>
        </extensions>
      </trkpt>
      <trkpt lat="52.273433022201061248779296875" lon="1.62906101904809474945068359375">
        <ele>-160.8000030517578125</ele>
        <time>2025-09-07T09:04:47.000Z</time>
        <extensions>
          <ns3:TrackPointExtension>
            <ns3:hr>146</ns3:hr>
            <ns3:cad>78</ns3:cad>
          </ns3:TrackPointExtension>
        </extensions>
      </trkpt>
      <trkpt lat="52.27348557673394680023193359375" lon="1.629085578024387359619140625">
        <ele>-160.399993896484375</ele>
        <time>2025-09-07T09:04:49.000Z</time>
        <extensions>
          <ns3:TrackPointExtension>
            <ns3:hr>146</ns3:hr>
            <ns3:cad>80</ns3:cad>
          </ns3:TrackPointExtension>
        </extensions>
      </trkpt>
      <trkpt lat="52.27353134192526340484619140625" lon="1.6290877573192119598388671875">
        <ele>-160.399993896484375</ele>
        <time>2025-09-07T09:04:50.000Z</time>
        <extensions>
          <ns3:TrackPointExtension>
            <ns3:hr>149</ns3:hr>
            <ns3:cad>80</ns3:cad>
          </ns3:TrackPointExtension>
        </extensions>
      </trkpt>
      <trkpt lat="52.2735823877155780792236328125" lon="1.62907979451119899749755859375">
        <ele>-160.8000030517578125</ele>
        <time>2025-09-07T09:04:56.000Z</time>
        <extensions>
          <ns3:TrackPointExtension>
            <ns3:hr>151</ns3:hr>
            <ns3:cad>0</ns3:cad>
          </ns3:TrackPointExtension>
        </extensions>
      </trkpt>
      <trkpt lat="52.2735854052007198333740234375" lon="1.6290884278714656829833984375">
        <ele>-162</ele>
        <time>2025-09-07T09:04:59.000Z</time>
        <extensions>
          <ns3:TrackPointExtension>
            <ns3:hr>150</ns3:hr>
            <ns3:cad>0</ns3:cad>
          </ns3:TrackPointExtension>
        </extensions>
      </trkpt>
      <trkpt lat="52.2735860757529735565185546875" lon="1.62908616475760936737060546875">
        <ele>-160.8000030517578125</ele>
        <time>2025-09-07T09:05:02.000Z</time>
        <extensions>
          <ns3:TrackPointExtension>
            <ns3:hr>148</ns3:hr>
            <ns3:cad>0</ns3:cad>
          </ns3:TrackPointExtension>
        </extensions>
      </trkpt>
      <trkpt lat="52.27359361946582794189453125" lon="1.629092283546924591064453125">
        <ele>-160.399993896484375</ele>
        <time>2025-09-07T09:05:04.000Z</time>
        <extensions>
          <ns3:TrackPointExtension>
            <ns3:hr>145</ns3:hr>
            <ns3:cad>0</ns3:cad>
          </ns3:TrackPointExtension>
        </extensions>
      </trkpt>
      <trkpt lat="52.2735942900180816650390625" lon="1.6290974803268909454345703125">
        <ele>-160.399993896484375</ele>
        <time>2025-09-07T09:05:05.000Z</time>
        <extensions>
          <ns3:TrackPointExtension>
            <ns3:hr>143</ns3:hr>
            <ns3:cad>0</ns3:cad>
          </ns3:TrackPointExtension>
        </extensions>
      </trkpt>
      <trkpt lat="52.27360376156866550445556640625" lon="1.62910343147814273834228515625">
        <ele>-162.1999969482421875</ele>
        <time>2025-09-07T09:05:07.000Z</time>
        <extensions>
          <ns3:TrackPointExtension>
            <ns3:hr>140</ns3:hr>
            <ns3:cad>0</ns3:cad>
          </ns3:TrackPointExtension>
        </extensions>
      </trkpt>
      <trkpt lat="52.2736058570444583892822265625" lon="1.62910426966845989227294921875">
        <ele>-162.8000030517578125</ele>
        <time>2025-09-07T09:05:10.000Z</time>
        <extensions>
          <ns3:TrackPointExtension>
            <ns3:hr>137</ns3:hr>
            <ns3:cad>0</ns3:cad>
          </ns3:TrackPointExtension>
        </extensions>
      </trkpt>
      <trkpt lat="52.2736008279025554656982421875" lon="1.62909639067947864532470703125">
        <ele>-160.399993896484375</ele>
        <time>2025-09-07T09:05:13.000Z</time>
        <extensions>
          <ns3:TrackPointExtension>
            <ns3:hr>137</ns3:hr>
            <ns3:cad>0</ns3:cad>
          </ns3:TrackPointExtension>
        </extensions>
      </trkpt>
      <trkpt lat="52.2735941223800182342529296875" lon="1.62910192273557186126708984375">
        <ele>-160</ele>
        <time>2025-09-07T09:05:14.000Z</time>
        <extensions>
          <ns3:TrackPointExtension>
            <ns3:hr>136</ns3:hr>
            <ns3:cad>0</ns3:cad>
          </ns3:TrackPointExtension>
        </extensions>
      </trkpt>
      <trkpt lat="52.2735917754471302032470703125" lon="1.62910242564976215362548828125">
        <ele>-159.399993896484375</ele>
        <time>2025-09-07T09:05:16.000Z</time>
        <extensions>
          <ns3:TrackPointExtension>
            <ns3:hr>135</ns3:hr>
            <ns3:cad>0</ns3:cad>
          </ns3:TrackPointExtension>
        </extensions>
      </trkpt>
      <trkpt lat="52.2735862433910369873046875" lon="1.62909806706011295318603515625">
        <ele>-158.1999969482421875</ele>
        <time>2025-09-07T09:05:20.000Z</time>
        <extensions>
          <ns3:TrackPointExtension>
            <ns3:hr>135</ns3:hr>
            <ns3:cad>0</ns3:cad>
          </ns3:TrackPointExtension>
        </extensions>
      </trkpt>
      <trkpt lat="52.27359320037066936492919921875" lon="1.62909672595560550689697265625">
        <ele>-158</ele>
        <time>2025-09-07T09:05:22.000Z</time>
        <extensions>
          <ns3:TrackPointExtension>
            <ns3:hr>134</ns3:hr>
            <ns3:cad>0</ns3:cad>
          </ns3:TrackPointExtension>
        </extensions>
      </trkpt>
      <trkpt lat="52.27359906770288944244384765625" lon="1.629087589681148529052734375">
        <ele>-159</ele>
        <time>2025-09-07T09:05:27.000Z</time>
        <extensions>
          <ns3:TrackPointExtension>
            <ns3:hr>131</ns3:hr>
            <ns3:cad>0</ns3:cad>
          </ns3:TrackPointExtension>
        </extensions>
      </trkpt>
      <trkpt lat="52.27359806187450885772705078125" lon="1.6290865838527679443359375">
        <ele>-159.600006103515625</ele>
        <time>2025-09-07T09:05:28.000Z</time>
        <extensions>
          <ns3:TrackPointExtension>
            <ns3:hr>132</ns3:hr>
            <ns3:cad>0</ns3:cad>
          </ns3:TrackPointExtension>
        </extensions>
      </trkpt>
      <trkpt lat="52.2735974751412868499755859375" lon="1.62908432073891162872314453125">
        <ele>-161.1999969482421875</ele>
        <time>2025-09-07T09:05:30.000Z</time>
        <extensions>
          <ns3:TrackPointExtension>
            <ns3:hr>130</ns3:hr>
            <ns3:cad>0</ns3:cad>
          </ns3:TrackPointExtension>
        </extensions>
      </trkpt>
      <trkpt lat="52.27360057644546031951904296875" lon="1.62908348254859447479248046875">
        <ele>-165.8000030517578125</ele>
        <time>2025-09-07T09:05:31.000Z</time>
        <extensions>
          <ns3:TrackPointExtension>
            <ns3:hr>129</ns3:hr>
            <ns3:cad>0</ns3:cad>
          </ns3:TrackPointExtension>
        </extensions>
      </trkpt>
      <trkpt lat="52.273597307503223419189453125" lon="1.6290839016437530517578125">
        <ele>-168</ele>
        <time>2025-09-07T09:05:32.000Z</time>
        <extensions>
          <ns3:TrackPointExtension>
            <ns3:hr>130</ns3:hr>
            <ns3:cad>0</ns3:cad>
          </ns3:TrackPointExtension>
        </extensions>
      </trkpt>
      <trkpt lat="52.27359294891357421875" lon="1.62908599711954593658447265625">
        <ele>-169.1999969482421875</ele>
        <time>2025-09-07T09:05:33.000Z</time>
        <extensions>
          <ns3:TrackPointExtension>
            <ns3:hr>131</ns3:hr>
            <ns3:cad>0</ns3:cad>
          </ns3:TrackPointExtension>
        </extensions>
      </trkpt>
      <trkpt lat="52.27358557283878326416015625" lon="1.6290890984237194061279296875">
        <ele>-170.1999969482421875</ele>
        <time>2025-09-07T09:05:36.000Z</time>
        <extensions>
          <ns3:TrackPointExtension>
            <ns3:hr>129</ns3:hr>
            <ns3:cad>0</ns3:cad>
          </ns3:TrackPointExtension>
        </extensions>
      </trkpt>
      <trkpt lat="52.27358129806816577911376953125" lon="1.62909706123173236846923828125">
        <ele>-170.1999969482421875</ele>
        <time>2025-09-07T09:05:38.000Z</time>
        <extensions>
          <ns3:TrackPointExtension>
            <ns3:hr>125</ns3:hr>
            <ns3:cad>0</ns3:cad>
          </ns3:TrackPointExtension>
        </extensions>
      </trkpt>
      <trkpt lat="52.27357727475464344024658203125" lon="1.629105024039745330810546875">
        <ele>-170.399993896484375</ele>
        <time>2025-09-07T09:05:39.000Z</time>
        <extensions>
          <ns3:TrackPointExtension>
            <ns3:hr>122</ns3:hr>
            <ns3:cad>0</ns3:cad>
          </ns3:TrackPointExtension>
        </extensions>
      </trkpt>
      <trkpt lat="52.27357710711658000946044921875" lon="1.6291149146854877471923828125">
        <ele>-170.399993896484375</ele>
        <time>2025-09-07T09:05:40.000Z</time>
        <extensions>
          <ns3:TrackPointExtension>
            <ns3:hr>122</ns3:hr>
            <ns3:cad>0</ns3:cad>
          </ns3:TrackPointExtension>
        </extensions>
      </trkpt>
      <trkpt lat="52.27357610128819942474365234375" lon="1.62912924773991107940673828125">
        <ele>-170.1999969482421875</ele>
        <time>2025-09-07T09:05:42.000Z</time>
        <extensions>
          <ns3:TrackPointExtension>
            <ns3:hr>120</ns3:hr>
            <ns3:cad>0</ns3:cad>
          </ns3:TrackPointExtension>
        </extensions>
      </trkpt>
      <trkpt lat="52.27357241325080394744873046875" lon="1.62915489636361598968505859375">
        <ele>-170</ele>
        <time>2025-09-07T09:05:51.000Z</time>
        <extensions>
          <ns3:TrackPointExtension>
            <ns3:hr>121</ns3:hr>
            <ns3:cad>0</ns3:cad>
          </ns3:TrackPointExtension>
        </extensions>
      </trkpt>
      <trkpt lat="52.2735884226858615875244140625" lon="1.62914081476628780364990234375">
        <ele>-172</ele>
        <time>2025-09-07T09:05:55.000Z</time>
        <extensions>
          <ns3:TrackPointExtension>
            <ns3:hr>118</ns3:hr>
            <ns3:cad>0</ns3:cad>
          </ns3:TrackPointExtension>
        </extensions>
      </trkpt>
      <trkpt lat="52.27359898388385772705078125" lon="1.6291509568691253662109375">
        <ele>-173</ele>
        <time>2025-09-07T09:05:58.000Z</time>
        <extensions>
          <ns3:TrackPointExtension>
            <ns3:hr>118</ns3:hr>
            <ns3:cad>0</ns3:cad>
          </ns3:TrackPointExtension>
        </extensions>
      </trkpt>
      <trkpt lat="52.2736216150224208831787109375" lon="1.6291662119328975677490234375">
        <ele>-175.1999969482421875</ele>
        <time>2025-09-07T09:06:00.000Z</time>
        <extensions>
          <ns3:TrackPointExtension>
            <ns3:hr>118</ns3:hr>
            <ns3:cad>72</ns3:cad>
          </ns3:TrackPointExtension>
        </extensions>
      </trkpt>
      <trkpt lat="52.2736370377242565155029296875" lon="1.62917920388281345367431640625">
        <ele>-177</ele>
        <time>2025-09-07T09:06:01.000Z</time>
        <extensions>
          <ns3:TrackPointExtension>
            <ns3:hr>119</ns3:hr>
            <ns3:cad>72</ns3:cad>
          </ns3:TrackPointExtension>
        </extensions>
      </trkpt>
      <trkpt lat="52.273664362728595733642578125" lon="1.62920217029750347137451171875">
        <ele>-179</ele>
        <time>2025-09-07T09:06:03.000Z</time>
        <extensions>
          <ns3:TrackPointExtension>
            <ns3:hr>123</ns3:hr>
            <ns3:cad>76</ns3:cad>
          </ns3:TrackPointExtension>
        </extensions>
      </trkpt>
      <trkpt lat="52.27367919869720935821533203125" lon="1.6292198561131954193115234375">
        <ele>-180</ele>
        <time>2025-09-07T09:06:04.000Z</time>
        <extensions>
          <ns3:TrackPointExtension>
            <ns3:hr>126</ns3:hr>
            <ns3:cad>76</ns3:cad>
          </ns3:TrackPointExtension>
        </extensions>
      </trkpt>
      <trkpt lat="52.27369696833193302154541015625" lon="1.6292382963001728057861328125">
        <ele>-182.8000030517578125</ele>
        <time>2025-09-07T09:06:05.000Z</time>
        <extensions>
          <ns3:TrackPointExtension>
            <ns3:hr>127</ns3:hr>
            <ns3:cad>77</ns3:cad>
          </ns3:TrackPointExtension>
        </extensions>
      </trkpt>
      <trkpt lat="52.2737094573676586151123046875" lon="1.62926067598164081573486328125">
        <ele>-184.399993896484375</ele>
        <time>2025-09-07T09:06:06.000Z</time>
        <extensions>
          <ns3:TrackPointExtension>
            <ns3:hr>129</ns3:hr>
            <ns3:cad>77</ns3:cad>
          </ns3:TrackPointExtension>
        </extensions>
      </trkpt>
      <trkpt lat="52.2737238742411136627197265625" lon="1.6292895935475826263427734375">
        <ele>-185.399993896484375</ele>
        <time>2025-09-07T09:06:07.000Z</time>
        <extensions>
          <ns3:TrackPointExtension>
            <ns3:hr>130</ns3:hr>
            <ns3:cad>77</ns3:cad>
          </ns3:TrackPointExtension>
        </extensions>
      </trkpt>
      <trkpt lat="52.2737654484808444976806640625" lon="1.62935790605843067169189453125">
        <ele>-186.399993896484375</ele>
        <time>2025-09-07T09:06:10.000Z</time>
        <extensions>
          <ns3:TrackPointExtension>
            <ns3:hr>132</ns3:hr>
            <ns3:cad>79</ns3:cad>
          </ns3:TrackPointExtension>
        </extensions>
      </trkpt>
      <trkpt lat="52.27378346957266330718994140625" lon="1.629447676241397857666015625">
        <ele>-186.600006103515625</ele>
        <time>2025-09-07T09:06:14.000Z</time>
        <extensions>
          <ns3:TrackPointExtension>
            <ns3:hr>134</ns3:hr>
            <ns3:cad>78</ns3:cad>
          </ns3:TrackPointExtension>
        </extensions>
      </trkpt>
      <trkpt lat="52.27378112263977527618408203125" lon="1.62949469871819019317626953125">
        <ele>-186.600006103515625</ele>
        <time>2025-09-07T09:06:16.000Z</time>
        <extensions>
          <ns3:TrackPointExtension>
            <ns3:hr>137</ns3:hr>
            <ns3:cad>79</ns3:cad>
          </ns3:TrackPointExtension>
        </extensions>
      </trkpt>
      <trkpt lat="52.27378581650555133819580078125" lon="1.62953115999698638916015625">
        <ele>-186.399993896484375</ele>
        <time>2025-09-07T09:06:18.000Z</time>
        <extensions>
          <ns3:TrackPointExtension>
            <ns3:hr>140</ns3:hr>
            <ns3:cad>79</ns3:cad>
          </ns3:TrackPointExtension>
        </extensions>
      </trkpt>
      <trkpt lat="52.27383904159069061279296875" lon="1.6296178288757801055908203125">
        <ele>-185.600006103515625</ele>
        <time>2025-09-07T09:06:23.000Z</time>
        <extensions>
          <ns3:TrackPointExtension>
            <ns3:hr>142</ns3:hr>
            <ns3:cad>79</ns3:cad>
          </ns3:TrackPointExtension>
        </extensions>
      </trkpt>
      <trkpt lat="52.273885644972324371337890625" lon="1.629664599895477294921875">
        <ele>-185</ele>
        <time>2025-09-07T09:06:27.000Z</time>
        <extensions>
          <ns3:TrackPointExtension>
            <ns3:hr>141</ns3:hr>
            <ns3:cad>78</ns3:cad>
          </ns3:TrackPointExtension>
        </extensions>
      </trkpt>
      <trkpt lat="52.273895032703876495361328125" lon="1.6297026537358760833740234375">
        <ele>-184</ele>
        <time>2025-09-07T09:06:31.000Z</time>
        <extensions>
          <ns3:TrackPointExtension>
            <ns3:hr>141</ns3:hr>
            <ns3:cad>0</ns3:cad>
          </ns3:TrackPointExtension>
        </extensions>
      </trkpt>
      <trkpt lat="52.27394171990454196929931640625" lon="1.62972536869347095489501953125">
        <ele>-183.1999969482421875</ele>
        <time>2025-09-07T09:06:37.000Z</time>
        <extensions>
          <ns3:TrackPointExtension>
            <ns3:hr>144</ns3:hr>
            <ns3:cad>0</ns3:cad>
          </ns3:TrackPointExtension>
        </extensions>
      </trkpt>
      <trkpt lat="52.27396309375762939453125" lon="1.6297227703034877777099609375">
        <ele>-183</ele>
        <time>2025-09-07T09:06:38.000Z</time>
        <extensions>
          <ns3:TrackPointExtension>
            <ns3:hr>144</ns3:hr>
            <ns3:cad>0</ns3:cad>
          </ns3:TrackPointExtension>
        </extensions>
      </trkpt>
      <trkpt lat="52.27397625334560871124267578125" lon="1.6297314874827861785888671875">
        <ele>-182.8000030517578125</ele>
        <time>2025-09-07T09:06:40.000Z</time>
        <extensions>
          <ns3:TrackPointExtension>
            <ns3:hr>143</ns3:hr>
            <ns3:cad>0</ns3:cad>
          </ns3:TrackPointExtension>
        </extensions>
      </trkpt>
      <trkpt lat="52.27398253977298736572265625" lon="1.629732660949230194091796875">
        <ele>-181.8000030517578125</ele>
        <time>2025-09-07T09:06:42.000Z</time>
        <extensions>
          <ns3:TrackPointExtension>
            <ns3:hr>143</ns3:hr>
            <ns3:cad>0</ns3:cad>
          </ns3:TrackPointExtension>
        </extensions>
      </trkpt>
      <trkpt lat="52.273982204496860504150390625" lon="1.629737354815006256103515625">
        <ele>-179.8000030517578125</ele>
        <time>2025-09-07T09:06:44.000Z</time>
        <extensions>
          <ns3:TrackPointExtension>
            <ns3:hr>143</ns3:hr>
            <ns3:cad>0</ns3:cad>
          </ns3:TrackPointExtension>
        </extensions>
      </trkpt>
      <trkpt lat="52.27398580871522426605224609375" lon="1.6297358460724353790283203125">
        <ele>-178.1999969482421875</ele>
        <time>2025-09-07T09:06:45.000Z</time>
        <extensions>
          <ns3:TrackPointExtension>
            <ns3:hr>142</ns3:hr>
            <ns3:cad>0</ns3:cad>
          </ns3:TrackPointExtension>
        </extensions>
      </trkpt>
      <trkpt lat="52.27398580871522426605224609375" lon="1.62973643280565738677978515625">
        <ele>-176.399993896484375</ele>
        <time>2025-09-07T09:06:46.000Z</time>
        <extensions>
          <ns3:TrackPointExtension>
            <ns3:hr>142</ns3:hr>
            <ns3:cad>0</ns3:cad>
          </ns3:TrackPointExtension>
        </extensions>
      </trkpt>
      <trkpt lat="52.27399167604744434356689453125" lon="1.62973978556692600250244140625">
        <ele>-175</ele>
        <time>2025-09-07T09:06:47.000Z</time>
        <extensions>
          <ns3:TrackPointExtension>
            <ns3:hr>143</ns3:hr>
            <ns3:cad>0</ns3:cad>
          </ns3:TrackPointExtension>
        </extensions>
      </trkpt>
      <trkpt lat="52.27399435825645923614501953125" lon="1.629744730889797210693359375">
        <ele>-173.8000030517578125</ele>
        <time>2025-09-07T09:06:48.000Z</time>
        <extensions>
          <ns3:TrackPointExtension>
            <ns3:hr>141</ns3:hr>
            <ns3:cad>0</ns3:cad>
          </ns3:TrackPointExtension>
        </extensions>
      </trkpt>
      <trkpt lat="52.273990251123905181884765625" lon="1.6297571361064910888671875">
        <ele>-172.399993896484375</ele>
        <time>2025-09-07T09:06:50.000Z</time>
        <extensions>
          <ns3:TrackPointExtension>
            <ns3:hr>139</ns3:hr>
            <ns3:cad>0</ns3:cad>
          </ns3:TrackPointExtension>
        </extensions>
      </trkpt>
      <trkpt lat="52.27402034215629100799560546875" lon="1.62976359017193317413330078125">
        <ele>-171.8000030517578125</ele>
        <time>2025-09-07T09:06:54.000Z</time>
        <extensions>
          <ns3:TrackPointExtension>
            <ns3:hr>136</ns3:hr>
            <ns3:cad>0</ns3:cad>
          </ns3:TrackPointExtension>
        </extensions>
      </trkpt>
      <trkpt lat="52.2740102000534534454345703125" lon="1.62977951578795909881591796875">
        <ele>-172</ele>
        <time>2025-09-07T09:06:59.000Z</time>
        <extensions>
          <ns3:TrackPointExtension>
            <ns3:hr>133</ns3:hr>
            <ns3:cad>0</ns3:cad>
          </ns3:TrackPointExtension>
        </extensions>
      </trkpt>
      <trkpt lat="52.27400994859635829925537109375" lon="1.62978773005306720733642578125">
        <ele>-173.8000030517578125</ele>
        <time>2025-09-07T09:07:03.000Z</time>
        <extensions>
          <ns3:TrackPointExtension>
            <ns3:hr>132</ns3:hr>
            <ns3:cad>0</ns3:cad>
          </ns3:TrackPointExtension>
        </extensions>
      </trkpt>
      <trkpt lat="52.27401581592857837677001953125" lon="1.62979242391884326934814453125">
        <ele>-175.600006103515625</ele>
        <time>2025-09-07T09:07:05.000Z</time>
        <extensions>
          <ns3:TrackPointExtension>
            <ns3:hr>133</ns3:hr>
            <ns3:cad>0</ns3:cad>
          </ns3:TrackPointExtension>
        </extensions>
      </trkpt>
      <trkpt lat="52.27402335964143276214599609375" lon="1.629803739488124847412109375">
        <ele>-176.600006103515625</ele>
        <time>2025-09-07T09:07:07.000Z</time>
        <extensions>
          <ns3:TrackPointExtension>
            <ns3:hr>129</ns3:hr>
            <ns3:cad>0</ns3:cad>
          </ns3:TrackPointExtension>
        </extensions>
      </trkpt>
      <trkpt lat="52.27402947843074798583984375" lon="1.6298102773725986480712890625">
        <ele>-177</ele>
        <time>2025-09-07T09:07:08.000Z</time>
        <extensions>
          <ns3:TrackPointExtension>
            <ns3:hr>130</ns3:hr>
            <ns3:cad>0</ns3:cad>
          </ns3:TrackPointExtension>
        </extensions>
      </trkpt>
      <trkpt lat="52.27407465688884258270263671875" lon="1.629859395325183868408203125">
        <ele>-178.1999969482421875</ele>
        <time>2025-09-07T09:07:12.000Z</time>
        <extensions>
          <ns3:TrackPointExtension>
            <ns3:hr>128</ns3:hr>
            <ns3:cad>54</ns3:cad>
          </ns3:TrackPointExtension>
        </extensions>
      </trkpt>
      <trkpt lat="52.27411773987114429473876953125" lon="1.6298724710941314697265625">
        <ele>-178.600006103515625</ele>
        <time>2025-09-07T09:07:15.000Z</time>
        <extensions>
          <ns3:TrackPointExtension>
            <ns3:hr>128</ns3:hr>
            <ns3:cad>112</ns3:cad>
          </ns3:TrackPointExtension>
        </extensions>
      </trkpt>
      <trkpt lat="52.274142466485500335693359375" lon="1.62990440614521503448486328125">
        <ele>-179.399993896484375</ele>
        <time>2025-09-07T09:07:18.000Z</time>
        <extensions>
          <ns3:TrackPointExtension>
            <ns3:hr>127</ns3:hr>
            <ns3:cad>0</ns3:cad>
          </ns3:TrackPointExtension>
        </extensions>
      </trkpt>
      <trkpt lat="52.27415394969284534454345703125" lon="1.629913710057735443115234375">
        <ele>-179.600006103515625</ele>
        <time>2025-09-07T09:07:19.000Z</time>
        <extensions>
          <ns3:TrackPointExtension>
            <ns3:hr>130</ns3:hr>
            <ns3:cad>77</ns3:cad>
          </ns3:TrackPointExtension>
        </extensions>
      </trkpt>
      <trkpt lat="52.2741775028407573699951171875" lon="1.62994329817593097686767578125">
        <ele>-181.399993896484375</ele>
        <time>2025-09-07T09:07:21.000Z</time>
        <extensions>
          <ns3:TrackPointExtension>
            <ns3:hr>133</ns3:hr>
            <ns3:cad>78</ns3:cad>
          </ns3:TrackPointExtension>
        </extensions>
      </trkpt>
      <trkpt lat="52.27418839931488037109375" lon="1.6299531050026416778564453125">
        <ele>-182.600006103515625</ele>
        <time>2025-09-07T09:07:22.000Z</time>
        <extensions>
          <ns3:TrackPointExtension>
            <ns3:hr>134</ns3:hr>
            <ns3:cad>78</ns3:cad>
          </ns3:TrackPointExtension>
        </extensions>
      </trkpt>
      <trkpt lat="52.27419979870319366455078125" lon="1.6299621574580669403076171875">
        <ele>-184.8000030517578125</ele>
        <time>2025-09-07T09:07:23.000Z</time>
        <extensions>
          <ns3:TrackPointExtension>
            <ns3:hr>135</ns3:hr>
            <ns3:cad>79</ns3:cad>
          </ns3:TrackPointExtension>
        </extensions>
      </trkpt>
      <trkpt lat="52.27421061135828495025634765625" lon="1.62996643222868442535400390625">
        <ele>-186.399993896484375</ele>
        <time>2025-09-07T09:07:24.000Z</time>
        <extensions>
          <ns3:TrackPointExtension>
            <ns3:hr>138</ns3:hr>
            <ns3:cad>79</ns3:cad>
          </ns3:TrackPointExtension>
        </extensions>
      </trkpt>
      <trkpt lat="52.27422536350786685943603515625" lon="1.62997246719896793365478515625">
        <ele>-187.600006103515625</ele>
        <time>2025-09-07T09:07:25.000Z</time>
        <extensions>
          <ns3:TrackPointExtension>
            <ns3:hr>138</ns3:hr>
            <ns3:cad>79</ns3:cad>
          </ns3:TrackPointExtension>
        </extensions>
      </trkpt>
      <trkpt lat="52.274241708219051361083984375" lon="1.62998336367309093475341796875">
        <ele>-189</ele>
        <time>2025-09-07T09:07:26.000Z</time>
        <extensions>
          <ns3:TrackPointExtension>
            <ns3:hr>139</ns3:hr>
            <ns3:cad>80</ns3:cad>
          </ns3:TrackPointExtension>
        </extensions>
      </trkpt>
      <trkpt lat="52.27426710538566112518310546875" lon="1.6299973614513874053955078125">
        <ele>-190.399993896484375</ele>
        <time>2025-09-07T09:07:28.000Z</time>
        <extensions>
          <ns3:TrackPointExtension>
            <ns3:hr>141</ns3:hr>
            <ns3:cad>80</ns3:cad>
          </ns3:TrackPointExtension>
        </extensions>
      </trkpt>
      <trkpt lat="52.274277247488498687744140625" lon="1.6300117783248424530029296875">
        <ele>-191</ele>
        <time>2025-09-07T09:07:30.000Z</time>
        <extensions>
          <ns3:TrackPointExtension>
            <ns3:hr>144</ns3:hr>
            <ns3:cad>0</ns3:cad>
          </ns3:TrackPointExtension>
        </extensions>
      </trkpt>
      <trkpt lat="52.274314798414707183837890625" lon="1.630008928477764129638671875">
        <ele>-191</ele>
        <time>2025-09-07T09:07:32.000Z</time>
        <extensions>
          <ns3:TrackPointExtension>
            <ns3:hr>144</ns3:hr>
            <ns3:cad>0</ns3:cad>
          </ns3:TrackPointExtension>
        </extensions>
      </trkpt>
      <trkpt lat="52.2743065841495990753173828125" lon="1.63003499619662761688232421875">
        <ele>-191</ele>
        <time>2025-09-07T09:07:37.000Z</time>
        <extensions>
          <ns3:TrackPointExtension>
            <ns3:hr>140</ns3:hr>
            <ns3:cad>0</ns3:cad>
          </ns3:TrackPointExtension>
        </extensions>
      </trkpt>
      <trkpt lat="52.27431504987180233001708984375" lon="1.6300416179001331329345703125">
        <ele>-191</ele>
        <time>2025-09-07T09:07:39.000Z</time>
        <extensions>
          <ns3:TrackPointExtension>
            <ns3:hr>132</ns3:hr>
            <ns3:cad>0</ns3:cad>
          </ns3:TrackPointExtension>
        </extensions>
      </trkpt>
      <trkpt lat="52.27432192303240299224853515625" lon="1.6300530172884464263916015625">
        <ele>-191</ele>
        <time>2025-09-07T09:07:40.000Z</time>
        <extensions>
          <ns3:TrackPointExtension>
            <ns3:hr>131</ns3:hr>
            <ns3:cad>0</ns3:cad>
          </ns3:TrackPointExtension>
        </extensions>
      </trkpt>
      <trkpt lat="52.27434866130352020263671875" lon="1.630136333405971527099609375">
        <ele>-191.1999969482421875</ele>
        <time>2025-09-07T09:07:45.000Z</time>
        <extensions>
          <ns3:TrackPointExtension>
            <ns3:hr>131</ns3:hr>
            <ns3:cad>0</ns3:cad>
          </ns3:TrackPointExtension>
        </extensions>
      </trkpt>
      <trkpt lat="52.2743565402925014495849609375" lon="1.63019157014787197113037109375">
        <ele>-191.399993896484375</ele>
        <time>2025-09-07T09:07:47.000Z</time>
        <extensions>
          <ns3:TrackPointExtension>
            <ns3:hr>131</ns3:hr>
            <ns3:cad>75</ns3:cad>
          </ns3:TrackPointExtension>
        </extensions>
      </trkpt>
      <trkpt lat="52.27436886169016361236572265625" lon="1.630216129124164581298828125">
        <ele>-192.1999969482421875</ele>
        <time>2025-09-07T09:07:48.000Z</time>
        <extensions>
          <ns3:TrackPointExtension>
            <ns3:hr>132</ns3:hr>
            <ns3:cad>78</ns3:cad>
          </ns3:TrackPointExtension>
        </extensions>
      </trkpt>
      <trkpt lat="52.27438327856361865997314453125" lon="1.6302344016730785369873046875">
        <ele>-193.1999969482421875</ele>
        <time>2025-09-07T09:07:49.000Z</time>
        <extensions>
          <ns3:TrackPointExtension>
            <ns3:hr>134</ns3:hr>
            <ns3:cad>78</ns3:cad>
          </ns3:TrackPointExtension>
        </extensions>
      </trkpt>
      <trkpt lat="52.2744349949061870574951171875" lon="1.63024873472750186920166015625">
        <ele>-194</ele>
        <time>2025-09-07T09:07:50.000Z</time>
        <extensions>
          <ns3:TrackPointExtension>
            <ns3:hr>134</ns3:hr>
            <ns3:cad>79</ns3:cad>
          </ns3:TrackPointExtension>
        </extensions>
      </trkpt>
      <trkpt lat="52.2744581289589405059814453125" lon="1.6302612237632274627685546875">
        <ele>-194.399993896484375</ele>
        <time>2025-09-07T09:07:51.000Z</time>
        <extensions>
          <ns3:TrackPointExtension>
            <ns3:hr>135</ns3:hr>
            <ns3:cad>80</ns3:cad>
          </ns3:TrackPointExtension>
        </extensions>
      </trkpt>
      <trkpt lat="52.274477742612361907958984375" lon="1.63026834838092327117919921875">
        <ele>-194.600006103515625</ele>
        <time>2025-09-07T09:07:52.000Z</time>
        <extensions>
          <ns3:TrackPointExtension>
            <ns3:hr>138</ns3:hr>
            <ns3:cad>80</ns3:cad>
          </ns3:TrackPointExtension>
        </extensions>
      </trkpt>
      <trkpt lat="52.274497188627719879150390625" lon="1.630270443856716156005859375">
        <ele>-195.399993896484375</ele>
        <time>2025-09-07T09:07:53.000Z</time>
        <extensions>
          <ns3:TrackPointExtension>
            <ns3:hr>140</ns3:hr>
            <ns3:cad>79</ns3:cad>
          </ns3:TrackPointExtension>
        </extensions>
      </trkpt>
      <trkpt lat="52.2745194844901561737060546875" lon="1.6302719525992870330810546875">
        <ele>-196.399993896484375</ele>
        <time>2025-09-07T09:07:54.000Z</time>
        <extensions>
          <ns3:TrackPointExtension>
            <ns3:hr>139</ns3:hr>
            <ns3:cad>79</ns3:cad>
          </ns3:TrackPointExtension>
        </extensions>
      </trkpt>
      <trkpt lat="52.27455527521669864654541015625" lon="1.63028729148209095001220703125">
        <ele>-197.8000030517578125</ele>
        <time>2025-09-07T09:07:56.000Z</time>
        <extensions>
          <ns3:TrackPointExtension>
            <ns3:hr>142</ns3:hr>
            <ns3:cad>79</ns3:cad>
          </ns3:TrackPointExtension>
        </extensions>
      </trkpt>
      <trkpt lat="52.27463875897228717803955078125" lon="1.6303353197872638702392578125">
        <ele>-198.600006103515625</ele>
        <time>2025-09-07T09:08:00.000Z</time>
        <extensions>
          <ns3:TrackPointExtension>
            <ns3:hr>142</ns3:hr>
            <ns3:cad>79</ns3:cad>
          </ns3:TrackPointExtension>
        </extensions>
      </trkpt>
      <trkpt lat="52.27467446587979793548583984375" lon="1.6303510777652263641357421875">
        <ele>-199</ele>
        <time>2025-09-07T09:08:02.000Z</time>
        <extensions>
          <ns3:TrackPointExtension>
            <ns3:hr>143</ns3:hr>
            <ns3:cad>79</ns3:cad>
          </ns3:TrackPointExtension>
        </extensions>
      </trkpt>
      <trkpt lat="52.27472391910851001739501953125" lon="1.63037429563701152801513671875">
        <ele>-199.600006103515625</ele>
        <time>2025-09-07T09:08:06.000Z</time>
        <extensions>
          <ns3:TrackPointExtension>
            <ns3:hr>142</ns3:hr>
            <ns3:cad>0</ns3:cad>
          </ns3:TrackPointExtension>
        </extensions>
      </trkpt>
      <trkpt lat="52.27473230101168155670166015625" lon="1.63039558567106723785400390625">
        <ele>-201</ele>
        <time>2025-09-07T09:08:08.000Z</time>
        <extensions>
          <ns3:TrackPointExtension>
            <ns3:hr>143</ns3:hr>
            <ns3:cad>0</ns3:cad>
          </ns3:TrackPointExtension>
        </extensions>
      </trkpt>
      <trkpt lat="52.274737246334552764892578125" lon="1.63040966726839542388916015625">
        <ele>-202</ele>
        <time>2025-09-07T09:08:11.000Z</time>
        <extensions>
          <ns3:TrackPointExtension>
            <ns3:hr>141</ns3:hr>
            <ns3:cad>0</ns3:cad>
          </ns3:TrackPointExtension>
        </extensions>
      </trkpt>
      <trkpt lat="52.2747478075325489044189453125" lon="1.63042978383600711822509765625">
        <ele>-201.1999969482421875</ele>
        <time>2025-09-07T09:08:15.000Z</time>
        <extensions>
          <ns3:TrackPointExtension>
            <ns3:hr>138</ns3:hr>
            <ns3:cad>0</ns3:cad>
          </ns3:TrackPointExtension>
        </extensions>
      </trkpt>
      <trkpt lat="52.27475258521735668182373046875" lon="1.63043330423533916473388671875">
        <ele>-201</ele>
        <time>2025-09-07T09:08:16.000Z</time>
        <extensions>
          <ns3:TrackPointExtension>
            <ns3:hr>137</ns3:hr>
            <ns3:cad>0</ns3:cad>
          </ns3:TrackPointExtension>
        </extensions>
      </trkpt>
      <trkpt lat="52.2747578658163547515869140625" lon="1.630437411367893218994140625">
        <ele>-200.8000030517578125</ele>
        <time>2025-09-07T09:08:17.000Z</time>
        <extensions>
          <ns3:TrackPointExtension>
            <ns3:hr>135</ns3:hr>
            <ns3:cad>0</ns3:cad>
          </ns3:TrackPointExtension>
        </extensions>
      </trkpt>
      <trkpt lat="52.27477236650884151458740234375" lon="1.6304573602974414825439453125">
        <ele>-199.1999969482421875</ele>
        <time>2025-09-07T09:08:20.000Z</time>
        <extensions>
          <ns3:TrackPointExtension>
            <ns3:hr>130</ns3:hr>
            <ns3:cad>0</ns3:cad>
          </ns3:TrackPointExtension>
        </extensions>
      </trkpt>
      <trkpt lat="52.27477303706109523773193359375" lon="1.63046079687774181365966796875">
        <ele>-198.8000030517578125</ele>
        <time>2025-09-07T09:08:21.000Z</time>
        <extensions>
          <ns3:TrackPointExtension>
            <ns3:hr>130</ns3:hr>
            <ns3:cad>0</ns3:cad>
          </ns3:TrackPointExtension>
        </extensions>
      </trkpt>
      <trkpt lat="52.27477303706109523773193359375" lon="1.6304610483348369598388671875">
        <ele>-198</ele>
        <time>2025-09-07T09:08:22.000Z</time>
        <extensions>
          <ns3:TrackPointExtension>
            <ns3:hr>128</ns3:hr>
            <ns3:cad>0</ns3:cad>
          </ns3:TrackPointExtension>
        </extensions>
      </trkpt>
      <trkpt lat="52.274775467813014984130859375" lon="1.63046188652515411376953125">
        <ele>-197.399993896484375</ele>
        <time>2025-09-07T09:08:24.000Z</time>
        <extensions>
          <ns3:TrackPointExtension>
            <ns3:hr>124</ns3:hr>
            <ns3:cad>0</ns3:cad>
          </ns3:TrackPointExtension>
        </extensions>
      </trkpt>
      <trkpt lat="52.274778150022029876708984375" lon="1.63046834059059619903564453125">
        <ele>-196.8000030517578125</ele>
        <time>2025-09-07T09:08:25.000Z</time>
        <extensions>
          <ns3:TrackPointExtension>
            <ns3:hr>124</ns3:hr>
            <ns3:cad>0</ns3:cad>
          </ns3:TrackPointExtension>
        </extensions>
      </trkpt>
      <trkpt lat="52.2747803293168544769287109375" lon="1.6304690949618816375732421875">
        <ele>-195.8000030517578125</ele>
        <time>2025-09-07T09:08:27.000Z</time>
        <extensions>
          <ns3:TrackPointExtension>
            <ns3:hr>121</ns3:hr>
            <ns3:cad>0</ns3:cad>
          </ns3:TrackPointExtension>
        </extensions>
      </trkpt>
      <trkpt lat="52.27478158660233020782470703125" lon="1.63046850822865962982177734375">
        <ele>-195.600006103515625</ele>
        <time>2025-09-07T09:08:28.000Z</time>
        <extensions>
          <ns3:TrackPointExtension>
            <ns3:hr>121</ns3:hr>
            <ns3:cad>0</ns3:cad>
          </ns3:TrackPointExtension>
        </extensions>
      </trkpt>
      <trkpt lat="52.27475258521735668182373046875" lon="1.6305378265678882598876953125">
        <ele>-196.399993896484375</ele>
        <time>2025-09-07T09:08:37.000Z</time>
        <extensions>
          <ns3:TrackPointExtension>
            <ns3:hr>121</ns3:hr>
            <ns3:cad>53</ns3:cad>
          </ns3:TrackPointExtension>
        </extensions>
      </trkpt>
      <trkpt lat="52.27474562823772430419921875" lon="1.63055174052715301513671875">
        <ele>-197</ele>
        <time>2025-09-07T09:08:38.000Z</time>
        <extensions>
          <ns3:TrackPointExtension>
            <ns3:hr>120</ns3:hr>
            <ns3:cad>53</ns3:cad>
          </ns3:TrackPointExtension>
        </extensions>
      </trkpt>
      <trkpt lat="52.2747313790023326873779296875" lon="1.63057856261730194091796875">
        <ele>-198.600006103515625</ele>
        <time>2025-09-07T09:08:40.000Z</time>
        <extensions>
          <ns3:TrackPointExtension>
            <ns3:hr>120</ns3:hr>
            <ns3:cad>54</ns3:cad>
          </ns3:TrackPointExtension>
        </extensions>
      </trkpt>
      <trkpt lat="52.27471319027245044708251953125" lon="1.6306380741298198699951171875">
        <ele>-200</ele>
        <time>2025-09-07T09:08:43.000Z</time>
        <extensions>
          <ns3:TrackPointExtension>
            <ns3:hr>119</ns3:hr>
            <ns3:cad>55</ns3:cad>
          </ns3:TrackPointExtension>
        </extensions>
      </trkpt>
      <trkpt lat="52.27469206787645816802978515625" lon="1.63069498725235462188720703125">
        <ele>-201.1999969482421875</ele>
        <time>2025-09-07T09:08:46.000Z</time>
        <extensions>
          <ns3:TrackPointExtension>
            <ns3:hr>118</ns3:hr>
            <ns3:cad>55</ns3:cad>
          </ns3:TrackPointExtension>
        </extensions>
      </trkpt>
      <trkpt lat="52.2746643237769603729248046875" lon="1.63078375160694122314453125">
        <ele>-201.600006103515625</ele>
        <time>2025-09-07T09:08:49.000Z</time>
        <extensions>
          <ns3:TrackPointExtension>
            <ns3:hr>118</ns3:hr>
            <ns3:cad>116</ns3:cad>
          </ns3:TrackPointExtension>
        </extensions>
      </trkpt>
      <trkpt lat="52.27465166710317134857177734375" lon="1.6308157704770565032958984375">
        <ele>-202.399993896484375</ele>
        <time>2025-09-07T09:08:50.000Z</time>
        <extensions>
          <ns3:TrackPointExtension>
            <ns3:hr>120</ns3:hr>
            <ns3:cad>116</ns3:cad>
          </ns3:TrackPointExtension>
        </extensions>
      </trkpt>
      <trkpt lat="52.27463238872587680816650390625" lon="1.63087494671344757080078125">
        <ele>-203.600006103515625</ele>
        <time>2025-09-07T09:08:52.000Z</time>
        <extensions>
          <ns3:TrackPointExtension>
            <ns3:hr>119</ns3:hr>
            <ns3:cad>75</ns3:cad>
          </ns3:TrackPointExtension>
        </extensions>
      </trkpt>
      <trkpt lat="52.27460958994925022125244140625" lon="1.63093864917755126953125">
        <ele>-205.399993896484375</ele>
        <time>2025-09-07T09:08:54.000Z</time>
        <extensions>
          <ns3:TrackPointExtension>
            <ns3:hr>121</ns3:hr>
            <ns3:cad>77</ns3:cad>
          </ns3:TrackPointExtension>
        </extensions>
      </trkpt>
      <trkpt lat="52.27458377368748188018798828125" lon="1.63100964389741420745849609375">
        <ele>-207</ele>
        <time>2025-09-07T09:08:56.000Z</time>
        <extensions>
          <ns3:TrackPointExtension>
            <ns3:hr>122</ns3:hr>
            <ns3:cad>79</ns3:cad>
          </ns3:TrackPointExtension>
        </extensions>
      </trkpt>
      <trkpt lat="52.2745706140995025634765625" lon="1.63103722035884857177734375">
        <ele>-208.1999969482421875</ele>
        <time>2025-09-07T09:08:57.000Z</time>
        <extensions>
          <ns3:TrackPointExtension>
            <ns3:hr>123</ns3:hr>
            <ns3:cad>80</ns3:cad>
          </ns3:TrackPointExtension>
        </extensions>
      </trkpt>
      <trkpt lat="52.27454538457095623016357421875" lon="1.631094552576541900634765625">
        <ele>-210</ele>
        <time>2025-09-07T09:08:59.000Z</time>
        <extensions>
          <ns3:TrackPointExtension>
            <ns3:hr>124</ns3:hr>
            <ns3:cad>79</ns3:cad>
          </ns3:TrackPointExtension>
        </extensions>
      </trkpt>
      <trkpt lat="52.27451018057763576507568359375" lon="1.63119102828204631805419921875">
        <ele>-211.1999969482421875</ele>
        <time>2025-09-07T09:09:02.000Z</time>
        <extensions>
          <ns3:TrackPointExtension>
            <ns3:hr>124</ns3:hr>
            <ns3:cad>79</ns3:cad>
          </ns3:TrackPointExtension>
        </extensions>
      </trkpt>
      <trkpt lat="52.274478413164615631103515625" lon="1.631287001073360443115234375">
        <ele>-212</ele>
        <time>2025-09-07T09:09:05.000Z</time>
        <extensions>
          <ns3:TrackPointExtension>
            <ns3:hr>128</ns3:hr>
            <ns3:cad>77</ns3:cad>
          </ns3:TrackPointExtension>
        </extensions>
      </trkpt>
      <trkpt lat="52.2744688577950000762939453125" lon="1.63131977431476116180419921875">
        <ele>-213</ele>
        <time>2025-09-07T09:09:06.000Z</time>
        <extensions>
          <ns3:TrackPointExtension>
            <ns3:hr>130</ns3:hr>
            <ns3:cad>77</ns3:cad>
          </ns3:TrackPointExtension>
        </extensions>
      </trkpt>
      <trkpt lat="52.27445452474057674407958984375" lon="1.63140468299388885498046875">
        <ele>-214</ele>
        <time>2025-09-07T09:09:09.000Z</time>
        <extensions>
          <ns3:TrackPointExtension>
            <ns3:hr>133</ns3:hr>
            <ns3:cad>78</ns3:cad>
          </ns3:TrackPointExtension>
        </extensions>
      </trkpt>
      <trkpt lat="52.2744601406157016754150390625" lon="1.63142211735248565673828125">
        <ele>-214</ele>
        <time>2025-09-07T09:09:10.000Z</time>
        <extensions>
          <ns3:TrackPointExtension>
            <ns3:hr>134</ns3:hr>
            <ns3:cad>78</ns3:cad>
          </ns3:TrackPointExtension>
        </extensions>
      </trkpt>
      <trkpt lat="52.274479083716869354248046875" lon="1.63144030608236789703369140625">
        <ele>-214.8000030517578125</ele>
        <time>2025-09-07T09:09:12.000Z</time>
        <extensions>
          <ns3:TrackPointExtension>
            <ns3:hr>133</ns3:hr>
            <ns3:cad>79</ns3:cad>
          </ns3:TrackPointExtension>
        </extensions>
      </trkpt>
      <trkpt lat="52.27449475787580013275146484375" lon="1.631446592509746551513671875">
        <ele>-215.8000030517578125</ele>
        <time>2025-09-07T09:09:13.000Z</time>
        <extensions>
          <ns3:TrackPointExtension>
            <ns3:hr>133</ns3:hr>
            <ns3:cad>79</ns3:cad>
          </ns3:TrackPointExtension>
        </extensions>
      </trkpt>
      <trkpt lat="52.27455242536962032318115234375" lon="1.63144516758620738983154296875">
        <ele>-216.8000030517578125</ele>
        <time>2025-09-07T09:09:16.000Z</time>
        <extensions>
          <ns3:TrackPointExtension>
            <ns3:hr>132</ns3:hr>
            <ns3:cad>77</ns3:cad>
          </ns3:TrackPointExtension>
        </extensions>
      </trkpt>
      <trkpt lat="52.27459550835192203521728515625" lon="1.63143745623528957366943359375">
        <ele>-217</ele>
        <time>2025-09-07T09:09:18.000Z</time>
        <extensions>
          <ns3:TrackPointExtension>
            <ns3:hr>132</ns3:hr>
            <ns3:cad>78</ns3:cad>
          </ns3:TrackPointExtension>
        </extensions>
      </trkpt>
      <trkpt lat="52.2746814228594303131103515625" lon="1.63143527694046497344970703125">
        <ele>-217.1999969482421875</ele>
        <time>2025-09-07T09:09:22.000Z</time>
        <extensions>
          <ns3:TrackPointExtension>
            <ns3:hr>135</ns3:hr>
            <ns3:cad>80</ns3:cad>
          </ns3:TrackPointExtension>
        </extensions>
      </trkpt>
      <trkpt lat="52.27472609840333461761474609375" lon="1.6314388811588287353515625">
        <ele>-218</ele>
        <time>2025-09-07T09:09:24.000Z</time>
        <extensions>
          <ns3:TrackPointExtension>
            <ns3:hr>137</ns3:hr>
            <ns3:cad>79</ns3:cad>
          </ns3:TrackPointExtension>
        </extensions>
      </trkpt>
      <trkpt lat="52.27476649917662143707275390625" lon="1.631443239748477935791015625">
        <ele>-218.8000030517578125</ele>
        <time>2025-09-07T09:09:26.000Z</time>
        <extensions>
          <ns3:TrackPointExtension>
            <ns3:hr>138</ns3:hr>
            <ns3:cad>79</ns3:cad>
          </ns3:TrackPointExtension>
        </extensions>
      </trkpt>
      <trkpt lat="52.274888120591640472412109375" lon="1.63144600577652454376220703125">
        <ele>-216.8000030517578125</ele>
        <time>2025-09-07T09:09:32.000Z</time>
        <extensions>
          <ns3:TrackPointExtension>
            <ns3:hr>138</ns3:hr>
            <ns3:cad>78</ns3:cad>
          </ns3:TrackPointExtension>
        </extensions>
      </trkpt>
      <trkpt lat="52.27492625825107097625732421875" lon="1.6314427368342876434326171875">
        <ele>-216</ele>
        <time>2025-09-07T09:09:34.000Z</time>
        <extensions>
          <ns3:TrackPointExtension>
            <ns3:hr>139</ns3:hr>
            <ns3:cad>79</ns3:cad>
          </ns3:TrackPointExtension>
        </extensions>
      </trkpt>
      <trkpt lat="52.2749928943812847137451171875" lon="1.63143980316817760467529296875">
        <ele>-215.8000030517578125</ele>
        <time>2025-09-07T09:09:37.000Z</time>
        <extensions>
          <ns3:TrackPointExtension>
            <ns3:hr>139</ns3:hr>
            <ns3:cad>79</ns3:cad>
          </ns3:TrackPointExtension>
        </extensions>
      </trkpt>
      <trkpt lat="52.2751102410256862640380859375" lon="1.63145740516483783721923828125">
        <ele>-215</ele>
        <time>2025-09-07T09:09:43.000Z</time>
        <extensions>
          <ns3:TrackPointExtension>
            <ns3:hr>142</ns3:hr>
            <ns3:cad>79</ns3:cad>
          </ns3:TrackPointExtension>
        </extensions>
      </trkpt>
      <trkpt lat="52.27512440644204616546630859375" lon="1.63146109320223331451416015625">
        <ele>-214.8000030517578125</ele>
        <time>2025-09-07T09:09:44.000Z</time>
        <extensions>
          <ns3:TrackPointExtension>
            <ns3:hr>141</ns3:hr>
            <ns3:cad>79</ns3:cad>
          </ns3:TrackPointExtension>
        </extensions>
      </trkpt>
      <trkpt lat="52.27522666566073894500732421875" lon="1.6314863227307796478271484375">
        <ele>-216.399993896484375</ele>
        <time>2025-09-07T09:09:51.000Z</time>
        <extensions>
          <ns3:TrackPointExtension>
            <ns3:hr>138</ns3:hr>
            <ns3:cad>79</ns3:cad>
          </ns3:TrackPointExtension>
        </extensions>
      </trkpt>
      <trkpt lat="52.2752456925809383392333984375" lon="1.6314866580069065093994140625">
        <ele>-216.600006103515625</ele>
        <time>2025-09-07T09:09:53.000Z</time>
        <extensions>
          <ns3:TrackPointExtension>
            <ns3:hr>139</ns3:hr>
            <ns3:cad>77</ns3:cad>
          </ns3:TrackPointExtension>
        </extensions>
      </trkpt>
      <trkpt lat="52.27525097317993640899658203125" lon="1.6314940340816974639892578125">
        <ele>-216.8000030517578125</ele>
        <time>2025-09-07T09:09:55.000Z</time>
        <extensions>
          <ns3:TrackPointExtension>
            <ns3:hr>139</ns3:hr>
            <ns3:cad>77</ns3:cad>
          </ns3:TrackPointExtension>
        </extensions>
      </trkpt>
      <trkpt lat="52.27524661459028720855712890625" lon="1.6315198503434658050537109375">
        <ele>-216.8000030517578125</ele>
        <time>2025-09-07T09:09:57.000Z</time>
        <extensions>
          <ns3:TrackPointExtension>
            <ns3:hr>139</ns3:hr>
            <ns3:cad>0</ns3:cad>
          </ns3:TrackPointExtension>
        </extensions>
      </trkpt>
      <trkpt lat="52.27524192072451114654541015625" lon="1.63154390640556812286376953125">
        <ele>-217</ele>
        <time>2025-09-07T09:09:58.000Z</time>
        <extensions>
          <ns3:TrackPointExtension>
            <ns3:hr>141</ns3:hr>
            <ns3:cad>0</ns3:cad>
          </ns3:TrackPointExtension>
        </extensions>
      </trkpt>
      <trkpt lat="52.27525818161666393280029296875" lon="1.63161716423928737640380859375">
        <ele>-218.600006103515625</ele>
        <time>2025-09-07T09:10:01.000Z</time>
        <extensions>
          <ns3:TrackPointExtension>
            <ns3:hr>143</ns3:hr>
            <ns3:cad>0</ns3:cad>
          </ns3:TrackPointExtension>
        </extensions>
      </trkpt>
      <trkpt lat="52.2752728499472141265869140625" lon="1.63163132965564727783203125">
        <ele>-220</ele>
        <time>2025-09-07T09:10:02.000Z</time>
        <extensions>
          <ns3:TrackPointExtension>
            <ns3:hr>143</ns3:hr>
            <ns3:cad>76</ns3:cad>
          </ns3:TrackPointExtension>
        </extensions>
      </trkpt>
      <trkpt lat="52.27528701536357402801513671875" lon="1.63164080120623111724853515625">
        <ele>-220.600006103515625</ele>
        <time>2025-09-07T09:10:03.000Z</time>
        <extensions>
          <ns3:TrackPointExtension>
            <ns3:hr>142</ns3:hr>
            <ns3:cad>80</ns3:cad>
          </ns3:TrackPointExtension>
        </extensions>
      </trkpt>
      <trkpt lat="52.2753047011792659759521484375" lon="1.631647087633609771728515625">
        <ele>-221.1999969482421875</ele>
        <time>2025-09-07T09:10:04.000Z</time>
        <extensions>
          <ns3:TrackPointExtension>
            <ns3:hr>142</ns3:hr>
            <ns3:cad>79</ns3:cad>
          </ns3:TrackPointExtension>
        </extensions>
      </trkpt>
      <trkpt lat="52.27535088546574115753173828125" lon="1.6316941939294338226318359375">
        <ele>-221.8000030517578125</ele>
        <time>2025-09-07T09:10:08.000Z</time>
        <extensions>
          <ns3:TrackPointExtension>
            <ns3:hr>141</ns3:hr>
            <ns3:cad>78</ns3:cad>
          </ns3:TrackPointExtension>
        </extensions>
      </trkpt>
      <trkpt lat="52.275349460542201995849609375" lon="1.63171112537384033203125">
        <ele>-222.1999969482421875</ele>
        <time>2025-09-07T09:10:09.000Z</time>
        <extensions>
          <ns3:TrackPointExtension>
            <ns3:hr>140</ns3:hr>
            <ns3:cad>0</ns3:cad>
          </ns3:TrackPointExtension>
        </extensions>
      </trkpt>
      <trkpt lat="52.275349460542201995849609375" lon="1.6317250393331050872802734375">
        <ele>-222.399993896484375</ele>
        <time>2025-09-07T09:10:10.000Z</time>
        <extensions>
          <ns3:TrackPointExtension>
            <ns3:hr>140</ns3:hr>
            <ns3:cad>0</ns3:cad>
          </ns3:TrackPointExtension>
        </extensions>
      </trkpt>
      <trkpt lat="52.27534920908510684967041015625" lon="1.63173593580722808837890625">
        <ele>-224.1999969482421875</ele>
        <time>2025-09-07T09:10:12.000Z</time>
        <extensions>
          <ns3:TrackPointExtension>
            <ns3:hr>139</ns3:hr>
            <ns3:cad>0</ns3:cad>
          </ns3:TrackPointExtension>
        </extensions>
      </trkpt>
      <trkpt lat="52.27534837089478969573974609375" lon="1.6317293979227542877197265625">
        <ele>-226.399993896484375</ele>
        <time>2025-09-07T09:10:14.000Z</time>
        <extensions>
          <ns3:TrackPointExtension>
            <ns3:hr>139</ns3:hr>
            <ns3:cad>0</ns3:cad>
          </ns3:TrackPointExtension>
        </extensions>
      </trkpt>
      <trkpt lat="52.275348789989948272705078125" lon="1.63172663189470767974853515625">
        <ele>-227.8000030517578125</ele>
        <time>2025-09-07T09:10:15.000Z</time>
        <extensions>
          <ns3:TrackPointExtension>
            <ns3:hr>139</ns3:hr>
            <ns3:cad>0</ns3:cad>
          </ns3:TrackPointExtension>
        </extensions>
      </trkpt>
      <trkpt lat="52.275346778333187103271484375" lon="1.63172193802893161773681640625">
        <ele>-229.8000030517578125</ele>
        <time>2025-09-07T09:10:17.000Z</time>
        <extensions>
          <ns3:TrackPointExtension>
            <ns3:hr>138</ns3:hr>
            <ns3:cad>0</ns3:cad>
          </ns3:TrackPointExtension>
        </extensions>
      </trkpt>
      <trkpt lat="52.2753472812473773956298828125" lon="1.63172026164829730987548828125">
        <ele>-230.8000030517578125</ele>
        <time>2025-09-07T09:10:19.000Z</time>
        <extensions>
          <ns3:TrackPointExtension>
            <ns3:hr>135</ns3:hr>
            <ns3:cad>0</ns3:cad>
          </ns3:TrackPointExtension>
        </extensions>
      </trkpt>
      <trkpt lat="52.27534401230514049530029296875" lon="1.631716154515743255615234375">
        <ele>-231.399993896484375</ele>
        <time>2025-09-07T09:10:22.000Z</time>
        <extensions>
          <ns3:TrackPointExtension>
            <ns3:hr>131</ns3:hr>
            <ns3:cad>0</ns3:cad>
          </ns3:TrackPointExtension>
        </extensions>
      </trkpt>
      <trkpt lat="52.275343425571918487548828125" lon="1.63171372376382350921630859375">
        <ele>-231.399993896484375</ele>
        <time>2025-09-07T09:10:23.000Z</time>
        <extensions>
          <ns3:TrackPointExtension>
            <ns3:hr>128</ns3:hr>
            <ns3:cad>0</ns3:cad>
          </ns3:TrackPointExtension>
        </extensions>
      </trkpt>
      <trkpt lat="52.27534401230514049530029296875" lon="1.63171112537384033203125">
        <ele>-231.600006103515625</ele>
        <time>2025-09-07T09:10:24.000Z</time>
        <extensions>
          <ns3:TrackPointExtension>
            <ns3:hr>128</ns3:hr>
            <ns3:cad>0</ns3:cad>
          </ns3:TrackPointExtension>
        </extensions>
      </trkpt>
      <trkpt lat="52.275344431400299072265625" lon="1.63170986808836460113525390625">
        <ele>-231.8000030517578125</ele>
        <time>2025-09-07T09:10:25.000Z</time>
        <extensions>
          <ns3:TrackPointExtension>
            <ns3:hr>127</ns3:hr>
            <ns3:cad>0</ns3:cad>
          </ns3:TrackPointExtension>
        </extensions>
      </trkpt>
      <trkpt lat="52.27535314857959747314453125" lon="1.63170643150806427001953125">
        <ele>-232.1999969482421875</ele>
        <time>2025-09-07T09:10:30.000Z</time>
        <extensions>
          <ns3:TrackPointExtension>
            <ns3:hr>125</ns3:hr>
            <ns3:cad>0</ns3:cad>
          </ns3:TrackPointExtension>
        </extensions>
      </trkpt>
      <trkpt lat="52.275355495512485504150390625" lon="1.63170316256582736968994140625">
        <ele>-232.600006103515625</ele>
        <time>2025-09-07T09:10:32.000Z</time>
        <extensions>
          <ns3:TrackPointExtension>
            <ns3:hr>120</ns3:hr>
            <ns3:cad>0</ns3:cad>
          </ns3:TrackPointExtension>
        </extensions>
      </trkpt>
      <trkpt lat="52.27535759098827838897705078125" lon="1.631701402366161346435546875">
        <ele>-233</ele>
        <time>2025-09-07T09:10:34.000Z</time>
        <extensions>
          <ns3:TrackPointExtension>
            <ns3:hr>118</ns3:hr>
            <ns3:cad>0</ns3:cad>
          </ns3:TrackPointExtension>
        </extensions>
      </trkpt>
      <trkpt lat="52.2753591835498809814453125" lon="1.63169436156749725341796875">
        <ele>-233.399993896484375</ele>
        <time>2025-09-07T09:10:38.000Z</time>
        <extensions>
          <ns3:TrackPointExtension>
            <ns3:hr>115</ns3:hr>
            <ns3:cad>0</ns3:cad>
          </ns3:TrackPointExtension>
        </extensions>
      </trkpt>
      <trkpt lat="52.2753777913749217987060546875" lon="1.63166091777384281158447265625">
        <ele>-234.1999969482421875</ele>
        <time>2025-09-07T09:10:41.000Z</time>
        <extensions>
          <ns3:TrackPointExtension>
            <ns3:hr>114</ns3:hr>
            <ns3:cad>0</ns3:cad>
          </ns3:TrackPointExtension>
        </extensions>
      </trkpt>
      <trkpt lat="52.27540587075054645538330078125" lon="1.6316559724509716033935546875">
        <ele>-234.8000030517578125</ele>
        <time>2025-09-07T09:10:43.000Z</time>
        <extensions>
          <ns3:TrackPointExtension>
            <ns3:hr>113</ns3:hr>
            <ns3:cad>0</ns3:cad>
          </ns3:TrackPointExtension>
        </extensions>
      </trkpt>
      <trkpt lat="52.2754592634737491607666015625" lon="1.63167424499988555908203125">
        <ele>-235.399993896484375</ele>
        <time>2025-09-07T09:10:45.000Z</time>
        <extensions>
          <ns3:TrackPointExtension>
            <ns3:hr>113</ns3:hr>
            <ns3:cad>0</ns3:cad>
          </ns3:TrackPointExtension>
        </extensions>
      </trkpt>
      <trkpt lat="52.27553763426840305328369140625" lon="1.6316821239888668060302734375">
        <ele>-236.8000030517578125</ele>
        <time>2025-09-07T09:10:49.000Z</time>
        <extensions>
          <ns3:TrackPointExtension>
            <ns3:hr>118</ns3:hr>
            <ns3:cad>79</ns3:cad>
          </ns3:TrackPointExtension>
        </extensions>
      </trkpt>
      <trkpt lat="52.27557954378426074981689453125" lon="1.63168757222592830657958984375">
        <ele>-238</ele>
        <time>2025-09-07T09:10:51.000Z</time>
        <extensions>
          <ns3:TrackPointExtension>
            <ns3:hr>121</ns3:hr>
            <ns3:cad>79</ns3:cad>
          </ns3:TrackPointExtension>
        </extensions>
      </trkpt>
      <trkpt lat="52.275645844638347625732421875" lon="1.63169042207300662994384765625">
        <ele>-239.1999969482421875</ele>
        <time>2025-09-07T09:10:54.000Z</time>
        <extensions>
          <ns3:TrackPointExtension>
            <ns3:hr>123</ns3:hr>
            <ns3:cad>80</ns3:cad>
          </ns3:TrackPointExtension>
        </extensions>
      </trkpt>
      <trkpt lat="52.27566788904368877410888671875" lon="1.63169193081557750701904296875">
        <ele>-239.399993896484375</ele>
        <time>2025-09-07T09:10:55.000Z</time>
        <extensions>
          <ns3:TrackPointExtension>
            <ns3:hr>127</ns3:hr>
            <ns3:cad>80</ns3:cad>
          </ns3:TrackPointExtension>
        </extensions>
      </trkpt>
      <trkpt lat="52.27573226206004619598388671875" lon="1.63170601241290569305419921875">
        <ele>-239.600006103515625</ele>
        <time>2025-09-07T09:10:58.000Z</time>
        <extensions>
          <ns3:TrackPointExtension>
            <ns3:hr>130</ns3:hr>
            <ns3:cad>81</ns3:cad>
          </ns3:TrackPointExtension>
        </extensions>
      </trkpt>
      <trkpt lat="52.2758344374597072601318359375" lon="1.63171255029737949371337890625">
        <ele>-239.600006103515625</ele>
        <time>2025-09-07T09:11:03.000Z</time>
        <extensions>
          <ns3:TrackPointExtension>
            <ns3:hr>133</ns3:hr>
            <ns3:cad>81</ns3:cad>
          </ns3:TrackPointExtension>
        </extensions>
      </trkpt>
      <trkpt lat="52.27588498033583164215087890625" lon="1.631730906665325164794921875">
        <ele>-240.8000030517578125</ele>
        <time>2025-09-07T09:11:06.000Z</time>
        <extensions>
          <ns3:TrackPointExtension>
            <ns3:hr>131</ns3:hr>
            <ns3:cad>81</ns3:cad>
          </ns3:TrackPointExtension>
        </extensions>
      </trkpt>
      <trkpt lat="52.27601473219692707061767578125" lon="1.631810031831264495849609375">
        <ele>-239.600006103515625</ele>
        <time>2025-09-07T09:11:14.000Z</time>
        <extensions>
          <ns3:TrackPointExtension>
            <ns3:hr>133</ns3:hr>
            <ns3:cad>80</ns3:cad>
          </ns3:TrackPointExtension>
        </extensions>
      </trkpt>
      <trkpt lat="52.27603300474584102630615234375" lon="1.6318158991634845733642578125">
        <ele>-239.399993896484375</ele>
        <time>2025-09-07T09:11:15.000Z</time>
        <extensions>
          <ns3:TrackPointExtension>
            <ns3:hr>135</ns3:hr>
            <ns3:cad>80</ns3:cad>
          </ns3:TrackPointExtension>
        </extensions>
      </trkpt>
      <trkpt lat="52.27608405053615570068359375" lon="1.63183408789336681365966796875">
        <ele>-238.600006103515625</ele>
        <time>2025-09-07T09:11:18.000Z</time>
        <extensions>
          <ns3:TrackPointExtension>
            <ns3:hr>134</ns3:hr>
            <ns3:cad>80</ns3:cad>
          </ns3:TrackPointExtension>
        </extensions>
      </trkpt>
      <trkpt lat="52.27615236304700374603271484375" lon="1.6318842954933643341064453125">
        <ele>-238.399993896484375</ele>
        <time>2025-09-07T09:11:22.000Z</time>
        <extensions>
          <ns3:TrackPointExtension>
            <ns3:hr>132</ns3:hr>
            <ns3:cad>0</ns3:cad>
          </ns3:TrackPointExtension>
        </extensions>
      </trkpt>
      <trkpt lat="52.27619242854416370391845703125" lon="1.63192830048501491546630859375">
        <ele>-240</ele>
        <time>2025-09-07T09:11:25.000Z</time>
        <extensions>
          <ns3:TrackPointExtension>
            <ns3:hr>134</ns3:hr>
            <ns3:cad>58</ns3:cad>
          </ns3:TrackPointExtension>
        </extensions>
      </trkpt>
      <trkpt lat="52.27622075937688350677490234375" lon="1.63193517364561557769775390625">
        <ele>-241.600006103515625</ele>
        <time>2025-09-07T09:11:27.000Z</time>
        <extensions>
          <ns3:TrackPointExtension>
            <ns3:hr>134</ns3:hr>
            <ns3:cad>60</ns3:cad>
          </ns3:TrackPointExtension>
        </extensions>
      </trkpt>
      <trkpt lat="52.27625546045601367950439453125" lon="1.63192310370504856109619140625">
        <ele>-242.8000030517578125</ele>
        <time>2025-09-07T09:11:29.000Z</time>
        <extensions>
          <ns3:TrackPointExtension>
            <ns3:hr>135</ns3:hr>
            <ns3:cad>60</ns3:cad>
          </ns3:TrackPointExtension>
        </extensions>
      </trkpt>
      <trkpt lat="52.27630558423697948455810546875" lon="1.631911955773830413818359375">
        <ele>-243.600006103515625</ele>
        <time>2025-09-07T09:11:32.000Z</time>
        <extensions>
          <ns3:TrackPointExtension>
            <ns3:hr>131</ns3:hr>
            <ns3:cad>78</ns3:cad>
          </ns3:TrackPointExtension>
        </extensions>
      </trkpt>
      <trkpt lat="52.276327125728130340576171875" lon="1.6319124586880207061767578125">
        <ele>-243.8000030517578125</ele>
        <time>2025-09-07T09:11:33.000Z</time>
        <extensions>
          <ns3:TrackPointExtension>
            <ns3:hr>132</ns3:hr>
            <ns3:cad>78</ns3:cad>
          </ns3:TrackPointExtension>
        </extensions>
      </trkpt>
      <trkpt lat="52.2763906605541706085205078125" lon="1.631917320191860198974609375">
        <ele>-244.600006103515625</ele>
        <time>2025-09-07T09:11:36.000Z</time>
        <extensions>
          <ns3:TrackPointExtension>
            <ns3:hr>131</ns3:hr>
            <ns3:cad>79</ns3:cad>
          </ns3:TrackPointExtension>
        </extensions>
      </trkpt>
      <trkpt lat="52.27640298195183277130126953125" lon="1.63191908039152622222900390625">
        <ele>-244.8000030517578125</ele>
        <time>2025-09-07T09:11:37.000Z</time>
        <extensions>
          <ns3:TrackPointExtension>
            <ns3:hr>129</ns3:hr>
            <ns3:cad>79</ns3:cad>
          </ns3:TrackPointExtension>
        </extensions>
      </trkpt>
      <trkpt lat="52.2764057479798793792724609375" lon="1.631927378475666046142578125">
        <ele>-245.600006103515625</ele>
        <time>2025-09-07T09:11:40.000Z</time>
        <extensions>
          <ns3:TrackPointExtension>
            <ns3:hr>131</ns3:hr>
            <ns3:cad>0</ns3:cad>
          </ns3:TrackPointExtension>
        </extensions>
      </trkpt>
      <trkpt lat="52.27640591561794281005859375" lon="1.63193039596080780029296875">
        <ele>-246</ele>
        <time>2025-09-07T09:11:41.000Z</time>
        <extensions>
          <ns3:TrackPointExtension>
            <ns3:hr>131</ns3:hr>
            <ns3:cad>0</ns3:cad>
          </ns3:TrackPointExtension>
        </extensions>
      </trkpt>
      <trkpt lat="52.27645553648471832275390625" lon="1.6319386102259159088134765625">
        <ele>-246</ele>
        <time>2025-09-07T09:11:46.000Z</time>
        <extensions>
          <ns3:TrackPointExtension>
            <ns3:hr>133</ns3:hr>
            <ns3:cad>78</ns3:cad>
          </ns3:TrackPointExtension>
        </extensions>
      </trkpt>
      <trkpt lat="52.27652552537620067596435546875" lon="1.63194338791072368621826171875">
        <ele>-247.1999969482421875</ele>
        <time>2025-09-07T09:11:50.000Z</time>
        <extensions>
          <ns3:TrackPointExtension>
            <ns3:hr>132</ns3:hr>
            <ns3:cad>80</ns3:cad>
          </ns3:TrackPointExtension>
        </extensions>
      </trkpt>
      <trkpt lat="52.2765874676406383514404296875" lon="1.63192570209503173828125">
        <ele>-247.1999969482421875</ele>
        <time>2025-09-07T09:11:53.000Z</time>
        <extensions>
          <ns3:TrackPointExtension>
            <ns3:hr>130</ns3:hr>
            <ns3:cad>78</ns3:cad>
          </ns3:TrackPointExtension>
        </extensions>
      </trkpt>
      <trkpt lat="52.276619486510753631591796875" lon="1.6319163143634796142578125">
        <ele>-247.1999969482421875</ele>
        <time>2025-09-07T09:11:55.000Z</time>
        <extensions>
          <ns3:TrackPointExtension>
            <ns3:hr>133</ns3:hr>
            <ns3:cad>79</ns3:cad>
          </ns3:TrackPointExtension>
        </extensions>
      </trkpt>
      <trkpt lat="52.2767108492553234100341796875" lon="1.63187851198017597198486328125">
        <ele>-245.600006103515625</ele>
        <time>2025-09-07T09:12:00.000Z</time>
        <extensions>
          <ns3:TrackPointExtension>
            <ns3:hr>130</ns3:hr>
            <ns3:cad>78</ns3:cad>
          </ns3:TrackPointExtension>
        </extensions>
      </trkpt>
      <trkpt lat="52.2767165489494800567626953125" lon="1.6318698786199092864990234375">
        <ele>-245.1999969482421875</ele>
        <time>2025-09-07T09:12:01.000Z</time>
        <extensions>
          <ns3:TrackPointExtension>
            <ns3:hr>131</ns3:hr>
            <ns3:cad>78</ns3:cad>
          </ns3:TrackPointExtension>
        </extensions>
      </trkpt>
      <trkpt lat="52.2767520882189273834228515625" lon="1.6318500973284244537353515625">
        <ele>-244.1999969482421875</ele>
        <time>2025-09-07T09:12:03.000Z</time>
        <extensions>
          <ns3:TrackPointExtension>
            <ns3:hr>131</ns3:hr>
            <ns3:cad>79</ns3:cad>
          </ns3:TrackPointExtension>
        </extensions>
      </trkpt>
      <trkpt lat="52.27678854949772357940673828125" lon="1.6318346746265888214111328125">
        <ele>-242.1999969482421875</ele>
        <time>2025-09-07T09:12:05.000Z</time>
        <extensions>
          <ns3:TrackPointExtension>
            <ns3:hr>131</ns3:hr>
            <ns3:cad>80</ns3:cad>
          </ns3:TrackPointExtension>
        </extensions>
      </trkpt>
      <trkpt lat="52.2768322192132472991943359375" lon="1.6318397037684917449951171875">
        <ele>-241</ele>
        <time>2025-09-07T09:12:07.000Z</time>
        <extensions>
          <ns3:TrackPointExtension>
            <ns3:hr>132</ns3:hr>
            <ns3:cad>80</ns3:cad>
          </ns3:TrackPointExtension>
        </extensions>
      </trkpt>
      <trkpt lat="52.27685987949371337890625" lon="1.6318514384329319000244140625">
        <ele>-240.600006103515625</ele>
        <time>2025-09-07T09:12:09.000Z</time>
        <extensions>
          <ns3:TrackPointExtension>
            <ns3:hr>132</ns3:hr>
            <ns3:cad>79</ns3:cad>
          </ns3:TrackPointExtension>
        </extensions>
      </trkpt>
      <trkpt lat="52.27686365135014057159423828125" lon="1.6318668611347675323486328125">
        <ele>-240.399993896484375</ele>
        <time>2025-09-07T09:12:10.000Z</time>
        <extensions>
          <ns3:TrackPointExtension>
            <ns3:hr>131</ns3:hr>
            <ns3:cad>75</ns3:cad>
          </ns3:TrackPointExtension>
        </extensions>
      </trkpt>
      <trkpt lat="52.27686859667301177978515625" lon="1.63188773207366466522216796875">
        <ele>-240</ele>
        <time>2025-09-07T09:12:11.000Z</time>
        <extensions>
          <ns3:TrackPointExtension>
            <ns3:hr>131</ns3:hr>
            <ns3:cad>75</ns3:cad>
          </ns3:TrackPointExtension>
        </extensions>
      </trkpt>
      <trkpt lat="52.27686415426433086395263671875" lon="1.6319443099200725555419921875">
        <ele>-239.600006103515625</ele>
        <time>2025-09-07T09:12:15.000Z</time>
        <extensions>
          <ns3:TrackPointExtension>
            <ns3:hr>133</ns3:hr>
            <ns3:cad>0</ns3:cad>
          </ns3:TrackPointExtension>
        </extensions>
      </trkpt>
      <trkpt lat="52.27688209153711795806884765625" lon="1.63204363547265529632568359375">
        <ele>-239.8000030517578125</ele>
        <time>2025-09-07T09:12:19.000Z</time>
        <extensions>
          <ns3:TrackPointExtension>
            <ns3:hr>129</ns3:hr>
            <ns3:cad>57</ns3:cad>
          </ns3:TrackPointExtension>
        </extensions>
      </trkpt>
      <trkpt lat="52.27692718617618083953857421875" lon="1.63209996186196804046630859375">
        <ele>-239.8000030517578125</ele>
        <time>2025-09-07T09:12:23.000Z</time>
        <extensions>
          <ns3:TrackPointExtension>
            <ns3:hr>130</ns3:hr>
            <ns3:cad>0</ns3:cad>
          </ns3:TrackPointExtension>
        </extensions>
      </trkpt>
      <trkpt lat="52.27700597606599330902099609375" lon="1.63219870068132877349853515625">
        <ele>-239.8000030517578125</ele>
        <time>2025-09-07T09:12:28.000Z</time>
        <extensions>
          <ns3:TrackPointExtension>
            <ns3:hr>127</ns3:hr>
            <ns3:cad>79</ns3:cad>
          </ns3:TrackPointExtension>
        </extensions>
      </trkpt>
      <trkpt lat="52.27703698910772800445556640625" lon="1.63225485943257808685302734375">
        <ele>-239</ele>
        <time>2025-09-07T09:12:31.000Z</time>
        <extensions>
          <ns3:TrackPointExtension>
            <ns3:hr>128</ns3:hr>
            <ns3:cad>79</ns3:cad>
          </ns3:TrackPointExtension>
        </extensions>
      </trkpt>
      <trkpt lat="52.2770595364272594451904296875" lon="1.63228084333240985870361328125">
        <ele>-237</ele>
        <time>2025-09-07T09:12:33.000Z</time>
        <extensions>
          <ns3:TrackPointExtension>
            <ns3:hr>130</ns3:hr>
            <ns3:cad>79</ns3:cad>
          </ns3:TrackPointExtension>
        </extensions>
      </trkpt>
      <trkpt lat="52.2770930640399456024169921875" lon="1.63228981196880340576171875">
        <ele>-235.1999969482421875</ele>
        <time>2025-09-07T09:12:35.000Z</time>
        <extensions>
          <ns3:TrackPointExtension>
            <ns3:hr>131</ns3:hr>
            <ns3:cad>78</ns3:cad>
          </ns3:TrackPointExtension>
        </extensions>
      </trkpt>
      <trkpt lat="52.2771239094436168670654296875" lon="1.63228754885494709014892578125">
        <ele>-234</ele>
        <time>2025-09-07T09:12:37.000Z</time>
        <extensions>
          <ns3:TrackPointExtension>
            <ns3:hr>134</ns3:hr>
            <ns3:cad>78</ns3:cad>
          </ns3:TrackPointExtension>
        </extensions>
      </trkpt>
      <trkpt lat="52.27713815867900848388671875" lon="1.632284782826900482177734375">
        <ele>-232.399993896484375</ele>
        <time>2025-09-07T09:12:38.000Z</time>
        <extensions>
          <ns3:TrackPointExtension>
            <ns3:hr>133</ns3:hr>
            <ns3:cad>79</ns3:cad>
          </ns3:TrackPointExtension>
        </extensions>
      </trkpt>
      <trkpt lat="52.27716171182692050933837890625" lon="1.63227061741054058074951171875">
        <ele>-229.600006103515625</ele>
        <time>2025-09-07T09:12:39.000Z</time>
        <extensions>
          <ns3:TrackPointExtension>
            <ns3:hr>132</ns3:hr>
            <ns3:cad>80</ns3:cad>
          </ns3:TrackPointExtension>
        </extensions>
      </trkpt>
      <trkpt lat="52.27720613591372966766357421875" lon="1.6322497464716434478759765625">
        <ele>-226.399993896484375</ele>
        <time>2025-09-07T09:12:40.000Z</time>
        <extensions>
          <ns3:TrackPointExtension>
            <ns3:hr>131</ns3:hr>
            <ns3:cad>80</ns3:cad>
          </ns3:TrackPointExtension>
        </extensions>
      </trkpt>
      <trkpt lat="52.27722021751105785369873046875" lon="1.63224547170102596282958984375">
        <ele>-224.399993896484375</ele>
        <time>2025-09-07T09:12:41.000Z</time>
        <extensions>
          <ns3:TrackPointExtension>
            <ns3:hr>131</ns3:hr>
            <ns3:cad>80</ns3:cad>
          </ns3:TrackPointExtension>
        </extensions>
      </trkpt>
      <trkpt lat="52.27722935378551483154296875" lon="1.63225452415645122528076171875">
        <ele>-222.600006103515625</ele>
        <time>2025-09-07T09:12:42.000Z</time>
        <extensions>
          <ns3:TrackPointExtension>
            <ns3:hr>132</ns3:hr>
            <ns3:cad>80</ns3:cad>
          </ns3:TrackPointExtension>
        </extensions>
      </trkpt>
      <trkpt lat="52.2772432677447795867919921875" lon="1.632277071475982666015625">
        <ele>-221.1999969482421875</ele>
        <time>2025-09-07T09:12:44.000Z</time>
        <extensions>
          <ns3:TrackPointExtension>
            <ns3:hr>132</ns3:hr>
            <ns3:cad>65</ns3:cad>
          </ns3:TrackPointExtension>
        </extensions>
      </trkpt>
      <trkpt lat="52.27727922610938549041748046875" lon="1.63226164877414703369140625">
        <ele>-220.1999969482421875</ele>
        <time>2025-09-07T09:12:48.000Z</time>
        <extensions>
          <ns3:TrackPointExtension>
            <ns3:hr>133</ns3:hr>
            <ns3:cad>0</ns3:cad>
          </ns3:TrackPointExtension>
        </extensions>
      </trkpt>
      <trkpt lat="52.27731979452073574066162109375" lon="1.63218252360820770263671875">
        <ele>-220.600006103515625</ele>
        <time>2025-09-07T09:12:52.000Z</time>
        <extensions>
          <ns3:TrackPointExtension>
            <ns3:hr>130</ns3:hr>
            <ns3:cad>75</ns3:cad>
          </ns3:TrackPointExtension>
        </extensions>
      </trkpt>
      <trkpt lat="52.27736120112240314483642578125" lon="1.63216215558350086212158203125">
        <ele>-221.1999969482421875</ele>
        <time>2025-09-07T09:12:55.000Z</time>
        <extensions>
          <ns3:TrackPointExtension>
            <ns3:hr>128</ns3:hr>
            <ns3:cad>76</ns3:cad>
          </ns3:TrackPointExtension>
        </extensions>
      </trkpt>
      <trkpt lat="52.27739087305963039398193359375" lon="1.632153354585170745849609375">
        <ele>-222.1999969482421875</ele>
        <time>2025-09-07T09:12:57.000Z</time>
        <extensions>
          <ns3:TrackPointExtension>
            <ns3:hr>128</ns3:hr>
            <ns3:cad>68</ns3:cad>
          </ns3:TrackPointExtension>
        </extensions>
      </trkpt>
      <trkpt lat="52.27740445174276828765869140625" lon="1.63215008564293384552001953125">
        <ele>-223.1999969482421875</ele>
        <time>2025-09-07T09:12:58.000Z</time>
        <extensions>
          <ns3:TrackPointExtension>
            <ns3:hr>128</ns3:hr>
            <ns3:cad>68</ns3:cad>
          </ns3:TrackPointExtension>
        </extensions>
      </trkpt>
      <trkpt lat="52.277419455349445343017578125" lon="1.63214924745261669158935546875">
        <ele>-224.1999969482421875</ele>
        <time>2025-09-07T09:12:59.000Z</time>
        <extensions>
          <ns3:TrackPointExtension>
            <ns3:hr>129</ns3:hr>
            <ns3:cad>72</ns3:cad>
          </ns3:TrackPointExtension>
        </extensions>
      </trkpt>
      <trkpt lat="52.277434878051280975341796875" lon="1.63215276785194873809814453125">
        <ele>-225</ele>
        <time>2025-09-07T09:13:00.000Z</time>
        <extensions>
          <ns3:TrackPointExtension>
            <ns3:hr>127</ns3:hr>
            <ns3:cad>72</ns3:cad>
          </ns3:TrackPointExtension>
        </extensions>
      </trkpt>
      <trkpt lat="52.27745055221021175384521484375" lon="1.632159054279327392578125">
        <ele>-225.399993896484375</ele>
        <time>2025-09-07T09:13:01.000Z</time>
        <extensions>
          <ns3:TrackPointExtension>
            <ns3:hr>130</ns3:hr>
            <ns3:cad>72</ns3:cad>
          </ns3:TrackPointExtension>
        </extensions>
      </trkpt>
      <trkpt lat="52.27751676924526691436767578125" lon="1.6321818530559539794921875">
        <ele>-226.8000030517578125</ele>
        <time>2025-09-07T09:13:05.000Z</time>
        <extensions>
          <ns3:TrackPointExtension>
            <ns3:hr>130</ns3:hr>
            <ns3:cad>77</ns3:cad>
          </ns3:TrackPointExtension>
        </extensions>
      </trkpt>
      <trkpt lat="52.27754895575344562530517578125" lon="1.63218143396079540252685546875">
        <ele>-227.8000030517578125</ele>
        <time>2025-09-07T09:13:07.000Z</time>
        <extensions>
          <ns3:TrackPointExtension>
            <ns3:hr>129</ns3:hr>
            <ns3:cad>79</ns3:cad>
          </ns3:TrackPointExtension>
        </extensions>
      </trkpt>
      <trkpt lat="52.27756597101688385009765625" lon="1.6321790032088756561279296875">
        <ele>-228</ele>
        <time>2025-09-07T09:13:08.000Z</time>
        <extensions>
          <ns3:TrackPointExtension>
            <ns3:hr>130</ns3:hr>
            <ns3:cad>80</ns3:cad>
          </ns3:TrackPointExtension>
        </extensions>
      </trkpt>
      <trkpt lat="52.2776167653501033782958984375" lon="1.63218830712139606475830078125">
        <ele>-229</ele>
        <time>2025-09-07T09:13:11.000Z</time>
        <extensions>
          <ns3:TrackPointExtension>
            <ns3:hr>129</ns3:hr>
            <ns3:cad>79</ns3:cad>
          </ns3:TrackPointExtension>
        </extensions>
      </trkpt>
      <trkpt lat="52.277695052325725555419921875" lon="1.632239185273647308349609375">
        <ele>-230</ele>
        <time>2025-09-07T09:13:15.000Z</time>
        <extensions>
          <ns3:TrackPointExtension>
            <ns3:hr>131</ns3:hr>
            <ns3:cad>80</ns3:cad>
          </ns3:TrackPointExtension>
        </extensions>
      </trkpt>
      <trkpt lat="52.2777203656733036041259765625" lon="1.632247902452945709228515625">
        <ele>-230.399993896484375</ele>
        <time>2025-09-07T09:13:16.000Z</time>
        <extensions>
          <ns3:TrackPointExtension>
            <ns3:hr>134</ns3:hr>
            <ns3:cad>80</ns3:cad>
          </ns3:TrackPointExtension>
        </extensions>
      </trkpt>
      <trkpt lat="52.2777602635324001312255859375" lon="1.63227346725761890411376953125">
        <ele>-231.399993896484375</ele>
        <time>2025-09-07T09:13:18.000Z</time>
        <extensions>
          <ns3:TrackPointExtension>
            <ns3:hr>131</ns3:hr>
            <ns3:cad>80</ns3:cad>
          </ns3:TrackPointExtension>
        </extensions>
      </trkpt>
      <trkpt lat="52.2778232954442501068115234375" lon="1.6323079168796539306640625">
        <ele>-232.399993896484375</ele>
        <time>2025-09-07T09:13:21.000Z</time>
        <extensions>
          <ns3:TrackPointExtension>
            <ns3:hr>130</ns3:hr>
            <ns3:cad>79</ns3:cad>
          </ns3:TrackPointExtension>
        </extensions>
      </trkpt>
      <trkpt lat="52.27789646945893764495849609375" lon="1.6323305480182170867919921875">
        <ele>-233</ele>
        <time>2025-09-07T09:13:24.000Z</time>
        <extensions>
          <ns3:TrackPointExtension>
            <ns3:hr>130</ns3:hr>
            <ns3:cad>79</ns3:cad>
          </ns3:TrackPointExtension>
        </extensions>
      </trkpt>
      <trkpt lat="52.27791809476912021636962890625" lon="1.6323382593691349029541015625">
        <ele>-234.600006103515625</ele>
        <time>2025-09-07T09:13:25.000Z</time>
        <extensions>
          <ns3:TrackPointExtension>
            <ns3:hr>130</ns3:hr>
            <ns3:cad>79</ns3:cad>
          </ns3:TrackPointExtension>
        </extensions>
      </trkpt>
      <trkpt lat="52.277963943779468536376953125" lon="1.63235611282289028167724609375">
        <ele>-235.8000030517578125</ele>
        <time>2025-09-07T09:13:27.000Z</time>
        <extensions>
          <ns3:TrackPointExtension>
            <ns3:hr>130</ns3:hr>
            <ns3:cad>79</ns3:cad>
          </ns3:TrackPointExtension>
        </extensions>
      </trkpt>
      <trkpt lat="52.27803041227161884307861328125" lon="1.63237673230469226837158203125">
        <ele>-237.1999969482421875</ele>
        <time>2025-09-07T09:13:30.000Z</time>
        <extensions>
          <ns3:TrackPointExtension>
            <ns3:hr>132</ns3:hr>
            <ns3:cad>80</ns3:cad>
          </ns3:TrackPointExtension>
        </extensions>
      </trkpt>
      <trkpt lat="52.27804885245859622955322265625" lon="1.632383354008197784423828125">
        <ele>-237.600006103515625</ele>
        <time>2025-09-07T09:13:31.000Z</time>
        <extensions>
          <ns3:TrackPointExtension>
            <ns3:hr>133</ns3:hr>
            <ns3:cad>80</ns3:cad>
          </ns3:TrackPointExtension>
        </extensions>
      </trkpt>
      <trkpt lat="52.2780653648078441619873046875" lon="1.6323919035494327545166015625">
        <ele>-238.600006103515625</ele>
        <time>2025-09-07T09:13:32.000Z</time>
        <extensions>
          <ns3:TrackPointExtension>
            <ns3:hr>134</ns3:hr>
            <ns3:cad>80</ns3:cad>
          </ns3:TrackPointExtension>
        </extensions>
      </trkpt>
      <trkpt lat="52.27812244556844234466552734375" lon="1.6324147023260593414306640625">
        <ele>-239.8000030517578125</ele>
        <time>2025-09-07T09:13:35.000Z</time>
        <extensions>
          <ns3:TrackPointExtension>
            <ns3:hr>135</ns3:hr>
            <ns3:cad>79</ns3:cad>
          </ns3:TrackPointExtension>
        </extensions>
      </trkpt>
      <trkpt lat="52.278218083083629608154296875" lon="1.632398776710033416748046875">
        <ele>-240.600006103515625</ele>
        <time>2025-09-07T09:13:39.000Z</time>
        <extensions>
          <ns3:TrackPointExtension>
            <ns3:hr>135</ns3:hr>
            <ns3:cad>80</ns3:cad>
          </ns3:TrackPointExtension>
        </extensions>
      </trkpt>
      <trkpt lat="52.27827197872102260589599609375" lon="1.63237790577113628387451171875">
        <ele>-241</ele>
        <time>2025-09-07T09:13:43.000Z</time>
        <extensions>
          <ns3:TrackPointExtension>
            <ns3:hr>132</ns3:hr>
            <ns3:cad>79</ns3:cad>
          </ns3:TrackPointExtension>
        </extensions>
      </trkpt>
      <trkpt lat="52.2782809473574161529541015625" lon="1.63236684165894985198974609375">
        <ele>-241.600006103515625</ele>
        <time>2025-09-07T09:13:45.000Z</time>
        <extensions>
          <ns3:TrackPointExtension>
            <ns3:hr>133</ns3:hr>
            <ns3:cad>0</ns3:cad>
          </ns3:TrackPointExtension>
        </extensions>
      </trkpt>
      <trkpt lat="52.2782879881560802459716796875" lon="1.63236013613641262054443359375">
        <ele>-242.1999969482421875</ele>
        <time>2025-09-07T09:13:47.000Z</time>
        <extensions>
          <ns3:TrackPointExtension>
            <ns3:hr>133</ns3:hr>
            <ns3:cad>0</ns3:cad>
          </ns3:TrackPointExtension>
        </extensions>
      </trkpt>
      <trkpt lat="52.27829343639314174652099609375" lon="1.63235284388065338134765625">
        <ele>-244.600006103515625</ele>
        <time>2025-09-07T09:13:49.000Z</time>
        <extensions>
          <ns3:TrackPointExtension>
            <ns3:hr>133</ns3:hr>
            <ns3:cad>0</ns3:cad>
          </ns3:TrackPointExtension>
        </extensions>
      </trkpt>
      <trkpt lat="52.27831053547561168670654296875" lon="1.6323701106011867523193359375">
        <ele>-246.8000030517578125</ele>
        <time>2025-09-07T09:13:51.000Z</time>
        <extensions>
          <ns3:TrackPointExtension>
            <ns3:hr>133</ns3:hr>
            <ns3:cad>0</ns3:cad>
          </ns3:TrackPointExtension>
        </extensions>
      </trkpt>
      <trkpt lat="52.2783191688358783721923828125" lon="1.6323868744075298309326171875">
        <ele>-247.8000030517578125</ele>
        <time>2025-09-07T09:13:52.000Z</time>
        <extensions>
          <ns3:TrackPointExtension>
            <ns3:hr>132</ns3:hr>
            <ns3:cad>0</ns3:cad>
          </ns3:TrackPointExtension>
        </extensions>
      </trkpt>
      <trkpt lat="52.27832780219614505767822265625" lon="1.6323999501764774322509765625">
        <ele>-249.1999969482421875</ele>
        <time>2025-09-07T09:13:53.000Z</time>
        <extensions>
          <ns3:TrackPointExtension>
            <ns3:hr>130</ns3:hr>
            <ns3:cad>0</ns3:cad>
          </ns3:TrackPointExtension>
        </extensions>
      </trkpt>
      <trkpt lat="52.2783473320305347442626953125" lon="1.6324197314679622650146484375">
        <ele>-251.1999969482421875</ele>
        <time>2025-09-07T09:13:55.000Z</time>
        <extensions>
          <ns3:TrackPointExtension>
            <ns3:hr>130</ns3:hr>
            <ns3:cad>0</ns3:cad>
          </ns3:TrackPointExtension>
        </extensions>
      </trkpt>
      <trkpt lat="52.278372310101985931396484375" lon="1.63243423216044902801513671875">
        <ele>-252.399993896484375</ele>
        <time>2025-09-07T09:13:57.000Z</time>
        <extensions>
          <ns3:TrackPointExtension>
            <ns3:hr>129</ns3:hr>
            <ns3:cad>54</ns3:cad>
          </ns3:TrackPointExtension>
        </extensions>
      </trkpt>
      <trkpt lat="52.27839167229831218719482421875" lon="1.63246281445026397705078125">
        <ele>-253.399993896484375</ele>
        <time>2025-09-07T09:13:59.000Z</time>
        <extensions>
          <ns3:TrackPointExtension>
            <ns3:hr>130</ns3:hr>
            <ns3:cad>54</ns3:cad>
          </ns3:TrackPointExtension>
        </extensions>
      </trkpt>
      <trkpt lat="52.27840290404856204986572265625" lon="1.63249944336712360382080078125">
        <ele>-255</ele>
        <time>2025-09-07T09:14:00.000Z</time>
        <extensions>
          <ns3:TrackPointExtension>
            <ns3:hr>128</ns3:hr>
            <ns3:cad>54</ns3:cad>
          </ns3:TrackPointExtension>
        </extensions>
      </trkpt>
      <trkpt lat="52.2784195840358734130859375" lon="1.63255224935710430145263671875">
        <ele>-256.20001220703125</ele>
        <time>2025-09-07T09:14:04.000Z</time>
        <extensions>
          <ns3:TrackPointExtension>
            <ns3:hr>127</ns3:hr>
            <ns3:cad>57</ns3:cad>
          </ns3:TrackPointExtension>
        </extensions>
      </trkpt>
      <trkpt lat="52.2784425504505634307861328125" lon="1.63258426822721958160400390625">
        <ele>-256.399993896484375</ele>
        <time>2025-09-07T09:14:06.000Z</time>
        <extensions>
          <ns3:TrackPointExtension>
            <ns3:hr>125</ns3:hr>
            <ns3:cad>0</ns3:cad>
          </ns3:TrackPointExtension>
        </extensions>
      </trkpt>
      <trkpt lat="52.27845587767660617828369140625" lon="1.63262399844825267791748046875">
        <ele>-256.600006103515625</ele>
        <time>2025-09-07T09:14:08.000Z</time>
        <extensions>
          <ns3:TrackPointExtension>
            <ns3:hr>126</ns3:hr>
            <ns3:cad>0</ns3:cad>
          </ns3:TrackPointExtension>
        </extensions>
      </trkpt>
      <trkpt lat="52.27845369838178157806396484375" lon="1.63265232928097248077392578125">
        <ele>-257.399993896484375</ele>
        <time>2025-09-07T09:14:09.000Z</time>
        <extensions>
          <ns3:TrackPointExtension>
            <ns3:hr>127</ns3:hr>
            <ns3:cad>0</ns3:cad>
          </ns3:TrackPointExtension>
        </extensions>
      </trkpt>
      <trkpt lat="52.27844984270632266998291015625" lon="1.63267814554274082183837890625">
        <ele>-258.399993896484375</ele>
        <time>2025-09-07T09:14:10.000Z</time>
        <extensions>
          <ns3:TrackPointExtension>
            <ns3:hr>124</ns3:hr>
            <ns3:cad>0</ns3:cad>
          </ns3:TrackPointExtension>
        </extensions>
      </trkpt>
      <trkpt lat="52.27844783104956150054931640625" lon="1.632697843015193939208984375">
        <ele>-259.20001220703125</ele>
        <time>2025-09-07T09:14:11.000Z</time>
        <extensions>
          <ns3:TrackPointExtension>
            <ns3:hr>122</ns3:hr>
            <ns3:cad>0</ns3:cad>
          </ns3:TrackPointExtension>
        </extensions>
      </trkpt>
      <trkpt lat="52.27844598703086376190185546875" lon="1.6327338851988315582275390625">
        <ele>-260.399993896484375</ele>
        <time>2025-09-07T09:14:13.000Z</time>
        <extensions>
          <ns3:TrackPointExtension>
            <ns3:hr>120</ns3:hr>
            <ns3:cad>0</ns3:cad>
          </ns3:TrackPointExtension>
        </extensions>
      </trkpt>
      <trkpt lat="52.278452105820178985595703125" lon="1.63276833482086658477783203125">
        <ele>-261.20001220703125</ele>
        <time>2025-09-07T09:14:15.000Z</time>
        <extensions>
          <ns3:TrackPointExtension>
            <ns3:hr>121</ns3:hr>
            <ns3:cad>61</ns3:cad>
          </ns3:TrackPointExtension>
        </extensions>
      </trkpt>
      <trkpt lat="52.27845855988562107086181640625" lon="1.6327851824462413787841796875">
        <ele>-261.600006103515625</ele>
        <time>2025-09-07T09:14:16.000Z</time>
        <extensions>
          <ns3:TrackPointExtension>
            <ns3:hr>121</ns3:hr>
            <ns3:cad>61</ns3:cad>
          </ns3:TrackPointExtension>
        </extensions>
      </trkpt>
      <trkpt lat="52.27846358902752399444580078125" lon="1.6328019462525844573974609375">
        <ele>-262</ele>
        <time>2025-09-07T09:14:17.000Z</time>
        <extensions>
          <ns3:TrackPointExtension>
            <ns3:hr>122</ns3:hr>
            <ns3:cad>61</ns3:cad>
          </ns3:TrackPointExtension>
        </extensions>
      </trkpt>
      <trkpt lat="52.278466522693634033203125" lon="1.63282114081084728240966796875">
        <ele>-262.20001220703125</ele>
        <time>2025-09-07T09:14:18.000Z</time>
        <extensions>
          <ns3:TrackPointExtension>
            <ns3:hr>122</ns3:hr>
            <ns3:cad>57</ns3:cad>
          </ns3:TrackPointExtension>
        </extensions>
      </trkpt>
      <trkpt lat="52.2784623317420482635498046875" lon="1.63286355324089527130126953125">
        <ele>-263.20001220703125</ele>
        <time>2025-09-07T09:14:20.000Z</time>
        <extensions>
          <ns3:TrackPointExtension>
            <ns3:hr>121</ns3:hr>
            <ns3:cad>0</ns3:cad>
          </ns3:TrackPointExtension>
        </extensions>
      </trkpt>
      <trkpt lat="52.2784573026001453399658203125" lon="1.63288392126560211181640625">
        <ele>-264.399993896484375</ele>
        <time>2025-09-07T09:14:22.000Z</time>
        <extensions>
          <ns3:TrackPointExtension>
            <ns3:hr>120</ns3:hr>
            <ns3:cad>0</ns3:cad>
          </ns3:TrackPointExtension>
        </extensions>
      </trkpt>
      <trkpt lat="52.2784526087343692779541015625" lon="1.63289842195808887481689453125">
        <ele>-266</ele>
        <time>2025-09-07T09:14:24.000Z</time>
        <extensions>
          <ns3:TrackPointExtension>
            <ns3:hr>119</ns3:hr>
            <ns3:cad>0</ns3:cad>
          </ns3:TrackPointExtension>
        </extensions>
      </trkpt>
      <trkpt lat="52.2784442268311977386474609375" lon="1.63291267119348049163818359375">
        <ele>-267.399993896484375</ele>
        <time>2025-09-07T09:14:27.000Z</time>
        <extensions>
          <ns3:TrackPointExtension>
            <ns3:hr>117</ns3:hr>
            <ns3:cad>0</ns3:cad>
          </ns3:TrackPointExtension>
        </extensions>
      </trkpt>
      <trkpt lat="52.27846124209463596343994140625" lon="1.63291803561151027679443359375">
        <ele>-268</ele>
        <time>2025-09-07T09:14:33.000Z</time>
        <extensions>
          <ns3:TrackPointExtension>
            <ns3:hr>117</ns3:hr>
            <ns3:cad>0</ns3:cad>
          </ns3:TrackPointExtension>
        </extensions>
      </trkpt>
      <trkpt lat="52.2784676961600780487060546875" lon="1.6329169459640979766845703125">
        <ele>-268.600006103515625</ele>
        <time>2025-09-07T09:14:35.000Z</time>
        <extensions>
          <ns3:TrackPointExtension>
            <ns3:hr>118</ns3:hr>
            <ns3:cad>0</ns3:cad>
          </ns3:TrackPointExtension>
        </extensions>
      </trkpt>
      <trkpt lat="52.2784713841974735260009765625" lon="1.6329149343073368072509765625">
        <ele>-269.600006103515625</ele>
        <time>2025-09-07T09:14:37.000Z</time>
        <extensions>
          <ns3:TrackPointExtension>
            <ns3:hr>118</ns3:hr>
            <ns3:cad>0</ns3:cad>
          </ns3:TrackPointExtension>
        </extensions>
      </trkpt>
      <trkpt lat="52.27847096510231494903564453125" lon="1.63291485048830509185791015625">
        <ele>-270.79998779296875</ele>
        <time>2025-09-07T09:14:41.000Z</time>
        <extensions>
          <ns3:TrackPointExtension>
            <ns3:hr>118</ns3:hr>
            <ns3:cad>0</ns3:cad>
          </ns3:TrackPointExtension>
        </extensions>
      </trkpt>
      <trkpt lat="52.27846794761717319488525390625" lon="1.63292155601084232330322265625">
        <ele>-273</ele>
        <time>2025-09-07T09:14:44.000Z</time>
        <extensions>
          <ns3:TrackPointExtension>
            <ns3:hr>119</ns3:hr>
            <ns3:cad>0</ns3:cad>
          </ns3:TrackPointExtension>
        </extensions>
      </trkpt>
      <trkpt lat="52.2784678637981414794921875" lon="1.63292356766760349273681640625">
        <ele>-271.79998779296875</ele>
        <time>2025-09-07T09:14:46.000Z</time>
        <extensions>
          <ns3:TrackPointExtension>
            <ns3:hr>118</ns3:hr>
            <ns3:cad>0</ns3:cad>
          </ns3:TrackPointExtension>
        </extensions>
      </trkpt>
      <trkpt lat="52.2784616611897945404052734375" lon="1.6329219751060009002685546875">
        <ele>-270.79998779296875</ele>
        <time>2025-09-07T09:14:48.000Z</time>
        <extensions>
          <ns3:TrackPointExtension>
            <ns3:hr>119</ns3:hr>
            <ns3:cad>0</ns3:cad>
          </ns3:TrackPointExtension>
        </extensions>
      </trkpt>
      <trkpt lat="52.27845252491533756256103515625" lon="1.63291971199214458465576171875">
        <ele>-270.20001220703125</ele>
        <time>2025-09-07T09:14:51.000Z</time>
        <extensions>
          <ns3:TrackPointExtension>
            <ns3:hr>116</ns3:hr>
            <ns3:cad>0</ns3:cad>
          </ns3:TrackPointExtension>
        </extensions>
      </trkpt>
      <trkpt lat="52.27844037115573883056640625" lon="1.632917784154415130615234375">
        <ele>-269.79998779296875</ele>
        <time>2025-09-07T09:14:56.000Z</time>
        <extensions>
          <ns3:TrackPointExtension>
            <ns3:hr>118</ns3:hr>
            <ns3:cad>0</ns3:cad>
          </ns3:TrackPointExtension>
        </extensions>
      </trkpt>
      <trkpt lat="52.27843810804188251495361328125" lon="1.63291719742119312286376953125">
        <ele>-269.79998779296875</ele>
        <time>2025-09-07T09:14:58.000Z</time>
        <extensions>
          <ns3:TrackPointExtension>
            <ns3:hr>115</ns3:hr>
            <ns3:cad>0</ns3:cad>
          </ns3:TrackPointExtension>
        </extensions>
      </trkpt>
      <trkpt lat="52.278434336185455322265625" lon="1.6329266689717769622802734375">
        <ele>-270.20001220703125</ele>
        <time>2025-09-07T09:15:03.000Z</time>
        <extensions>
          <ns3:TrackPointExtension>
            <ns3:hr>112</ns3:hr>
            <ns3:cad>0</ns3:cad>
          </ns3:TrackPointExtension>
        </extensions>
      </trkpt>
      <trkpt lat="52.27843190543353557586669921875" lon="1.63292574696242809295654296875">
        <ele>-270.600006103515625</ele>
        <time>2025-09-07T09:15:07.000Z</time>
        <extensions>
          <ns3:TrackPointExtension>
            <ns3:hr>112</ns3:hr>
            <ns3:cad>0</ns3:cad>
          </ns3:TrackPointExtension>
        </extensions>
      </trkpt>
      <trkpt lat="52.27843089960515499114990234375" lon="1.63292490877211093902587890625">
        <ele>-271.399993896484375</ele>
        <time>2025-09-07T09:15:08.000Z</time>
        <extensions>
          <ns3:TrackPointExtension>
            <ns3:hr>111</ns3:hr>
            <ns3:cad>0</ns3:cad>
          </ns3:TrackPointExtension>
        </extensions>
      </trkpt>
      <trkpt lat="52.27842872031033039093017578125" lon="1.6329229809343814849853515625">
        <ele>-272.399993896484375</ele>
        <time>2025-09-07T09:15:09.000Z</time>
        <extensions>
          <ns3:TrackPointExtension>
            <ns3:hr>111</ns3:hr>
            <ns3:cad>0</ns3:cad>
          </ns3:TrackPointExtension>
        </extensions>
      </trkpt>
      <trkpt lat="52.278422601521015167236328125" lon="1.63291853852570056915283203125">
        <ele>-273.79998779296875</ele>
        <time>2025-09-07T09:15:11.000Z</time>
        <extensions>
          <ns3:TrackPointExtension>
            <ns3:hr>112</ns3:hr>
            <ns3:cad>0</ns3:cad>
          </ns3:TrackPointExtension>
        </extensions>
      </trkpt>
      <trkpt lat="52.27841530926525592803955078125" lon="1.63291208446025848388671875">
        <ele>-274.399993896484375</ele>
        <time>2025-09-07T09:15:13.000Z</time>
        <extensions>
          <ns3:TrackPointExtension>
            <ns3:hr>109</ns3:hr>
            <ns3:cad>0</ns3:cad>
          </ns3:TrackPointExtension>
        </extensions>
      </trkpt>
      <trkpt lat="52.27840960957109928131103515625" lon="1.63290814496576786041259765625">
        <ele>-274.79998779296875</ele>
        <time>2025-09-07T09:15:15.000Z</time>
        <extensions>
          <ns3:TrackPointExtension>
            <ns3:hr>110</ns3:hr>
            <ns3:cad>0</ns3:cad>
          </ns3:TrackPointExtension>
        </extensions>
      </trkpt>
      <trkpt lat="52.2784070111811161041259765625" lon="1.63290730677545070648193359375">
        <ele>-275.79998779296875</ele>
        <time>2025-09-07T09:15:17.000Z</time>
        <extensions>
          <ns3:TrackPointExtension>
            <ns3:hr>108</ns3:hr>
            <ns3:cad>0</ns3:cad>
          </ns3:TrackPointExtension>
        </extensions>
      </trkpt>
      <trkpt lat="52.278401814401149749755859375" lon="1.632912419736385345458984375">
        <ele>-277</ele>
        <time>2025-09-07T09:15:19.000Z</time>
        <extensions>
          <ns3:TrackPointExtension>
            <ns3:hr>108</ns3:hr>
            <ns3:cad>0</ns3:cad>
          </ns3:TrackPointExtension>
        </extensions>
      </trkpt>
      <trkpt lat="52.278394438326358795166015625" lon="1.6329115815460681915283203125">
        <ele>-277.600006103515625</ele>
        <time>2025-09-07T09:15:21.000Z</time>
        <extensions>
          <ns3:TrackPointExtension>
            <ns3:hr>105</ns3:hr>
            <ns3:cad>0</ns3:cad>
          </ns3:TrackPointExtension>
        </extensions>
      </trkpt>
      <trkpt lat="52.27839217521250247955322265625" lon="1.63291149772703647613525390625">
        <ele>-278.20001220703125</ele>
        <time>2025-09-07T09:15:22.000Z</time>
        <extensions>
          <ns3:TrackPointExtension>
            <ns3:hr>105</ns3:hr>
            <ns3:cad>0</ns3:cad>
          </ns3:TrackPointExtension>
        </extensions>
      </trkpt>
      <trkpt lat="52.27839183993637561798095703125" lon="1.6329105757176876068115234375">
        <ele>-279.79998779296875</ele>
        <time>2025-09-07T09:15:23.000Z</time>
        <extensions>
          <ns3:TrackPointExtension>
            <ns3:hr>106</ns3:hr>
            <ns3:cad>0</ns3:cad>
          </ns3:TrackPointExtension>
        </extensions>
      </trkpt>
      <trkpt lat="52.27839167229831218719482421875" lon="1.632904708385467529296875">
        <ele>-282.79998779296875</ele>
        <time>2025-09-07T09:15:24.000Z</time>
        <extensions>
          <ns3:TrackPointExtension>
            <ns3:hr>105</ns3:hr>
            <ns3:cad>0</ns3:cad>
          </ns3:TrackPointExtension>
        </extensions>
      </trkpt>
      <trkpt lat="52.27838781662285327911376953125" lon="1.63289959542453289031982421875">
        <ele>-285</ele>
        <time>2025-09-07T09:15:25.000Z</time>
        <extensions>
          <ns3:TrackPointExtension>
            <ns3:hr>105</ns3:hr>
            <ns3:cad>0</ns3:cad>
          </ns3:TrackPointExtension>
        </extensions>
      </trkpt>
      <trkpt lat="52.27838479913771152496337890625" lon="1.63290043361485004425048828125">
        <ele>-286.399993896484375</ele>
        <time>2025-09-07T09:15:26.000Z</time>
        <extensions>
          <ns3:TrackPointExtension>
            <ns3:hr>105</ns3:hr>
            <ns3:cad>0</ns3:cad>
          </ns3:TrackPointExtension>
        </extensions>
      </trkpt>
      <trkpt lat="52.27838136255741119384765625" lon="1.63290177471935749053955078125">
        <ele>-287.399993896484375</ele>
        <time>2025-09-07T09:15:27.000Z</time>
        <extensions>
          <ns3:TrackPointExtension>
            <ns3:hr>105</ns3:hr>
            <ns3:cad>0</ns3:cad>
          </ns3:TrackPointExtension>
        </extensions>
      </trkpt>
      <trkpt lat="52.27837759070098400115966796875" lon="1.6329028643667697906494140625">
        <ele>-288.79998779296875</ele>
        <time>2025-09-07T09:15:28.000Z</time>
        <extensions>
          <ns3:TrackPointExtension>
            <ns3:hr>105</ns3:hr>
            <ns3:cad>0</ns3:cad>
          </ns3:TrackPointExtension>
        </extensions>
      </trkpt>
      <trkpt lat="52.27836837060749530792236328125" lon="1.63290345109999179840087890625">
        <ele>-290.399993896484375</ele>
        <time>2025-09-07T09:15:30.000Z</time>
        <extensions>
          <ns3:TrackPointExtension>
            <ns3:hr>104</ns3:hr>
            <ns3:cad>0</ns3:cad>
          </ns3:TrackPointExtension>
        </extensions>
      </trkpt>
      <trkpt lat="52.27836258709430694580078125" lon="1.632907055318355560302734375">
        <ele>-292.20001220703125</ele>
        <time>2025-09-07T09:15:32.000Z</time>
        <extensions>
          <ns3:TrackPointExtension>
            <ns3:hr>103</ns3:hr>
            <ns3:cad>0</ns3:cad>
          </ns3:TrackPointExtension>
        </extensions>
      </trkpt>
      <trkpt lat="52.27836250327527523040771484375" lon="1.6329068876802921295166015625">
        <ele>-293.600006103515625</ele>
        <time>2025-09-07T09:15:34.000Z</time>
        <extensions>
          <ns3:TrackPointExtension>
            <ns3:hr>103</ns3:hr>
            <ns3:cad>0</ns3:cad>
          </ns3:TrackPointExtension>
        </extensions>
      </trkpt>
      <trkpt lat="52.27835864759981632232666015625" lon="1.6329018585383892059326171875">
        <ele>-295</ele>
        <time>2025-09-07T09:15:38.000Z</time>
        <extensions>
          <ns3:TrackPointExtension>
            <ns3:hr>102</ns3:hr>
            <ns3:cad>0</ns3:cad>
          </ns3:TrackPointExtension>
        </extensions>
      </trkpt>
      <trkpt lat="52.27835931815207004547119140625" lon="1.63290076889097690582275390625">
        <ele>-295.20001220703125</ele>
        <time>2025-09-07T09:15:39.000Z</time>
        <extensions>
          <ns3:TrackPointExtension>
            <ns3:hr>102</ns3:hr>
            <ns3:cad>0</ns3:cad>
          </ns3:TrackPointExtension>
        </extensions>
      </trkpt>
      <trkpt lat="52.27835747413337230682373046875" lon="1.63290001451969146728515625">
        <ele>-296</ele>
        <time>2025-09-07T09:15:41.000Z</time>
        <extensions>
          <ns3:TrackPointExtension>
            <ns3:hr>101</ns3:hr>
            <ns3:cad>0</ns3:cad>
          </ns3:TrackPointExtension>
        </extensions>
      </trkpt>
      <trkpt lat="52.2783597372472286224365234375" lon="1.6329021938145160675048828125">
        <ele>-297.600006103515625</ele>
        <time>2025-09-07T09:15:44.000Z</time>
        <extensions>
          <ns3:TrackPointExtension>
            <ns3:hr>101</ns3:hr>
            <ns3:cad>0</ns3:cad>
          </ns3:TrackPointExtension>
        </extensions>
      </trkpt>
      <trkpt lat="52.27836937643587589263916015625" lon="1.632899008691310882568359375">
        <ele>-300.20001220703125</ele>
        <time>2025-09-07T09:15:46.000Z</time>
        <extensions>
          <ns3:TrackPointExtension>
            <ns3:hr>102</ns3:hr>
            <ns3:cad>0</ns3:cad>
          </ns3:TrackPointExtension>
        </extensions>
      </trkpt>
      <trkpt lat="52.278374992311000823974609375" lon="1.63289808668196201324462890625">
        <ele>-302.399993896484375</ele>
        <time>2025-09-07T09:15:48.000Z</time>
        <extensions>
          <ns3:TrackPointExtension>
            <ns3:hr>100</ns3:hr>
            <ns3:cad>0</ns3:cad>
          </ns3:TrackPointExtension>
        </extensions>
      </trkpt>
      <trkpt lat="52.27837339974939823150634765625" lon="1.63289775140583515167236328125">
        <ele>-303.600006103515625</ele>
        <time>2025-09-07T09:15:50.000Z</time>
        <extensions>
          <ns3:TrackPointExtension>
            <ns3:hr>96</ns3:hr>
            <ns3:cad>0</ns3:cad>
          </ns3:TrackPointExtension>
        </extensions>
      </trkpt>
      <trkpt lat="52.27837775833904743194580078125" lon="1.63288786076009273529052734375">
        <ele>-305</ele>
        <time>2025-09-07T09:15:54.000Z</time>
        <extensions>
          <ns3:TrackPointExtension>
            <ns3:hr>94</ns3:hr>
            <ns3:cad>0</ns3:cad>
          </ns3:TrackPointExtension>
        </extensions>
      </trkpt>
      <trkpt lat="52.27838848717510700225830078125" lon="1.63289465010166168212890625">
        <ele>-306</ele>
        <time>2025-09-07T09:15:57.000Z</time>
        <extensions>
          <ns3:TrackPointExtension>
            <ns3:hr>94</ns3:hr>
            <ns3:cad>0</ns3:cad>
          </ns3:TrackPointExtension>
        </extensions>
      </trkpt>
      <trkpt lat="52.2783889062702655792236328125" lon="1.6328964941203594207763671875">
        <ele>-306</ele>
        <time>2025-09-07T09:15:58.000Z</time>
        <extensions>
          <ns3:TrackPointExtension>
            <ns3:hr>93</ns3:hr>
            <ns3:cad>0</ns3:cad>
          </ns3:TrackPointExtension>
        </extensions>
      </trkpt>
      <trkpt lat="52.27840776555240154266357421875" lon="1.63291133008897304534912109375">
        <ele>-307.399993896484375</ele>
        <time>2025-09-07T09:16:03.000Z</time>
        <extensions>
          <ns3:TrackPointExtension>
            <ns3:hr>92</ns3:hr>
            <ns3:cad>0</ns3:cad>
          </ns3:TrackPointExtension>
        </extensions>
      </trkpt>
      <trkpt lat="52.27841891348361968994140625" lon="1.63291987963020801544189453125">
        <ele>-308.399993896484375</ele>
        <time>2025-09-07T09:16:05.000Z</time>
        <extensions>
          <ns3:TrackPointExtension>
            <ns3:hr>92</ns3:hr>
            <ns3:cad>0</ns3:cad>
          </ns3:TrackPointExtension>
        </extensions>
      </trkpt>
      <trkpt lat="52.27842570282518863677978515625" lon="1.63291652686893939971923828125">
        <ele>-309</ele>
        <time>2025-09-07T09:16:06.000Z</time>
        <extensions>
          <ns3:TrackPointExtension>
            <ns3:hr>92</ns3:hr>
            <ns3:cad>0</ns3:cad>
          </ns3:TrackPointExtension>
        </extensions>
      </trkpt>
      <trkpt lat="52.27842955850064754486083984375" lon="1.63291686214506626129150390625">
        <ele>-309.600006103515625</ele>
        <time>2025-09-07T09:16:07.000Z</time>
        <extensions>
          <ns3:TrackPointExtension>
            <ns3:hr>92</ns3:hr>
            <ns3:cad>0</ns3:cad>
          </ns3:TrackPointExtension>
        </extensions>
      </trkpt>
      <trkpt lat="52.27844975888729095458984375" lon="1.6329011879861354827880859375">
        <ele>-311</ele>
        <time>2025-09-07T09:16:10.000Z</time>
        <extensions>
          <ns3:TrackPointExtension>
            <ns3:hr>94</ns3:hr>
            <ns3:cad>0</ns3:cad>
          </ns3:TrackPointExtension>
        </extensions>
      </trkpt>
      <trkpt lat="52.2784583084285259246826171875" lon="1.63286690600216388702392578125">
        <ele>-312.20001220703125</ele>
        <time>2025-09-07T09:16:13.000Z</time>
        <extensions>
          <ns3:TrackPointExtension>
            <ns3:hr>93</ns3:hr>
            <ns3:cad>0</ns3:cad>
          </ns3:TrackPointExtension>
        </extensions>
      </trkpt>
      <trkpt lat="52.27847331203520298004150390625" lon="1.63287411443889141082763671875">
        <ele>-313</ele>
        <time>2025-09-07T09:16:15.000Z</time>
        <extensions>
          <ns3:TrackPointExtension>
            <ns3:hr>86</ns3:hr>
            <ns3:cad>0</ns3:cad>
          </ns3:TrackPointExtension>
        </extensions>
      </trkpt>
      <trkpt lat="52.27847683243453502655029296875" lon="1.632873527705669403076171875">
        <ele>-313.20001220703125</ele>
        <time>2025-09-07T09:16:16.000Z</time>
        <extensions>
          <ns3:TrackPointExtension>
            <ns3:hr>89</ns3:hr>
            <ns3:cad>0</ns3:cad>
          </ns3:TrackPointExtension>
        </extensions>
      </trkpt>
      <trkpt lat="52.2784804366528987884521484375" lon="1.63287159986793994903564453125">
        <ele>-313.600006103515625</ele>
        <time>2025-09-07T09:16:17.000Z</time>
        <extensions>
          <ns3:TrackPointExtension>
            <ns3:hr>89</ns3:hr>
            <ns3:cad>0</ns3:cad>
          </ns3:TrackPointExtension>
        </extensions>
      </trkpt>
      <trkpt lat="52.2784891538321971893310546875" lon="1.6328683309257030487060546875">
        <ele>-314.79998779296875</ele>
        <time>2025-09-07T09:16:21.000Z</time>
        <extensions>
          <ns3:TrackPointExtension>
            <ns3:hr>88</ns3:hr>
            <ns3:cad>0</ns3:cad>
          </ns3:TrackPointExtension>
        </extensions>
      </trkpt>
      <trkpt lat="52.27848923765122890472412109375" lon="1.6328683309257030487060546875">
        <ele>-315.399993896484375</ele>
        <time>2025-09-07T09:16:23.000Z</time>
        <extensions>
          <ns3:TrackPointExtension>
            <ns3:hr>91</ns3:hr>
            <ns3:cad>0</ns3:cad>
          </ns3:TrackPointExtension>
        </extensions>
      </trkpt>
      <trkpt lat="52.2784908302128314971923828125" lon="1.63286380469799041748046875">
        <ele>-315.600006103515625</ele>
        <time>2025-09-07T09:16:25.000Z</time>
        <extensions>
          <ns3:TrackPointExtension>
            <ns3:hr>88</ns3:hr>
            <ns3:cad>0</ns3:cad>
          </ns3:TrackPointExtension>
        </extensions>
      </trkpt>
      <trkpt lat="52.27850206196308135986328125" lon="1.63286841474473476409912109375">
        <ele>-315.79998779296875</ele>
        <time>2025-09-07T09:16:30.000Z</time>
        <extensions>
          <ns3:TrackPointExtension>
            <ns3:hr>87</ns3:hr>
            <ns3:cad>0</ns3:cad>
          </ns3:TrackPointExtension>
        </extensions>
      </trkpt>
      <trkpt lat="52.27850600145757198333740234375" lon="1.63287528790533542633056640625">
        <ele>-316</ele>
        <time>2025-09-07T09:16:31.000Z</time>
        <extensions>
          <ns3:TrackPointExtension>
            <ns3:hr>84</ns3:hr>
            <ns3:cad>0</ns3:cad>
          </ns3:TrackPointExtension>
        </extensions>
      </trkpt>
      <trkpt lat="52.2785085998475551605224609375" lon="1.6328847594559192657470703125">
        <ele>-317.20001220703125</ele>
        <time>2025-09-07T09:16:33.000Z</time>
        <extensions>
          <ns3:TrackPointExtension>
            <ns3:hr>86</ns3:hr>
            <ns3:cad>0</ns3:cad>
          </ns3:TrackPointExtension>
        </extensions>
      </trkpt>
      <trkpt lat="52.278503067791461944580078125" lon="1.6328612901270389556884765625">
        <ele>-317</ele>
        <time>2025-09-07T09:16:39.000Z</time>
        <extensions>
          <ns3:TrackPointExtension>
            <ns3:hr>86</ns3:hr>
            <ns3:cad>0</ns3:cad>
          </ns3:TrackPointExtension>
        </extensions>
      </trkpt>
      <trkpt lat="52.27852209471166133880615234375" lon="1.632921136915683746337890625">
        <ele>-317.79998779296875</ele>
        <time>2025-09-07T09:16:49.000Z</time>
        <extensions>
          <ns3:TrackPointExtension>
            <ns3:hr>89</ns3:hr>
            <ns3:cad>0</ns3:cad>
          </ns3:TrackPointExtension>
        </extensions>
      </trkpt>
      <trkpt lat="52.27852444164454936981201171875" lon="1.63290713913738727569580078125">
        <ele>-318</ele>
        <time>2025-09-07T09:16:52.000Z</time>
        <extensions>
          <ns3:TrackPointExtension>
            <ns3:hr>92</ns3:hr>
            <ns3:cad>0</ns3:cad>
          </ns3:TrackPointExtension>
        </extensions>
      </trkpt>
      <trkpt lat="52.2785233519971370697021484375" lon="1.632899343967437744140625">
        <ele>-318.20001220703125</ele>
        <time>2025-09-07T09:16:54.000Z</time>
        <extensions>
          <ns3:TrackPointExtension>
            <ns3:hr>95</ns3:hr>
            <ns3:cad>0</ns3:cad>
          </ns3:TrackPointExtension>
        </extensions>
      </trkpt>
      <trkpt lat="52.27851572446525096893310546875" lon="1.63288769312202930450439453125">
        <ele>-318.79998779296875</ele>
        <time>2025-09-07T09:16:57.000Z</time>
        <extensions>
          <ns3:TrackPointExtension>
            <ns3:hr>98</ns3:hr>
            <ns3:cad>0</ns3:cad>
          </ns3:TrackPointExtension>
        </extensions>
      </trkpt>
      <trkpt lat="52.2785112820565700531005859375" lon="1.63288802839815616607666015625">
        <ele>-319.20001220703125</ele>
        <time>2025-09-07T09:17:00.000Z</time>
        <extensions>
          <ns3:TrackPointExtension>
            <ns3:hr>97</ns3:hr>
            <ns3:cad>0</ns3:cad>
          </ns3:TrackPointExtension>
        </extensions>
      </trkpt>
      <trkpt lat="52.27851069532334804534912109375" lon="1.6328872740268707275390625">
        <ele>-319.20001220703125</ele>
        <time>2025-09-07T09:17:01.000Z</time>
        <extensions>
          <ns3:TrackPointExtension>
            <ns3:hr>97</ns3:hr>
            <ns3:cad>0</ns3:cad>
          </ns3:TrackPointExtension>
        </extensions>
      </trkpt>
      <trkpt lat="52.2785027325153350830078125" lon="1.6328740306198596954345703125">
        <ele>-320.399993896484375</ele>
        <time>2025-09-07T09:17:09.000Z</time>
        <extensions>
          <ns3:TrackPointExtension>
            <ns3:hr>97</ns3:hr>
            <ns3:cad>0</ns3:cad>
          </ns3:TrackPointExtension>
        </extensions>
      </trkpt>
      <trkpt lat="52.27849024347960948944091796875" lon="1.6328658163547515869140625">
        <ele>-320.399993896484375</ele>
        <time>2025-09-07T09:17:12.000Z</time>
        <extensions>
          <ns3:TrackPointExtension>
            <ns3:hr>93</ns3:hr>
            <ns3:cad>0</ns3:cad>
          </ns3:TrackPointExtension>
        </extensions>
      </trkpt>
      <trkpt lat="52.27847364731132984161376953125" lon="1.6328752040863037109375">
        <ele>-321.20001220703125</ele>
        <time>2025-09-07T09:17:16.000Z</time>
        <extensions>
          <ns3:TrackPointExtension>
            <ns3:hr>96</ns3:hr>
            <ns3:cad>0</ns3:cad>
          </ns3:TrackPointExtension>
        </extensions>
      </trkpt>
      <trkpt lat="52.27846191264688968658447265625" lon="1.6328934766352176666259765625">
        <ele>-321.399993896484375</ele>
        <time>2025-09-07T09:17:20.000Z</time>
        <extensions>
          <ns3:TrackPointExtension>
            <ns3:hr>96</ns3:hr>
            <ns3:cad>0</ns3:cad>
          </ns3:TrackPointExtension>
        </extensions>
      </trkpt>
      <trkpt lat="52.278442047536373138427734375" lon="1.6329087316989898681640625">
        <ele>-321.79998779296875</ele>
        <time>2025-09-07T09:17:22.000Z</time>
        <extensions>
          <ns3:TrackPointExtension>
            <ns3:hr>96</ns3:hr>
            <ns3:cad>0</ns3:cad>
          </ns3:TrackPointExtension>
        </extensions>
      </trkpt>
      <trkpt lat="52.27841312997043132781982421875" lon="1.63291074335575103759765625">
        <ele>-322</ele>
        <time>2025-09-07T09:17:30.000Z</time>
        <extensions>
          <ns3:TrackPointExtension>
            <ns3:hr>94</ns3:hr>
            <ns3:cad>0</ns3:cad>
          </ns3:TrackPointExtension>
        </extensions>
      </trkpt>
      <trkpt lat="52.278432659804821014404296875" lon="1.632920801639556884765625">
        <ele>-322.600006103515625</ele>
        <time>2025-09-07T09:17:33.000Z</time>
        <extensions>
          <ns3:TrackPointExtension>
            <ns3:hr>93</ns3:hr>
            <ns3:cad>0</ns3:cad>
          </ns3:TrackPointExtension>
        </extensions>
      </trkpt>
      <trkpt lat="52.27845202200114727020263671875" lon="1.63292742334306240081787109375">
        <ele>-323</ele>
        <time>2025-09-07T09:17:37.000Z</time>
        <extensions>
          <ns3:TrackPointExtension>
            <ns3:hr>96</ns3:hr>
            <ns3:cad>0</ns3:cad>
          </ns3:TrackPointExtension>
        </extensions>
      </trkpt>
      <trkpt lat="52.2784549556672573089599609375" lon="1.632929183542728424072265625">
        <ele>-323</ele>
        <time>2025-09-07T09:17:38.000Z</time>
        <extensions>
          <ns3:TrackPointExtension>
            <ns3:hr>96</ns3:hr>
            <ns3:cad>0</ns3:cad>
          </ns3:TrackPointExtension>
        </extensions>
      </trkpt>
      <trkpt lat="52.27847046218812465667724609375" lon="1.63295575417578220367431640625">
        <ele>-322.20001220703125</ele>
        <time>2025-09-07T09:17:42.000Z</time>
        <extensions>
          <ns3:TrackPointExtension>
            <ns3:hr>93</ns3:hr>
            <ns3:cad>0</ns3:cad>
          </ns3:TrackPointExtension>
        </extensions>
      </trkpt>
      <trkpt lat="52.27848085574805736541748046875" lon="1.63296061567962169647216796875">
        <ele>-320.79998779296875</ele>
        <time>2025-09-07T09:17:44.000Z</time>
        <extensions>
          <ns3:TrackPointExtension>
            <ns3:hr>91</ns3:hr>
            <ns3:cad>0</ns3:cad>
          </ns3:TrackPointExtension>
        </extensions>
      </trkpt>
      <trkpt lat="52.27849267423152923583984375" lon="1.63295692764222621917724609375">
        <ele>-319.20001220703125</ele>
        <time>2025-09-07T09:17:45.000Z</time>
        <extensions>
          <ns3:TrackPointExtension>
            <ns3:hr>93</ns3:hr>
            <ns3:cad>0</ns3:cad>
          </ns3:TrackPointExtension>
        </extensions>
      </trkpt>
      <trkpt lat="52.2784935124218463897705078125" lon="1.63296665064990520477294921875">
        <ele>-317.79998779296875</ele>
        <time>2025-09-07T09:17:46.000Z</time>
        <extensions>
          <ns3:TrackPointExtension>
            <ns3:hr>93</ns3:hr>
            <ns3:cad>0</ns3:cad>
          </ns3:TrackPointExtension>
        </extensions>
      </trkpt>
      <trkpt lat="52.278498373925685882568359375" lon="1.63296882994472980499267578125">
        <ele>-317</ele>
        <time>2025-09-07T09:17:47.000Z</time>
        <extensions>
          <ns3:TrackPointExtension>
            <ns3:hr>93</ns3:hr>
            <ns3:cad>0</ns3:cad>
          </ns3:TrackPointExtension>
        </extensions>
      </trkpt>
      <trkpt lat="52.27849946357309818267822265625" lon="1.6329665668308734893798828125">
        <ele>-316.600006103515625</ele>
        <time>2025-09-07T09:17:48.000Z</time>
        <extensions>
          <ns3:TrackPointExtension>
            <ns3:hr>93</ns3:hr>
            <ns3:cad>0</ns3:cad>
          </ns3:TrackPointExtension>
        </extensions>
      </trkpt>
      <trkpt lat="52.27849812246859073638916015625" lon="1.63296598009765148162841796875">
        <ele>-316.399993896484375</ele>
        <time>2025-09-07T09:17:49.000Z</time>
        <extensions>
          <ns3:TrackPointExtension>
            <ns3:hr>96</ns3:hr>
            <ns3:cad>0</ns3:cad>
          </ns3:TrackPointExtension>
        </extensions>
      </trkpt>
      <trkpt lat="52.278495691716670989990234375" lon="1.63296480663120746612548828125">
        <ele>-316.399993896484375</ele>
        <time>2025-09-07T09:17:50.000Z</time>
        <extensions>
          <ns3:TrackPointExtension>
            <ns3:hr>92</ns3:hr>
            <ns3:cad>0</ns3:cad>
          </ns3:TrackPointExtension>
        </extensions>
      </trkpt>
      <trkpt lat="52.2784894891083240509033203125" lon="1.6329575143754482269287109375">
        <ele>-317.600006103515625</ele>
        <time>2025-09-07T09:17:56.000Z</time>
        <extensions>
          <ns3:TrackPointExtension>
            <ns3:hr>93</ns3:hr>
            <ns3:cad>0</ns3:cad>
          </ns3:TrackPointExtension>
        </extensions>
      </trkpt>
      <trkpt lat="52.27848890237510204315185546875" lon="1.6329588554799556732177734375">
        <ele>-319</ele>
        <time>2025-09-07T09:17:57.000Z</time>
        <extensions>
          <ns3:TrackPointExtension>
            <ns3:hr>92</ns3:hr>
            <ns3:cad>0</ns3:cad>
          </ns3:TrackPointExtension>
        </extensions>
      </trkpt>
      <trkpt lat="52.27848823182284832000732421875" lon="1.63295793347060680389404296875">
        <ele>-320.399993896484375</ele>
        <time>2025-09-07T09:17:58.000Z</time>
        <extensions>
          <ns3:TrackPointExtension>
            <ns3:hr>92</ns3:hr>
            <ns3:cad>0</ns3:cad>
          </ns3:TrackPointExtension>
        </extensions>
      </trkpt>
      <trkpt lat="52.2784866392612457275390625" lon="1.632957346737384796142578125">
        <ele>-321.600006103515625</ele>
        <time>2025-09-07T09:18:00.000Z</time>
        <extensions>
          <ns3:TrackPointExtension>
            <ns3:hr>94</ns3:hr>
            <ns3:cad>0</ns3:cad>
          </ns3:TrackPointExtension>
        </extensions>
      </trkpt>
      <trkpt lat="52.278485633432865142822265625" lon="1.63295994512736797332763671875">
        <ele>-323</ele>
        <time>2025-09-07T09:18:03.000Z</time>
        <extensions>
          <ns3:TrackPointExtension>
            <ns3:hr>96</ns3:hr>
            <ns3:cad>0</ns3:cad>
          </ns3:TrackPointExtension>
        </extensions>
      </trkpt>
      <trkpt lat="52.27848202921450138092041015625" lon="1.63294469006359577178955078125">
        <ele>-324</ele>
        <time>2025-09-07T09:18:06.000Z</time>
        <extensions>
          <ns3:TrackPointExtension>
            <ns3:hr>96</ns3:hr>
            <ns3:cad>0</ns3:cad>
          </ns3:TrackPointExtension>
        </extensions>
      </trkpt>
      <trkpt lat="52.2784787602722644805908203125" lon="1.632944606244564056396484375">
        <ele>-324.20001220703125</ele>
        <time>2025-09-07T09:18:07.000Z</time>
        <extensions>
          <ns3:TrackPointExtension>
            <ns3:hr>95</ns3:hr>
            <ns3:cad>0</ns3:cad>
          </ns3:TrackPointExtension>
        </extensions>
      </trkpt>
      <trkpt lat="52.27846945635974407196044921875" lon="1.63294670172035694122314453125">
        <ele>-325</ele>
        <time>2025-09-07T09:18:10.000Z</time>
        <extensions>
          <ns3:TrackPointExtension>
            <ns3:hr>94</ns3:hr>
            <ns3:cad>0</ns3:cad>
          </ns3:TrackPointExtension>
        </extensions>
      </trkpt>
      <trkpt lat="52.278469540178775787353515625" lon="1.63294703699648380279541015625">
        <ele>-326.20001220703125</ele>
        <time>2025-09-07T09:18:13.000Z</time>
        <extensions>
          <ns3:TrackPointExtension>
            <ns3:hr>96</ns3:hr>
            <ns3:cad>0</ns3:cad>
          </ns3:TrackPointExtension>
        </extensions>
      </trkpt>
      <trkpt lat="52.27846895344555377960205078125" lon="1.6329551674425601959228515625">
        <ele>-327.20001220703125</ele>
        <time>2025-09-07T09:18:18.000Z</time>
        <extensions>
          <ns3:TrackPointExtension>
            <ns3:hr>98</ns3:hr>
            <ns3:cad>0</ns3:cad>
          </ns3:TrackPointExtension>
        </extensions>
      </trkpt>
      <trkpt lat="52.27846928872168064117431640625" lon="1.63295575417578220367431640625">
        <ele>-327.20001220703125</ele>
        <time>2025-09-07T09:18:19.000Z</time>
        <extensions>
          <ns3:TrackPointExtension>
            <ns3:hr>98</ns3:hr>
            <ns3:cad>0</ns3:cad>
          </ns3:TrackPointExtension>
        </extensions>
      </trkpt>
      <trkpt lat="52.27846861816942691802978515625" lon="1.63296111859381198883056640625">
        <ele>-328.399993896484375</ele>
        <time>2025-09-07T09:18:24.000Z</time>
        <extensions>
          <ns3:TrackPointExtension>
            <ns3:hr>98</ns3:hr>
            <ns3:cad>0</ns3:cad>
          </ns3:TrackPointExtension>
        </extensions>
      </trkpt>
      <trkpt lat="52.27846140973269939422607421875" lon="1.63297511637210845947265625">
        <ele>-329.600006103515625</ele>
        <time>2025-09-07T09:18:27.000Z</time>
        <extensions>
          <ns3:TrackPointExtension>
            <ns3:hr>98</ns3:hr>
            <ns3:cad>0</ns3:cad>
          </ns3:TrackPointExtension>
        </extensions>
      </trkpt>
      <trkpt lat="52.27845855988562107086181640625" lon="1.63297486491501331329345703125">
        <ele>-330.399993896484375</ele>
        <time>2025-09-07T09:18:29.000Z</time>
        <extensions>
          <ns3:TrackPointExtension>
            <ns3:hr>102</ns3:hr>
            <ns3:cad>0</ns3:cad>
          </ns3:TrackPointExtension>
        </extensions>
      </trkpt>
      <trkpt lat="52.27846224792301654815673828125" lon="1.6329784691333770751953125">
        <ele>-330.600006103515625</ele>
        <time>2025-09-07T09:18:30.000Z</time>
        <extensions>
          <ns3:TrackPointExtension>
            <ns3:hr>104</ns3:hr>
            <ns3:cad>0</ns3:cad>
          </ns3:TrackPointExtension>
        </extensions>
      </trkpt>
      <trkpt lat="52.27846358902752399444580078125" lon="1.6329757869243621826171875">
        <ele>-331.600006103515625</ele>
        <time>2025-09-07T09:18:34.000Z</time>
        <extensions>
          <ns3:TrackPointExtension>
            <ns3:hr>103</ns3:hr>
            <ns3:cad>0</ns3:cad>
          </ns3:TrackPointExtension>
        </extensions>
      </trkpt>
      <trkpt lat="52.27845319546759128570556640625" lon="1.6329149343073368072509765625">
        <ele>-332</ele>
        <time>2025-09-07T09:18:40.000Z</time>
        <extensions>
          <ns3:TrackPointExtension>
            <ns3:hr>103</ns3:hr>
            <ns3:cad>0</ns3:cad>
          </ns3:TrackPointExtension>
        </extensions>
      </trkpt>
      <trkpt lat="52.2784499265253543853759765625" lon="1.6329221427440643310546875">
        <ele>-332.399993896484375</ele>
        <time>2025-09-07T09:18:43.000Z</time>
        <extensions>
          <ns3:TrackPointExtension>
            <ns3:hr>98</ns3:hr>
            <ns3:cad>0</ns3:cad>
          </ns3:TrackPointExtension>
        </extensions>
      </trkpt>
      <trkpt lat="52.27844531647861003875732421875" lon="1.63291904143989086151123046875">
        <ele>-332.600006103515625</ele>
        <time>2025-09-07T09:18:47.000Z</time>
        <extensions>
          <ns3:TrackPointExtension>
            <ns3:hr>101</ns3:hr>
            <ns3:cad>0</ns3:cad>
          </ns3:TrackPointExtension>
        </extensions>
      </trkpt>
      <trkpt lat="52.27843291126191616058349609375" lon="1.6329115815460681915283203125">
        <ele>-332.399993896484375</ele>
        <time>2025-09-07T09:18:49.000Z</time>
        <extensions>
          <ns3:TrackPointExtension>
            <ns3:hr>100</ns3:hr>
            <ns3:cad>0</ns3:cad>
          </ns3:TrackPointExtension>
        </extensions>
      </trkpt>
      <trkpt lat="52.27841480635106563568115234375" lon="1.6329005174338817596435546875">
        <ele>-333</ele>
        <time>2025-09-07T09:18:57.000Z</time>
        <extensions>
          <ns3:TrackPointExtension>
            <ns3:hr>100</ns3:hr>
            <ns3:cad>0</ns3:cad>
          </ns3:TrackPointExtension>
        </extensions>
      </trkpt>
      <trkpt lat="52.27841212414205074310302734375" lon="1.63289758376777172088623046875">
        <ele>-333.20001220703125</ele>
        <time>2025-09-07T09:18:58.000Z</time>
        <extensions>
          <ns3:TrackPointExtension>
            <ns3:hr>101</ns3:hr>
            <ns3:cad>0</ns3:cad>
          </ns3:TrackPointExtension>
        </extensions>
      </trkpt>
      <trkpt lat="52.2784123755991458892822265625" lon="1.63290512748062610626220703125">
        <ele>-333.399993896484375</ele>
        <time>2025-09-07T09:19:00.000Z</time>
        <extensions>
          <ns3:TrackPointExtension>
            <ns3:hr>98</ns3:hr>
            <ns3:cad>0</ns3:cad>
          </ns3:TrackPointExtension>
        </extensions>
      </trkpt>
      <trkpt lat="52.27841078303754329681396484375" lon="1.6329115815460681915283203125">
        <ele>-333.79998779296875</ele>
        <time>2025-09-07T09:19:02.000Z</time>
        <extensions>
          <ns3:TrackPointExtension>
            <ns3:hr>95</ns3:hr>
            <ns3:cad>0</ns3:cad>
          </ns3:TrackPointExtension>
        </extensions>
      </trkpt>
      <trkpt lat="52.27841245941817760467529296875" lon="1.6329139284789562225341796875">
        <ele>-334.20001220703125</ele>
        <time>2025-09-07T09:19:03.000Z</time>
        <extensions>
          <ns3:TrackPointExtension>
            <ns3:hr>93</ns3:hr>
            <ns3:cad>0</ns3:cad>
          </ns3:TrackPointExtension>
        </extensions>
      </trkpt>
      <trkpt lat="52.27841380052268505096435546875" lon="1.6329129226505756378173828125">
        <ele>-334.399993896484375</ele>
        <time>2025-09-07T09:19:04.000Z</time>
        <extensions>
          <ns3:TrackPointExtension>
            <ns3:hr>90</ns3:hr>
            <ns3:cad>0</ns3:cad>
          </ns3:TrackPointExtension>
        </extensions>
      </trkpt>
      <trkpt lat="52.27841489017009735107421875" lon="1.63292658515274524688720703125">
        <ele>-334.600006103515625</ele>
        <time>2025-09-07T09:19:07.000Z</time>
        <extensions>
          <ns3:TrackPointExtension>
            <ns3:hr>89</ns3:hr>
            <ns3:cad>0</ns3:cad>
          </ns3:TrackPointExtension>
        </extensions>
      </trkpt>
      <trkpt lat="52.27840826846659183502197265625" lon="1.63295960985124111175537109375">
        <ele>-335.20001220703125</ele>
        <time>2025-09-07T09:19:16.000Z</time>
        <extensions>
          <ns3:TrackPointExtension>
            <ns3:hr>88</ns3:hr>
            <ns3:cad>0</ns3:cad>
          </ns3:TrackPointExtension>
        </extensions>
      </trkpt>
      <trkpt lat="52.2784029878675937652587890625" lon="1.63294217549264430999755859375">
        <ele>-335.20001220703125</ele>
        <time>2025-09-07T09:19:18.000Z</time>
        <extensions>
          <ns3:TrackPointExtension>
            <ns3:hr>88</ns3:hr>
            <ns3:cad>0</ns3:cad>
          </ns3:TrackPointExtension>
        </extensions>
      </trkpt>
      <trkpt lat="52.2783868946135044097900390625" lon="1.632954664528369903564453125">
        <ele>-335.79998779296875</ele>
        <time>2025-09-07T09:19:26.000Z</time>
        <extensions>
          <ns3:TrackPointExtension>
            <ns3:hr>85</ns3:hr>
            <ns3:cad>0</ns3:cad>
          </ns3:TrackPointExtension>
        </extensions>
      </trkpt>
      <trkpt lat="52.278385050594806671142578125" lon="1.6329726018011569976806640625">
        <ele>-336.600006103515625</ele>
        <time>2025-09-07T09:19:28.000Z</time>
        <extensions>
          <ns3:TrackPointExtension>
            <ns3:hr>85</ns3:hr>
            <ns3:cad>0</ns3:cad>
          </ns3:TrackPointExtension>
        </extensions>
      </trkpt>
      <trkpt lat="52.27838563732802867889404296875" lon="1.63297645747661590576171875">
        <ele>-337</ele>
        <time>2025-09-07T09:19:29.000Z</time>
        <extensions>
          <ns3:TrackPointExtension>
            <ns3:hr>88</ns3:hr>
            <ns3:cad>0</ns3:cad>
          </ns3:TrackPointExtension>
        </extensions>
      </trkpt>
      <trkpt lat="52.278386391699314117431640625" lon="1.63298324681818485260009765625">
        <ele>-337.399993896484375</ele>
        <time>2025-09-07T09:19:30.000Z</time>
        <extensions>
          <ns3:TrackPointExtension>
            <ns3:hr>85</ns3:hr>
            <ns3:cad>0</ns3:cad>
          </ns3:TrackPointExtension>
        </extensions>
      </trkpt>
      <trkpt lat="52.27838546968996524810791015625" lon="1.63298458792269229888916015625">
        <ele>-337.600006103515625</ele>
        <time>2025-09-07T09:19:31.000Z</time>
        <extensions>
          <ns3:TrackPointExtension>
            <ns3:hr>86</ns3:hr>
            <ns3:cad>0</ns3:cad>
          </ns3:TrackPointExtension>
        </extensions>
      </trkpt>
      <trkpt lat="52.27838538587093353271484375" lon="1.63298509083688259124755859375">
        <ele>-337.79998779296875</ele>
        <time>2025-09-07T09:19:32.000Z</time>
        <extensions>
          <ns3:TrackPointExtension>
            <ns3:hr>83</ns3:hr>
            <ns3:cad>0</ns3:cad>
          </ns3:TrackPointExtension>
        </extensions>
      </trkpt>
      <trkpt lat="52.27837599813938140869140625" lon="1.6329239867627620697021484375">
        <ele>-338.600006103515625</ele>
        <time>2025-09-07T09:19:35.000Z</time>
        <extensions>
          <ns3:TrackPointExtension>
            <ns3:hr>82</ns3:hr>
            <ns3:cad>0</ns3:cad>
          </ns3:TrackPointExtension>
        </extensions>
      </trkpt>
      <trkpt lat="52.2783718071877956390380859375" lon="1.632914431393146514892578125">
        <ele>-339.600006103515625</ele>
        <time>2025-09-07T09:19:39.000Z</time>
        <extensions>
          <ns3:TrackPointExtension>
            <ns3:hr>81</ns3:hr>
            <ns3:cad>0</ns3:cad>
          </ns3:TrackPointExtension>
        </extensions>
      </trkpt>
      <trkpt lat="52.27836485020816326141357421875" lon="1.63290311582386493682861328125">
        <ele>-339.79998779296875</ele>
        <time>2025-09-07T09:19:40.000Z</time>
        <extensions>
          <ns3:TrackPointExtension>
            <ns3:hr>80</ns3:hr>
            <ns3:cad>0</ns3:cad>
          </ns3:TrackPointExtension>
        </extensions>
      </trkpt>
      <trkpt lat="52.27835915051400661468505859375" lon="1.6328938119113445281982421875">
        <ele>-339.79998779296875</ele>
        <time>2025-09-07T09:19:42.000Z</time>
        <extensions>
          <ns3:TrackPointExtension>
            <ns3:hr>77</ns3:hr>
            <ns3:cad>0</ns3:cad>
          </ns3:TrackPointExtension>
        </extensions>
      </trkpt>
      <trkpt lat="52.27837775833904743194580078125" lon="1.63296170532703399658203125">
        <ele>-340.600006103515625</ele>
        <time>2025-09-07T09:19:48.000Z</time>
        <extensions>
          <ns3:TrackPointExtension>
            <ns3:hr>77</ns3:hr>
            <ns3:cad>0</ns3:cad>
          </ns3:TrackPointExtension>
        </extensions>
      </trkpt>
      <trkpt lat="52.27837624959647655487060546875" lon="1.6329833306372165679931640625">
        <ele>-341</ele>
        <time>2025-09-07T09:19:49.000Z</time>
        <extensions>
          <ns3:TrackPointExtension>
            <ns3:hr>77</ns3:hr>
            <ns3:cad>0</ns3:cad>
          </ns3:TrackPointExtension>
        </extensions>
      </trkpt>
      <trkpt lat="52.27837239392101764678955078125" lon="1.6329994238913059234619140625">
        <ele>-342.20001220703125</ele>
        <time>2025-09-07T09:19:54.000Z</time>
        <extensions>
          <ns3:TrackPointExtension>
            <ns3:hr>76</ns3:hr>
            <ns3:cad>0</ns3:cad>
          </ns3:TrackPointExtension>
        </extensions>
      </trkpt>
      <trkpt lat="52.2783704660832881927490234375" lon="1.63301006890833377838134765625">
        <ele>-343</ele>
        <time>2025-09-07T09:19:57.000Z</time>
        <extensions>
          <ns3:TrackPointExtension>
            <ns3:hr>79</ns3:hr>
            <ns3:cad>0</ns3:cad>
          </ns3:TrackPointExtension>
        </extensions>
      </trkpt>
      <trkpt lat="52.27837239392101764678955078125" lon="1.6330215521156787872314453125">
        <ele>-343.20001220703125</ele>
        <time>2025-09-07T09:19:59.000Z</time>
        <extensions>
          <ns3:TrackPointExtension>
            <ns3:hr>79</ns3:hr>
            <ns3:cad>0</ns3:cad>
          </ns3:TrackPointExtension>
        </extensions>
      </trkpt>
      <trkpt lat="52.27837675251066684722900390625" lon="1.633027084171772003173828125">
        <ele>-343.399993896484375</ele>
        <time>2025-09-07T09:20:00.000Z</time>
        <extensions>
          <ns3:TrackPointExtension>
            <ns3:hr>78</ns3:hr>
            <ns3:cad>0</ns3:cad>
          </ns3:TrackPointExtension>
        </extensions>
      </trkpt>
      <trkpt lat="52.2783748246729373931884765625" lon="1.633006297051906585693359375">
        <ele>-344.399993896484375</ele>
        <time>2025-09-07T09:20:10.000Z</time>
        <extensions>
          <ns3:TrackPointExtension>
            <ns3:hr>77</ns3:hr>
            <ns3:cad>0</ns3:cad>
          </ns3:TrackPointExtension>
        </extensions>
      </trkpt>
      <trkpt lat="52.27837943471968173980712890625" lon="1.6330158524215221405029296875">
        <ele>-344.79998779296875</ele>
        <time>2025-09-07T09:20:12.000Z</time>
        <extensions>
          <ns3:TrackPointExtension>
            <ns3:hr>77</ns3:hr>
            <ns3:cad>0</ns3:cad>
          </ns3:TrackPointExtension>
        </extensions>
      </trkpt>
      <trkpt lat="52.27838136255741119384765625" lon="1.6330267488956451416015625">
        <ele>-346.399993896484375</ele>
        <time>2025-09-07T09:20:15.000Z</time>
        <extensions>
          <ns3:TrackPointExtension>
            <ns3:hr>77</ns3:hr>
            <ns3:cad>0</ns3:cad>
          </ns3:TrackPointExtension>
        </extensions>
      </trkpt>
      <trkpt lat="52.2783882357180118560791015625" lon="1.63302901200950145721435546875">
        <ele>-347.399993896484375</ele>
        <time>2025-09-07T09:20:17.000Z</time>
        <extensions>
          <ns3:TrackPointExtension>
            <ns3:hr>76</ns3:hr>
            <ns3:cad>0</ns3:cad>
          </ns3:TrackPointExtension>
        </extensions>
      </trkpt>
      <trkpt lat="52.27839569561183452606201171875" lon="1.633027084171772003173828125">
        <ele>-349.399993896484375</ele>
        <time>2025-09-07T09:20:19.000Z</time>
        <extensions>
          <ns3:TrackPointExtension>
            <ns3:hr>76</ns3:hr>
            <ns3:cad>0</ns3:cad>
          </ns3:TrackPointExtension>
        </extensions>
      </trkpt>
      <trkpt lat="52.2783966176211833953857421875" lon="1.63300353102385997772216796875">
        <ele>-351</ele>
        <time>2025-09-07T09:20:21.000Z</time>
        <extensions>
          <ns3:TrackPointExtension>
            <ns3:hr>76</ns3:hr>
            <ns3:cad>0</ns3:cad>
          </ns3:TrackPointExtension>
        </extensions>
      </trkpt>
      <trkpt lat="52.2783962823450565338134765625" lon="1.63299062289297580718994140625">
        <ele>-352.399993896484375</ele>
        <time>2025-09-07T09:20:23.000Z</time>
        <extensions>
          <ns3:TrackPointExtension>
            <ns3:hr>76</ns3:hr>
            <ns3:cad>0</ns3:cad>
          </ns3:TrackPointExtension>
        </extensions>
      </trkpt>
      <trkpt lat="52.2783956117928028106689453125" lon="1.6329722665250301361083984375">
        <ele>-353.600006103515625</ele>
        <time>2025-09-07T09:20:25.000Z</time>
        <extensions>
          <ns3:TrackPointExtension>
            <ns3:hr>75</ns3:hr>
            <ns3:cad>0</ns3:cad>
          </ns3:TrackPointExtension>
        </extensions>
      </trkpt>
      <trkpt lat="52.2783999703824520111083984375" lon="1.632966063916683197021484375">
        <ele>-355</ele>
        <time>2025-09-07T09:20:27.000Z</time>
        <extensions>
          <ns3:TrackPointExtension>
            <ns3:hr>74</ns3:hr>
            <ns3:cad>0</ns3:cad>
          </ns3:TrackPointExtension>
        </extensions>
      </trkpt>
      <trkpt lat="52.27840340696275234222412109375" lon="1.63297369144856929779052734375">
        <ele>-356.20001220703125</ele>
        <time>2025-09-07T09:20:29.000Z</time>
        <extensions>
          <ns3:TrackPointExtension>
            <ns3:hr>75</ns3:hr>
            <ns3:cad>0</ns3:cad>
          </ns3:TrackPointExtension>
        </extensions>
      </trkpt>
      <trkpt lat="52.2784039936959743499755859375" lon="1.6329813189804553985595703125">
        <ele>-357</ele>
        <time>2025-09-07T09:20:31.000Z</time>
        <extensions>
          <ns3:TrackPointExtension>
            <ns3:hr>76</ns3:hr>
            <ns3:cad>0</ns3:cad>
          </ns3:TrackPointExtension>
        </extensions>
      </trkpt>
      <trkpt lat="52.27839971892535686492919921875" lon="1.6329806484282016754150390625">
        <ele>-357.20001220703125</ele>
        <time>2025-09-07T09:20:32.000Z</time>
        <extensions>
          <ns3:TrackPointExtension>
            <ns3:hr>77</ns3:hr>
            <ns3:cad>0</ns3:cad>
          </ns3:TrackPointExtension>
        </extensions>
      </trkpt>
      <trkpt lat="52.2783979587256908416748046875" lon="1.63297989405691623687744140625">
        <ele>-358.20001220703125</ele>
        <time>2025-09-07T09:20:34.000Z</time>
        <extensions>
          <ns3:TrackPointExtension>
            <ns3:hr>77</ns3:hr>
            <ns3:cad>0</ns3:cad>
          </ns3:TrackPointExtension>
        </extensions>
      </trkpt>
      <trkpt lat="52.27839485742151737213134765625" lon="1.63297654129564762115478515625">
        <ele>-359.399993896484375</ele>
        <time>2025-09-07T09:20:37.000Z</time>
        <extensions>
          <ns3:TrackPointExtension>
            <ns3:hr>77</ns3:hr>
            <ns3:cad>0</ns3:cad>
          </ns3:TrackPointExtension>
        </extensions>
      </trkpt>
      <trkpt lat="52.27839904837310314178466796875" lon="1.63297989405691623687744140625">
        <ele>-360.20001220703125</ele>
        <time>2025-09-07T09:20:40.000Z</time>
        <extensions>
          <ns3:TrackPointExtension>
            <ns3:hr>77</ns3:hr>
            <ns3:cad>0</ns3:cad>
          </ns3:TrackPointExtension>
        </extensions>
      </trkpt>
      <trkpt lat="52.2783976234495639801025390625" lon="1.63298182189464569091796875">
        <ele>-360.399993896484375</ele>
        <time>2025-09-07T09:20:42.000Z</time>
        <extensions>
          <ns3:TrackPointExtension>
            <ns3:hr>77</ns3:hr>
            <ns3:cad>0</ns3:cad>
          </ns3:TrackPointExtension>
        </extensions>
      </trkpt>
      <trkpt lat="52.27840625680983066558837890625" lon="1.63300084881484508514404296875">
        <ele>-361.399993896484375</ele>
        <time>2025-09-07T09:20:47.000Z</time>
        <extensions>
          <ns3:TrackPointExtension>
            <ns3:hr>76</ns3:hr>
            <ns3:cad>0</ns3:cad>
          </ns3:TrackPointExtension>
        </extensions>
      </trkpt>
      <trkpt lat="52.27839837782084941864013671875" lon="1.63299330510199069976806640625">
        <ele>-362</ele>
        <time>2025-09-07T09:20:49.000Z</time>
        <extensions>
          <ns3:TrackPointExtension>
            <ns3:hr>75</ns3:hr>
            <ns3:cad>0</ns3:cad>
          </ns3:TrackPointExtension>
        </extensions>
      </trkpt>
      <trkpt lat="52.27839569561183452606201171875" lon="1.63295877166092395782470703125">
        <ele>-362.79998779296875</ele>
        <time>2025-09-07T09:20:53.000Z</time>
        <extensions>
          <ns3:TrackPointExtension>
            <ns3:hr>77</ns3:hr>
            <ns3:cad>0</ns3:cad>
          </ns3:TrackPointExtension>
        </extensions>
      </trkpt>
      <trkpt lat="52.27841229178011417388916015625" lon="1.63294854573905467987060546875">
        <ele>-364</ele>
        <time>2025-09-07T09:20:57.000Z</time>
        <extensions>
          <ns3:TrackPointExtension>
            <ns3:hr>75</ns3:hr>
            <ns3:cad>0</ns3:cad>
          </ns3:TrackPointExtension>
        </extensions>
      </trkpt>
      <trkpt lat="52.27841631509363651275634765625" lon="1.63294502533972263336181640625">
        <ele>-364.79998779296875</ele>
        <time>2025-09-07T09:20:58.000Z</time>
        <extensions>
          <ns3:TrackPointExtension>
            <ns3:hr>78</ns3:hr>
            <ns3:cad>0</ns3:cad>
          </ns3:TrackPointExtension>
        </extensions>
      </trkpt>
      <trkpt lat="52.27841463871300220489501953125" lon="1.6329409182071685791015625">
        <ele>-365.79998779296875</ele>
        <time>2025-09-07T09:20:59.000Z</time>
        <extensions>
          <ns3:TrackPointExtension>
            <ns3:hr>76</ns3:hr>
            <ns3:cad>0</ns3:cad>
          </ns3:TrackPointExtension>
        </extensions>
      </trkpt>
      <trkpt lat="52.27841530926525592803955078125" lon="1.6329283453524112701416015625">
        <ele>-366.79998779296875</ele>
        <time>2025-09-07T09:21:03.000Z</time>
        <extensions>
          <ns3:TrackPointExtension>
            <ns3:hr>79</ns3:hr>
            <ns3:cad>0</ns3:cad>
          </ns3:TrackPointExtension>
        </extensions>
      </trkpt>
      <trkpt lat="52.27841698564589023590087890625" lon="1.63292591460049152374267578125">
        <ele>-367</ele>
        <time>2025-09-07T09:21:04.000Z</time>
        <extensions>
          <ns3:TrackPointExtension>
            <ns3:hr>75</ns3:hr>
            <ns3:cad>0</ns3:cad>
          </ns3:TrackPointExtension>
        </extensions>
      </trkpt>
      <trkpt lat="52.27841849438846111297607421875" lon="1.63292683660984039306640625">
        <ele>-367.20001220703125</ele>
        <time>2025-09-07T09:21:05.000Z</time>
        <extensions>
          <ns3:TrackPointExtension>
            <ns3:hr>75</ns3:hr>
            <ns3:cad>0</ns3:cad>
          </ns3:TrackPointExtension>
        </extensions>
      </trkpt>
      <trkpt lat="52.2784277983009815216064453125" lon="1.63292013108730316162109375">
        <ele>-367.79998779296875</ele>
        <time>2025-09-07T09:21:14.000Z</time>
        <extensions>
          <ns3:TrackPointExtension>
            <ns3:hr>75</ns3:hr>
            <ns3:cad>0</ns3:cad>
          </ns3:TrackPointExtension>
        </extensions>
      </trkpt>
      <trkpt lat="52.27842754684388637542724609375" lon="1.63292842917144298553466796875">
        <ele>-367.79998779296875</ele>
        <time>2025-09-07T09:21:15.000Z</time>
        <extensions>
          <ns3:TrackPointExtension>
            <ns3:hr>78</ns3:hr>
            <ns3:cad>0</ns3:cad>
          </ns3:TrackPointExtension>
        </extensions>
      </trkpt>
      <trkpt lat="52.27842570282518863677978515625" lon="1.63293211720883846282958984375">
        <ele>-368</ele>
        <time>2025-09-07T09:21:16.000Z</time>
        <extensions>
          <ns3:TrackPointExtension>
            <ns3:hr>83</ns3:hr>
            <ns3:cad>0</ns3:cad>
          </ns3:TrackPointExtension>
        </extensions>
      </trkpt>
      <trkpt lat="52.27841564454138278961181640625" lon="1.63294921629130840301513671875">
        <ele>-368.600006103515625</ele>
        <time>2025-09-07T09:21:19.000Z</time>
        <extensions>
          <ns3:TrackPointExtension>
            <ns3:hr>87</ns3:hr>
            <ns3:cad>0</ns3:cad>
          </ns3:TrackPointExtension>
        </extensions>
      </trkpt>
      <trkpt lat="52.27840994484722614288330078125" lon="1.63295902311801910400390625">
        <ele>-369.399993896484375</ele>
        <time>2025-09-07T09:21:21.000Z</time>
        <extensions>
          <ns3:TrackPointExtension>
            <ns3:hr>88</ns3:hr>
            <ns3:cad>0</ns3:cad>
          </ns3:TrackPointExtension>
        </extensions>
      </trkpt>
      <trkpt lat="52.27841262705624103546142578125" lon="1.63295374251902103424072265625">
        <ele>-369.79998779296875</ele>
        <time>2025-09-07T09:21:24.000Z</time>
        <extensions>
          <ns3:TrackPointExtension>
            <ns3:hr>88</ns3:hr>
            <ns3:cad>0</ns3:cad>
          </ns3:TrackPointExtension>
        </extensions>
      </trkpt>
      <trkpt lat="52.278444729745388031005859375" lon="1.63291485048830509185791015625">
        <ele>-375.600006103515625</ele>
        <time>2025-09-07T09:21:53.000Z</time>
        <extensions>
          <ns3:TrackPointExtension>
            <ns3:hr>83</ns3:hr>
            <ns3:cad>0</ns3:cad>
          </ns3:TrackPointExtension>
        </extensions>
      </trkpt>
      <trkpt lat="52.278466857969760894775390625" lon="1.632956676185131072998046875">
        <ele>-377.79998779296875</ele>
        <time>2025-09-07T09:21:55.000Z</time>
        <extensions>
          <ns3:TrackPointExtension>
            <ns3:hr>83</ns3:hr>
            <ns3:cad>0</ns3:cad>
          </ns3:TrackPointExtension>
        </extensions>
      </trkpt>
      <trkpt lat="52.27844397537410259246826171875" lon="1.632950641214847564697265625">
        <ele>-379.20001220703125</ele>
        <time>2025-09-07T09:21:57.000Z</time>
        <extensions>
          <ns3:TrackPointExtension>
            <ns3:hr>86</ns3:hr>
            <ns3:cad>0</ns3:cad>
          </ns3:TrackPointExtension>
        </extensions>
      </trkpt>
      <trkpt lat="52.27841078303754329681396484375" lon="1.63290009833872318267822265625">
        <ele>-380.20001220703125</ele>
        <time>2025-09-07T09:22:00.000Z</time>
        <extensions>
          <ns3:TrackPointExtension>
            <ns3:hr>89</ns3:hr>
            <ns3:cad>0</ns3:cad>
          </ns3:TrackPointExtension>
        </extensions>
      </trkpt>
      <trkpt lat="52.27841262705624103546142578125" lon="1.6328934766352176666259765625">
        <ele>-380.399993896484375</ele>
        <time>2025-09-07T09:22:01.000Z</time>
        <extensions>
          <ns3:TrackPointExtension>
            <ns3:hr>89</ns3:hr>
            <ns3:cad>0</ns3:cad>
          </ns3:TrackPointExtension>
        </extensions>
      </trkpt>
      <trkpt lat="52.27841396816074848175048828125" lon="1.6328897885978221893310546875">
        <ele>-380.399993896484375</ele>
        <time>2025-09-07T09:22:02.000Z</time>
        <extensions>
          <ns3:TrackPointExtension>
            <ns3:hr>90</ns3:hr>
            <ns3:cad>0</ns3:cad>
          </ns3:TrackPointExtension>
        </extensions>
      </trkpt>
      <trkpt lat="52.27841614745557308197021484375" lon="1.63289062678813934326171875">
        <ele>-380.79998779296875</ele>
        <time>2025-09-07T09:22:04.000Z</time>
        <extensions>
          <ns3:TrackPointExtension>
            <ns3:hr>93</ns3:hr>
            <ns3:cad>0</ns3:cad>
          </ns3:TrackPointExtension>
        </extensions>
      </trkpt>
      <trkpt lat="52.27840642444789409637451171875" lon="1.63287989795207977294921875">
        <ele>-381.399993896484375</ele>
        <time>2025-09-07T09:22:05.000Z</time>
        <extensions>
          <ns3:TrackPointExtension>
            <ns3:hr>95</ns3:hr>
            <ns3:cad>0</ns3:cad>
          </ns3:TrackPointExtension>
        </extensions>
      </trkpt>
      <trkpt lat="52.278399132192134857177734375" lon="1.63283036090433597564697265625">
        <ele>-382.399993896484375</ele>
        <time>2025-09-07T09:22:09.000Z</time>
        <extensions>
          <ns3:TrackPointExtension>
            <ns3:hr>97</ns3:hr>
            <ns3:cad>0</ns3:cad>
          </ns3:TrackPointExtension>
        </extensions>
      </trkpt>
      <trkpt lat="52.27840592153370380401611328125" lon="1.632835306227207183837890625">
        <ele>-382.399993896484375</ele>
        <time>2025-09-07T09:22:10.000Z</time>
        <extensions>
          <ns3:TrackPointExtension>
            <ns3:hr>97</ns3:hr>
            <ns3:cad>0</ns3:cad>
          </ns3:TrackPointExtension>
        </extensions>
      </trkpt>
      <trkpt lat="52.27841145358979701995849609375" lon="1.632847376167774200439453125">
        <ele>-384</ele>
        <time>2025-09-07T09:22:12.000Z</time>
        <extensions>
          <ns3:TrackPointExtension>
            <ns3:hr>97</ns3:hr>
            <ns3:cad>0</ns3:cad>
          </ns3:TrackPointExtension>
        </extensions>
      </trkpt>
      <trkpt lat="52.27841011248528957366943359375" lon="1.63285307586193084716796875">
        <ele>-384.399993896484375</ele>
        <time>2025-09-07T09:22:13.000Z</time>
        <extensions>
          <ns3:TrackPointExtension>
            <ns3:hr>100</ns3:hr>
            <ns3:cad>0</ns3:cad>
          </ns3:TrackPointExtension>
        </extensions>
      </trkpt>
      <trkpt lat="52.27840608917176723480224609375" lon="1.63284544833004474639892578125">
        <ele>-385.20001220703125</ele>
        <time>2025-09-07T09:22:16.000Z</time>
        <extensions>
          <ns3:TrackPointExtension>
            <ns3:hr>101</ns3:hr>
            <ns3:cad>0</ns3:cad>
          </ns3:TrackPointExtension>
        </extensions>
      </trkpt>
      <trkpt lat="52.27840089239180088043212890625" lon="1.63285030983388423919677734375">
        <ele>-386.20001220703125</ele>
        <time>2025-09-07T09:22:24.000Z</time>
        <extensions>
          <ns3:TrackPointExtension>
            <ns3:hr>103</ns3:hr>
            <ns3:cad>0</ns3:cad>
          </ns3:TrackPointExtension>
        </extensions>
      </trkpt>
      <trkpt lat="52.27839955128729343414306640625" lon="1.63284796290099620819091796875">
        <ele>-386.20001220703125</ele>
        <time>2025-09-07T09:22:26.000Z</time>
        <extensions>
          <ns3:TrackPointExtension>
            <ns3:hr>104</ns3:hr>
            <ns3:cad>0</ns3:cad>
          </ns3:TrackPointExtension>
        </extensions>
      </trkpt>
      <trkpt lat="52.27839636616408824920654296875" lon="1.63284997455775737762451171875">
        <ele>-385.20001220703125</ele>
        <time>2025-09-07T09:22:29.000Z</time>
        <extensions>
          <ns3:TrackPointExtension>
            <ns3:hr>102</ns3:hr>
            <ns3:cad>0</ns3:cad>
          </ns3:TrackPointExtension>
        </extensions>
      </trkpt>
      <trkpt lat="52.2783929295837879180908203125" lon="1.632850728929042816162109375">
        <ele>-384.20001220703125</ele>
        <time>2025-09-07T09:22:34.000Z</time>
        <extensions>
          <ns3:TrackPointExtension>
            <ns3:hr>103</ns3:hr>
            <ns3:cad>0</ns3:cad>
          </ns3:TrackPointExtension>
        </extensions>
      </trkpt>
      <trkpt lat="52.278391085565090179443359375" lon="1.63285248912870883941650390625">
        <ele>-384.20001220703125</ele>
        <time>2025-09-07T09:22:35.000Z</time>
        <extensions>
          <ns3:TrackPointExtension>
            <ns3:hr>102</ns3:hr>
            <ns3:cad>0</ns3:cad>
          </ns3:TrackPointExtension>
        </extensions>
      </trkpt>
      <trkpt lat="52.27838999591767787933349609375" lon="1.632862798869609832763671875">
        <ele>-383</ele>
        <time>2025-09-07T09:22:38.000Z</time>
        <extensions>
          <ns3:TrackPointExtension>
            <ns3:hr>103</ns3:hr>
            <ns3:cad>0</ns3:cad>
          </ns3:TrackPointExtension>
        </extensions>
      </trkpt>
      <trkpt lat="52.27839133702218532562255859375" lon="1.63286782801151275634765625">
        <ele>-382</ele>
        <time>2025-09-07T09:22:40.000Z</time>
        <extensions>
          <ns3:TrackPointExtension>
            <ns3:hr>105</ns3:hr>
            <ns3:cad>0</ns3:cad>
          </ns3:TrackPointExtension>
        </extensions>
      </trkpt>
      <trkpt lat="52.27839603088796138763427734375" lon="1.63286992348730564117431640625">
        <ele>-381</ele>
        <time>2025-09-07T09:22:42.000Z</time>
        <extensions>
          <ns3:TrackPointExtension>
            <ns3:hr>109</ns3:hr>
            <ns3:cad>0</ns3:cad>
          </ns3:TrackPointExtension>
        </extensions>
      </trkpt>
      <trkpt lat="52.27839703671634197235107421875" lon="1.632870845496654510498046875">
        <ele>-380.79998779296875</ele>
        <time>2025-09-07T09:22:44.000Z</time>
        <extensions>
          <ns3:TrackPointExtension>
            <ns3:hr>112</ns3:hr>
            <ns3:cad>0</ns3:cad>
          </ns3:TrackPointExtension>
        </extensions>
      </trkpt>
      <trkpt lat="52.278399802744388580322265625" lon="1.6328723542392253875732421875">
        <ele>-379.79998779296875</ele>
        <time>2025-09-07T09:22:47.000Z</time>
        <extensions>
          <ns3:TrackPointExtension>
            <ns3:hr>112</ns3:hr>
            <ns3:cad>0</ns3:cad>
          </ns3:TrackPointExtension>
        </extensions>
      </trkpt>
      <trkpt lat="52.27839603088796138763427734375" lon="1.632880233228206634521484375">
        <ele>-378.600006103515625</ele>
        <time>2025-09-07T09:22:52.000Z</time>
        <extensions>
          <ns3:TrackPointExtension>
            <ns3:hr>109</ns3:hr>
            <ns3:cad>0</ns3:cad>
          </ns3:TrackPointExtension>
        </extensions>
      </trkpt>
      <trkpt lat="52.27839611470699310302734375" lon="1.632894314825534820556640625">
        <ele>-377.600006103515625</ele>
        <time>2025-09-07T09:23:00.000Z</time>
        <extensions>
          <ns3:TrackPointExtension>
            <ns3:hr>109</ns3:hr>
            <ns3:cad>0</ns3:cad>
          </ns3:TrackPointExtension>
        </extensions>
      </trkpt>
      <trkpt lat="52.2783981263637542724609375" lon="1.63289305754005908966064453125">
        <ele>-377</ele>
        <time>2025-09-07T09:23:01.000Z</time>
        <extensions>
          <ns3:TrackPointExtension>
            <ns3:hr>109</ns3:hr>
            <ns3:cad>0</ns3:cad>
          </ns3:TrackPointExtension>
        </extensions>
      </trkpt>
      <trkpt lat="52.278402484953403472900390625" lon="1.632904373109340667724609375">
        <ele>-375.600006103515625</ele>
        <time>2025-09-07T09:23:04.000Z</time>
        <extensions>
          <ns3:TrackPointExtension>
            <ns3:hr>108</ns3:hr>
            <ns3:cad>0</ns3:cad>
          </ns3:TrackPointExtension>
        </extensions>
      </trkpt>
      <trkpt lat="52.2784046642482280731201171875" lon="1.63292071782052516937255859375">
        <ele>-374.600006103515625</ele>
        <time>2025-09-07T09:23:07.000Z</time>
        <extensions>
          <ns3:TrackPointExtension>
            <ns3:hr>104</ns3:hr>
            <ns3:cad>0</ns3:cad>
          </ns3:TrackPointExtension>
        </extensions>
      </trkpt>
      <trkpt lat="52.278406508266925811767578125" lon="1.6329273395240306854248046875">
        <ele>-374.20001220703125</ele>
        <time>2025-09-07T09:23:09.000Z</time>
        <extensions>
          <ns3:TrackPointExtension>
            <ns3:hr>102</ns3:hr>
            <ns3:cad>0</ns3:cad>
          </ns3:TrackPointExtension>
        </extensions>
      </trkpt>
      <trkpt lat="52.27840776555240154266357421875" lon="1.63293748162686824798583984375">
        <ele>-373.600006103515625</ele>
        <time>2025-09-07T09:23:11.000Z</time>
        <extensions>
          <ns3:TrackPointExtension>
            <ns3:hr>102</ns3:hr>
            <ns3:cad>0</ns3:cad>
          </ns3:TrackPointExtension>
        </extensions>
      </trkpt>
      <trkpt lat="52.27840893901884555816650390625" lon="1.63295810110867023468017578125">
        <ele>-372.399993896484375</ele>
        <time>2025-09-07T09:23:15.000Z</time>
        <extensions>
          <ns3:TrackPointExtension>
            <ns3:hr>99</ns3:hr>
            <ns3:cad>0</ns3:cad>
          </ns3:TrackPointExtension>
        </extensions>
      </trkpt>
      <trkpt lat="52.27840776555240154266357421875" lon="1.63296279497444629669189453125">
        <ele>-372.399993896484375</ele>
        <time>2025-09-07T09:23:16.000Z</time>
        <extensions>
          <ns3:TrackPointExtension>
            <ns3:hr>96</ns3:hr>
            <ns3:cad>0</ns3:cad>
          </ns3:TrackPointExtension>
        </extensions>
      </trkpt>
      <trkpt lat="52.278408519923686981201171875" lon="1.63297377526760101318359375">
        <ele>-372.20001220703125</ele>
        <time>2025-09-07T09:23:18.000Z</time>
        <extensions>
          <ns3:TrackPointExtension>
            <ns3:hr>91</ns3:hr>
            <ns3:cad>0</ns3:cad>
          </ns3:TrackPointExtension>
        </extensions>
      </trkpt>
      <trkpt lat="52.27841162122786045074462890625" lon="1.632975451648235321044921875">
        <ele>-372</ele>
        <time>2025-09-07T09:23:19.000Z</time>
        <extensions>
          <ns3:TrackPointExtension>
            <ns3:hr>90</ns3:hr>
            <ns3:cad>0</ns3:cad>
          </ns3:TrackPointExtension>
        </extensions>
      </trkpt>
      <trkpt lat="52.27841086685657501220703125" lon="1.63297805003821849822998046875">
        <ele>-371.79998779296875</ele>
        <time>2025-09-07T09:23:20.000Z</time>
        <extensions>
          <ns3:TrackPointExtension>
            <ns3:hr>87</ns3:hr>
            <ns3:cad>0</ns3:cad>
          </ns3:TrackPointExtension>
        </extensions>
      </trkpt>
      <trkpt lat="52.27841296233236789703369140625" lon="1.6329746134579181671142578125">
        <ele>-371.399993896484375</ele>
        <time>2025-09-07T09:23:22.000Z</time>
        <extensions>
          <ns3:TrackPointExtension>
            <ns3:hr>83</ns3:hr>
            <ns3:cad>0</ns3:cad>
          </ns3:TrackPointExtension>
        </extensions>
      </trkpt>
      <trkpt lat="52.278410531580448150634765625" lon="1.63297318853437900543212890625">
        <ele>-370.399993896484375</ele>
        <time>2025-09-07T09:23:26.000Z</time>
        <extensions>
          <ns3:TrackPointExtension>
            <ns3:hr>83</ns3:hr>
            <ns3:cad>0</ns3:cad>
          </ns3:TrackPointExtension>
        </extensions>
      </trkpt>
      <trkpt lat="52.27840550243854522705078125" lon="1.6329638846218585968017578125">
        <ele>-369.20001220703125</ele>
        <time>2025-09-07T09:23:30.000Z</time>
        <extensions>
          <ns3:TrackPointExtension>
            <ns3:hr>84</ns3:hr>
            <ns3:cad>0</ns3:cad>
          </ns3:TrackPointExtension>
        </extensions>
      </trkpt>
      <trkpt lat="52.278396449983119964599609375" lon="1.63294904865324497222900390625">
        <ele>-368.20001220703125</ele>
        <time>2025-09-07T09:23:38.000Z</time>
        <extensions>
          <ns3:TrackPointExtension>
            <ns3:hr>84</ns3:hr>
            <ns3:cad>0</ns3:cad>
          </ns3:TrackPointExtension>
        </extensions>
      </trkpt>
      <trkpt lat="52.27839351631700992584228515625" lon="1.6329531557857990264892578125">
        <ele>-368</ele>
        <time>2025-09-07T09:23:40.000Z</time>
        <extensions>
          <ns3:TrackPointExtension>
            <ns3:hr>83</ns3:hr>
            <ns3:cad>0</ns3:cad>
          </ns3:TrackPointExtension>
        </extensions>
      </trkpt>
      <trkpt lat="52.27838362567126750946044921875" lon="1.6329541616141796112060546875">
        <ele>-367.600006103515625</ele>
        <time>2025-09-07T09:23:49.000Z</time>
        <extensions>
          <ns3:TrackPointExtension>
            <ns3:hr>82</ns3:hr>
            <ns3:cad>0</ns3:cad>
          </ns3:TrackPointExtension>
        </extensions>
      </trkpt>
      <trkpt lat="52.27837490849196910858154296875" lon="1.6329588554799556732177734375">
        <ele>-367.79998779296875</ele>
        <time>2025-09-07T09:23:52.000Z</time>
        <extensions>
          <ns3:TrackPointExtension>
            <ns3:hr>79</ns3:hr>
            <ns3:cad>0</ns3:cad>
          </ns3:TrackPointExtension>
        </extensions>
      </trkpt>
      <trkpt lat="52.2783657722175121307373046875" lon="1.63296162150800228118896484375">
        <ele>-368</ele>
        <time>2025-09-07T09:23:57.000Z</time>
        <extensions>
          <ns3:TrackPointExtension>
            <ns3:hr>76</ns3:hr>
            <ns3:cad>0</ns3:cad>
          </ns3:TrackPointExtension>
        </extensions>
      </trkpt>
      <trkpt lat="52.278361581265926361083984375" lon="1.63296229206025600433349609375">
        <ele>-368</ele>
        <time>2025-09-07T09:23:58.000Z</time>
        <extensions>
          <ns3:TrackPointExtension>
            <ns3:hr>79</ns3:hr>
            <ns3:cad>0</ns3:cad>
          </ns3:TrackPointExtension>
        </extensions>
      </trkpt>
      <trkpt lat="52.27834993042051792144775390625" lon="1.6329544968903064727783203125">
        <ele>-367.79998779296875</ele>
        <time>2025-09-07T09:24:03.000Z</time>
        <extensions>
          <ns3:TrackPointExtension>
            <ns3:hr>75</ns3:hr>
            <ns3:cad>0</ns3:cad>
          </ns3:TrackPointExtension>
        </extensions>
      </trkpt>
      <trkpt lat="52.27835093624889850616455078125" lon="1.63295910693705081939697265625">
        <ele>-368.20001220703125</ele>
        <time>2025-09-07T09:24:08.000Z</time>
        <extensions>
          <ns3:TrackPointExtension>
            <ns3:hr>76</ns3:hr>
            <ns3:cad>0</ns3:cad>
          </ns3:TrackPointExtension>
        </extensions>
      </trkpt>
      <trkpt lat="52.2783607430756092071533203125" lon="1.63295944221317768096923828125">
        <ele>-368.399993896484375</ele>
        <time>2025-09-07T09:24:11.000Z</time>
        <extensions>
          <ns3:TrackPointExtension>
            <ns3:hr>79</ns3:hr>
            <ns3:cad>0</ns3:cad>
          </ns3:TrackPointExtension>
        </extensions>
      </trkpt>
      <trkpt lat="52.27836417965590953826904296875" lon="1.63295541889965534210205078125">
        <ele>-371</ele>
        <time>2025-09-07T09:24:14.000Z</time>
        <extensions>
          <ns3:TrackPointExtension>
            <ns3:hr>79</ns3:hr>
            <ns3:cad>0</ns3:cad>
          </ns3:TrackPointExtension>
        </extensions>
      </trkpt>
      <trkpt lat="52.2783766686916351318359375" lon="1.632949970662593841552734375">
        <ele>-371</ele>
        <time>2025-09-07T09:24:16.000Z</time>
        <extensions>
          <ns3:TrackPointExtension>
            <ns3:hr>79</ns3:hr>
            <ns3:cad>0</ns3:cad>
          </ns3:TrackPointExtension>
        </extensions>
      </trkpt>
      <trkpt lat="52.2783785127103328704833984375" lon="1.63295374251902103424072265625">
        <ele>-371</ele>
        <time>2025-09-07T09:24:24.000Z</time>
        <extensions>
          <ns3:TrackPointExtension>
            <ns3:hr>82</ns3:hr>
            <ns3:cad>0</ns3:cad>
          </ns3:TrackPointExtension>
        </extensions>
      </trkpt>
      <trkpt lat="52.27837868034839630126953125" lon="1.63295642472803592681884765625">
        <ele>-371</ele>
        <time>2025-09-07T09:24:28.000Z</time>
        <extensions>
          <ns3:TrackPointExtension>
            <ns3:hr>85</ns3:hr>
            <ns3:cad>0</ns3:cad>
          </ns3:TrackPointExtension>
        </extensions>
      </trkpt>
      <trkpt lat="52.2783681191504001617431640625" lon="1.6329618729650974273681640625">
        <ele>-371</ele>
        <time>2025-09-07T09:24:44.000Z</time>
        <extensions>
          <ns3:TrackPointExtension>
            <ns3:hr>82</ns3:hr>
            <ns3:cad>0</ns3:cad>
          </ns3:TrackPointExtension>
        </extensions>
      </trkpt>
      <trkpt lat="52.278380692005157470703125" lon="1.6329615376889705657958984375">
        <ele>-371</ele>
        <time>2025-09-07T09:25:01.000Z</time>
        <extensions>
          <ns3:TrackPointExtension>
            <ns3:hr>80</ns3:hr>
            <ns3:cad>0</ns3:cad>
          </ns3:TrackPointExtension>
        </extensions>
      </trkpt>
      <trkpt lat="52.27838002145290374755859375" lon="1.6329618729650974273681640625">
        <ele>-371</ele>
        <time>2025-09-07T09:25:03.000Z</time>
        <extensions>
          <ns3:TrackPointExtension>
            <ns3:hr>77</ns3:hr>
            <ns3:cad>0</ns3:cad>
          </ns3:TrackPointExtension>
        </extensions>
      </trkpt>
      <trkpt lat="52.2783751599490642547607421875" lon="1.632968746125698089599609375">
        <ele>-371</ele>
        <time>2025-09-07T09:25:11.000Z</time>
        <extensions>
          <ns3:TrackPointExtension>
            <ns3:hr>80</ns3:hr>
            <ns3:cad>0</ns3:cad>
          </ns3:TrackPointExtension>
        </extensions>
      </trkpt>
      <trkpt lat="52.27837490849196910858154296875" lon="1.6329695843160152435302734375">
        <ele>-371</ele>
        <time>2025-09-07T09:25:13.000Z</time>
        <extensions>
          <ns3:TrackPointExtension>
            <ns3:hr>84</ns3:hr>
            <ns3:cad>0</ns3:cad>
          </ns3:TrackPointExtension>
        </extensions>
      </trkpt>
      <trkpt lat="52.278374992311000823974609375" lon="1.6329705901443958282470703125">
        <ele>-361.20001220703125</ele>
        <time>2025-09-07T09:25:15.000Z</time>
        <extensions>
          <ns3:TrackPointExtension>
            <ns3:hr>85</ns3:hr>
            <ns3:cad>0</ns3:cad>
          </ns3:TrackPointExtension>
        </extensions>
      </trkpt>
      <trkpt lat="52.2783728130161762237548828125" lon="1.6329772956669330596923828125">
        <ele>-360</ele>
        <time>2025-09-07T09:25:24.000Z</time>
        <extensions>
          <ns3:TrackPointExtension>
            <ns3:hr>87</ns3:hr>
            <ns3:cad>0</ns3:cad>
          </ns3:TrackPointExtension>
        </extensions>
      </trkpt>
      <trkpt lat="52.27837189100682735443115234375" lon="1.6329823248088359832763671875">
        <ele>-358.79998779296875</ele>
        <time>2025-09-07T09:25:30.000Z</time>
        <extensions>
          <ns3:TrackPointExtension>
            <ns3:hr>85</ns3:hr>
            <ns3:cad>0</ns3:cad>
          </ns3:TrackPointExtension>
        </extensions>
      </trkpt>
      <trkpt lat="52.278369963169097900390625" lon="1.63298693485558032989501953125">
        <ele>-359.20001220703125</ele>
        <time>2025-09-07T09:25:33.000Z</time>
        <extensions>
          <ns3:TrackPointExtension>
            <ns3:hr>84</ns3:hr>
            <ns3:cad>0</ns3:cad>
          </ns3:TrackPointExtension>
        </extensions>
      </trkpt>
      <trkpt lat="52.278377674520015716552734375" lon="1.6329860128462314605712890625">
        <ele>-357.79998779296875</ele>
        <time>2025-09-07T09:25:44.000Z</time>
        <extensions>
          <ns3:TrackPointExtension>
            <ns3:hr>83</ns3:hr>
            <ns3:cad>0</ns3:cad>
          </ns3:TrackPointExtension>
        </extensions>
      </trkpt>
      <trkpt lat="52.27837842889130115509033203125" lon="1.63297486491501331329345703125">
        <ele>-356.79998779296875</ele>
        <time>2025-09-07T09:25:47.000Z</time>
        <extensions>
          <ns3:TrackPointExtension>
            <ns3:hr>83</ns3:hr>
            <ns3:cad>0</ns3:cad>
          </ns3:TrackPointExtension>
        </extensions>
      </trkpt>
      <trkpt lat="52.27838211692869663238525390625" lon="1.63297553546726703643798828125">
        <ele>-355.79998779296875</ele>
        <time>2025-09-07T09:25:49.000Z</time>
        <extensions>
          <ns3:TrackPointExtension>
            <ns3:hr>83</ns3:hr>
            <ns3:cad>0</ns3:cad>
          </ns3:TrackPointExtension>
        </extensions>
      </trkpt>
      <trkpt lat="52.27838228456676006317138671875" lon="1.63297570310533046722412109375">
        <ele>-354.600006103515625</ele>
        <time>2025-09-07T09:25:51.000Z</time>
        <extensions>
          <ns3:TrackPointExtension>
            <ns3:hr>84</ns3:hr>
            <ns3:cad>0</ns3:cad>
          </ns3:TrackPointExtension>
        </extensions>
      </trkpt>
      <trkpt lat="52.27838270366191864013671875" lon="1.63297972641885280609130859375">
        <ele>-353.600006103515625</ele>
        <time>2025-09-07T09:25:54.000Z</time>
        <extensions>
          <ns3:TrackPointExtension>
            <ns3:hr>83</ns3:hr>
            <ns3:cad>0</ns3:cad>
          </ns3:TrackPointExtension>
        </extensions>
      </trkpt>
      <trkpt lat="52.27838111110031604766845703125" lon="1.6329811513423919677734375">
        <ele>-350.600006103515625</ele>
        <time>2025-09-07T09:25:56.000Z</time>
        <extensions>
          <ns3:TrackPointExtension>
            <ns3:hr>82</ns3:hr>
            <ns3:cad>0</ns3:cad>
          </ns3:TrackPointExtension>
        </extensions>
      </trkpt>
      <trkpt lat="52.278380692005157470703125" lon="1.6329809837043285369873046875">
        <ele>-346.399993896484375</ele>
        <time>2025-09-07T09:25:57.000Z</time>
        <extensions>
          <ns3:TrackPointExtension>
            <ns3:hr>82</ns3:hr>
            <ns3:cad>0</ns3:cad>
          </ns3:TrackPointExtension>
        </extensions>
      </trkpt>
      <trkpt lat="52.27837876416742801666259765625" lon="1.632981486618518829345703125">
        <ele>-342.399993896484375</ele>
        <time>2025-09-07T09:25:58.000Z</time>
        <extensions>
          <ns3:TrackPointExtension>
            <ns3:hr>82</ns3:hr>
            <ns3:cad>0</ns3:cad>
          </ns3:TrackPointExtension>
        </extensions>
      </trkpt>
      <trkpt lat="52.27837759070098400115966796875" lon="1.6329823248088359832763671875">
        <ele>-338.79998779296875</ele>
        <time>2025-09-07T09:25:59.000Z</time>
        <extensions>
          <ns3:TrackPointExtension>
            <ns3:hr>83</ns3:hr>
            <ns3:cad>0</ns3:cad>
          </ns3:TrackPointExtension>
        </extensions>
      </trkpt>
      <trkpt lat="52.2783766686916351318359375" lon="1.63298316299915313720703125">
        <ele>-336.79998779296875</ele>
        <time>2025-09-07T09:26:00.000Z</time>
        <extensions>
          <ns3:TrackPointExtension>
            <ns3:hr>83</ns3:hr>
            <ns3:cad>0</ns3:cad>
          </ns3:TrackPointExtension>
        </extensions>
      </trkpt>
      <trkpt lat="52.2783765010535717010498046875" lon="1.6329823248088359832763671875">
        <ele>-335.399993896484375</ele>
        <time>2025-09-07T09:26:01.000Z</time>
        <extensions>
          <ns3:TrackPointExtension>
            <ns3:hr>83</ns3:hr>
            <ns3:cad>0</ns3:cad>
          </ns3:TrackPointExtension>
        </extensions>
      </trkpt>
      <trkpt lat="52.278377674520015716552734375" lon="1.63298157043755054473876953125">
        <ele>-334.399993896484375</ele>
        <time>2025-09-07T09:26:02.000Z</time>
        <extensions>
          <ns3:TrackPointExtension>
            <ns3:hr>84</ns3:hr>
            <ns3:cad>0</ns3:cad>
          </ns3:TrackPointExtension>
        </extensions>
      </trkpt>
      <trkpt lat="52.27837868034839630126953125" lon="1.63298056460916996002197265625">
        <ele>-333.20001220703125</ele>
        <time>2025-09-07T09:26:04.000Z</time>
        <extensions>
          <ns3:TrackPointExtension>
            <ns3:hr>83</ns3:hr>
            <ns3:cad>0</ns3:cad>
          </ns3:TrackPointExtension>
        </extensions>
      </trkpt>
      <trkpt lat="52.278369963169097900390625" lon="1.63297721184790134429931640625">
        <ele>-332.600006103515625</ele>
        <time>2025-09-07T09:26:12.000Z</time>
        <extensions>
          <ns3:TrackPointExtension>
            <ns3:hr>79</ns3:hr>
            <ns3:cad>0</ns3:cad>
          </ns3:TrackPointExtension>
        </extensions>
      </trkpt>
      <trkpt lat="52.278368957340717315673828125" lon="1.632976122200489044189453125">
        <ele>-332.600006103515625</ele>
        <time>2025-09-07T09:26:13.000Z</time>
        <extensions>
          <ns3:TrackPointExtension>
            <ns3:hr>79</ns3:hr>
            <ns3:cad>0</ns3:cad>
          </ns3:TrackPointExtension>
        </extensions>
      </trkpt>
      <trkpt lat="52.27836635895073413848876953125" lon="1.632976122200489044189453125">
        <ele>-335.20001220703125</ele>
        <time>2025-09-07T09:26:16.000Z</time>
        <extensions>
          <ns3:TrackPointExtension>
            <ns3:hr>79</ns3:hr>
            <ns3:cad>0</ns3:cad>
          </ns3:TrackPointExtension>
        </extensions>
      </trkpt>
      <trkpt lat="52.27836635895073413848876953125" lon="1.6329759545624256134033203125">
        <ele>-336.600006103515625</ele>
        <time>2025-09-07T09:26:17.000Z</time>
        <extensions>
          <ns3:TrackPointExtension>
            <ns3:hr>79</ns3:hr>
            <ns3:cad>0</ns3:cad>
          </ns3:TrackPointExtension>
        </extensions>
      </trkpt>
      <trkpt lat="52.27836669422686100006103515625" lon="1.63297737948596477508544921875">
        <ele>-338.399993896484375</ele>
        <time>2025-09-07T09:26:18.000Z</time>
        <extensions>
          <ns3:TrackPointExtension>
            <ns3:hr>79</ns3:hr>
            <ns3:cad>0</ns3:cad>
          </ns3:TrackPointExtension>
        </extensions>
      </trkpt>
      <trkpt lat="52.27836736477911472320556640625" lon="1.63297788240015506744384765625">
        <ele>-339.79998779296875</ele>
        <time>2025-09-07T09:26:19.000Z</time>
        <extensions>
          <ns3:TrackPointExtension>
            <ns3:hr>80</ns3:hr>
            <ns3:cad>0</ns3:cad>
          </ns3:TrackPointExtension>
        </extensions>
      </trkpt>
      <trkpt lat="52.27836837060749530792236328125" lon="1.63297788240015506744384765625">
        <ele>-341.20001220703125</ele>
        <time>2025-09-07T09:26:20.000Z</time>
        <extensions>
          <ns3:TrackPointExtension>
            <ns3:hr>80</ns3:hr>
            <ns3:cad>0</ns3:cad>
          </ns3:TrackPointExtension>
        </extensions>
      </trkpt>
      <trkpt lat="52.2783677838742733001708984375" lon="1.63297637365758419036865234375">
        <ele>-342.399993896484375</ele>
        <time>2025-09-07T09:26:22.000Z</time>
        <extensions>
          <ns3:TrackPointExtension>
            <ns3:hr>81</ns3:hr>
            <ns3:cad>0</ns3:cad>
          </ns3:TrackPointExtension>
        </extensions>
      </trkpt>
      <trkpt lat="52.2783667780458927154541015625" lon="1.632980816066265106201171875">
        <ele>-344.600006103515625</ele>
        <time>2025-09-07T09:26:25.000Z</time>
        <extensions>
          <ns3:TrackPointExtension>
            <ns3:hr>80</ns3:hr>
            <ns3:cad>0</ns3:cad>
          </ns3:TrackPointExtension>
        </extensions>
      </trkpt>
      <trkpt lat="52.27836518548429012298583984375" lon="1.6329729370772838592529296875">
        <ele>-347.20001220703125</ele>
        <time>2025-09-07T09:26:26.000Z</time>
        <extensions>
          <ns3:TrackPointExtension>
            <ns3:hr>80</ns3:hr>
            <ns3:cad>0</ns3:cad>
          </ns3:TrackPointExtension>
        </extensions>
      </trkpt>
      <trkpt lat="52.27836384437978267669677734375" lon="1.6329776309430599212646484375">
        <ele>-348.399993896484375</ele>
        <time>2025-09-07T09:26:27.000Z</time>
        <extensions>
          <ns3:TrackPointExtension>
            <ns3:hr>80</ns3:hr>
            <ns3:cad>0</ns3:cad>
          </ns3:TrackPointExtension>
        </extensions>
      </trkpt>
      <trkpt lat="52.2783651016652584075927734375" lon="1.6329826600849628448486328125">
        <ele>-349.399993896484375</ele>
        <time>2025-09-07T09:26:28.000Z</time>
        <extensions>
          <ns3:TrackPointExtension>
            <ns3:hr>83</ns3:hr>
            <ns3:cad>0</ns3:cad>
          </ns3:TrackPointExtension>
        </extensions>
      </trkpt>
      <trkpt lat="52.2783644311130046844482421875" lon="1.63299146108329296112060546875">
        <ele>-353</ele>
        <time>2025-09-07T09:26:31.000Z</time>
        <extensions>
          <ns3:TrackPointExtension>
            <ns3:hr>86</ns3:hr>
            <ns3:cad>0</ns3:cad>
          </ns3:TrackPointExtension>
        </extensions>
      </trkpt>
      <trkpt lat="52.2783672809600830078125" lon="1.63299011997878551483154296875">
        <ele>-354.399993896484375</ele>
        <time>2025-09-07T09:26:32.000Z</time>
        <extensions>
          <ns3:TrackPointExtension>
            <ns3:hr>88</ns3:hr>
            <ns3:cad>0</ns3:cad>
          </ns3:TrackPointExtension>
        </extensions>
      </trkpt>
      <trkpt lat="52.2783694602549076080322265625" lon="1.63298827596008777618408203125">
        <ele>-355.399993896484375</ele>
        <time>2025-09-07T09:26:33.000Z</time>
        <extensions>
          <ns3:TrackPointExtension>
            <ns3:hr>91</ns3:hr>
            <ns3:cad>0</ns3:cad>
          </ns3:TrackPointExtension>
        </extensions>
      </trkpt>
      <trkpt lat="52.2783708013594150543212890625" lon="1.63298584520816802978515625">
        <ele>-356.600006103515625</ele>
        <time>2025-09-07T09:26:34.000Z</time>
        <extensions>
          <ns3:TrackPointExtension>
            <ns3:hr>91</ns3:hr>
            <ns3:cad>0</ns3:cad>
          </ns3:TrackPointExtension>
        </extensions>
      </trkpt>
      <trkpt lat="52.2783711366355419158935546875" lon="1.632988192141056060791015625">
        <ele>-358.600006103515625</ele>
        <time>2025-09-07T09:26:36.000Z</time>
        <extensions>
          <ns3:TrackPointExtension>
            <ns3:hr>94</ns3:hr>
            <ns3:cad>0</ns3:cad>
          </ns3:TrackPointExtension>
        </extensions>
      </trkpt>
      <trkpt lat="52.27837742306292057037353515625" lon="1.6329796425998210906982421875">
        <ele>-359.79998779296875</ele>
        <time>2025-09-07T09:26:39.000Z</time>
        <extensions>
          <ns3:TrackPointExtension>
            <ns3:hr>96</ns3:hr>
            <ns3:cad>0</ns3:cad>
          </ns3:TrackPointExtension>
        </extensions>
      </trkpt>
      <trkpt lat="52.27837775833904743194580078125" lon="1.63297737948596477508544921875">
        <ele>-360</ele>
        <time>2025-09-07T09:26:40.000Z</time>
        <extensions>
          <ns3:TrackPointExtension>
            <ns3:hr>93</ns3:hr>
            <ns3:cad>0</ns3:cad>
          </ns3:TrackPointExtension>
        </extensions>
      </trkpt>
      <trkpt lat="52.27837909944355487823486328125" lon="1.63297721184790134429931640625">
        <ele>-360.600006103515625</ele>
        <time>2025-09-07T09:26:43.000Z</time>
        <extensions>
          <ns3:TrackPointExtension>
            <ns3:hr>88</ns3:hr>
            <ns3:cad>0</ns3:cad>
          </ns3:TrackPointExtension>
        </extensions>
      </trkpt>
      <trkpt lat="52.27837868034839630126953125" lon="1.632977463304996490478515625">
        <ele>-360.600006103515625</ele>
        <time>2025-09-07T09:26:44.000Z</time>
        <extensions>
          <ns3:TrackPointExtension>
            <ns3:hr>85</ns3:hr>
            <ns3:cad>0</ns3:cad>
          </ns3:TrackPointExtension>
        </extensions>
      </trkpt>
      <trkpt lat="52.2783778421580791473388671875" lon="1.63297754712402820587158203125">
        <ele>-360.79998779296875</ele>
        <time>2025-09-07T09:26:46.000Z</time>
        <extensions>
          <ns3:TrackPointExtension>
            <ns3:hr>82</ns3:hr>
            <ns3:cad>0</ns3:cad>
          </ns3:TrackPointExtension>
        </extensions>
      </trkpt>
      <trkpt lat="52.27837658487260341644287109375" lon="1.63297779858112335205078125">
        <ele>-361.399993896484375</ele>
        <time>2025-09-07T09:26:49.000Z</time>
        <extensions>
          <ns3:TrackPointExtension>
            <ns3:hr>82</ns3:hr>
            <ns3:cad>0</ns3:cad>
          </ns3:TrackPointExtension>
        </extensions>
      </trkpt>
      <trkpt lat="52.2783768363296985626220703125" lon="1.632980145514011383056640625">
        <ele>-361.79998779296875</ele>
        <time>2025-09-07T09:26:53.000Z</time>
        <extensions>
          <ns3:TrackPointExtension>
            <ns3:hr>82</ns3:hr>
            <ns3:cad>0</ns3:cad>
          </ns3:TrackPointExtension>
        </extensions>
      </trkpt>
      <trkpt lat="52.2783714719116687774658203125" lon="1.6329816542565822601318359375">
        <ele>-363.20001220703125</ele>
        <time>2025-09-07T09:26:57.000Z</time>
        <extensions>
          <ns3:TrackPointExtension>
            <ns3:hr>81</ns3:hr>
            <ns3:cad>0</ns3:cad>
          </ns3:TrackPointExtension>
        </extensions>
      </trkpt>
      <trkpt lat="52.27837063372135162353515625" lon="1.63298944942653179168701171875">
        <ele>-364.20001220703125</ele>
        <time>2025-09-07T09:27:00.000Z</time>
        <extensions>
          <ns3:TrackPointExtension>
            <ns3:hr>80</ns3:hr>
            <ns3:cad>0</ns3:cad>
          </ns3:TrackPointExtension>
        </extensions>
      </trkpt>
      <trkpt lat="52.27837054990231990814208984375" lon="1.6329803131520748138427734375">
        <ele>-364.600006103515625</ele>
        <time>2025-09-07T09:27:04.000Z</time>
        <extensions>
          <ns3:TrackPointExtension>
            <ns3:hr>77</ns3:hr>
            <ns3:cad>0</ns3:cad>
          </ns3:TrackPointExtension>
        </extensions>
      </trkpt>
      <trkpt lat="52.2783748246729373931884765625" lon="1.63299531675875186920166015625">
        <ele>-364.399993896484375</ele>
        <time>2025-09-07T09:27:15.000Z</time>
        <extensions>
          <ns3:TrackPointExtension>
            <ns3:hr>73</ns3:hr>
            <ns3:cad>0</ns3:cad>
          </ns3:TrackPointExtension>
        </extensions>
      </trkpt>
      <trkpt lat="52.2783748246729373931884765625" lon="1.6329947300255298614501953125">
        <ele>-362.399993896484375</ele>
        <time>2025-09-07T09:27:18.000Z</time>
        <extensions>
          <ns3:TrackPointExtension>
            <ns3:hr>73</ns3:hr>
            <ns3:cad>0</ns3:cad>
          </ns3:TrackPointExtension>
        </extensions>
      </trkpt>
      <trkpt lat="52.27837507613003253936767578125" lon="1.63299565203487873077392578125">
        <ele>-361.399993896484375</ele>
        <time>2025-09-07T09:27:20.000Z</time>
        <extensions>
          <ns3:TrackPointExtension>
            <ns3:hr>74</ns3:hr>
            <ns3:cad>0</ns3:cad>
          </ns3:TrackPointExtension>
        </extensions>
      </trkpt>
      <trkpt lat="52.27837624959647655487060546875" lon="1.63299347274005413055419921875">
        <ele>-358.600006103515625</ele>
        <time>2025-09-07T09:27:21.000Z</time>
        <extensions>
          <ns3:TrackPointExtension>
            <ns3:hr>73</ns3:hr>
            <ns3:cad>0</ns3:cad>
          </ns3:TrackPointExtension>
        </extensions>
      </trkpt>
      <trkpt lat="52.27837574668228626251220703125" lon="1.63299280218780040740966796875">
        <ele>-357</ele>
        <time>2025-09-07T09:27:22.000Z</time>
        <extensions>
          <ns3:TrackPointExtension>
            <ns3:hr>72</ns3:hr>
            <ns3:cad>0</ns3:cad>
          </ns3:TrackPointExtension>
        </extensions>
      </trkpt>
      <trkpt lat="52.2783766686916351318359375" lon="1.63299389183521270751953125">
        <ele>-355.600006103515625</ele>
        <time>2025-09-07T09:27:24.000Z</time>
        <extensions>
          <ns3:TrackPointExtension>
            <ns3:hr>73</ns3:hr>
            <ns3:cad>0</ns3:cad>
          </ns3:TrackPointExtension>
        </extensions>
      </trkpt>
      <trkpt lat="52.27837608195841312408447265625" lon="1.63299481384456157684326171875">
        <ele>-354.399993896484375</ele>
        <time>2025-09-07T09:27:27.000Z</time>
        <extensions>
          <ns3:TrackPointExtension>
            <ns3:hr>72</ns3:hr>
            <ns3:cad>0</ns3:cad>
          </ns3:TrackPointExtension>
        </extensions>
      </trkpt>
      <trkpt lat="52.27837809361517429351806640625" lon="1.63299095816910266876220703125">
        <ele>-353.399993896484375</ele>
        <time>2025-09-07T09:27:32.000Z</time>
        <extensions>
          <ns3:TrackPointExtension>
            <ns3:hr>73</ns3:hr>
            <ns3:cad>0</ns3:cad>
          </ns3:TrackPointExtension>
        </extensions>
      </trkpt>
      <trkpt lat="52.27837323211133480072021484375" lon="1.63299196399748325347900390625">
        <ele>-352.600006103515625</ele>
        <time>2025-09-07T09:27:37.000Z</time>
        <extensions>
          <ns3:TrackPointExtension>
            <ns3:hr>70</ns3:hr>
            <ns3:cad>0</ns3:cad>
          </ns3:TrackPointExtension>
        </extensions>
      </trkpt>
      <trkpt lat="52.2783748246729373931884765625" lon="1.63298274390399456024169921875">
        <ele>-351.79998779296875</ele>
        <time>2025-09-07T09:27:39.000Z</time>
        <extensions>
          <ns3:TrackPointExtension>
            <ns3:hr>68</ns3:hr>
            <ns3:cad>0</ns3:cad>
          </ns3:TrackPointExtension>
        </extensions>
      </trkpt>
      <trkpt lat="52.27837541140615940093994140625" lon="1.63297989405691623687744140625">
        <ele>-351.600006103515625</ele>
        <time>2025-09-07T09:27:40.000Z</time>
        <extensions>
          <ns3:TrackPointExtension>
            <ns3:hr>69</ns3:hr>
            <ns3:cad>0</ns3:cad>
          </ns3:TrackPointExtension>
        </extensions>
      </trkpt>
      <trkpt lat="52.278386056423187255859375" lon="1.6329702548682689666748046875">
        <ele>-350.600006103515625</ele>
        <time>2025-09-07T09:27:45.000Z</time>
        <extensions>
          <ns3:TrackPointExtension>
            <ns3:hr>72</ns3:hr>
            <ns3:cad>0</ns3:cad>
          </ns3:TrackPointExtension>
        </extensions>
      </trkpt>
      <trkpt lat="52.2783919237554073333740234375" lon="1.632951311767101287841796875">
        <ele>-350.20001220703125</ele>
        <time>2025-09-07T09:27:58.000Z</time>
        <extensions>
          <ns3:TrackPointExtension>
            <ns3:hr>73</ns3:hr>
            <ns3:cad>0</ns3:cad>
          </ns3:TrackPointExtension>
        </extensions>
      </trkpt>
      <trkpt lat="52.27838899008929729461669921875" lon="1.6329575143754482269287109375">
        <ele>-350</ele>
        <time>2025-09-07T09:28:02.000Z</time>
        <extensions>
          <ns3:TrackPointExtension>
            <ns3:hr>76</ns3:hr>
            <ns3:cad>0</ns3:cad>
          </ns3:TrackPointExtension>
        </extensions>
      </trkpt>
      <trkpt lat="52.27838228456676006317138671875" lon="1.6329715959727764129638671875">
        <ele>-351.600006103515625</ele>
        <time>2025-09-07T09:28:12.000Z</time>
        <extensions>
          <ns3:TrackPointExtension>
            <ns3:hr>79</ns3:hr>
            <ns3:cad>0</ns3:cad>
          </ns3:TrackPointExtension>
        </extensions>
      </trkpt>
      <trkpt lat="52.27838027290999889373779296875" lon="1.63297268562018871307373046875">
        <ele>-352</ele>
        <time>2025-09-07T09:28:13.000Z</time>
        <extensions>
          <ns3:TrackPointExtension>
            <ns3:hr>79</ns3:hr>
            <ns3:cad>0</ns3:cad>
          </ns3:TrackPointExtension>
        </extensions>
      </trkpt>
      <trkpt lat="52.278379686176776885986328125" lon="1.6329762898385524749755859375">
        <ele>-352.600006103515625</ele>
        <time>2025-09-07T09:28:15.000Z</time>
        <extensions>
          <ns3:TrackPointExtension>
            <ns3:hr>79</ns3:hr>
            <ns3:cad>0</ns3:cad>
          </ns3:TrackPointExtension>
        </extensions>
      </trkpt>
      <trkpt lat="52.278369627892971038818359375" lon="1.63300436921417713165283203125">
        <ele>-352.399993896484375</ele>
        <time>2025-09-07T09:28:31.000Z</time>
        <extensions>
          <ns3:TrackPointExtension>
            <ns3:hr>76</ns3:hr>
            <ns3:cad>0</ns3:cad>
          </ns3:TrackPointExtension>
        </extensions>
      </trkpt>
      <trkpt lat="52.2783697955310344696044921875" lon="1.6330051235854625701904296875">
        <ele>-352.399993896484375</ele>
        <time>2025-09-07T09:28:32.000Z</time>
        <extensions>
          <ns3:TrackPointExtension>
            <ns3:hr>75</ns3:hr>
            <ns3:cad>0</ns3:cad>
          </ns3:TrackPointExtension>
        </extensions>
      </trkpt>
      <trkpt lat="52.27837826125323772430419921875" lon="1.633010320365428924560546875">
        <ele>-352.399993896484375</ele>
        <time>2025-09-07T09:28:48.000Z</time>
        <extensions>
          <ns3:TrackPointExtension>
            <ns3:hr>74</ns3:hr>
            <ns3:cad>0</ns3:cad>
          </ns3:TrackPointExtension>
        </extensions>
      </trkpt>
      <trkpt lat="52.27837071754038333892822265625" lon="1.6330187022686004638671875">
        <ele>-353.399993896484375</ele>
        <time>2025-09-07T09:28:57.000Z</time>
        <extensions>
          <ns3:TrackPointExtension>
            <ns3:hr>71</ns3:hr>
            <ns3:cad>0</ns3:cad>
          </ns3:TrackPointExtension>
        </extensions>
      </trkpt>
      <trkpt lat="52.2783664427697658538818359375" lon="1.63301560096442699432373046875">
        <ele>-353.600006103515625</ele>
        <time>2025-09-07T09:29:01.000Z</time>
        <extensions>
          <ns3:TrackPointExtension>
            <ns3:hr>74</ns3:hr>
            <ns3:cad>0</ns3:cad>
          </ns3:TrackPointExtension>
        </extensions>
      </trkpt>
      <trkpt lat="52.27836417965590953826904296875" lon="1.63301803171634674072265625">
        <ele>-353.399993896484375</ele>
        <time>2025-09-07T09:29:05.000Z</time>
        <extensions>
          <ns3:TrackPointExtension>
            <ns3:hr>74</ns3:hr>
            <ns3:cad>0</ns3:cad>
          </ns3:TrackPointExtension>
        </extensions>
      </trkpt>
      <trkpt lat="52.2783627547323703765869140625" lon="1.63301803171634674072265625">
        <ele>-353.20001220703125</ele>
        <time>2025-09-07T09:29:10.000Z</time>
        <extensions>
          <ns3:TrackPointExtension>
            <ns3:hr>71</ns3:hr>
            <ns3:cad>0</ns3:cad>
          </ns3:TrackPointExtension>
        </extensions>
      </trkpt>
      <trkpt lat="52.2783597372472286224365234375" lon="1.63302029483020305633544921875">
        <ele>-352.600006103515625</ele>
        <time>2025-09-07T09:29:19.000Z</time>
        <extensions>
          <ns3:TrackPointExtension>
            <ns3:hr>67</ns3:hr>
            <ns3:cad>0</ns3:cad>
          </ns3:TrackPointExtension>
        </extensions>
      </trkpt>
      <trkpt lat="52.27836526930332183837890625" lon="1.63299120962619781494140625">
        <ele>-352.399993896484375</ele>
        <time>2025-09-07T09:29:23.000Z</time>
        <extensions>
          <ns3:TrackPointExtension>
            <ns3:hr>69</ns3:hr>
            <ns3:cad>0</ns3:cad>
          </ns3:TrackPointExtension>
        </extensions>
      </trkpt>
      <trkpt lat="52.2783644311130046844482421875" lon="1.63299682550132274627685546875">
        <ele>-352.79998779296875</ele>
        <time>2025-09-07T09:29:41.000Z</time>
        <extensions>
          <ns3:TrackPointExtension>
            <ns3:hr>72</ns3:hr>
            <ns3:cad>0</ns3:cad>
          </ns3:TrackPointExtension>
        </extensions>
      </trkpt>
      <trkpt lat="52.27836183272302150726318359375" lon="1.63300587795674800872802734375">
        <ele>-353.600006103515625</ele>
        <time>2025-09-07T09:29:44.000Z</time>
        <extensions>
          <ns3:TrackPointExtension>
            <ns3:hr>72</ns3:hr>
            <ns3:cad>0</ns3:cad>
          </ns3:TrackPointExtension>
        </extensions>
      </trkpt>
      <trkpt lat="52.2783597372472286224365234375" lon="1.6330121643841266632080078125">
        <ele>-354</ele>
        <time>2025-09-07T09:29:48.000Z</time>
        <extensions>
          <ns3:TrackPointExtension>
            <ns3:hr>75</ns3:hr>
            <ns3:cad>0</ns3:cad>
          </ns3:TrackPointExtension>
        </extensions>
      </trkpt>
      <trkpt lat="52.2783624194562435150146484375" lon="1.63301560096442699432373046875">
        <ele>-352.600006103515625</ele>
        <time>2025-09-07T09:29:57.000Z</time>
        <extensions>
          <ns3:TrackPointExtension>
            <ns3:hr>76</ns3:hr>
            <ns3:cad>0</ns3:cad>
          </ns3:TrackPointExtension>
        </extensions>
      </trkpt>
      <trkpt lat="52.27836501784622669219970703125" lon="1.6330074705183506011962890625">
        <ele>-351.399993896484375</ele>
        <time>2025-09-07T09:30:01.000Z</time>
        <extensions>
          <ns3:TrackPointExtension>
            <ns3:hr>77</ns3:hr>
            <ns3:cad>0</ns3:cad>
          </ns3:TrackPointExtension>
        </extensions>
      </trkpt>
      <trkpt lat="52.27836526930332183837890625" lon="1.633006632328033447265625">
        <ele>-350</ele>
        <time>2025-09-07T09:30:03.000Z</time>
        <extensions>
          <ns3:TrackPointExtension>
            <ns3:hr>76</ns3:hr>
            <ns3:cad>0</ns3:cad>
          </ns3:TrackPointExtension>
        </extensions>
      </trkpt>
      <trkpt lat="52.2783664427697658538818359375" lon="1.63300730288028717041015625">
        <ele>-349.20001220703125</ele>
        <time>2025-09-07T09:30:07.000Z</time>
        <extensions>
          <ns3:TrackPointExtension>
            <ns3:hr>73</ns3:hr>
            <ns3:cad>0</ns3:cad>
          </ns3:TrackPointExtension>
        </extensions>
      </trkpt>
      <trkpt lat="52.27836803533136844635009765625" lon="1.63302599452435970306396484375">
        <ele>-349.600006103515625</ele>
        <time>2025-09-07T09:30:17.000Z</time>
        <extensions>
          <ns3:TrackPointExtension>
            <ns3:hr>70</ns3:hr>
            <ns3:cad>0</ns3:cad>
          </ns3:TrackPointExtension>
        </extensions>
      </trkpt>
      <trkpt lat="52.27836770005524158477783203125" lon="1.63302800618112087249755859375">
        <ele>-352.600006103515625</ele>
        <time>2025-09-07T09:30:19.000Z</time>
        <extensions>
          <ns3:TrackPointExtension>
            <ns3:hr>70</ns3:hr>
            <ns3:cad>0</ns3:cad>
          </ns3:TrackPointExtension>
        </extensions>
      </trkpt>
      <trkpt lat="52.2783674485981464385986328125" lon="1.6330299340188503265380859375">
        <ele>-355.79998779296875</ele>
        <time>2025-09-07T09:30:20.000Z</time>
        <extensions>
          <ns3:TrackPointExtension>
            <ns3:hr>69</ns3:hr>
            <ns3:cad>0</ns3:cad>
          </ns3:TrackPointExtension>
        </extensions>
      </trkpt>
      <trkpt lat="52.27836753241717815399169921875" lon="1.63303119130432605743408203125">
        <ele>-358.600006103515625</ele>
        <time>2025-09-07T09:30:21.000Z</time>
        <extensions>
          <ns3:TrackPointExtension>
            <ns3:hr>69</ns3:hr>
            <ns3:cad>0</ns3:cad>
          </ns3:TrackPointExtension>
        </extensions>
      </trkpt>
      <trkpt lat="52.27836937643587589263916015625" lon="1.63303236477077007293701171875">
        <ele>-360.20001220703125</ele>
        <time>2025-09-07T09:30:22.000Z</time>
        <extensions>
          <ns3:TrackPointExtension>
            <ns3:hr>69</ns3:hr>
            <ns3:cad>0</ns3:cad>
          </ns3:TrackPointExtension>
        </extensions>
      </trkpt>
      <trkpt lat="52.27836887352168560028076171875" lon="1.6330332867801189422607421875">
        <ele>-361.79998779296875</ele>
        <time>2025-09-07T09:30:23.000Z</time>
        <extensions>
          <ns3:TrackPointExtension>
            <ns3:hr>69</ns3:hr>
            <ns3:cad>0</ns3:cad>
          </ns3:TrackPointExtension>
        </extensions>
      </trkpt>
      <trkpt lat="52.27836786769330501556396484375" lon="1.633033789694309234619140625">
        <ele>-362.79998779296875</ele>
        <time>2025-09-07T09:30:24.000Z</time>
        <extensions>
          <ns3:TrackPointExtension>
            <ns3:hr>68</ns3:hr>
            <ns3:cad>0</ns3:cad>
          </ns3:TrackPointExtension>
        </extensions>
      </trkpt>
      <trkpt lat="52.2783677838742733001708984375" lon="1.63303387351334095001220703125">
        <ele>-364.399993896484375</ele>
        <time>2025-09-07T09:30:25.000Z</time>
        <extensions>
          <ns3:TrackPointExtension>
            <ns3:hr>68</ns3:hr>
            <ns3:cad>0</ns3:cad>
          </ns3:TrackPointExtension>
        </extensions>
      </trkpt>
      <trkpt lat="52.27836837060749530792236328125" lon="1.6330359689891338348388671875">
        <ele>-365.600006103515625</ele>
        <time>2025-09-07T09:30:26.000Z</time>
        <extensions>
          <ns3:TrackPointExtension>
            <ns3:hr>67</ns3:hr>
            <ns3:cad>0</ns3:cad>
          </ns3:TrackPointExtension>
        </extensions>
      </trkpt>
      <trkpt lat="52.27836795151233673095703125" lon="1.63303680717945098876953125">
        <ele>-367.20001220703125</ele>
        <time>2025-09-07T09:30:27.000Z</time>
        <extensions>
          <ns3:TrackPointExtension>
            <ns3:hr>67</ns3:hr>
            <ns3:cad>0</ns3:cad>
          </ns3:TrackPointExtension>
        </extensions>
      </trkpt>
      <trkpt lat="52.27836652658879756927490234375" lon="1.63303471170365810394287109375">
        <ele>-368.600006103515625</ele>
        <time>2025-09-07T09:30:28.000Z</time>
        <extensions>
          <ns3:TrackPointExtension>
            <ns3:hr>67</ns3:hr>
            <ns3:cad>0</ns3:cad>
          </ns3:TrackPointExtension>
        </extensions>
      </trkpt>
      <trkpt lat="52.2783657722175121307373046875" lon="1.6330312751233577728271484375">
        <ele>-370.600006103515625</ele>
        <time>2025-09-07T09:30:29.000Z</time>
        <extensions>
          <ns3:TrackPointExtension>
            <ns3:hr>66</ns3:hr>
            <ns3:cad>0</ns3:cad>
          </ns3:TrackPointExtension>
        </extensions>
      </trkpt>
      <trkpt lat="52.27836124598979949951171875" lon="1.633028090000152587890625">
        <ele>-372</ele>
        <time>2025-09-07T09:30:31.000Z</time>
        <extensions>
          <ns3:TrackPointExtension>
            <ns3:hr>66</ns3:hr>
            <ns3:cad>0</ns3:cad>
          </ns3:TrackPointExtension>
        </extensions>
      </trkpt>
      <trkpt lat="52.27836526930332183837890625" lon="1.63300973363220691680908203125">
        <ele>-372.399993896484375</ele>
        <time>2025-09-07T09:30:36.000Z</time>
        <extensions>
          <ns3:TrackPointExtension>
            <ns3:hr>69</ns3:hr>
            <ns3:cad>0</ns3:cad>
          </ns3:TrackPointExtension>
        </extensions>
      </trkpt>
      <trkpt lat="52.27836602367460727691650390625" lon="1.63300973363220691680908203125">
        <ele>-372.399993896484375</ele>
        <time>2025-09-07T09:30:37.000Z</time>
        <extensions>
          <ns3:TrackPointExtension>
            <ns3:hr>70</ns3:hr>
            <ns3:cad>0</ns3:cad>
          </ns3:TrackPointExtension>
        </extensions>
      </trkpt>
      <trkpt lat="52.27836535312235355377197265625" lon="1.6330091468989849090576171875">
        <ele>-369.600006103515625</ele>
        <time>2025-09-07T09:30:40.000Z</time>
        <extensions>
          <ns3:TrackPointExtension>
            <ns3:hr>72</ns3:hr>
            <ns3:cad>0</ns3:cad>
          </ns3:TrackPointExtension>
        </extensions>
      </trkpt>
      <trkpt lat="52.27836501784622669219970703125" lon="1.6330091468989849090576171875">
        <ele>-367.399993896484375</ele>
        <time>2025-09-07T09:30:41.000Z</time>
        <extensions>
          <ns3:TrackPointExtension>
            <ns3:hr>73</ns3:hr>
            <ns3:cad>0</ns3:cad>
          </ns3:TrackPointExtension>
        </extensions>
      </trkpt>
      <trkpt lat="52.27836535312235355377197265625" lon="1.63300856016576290130615234375">
        <ele>-366</ele>
        <time>2025-09-07T09:30:42.000Z</time>
        <extensions>
          <ns3:TrackPointExtension>
            <ns3:hr>74</ns3:hr>
            <ns3:cad>0</ns3:cad>
          </ns3:TrackPointExtension>
        </extensions>
      </trkpt>
      <trkpt lat="52.27836526930332183837890625" lon="1.6330067999660968780517578125">
        <ele>-364.399993896484375</ele>
        <time>2025-09-07T09:30:43.000Z</time>
        <extensions>
          <ns3:TrackPointExtension>
            <ns3:hr>75</ns3:hr>
            <ns3:cad>0</ns3:cad>
          </ns3:TrackPointExtension>
        </extensions>
      </trkpt>
      <trkpt lat="52.27836451493203639984130859375" lon="1.6330061294138431549072265625">
        <ele>-362.79998779296875</ele>
        <time>2025-09-07T09:30:45.000Z</time>
        <extensions>
          <ns3:TrackPointExtension>
            <ns3:hr>76</ns3:hr>
            <ns3:cad>0</ns3:cad>
          </ns3:TrackPointExtension>
        </extensions>
      </trkpt>
      <trkpt lat="52.278364934027194976806640625" lon="1.63300453685224056243896484375">
        <ele>-361.600006103515625</ele>
        <time>2025-09-07T09:30:48.000Z</time>
        <extensions>
          <ns3:TrackPointExtension>
            <ns3:hr>76</ns3:hr>
            <ns3:cad>0</ns3:cad>
          </ns3:TrackPointExtension>
        </extensions>
      </trkpt>
      <trkpt lat="52.27836501784622669219970703125" lon="1.633001267910003662109375">
        <ele>-361.399993896484375</ele>
        <time>2025-09-07T09:30:49.000Z</time>
        <extensions>
          <ns3:TrackPointExtension>
            <ns3:hr>72</ns3:hr>
            <ns3:cad>0</ns3:cad>
          </ns3:TrackPointExtension>
        </extensions>
      </trkpt>
      <trkpt lat="52.2783644311130046844482421875" lon="1.63298810832202434539794921875">
        <ele>-361.20001220703125</ele>
        <time>2025-09-07T09:30:52.000Z</time>
        <extensions>
          <ns3:TrackPointExtension>
            <ns3:hr>69</ns3:hr>
            <ns3:cad>0</ns3:cad>
          </ns3:TrackPointExtension>
        </extensions>
      </trkpt>
      <trkpt lat="52.27836451493203639984130859375" lon="1.6329923830926418304443359375">
        <ele>-360.79998779296875</ele>
        <time>2025-09-07T09:30:57.000Z</time>
        <extensions>
          <ns3:TrackPointExtension>
            <ns3:hr>66</ns3:hr>
            <ns3:cad>0</ns3:cad>
          </ns3:TrackPointExtension>
        </extensions>
      </trkpt>
      <trkpt lat="52.27836552076041698455810546875" lon="1.63299514912068843841552734375">
        <ele>-360.600006103515625</ele>
        <time>2025-09-07T09:30:58.000Z</time>
        <extensions>
          <ns3:TrackPointExtension>
            <ns3:hr>70</ns3:hr>
            <ns3:cad>0</ns3:cad>
          </ns3:TrackPointExtension>
        </extensions>
      </trkpt>
      <trkpt lat="52.27836552076041698455810546875" lon="1.6329970769584178924560546875">
        <ele>-360.399993896484375</ele>
        <time>2025-09-07T09:30:59.000Z</time>
        <extensions>
          <ns3:TrackPointExtension>
            <ns3:hr>68</ns3:hr>
            <ns3:cad>0</ns3:cad>
          </ns3:TrackPointExtension>
        </extensions>
      </trkpt>
      <trkpt lat="52.27836526930332183837890625" lon="1.632998250424861907958984375">
        <ele>-359.79998779296875</ele>
        <time>2025-09-07T09:31:01.000Z</time>
        <extensions>
          <ns3:TrackPointExtension>
            <ns3:hr>71</ns3:hr>
            <ns3:cad>0</ns3:cad>
          </ns3:TrackPointExtension>
        </extensions>
      </trkpt>
      <trkpt lat="52.27836518548429012298583984375" lon="1.63299799896776676177978515625">
        <ele>-359.600006103515625</ele>
        <time>2025-09-07T09:31:02.000Z</time>
        <extensions>
          <ns3:TrackPointExtension>
            <ns3:hr>74</ns3:hr>
            <ns3:cad>0</ns3:cad>
          </ns3:TrackPointExtension>
        </extensions>
      </trkpt>
      <trkpt lat="52.27836485020816326141357421875" lon="1.63299464620649814605712890625">
        <ele>-359.20001220703125</ele>
        <time>2025-09-07T09:31:04.000Z</time>
        <extensions>
          <ns3:TrackPointExtension>
            <ns3:hr>76</ns3:hr>
            <ns3:cad>0</ns3:cad>
          </ns3:TrackPointExtension>
        </extensions>
      </trkpt>
      <trkpt lat="52.27836518548429012298583984375" lon="1.6329927183687686920166015625">
        <ele>-358</ele>
        <time>2025-09-07T09:31:06.000Z</time>
        <extensions>
          <ns3:TrackPointExtension>
            <ns3:hr>77</ns3:hr>
            <ns3:cad>0</ns3:cad>
          </ns3:TrackPointExtension>
        </extensions>
      </trkpt>
      <trkpt lat="52.2783647663891315460205078125" lon="1.632992215454578399658203125">
        <ele>-357</ele>
        <time>2025-09-07T09:31:07.000Z</time>
        <extensions>
          <ns3:TrackPointExtension>
            <ns3:hr>77</ns3:hr>
            <ns3:cad>0</ns3:cad>
          </ns3:TrackPointExtension>
        </extensions>
      </trkpt>
      <trkpt lat="52.27836392819881439208984375" lon="1.6329937241971492767333984375">
        <ele>-355.79998779296875</ele>
        <time>2025-09-07T09:31:09.000Z</time>
        <extensions>
          <ns3:TrackPointExtension>
            <ns3:hr>75</ns3:hr>
            <ns3:cad>0</ns3:cad>
          </ns3:TrackPointExtension>
        </extensions>
      </trkpt>
      <trkpt lat="52.27836283855140209197998046875" lon="1.632993221282958984375">
        <ele>-354.600006103515625</ele>
        <time>2025-09-07T09:31:13.000Z</time>
        <extensions>
          <ns3:TrackPointExtension>
            <ns3:hr>74</ns3:hr>
            <ns3:cad>0</ns3:cad>
          </ns3:TrackPointExtension>
        </extensions>
      </trkpt>
      <trkpt lat="52.2783627547323703765869140625" lon="1.632993221282958984375">
        <ele>-354.20001220703125</ele>
        <time>2025-09-07T09:31:14.000Z</time>
        <extensions>
          <ns3:TrackPointExtension>
            <ns3:hr>74</ns3:hr>
            <ns3:cad>0</ns3:cad>
          </ns3:TrackPointExtension>
        </extensions>
      </trkpt>
      <trkpt lat="52.27836065925657749176025390625" lon="1.632993556559085845947265625">
        <ele>-353.600006103515625</ele>
        <time>2025-09-07T09:31:16.000Z</time>
        <extensions>
          <ns3:TrackPointExtension>
            <ns3:hr>74</ns3:hr>
            <ns3:cad>0</ns3:cad>
          </ns3:TrackPointExtension>
        </extensions>
      </trkpt>
      <trkpt lat="52.27835856378078460693359375" lon="1.6329943947494029998779296875">
        <ele>-352.20001220703125</ele>
        <time>2025-09-07T09:31:20.000Z</time>
        <extensions>
          <ns3:TrackPointExtension>
            <ns3:hr>72</ns3:hr>
            <ns3:cad>0</ns3:cad>
          </ns3:TrackPointExtension>
        </extensions>
      </trkpt>
      <trkpt lat="52.27836082689464092254638671875" lon="1.63299079053103923797607421875">
        <ele>-351.20001220703125</ele>
        <time>2025-09-07T09:31:28.000Z</time>
        <extensions>
          <ns3:TrackPointExtension>
            <ns3:hr>73</ns3:hr>
            <ns3:cad>0</ns3:cad>
          </ns3:TrackPointExtension>
        </extensions>
      </trkpt>
      <trkpt lat="52.2783605754375457763671875" lon="1.63298986852169036865234375">
        <ele>-351</ele>
        <time>2025-09-07T09:31:29.000Z</time>
        <extensions>
          <ns3:TrackPointExtension>
            <ns3:hr>69</ns3:hr>
            <ns3:cad>0</ns3:cad>
          </ns3:TrackPointExtension>
        </extensions>
      </trkpt>
      <trkpt lat="52.27835965342819690704345703125" lon="1.6329900361597537994384765625">
        <ele>-351</ele>
        <time>2025-09-07T09:31:32.000Z</time>
        <extensions>
          <ns3:TrackPointExtension>
            <ns3:hr>66</ns3:hr>
            <ns3:cad>0</ns3:cad>
          </ns3:TrackPointExtension>
        </extensions>
      </trkpt>
      <trkpt lat="52.278360240161418914794921875" lon="1.632994227111339569091796875">
        <ele>-349.79998779296875</ele>
        <time>2025-09-07T09:31:36.000Z</time>
        <extensions>
          <ns3:TrackPointExtension>
            <ns3:hr>69</ns3:hr>
            <ns3:cad>0</ns3:cad>
          </ns3:TrackPointExtension>
        </extensions>
      </trkpt>
      <trkpt lat="52.27836049161851406097412109375" lon="1.63299950771033763885498046875">
        <ele>-348.79998779296875</ele>
        <time>2025-09-07T09:31:39.000Z</time>
        <extensions>
          <ns3:TrackPointExtension>
            <ns3:hr>73</ns3:hr>
            <ns3:cad>0</ns3:cad>
          </ns3:TrackPointExtension>
        </extensions>
      </trkpt>
      <trkpt lat="52.2783594019711017608642578125" lon="1.6330007649958133697509765625">
        <ele>-348.399993896484375</ele>
        <time>2025-09-07T09:31:40.000Z</time>
        <extensions>
          <ns3:TrackPointExtension>
            <ns3:hr>74</ns3:hr>
            <ns3:cad>0</ns3:cad>
          </ns3:TrackPointExtension>
        </extensions>
      </trkpt>
      <trkpt lat="52.2783600725233554840087890625" lon="1.63300889544188976287841796875">
        <ele>-347.600006103515625</ele>
        <time>2025-09-07T09:31:49.000Z</time>
        <extensions>
          <ns3:TrackPointExtension>
            <ns3:hr>73</ns3:hr>
            <ns3:cad>0</ns3:cad>
          </ns3:TrackPointExtension>
        </extensions>
      </trkpt>
      <trkpt lat="52.27836216799914836883544921875" lon="1.63301090709865093231201171875">
        <ele>-347.399993896484375</ele>
        <time>2025-09-07T09:31:52.000Z</time>
        <extensions>
          <ns3:TrackPointExtension>
            <ns3:hr>72</ns3:hr>
            <ns3:cad>0</ns3:cad>
          </ns3:TrackPointExtension>
        </extensions>
      </trkpt>
      <trkpt lat="52.27837071754038333892822265625" lon="1.6329903714358806610107421875">
        <ele>-347</ele>
        <time>2025-09-07T09:31:55.000Z</time>
        <extensions>
          <ns3:TrackPointExtension>
            <ns3:hr>76</ns3:hr>
            <ns3:cad>0</ns3:cad>
          </ns3:TrackPointExtension>
        </extensions>
      </trkpt>
      <trkpt lat="52.27837960235774517059326171875" lon="1.63295139558613300323486328125">
        <ele>-346.79998779296875</ele>
        <time>2025-09-07T09:31:57.000Z</time>
        <extensions>
          <ns3:TrackPointExtension>
            <ns3:hr>82</ns3:hr>
            <ns3:cad>0</ns3:cad>
          </ns3:TrackPointExtension>
        </extensions>
      </trkpt>
      <trkpt lat="52.27838094346225261688232421875" lon="1.632930524647235870361328125">
        <ele>-346.399993896484375</ele>
        <time>2025-09-07T09:31:58.000Z</time>
        <extensions>
          <ns3:TrackPointExtension>
            <ns3:hr>83</ns3:hr>
            <ns3:cad>0</ns3:cad>
          </ns3:TrackPointExtension>
        </extensions>
      </trkpt>
      <trkpt lat="52.27839569561183452606201171875" lon="1.6329001821577548980712890625">
        <ele>-345.20001220703125</ele>
        <time>2025-09-07T09:32:00.000Z</time>
        <extensions>
          <ns3:TrackPointExtension>
            <ns3:hr>88</ns3:hr>
            <ns3:cad>0</ns3:cad>
          </ns3:TrackPointExtension>
        </extensions>
      </trkpt>
      <trkpt lat="52.27841011248528957366943359375" lon="1.63288392126560211181640625">
        <ele>-344.600006103515625</ele>
        <time>2025-09-07T09:32:01.000Z</time>
        <extensions>
          <ns3:TrackPointExtension>
            <ns3:hr>91</ns3:hr>
            <ns3:cad>0</ns3:cad>
          </ns3:TrackPointExtension>
        </extensions>
      </trkpt>
      <trkpt lat="52.27841882966458797454833984375" lon="1.63285835646092891693115234375">
        <ele>-344.20001220703125</ele>
        <time>2025-09-07T09:32:02.000Z</time>
        <extensions>
          <ns3:TrackPointExtension>
            <ns3:hr>90</ns3:hr>
            <ns3:cad>0</ns3:cad>
          </ns3:TrackPointExtension>
        </extensions>
      </trkpt>
      <trkpt lat="52.27842628955841064453125" lon="1.632830612361431121826171875">
        <ele>-343.600006103515625</ele>
        <time>2025-09-07T09:32:03.000Z</time>
        <extensions>
          <ns3:TrackPointExtension>
            <ns3:hr>93</ns3:hr>
            <ns3:cad>53</ns3:cad>
          </ns3:TrackPointExtension>
        </extensions>
      </trkpt>
      <trkpt lat="52.278436012566089630126953125" lon="1.63278174586594104766845703125">
        <ele>-343.20001220703125</ele>
        <time>2025-09-07T09:32:05.000Z</time>
        <extensions>
          <ns3:TrackPointExtension>
            <ns3:hr>95</ns3:hr>
            <ns3:cad>57</ns3:cad>
          </ns3:TrackPointExtension>
        </extensions>
      </trkpt>
      <trkpt lat="52.27845051325857639312744140625" lon="1.63269817829132080078125">
        <ele>-342.399993896484375</ele>
        <time>2025-09-07T09:32:10.000Z</time>
        <extensions>
          <ns3:TrackPointExtension>
            <ns3:hr>98</ns3:hr>
            <ns3:cad>0</ns3:cad>
          </ns3:TrackPointExtension>
        </extensions>
      </trkpt>
      <trkpt lat="52.2784345038235187530517578125" lon="1.63265786133706569671630859375">
        <ele>-342.399993896484375</ele>
        <time>2025-09-07T09:32:13.000Z</time>
        <extensions>
          <ns3:TrackPointExtension>
            <ns3:hr>98</ns3:hr>
            <ns3:cad>0</ns3:cad>
          </ns3:TrackPointExtension>
        </extensions>
      </trkpt>
      <trkpt lat="52.2783969528973102569580078125" lon="1.63258217275142669677734375">
        <ele>-342.20001220703125</ele>
        <time>2025-09-07T09:32:18.000Z</time>
        <extensions>
          <ns3:TrackPointExtension>
            <ns3:hr>99</ns3:hr>
            <ns3:cad>0</ns3:cad>
          </ns3:TrackPointExtension>
        </extensions>
      </trkpt>
      <trkpt lat="52.278357557952404022216796875" lon="1.632531546056270599365234375">
        <ele>-342.20001220703125</ele>
        <time>2025-09-07T09:32:22.000Z</time>
        <extensions>
          <ns3:TrackPointExtension>
            <ns3:hr>102</ns3:hr>
            <ns3:cad>0</ns3:cad>
          </ns3:TrackPointExtension>
        </extensions>
      </trkpt>
      <trkpt lat="52.27833501063287258148193359375" lon="1.632491648197174072265625">
        <ele>-342</ele>
        <time>2025-09-07T09:32:25.000Z</time>
        <extensions>
          <ns3:TrackPointExtension>
            <ns3:hr>103</ns3:hr>
            <ns3:cad>57</ns3:cad>
          </ns3:TrackPointExtension>
        </extensions>
      </trkpt>
      <trkpt lat="52.27832511998713016510009765625" lon="1.6324867866933345794677734375">
        <ele>-342</ele>
        <time>2025-09-07T09:32:26.000Z</time>
        <extensions>
          <ns3:TrackPointExtension>
            <ns3:hr>103</ns3:hr>
            <ns3:cad>57</ns3:cad>
          </ns3:TrackPointExtension>
        </extensions>
      </trkpt>
      <trkpt lat="52.2782611660659313201904296875" lon="1.63245401345193386077880859375">
        <ele>-341.399993896484375</ele>
        <time>2025-09-07T09:32:33.000Z</time>
        <extensions>
          <ns3:TrackPointExtension>
            <ns3:hr>104</ns3:hr>
            <ns3:cad>0</ns3:cad>
          </ns3:TrackPointExtension>
        </extensions>
      </trkpt>
      <trkpt lat="52.2781810350716114044189453125" lon="1.6324500739574432373046875">
        <ele>-341.79998779296875</ele>
        <time>2025-09-07T09:32:40.000Z</time>
        <extensions>
          <ns3:TrackPointExtension>
            <ns3:hr>105</ns3:hr>
            <ns3:cad>58</ns3:cad>
          </ns3:TrackPointExtension>
        </extensions>
      </trkpt>
      <trkpt lat="52.278092019259929656982421875" lon="1.63238477893173694610595703125">
        <ele>-343.20001220703125</ele>
        <time>2025-09-07T09:32:47.000Z</time>
        <extensions>
          <ns3:TrackPointExtension>
            <ns3:hr>104</ns3:hr>
            <ns3:cad>60</ns3:cad>
          </ns3:TrackPointExtension>
        </extensions>
      </trkpt>
      <trkpt lat="52.278080619871616363525390625" lon="1.632373631000518798828125">
        <ele>-343.399993896484375</ele>
        <time>2025-09-07T09:32:48.000Z</time>
        <extensions>
          <ns3:TrackPointExtension>
            <ns3:hr>105</ns3:hr>
            <ns3:cad>0</ns3:cad>
          </ns3:TrackPointExtension>
        </extensions>
      </trkpt>
      <trkpt lat="52.27798850275576114654541015625" lon="1.63229660131037235260009765625">
        <ele>-343.79998779296875</ele>
        <time>2025-09-07T09:32:56.000Z</time>
        <extensions>
          <ns3:TrackPointExtension>
            <ns3:hr>105</ns3:hr>
            <ns3:cad>61</ns3:cad>
          </ns3:TrackPointExtension>
        </extensions>
      </trkpt>
      <trkpt lat="52.277972996234893798828125" lon="1.63229090161621570587158203125">
        <ele>-343.600006103515625</ele>
        <time>2025-09-07T09:32:57.000Z</time>
        <extensions>
          <ns3:TrackPointExtension>
            <ns3:hr>102</ns3:hr>
            <ns3:cad>60</ns3:cad>
          </ns3:TrackPointExtension>
        </extensions>
      </trkpt>
      <trkpt lat="52.27795849554240703582763671875" lon="1.6322846151888370513916015625">
        <ele>-343.600006103515625</ele>
        <time>2025-09-07T09:32:58.000Z</time>
        <extensions>
          <ns3:TrackPointExtension>
            <ns3:hr>105</ns3:hr>
            <ns3:cad>60</ns3:cad>
          </ns3:TrackPointExtension>
        </extensions>
      </trkpt>
      <trkpt lat="52.27790971286594867706298828125" lon="1.63225938566029071807861328125">
        <ele>-343.600006103515625</ele>
        <time>2025-09-07T09:33:01.000Z</time>
        <extensions>
          <ns3:TrackPointExtension>
            <ns3:hr>102</ns3:hr>
            <ns3:cad>60</ns3:cad>
          </ns3:TrackPointExtension>
        </extensions>
      </trkpt>
      <trkpt lat="52.2778638638556003570556640625" lon="1.63224346004426479339599609375">
        <ele>-343.20001220703125</ele>
        <time>2025-09-07T09:33:04.000Z</time>
        <extensions>
          <ns3:TrackPointExtension>
            <ns3:hr>101</ns3:hr>
            <ns3:cad>60</ns3:cad>
          </ns3:TrackPointExtension>
        </extensions>
      </trkpt>
      <trkpt lat="52.27777493186295032501220703125" lon="1.632234156131744384765625">
        <ele>-342.79998779296875</ele>
        <time>2025-09-07T09:33:09.000Z</time>
        <extensions>
          <ns3:TrackPointExtension>
            <ns3:hr>98</ns3:hr>
            <ns3:cad>0</ns3:cad>
          </ns3:TrackPointExtension>
        </extensions>
      </trkpt>
      <trkpt lat="52.27775934152305126190185546875" lon="1.63222619332373142242431640625">
        <ele>-342.600006103515625</ele>
        <time>2025-09-07T09:33:10.000Z</time>
        <extensions>
          <ns3:TrackPointExtension>
            <ns3:hr>101</ns3:hr>
            <ns3:cad>0</ns3:cad>
          </ns3:TrackPointExtension>
        </extensions>
      </trkpt>
      <trkpt lat="52.2777227126061916351318359375" lon="1.63221538066864013671875">
        <ele>-342.600006103515625</ele>
        <time>2025-09-07T09:33:12.000Z</time>
        <extensions>
          <ns3:TrackPointExtension>
            <ns3:hr>99</ns3:hr>
            <ns3:cad>0</ns3:cad>
          </ns3:TrackPointExtension>
        </extensions>
      </trkpt>
      <trkpt lat="52.277647443115711212158203125" lon="1.63218260742723941802978515625">
        <ele>-342.600006103515625</ele>
        <time>2025-09-07T09:33:17.000Z</time>
        <extensions>
          <ns3:TrackPointExtension>
            <ns3:hr>103</ns3:hr>
            <ns3:cad>58</ns3:cad>
          </ns3:TrackPointExtension>
        </extensions>
      </trkpt>
      <trkpt lat="52.27757401764392852783203125" lon="1.632162742316722869873046875">
        <ele>-342.20001220703125</ele>
        <time>2025-09-07T09:33:21.000Z</time>
        <extensions>
          <ns3:TrackPointExtension>
            <ns3:hr>102</ns3:hr>
            <ns3:cad>58</ns3:cad>
          </ns3:TrackPointExtension>
        </extensions>
      </trkpt>
      <trkpt lat="52.2774833254516124725341796875" lon="1.6321228444576263427734375">
        <ele>-342.20001220703125</ele>
        <time>2025-09-07T09:33:27.000Z</time>
        <extensions>
          <ns3:TrackPointExtension>
            <ns3:hr>103</ns3:hr>
            <ns3:cad>60</ns3:cad>
          </ns3:TrackPointExtension>
        </extensions>
      </trkpt>
      <trkpt lat="52.2774672321975231170654296875" lon="1.632111109793186187744140625">
        <ele>-342</ele>
        <time>2025-09-07T09:33:28.000Z</time>
        <extensions>
          <ns3:TrackPointExtension>
            <ns3:hr>103</ns3:hr>
            <ns3:cad>60</ns3:cad>
          </ns3:TrackPointExtension>
        </extensions>
      </trkpt>
      <trkpt lat="52.2774544917047023773193359375" lon="1.6320961900055408477783203125">
        <ele>-342</ele>
        <time>2025-09-07T09:33:29.000Z</time>
        <extensions>
          <ns3:TrackPointExtension>
            <ns3:hr>106</ns3:hr>
            <ns3:cad>60</ns3:cad>
          </ns3:TrackPointExtension>
        </extensions>
      </trkpt>
      <trkpt lat="52.27744393050670623779296875" lon="1.63207766599953174591064453125">
        <ele>-341.79998779296875</ele>
        <time>2025-09-07T09:33:30.000Z</time>
        <extensions>
          <ns3:TrackPointExtension>
            <ns3:hr>102</ns3:hr>
            <ns3:cad>60</ns3:cad>
          </ns3:TrackPointExtension>
        </extensions>
      </trkpt>
      <trkpt lat="52.2774378955364227294921875" lon="1.63205243647098541259765625">
        <ele>-341.79998779296875</ele>
        <time>2025-09-07T09:33:31.000Z</time>
        <extensions>
          <ns3:TrackPointExtension>
            <ns3:hr>103</ns3:hr>
            <ns3:cad>60</ns3:cad>
          </ns3:TrackPointExtension>
        </extensions>
      </trkpt>
      <trkpt lat="52.2774360515177249908447265625" lon="1.6320257820188999176025390625">
        <ele>-341.79998779296875</ele>
        <time>2025-09-07T09:33:32.000Z</time>
        <extensions>
          <ns3:TrackPointExtension>
            <ns3:hr>103</ns3:hr>
            <ns3:cad>60</ns3:cad>
          </ns3:TrackPointExtension>
        </extensions>
      </trkpt>
      <trkpt lat="52.27741040289402008056640625" lon="1.63188069127500057220458984375">
        <ele>-341.399993896484375</ele>
        <time>2025-09-07T09:33:38.000Z</time>
        <extensions>
          <ns3:TrackPointExtension>
            <ns3:hr>103</ns3:hr>
            <ns3:cad>60</ns3:cad>
          </ns3:TrackPointExtension>
        </extensions>
      </trkpt>
      <trkpt lat="52.27738886140286922454833984375" lon="1.63179838098585605621337890625">
        <ele>-341.399993896484375</ele>
        <time>2025-09-07T09:33:41.000Z</time>
        <extensions>
          <ns3:TrackPointExtension>
            <ns3:hr>100</ns3:hr>
            <ns3:cad>60</ns3:cad>
          </ns3:TrackPointExtension>
        </extensions>
      </trkpt>
      <trkpt lat="52.27738902904093265533447265625" lon="1.6317216865718364715576171875">
        <ele>-341.600006103515625</ele>
        <time>2025-09-07T09:33:44.000Z</time>
        <extensions>
          <ns3:TrackPointExtension>
            <ns3:hr>100</ns3:hr>
            <ns3:cad>58</ns3:cad>
          </ns3:TrackPointExtension>
        </extensions>
      </trkpt>
      <trkpt lat="52.27740294300019741058349609375" lon="1.63156536407768726348876953125">
        <ele>-343.20001220703125</ele>
        <time>2025-09-07T09:33:50.000Z</time>
        <extensions>
          <ns3:TrackPointExtension>
            <ns3:hr>101</ns3:hr>
            <ns3:cad>60</ns3:cad>
          </ns3:TrackPointExtension>
        </extensions>
      </trkpt>
      <trkpt lat="52.277406714856624603271484375" lon="1.631541810929775238037109375">
        <ele>-343.79998779296875</ele>
        <time>2025-09-07T09:33:51.000Z</time>
        <extensions>
          <ns3:TrackPointExtension>
            <ns3:hr>101</ns3:hr>
            <ns3:cad>60</ns3:cad>
          </ns3:TrackPointExtension>
        </extensions>
      </trkpt>
      <trkpt lat="52.27741082198917865753173828125" lon="1.63151800632476806640625">
        <ele>-344.20001220703125</ele>
        <time>2025-09-07T09:33:52.000Z</time>
        <extensions>
          <ns3:TrackPointExtension>
            <ns3:hr>101</ns3:hr>
            <ns3:cad>60</ns3:cad>
          </ns3:TrackPointExtension>
        </extensions>
      </trkpt>
      <trkpt lat="52.27741870097815990447998046875" lon="1.63146461360156536102294921875">
        <ele>-345.399993896484375</ele>
        <time>2025-09-07T09:33:55.000Z</time>
        <extensions>
          <ns3:TrackPointExtension>
            <ns3:hr>98</ns3:hr>
            <ns3:cad>60</ns3:cad>
          </ns3:TrackPointExtension>
        </extensions>
      </trkpt>
      <trkpt lat="52.27743563242256641387939453125" lon="1.63140057586133480072021484375">
        <ele>-345.600006103515625</ele>
        <time>2025-09-07T09:33:58.000Z</time>
        <extensions>
          <ns3:TrackPointExtension>
            <ns3:hr>100</ns3:hr>
            <ns3:cad>60</ns3:cad>
          </ns3:TrackPointExtension>
        </extensions>
      </trkpt>
      <trkpt lat="52.27748609147965908050537109375" lon="1.63126814179122447967529296875">
        <ele>-346</ele>
        <time>2025-09-07T09:34:04.000Z</time>
        <extensions>
          <ns3:TrackPointExtension>
            <ns3:hr>102</ns3:hr>
            <ns3:cad>60</ns3:cad>
          </ns3:TrackPointExtension>
        </extensions>
      </trkpt>
      <trkpt lat="52.27749967016279697418212890625" lon="1.63121801801025867462158203125">
        <ele>-346.399993896484375</ele>
        <time>2025-09-07T09:34:06.000Z</time>
        <extensions>
          <ns3:TrackPointExtension>
            <ns3:hr>101</ns3:hr>
            <ns3:cad>62</ns3:cad>
          </ns3:TrackPointExtension>
        </extensions>
      </trkpt>
      <trkpt lat="52.27752950973808765411376953125" lon="1.63105390034615993499755859375">
        <ele>-346.79998779296875</ele>
        <time>2025-09-07T09:34:12.000Z</time>
        <extensions>
          <ns3:TrackPointExtension>
            <ns3:hr>101</ns3:hr>
            <ns3:cad>60</ns3:cad>
          </ns3:TrackPointExtension>
        </extensions>
      </trkpt>
      <trkpt lat="52.27753655053675174713134765625" lon="1.63102523423731327056884765625">
        <ele>-346.79998779296875</ele>
        <time>2025-09-07T09:34:13.000Z</time>
        <extensions>
          <ns3:TrackPointExtension>
            <ns3:hr>100</ns3:hr>
            <ns3:cad>60</ns3:cad>
          </ns3:TrackPointExtension>
        </extensions>
      </trkpt>
      <trkpt lat="52.27756337262690067291259765625" lon="1.6309274174273014068603515625">
        <ele>-346.79998779296875</ele>
        <time>2025-09-07T09:34:17.000Z</time>
        <extensions>
          <ns3:TrackPointExtension>
            <ns3:hr>102</ns3:hr>
            <ns3:cad>61</ns3:cad>
          </ns3:TrackPointExtension>
        </extensions>
      </trkpt>
      <trkpt lat="52.27757292799651622772216796875" lon="1.630854494869709014892578125">
        <ele>-207.600006103515625</ele>
        <time>2025-09-07T09:34:20.000Z</time>
        <extensions>
          <ns3:TrackPointExtension>
            <ns3:hr>103</ns3:hr>
            <ns3:cad>62</ns3:cad>
          </ns3:TrackPointExtension>
        </extensions>
      </trkpt>
      <trkpt lat="52.27757829241454601287841796875" lon="1.63082842715084552764892578125">
        <ele>-137.1999969482421875</ele>
        <time>2025-09-07T09:34:21.000Z</time>
        <extensions>
          <ns3:TrackPointExtension>
            <ns3:hr>102</ns3:hr>
            <ns3:cad>62</ns3:cad>
          </ns3:TrackPointExtension>
        </extensions>
      </trkpt>
      <trkpt lat="52.2775862552225589752197265625" lon="1.630772687494754791259765625">
        <ele>-135.8000030517578125</ele>
        <time>2025-09-07T09:34:23.000Z</time>
        <extensions>
          <ns3:TrackPointExtension>
            <ns3:hr>100</ns3:hr>
            <ns3:cad>62</ns3:cad>
          </ns3:TrackPointExtension>
        </extensions>
      </trkpt>
      <trkpt lat="52.2775899432599544525146484375" lon="1.6307388246059417724609375">
        <ele>-135</ele>
        <time>2025-09-07T09:34:24.000Z</time>
        <extensions>
          <ns3:TrackPointExtension>
            <ns3:hr>101</ns3:hr>
            <ns3:cad>62</ns3:cad>
          </ns3:TrackPointExtension>
        </extensions>
      </trkpt>
      <trkpt lat="52.27759120054543018341064453125" lon="1.6307079792022705078125">
        <ele>-134.399993896484375</ele>
        <time>2025-09-07T09:34:25.000Z</time>
        <extensions>
          <ns3:TrackPointExtension>
            <ns3:hr>100</ns3:hr>
            <ns3:cad>0</ns3:cad>
          </ns3:TrackPointExtension>
        </extensions>
      </trkpt>
      <trkpt lat="52.2775943018496036529541015625" lon="1.63065508939325809478759765625">
        <ele>-133</ele>
        <time>2025-09-07T09:34:27.000Z</time>
        <extensions>
          <ns3:TrackPointExtension>
            <ns3:hr>100</ns3:hr>
            <ns3:cad>0</ns3:cad>
          </ns3:TrackPointExtension>
        </extensions>
      </trkpt>
      <trkpt lat="52.27759891189634799957275390625" lon="1.63059624843299388885498046875">
        <ele>-131.600006103515625</ele>
        <time>2025-09-07T09:34:29.000Z</time>
        <extensions>
          <ns3:TrackPointExtension>
            <ns3:hr>101</ns3:hr>
            <ns3:cad>60</ns3:cad>
          </ns3:TrackPointExtension>
        </extensions>
      </trkpt>
      <trkpt lat="52.2776095569133758544921875" lon="1.63054796867072582244873046875">
        <ele>-130.399993896484375</ele>
        <time>2025-09-07T09:34:31.000Z</time>
        <extensions>
          <ns3:TrackPointExtension>
            <ns3:hr>102</ns3:hr>
            <ns3:cad>0</ns3:cad>
          </ns3:TrackPointExtension>
        </extensions>
      </trkpt>
      <trkpt lat="52.27761693298816680908203125" lon="1.63050019182264804840087890625">
        <ele>-129</ele>
        <time>2025-09-07T09:34:33.000Z</time>
        <extensions>
          <ns3:TrackPointExtension>
            <ns3:hr>99</ns3:hr>
            <ns3:cad>59</ns3:cad>
          </ns3:TrackPointExtension>
        </extensions>
      </trkpt>
      <trkpt lat="52.2776229679584503173828125" lon="1.6304553486406803131103515625">
        <ele>-127.8000030517578125</ele>
        <time>2025-09-07T09:34:35.000Z</time>
        <extensions>
          <ns3:TrackPointExtension>
            <ns3:hr>100</ns3:hr>
            <ns3:cad>59</ns3:cad>
          </ns3:TrackPointExtension>
        </extensions>
      </trkpt>
      <trkpt lat="52.27763176895678043365478515625" lon="1.6304124332964420318603515625">
        <ele>-126.59999847412109375</ele>
        <time>2025-09-07T09:34:37.000Z</time>
        <extensions>
          <ns3:TrackPointExtension>
            <ns3:hr>99</ns3:hr>
            <ns3:cad>0</ns3:cad>
          </ns3:TrackPointExtension>
        </extensions>
      </trkpt>
      <trkpt lat="52.27763302624225616455078125" lon="1.63036859594285488128662109375">
        <ele>-125.1999969482421875</ele>
        <time>2025-09-07T09:34:39.000Z</time>
        <extensions>
          <ns3:TrackPointExtension>
            <ns3:hr>100</ns3:hr>
            <ns3:cad>0</ns3:cad>
          </ns3:TrackPointExtension>
        </extensions>
      </trkpt>
      <trkpt lat="52.27764132432639598846435546875" lon="1.63032031618058681488037109375">
        <ele>-124</ele>
        <time>2025-09-07T09:34:41.000Z</time>
        <extensions>
          <ns3:TrackPointExtension>
            <ns3:hr>102</ns3:hr>
            <ns3:cad>0</ns3:cad>
          </ns3:TrackPointExtension>
        </extensions>
      </trkpt>
      <trkpt lat="52.27765087969601154327392578125" lon="1.63027186878025531768798828125">
        <ele>-122.8000030517578125</ele>
        <time>2025-09-07T09:34:43.000Z</time>
        <extensions>
          <ns3:TrackPointExtension>
            <ns3:hr>101</ns3:hr>
            <ns3:cad>60</ns3:cad>
          </ns3:TrackPointExtension>
        </extensions>
      </trkpt>
      <trkpt lat="52.27766127325594425201416015625" lon="1.6302310489118099212646484375">
        <ele>-121.59999847412109375</ele>
        <time>2025-09-07T09:34:45.000Z</time>
        <extensions>
          <ns3:TrackPointExtension>
            <ns3:hr>102</ns3:hr>
            <ns3:cad>60</ns3:cad>
          </ns3:TrackPointExtension>
        </extensions>
      </trkpt>
      <trkpt lat="52.2776633687317371368408203125" lon="1.63021068088710308074951171875">
        <ele>-121</ele>
        <time>2025-09-07T09:34:46.000Z</time>
        <extensions>
          <ns3:TrackPointExtension>
            <ns3:hr>101</ns3:hr>
            <ns3:cad>62</ns3:cad>
          </ns3:TrackPointExtension>
        </extensions>
      </trkpt>
      <trkpt lat="52.2776640392839908599853515625" lon="1.6301908157765865325927734375">
        <ele>-120.40000152587890625</ele>
        <time>2025-09-07T09:34:47.000Z</time>
        <extensions>
          <ns3:TrackPointExtension>
            <ns3:hr>100</ns3:hr>
            <ns3:cad>62</ns3:cad>
          </ns3:TrackPointExtension>
        </extensions>
      </trkpt>
      <trkpt lat="52.2776667214930057525634765625" lon="1.63015251047909259796142578125">
        <ele>-119</ele>
        <time>2025-09-07T09:34:49.000Z</time>
        <extensions>
          <ns3:TrackPointExtension>
            <ns3:hr>100</ns3:hr>
            <ns3:cad>60</ns3:cad>
          </ns3:TrackPointExtension>
        </extensions>
      </trkpt>
      <trkpt lat="52.27767501957714557647705078125" lon="1.63010993041098117828369140625">
        <ele>-117.8000030517578125</ele>
        <time>2025-09-07T09:34:51.000Z</time>
        <extensions>
          <ns3:TrackPointExtension>
            <ns3:hr>100</ns3:hr>
            <ns3:cad>61</ns3:cad>
          </ns3:TrackPointExtension>
        </extensions>
      </trkpt>
      <trkpt lat="52.277681641280651092529296875" lon="1.63005863316357135772705078125">
        <ele>-116.40000152587890625</ele>
        <time>2025-09-07T09:34:53.000Z</time>
        <extensions>
          <ns3:TrackPointExtension>
            <ns3:hr>100</ns3:hr>
            <ns3:cad>61</ns3:cad>
          </ns3:TrackPointExtension>
        </extensions>
      </trkpt>
      <trkpt lat="52.27768356911838054656982421875" lon="1.63003549911081790924072265625">
        <ele>-115.8000030517578125</ele>
        <time>2025-09-07T09:34:54.000Z</time>
        <extensions>
          <ns3:TrackPointExtension>
            <ns3:hr>103</ns3:hr>
            <ns3:cad>62</ns3:cad>
          </ns3:TrackPointExtension>
        </extensions>
      </trkpt>
      <trkpt lat="52.27768440730869770050048828125" lon="1.63001018576323986053466796875">
        <ele>-115</ele>
        <time>2025-09-07T09:34:55.000Z</time>
        <extensions>
          <ns3:TrackPointExtension>
            <ns3:hr>103</ns3:hr>
            <ns3:cad>62</ns3:cad>
          </ns3:TrackPointExtension>
        </extensions>
      </trkpt>
      <trkpt lat="52.27768876589834690093994140625" lon="1.629961989820003509521484375">
        <ele>-113.59999847412109375</ele>
        <time>2025-09-07T09:34:57.000Z</time>
        <extensions>
          <ns3:TrackPointExtension>
            <ns3:hr>104</ns3:hr>
            <ns3:cad>60</ns3:cad>
          </ns3:TrackPointExtension>
        </extensions>
      </trkpt>
      <trkpt lat="52.2776881791651248931884765625" lon="1.6299127042293548583984375">
        <ele>-112.1999969482421875</ele>
        <time>2025-09-07T09:34:59.000Z</time>
        <extensions>
          <ns3:TrackPointExtension>
            <ns3:hr>104</ns3:hr>
            <ns3:cad>61</ns3:cad>
          </ns3:TrackPointExtension>
        </extensions>
      </trkpt>
      <trkpt lat="52.2776927053928375244140625" lon="1.62985746748745441436767578125">
        <ele>-110.8000030517578125</ele>
        <time>2025-09-07T09:35:01.000Z</time>
        <extensions>
          <ns3:TrackPointExtension>
            <ns3:hr>105</ns3:hr>
            <ns3:cad>62</ns3:cad>
          </ns3:TrackPointExtension>
        </extensions>
      </trkpt>
      <trkpt lat="52.2776962257921695709228515625" lon="1.6298025660216808319091796875">
        <ele>-109.40000152587890625</ele>
        <time>2025-09-07T09:35:03.000Z</time>
        <extensions>
          <ns3:TrackPointExtension>
            <ns3:hr>105</ns3:hr>
            <ns3:cad>61</ns3:cad>
          </ns3:TrackPointExtension>
        </extensions>
      </trkpt>
      <trkpt lat="52.2777052782475948333740234375" lon="1.62974665872752666473388671875">
        <ele>-108</ele>
        <time>2025-09-07T09:35:05.000Z</time>
        <extensions>
          <ns3:TrackPointExtension>
            <ns3:hr>104</ns3:hr>
            <ns3:cad>62</ns3:cad>
          </ns3:TrackPointExtension>
        </extensions>
      </trkpt>
      <trkpt lat="52.2777222096920013427734375" lon="1.6296900808811187744140625">
        <ele>-106.59999847412109375</ele>
        <time>2025-09-07T09:35:07.000Z</time>
        <extensions>
          <ns3:TrackPointExtension>
            <ns3:hr>104</ns3:hr>
            <ns3:cad>61</ns3:cad>
          </ns3:TrackPointExtension>
        </extensions>
      </trkpt>
      <trkpt lat="52.27772514335811138153076171875" lon="1.62964004091918468475341796875">
        <ele>-105.40000152587890625</ele>
        <time>2025-09-07T09:35:09.000Z</time>
        <extensions>
          <ns3:TrackPointExtension>
            <ns3:hr>105</ns3:hr>
            <ns3:cad>61</ns3:cad>
          </ns3:TrackPointExtension>
        </extensions>
      </trkpt>
      <trkpt lat="52.277741990983486175537109375" lon="1.62958346307277679443359375">
        <ele>-104</ele>
        <time>2025-09-07T09:35:11.000Z</time>
        <extensions>
          <ns3:TrackPointExtension>
            <ns3:hr>102</ns3:hr>
            <ns3:cad>61</ns3:cad>
          </ns3:TrackPointExtension>
        </extensions>
      </trkpt>
      <trkpt lat="52.2777488641440868377685546875" lon="1.629530154168605804443359375">
        <ele>-102.59999847412109375</ele>
        <time>2025-09-07T09:35:13.000Z</time>
        <extensions>
          <ns3:TrackPointExtension>
            <ns3:hr>101</ns3:hr>
            <ns3:cad>61</ns3:cad>
          </ns3:TrackPointExtension>
        </extensions>
      </trkpt>
      <trkpt lat="52.2777552343904972076416015625" lon="1.62947617471218109130859375">
        <ele>-101.1999969482421875</ele>
        <time>2025-09-07T09:35:15.000Z</time>
        <extensions>
          <ns3:TrackPointExtension>
            <ns3:hr>100</ns3:hr>
            <ns3:cad>62</ns3:cad>
          </ns3:TrackPointExtension>
        </extensions>
      </trkpt>
      <trkpt lat="52.27776847779750823974609375" lon="1.629417836666107177734375">
        <ele>-99.8000030517578125</ele>
        <time>2025-09-07T09:35:17.000Z</time>
        <extensions>
          <ns3:TrackPointExtension>
            <ns3:hr>101</ns3:hr>
            <ns3:cad>61</ns3:cad>
          </ns3:TrackPointExtension>
        </extensions>
      </trkpt>
      <trkpt lat="52.277784235775470733642578125" lon="1.6293707303702831268310546875">
        <ele>-98.40000152587890625</ele>
        <time>2025-09-07T09:35:19.000Z</time>
        <extensions>
          <ns3:TrackPointExtension>
            <ns3:hr>102</ns3:hr>
            <ns3:cad>61</ns3:cad>
          </ns3:TrackPointExtension>
        </extensions>
      </trkpt>
      <trkpt lat="52.27780762128531932830810546875" lon="1.62932186387479305267333984375">
        <ele>-97</ele>
        <time>2025-09-07T09:35:21.000Z</time>
        <extensions>
          <ns3:TrackPointExtension>
            <ns3:hr>101</ns3:hr>
            <ns3:cad>61</ns3:cad>
          </ns3:TrackPointExtension>
        </extensions>
      </trkpt>
      <trkpt lat="52.27781407535076141357421875" lon="1.629298813641071319580078125">
        <ele>-96.40000152587890625</ele>
        <time>2025-09-07T09:35:22.000Z</time>
        <extensions>
          <ns3:TrackPointExtension>
            <ns3:hr>102</ns3:hr>
            <ns3:cad>62</ns3:cad>
          </ns3:TrackPointExtension>
        </extensions>
      </trkpt>
      <trkpt lat="52.27781969122588634490966796875" lon="1.62927324883639812469482421875">
        <ele>-95.59999847412109375</ele>
        <time>2025-09-07T09:35:23.000Z</time>
        <extensions>
          <ns3:TrackPointExtension>
            <ns3:hr>100</ns3:hr>
            <ns3:cad>62</ns3:cad>
          </ns3:TrackPointExtension>
        </extensions>
      </trkpt>
      <trkpt lat="52.2778266482055187225341796875" lon="1.629226393997669219970703125">
        <ele>-94.40000152587890625</ele>
        <time>2025-09-07T09:35:25.000Z</time>
        <extensions>
          <ns3:TrackPointExtension>
            <ns3:hr>102</ns3:hr>
            <ns3:cad>62</ns3:cad>
          </ns3:TrackPointExtension>
        </extensions>
      </trkpt>
      <trkpt lat="52.27783016860485076904296875" lon="1.629180125892162322998046875">
        <ele>-93</ele>
        <time>2025-09-07T09:35:27.000Z</time>
        <extensions>
          <ns3:TrackPointExtension>
            <ns3:hr>103</ns3:hr>
            <ns3:cad>63</ns3:cad>
          </ns3:TrackPointExtension>
        </extensions>
      </trkpt>
      <trkpt lat="52.27783729322254657745361328125" lon="1.62913109175860881805419921875">
        <ele>-91.59999847412109375</ele>
        <time>2025-09-07T09:35:29.000Z</time>
        <extensions>
          <ns3:TrackPointExtension>
            <ns3:hr>102</ns3:hr>
            <ns3:cad>63</ns3:cad>
          </ns3:TrackPointExtension>
        </extensions>
      </trkpt>
      <trkpt lat="52.277860343456268310546875" lon="1.6290689818561077117919921875">
        <ele>-90.1999969482421875</ele>
        <time>2025-09-07T09:35:31.000Z</time>
        <extensions>
          <ns3:TrackPointExtension>
            <ns3:hr>102</ns3:hr>
            <ns3:cad>78</ns3:cad>
          </ns3:TrackPointExtension>
        </extensions>
      </trkpt>
      <trkpt lat="52.2778682224452495574951171875" lon="1.6290086321532726287841796875">
        <ele>-88.8000030517578125</ele>
        <time>2025-09-07T09:35:33.000Z</time>
        <extensions>
          <ns3:TrackPointExtension>
            <ns3:hr>105</ns3:hr>
            <ns3:cad>78</ns3:cad>
          </ns3:TrackPointExtension>
        </extensions>
      </trkpt>
      <trkpt lat="52.2778695635497570037841796875" lon="1.62898004986345767974853515625">
        <ele>-88.1999969482421875</ele>
        <time>2025-09-07T09:35:34.000Z</time>
        <extensions>
          <ns3:TrackPointExtension>
            <ns3:hr>102</ns3:hr>
            <ns3:cad>78</ns3:cad>
          </ns3:TrackPointExtension>
        </extensions>
      </trkpt>
      <trkpt lat="52.27786746807396411895751953125" lon="1.62895088084042072296142578125">
        <ele>-87.40000152587890625</ele>
        <time>2025-09-07T09:35:35.000Z</time>
        <extensions>
          <ns3:TrackPointExtension>
            <ns3:hr>100</ns3:hr>
            <ns3:cad>79</ns3:cad>
          </ns3:TrackPointExtension>
        </extensions>
      </trkpt>
      <trkpt lat="52.27786839008331298828125" lon="1.62888818420469760894775390625">
        <ele>-86</ele>
        <time>2025-09-07T09:35:37.000Z</time>
        <extensions>
          <ns3:TrackPointExtension>
            <ns3:hr>102</ns3:hr>
            <ns3:cad>81</ns3:cad>
          </ns3:TrackPointExtension>
        </extensions>
      </trkpt>
      <trkpt lat="52.277873419225215911865234375" lon="1.628855578601360321044921875">
        <ele>-85.40000152587890625</ele>
        <time>2025-09-07T09:35:38.000Z</time>
        <extensions>
          <ns3:TrackPointExtension>
            <ns3:hr>103</ns3:hr>
            <ns3:cad>81</ns3:cad>
          </ns3:TrackPointExtension>
        </extensions>
      </trkpt>
      <trkpt lat="52.2778779454529285430908203125" lon="1.62882096134126186370849609375">
        <ele>-84.8000030517578125</ele>
        <time>2025-09-07T09:35:39.000Z</time>
        <extensions>
          <ns3:TrackPointExtension>
            <ns3:hr>108</ns3:hr>
            <ns3:cad>81</ns3:cad>
          </ns3:TrackPointExtension>
        </extensions>
      </trkpt>
      <trkpt lat="52.27788339368999004364013671875" lon="1.628789864480495452880859375">
        <ele>-84</ele>
        <time>2025-09-07T09:35:40.000Z</time>
        <extensions>
          <ns3:TrackPointExtension>
            <ns3:hr>112</ns3:hr>
            <ns3:cad>81</ns3:cad>
          </ns3:TrackPointExtension>
        </extensions>
      </trkpt>
      <trkpt lat="52.277890183031558990478515625" lon="1.6287565045058727264404296875">
        <ele>-83.40000152587890625</ele>
        <time>2025-09-07T09:35:41.000Z</time>
        <extensions>
          <ns3:TrackPointExtension>
            <ns3:hr>114</ns3:hr>
            <ns3:cad>81</ns3:cad>
          </ns3:TrackPointExtension>
        </extensions>
      </trkpt>
      <trkpt lat="52.27790082804858684539794921875" lon="1.62869204767048358917236328125">
        <ele>-82</ele>
        <time>2025-09-07T09:35:43.000Z</time>
        <extensions>
          <ns3:TrackPointExtension>
            <ns3:hr>118</ns3:hr>
            <ns3:cad>80</ns3:cad>
          </ns3:TrackPointExtension>
        </extensions>
      </trkpt>
      <trkpt lat="52.27790485136210918426513671875" lon="1.6286582686007022857666015625">
        <ele>-81.1999969482421875</ele>
        <time>2025-09-07T09:35:44.000Z</time>
        <extensions>
          <ns3:TrackPointExtension>
            <ns3:hr>121</ns3:hr>
            <ns3:cad>80</ns3:cad>
          </ns3:TrackPointExtension>
        </extensions>
      </trkpt>
      <trkpt lat="52.277908623218536376953125" lon="1.62862616591155529022216796875">
        <ele>-80.59999847412109375</ele>
        <time>2025-09-07T09:35:45.000Z</time>
        <extensions>
          <ns3:TrackPointExtension>
            <ns3:hr>122</ns3:hr>
            <ns3:cad>80</ns3:cad>
          </ns3:TrackPointExtension>
        </extensions>
      </trkpt>
      <trkpt lat="52.2779097966849803924560546875" lon="1.62858970463275909423828125">
        <ele>-79.8000030517578125</ele>
        <time>2025-09-07T09:35:46.000Z</time>
        <extensions>
          <ns3:TrackPointExtension>
            <ns3:hr>125</ns3:hr>
            <ns3:cad>80</ns3:cad>
          </ns3:TrackPointExtension>
        </extensions>
      </trkpt>
      <trkpt lat="52.27791658602654933929443359375" lon="1.62855877541005611419677734375">
        <ele>-79.1999969482421875</ele>
        <time>2025-09-07T09:35:47.000Z</time>
        <extensions>
          <ns3:TrackPointExtension>
            <ns3:hr>127</ns3:hr>
            <ns3:cad>80</ns3:cad>
          </ns3:TrackPointExtension>
        </extensions>
      </trkpt>
      <trkpt lat="52.27792278863489627838134765625" lon="1.6285040415823459625244140625">
        <ele>-77.59999847412109375</ele>
        <time>2025-09-07T09:35:49.000Z</time>
        <extensions>
          <ns3:TrackPointExtension>
            <ns3:hr>129</ns3:hr>
            <ns3:cad>80</ns3:cad>
          </ns3:TrackPointExtension>
        </extensions>
      </trkpt>
      <trkpt lat="52.27791775949299335479736328125" lon="1.62843623198568820953369140625">
        <ele>-76.1999969482421875</ele>
        <time>2025-09-07T09:35:51.000Z</time>
        <extensions>
          <ns3:TrackPointExtension>
            <ns3:hr>132</ns3:hr>
            <ns3:cad>81</ns3:cad>
          </ns3:TrackPointExtension>
        </extensions>
      </trkpt>
      <trkpt lat="52.2779232077300548553466796875" lon="1.628378815948963165283203125">
        <ele>-74.8000030517578125</ele>
        <time>2025-09-07T09:35:53.000Z</time>
        <extensions>
          <ns3:TrackPointExtension>
            <ns3:hr>133</ns3:hr>
            <ns3:cad>81</ns3:cad>
          </ns3:TrackPointExtension>
        </extensions>
      </trkpt>
      <trkpt lat="52.27792563848197460174560546875" lon="1.628348641097545623779296875">
        <ele>-74</ele>
        <time>2025-09-07T09:35:54.000Z</time>
        <extensions>
          <ns3:TrackPointExtension>
            <ns3:hr>135</ns3:hr>
            <ns3:cad>81</ns3:cad>
          </ns3:TrackPointExtension>
        </extensions>
      </trkpt>
      <trkpt lat="52.27793075144290924072265625" lon="1.62831067107617855072021484375">
        <ele>-73.1999969482421875</ele>
        <time>2025-09-07T09:35:55.000Z</time>
        <extensions>
          <ns3:TrackPointExtension>
            <ns3:hr>136</ns3:hr>
            <ns3:cad>81</ns3:cad>
          </ns3:TrackPointExtension>
        </extensions>
      </trkpt>
      <trkpt lat="52.27794550359249114990234375" lon="1.62824629805982112884521484375">
        <ele>-71.8000030517578125</ele>
        <time>2025-09-07T09:35:57.000Z</time>
        <extensions>
          <ns3:TrackPointExtension>
            <ns3:hr>138</ns3:hr>
            <ns3:cad>81</ns3:cad>
          </ns3:TrackPointExtension>
        </extensions>
      </trkpt>
      <trkpt lat="52.27795966900885105133056640625" lon="1.62818108685314655303955078125">
        <ele>-70.1999969482421875</ele>
        <time>2025-09-07T09:35:59.000Z</time>
        <extensions>
          <ns3:TrackPointExtension>
            <ns3:hr>138</ns3:hr>
            <ns3:cad>81</ns3:cad>
          </ns3:TrackPointExtension>
        </extensions>
      </trkpt>
      <trkpt lat="52.27796553634107112884521484375" lon="1.62811989895999431610107421875">
        <ele>-68.8000030517578125</ele>
        <time>2025-09-07T09:36:01.000Z</time>
        <extensions>
          <ns3:TrackPointExtension>
            <ns3:hr>138</ns3:hr>
            <ns3:cad>81</ns3:cad>
          </ns3:TrackPointExtension>
        </extensions>
      </trkpt>
      <trkpt lat="52.27797056548297405242919921875" lon="1.628061644732952117919921875">
        <ele>-67.1999969482421875</ele>
        <time>2025-09-07T09:36:03.000Z</time>
        <extensions>
          <ns3:TrackPointExtension>
            <ns3:hr>139</ns3:hr>
            <ns3:cad>81</ns3:cad>
          </ns3:TrackPointExtension>
        </extensions>
      </trkpt>
      <trkpt lat="52.2779781930148601531982421875" lon="1.62799668498337268829345703125">
        <ele>-65.8000030517578125</ele>
        <time>2025-09-07T09:36:05.000Z</time>
        <extensions>
          <ns3:TrackPointExtension>
            <ns3:hr>140</ns3:hr>
            <ns3:cad>81</ns3:cad>
          </ns3:TrackPointExtension>
        </extensions>
      </trkpt>
      <trkpt lat="52.27798900566995143890380859375" lon="1.627934910356998443603515625">
        <ele>-64.40000152587890625</ele>
        <time>2025-09-07T09:36:07.000Z</time>
        <extensions>
          <ns3:TrackPointExtension>
            <ns3:hr>140</ns3:hr>
            <ns3:cad>81</ns3:cad>
          </ns3:TrackPointExtension>
        </extensions>
      </trkpt>
      <trkpt lat="52.2779931128025054931640625" lon="1.627904064953327178955078125">
        <ele>-63.59999847412109375</ele>
        <time>2025-09-07T09:36:08.000Z</time>
        <extensions>
          <ns3:TrackPointExtension>
            <ns3:hr>140</ns3:hr>
            <ns3:cad>81</ns3:cad>
          </ns3:TrackPointExtension>
        </extensions>
      </trkpt>
      <trkpt lat="52.2779946215450763702392578125" lon="1.62787363864481449127197265625">
        <ele>-62.799999237060546875</ele>
        <time>2025-09-07T09:36:09.000Z</time>
        <extensions>
          <ns3:TrackPointExtension>
            <ns3:hr>141</ns3:hr>
            <ns3:cad>81</ns3:cad>
          </ns3:TrackPointExtension>
        </extensions>
      </trkpt>
      <trkpt lat="52.2779936157166957855224609375" lon="1.62781110964715480804443359375">
        <ele>-61.40000152587890625</ele>
        <time>2025-09-07T09:36:11.000Z</time>
        <extensions>
          <ns3:TrackPointExtension>
            <ns3:hr>141</ns3:hr>
            <ns3:cad>82</ns3:cad>
          </ns3:TrackPointExtension>
        </extensions>
      </trkpt>
      <trkpt lat="52.27799537591636180877685546875" lon="1.627751179039478302001953125">
        <ele>-59.799999237060546875</ele>
        <time>2025-09-07T09:36:13.000Z</time>
        <extensions>
          <ns3:TrackPointExtension>
            <ns3:hr>142</ns3:hr>
            <ns3:cad>82</ns3:cad>
          </ns3:TrackPointExtension>
        </extensions>
      </trkpt>
      <trkpt lat="52.27800342254340648651123046875" lon="1.62768420763313770294189453125">
        <ele>-58.40000152587890625</ele>
        <time>2025-09-07T09:36:15.000Z</time>
        <extensions>
          <ns3:TrackPointExtension>
            <ns3:hr>141</ns3:hr>
            <ns3:cad>82</ns3:cad>
          </ns3:TrackPointExtension>
        </extensions>
      </trkpt>
      <trkpt lat="52.27801297791302204132080078125" lon="1.62761212326586246490478515625">
        <ele>-56.799999237060546875</ele>
        <time>2025-09-07T09:36:17.000Z</time>
        <extensions>
          <ns3:TrackPointExtension>
            <ns3:hr>143</ns3:hr>
            <ns3:cad>82</ns3:cad>
          </ns3:TrackPointExtension>
        </extensions>
      </trkpt>
      <trkpt lat="52.2780199348926544189453125" lon="1.6275464929640293121337890625">
        <ele>-55.40000152587890625</ele>
        <time>2025-09-07T09:36:19.000Z</time>
        <extensions>
          <ns3:TrackPointExtension>
            <ns3:hr>143</ns3:hr>
            <ns3:cad>82</ns3:cad>
          </ns3:TrackPointExtension>
        </extensions>
      </trkpt>
      <trkpt lat="52.27802119217813014984130859375" lon="1.62749134004116058349609375">
        <ele>-53.799999237060546875</ele>
        <time>2025-09-07T09:36:21.000Z</time>
        <extensions>
          <ns3:TrackPointExtension>
            <ns3:hr>140</ns3:hr>
            <ns3:cad>82</ns3:cad>
          </ns3:TrackPointExtension>
        </extensions>
      </trkpt>
      <trkpt lat="52.278027646243572235107421875" lon="1.62743811495602130889892578125">
        <ele>-52.200000762939453125</ele>
        <time>2025-09-07T09:36:23.000Z</time>
        <extensions>
          <ns3:TrackPointExtension>
            <ns3:hr>139</ns3:hr>
            <ns3:cad>82</ns3:cad>
          </ns3:TrackPointExtension>
        </extensions>
      </trkpt>
      <trkpt lat="52.2780281491577625274658203125" lon="1.62740794010460376739501953125">
        <ele>-51.59999847412109375</ele>
        <time>2025-09-07T09:36:24.000Z</time>
        <extensions>
          <ns3:TrackPointExtension>
            <ns3:hr>139</ns3:hr>
            <ns3:cad>82</ns3:cad>
          </ns3:TrackPointExtension>
        </extensions>
      </trkpt>
      <trkpt lat="52.2780301608145236968994140625" lon="1.62737994454801082611083984375">
        <ele>-50.799999237060546875</ele>
        <time>2025-09-07T09:36:25.000Z</time>
        <extensions>
          <ns3:TrackPointExtension>
            <ns3:hr>140</ns3:hr>
            <ns3:cad>82</ns3:cad>
          </ns3:TrackPointExtension>
        </extensions>
      </trkpt>
      <trkpt lat="52.27802907116711139678955078125" lon="1.62731456570327281951904296875">
        <ele>-49.40000152587890625</ele>
        <time>2025-09-07T09:36:27.000Z</time>
        <extensions>
          <ns3:TrackPointExtension>
            <ns3:hr>139</ns3:hr>
            <ns3:cad>82</ns3:cad>
          </ns3:TrackPointExtension>
        </extensions>
      </trkpt>
      <trkpt lat="52.27802865207195281982421875" lon="1.6272532939910888671875">
        <ele>-47.799999237060546875</ele>
        <time>2025-09-07T09:36:29.000Z</time>
        <extensions>
          <ns3:TrackPointExtension>
            <ns3:hr>139</ns3:hr>
            <ns3:cad>82</ns3:cad>
          </ns3:TrackPointExtension>
        </extensions>
      </trkpt>
      <trkpt lat="52.27803401648998260498046875" lon="1.62719034589827060699462890625">
        <ele>-46.40000152587890625</ele>
        <time>2025-09-07T09:36:31.000Z</time>
        <extensions>
          <ns3:TrackPointExtension>
            <ns3:hr>139</ns3:hr>
            <ns3:cad>82</ns3:cad>
          </ns3:TrackPointExtension>
        </extensions>
      </trkpt>
      <trkpt lat="52.2780365310609340667724609375" lon="1.62712865509092807769775390625">
        <ele>-45</ele>
        <time>2025-09-07T09:36:33.000Z</time>
        <extensions>
          <ns3:TrackPointExtension>
            <ns3:hr>139</ns3:hr>
            <ns3:cad>82</ns3:cad>
          </ns3:TrackPointExtension>
        </extensions>
      </trkpt>
      <trkpt lat="52.27803711779415607452392578125" lon="1.6270534694194793701171875">
        <ele>-43.59999847412109375</ele>
        <time>2025-09-07T09:36:35.000Z</time>
        <extensions>
          <ns3:TrackPointExtension>
            <ns3:hr>137</ns3:hr>
            <ns3:cad>82</ns3:cad>
          </ns3:TrackPointExtension>
        </extensions>
      </trkpt>
      <trkpt lat="52.27803912945091724395751953125" lon="1.62698951549828052520751953125">
        <ele>-42.200000762939453125</ele>
        <time>2025-09-07T09:36:37.000Z</time>
        <extensions>
          <ns3:TrackPointExtension>
            <ns3:hr>139</ns3:hr>
            <ns3:cad>81</ns3:cad>
          </ns3:TrackPointExtension>
        </extensions>
      </trkpt>
      <trkpt lat="52.2780439071357250213623046875" lon="1.62695598788559436798095703125">
        <ele>-41</ele>
        <time>2025-09-07T09:36:39.000Z</time>
        <extensions>
          <ns3:TrackPointExtension>
            <ns3:hr>138</ns3:hr>
            <ns3:cad>81</ns3:cad>
          </ns3:TrackPointExtension>
        </extensions>
      </trkpt>
      <trkpt lat="52.27804600261151790618896484375" lon="1.6269488632678985595703125">
        <ele>-40.200000762939453125</ele>
        <time>2025-09-07T09:36:40.000Z</time>
        <extensions>
          <ns3:TrackPointExtension>
            <ns3:hr>139</ns3:hr>
            <ns3:cad>0</ns3:cad>
          </ns3:TrackPointExtension>
        </extensions>
      </trkpt>
      <trkpt lat="52.2780472598969936370849609375" lon="1.6269490309059619903564453125">
        <ele>-39.59999847412109375</ele>
        <time>2025-09-07T09:36:41.000Z</time>
        <extensions>
          <ns3:TrackPointExtension>
            <ns3:hr>139</ns3:hr>
            <ns3:cad>0</ns3:cad>
          </ns3:TrackPointExtension>
        </extensions>
      </trkpt>
      <trkpt lat="52.27804918773472309112548828125" lon="1.6269537247717380523681640625">
        <ele>-38.40000152587890625</ele>
        <time>2025-09-07T09:36:43.000Z</time>
        <extensions>
          <ns3:TrackPointExtension>
            <ns3:hr>139</ns3:hr>
            <ns3:cad>0</ns3:cad>
          </ns3:TrackPointExtension>
        </extensions>
      </trkpt>
      <trkpt lat="52.278050445020198822021484375" lon="1.62695414386689662933349609375">
        <ele>-37</ele>
        <time>2025-09-07T09:36:45.000Z</time>
        <extensions>
          <ns3:TrackPointExtension>
            <ns3:hr>140</ns3:hr>
            <ns3:cad>0</ns3:cad>
          </ns3:TrackPointExtension>
        </extensions>
      </trkpt>
      <trkpt lat="52.27804969064891338348388671875" lon="1.62695246748626232147216796875">
        <ele>-35.59999847412109375</ele>
        <time>2025-09-07T09:36:47.000Z</time>
        <extensions>
          <ns3:TrackPointExtension>
            <ns3:hr>139</ns3:hr>
            <ns3:cad>0</ns3:cad>
          </ns3:TrackPointExtension>
        </extensions>
      </trkpt>
      <trkpt lat="52.278049103915691375732421875" lon="1.62694961763918399810791015625">
        <ele>-34.40000152587890625</ele>
        <time>2025-09-07T09:36:49.000Z</time>
        <extensions>
          <ns3:TrackPointExtension>
            <ns3:hr>140</ns3:hr>
            <ns3:cad>0</ns3:cad>
          </ns3:TrackPointExtension>
        </extensions>
      </trkpt>
      <trkpt lat="52.27804952301084995269775390625" lon="1.62693168036639690399169921875">
        <ele>-33.200000762939453125</ele>
        <time>2025-09-07T09:36:51.000Z</time>
        <extensions>
          <ns3:TrackPointExtension>
            <ns3:hr>140</ns3:hr>
            <ns3:cad>0</ns3:cad>
          </ns3:TrackPointExtension>
        </extensions>
      </trkpt>
      <trkpt lat="52.27805287577211856842041015625" lon="1.6269047744572162628173828125">
        <ele>-31.799999237060546875</ele>
        <time>2025-09-07T09:36:53.000Z</time>
        <extensions>
          <ns3:TrackPointExtension>
            <ns3:hr>138</ns3:hr>
            <ns3:cad>0</ns3:cad>
          </ns3:TrackPointExtension>
        </extensions>
      </trkpt>
      <trkpt lat="52.27806092239916324615478515625" lon="1.62686127237975597381591796875">
        <ele>-30.6000003814697265625</ele>
        <time>2025-09-07T09:36:55.000Z</time>
        <extensions>
          <ns3:TrackPointExtension>
            <ns3:hr>137</ns3:hr>
            <ns3:cad>56</ns3:cad>
          </ns3:TrackPointExtension>
        </extensions>
      </trkpt>
      <trkpt lat="52.27806360460817813873291015625" lon="1.62683528847992420196533203125">
        <ele>-29.200000762939453125</ele>
        <time>2025-09-07T09:36:57.000Z</time>
        <extensions>
          <ns3:TrackPointExtension>
            <ns3:hr>138</ns3:hr>
            <ns3:cad>57</ns3:cad>
          </ns3:TrackPointExtension>
        </extensions>
      </trkpt>
      <trkpt lat="52.27806880138814449310302734375" lon="1.62681944668292999267578125">
        <ele>-28</ele>
        <time>2025-09-07T09:36:59.000Z</time>
        <extensions>
          <ns3:TrackPointExtension>
            <ns3:hr>137</ns3:hr>
            <ns3:cad>0</ns3:cad>
          </ns3:TrackPointExtension>
        </extensions>
      </trkpt>
      <trkpt lat="52.27807114832103252410888671875" lon="1.62681265734136104583740234375">
        <ele>-27.3999996185302734375</ele>
        <time>2025-09-07T09:37:00.000Z</time>
        <extensions>
          <ns3:TrackPointExtension>
            <ns3:hr>137</ns3:hr>
            <ns3:cad>0</ns3:cad>
          </ns3:TrackPointExtension>
        </extensions>
      </trkpt>
      <trkpt lat="52.27807517163455486297607421875" lon="1.626805365085601806640625">
        <ele>-26.799999237060546875</ele>
        <time>2025-09-07T09:37:01.000Z</time>
        <extensions>
          <ns3:TrackPointExtension>
            <ns3:hr>137</ns3:hr>
            <ns3:cad>0</ns3:cad>
          </ns3:TrackPointExtension>
        </extensions>
      </trkpt>
      <trkpt lat="52.2780764289200305938720703125" lon="1.6267827339470386505126953125">
        <ele>-25.6000003814697265625</ele>
        <time>2025-09-07T09:37:03.000Z</time>
        <extensions>
          <ns3:TrackPointExtension>
            <ns3:hr>134</ns3:hr>
            <ns3:cad>0</ns3:cad>
          </ns3:TrackPointExtension>
        </extensions>
      </trkpt>
      <trkpt lat="52.27806997485458850860595703125" lon="1.626738645136356353759765625">
        <ele>-24.3999996185302734375</ele>
        <time>2025-09-07T09:37:05.000Z</time>
        <extensions>
          <ns3:TrackPointExtension>
            <ns3:hr>130</ns3:hr>
            <ns3:cad>0</ns3:cad>
          </ns3:TrackPointExtension>
        </extensions>
      </trkpt>
      <trkpt lat="52.2780663706362247467041015625" lon="1.6267133317887783050537109375">
        <ele>-24</ele>
        <time>2025-09-07T09:37:06.000Z</time>
        <extensions>
          <ns3:TrackPointExtension>
            <ns3:hr>127</ns3:hr>
            <ns3:cad>0</ns3:cad>
          </ns3:TrackPointExtension>
        </extensions>
      </trkpt>
      <trkpt lat="52.2780633531510829925537109375" lon="1.62666563875973224639892578125">
        <ele>-23</ele>
        <time>2025-09-07T09:37:08.000Z</time>
        <extensions>
          <ns3:TrackPointExtension>
            <ns3:hr>123</ns3:hr>
            <ns3:cad>80</ns3:cad>
          </ns3:TrackPointExtension>
        </extensions>
      </trkpt>
      <trkpt lat="52.27806192822754383087158203125" lon="1.62663429044187068939208984375">
        <ele>-22.6000003814697265625</ele>
        <time>2025-09-07T09:37:09.000Z</time>
        <extensions>
          <ns3:TrackPointExtension>
            <ns3:hr>122</ns3:hr>
            <ns3:cad>80</ns3:cad>
          </ns3:TrackPointExtension>
        </extensions>
      </trkpt>
      <trkpt lat="52.27805606089532375335693359375" lon="1.62657025270164012908935546875">
        <ele>-21.799999237060546875</ele>
        <time>2025-09-07T09:37:11.000Z</time>
        <extensions>
          <ns3:TrackPointExtension>
            <ns3:hr>121</ns3:hr>
            <ns3:cad>80</ns3:cad>
          </ns3:TrackPointExtension>
        </extensions>
      </trkpt>
      <trkpt lat="52.2780616767704486846923828125" lon="1.62646832875907421112060546875">
        <ele>-20.6000003814697265625</ele>
        <time>2025-09-07T09:37:14.000Z</time>
        <extensions>
          <ns3:TrackPointExtension>
            <ns3:hr>123</ns3:hr>
            <ns3:cad>80</ns3:cad>
          </ns3:TrackPointExtension>
        </extensions>
      </trkpt>
      <trkpt lat="52.2780628502368927001953125" lon="1.6264384053647518157958984375">
        <ele>-20.200000762939453125</ele>
        <time>2025-09-07T09:37:15.000Z</time>
        <extensions>
          <ns3:TrackPointExtension>
            <ns3:hr>125</ns3:hr>
            <ns3:cad>80</ns3:cad>
          </ns3:TrackPointExtension>
        </extensions>
      </trkpt>
      <trkpt lat="52.2780633531510829925537109375" lon="1.6263730265200138092041015625">
        <ele>-19.3999996185302734375</ele>
        <time>2025-09-07T09:37:17.000Z</time>
        <extensions>
          <ns3:TrackPointExtension>
            <ns3:hr>125</ns3:hr>
            <ns3:cad>81</ns3:cad>
          </ns3:TrackPointExtension>
        </extensions>
      </trkpt>
      <trkpt lat="52.27807735092937946319580078125" lon="1.626253165304660797119140625">
        <ele>-18.3999996185302734375</ele>
        <time>2025-09-07T09:37:20.000Z</time>
        <extensions>
          <ns3:TrackPointExtension>
            <ns3:hr>121</ns3:hr>
            <ns3:cad>81</ns3:cad>
          </ns3:TrackPointExtension>
        </extensions>
      </trkpt>
      <trkpt lat="52.27807265706360340118408203125" lon="1.62621787749230861663818359375">
        <ele>-18</ele>
        <time>2025-09-07T09:37:21.000Z</time>
        <extensions>
          <ns3:TrackPointExtension>
            <ns3:hr>121</ns3:hr>
            <ns3:cad>81</ns3:cad>
          </ns3:TrackPointExtension>
        </extensions>
      </trkpt>
      <trkpt lat="52.27805824019014835357666015625" lon="1.62615451030433177947998046875">
        <ele>-17.200000762939453125</ele>
        <time>2025-09-07T09:37:23.000Z</time>
        <extensions>
          <ns3:TrackPointExtension>
            <ns3:hr>121</ns3:hr>
            <ns3:cad>80</ns3:cad>
          </ns3:TrackPointExtension>
        </extensions>
      </trkpt>
      <trkpt lat="52.27805388160049915313720703125" lon="1.62606968544423580169677734375">
        <ele>-16.200000762939453125</ele>
        <time>2025-09-07T09:37:26.000Z</time>
        <extensions>
          <ns3:TrackPointExtension>
            <ns3:hr>122</ns3:hr>
            <ns3:cad>79</ns3:cad>
          </ns3:TrackPointExtension>
        </extensions>
      </trkpt>
      <trkpt lat="52.27805815637111663818359375" lon="1.62600807845592498779296875">
        <ele>-15.3999996185302734375</ele>
        <time>2025-09-07T09:37:28.000Z</time>
        <extensions>
          <ns3:TrackPointExtension>
            <ns3:hr>120</ns3:hr>
            <ns3:cad>81</ns3:cad>
          </ns3:TrackPointExtension>
        </extensions>
      </trkpt>
      <trkpt lat="52.278067208826541900634765625" lon="1.6259686835110187530517578125">
        <ele>-15</ele>
        <time>2025-09-07T09:37:29.000Z</time>
        <extensions>
          <ns3:TrackPointExtension>
            <ns3:hr>121</ns3:hr>
            <ns3:cad>81</ns3:cad>
          </ns3:TrackPointExtension>
        </extensions>
      </trkpt>
      <trkpt lat="52.2781055979430675506591796875" lon="1.62586734630167484283447265625">
        <ele>-14</ele>
        <time>2025-09-07T09:37:32.000Z</time>
        <extensions>
          <ns3:TrackPointExtension>
            <ns3:hr>121</ns3:hr>
            <ns3:cad>80</ns3:cad>
          </ns3:TrackPointExtension>
        </extensions>
      </trkpt>
      <trkpt lat="52.2781149856746196746826171875" lon="1.62579995580017566680908203125">
        <ele>-13</ele>
        <time>2025-09-07T09:37:35.000Z</time>
        <extensions>
          <ns3:TrackPointExtension>
            <ns3:hr>123</ns3:hr>
            <ns3:cad>81</ns3:cad>
          </ns3:TrackPointExtension>
        </extensions>
      </trkpt>
      <trkpt lat="52.27811590768396854400634765625" lon="1.62577531300485134124755859375">
        <ele>-12.80000019073486328125</ele>
        <time>2025-09-07T09:37:36.000Z</time>
        <extensions>
          <ns3:TrackPointExtension>
            <ns3:hr>124</ns3:hr>
            <ns3:cad>81</ns3:cad>
          </ns3:TrackPointExtension>
        </extensions>
      </trkpt>
      <trkpt lat="52.27811858989298343658447265625" lon="1.62567908875644207000732421875">
        <ele>-11.6000003814697265625</ele>
        <time>2025-09-07T09:37:40.000Z</time>
        <extensions>
          <ns3:TrackPointExtension>
            <ns3:hr>124</ns3:hr>
            <ns3:cad>80</ns3:cad>
          </ns3:TrackPointExtension>
        </extensions>
      </trkpt>
      <trkpt lat="52.27812646888196468353271484375" lon="1.62559275515377521514892578125">
        <ele>-10.80000019073486328125</ele>
        <time>2025-09-07T09:37:43.000Z</time>
        <extensions>
          <ns3:TrackPointExtension>
            <ns3:hr>127</ns3:hr>
            <ns3:cad>80</ns3:cad>
          </ns3:TrackPointExtension>
        </extensions>
      </trkpt>
      <trkpt lat="52.278126217424869537353515625" lon="1.62556350231170654296875">
        <ele>-10.3999996185302734375</ele>
        <time>2025-09-07T09:37:44.000Z</time>
        <extensions>
          <ns3:TrackPointExtension>
            <ns3:hr>129</ns3:hr>
            <ns3:cad>80</ns3:cad>
          </ns3:TrackPointExtension>
        </extensions>
      </trkpt>
      <trkpt lat="52.2781260497868061065673828125" lon="1.62550491280853748321533203125">
        <ele>-9.80000019073486328125</ele>
        <time>2025-09-07T09:37:46.000Z</time>
        <extensions>
          <ns3:TrackPointExtension>
            <ns3:hr>132</ns3:hr>
            <ns3:cad>80</ns3:cad>
          </ns3:TrackPointExtension>
        </extensions>
      </trkpt>
      <trkpt lat="52.278125546872615814208984375" lon="1.62545076571404933929443359375">
        <ele>-9.3999996185302734375</ele>
        <time>2025-09-07T09:37:48.000Z</time>
        <extensions>
          <ns3:TrackPointExtension>
            <ns3:hr>136</ns3:hr>
            <ns3:cad>80</ns3:cad>
          </ns3:TrackPointExtension>
        </extensions>
      </trkpt>
      <trkpt lat="52.27812898345291614532470703125" lon="1.62540617398917675018310546875">
        <ele>-8.80000019073486328125</ele>
        <time>2025-09-07T09:37:50.000Z</time>
        <extensions>
          <ns3:TrackPointExtension>
            <ns3:hr>140</ns3:hr>
            <ns3:cad>80</ns3:cad>
          </ns3:TrackPointExtension>
        </extensions>
      </trkpt>
      <trkpt lat="52.27813501842319965362548828125" lon="1.62538572214543819427490234375">
        <ele>-8.3999996185302734375</ele>
        <time>2025-09-07T09:37:51.000Z</time>
        <extensions>
          <ns3:TrackPointExtension>
            <ns3:hr>144</ns3:hr>
            <ns3:cad>80</ns3:cad>
          </ns3:TrackPointExtension>
        </extensions>
      </trkpt>
      <trkpt lat="52.27813937701284885406494140625" lon="1.62536929361522197723388671875">
        <ele>-8.19999980926513671875</ele>
        <time>2025-09-07T09:37:52.000Z</time>
        <extensions>
          <ns3:TrackPointExtension>
            <ns3:hr>145</ns3:hr>
            <ns3:cad>80</ns3:cad>
          </ns3:TrackPointExtension>
        </extensions>
      </trkpt>
      <trkpt lat="52.27816670201718807220458984375" lon="1.6252863965928554534912109375">
        <ele>-7</ele>
        <time>2025-09-07T09:37:56.000Z</time>
        <extensions>
          <ns3:TrackPointExtension>
            <ns3:hr>148</ns3:hr>
            <ns3:cad>78</ns3:cad>
          </ns3:TrackPointExtension>
        </extensions>
      </trkpt>
      <trkpt lat="52.27819092571735382080078125" lon="1.62517751567065715789794921875">
        <ele>-6</ele>
        <time>2025-09-07T09:38:00.000Z</time>
        <extensions>
          <ns3:TrackPointExtension>
            <ns3:hr>147</ns3:hr>
            <ns3:cad>79</ns3:cad>
          </ns3:TrackPointExtension>
        </extensions>
      </trkpt>
      <trkpt lat="52.278193943202495574951171875" lon="1.62512051872909069061279296875">
        <ele>-5.400000095367431640625</ele>
        <time>2025-09-07T09:38:02.000Z</time>
        <extensions>
          <ns3:TrackPointExtension>
            <ns3:hr>146</ns3:hr>
            <ns3:cad>62</ns3:cad>
          </ns3:TrackPointExtension>
        </extensions>
      </trkpt>
      <trkpt lat="52.27818363346159458160400390625" lon="1.62505648098886013031005859375">
        <ele>-4.80000019073486328125</ele>
        <time>2025-09-07T09:38:04.000Z</time>
        <extensions>
          <ns3:TrackPointExtension>
            <ns3:hr>145</ns3:hr>
            <ns3:cad>62</ns3:cad>
          </ns3:TrackPointExtension>
        </extensions>
      </trkpt>
      <trkpt lat="52.27816821075975894927978515625" lon="1.6249809600412845611572265625">
        <ele>-4</ele>
        <time>2025-09-07T09:38:07.000Z</time>
        <extensions>
          <ns3:TrackPointExtension>
            <ns3:hr>142</ns3:hr>
            <ns3:cad>57</ns3:cad>
          </ns3:TrackPointExtension>
        </extensions>
      </trkpt>
      <trkpt lat="52.27816502563655376434326171875" lon="1.6249568201601505279541015625">
        <ele>-3.7999999523162841796875</ele>
        <time>2025-09-07T09:38:08.000Z</time>
        <extensions>
          <ns3:TrackPointExtension>
            <ns3:hr>142</ns3:hr>
            <ns3:cad>57</ns3:cad>
          </ns3:TrackPointExtension>
        </extensions>
      </trkpt>
      <trkpt lat="52.27816200815141201019287109375" lon="1.624891273677349090576171875">
        <ele>-3</ele>
        <time>2025-09-07T09:38:11.000Z</time>
        <extensions>
          <ns3:TrackPointExtension>
            <ns3:hr>141</ns3:hr>
            <ns3:cad>78</ns3:cad>
          </ns3:TrackPointExtension>
        </extensions>
      </trkpt>
      <trkpt lat="52.27813996374607086181640625" lon="1.62483084015548229217529296875">
        <ele>-2.599999904632568359375</ele>
        <time>2025-09-07T09:38:13.000Z</time>
        <extensions>
          <ns3:TrackPointExtension>
            <ns3:hr>140</ns3:hr>
            <ns3:cad>79</ns3:cad>
          </ns3:TrackPointExtension>
        </extensions>
      </trkpt>
      <trkpt lat="52.27810568176209926605224609375" lon="1.62470318377017974853515625">
        <ele>-1.39999997615814208984375</ele>
        <time>2025-09-07T09:38:18.000Z</time>
        <extensions>
          <ns3:TrackPointExtension>
            <ns3:hr>138</ns3:hr>
            <ns3:cad>79</ns3:cad>
          </ns3:TrackPointExtension>
        </extensions>
      </trkpt>
      <trkpt lat="52.27809662930667400360107421875" lon="1.6246768645942211151123046875">
        <ele>-1.2000000476837158203125</ele>
        <time>2025-09-07T09:38:19.000Z</time>
        <extensions>
          <ns3:TrackPointExtension>
            <ns3:hr>138</ns3:hr>
            <ns3:cad>79</ns3:cad>
          </ns3:TrackPointExtension>
        </extensions>
      </trkpt>
      <trkpt lat="52.27807383053004741668701171875" lon="1.62451677024364471435546875">
        <ele>-0.20000000298023223876953125</ele>
        <time>2025-09-07T09:38:23.000Z</time>
        <extensions>
          <ns3:TrackPointExtension>
            <ns3:hr>142</ns3:hr>
            <ns3:cad>80</ns3:cad>
          </ns3:TrackPointExtension>
        </extensions>
      </trkpt>
      <trkpt lat="52.27805614471435546875" lon="1.62442146800458431243896484375">
        <ele>0.60000002384185791015625</ele>
        <time>2025-09-07T09:38:26.000Z</time>
        <extensions>
          <ns3:TrackPointExtension>
            <ns3:hr>143</ns3:hr>
            <ns3:cad>81</ns3:cad>
          </ns3:TrackPointExtension>
        </extensions>
      </trkpt>
      <trkpt lat="52.27804801426827907562255859375" lon="1.62438089959323406219482421875">
        <ele>1</ele>
        <time>2025-09-07T09:38:27.000Z</time>
        <extensions>
          <ns3:TrackPointExtension>
            <ns3:hr>145</ns3:hr>
            <ns3:cad>81</ns3:cad>
          </ns3:TrackPointExtension>
        </extensions>
      </trkpt>
      <trkpt lat="52.278032340109348297119140625" lon="1.624225415289402008056640625">
        <ele>2</ele>
        <time>2025-09-07T09:38:31.000Z</time>
        <extensions>
          <ns3:TrackPointExtension>
            <ns3:hr>143</ns3:hr>
            <ns3:cad>80</ns3:cad>
          </ns3:TrackPointExtension>
        </extensions>
      </trkpt>
      <trkpt lat="52.2780226171016693115234375" lon="1.6241598688066005706787109375">
        <ele>2.599999904632568359375</ele>
        <time>2025-09-07T09:38:33.000Z</time>
        <extensions>
          <ns3:TrackPointExtension>
            <ns3:hr>144</ns3:hr>
            <ns3:cad>80</ns3:cad>
          </ns3:TrackPointExtension>
        </extensions>
      </trkpt>
      <trkpt lat="52.2780172526836395263671875" lon="1.62409138865768909454345703125">
        <ele>3</ele>
        <time>2025-09-07T09:38:35.000Z</time>
        <extensions>
          <ns3:TrackPointExtension>
            <ns3:hr>143</ns3:hr>
            <ns3:cad>80</ns3:cad>
          </ns3:TrackPointExtension>
        </extensions>
      </trkpt>
      <trkpt lat="52.27801247499883174896240234375" lon="1.62405543029308319091796875">
        <ele>3.400000095367431640625</ele>
        <time>2025-09-07T09:38:36.000Z</time>
        <extensions>
          <ns3:TrackPointExtension>
            <ns3:hr>146</ns3:hr>
            <ns3:cad>80</ns3:cad>
          </ns3:TrackPointExtension>
        </extensions>
      </trkpt>
      <trkpt lat="52.2779936157166957855224609375" lon="1.62397303618490695953369140625">
        <ele>4.19999980926513671875</ele>
        <time>2025-09-07T09:38:39.000Z</time>
        <extensions>
          <ns3:TrackPointExtension>
            <ns3:hr>145</ns3:hr>
            <ns3:cad>80</ns3:cad>
          </ns3:TrackPointExtension>
        </extensions>
      </trkpt>
      <trkpt lat="52.27798766456544399261474609375" lon="1.6239486448466777801513671875">
        <ele>4.599999904632568359375</ele>
        <time>2025-09-07T09:38:40.000Z</time>
        <extensions>
          <ns3:TrackPointExtension>
            <ns3:hr>143</ns3:hr>
            <ns3:cad>80</ns3:cad>
          </ns3:TrackPointExtension>
        </extensions>
      </trkpt>
      <trkpt lat="52.27796603925526142120361328125" lon="1.62387438118457794189453125">
        <ele>5.400000095367431640625</ele>
        <time>2025-09-07T09:38:43.000Z</time>
        <extensions>
          <ns3:TrackPointExtension>
            <ns3:hr>144</ns3:hr>
            <ns3:cad>80</ns3:cad>
          </ns3:TrackPointExtension>
        </extensions>
      </trkpt>
      <trkpt lat="52.2779376246035099029541015625" lon="1.623725183308124542236328125">
        <ele>6.599999904632568359375</ele>
        <time>2025-09-07T09:38:47.000Z</time>
        <extensions>
          <ns3:TrackPointExtension>
            <ns3:hr>142</ns3:hr>
            <ns3:cad>80</ns3:cad>
          </ns3:TrackPointExtension>
        </extensions>
      </trkpt>
      <trkpt lat="52.277919687330722808837890625" lon="1.62366994656622409820556640625">
        <ele>7.19999980926513671875</ele>
        <time>2025-09-07T09:38:49.000Z</time>
        <extensions>
          <ns3:TrackPointExtension>
            <ns3:hr>143</ns3:hr>
            <ns3:cad>80</ns3:cad>
          </ns3:TrackPointExtension>
        </extensions>
      </trkpt>
      <trkpt lat="52.277903594076633453369140625" lon="1.62362158298492431640625">
        <ele>7.80000019073486328125</ele>
        <time>2025-09-07T09:38:51.000Z</time>
        <extensions>
          <ns3:TrackPointExtension>
            <ns3:hr>143</ns3:hr>
            <ns3:cad>80</ns3:cad>
          </ns3:TrackPointExtension>
        </extensions>
      </trkpt>
      <trkpt lat="52.2778776101768016815185546875" lon="1.62351496517658233642578125">
        <ele>9</ele>
        <time>2025-09-07T09:38:55.000Z</time>
        <extensions>
          <ns3:TrackPointExtension>
            <ns3:hr>142</ns3:hr>
            <ns3:cad>79</ns3:cad>
          </ns3:TrackPointExtension>
        </extensions>
      </trkpt>
      <trkpt lat="52.2778522968292236328125" lon="1.6233894042670726776123046875">
        <ele>10</ele>
        <time>2025-09-07T09:38:59.000Z</time>
        <extensions>
          <ns3:TrackPointExtension>
            <ns3:hr>140</ns3:hr>
            <ns3:cad>79</ns3:cad>
          </ns3:TrackPointExtension>
        </extensions>
      </trkpt>
      <trkpt lat="52.27781365625560283660888671875" lon="1.62325520999729633331298828125">
        <ele>11</ele>
        <time>2025-09-07T09:39:03.000Z</time>
        <extensions>
          <ns3:TrackPointExtension>
            <ns3:hr>142</ns3:hr>
            <ns3:cad>80</ns3:cad>
          </ns3:TrackPointExtension>
        </extensions>
      </trkpt>
      <trkpt lat="52.27777107618749141693115234375" lon="1.623136103153228759765625">
        <ele>12</ele>
        <time>2025-09-07T09:39:07.000Z</time>
        <extensions>
          <ns3:TrackPointExtension>
            <ns3:hr>142</ns3:hr>
            <ns3:cad>80</ns3:cad>
          </ns3:TrackPointExtension>
        </extensions>
      </trkpt>
      <trkpt lat="52.27770678699016571044921875" lon="1.6230584867298603057861328125">
        <ele>13.19999980926513671875</ele>
        <time>2025-09-07T09:39:11.000Z</time>
        <extensions>
          <ns3:TrackPointExtension>
            <ns3:hr>141</ns3:hr>
            <ns3:cad>80</ns3:cad>
          </ns3:TrackPointExtension>
        </extensions>
      </trkpt>
      <trkpt lat="52.27768910117447376251220703125" lon="1.62300744093954563140869140625">
        <ele>13.6000003814697265625</ele>
        <time>2025-09-07T09:39:13.000Z</time>
        <extensions>
          <ns3:TrackPointExtension>
            <ns3:hr>141</ns3:hr>
            <ns3:cad>80</ns3:cad>
          </ns3:TrackPointExtension>
        </extensions>
      </trkpt>
      <trkpt lat="52.27766311727464199066162109375" lon="1.62293803878128528594970703125">
        <ele>14.3999996185302734375</ele>
        <time>2025-09-07T09:39:16.000Z</time>
        <extensions>
          <ns3:TrackPointExtension>
            <ns3:hr>141</ns3:hr>
            <ns3:cad>80</ns3:cad>
          </ns3:TrackPointExtension>
        </extensions>
      </trkpt>
      <trkpt lat="52.27761693298816680908203125" lon="1.6228187642991542816162109375">
        <ele>15.3999996185302734375</ele>
        <time>2025-09-07T09:39:20.000Z</time>
        <extensions>
          <ns3:TrackPointExtension>
            <ns3:hr>142</ns3:hr>
            <ns3:cad>80</ns3:cad>
          </ns3:TrackPointExtension>
        </extensions>
      </trkpt>
      <trkpt lat="52.277607209980487823486328125" lon="1.6227785311639308929443359375">
        <ele>15.6000003814697265625</ele>
        <time>2025-09-07T09:39:21.000Z</time>
        <extensions>
          <ns3:TrackPointExtension>
            <ns3:hr>142</ns3:hr>
            <ns3:cad>80</ns3:cad>
          </ns3:TrackPointExtension>
        </extensions>
      </trkpt>
      <trkpt lat="52.2775470279157161712646484375" lon="1.622650958597660064697265625">
        <ele>16.799999237060546875</ele>
        <time>2025-09-07T09:39:26.000Z</time>
        <extensions>
          <ns3:TrackPointExtension>
            <ns3:hr>142</ns3:hr>
            <ns3:cad>79</ns3:cad>
          </ns3:TrackPointExtension>
        </extensions>
      </trkpt>
      <trkpt lat="52.27752079255878925323486328125" lon="1.62261650897562503814697265625">
        <ele>17.3999996185302734375</ele>
        <time>2025-09-07T09:39:28.000Z</time>
        <extensions>
          <ns3:TrackPointExtension>
            <ns3:hr>142</ns3:hr>
            <ns3:cad>80</ns3:cad>
          </ns3:TrackPointExtension>
        </extensions>
      </trkpt>
      <trkpt lat="52.277481146156787872314453125" lon="1.6225743480026721954345703125">
        <ele>18</ele>
        <time>2025-09-07T09:39:31.000Z</time>
        <extensions>
          <ns3:TrackPointExtension>
            <ns3:hr>142</ns3:hr>
            <ns3:cad>80</ns3:cad>
          </ns3:TrackPointExtension>
        </extensions>
      </trkpt>
      <trkpt lat="52.2774451039731502532958984375" lon="1.6224985755980014801025390625">
        <ele>19</ele>
        <time>2025-09-07T09:39:35.000Z</time>
        <extensions>
          <ns3:TrackPointExtension>
            <ns3:hr>143</ns3:hr>
            <ns3:cad>79</ns3:cad>
          </ns3:TrackPointExtension>
        </extensions>
      </trkpt>
      <trkpt lat="52.27743496187031269073486328125" lon="1.6224784590303897857666015625">
        <ele>19.200000762939453125</ele>
        <time>2025-09-07T09:39:36.000Z</time>
        <extensions>
          <ns3:TrackPointExtension>
            <ns3:hr>143</ns3:hr>
            <ns3:cad>80</ns3:cad>
          </ns3:TrackPointExtension>
        </extensions>
      </trkpt>
      <trkpt lat="52.277391962707042694091796875" lon="1.6224197857081890106201171875">
        <ele>20.200000762939453125</ele>
        <time>2025-09-07T09:39:40.000Z</time>
        <extensions>
          <ns3:TrackPointExtension>
            <ns3:hr>143</ns3:hr>
            <ns3:cad>79</ns3:cad>
          </ns3:TrackPointExtension>
        </extensions>
      </trkpt>
      <trkpt lat="52.2773669846355915069580078125" lon="1.6224006749689579010009765625">
        <ele>20.799999237060546875</ele>
        <time>2025-09-07T09:39:42.000Z</time>
        <extensions>
          <ns3:TrackPointExtension>
            <ns3:hr>143</ns3:hr>
            <ns3:cad>79</ns3:cad>
          </ns3:TrackPointExtension>
        </extensions>
      </trkpt>
      <trkpt lat="52.27732180617749691009521484375" lon="1.62236421369016170501708984375">
        <ele>21.3999996185302734375</ele>
        <time>2025-09-07T09:39:45.000Z</time>
        <extensions>
          <ns3:TrackPointExtension>
            <ns3:hr>143</ns3:hr>
            <ns3:cad>79</ns3:cad>
          </ns3:TrackPointExtension>
        </extensions>
      </trkpt>
      <trkpt lat="52.27727486751973628997802734375" lon="1.62229724228382110595703125">
        <ele>22.3999996185302734375</ele>
        <time>2025-09-07T09:39:49.000Z</time>
        <extensions>
          <ns3:TrackPointExtension>
            <ns3:hr>142</ns3:hr>
            <ns3:cad>80</ns3:cad>
          </ns3:TrackPointExtension>
        </extensions>
      </trkpt>
      <trkpt lat="52.2772596962749958038330078125" lon="1.62228659726679325103759765625">
        <ele>22.799999237060546875</ele>
        <time>2025-09-07T09:39:50.000Z</time>
        <extensions>
          <ns3:TrackPointExtension>
            <ns3:hr>143</ns3:hr>
            <ns3:cad>79</ns3:cad>
          </ns3:TrackPointExtension>
        </extensions>
      </trkpt>
      <trkpt lat="52.27718736045062541961669921875" lon="1.62225239910185337066650390625">
        <ele>23.799999237060546875</ele>
        <time>2025-09-07T09:39:54.000Z</time>
        <extensions>
          <ns3:TrackPointExtension>
            <ns3:hr>143</ns3:hr>
            <ns3:cad>78</ns3:cad>
          </ns3:TrackPointExtension>
        </extensions>
      </trkpt>
      <trkpt lat="52.27715215645730495452880859375" lon="1.62222792394459247589111328125">
        <ele>24.3999996185302734375</ele>
        <time>2025-09-07T09:39:56.000Z</time>
        <extensions>
          <ns3:TrackPointExtension>
            <ns3:hr>144</ns3:hr>
            <ns3:cad>79</ns3:cad>
          </ns3:TrackPointExtension>
        </extensions>
      </trkpt>
      <trkpt lat="52.2771145217120647430419921875" lon="1.6222018562257289886474609375">
        <ele>25</ele>
        <time>2025-09-07T09:39:58.000Z</time>
        <extensions>
          <ns3:TrackPointExtension>
            <ns3:hr>142</ns3:hr>
            <ns3:cad>79</ns3:cad>
          </ns3:TrackPointExtension>
        </extensions>
      </trkpt>
      <trkpt lat="52.277051322162151336669921875" lon="1.62214175797998905181884765625">
        <ele>26.3999996185302734375</ele>
        <time>2025-09-07T09:40:02.000Z</time>
        <extensions>
          <ns3:TrackPointExtension>
            <ns3:hr>144</ns3:hr>
            <ns3:cad>79</ns3:cad>
          </ns3:TrackPointExtension>
        </extensions>
      </trkpt>
      <trkpt lat="52.2770330496132373809814453125" lon="1.62212834693491458892822265625">
        <ele>26.6000003814697265625</ele>
        <time>2025-09-07T09:40:03.000Z</time>
        <extensions>
          <ns3:TrackPointExtension>
            <ns3:hr>145</ns3:hr>
            <ns3:cad>79</ns3:cad>
          </ns3:TrackPointExtension>
        </extensions>
      </trkpt>
      <trkpt lat="52.27698518894612789154052734375" lon="1.62209649570286273956298828125">
        <ele>27.6000003814697265625</ele>
        <time>2025-09-07T09:40:06.000Z</time>
        <extensions>
          <ns3:TrackPointExtension>
            <ns3:hr>142</ns3:hr>
            <ns3:cad>78</ns3:cad>
          </ns3:TrackPointExtension>
        </extensions>
      </trkpt>
      <trkpt lat="52.2769287787377834320068359375" lon="1.62204938940703868865966796875">
        <ele>28.799999237060546875</ele>
        <time>2025-09-07T09:40:10.000Z</time>
        <extensions>
          <ns3:TrackPointExtension>
            <ns3:hr>143</ns3:hr>
            <ns3:cad>78</ns3:cad>
          </ns3:TrackPointExtension>
        </extensions>
      </trkpt>
      <trkpt lat="52.27686532773077487945556640625" lon="1.62200747989118099212646484375">
        <ele>30</ele>
        <time>2025-09-07T09:40:14.000Z</time>
        <extensions>
          <ns3:TrackPointExtension>
            <ns3:hr>143</ns3:hr>
            <ns3:cad>79</ns3:cad>
          </ns3:TrackPointExtension>
        </extensions>
      </trkpt>
      <trkpt lat="52.2768241725862026214599609375" lon="1.62197965197265148162841796875">
        <ele>30.799999237060546875</ele>
        <time>2025-09-07T09:40:17.000Z</time>
        <extensions>
          <ns3:TrackPointExtension>
            <ns3:hr>144</ns3:hr>
            <ns3:cad>78</ns3:cad>
          </ns3:TrackPointExtension>
        </extensions>
      </trkpt>
      <trkpt lat="52.2768075764179229736328125" lon="1.62197646684944629669189453125">
        <ele>31.200000762939453125</ele>
        <time>2025-09-07T09:40:18.000Z</time>
        <extensions>
          <ns3:TrackPointExtension>
            <ns3:hr>144</ns3:hr>
            <ns3:cad>78</ns3:cad>
          </ns3:TrackPointExtension>
        </extensions>
      </trkpt>
      <trkpt lat="52.27673850953578948974609375" lon="1.6219319589436054229736328125">
        <ele>32.200000762939453125</ele>
        <time>2025-09-07T09:40:22.000Z</time>
        <extensions>
          <ns3:TrackPointExtension>
            <ns3:hr>144</ns3:hr>
            <ns3:cad>78</ns3:cad>
          </ns3:TrackPointExtension>
        </extensions>
      </trkpt>
      <trkpt lat="52.27667589671909809112548828125" lon="1.62189348600804805755615234375">
        <ele>33</ele>
        <time>2025-09-07T09:40:25.000Z</time>
        <extensions>
          <ns3:TrackPointExtension>
            <ns3:hr>144</ns3:hr>
            <ns3:cad>79</ns3:cad>
          </ns3:TrackPointExtension>
        </extensions>
      </trkpt>
      <trkpt lat="52.2766573727130889892578125" lon="1.62188091315329074859619140625">
        <ele>33.40000152587890625</ele>
        <time>2025-09-07T09:40:26.000Z</time>
        <extensions>
          <ns3:TrackPointExtension>
            <ns3:hr>145</ns3:hr>
            <ns3:cad>79</ns3:cad>
          </ns3:TrackPointExtension>
        </extensions>
      </trkpt>
      <trkpt lat="52.2765733860433101654052734375" lon="1.6218421049416065216064453125">
        <ele>34.40000152587890625</ele>
        <time>2025-09-07T09:40:30.000Z</time>
        <extensions>
          <ns3:TrackPointExtension>
            <ns3:hr>146</ns3:hr>
            <ns3:cad>79</ns3:cad>
          </ns3:TrackPointExtension>
        </extensions>
      </trkpt>
      <trkpt lat="52.27654002606868743896484375" lon="1.621818132698535919189453125">
        <ele>35</ele>
        <time>2025-09-07T09:40:32.000Z</time>
        <extensions>
          <ns3:TrackPointExtension>
            <ns3:hr>146</ns3:hr>
            <ns3:cad>78</ns3:cad>
          </ns3:TrackPointExtension>
        </extensions>
      </trkpt>
      <trkpt lat="52.27650959976017475128173828125" lon="1.6217881254851818084716796875">
        <ele>35.59999847412109375</ele>
        <time>2025-09-07T09:40:34.000Z</time>
        <extensions>
          <ns3:TrackPointExtension>
            <ns3:hr>146</ns3:hr>
            <ns3:cad>78</ns3:cad>
          </ns3:TrackPointExtension>
        </extensions>
      </trkpt>
      <trkpt lat="52.27643986232578754425048828125" lon="1.62170112133026123046875">
        <ele>36.799999237060546875</ele>
        <time>2025-09-07T09:40:38.000Z</time>
        <extensions>
          <ns3:TrackPointExtension>
            <ns3:hr>144</ns3:hr>
            <ns3:cad>79</ns3:cad>
          </ns3:TrackPointExtension>
        </extensions>
      </trkpt>
      <trkpt lat="52.2763795964419841766357421875" lon="1.62165627814829349517822265625">
        <ele>37.59999847412109375</ele>
        <time>2025-09-07T09:40:41.000Z</time>
        <extensions>
          <ns3:TrackPointExtension>
            <ns3:hr>146</ns3:hr>
            <ns3:cad>80</ns3:cad>
          </ns3:TrackPointExtension>
        </extensions>
      </trkpt>
      <trkpt lat="52.27636023424565792083740234375" lon="1.62163984961807727813720703125">
        <ele>38</ele>
        <time>2025-09-07T09:40:42.000Z</time>
        <extensions>
          <ns3:TrackPointExtension>
            <ns3:hr>146</ns3:hr>
            <ns3:cad>81</ns3:cad>
          </ns3:TrackPointExtension>
        </extensions>
      </trkpt>
      <trkpt lat="52.27629183791577816009521484375" lon="1.621554605662822723388671875">
        <ele>39</ele>
        <time>2025-09-07T09:40:46.000Z</time>
        <extensions>
          <ns3:TrackPointExtension>
            <ns3:hr>146</ns3:hr>
            <ns3:cad>80</ns3:cad>
          </ns3:TrackPointExtension>
        </extensions>
      </trkpt>
      <trkpt lat="52.27627239190042018890380859375" lon="1.62153624929487705230712890625">
        <ele>39.200000762939453125</ele>
        <time>2025-09-07T09:40:47.000Z</time>
        <extensions>
          <ns3:TrackPointExtension>
            <ns3:hr>143</ns3:hr>
            <ns3:cad>80</ns3:cad>
          </ns3:TrackPointExtension>
        </extensions>
      </trkpt>
      <trkpt lat="52.2762421332299709320068359375" lon="1.621494255959987640380859375">
        <ele>39.59999847412109375</ele>
        <time>2025-09-07T09:40:49.000Z</time>
        <extensions>
          <ns3:TrackPointExtension>
            <ns3:hr>146</ns3:hr>
            <ns3:cad>79</ns3:cad>
          </ns3:TrackPointExtension>
        </extensions>
      </trkpt>
      <trkpt lat="52.2762149758636951446533203125" lon="1.62144773639738559722900390625">
        <ele>40</ele>
        <time>2025-09-07T09:40:51.000Z</time>
        <extensions>
          <ns3:TrackPointExtension>
            <ns3:hr>146</ns3:hr>
            <ns3:cad>79</ns3:cad>
          </ns3:TrackPointExtension>
        </extensions>
      </trkpt>
      <trkpt lat="52.276145406067371368408203125" lon="1.62131546996533870697021484375">
        <ele>41.200000762939453125</ele>
        <time>2025-09-07T09:40:57.000Z</time>
        <extensions>
          <ns3:TrackPointExtension>
            <ns3:hr>146</ns3:hr>
            <ns3:cad>79</ns3:cad>
          </ns3:TrackPointExtension>
        </extensions>
      </trkpt>
      <trkpt lat="52.27613911963999271392822265625" lon="1.621234081685543060302734375">
        <ele>41.59999847412109375</ele>
        <time>2025-09-07T09:41:00.000Z</time>
        <extensions>
          <ns3:TrackPointExtension>
            <ns3:hr>146</ns3:hr>
            <ns3:cad>79</ns3:cad>
          </ns3:TrackPointExtension>
        </extensions>
      </trkpt>
      <trkpt lat="52.2761348448693752288818359375" lon="1.621179766952991485595703125">
        <ele>42</ele>
        <time>2025-09-07T09:41:03.000Z</time>
        <extensions>
          <ns3:TrackPointExtension>
            <ns3:hr>146</ns3:hr>
            <ns3:cad>0</ns3:cad>
          </ns3:TrackPointExtension>
        </extensions>
      </trkpt>
      <trkpt lat="52.2761311568319797515869140625" lon="1.6211641766130924224853515625">
        <ele>42.200000762939453125</ele>
        <time>2025-09-07T09:41:04.000Z</time>
        <extensions>
          <ns3:TrackPointExtension>
            <ns3:hr>146</ns3:hr>
            <ns3:cad>0</ns3:cad>
          </ns3:TrackPointExtension>
        </extensions>
      </trkpt>
      <trkpt lat="52.27608547545969486236572265625" lon="1.62101036868989467620849609375">
        <ele>42.799999237060546875</ele>
        <time>2025-09-07T09:41:11.000Z</time>
        <extensions>
          <ns3:TrackPointExtension>
            <ns3:hr>144</ns3:hr>
            <ns3:cad>80</ns3:cad>
          </ns3:TrackPointExtension>
        </extensions>
      </trkpt>
      <trkpt lat="52.276023365557193756103515625" lon="1.6208443231880664825439453125">
        <ele>43</ele>
        <time>2025-09-07T09:41:17.000Z</time>
        <extensions>
          <ns3:TrackPointExtension>
            <ns3:hr>141</ns3:hr>
            <ns3:cad>79</ns3:cad>
          </ns3:TrackPointExtension>
        </extensions>
      </trkpt>
      <trkpt lat="52.27591984905302524566650390625" lon="1.6205774433910846710205078125">
        <ele>43.200000762939453125</ele>
        <time>2025-09-07T09:41:27.000Z</time>
        <extensions>
          <ns3:TrackPointExtension>
            <ns3:hr>139</ns3:hr>
            <ns3:cad>80</ns3:cad>
          </ns3:TrackPointExtension>
        </extensions>
      </trkpt>
      <trkpt lat="52.27583301253616809844970703125" lon="1.620447523891925811767578125">
        <ele>43.200000762939453125</ele>
        <time>2025-09-07T09:41:33.000Z</time>
        <extensions>
          <ns3:TrackPointExtension>
            <ns3:hr>139</ns3:hr>
            <ns3:cad>79</ns3:cad>
          </ns3:TrackPointExtension>
        </extensions>
      </trkpt>
      <trkpt lat="52.27573804557323455810546875" lon="1.620247028768062591552734375">
        <ele>43.200000762939453125</ele>
        <time>2025-09-07T09:41:41.000Z</time>
        <extensions>
          <ns3:TrackPointExtension>
            <ns3:hr>139</ns3:hr>
            <ns3:cad>80</ns3:cad>
          </ns3:TrackPointExtension>
        </extensions>
      </trkpt>
      <trkpt lat="52.27566721849143505096435546875" lon="1.62009389139711856842041015625">
        <ele>43</ele>
        <time>2025-09-07T09:41:48.000Z</time>
        <extensions>
          <ns3:TrackPointExtension>
            <ns3:hr>141</ns3:hr>
            <ns3:cad>80</ns3:cad>
          </ns3:TrackPointExtension>
        </extensions>
      </trkpt>
      <trkpt lat="52.2756206989288330078125" lon="1.620011664927005767822265625">
        <ele>42.799999237060546875</ele>
        <time>2025-09-07T09:41:53.000Z</time>
        <extensions>
          <ns3:TrackPointExtension>
            <ns3:hr>138</ns3:hr>
            <ns3:cad>79</ns3:cad>
          </ns3:TrackPointExtension>
        </extensions>
      </trkpt>
      <trkpt lat="52.27559999562799930572509765625" lon="1.61997537128627300262451171875">
        <ele>42.59999847412109375</ele>
        <time>2025-09-07T09:41:56.000Z</time>
        <extensions>
          <ns3:TrackPointExtension>
            <ns3:hr>141</ns3:hr>
            <ns3:cad>79</ns3:cad>
          </ns3:TrackPointExtension>
        </extensions>
      </trkpt>
      <trkpt lat="52.2755440883338451385498046875" lon="1.61990261636674404144287109375">
        <ele>42.200000762939453125</ele>
        <time>2025-09-07T09:42:03.000Z</time>
        <extensions>
          <ns3:TrackPointExtension>
            <ns3:hr>139</ns3:hr>
            <ns3:cad>58</ns3:cad>
          </ns3:TrackPointExtension>
        </extensions>
      </trkpt>
      <trkpt lat="52.27551735006272792816162109375" lon="1.61985266022384166717529296875">
        <ele>42</ele>
        <time>2025-09-07T09:42:06.000Z</time>
        <extensions>
          <ns3:TrackPointExtension>
            <ns3:hr>139</ns3:hr>
            <ns3:cad>58</ns3:cad>
          </ns3:TrackPointExtension>
        </extensions>
      </trkpt>
      <trkpt lat="52.27546605281531810760498046875" lon="1.61974168382585048675537109375">
        <ele>41.799999237060546875</ele>
        <time>2025-09-07T09:42:11.000Z</time>
        <extensions>
          <ns3:TrackPointExtension>
            <ns3:hr>136</ns3:hr>
            <ns3:cad>78</ns3:cad>
          </ns3:TrackPointExtension>
        </extensions>
      </trkpt>
      <trkpt lat="52.2754270769655704498291015625" lon="1.619638502597808837890625">
        <ele>41.40000152587890625</ele>
        <time>2025-09-07T09:42:15.000Z</time>
        <extensions>
          <ns3:TrackPointExtension>
            <ns3:hr>135</ns3:hr>
            <ns3:cad>79</ns3:cad>
          </ns3:TrackPointExtension>
        </extensions>
      </trkpt>
      <trkpt lat="52.275388352572917938232421875" lon="1.6195538453757762908935546875">
        <ele>41.200000762939453125</ele>
        <time>2025-09-07T09:42:18.000Z</time>
        <extensions>
          <ns3:TrackPointExtension>
            <ns3:hr>137</ns3:hr>
            <ns3:cad>79</ns3:cad>
          </ns3:TrackPointExtension>
        </extensions>
      </trkpt>
      <trkpt lat="52.275356836616992950439453125" lon="1.6194686852395534515380859375">
        <ele>40.799999237060546875</ele>
        <time>2025-09-07T09:42:21.000Z</time>
        <extensions>
          <ns3:TrackPointExtension>
            <ns3:hr>140</ns3:hr>
            <ns3:cad>79</ns3:cad>
          </ns3:TrackPointExtension>
        </extensions>
      </trkpt>
      <trkpt lat="52.27533881552517414093017578125" lon="1.61940716207027435302734375">
        <ele>40.40000152587890625</ele>
        <time>2025-09-07T09:42:23.000Z</time>
        <extensions>
          <ns3:TrackPointExtension>
            <ns3:hr>137</ns3:hr>
            <ns3:cad>79</ns3:cad>
          </ns3:TrackPointExtension>
        </extensions>
      </trkpt>
      <trkpt lat="52.27531182579696178436279296875" lon="1.61933482624590396881103515625">
        <ele>40</ele>
        <time>2025-09-07T09:42:26.000Z</time>
        <extensions>
          <ns3:TrackPointExtension>
            <ns3:hr>139</ns3:hr>
            <ns3:cad>79</ns3:cad>
          </ns3:TrackPointExtension>
        </extensions>
      </trkpt>
      <trkpt lat="52.2752658091485500335693359375" lon="1.6192333213984966278076171875">
        <ele>39.40000152587890625</ele>
        <time>2025-09-07T09:42:30.000Z</time>
        <extensions>
          <ns3:TrackPointExtension>
            <ns3:hr>137</ns3:hr>
            <ns3:cad>79</ns3:cad>
          </ns3:TrackPointExtension>
        </extensions>
      </trkpt>
      <trkpt lat="52.27524611167609691619873046875" lon="1.619182191789150238037109375">
        <ele>39.200000762939453125</ele>
        <time>2025-09-07T09:42:32.000Z</time>
        <extensions>
          <ns3:TrackPointExtension>
            <ns3:hr>140</ns3:hr>
            <ns3:cad>79</ns3:cad>
          </ns3:TrackPointExtension>
        </extensions>
      </trkpt>
      <trkpt lat="52.27523923851549625396728515625" lon="1.619121842086315155029296875">
        <ele>38.799999237060546875</ele>
        <time>2025-09-07T09:42:34.000Z</time>
        <extensions>
          <ns3:TrackPointExtension>
            <ns3:hr>139</ns3:hr>
            <ns3:cad>79</ns3:cad>
          </ns3:TrackPointExtension>
        </extensions>
      </trkpt>
      <trkpt lat="52.27525927126407623291015625" lon="1.6190764121711254119873046875">
        <ele>38.59999847412109375</ele>
        <time>2025-09-07T09:42:36.000Z</time>
        <extensions>
          <ns3:TrackPointExtension>
            <ns3:hr>141</ns3:hr>
            <ns3:cad>79</ns3:cad>
          </ns3:TrackPointExtension>
        </extensions>
      </trkpt>
      <trkpt lat="52.27524879388511180877685546875" lon="1.61906559951603412628173828125">
        <ele>37.799999237060546875</ele>
        <time>2025-09-07T09:42:41.000Z</time>
        <extensions>
          <ns3:TrackPointExtension>
            <ns3:hr>141</ns3:hr>
            <ns3:cad>77</ns3:cad>
          </ns3:TrackPointExtension>
        </extensions>
      </trkpt>
      <trkpt lat="52.2752396576106548309326171875" lon="1.6190712153911590576171875">
        <ele>37.59999847412109375</ele>
        <time>2025-09-07T09:42:42.000Z</time>
        <extensions>
          <ns3:TrackPointExtension>
            <ns3:hr>141</ns3:hr>
            <ns3:cad>0</ns3:cad>
          </ns3:TrackPointExtension>
        </extensions>
      </trkpt>
      <trkpt lat="52.2752004303038120269775390625" lon="1.61909158341586589813232421875">
        <ele>36.799999237060546875</ele>
        <time>2025-09-07T09:42:47.000Z</time>
        <extensions>
          <ns3:TrackPointExtension>
            <ns3:hr>141</ns3:hr>
            <ns3:cad>0</ns3:cad>
          </ns3:TrackPointExtension>
        </extensions>
      </trkpt>
      <trkpt lat="52.2751903720200061798095703125" lon="1.6190978698432445526123046875">
        <ele>36.59999847412109375</ele>
        <time>2025-09-07T09:42:48.000Z</time>
        <extensions>
          <ns3:TrackPointExtension>
            <ns3:hr>140</ns3:hr>
            <ns3:cad>52</ns3:cad>
          </ns3:TrackPointExtension>
        </extensions>
      </trkpt>
      <trkpt lat="52.2751669026911258697509765625" lon="1.61911572329699993133544921875">
        <ele>36</ele>
        <time>2025-09-07T09:42:52.000Z</time>
        <extensions>
          <ns3:TrackPointExtension>
            <ns3:hr>136</ns3:hr>
            <ns3:cad>0</ns3:cad>
          </ns3:TrackPointExtension>
        </extensions>
      </trkpt>
      <trkpt lat="52.275159694254398345947265625" lon="1.61912578158080577850341796875">
        <ele>35.799999237060546875</ele>
        <time>2025-09-07T09:42:53.000Z</time>
        <extensions>
          <ns3:TrackPointExtension>
            <ns3:hr>136</ns3:hr>
            <ns3:cad>0</ns3:cad>
          </ns3:TrackPointExtension>
        </extensions>
      </trkpt>
      <trkpt lat="52.2751555033028125762939453125" lon="1.6191347502171993255615234375">
        <ele>35.200000762939453125</ele>
        <time>2025-09-07T09:42:55.000Z</time>
        <extensions>
          <ns3:TrackPointExtension>
            <ns3:hr>139</ns3:hr>
            <ns3:cad>0</ns3:cad>
          </ns3:TrackPointExtension>
        </extensions>
      </trkpt>
      <trkpt lat="52.27515609003603458404541015625" lon="1.61910331808030605316162109375">
        <ele>34.59999847412109375</ele>
        <time>2025-09-07T09:42:58.000Z</time>
        <extensions>
          <ns3:TrackPointExtension>
            <ns3:hr>138</ns3:hr>
            <ns3:cad>0</ns3:cad>
          </ns3:TrackPointExtension>
        </extensions>
      </trkpt>
      <trkpt lat="52.2751511447131633758544921875" lon="1.6191002167761325836181640625">
        <ele>34.200000762939453125</ele>
        <time>2025-09-07T09:43:00.000Z</time>
        <extensions>
          <ns3:TrackPointExtension>
            <ns3:hr>132</ns3:hr>
            <ns3:cad>0</ns3:cad>
          </ns3:TrackPointExtension>
        </extensions>
      </trkpt>
      <trkpt lat="52.275152318179607391357421875" lon="1.61909468472003936767578125">
        <ele>34</ele>
        <time>2025-09-07T09:43:01.000Z</time>
        <extensions>
          <ns3:TrackPointExtension>
            <ns3:hr>126</ns3:hr>
            <ns3:cad>0</ns3:cad>
          </ns3:TrackPointExtension>
        </extensions>
      </trkpt>
      <trkpt lat="52.2751521505415439605712890625" lon="1.61909158341586589813232421875">
        <ele>33.799999237060546875</ele>
        <time>2025-09-07T09:43:02.000Z</time>
        <extensions>
          <ns3:TrackPointExtension>
            <ns3:hr>121</ns3:hr>
            <ns3:cad>0</ns3:cad>
          </ns3:TrackPointExtension>
        </extensions>
      </trkpt>
      <trkpt lat="52.27515391074120998382568359375" lon="1.6190888173878192901611328125">
        <ele>33.59999847412109375</ele>
        <time>2025-09-07T09:43:03.000Z</time>
        <extensions>
          <ns3:TrackPointExtension>
            <ns3:hr>122</ns3:hr>
            <ns3:cad>0</ns3:cad>
          </ns3:TrackPointExtension>
        </extensions>
      </trkpt>
      <trkpt lat="52.27515240199863910675048828125" lon="1.619075573980808258056640625">
        <ele>33.200000762939453125</ele>
        <time>2025-09-07T09:43:05.000Z</time>
        <extensions>
          <ns3:TrackPointExtension>
            <ns3:hr>119</ns3:hr>
            <ns3:cad>0</ns3:cad>
          </ns3:TrackPointExtension>
        </extensions>
      </trkpt>
      <trkpt lat="52.27514049969613552093505859375" lon="1.6190505959093570709228515625">
        <ele>32.59999847412109375</ele>
        <time>2025-09-07T09:43:08.000Z</time>
        <extensions>
          <ns3:TrackPointExtension>
            <ns3:hr>118</ns3:hr>
            <ns3:cad>0</ns3:cad>
          </ns3:TrackPointExtension>
        </extensions>
      </trkpt>
      <trkpt lat="52.275128848850727081298828125" lon="1.6190443933010101318359375">
        <ele>32.200000762939453125</ele>
        <time>2025-09-07T09:43:10.000Z</time>
        <extensions>
          <ns3:TrackPointExtension>
            <ns3:hr>118</ns3:hr>
            <ns3:cad>47</ns3:cad>
          </ns3:TrackPointExtension>
        </extensions>
      </trkpt>
      <trkpt lat="52.275130860507488250732421875" lon="1.61902519874274730682373046875">
        <ele>31.3999996185302734375</ele>
        <time>2025-09-07T09:43:14.000Z</time>
        <extensions>
          <ns3:TrackPointExtension>
            <ns3:hr>118</ns3:hr>
            <ns3:cad>0</ns3:cad>
          </ns3:TrackPointExtension>
        </extensions>
      </trkpt>
      <trkpt lat="52.27513647638261318206787109375" lon="1.61900726146996021270751953125">
        <ele>30.799999237060546875</ele>
        <time>2025-09-07T09:43:18.000Z</time>
        <extensions>
          <ns3:TrackPointExtension>
            <ns3:hr>114</ns3:hr>
            <ns3:cad>0</ns3:cad>
          </ns3:TrackPointExtension>
        </extensions>
      </trkpt>
      <trkpt lat="52.27513463236391544342041015625" lon="1.61900751292705535888671875">
        <ele>30.6000003814697265625</ele>
        <time>2025-09-07T09:43:19.000Z</time>
        <extensions>
          <ns3:TrackPointExtension>
            <ns3:hr>116</ns3:hr>
            <ns3:cad>0</ns3:cad>
          </ns3:TrackPointExtension>
        </extensions>
      </trkpt>
      <trkpt lat="52.27512122131884098052978515625" lon="1.61902251653373241424560546875">
        <ele>30.6000003814697265625</ele>
        <time>2025-09-07T09:43:21.000Z</time>
        <extensions>
          <ns3:TrackPointExtension>
            <ns3:hr>113</ns3:hr>
            <ns3:cad>0</ns3:cad>
          </ns3:TrackPointExtension>
        </extensions>
      </trkpt>
      <trkpt lat="52.275102697312831878662109375" lon="1.6190524399280548095703125">
        <ele>30.200000762939453125</ele>
        <time>2025-09-07T09:43:25.000Z</time>
        <extensions>
          <ns3:TrackPointExtension>
            <ns3:hr>114</ns3:hr>
            <ns3:cad>0</ns3:cad>
          </ns3:TrackPointExtension>
        </extensions>
      </trkpt>
      <trkpt lat="52.27512038312852382659912109375" lon="1.61907549016177654266357421875">
        <ele>30.200000762939453125</ele>
        <time>2025-09-07T09:43:27.000Z</time>
        <extensions>
          <ns3:TrackPointExtension>
            <ns3:hr>114</ns3:hr>
            <ns3:cad>0</ns3:cad>
          </ns3:TrackPointExtension>
        </extensions>
      </trkpt>
      <trkpt lat="52.27514200843870639801025390625" lon="1.61914958618581295013427734375">
        <ele>29.6000003814697265625</ele>
        <time>2025-09-07T09:43:34.000Z</time>
        <extensions>
          <ns3:TrackPointExtension>
            <ns3:hr>113</ns3:hr>
            <ns3:cad>0</ns3:cad>
          </ns3:TrackPointExtension>
        </extensions>
      </trkpt>
      <trkpt lat="52.275145947933197021484375" lon="1.61915360949933528900146484375">
        <ele>29.200000762939453125</ele>
        <time>2025-09-07T09:43:36.000Z</time>
        <extensions>
          <ns3:TrackPointExtension>
            <ns3:hr>112</ns3:hr>
            <ns3:cad>0</ns3:cad>
          </ns3:TrackPointExtension>
        </extensions>
      </trkpt>
      <trkpt lat="52.2751528210937976837158203125" lon="1.6190777532756328582763671875">
        <ele>28.200000762939453125</ele>
        <time>2025-09-07T09:43:42.000Z</time>
        <extensions>
          <ns3:TrackPointExtension>
            <ns3:hr>112</ns3:hr>
            <ns3:cad>0</ns3:cad>
          </ns3:TrackPointExtension>
        </extensions>
      </trkpt>
      <trkpt lat="52.275162041187286376953125" lon="1.61903592757880687713623046875">
        <ele>27.799999237060546875</ele>
        <time>2025-09-07T09:43:43.000Z</time>
        <extensions>
          <ns3:TrackPointExtension>
            <ns3:hr>112</ns3:hr>
            <ns3:cad>0</ns3:cad>
          </ns3:TrackPointExtension>
        </extensions>
      </trkpt>
      <trkpt lat="52.27516271173954010009765625" lon="1.6189076006412506103515625">
        <ele>27</ele>
        <time>2025-09-07T09:43:47.000Z</time>
        <extensions>
          <ns3:TrackPointExtension>
            <ns3:hr>116</ns3:hr>
            <ns3:cad>79</ns3:cad>
          </ns3:TrackPointExtension>
        </extensions>
      </trkpt>
      <trkpt lat="52.2751672379672527313232421875" lon="1.61887113936245441436767578125">
        <ele>26.799999237060546875</ele>
        <time>2025-09-07T09:43:48.000Z</time>
        <extensions>
          <ns3:TrackPointExtension>
            <ns3:hr>119</ns3:hr>
            <ns3:cad>79</ns3:cad>
          </ns3:TrackPointExtension>
        </extensions>
      </trkpt>
      <trkpt lat="52.27516011334955692291259765625" lon="1.61884599365293979644775390625">
        <ele>26.6000003814697265625</ele>
        <time>2025-09-07T09:43:49.000Z</time>
        <extensions>
          <ns3:TrackPointExtension>
            <ns3:hr>120</ns3:hr>
            <ns3:cad>79</ns3:cad>
          </ns3:TrackPointExtension>
        </extensions>
      </trkpt>
      <trkpt lat="52.27515391074120998382568359375" lon="1.61879855208098888397216796875">
        <ele>26.200000762939453125</ele>
        <time>2025-09-07T09:43:51.000Z</time>
        <extensions>
          <ns3:TrackPointExtension>
            <ns3:hr>123</ns3:hr>
            <ns3:cad>79</ns3:cad>
          </ns3:TrackPointExtension>
        </extensions>
      </trkpt>
      <trkpt lat="52.27515139617025852203369140625" lon="1.6187734901905059814453125">
        <ele>26</ele>
        <time>2025-09-07T09:43:52.000Z</time>
        <extensions>
          <ns3:TrackPointExtension>
            <ns3:hr>126</ns3:hr>
            <ns3:cad>80</ns3:cad>
          </ns3:TrackPointExtension>
        </extensions>
      </trkpt>
      <trkpt lat="52.27514586411416530609130859375" lon="1.61866712383925914764404296875">
        <ele>25.3999996185302734375</ele>
        <time>2025-09-07T09:43:55.000Z</time>
        <extensions>
          <ns3:TrackPointExtension>
            <ns3:hr>130</ns3:hr>
            <ns3:cad>80</ns3:cad>
          </ns3:TrackPointExtension>
        </extensions>
      </trkpt>
      <trkpt lat="52.27513446472585201263427734375" lon="1.61860962398350238800048828125">
        <ele>25</ele>
        <time>2025-09-07T09:43:57.000Z</time>
        <extensions>
          <ns3:TrackPointExtension>
            <ns3:hr>133</ns3:hr>
            <ns3:cad>80</ns3:cad>
          </ns3:TrackPointExtension>
        </extensions>
      </trkpt>
      <trkpt lat="52.2751253284513950347900390625" lon="1.61856100894510746002197265625">
        <ele>24.6000003814697265625</ele>
        <time>2025-09-07T09:43:59.000Z</time>
        <extensions>
          <ns3:TrackPointExtension>
            <ns3:hr>135</ns3:hr>
            <ns3:cad>81</ns3:cad>
          </ns3:TrackPointExtension>
        </extensions>
      </trkpt>
      <trkpt lat="52.27511535398662090301513671875" lon="1.618482135236263275146484375">
        <ele>24</ele>
        <time>2025-09-07T09:44:02.000Z</time>
        <extensions>
          <ns3:TrackPointExtension>
            <ns3:hr>137</ns3:hr>
            <ns3:cad>81</ns3:cad>
          </ns3:TrackPointExtension>
        </extensions>
      </trkpt>
      <trkpt lat="52.275079227983951568603515625" lon="1.61830854602158069610595703125">
        <ele>22.799999237060546875</ele>
        <time>2025-09-07T09:44:08.000Z</time>
        <extensions>
          <ns3:TrackPointExtension>
            <ns3:hr>137</ns3:hr>
            <ns3:cad>80</ns3:cad>
          </ns3:TrackPointExtension>
        </extensions>
      </trkpt>
      <trkpt lat="52.2749949060380458831787109375" lon="1.61812548525631427764892578125">
        <ele>21.799999237060546875</ele>
        <time>2025-09-07T09:44:15.000Z</time>
        <extensions>
          <ns3:TrackPointExtension>
            <ns3:hr>137</ns3:hr>
            <ns3:cad>79</ns3:cad>
          </ns3:TrackPointExtension>
        </extensions>
      </trkpt>
      <trkpt lat="52.27498761378228664398193359375" lon="1.61810033954679965972900390625">
        <ele>21.6000003814697265625</ele>
        <time>2025-09-07T09:44:16.000Z</time>
        <extensions>
          <ns3:TrackPointExtension>
            <ns3:hr>136</ns3:hr>
            <ns3:cad>80</ns3:cad>
          </ns3:TrackPointExtension>
        </extensions>
      </trkpt>
      <trkpt lat="52.27494872175157070159912109375" lon="1.61787134595215320587158203125">
        <ele>21</ele>
        <time>2025-09-07T09:44:23.000Z</time>
        <extensions>
          <ns3:TrackPointExtension>
            <ns3:hr>140</ns3:hr>
            <ns3:cad>80</ns3:cad>
          </ns3:TrackPointExtension>
        </extensions>
      </trkpt>
      <trkpt lat="52.27494453079998493194580078125" lon="1.61779959686100482940673828125">
        <ele>20.6000003814697265625</ele>
        <time>2025-09-07T09:44:25.000Z</time>
        <extensions>
          <ns3:TrackPointExtension>
            <ns3:hr>140</ns3:hr>
            <ns3:cad>80</ns3:cad>
          </ns3:TrackPointExtension>
        </extensions>
      </trkpt>
      <trkpt lat="52.274926342070102691650390625" lon="1.617706306278705596923828125">
        <ele>20.200000762939453125</ele>
        <time>2025-09-07T09:44:28.000Z</time>
        <extensions>
          <ns3:TrackPointExtension>
            <ns3:hr>143</ns3:hr>
            <ns3:cad>78</ns3:cad>
          </ns3:TrackPointExtension>
        </extensions>
      </trkpt>
      <trkpt lat="52.2748862765729427337646484375" lon="1.61762324161827564239501953125">
        <ele>19.799999237060546875</ele>
        <time>2025-09-07T09:44:31.000Z</time>
        <extensions>
          <ns3:TrackPointExtension>
            <ns3:hr>143</ns3:hr>
            <ns3:cad>77</ns3:cad>
          </ns3:TrackPointExtension>
        </extensions>
      </trkpt>
      <trkpt lat="52.27486490271985530853271484375" lon="1.61755912005901336669921875">
        <ele>19.6000003814697265625</ele>
        <time>2025-09-07T09:44:33.000Z</time>
        <extensions>
          <ns3:TrackPointExtension>
            <ns3:hr>141</ns3:hr>
            <ns3:cad>78</ns3:cad>
          </ns3:TrackPointExtension>
        </extensions>
      </trkpt>
      <trkpt lat="52.2748473845422267913818359375" lon="1.617375053465366363525390625">
        <ele>18.799999237060546875</ele>
        <time>2025-09-07T09:44:39.000Z</time>
        <extensions>
          <ns3:TrackPointExtension>
            <ns3:hr>142</ns3:hr>
            <ns3:cad>80</ns3:cad>
          </ns3:TrackPointExtension>
        </extensions>
      </trkpt>
      <trkpt lat="52.2748544253408908843994140625" lon="1.6173269413411617279052734375">
        <ele>18.6000003814697265625</ele>
        <time>2025-09-07T09:44:41.000Z</time>
        <extensions>
          <ns3:TrackPointExtension>
            <ns3:hr>143</ns3:hr>
            <ns3:cad>79</ns3:cad>
          </ns3:TrackPointExtension>
        </extensions>
      </trkpt>
      <trkpt lat="52.274835146963596343994140625" lon="1.61716005764901638031005859375">
        <ele>17.799999237060546875</ele>
        <time>2025-09-07T09:44:47.000Z</time>
        <extensions>
          <ns3:TrackPointExtension>
            <ns3:hr>144</ns3:hr>
            <ns3:cad>80</ns3:cad>
          </ns3:TrackPointExtension>
        </extensions>
      </trkpt>
      <trkpt lat="52.27483724243938922882080078125" lon="1.6170823574066162109375">
        <ele>17.6000003814697265625</ele>
        <time>2025-09-07T09:44:50.000Z</time>
        <extensions>
          <ns3:TrackPointExtension>
            <ns3:hr>144</ns3:hr>
            <ns3:cad>80</ns3:cad>
          </ns3:TrackPointExtension>
        </extensions>
      </trkpt>
      <trkpt lat="52.2748373262584209442138671875" lon="1.61702242679893970489501953125">
        <ele>17</ele>
        <time>2025-09-07T09:44:54.000Z</time>
        <extensions>
          <ns3:TrackPointExtension>
            <ns3:hr>144</ns3:hr>
            <ns3:cad>0</ns3:cad>
          </ns3:TrackPointExtension>
        </extensions>
      </trkpt>
      <trkpt lat="52.274825088679790496826171875" lon="1.61703064106404781341552734375">
        <ele>16.3999996185302734375</ele>
        <time>2025-09-07T09:44:57.000Z</time>
        <extensions>
          <ns3:TrackPointExtension>
            <ns3:hr>144</ns3:hr>
            <ns3:cad>0</ns3:cad>
          </ns3:TrackPointExtension>
        </extensions>
      </trkpt>
      <trkpt lat="52.274817042052745819091796875" lon="1.61705310456454753875732421875">
        <ele>15.80000019073486328125</ele>
        <time>2025-09-07T09:45:02.000Z</time>
        <extensions>
          <ns3:TrackPointExtension>
            <ns3:hr>146</ns3:hr>
            <ns3:cad>0</ns3:cad>
          </ns3:TrackPointExtension>
        </extensions>
      </trkpt>
      <trkpt lat="52.274791896343231201171875" lon="1.61703852005302906036376953125">
        <ele>15.3999996185302734375</ele>
        <time>2025-09-07T09:45:05.000Z</time>
        <extensions>
          <ns3:TrackPointExtension>
            <ns3:hr>143</ns3:hr>
            <ns3:cad>0</ns3:cad>
          </ns3:TrackPointExtension>
        </extensions>
      </trkpt>
      <trkpt lat="52.27479583583772182464599609375" lon="1.6170501708984375">
        <ele>14.80000019073486328125</ele>
        <time>2025-09-07T09:45:10.000Z</time>
        <extensions>
          <ns3:TrackPointExtension>
            <ns3:hr>143</ns3:hr>
            <ns3:cad>0</ns3:cad>
          </ns3:TrackPointExtension>
        </extensions>
      </trkpt>
      <trkpt lat="52.27479851804673671722412109375" lon="1.61704740487039089202880859375">
        <ele>14.3999996185302734375</ele>
        <time>2025-09-07T09:45:13.000Z</time>
        <extensions>
          <ns3:TrackPointExtension>
            <ns3:hr>140</ns3:hr>
            <ns3:cad>0</ns3:cad>
          </ns3:TrackPointExtension>
        </extensions>
      </trkpt>
      <trkpt lat="52.27479868568480014801025390625" lon="1.6170473210513591766357421875">
        <ele>14.19999980926513671875</ele>
        <time>2025-09-07T09:45:14.000Z</time>
        <extensions>
          <ns3:TrackPointExtension>
            <ns3:hr>140</ns3:hr>
            <ns3:cad>0</ns3:cad>
          </ns3:TrackPointExtension>
        </extensions>
      </trkpt>
      <trkpt lat="52.27479985915124416351318359375" lon="1.61701555363833904266357421875">
        <ele>13.6000003814697265625</ele>
        <time>2025-09-07T09:45:20.000Z</time>
        <extensions>
          <ns3:TrackPointExtension>
            <ns3:hr>139</ns3:hr>
            <ns3:cad>0</ns3:cad>
          </ns3:TrackPointExtension>
        </extensions>
      </trkpt>
      <trkpt lat="52.27478577755391597747802734375" lon="1.6169319860637187957763671875">
        <ele>13.19999980926513671875</ele>
        <time>2025-09-07T09:45:23.000Z</time>
        <extensions>
          <ns3:TrackPointExtension>
            <ns3:hr>137</ns3:hr>
            <ns3:cad>77</ns3:cad>
          </ns3:TrackPointExtension>
        </extensions>
      </trkpt>
      <trkpt lat="52.274768091738224029541015625" lon="1.6168181598186492919921875">
        <ele>12.6000003814697265625</ele>
        <time>2025-09-07T09:45:27.000Z</time>
        <extensions>
          <ns3:TrackPointExtension>
            <ns3:hr>137</ns3:hr>
            <ns3:cad>78</ns3:cad>
          </ns3:TrackPointExtension>
        </extensions>
      </trkpt>
      <trkpt lat="52.27476113475859165191650390625" lon="1.61670693196356296539306640625">
        <ele>12</ele>
        <time>2025-09-07T09:45:31.000Z</time>
        <extensions>
          <ns3:TrackPointExtension>
            <ns3:hr>139</ns3:hr>
            <ns3:cad>79</ns3:cad>
          </ns3:TrackPointExtension>
        </extensions>
      </trkpt>
      <trkpt lat="52.27476482279598712921142578125" lon="1.61663250066339969635009765625">
        <ele>11.6000003814697265625</ele>
        <time>2025-09-07T09:45:34.000Z</time>
        <extensions>
          <ns3:TrackPointExtension>
            <ns3:hr>141</ns3:hr>
            <ns3:cad>79</ns3:cad>
          </ns3:TrackPointExtension>
        </extensions>
      </trkpt>
      <trkpt lat="52.2747699357569217681884765625" lon="1.61655873991549015045166015625">
        <ele>11</ele>
        <time>2025-09-07T09:45:37.000Z</time>
        <extensions>
          <ns3:TrackPointExtension>
            <ns3:hr>145</ns3:hr>
            <ns3:cad>80</ns3:cad>
          </ns3:TrackPointExtension>
        </extensions>
      </trkpt>
      <trkpt lat="52.2747719474136829376220703125" lon="1.61642127670347690582275390625">
        <ele>10.19999980926513671875</ele>
        <time>2025-09-07T09:45:42.000Z</time>
        <extensions>
          <ns3:TrackPointExtension>
            <ns3:hr>148</ns3:hr>
            <ns3:cad>79</ns3:cad>
          </ns3:TrackPointExtension>
        </extensions>
      </trkpt>
      <trkpt lat="52.27478049695491790771484375" lon="1.61637358367443084716796875">
        <ele>9.80000019073486328125</ele>
        <time>2025-09-07T09:45:44.000Z</time>
        <extensions>
          <ns3:TrackPointExtension>
            <ns3:hr>148</ns3:hr>
            <ns3:cad>79</ns3:cad>
          </ns3:TrackPointExtension>
        </extensions>
      </trkpt>
      <trkpt lat="52.2747853584587574005126953125" lon="1.61616194061934947967529296875">
        <ele>8.80000019073486328125</ele>
        <time>2025-09-07T09:45:52.000Z</time>
        <extensions>
          <ns3:TrackPointExtension>
            <ns3:hr>148</ns3:hr>
            <ns3:cad>80</ns3:cad>
          </ns3:TrackPointExtension>
        </extensions>
      </trkpt>
      <trkpt lat="52.274786531925201416015625" lon="1.61613645963370800018310546875">
        <ele>8.6000003814697265625</ele>
        <time>2025-09-07T09:45:53.000Z</time>
        <extensions>
          <ns3:TrackPointExtension>
            <ns3:hr>147</ns3:hr>
            <ns3:cad>80</ns3:cad>
          </ns3:TrackPointExtension>
        </extensions>
      </trkpt>
      <trkpt lat="52.274811007082462310791015625" lon="1.61591031588613986968994140625">
        <ele>7.599999904632568359375</ele>
        <time>2025-09-07T09:46:02.000Z</time>
        <extensions>
          <ns3:TrackPointExtension>
            <ns3:hr>144</ns3:hr>
            <ns3:cad>79</ns3:cad>
          </ns3:TrackPointExtension>
        </extensions>
      </trkpt>
      <trkpt lat="52.27481125853955745697021484375" lon="1.61588751710951328277587890625">
        <ele>7.599999904632568359375</ele>
        <time>2025-09-07T09:46:03.000Z</time>
        <extensions>
          <ns3:TrackPointExtension>
            <ns3:hr>144</ns3:hr>
            <ns3:cad>79</ns3:cad>
          </ns3:TrackPointExtension>
        </extensions>
      </trkpt>
      <trkpt lat="52.27482332848012447357177734375" lon="1.61566388793289661407470703125">
        <ele>7.19999980926513671875</ele>
        <time>2025-09-07T09:46:09.000Z</time>
        <extensions>
          <ns3:TrackPointExtension>
            <ns3:hr>147</ns3:hr>
            <ns3:cad>80</ns3:cad>
          </ns3:TrackPointExtension>
        </extensions>
      </trkpt>
      <trkpt lat="52.2748276032507419586181640625" lon="1.61562927067279815673828125">
        <ele>7.19999980926513671875</ele>
        <time>2025-09-07T09:46:10.000Z</time>
        <extensions>
          <ns3:TrackPointExtension>
            <ns3:hr>146</ns3:hr>
            <ns3:cad>79</ns3:cad>
          </ns3:TrackPointExtension>
        </extensions>
      </trkpt>
      <trkpt lat="52.2748500667512416839599609375" lon="1.61535023711621761322021484375">
        <ele>6.599999904632568359375</ele>
        <time>2025-09-07T09:46:19.000Z</time>
        <extensions>
          <ns3:TrackPointExtension>
            <ns3:hr>145</ns3:hr>
            <ns3:cad>80</ns3:cad>
          </ns3:TrackPointExtension>
        </extensions>
      </trkpt>
      <trkpt lat="52.2748683393001556396484375" lon="1.61513398401439189910888671875">
        <ele>6</ele>
        <time>2025-09-07T09:46:26.000Z</time>
        <extensions>
          <ns3:TrackPointExtension>
            <ns3:hr>147</ns3:hr>
            <ns3:cad>78</ns3:cad>
          </ns3:TrackPointExtension>
        </extensions>
      </trkpt>
      <trkpt lat="52.27486808784306049346923828125" lon="1.61502703092992305755615234375">
        <ele>5.599999904632568359375</ele>
        <time>2025-09-07T09:46:30.000Z</time>
        <extensions>
          <ns3:TrackPointExtension>
            <ns3:hr>147</ns3:hr>
            <ns3:cad>79</ns3:cad>
          </ns3:TrackPointExtension>
        </extensions>
      </trkpt>
      <trkpt lat="52.2748882882297039031982421875" lon="1.61489862017333507537841796875">
        <ele>5</ele>
        <time>2025-09-07T09:46:34.000Z</time>
        <extensions>
          <ns3:TrackPointExtension>
            <ns3:hr>150</ns3:hr>
            <ns3:cad>79</ns3:cad>
          </ns3:TrackPointExtension>
        </extensions>
      </trkpt>
      <trkpt lat="52.2748919762670993804931640625" lon="1.61487230099737644195556640625">
        <ele>5</ele>
        <time>2025-09-07T09:46:35.000Z</time>
        <extensions>
          <ns3:TrackPointExtension>
            <ns3:hr>147</ns3:hr>
            <ns3:cad>79</ns3:cad>
          </ns3:TrackPointExtension>
        </extensions>
      </trkpt>
      <trkpt lat="52.2748892940580844879150390625" lon="1.61481362767517566680908203125">
        <ele>4.80000019073486328125</ele>
        <time>2025-09-07T09:46:37.000Z</time>
        <extensions>
          <ns3:TrackPointExtension>
            <ns3:hr>148</ns3:hr>
            <ns3:cad>80</ns3:cad>
          </ns3:TrackPointExtension>
        </extensions>
      </trkpt>
      <trkpt lat="52.2748775593936443328857421875" lon="1.61474439315497875213623046875">
        <ele>4.400000095367431640625</ele>
        <time>2025-09-07T09:46:39.000Z</time>
        <extensions>
          <ns3:TrackPointExtension>
            <ns3:hr>149</ns3:hr>
            <ns3:cad>80</ns3:cad>
          </ns3:TrackPointExtension>
        </extensions>
      </trkpt>
      <trkpt lat="52.2748849354684352874755859375" lon="1.6145892441272735595703125">
        <ele>4</ele>
        <time>2025-09-07T09:46:43.000Z</time>
        <extensions>
          <ns3:TrackPointExtension>
            <ns3:hr>149</ns3:hr>
            <ns3:cad>79</ns3:cad>
          </ns3:TrackPointExtension>
        </extensions>
      </trkpt>
      <trkpt lat="52.2748688422143459320068359375" lon="1.614483632147312164306640625">
        <ele>3.400000095367431640625</ele>
        <time>2025-09-07T09:46:46.000Z</time>
        <extensions>
          <ns3:TrackPointExtension>
            <ns3:hr>147</ns3:hr>
            <ns3:cad>78</ns3:cad>
          </ns3:TrackPointExtension>
        </extensions>
      </trkpt>
      <trkpt lat="52.2748530842363834381103515625" lon="1.61430065520107746124267578125">
        <ele>2.599999904632568359375</ele>
        <time>2025-09-07T09:46:51.000Z</time>
        <extensions>
          <ns3:TrackPointExtension>
            <ns3:hr>149</ns3:hr>
            <ns3:cad>79</ns3:cad>
          </ns3:TrackPointExtension>
        </extensions>
      </trkpt>
      <trkpt lat="52.2748480550944805145263671875" lon="1.61426595412194728851318359375">
        <ele>2.400000095367431640625</ele>
        <time>2025-09-07T09:46:52.000Z</time>
        <extensions>
          <ns3:TrackPointExtension>
            <ns3:hr>148</ns3:hr>
            <ns3:cad>79</ns3:cad>
          </ns3:TrackPointExtension>
        </extensions>
      </trkpt>
      <trkpt lat="52.2748279385268688201904296875" lon="1.61408406682312488555908203125">
        <ele>1.2000000476837158203125</ele>
        <time>2025-09-07T09:46:58.000Z</time>
        <extensions>
          <ns3:TrackPointExtension>
            <ns3:hr>149</ns3:hr>
            <ns3:cad>80</ns3:cad>
          </ns3:TrackPointExtension>
        </extensions>
      </trkpt>
      <trkpt lat="52.27481310255825519561767578125" lon="1.613951884210109710693359375">
        <ele>0</ele>
        <time>2025-09-07T09:47:03.000Z</time>
        <extensions>
          <ns3:TrackPointExtension>
            <ns3:hr>149</ns3:hr>
            <ns3:cad>79</ns3:cad>
          </ns3:TrackPointExtension>
        </extensions>
      </trkpt>
      <trkpt lat="52.27480572648346424102783203125" lon="1.613801680505275726318359375">
        <ele>-1</ele>
        <time>2025-09-07T09:47:08.000Z</time>
        <extensions>
          <ns3:TrackPointExtension>
            <ns3:hr>150</ns3:hr>
            <ns3:cad>79</ns3:cad>
          </ns3:TrackPointExtension>
        </extensions>
      </trkpt>
      <trkpt lat="52.27479927241802215576171875" lon="1.61364301107823848724365234375">
        <ele>-2.400000095367431640625</ele>
        <time>2025-09-07T09:47:13.000Z</time>
        <extensions>
          <ns3:TrackPointExtension>
            <ns3:hr>148</ns3:hr>
            <ns3:cad>79</ns3:cad>
          </ns3:TrackPointExtension>
        </extensions>
      </trkpt>
      <trkpt lat="52.2747887112200260162353515625" lon="1.61354829557240009307861328125">
        <ele>-3</ele>
        <time>2025-09-07T09:47:16.000Z</time>
        <extensions>
          <ns3:TrackPointExtension>
            <ns3:hr>150</ns3:hr>
            <ns3:cad>79</ns3:cad>
          </ns3:TrackPointExtension>
        </extensions>
      </trkpt>
      <trkpt lat="52.27477513253688812255859375" lon="1.61347302608191967010498046875">
        <ele>-3.599999904632568359375</ele>
        <time>2025-09-07T09:47:18.000Z</time>
        <extensions>
          <ns3:TrackPointExtension>
            <ns3:hr>150</ns3:hr>
            <ns3:cad>80</ns3:cad>
          </ns3:TrackPointExtension>
        </extensions>
      </trkpt>
      <trkpt lat="52.27475694380700588226318359375" lon="1.61331452429294586181640625">
        <ele>-4.599999904632568359375</ele>
        <time>2025-09-07T09:47:23.000Z</time>
        <extensions>
          <ns3:TrackPointExtension>
            <ns3:hr>149</ns3:hr>
            <ns3:cad>78</ns3:cad>
          </ns3:TrackPointExtension>
        </extensions>
      </trkpt>
      <trkpt lat="52.27474629878997802734375" lon="1.61319022066891193389892578125">
        <ele>-5.80000019073486328125</ele>
        <time>2025-09-07T09:47:28.000Z</time>
        <extensions>
          <ns3:TrackPointExtension>
            <ns3:hr>151</ns3:hr>
            <ns3:cad>78</ns3:cad>
          </ns3:TrackPointExtension>
        </extensions>
      </trkpt>
      <trkpt lat="52.2747449576854705810546875" lon="1.6131762228906154632568359375">
        <ele>-6.400000095367431640625</ele>
        <time>2025-09-07T09:47:30.000Z</time>
        <extensions>
          <ns3:TrackPointExtension>
            <ns3:hr>151</ns3:hr>
            <ns3:cad>0</ns3:cad>
          </ns3:TrackPointExtension>
        </extensions>
      </trkpt>
      <trkpt lat="52.2747498191893100738525390625" lon="1.613178737461566925048828125">
        <ele>-7</ele>
        <time>2025-09-07T09:47:33.000Z</time>
        <extensions>
          <ns3:TrackPointExtension>
            <ns3:hr>147</ns3:hr>
            <ns3:cad>0</ns3:cad>
          </ns3:TrackPointExtension>
        </extensions>
      </trkpt>
      <trkpt lat="52.274752669036388397216796875" lon="1.61317647434771060943603515625">
        <ele>-7.400000095367431640625</ele>
        <time>2025-09-07T09:47:35.000Z</time>
        <extensions>
          <ns3:TrackPointExtension>
            <ns3:hr>150</ns3:hr>
            <ns3:cad>0</ns3:cad>
          </ns3:TrackPointExtension>
        </extensions>
      </trkpt>
      <trkpt lat="52.27474822662770748138427734375" lon="1.61316976882517337799072265625">
        <ele>-8</ele>
        <time>2025-09-07T09:47:38.000Z</time>
        <extensions>
          <ns3:TrackPointExtension>
            <ns3:hr>151</ns3:hr>
            <ns3:cad>0</ns3:cad>
          </ns3:TrackPointExtension>
        </extensions>
      </trkpt>
      <trkpt lat="52.27474772371351718902587890625" lon="1.61315895617008209228515625">
        <ele>-8</ele>
        <time>2025-09-07T09:47:39.000Z</time>
        <extensions>
          <ns3:TrackPointExtension>
            <ns3:hr>150</ns3:hr>
            <ns3:cad>0</ns3:cad>
          </ns3:TrackPointExtension>
        </extensions>
      </trkpt>
      <trkpt lat="52.27472056634724140167236328125" lon="1.61307840608060359954833984375">
        <ele>-8.6000003814697265625</ele>
        <time>2025-09-07T09:47:43.000Z</time>
        <extensions>
          <ns3:TrackPointExtension>
            <ns3:hr>145</ns3:hr>
            <ns3:cad>75</ns3:cad>
          </ns3:TrackPointExtension>
        </extensions>
      </trkpt>
      <trkpt lat="52.27471436373889446258544921875" lon="1.6130528412759304046630859375">
        <ele>-8.6000003814697265625</ele>
        <time>2025-09-07T09:47:44.000Z</time>
        <extensions>
          <ns3:TrackPointExtension>
            <ns3:hr>144</ns3:hr>
            <ns3:cad>75</ns3:cad>
          </ns3:TrackPointExtension>
        </extensions>
      </trkpt>
      <trkpt lat="52.2746847756206989288330078125" lon="1.6128818504512310028076171875">
        <ele>-9.19999980926513671875</ele>
        <time>2025-09-07T09:47:49.000Z</time>
        <extensions>
          <ns3:TrackPointExtension>
            <ns3:hr>141</ns3:hr>
            <ns3:cad>79</ns3:cad>
          </ns3:TrackPointExtension>
        </extensions>
      </trkpt>
      <trkpt lat="52.27467111311852931976318359375" lon="1.6128010489046573638916015625">
        <ele>-9.3999996185302734375</ele>
        <time>2025-09-07T09:47:52.000Z</time>
        <extensions>
          <ns3:TrackPointExtension>
            <ns3:hr>143</ns3:hr>
            <ns3:cad>80</ns3:cad>
          </ns3:TrackPointExtension>
        </extensions>
      </trkpt>
      <trkpt lat="52.2746324725449085235595703125" lon="1.61263014189898967742919921875">
        <ele>-10.19999980926513671875</ele>
        <time>2025-09-07T09:47:58.000Z</time>
        <extensions>
          <ns3:TrackPointExtension>
            <ns3:hr>144</ns3:hr>
            <ns3:cad>79</ns3:cad>
          </ns3:TrackPointExtension>
        </extensions>
      </trkpt>
      <trkpt lat="52.27461554110050201416015625" lon="1.61256618797779083251953125">
        <ele>-10.6000003814697265625</ele>
        <time>2025-09-07T09:48:00.000Z</time>
        <extensions>
          <ns3:TrackPointExtension>
            <ns3:hr>144</ns3:hr>
            <ns3:cad>79</ns3:cad>
          </ns3:TrackPointExtension>
        </extensions>
      </trkpt>
      <trkpt lat="52.27458737790584564208984375" lon="1.61247842945158481597900390625">
        <ele>-11</ele>
        <time>2025-09-07T09:48:03.000Z</time>
        <extensions>
          <ns3:TrackPointExtension>
            <ns3:hr>147</ns3:hr>
            <ns3:cad>80</ns3:cad>
          </ns3:TrackPointExtension>
        </extensions>
      </trkpt>
      <trkpt lat="52.2745513357222080230712890625" lon="1.6124295629560947418212890625">
        <ele>-11.3999996185302734375</ele>
        <time>2025-09-07T09:48:06.000Z</time>
        <extensions>
          <ns3:TrackPointExtension>
            <ns3:hr>146</ns3:hr>
            <ns3:cad>80</ns3:cad>
          </ns3:TrackPointExtension>
        </extensions>
      </trkpt>
      <trkpt lat="52.27453373372554779052734375" lon="1.6123853065073490142822265625">
        <ele>-11.6000003814697265625</ele>
        <time>2025-09-07T09:48:08.000Z</time>
        <extensions>
          <ns3:TrackPointExtension>
            <ns3:hr>147</ns3:hr>
            <ns3:cad>79</ns3:cad>
          </ns3:TrackPointExtension>
        </extensions>
      </trkpt>
      <trkpt lat="52.27451487444341182708740234375" lon="1.612188331782817840576171875">
        <ele>-12.3999996185302734375</ele>
        <time>2025-09-07T09:48:13.000Z</time>
        <extensions>
          <ns3:TrackPointExtension>
            <ns3:hr>150</ns3:hr>
            <ns3:cad>80</ns3:cad>
          </ns3:TrackPointExtension>
        </extensions>
      </trkpt>
      <trkpt lat="52.2745043970644474029541015625" lon="1.6121600009500980377197265625">
        <ele>-12.6000003814697265625</ele>
        <time>2025-09-07T09:48:14.000Z</time>
        <extensions>
          <ns3:TrackPointExtension>
            <ns3:hr>149</ns3:hr>
            <ns3:cad>80</ns3:cad>
          </ns3:TrackPointExtension>
        </extensions>
      </trkpt>
      <trkpt lat="52.27447866462171077728271484375" lon="1.6120781935751438140869140625">
        <ele>-13.19999980926513671875</ele>
        <time>2025-09-07T09:48:17.000Z</time>
        <extensions>
          <ns3:TrackPointExtension>
            <ns3:hr>143</ns3:hr>
            <ns3:cad>80</ns3:cad>
          </ns3:TrackPointExtension>
        </extensions>
      </trkpt>
      <trkpt lat="52.27445050142705440521240234375" lon="1.61202362738549709320068359375">
        <ele>-13.6000003814697265625</ele>
        <time>2025-09-07T09:48:19.000Z</time>
        <extensions>
          <ns3:TrackPointExtension>
            <ns3:hr>141</ns3:hr>
            <ns3:cad>80</ns3:cad>
          </ns3:TrackPointExtension>
        </extensions>
      </trkpt>
      <trkpt lat="52.27442485280334949493408203125" lon="1.61196126602590084075927734375">
        <ele>-13.80000019073486328125</ele>
        <time>2025-09-07T09:48:21.000Z</time>
        <extensions>
          <ns3:TrackPointExtension>
            <ns3:hr>140</ns3:hr>
            <ns3:cad>80</ns3:cad>
          </ns3:TrackPointExtension>
        </extensions>
      </trkpt>
      <trkpt lat="52.2743910737335681915283203125" lon="1.61186537705361843109130859375">
        <ele>-14.6000003814697265625</ele>
        <time>2025-09-07T09:48:24.000Z</time>
        <extensions>
          <ns3:TrackPointExtension>
            <ns3:hr>139</ns3:hr>
            <ns3:cad>79</ns3:cad>
          </ns3:TrackPointExtension>
        </extensions>
      </trkpt>
      <trkpt lat="52.27436064742505550384521484375" lon="1.61174702458083629608154296875">
        <ele>-15.6000003814697265625</ele>
        <time>2025-09-07T09:48:29.000Z</time>
        <extensions>
          <ns3:TrackPointExtension>
            <ns3:hr>141</ns3:hr>
            <ns3:cad>79</ns3:cad>
          </ns3:TrackPointExtension>
        </extensions>
      </trkpt>
      <trkpt lat="52.27442753501236438751220703125" lon="1.61164677701890468597412109375">
        <ele>-16.799999237060546875</ele>
        <time>2025-09-07T09:48:34.000Z</time>
        <extensions>
          <ns3:TrackPointExtension>
            <ns3:hr>141</ns3:hr>
            <ns3:cad>79</ns3:cad>
          </ns3:TrackPointExtension>
        </extensions>
      </trkpt>
      <trkpt lat="52.27447732351720333099365234375" lon="1.6114864312112331390380859375">
        <ele>-17.799999237060546875</ele>
        <time>2025-09-07T09:48:39.000Z</time>
        <extensions>
          <ns3:TrackPointExtension>
            <ns3:hr>144</ns3:hr>
            <ns3:cad>80</ns3:cad>
          </ns3:TrackPointExtension>
        </extensions>
      </trkpt>
      <trkpt lat="52.2744819335639476776123046875" lon="1.61146287806332111358642578125">
        <ele>-18</ele>
        <time>2025-09-07T09:48:40.000Z</time>
        <extensions>
          <ns3:TrackPointExtension>
            <ns3:hr>145</ns3:hr>
            <ns3:cad>80</ns3:cad>
          </ns3:TrackPointExtension>
        </extensions>
      </trkpt>
      <trkpt lat="52.27451990358531475067138671875" lon="1.61136497743427753448486328125">
        <ele>-18.799999237060546875</ele>
        <time>2025-09-07T09:48:44.000Z</time>
        <extensions>
          <ns3:TrackPointExtension>
            <ns3:hr>147</ns3:hr>
            <ns3:cad>80</ns3:cad>
          </ns3:TrackPointExtension>
        </extensions>
      </trkpt>
      <trkpt lat="52.2745583765208721160888671875" lon="1.61127042956650257110595703125">
        <ele>-19.6000003814697265625</ele>
        <time>2025-09-07T09:48:48.000Z</time>
        <extensions>
          <ns3:TrackPointExtension>
            <ns3:hr>145</ns3:hr>
            <ns3:cad>61</ns3:cad>
          </ns3:TrackPointExtension>
        </extensions>
      </trkpt>
      <trkpt lat="52.274582348763942718505859375" lon="1.61123103462159633636474609375">
        <ele>-20</ele>
        <time>2025-09-07T09:48:50.000Z</time>
        <extensions>
          <ns3:TrackPointExtension>
            <ns3:hr>146</ns3:hr>
            <ns3:cad>62</ns3:cad>
          </ns3:TrackPointExtension>
        </extensions>
      </trkpt>
      <trkpt lat="52.27463356219232082366943359375" lon="1.61115107126533985137939453125">
        <ele>-20.799999237060546875</ele>
        <time>2025-09-07T09:48:54.000Z</time>
        <extensions>
          <ns3:TrackPointExtension>
            <ns3:hr>143</ns3:hr>
            <ns3:cad>59</ns3:cad>
          </ns3:TrackPointExtension>
        </extensions>
      </trkpt>
      <trkpt lat="52.27464294992387294769287109375" lon="1.61113313399255275726318359375">
        <ele>-21</ele>
        <time>2025-09-07T09:48:55.000Z</time>
        <extensions>
          <ns3:TrackPointExtension>
            <ns3:hr>143</ns3:hr>
            <ns3:cad>0</ns3:cad>
          </ns3:TrackPointExtension>
        </extensions>
      </trkpt>
      <trkpt lat="52.2746938280761241912841796875" lon="1.61102886311709880828857421875">
        <ele>-22.200000762939453125</ele>
        <time>2025-09-07T09:49:00.000Z</time>
        <extensions>
          <ns3:TrackPointExtension>
            <ns3:hr>144</ns3:hr>
            <ns3:cad>75</ns3:cad>
          </ns3:TrackPointExtension>
        </extensions>
      </trkpt>
      <trkpt lat="52.27471553720533847808837890625" lon="1.61098712123930454254150390625">
        <ele>-22.6000003814697265625</ele>
        <time>2025-09-07T09:49:02.000Z</time>
        <extensions>
          <ns3:TrackPointExtension>
            <ns3:hr>143</ns3:hr>
            <ns3:cad>75</ns3:cad>
          </ns3:TrackPointExtension>
        </extensions>
      </trkpt>
      <trkpt lat="52.274748980998992919921875" lon="1.61094604991376399993896484375">
        <ele>-23.200000762939453125</ele>
        <time>2025-09-07T09:49:04.000Z</time>
        <extensions>
          <ns3:TrackPointExtension>
            <ns3:hr>143</ns3:hr>
            <ns3:cad>77</ns3:cad>
          </ns3:TrackPointExtension>
        </extensions>
      </trkpt>
      <trkpt lat="52.2747890464961528778076171875" lon="1.6108903102576732635498046875">
        <ele>-24.200000762939453125</ele>
        <time>2025-09-07T09:49:07.000Z</time>
        <extensions>
          <ns3:TrackPointExtension>
            <ns3:hr>146</ns3:hr>
            <ns3:cad>78</ns3:cad>
          </ns3:TrackPointExtension>
        </extensions>
      </trkpt>
      <trkpt lat="52.2748011164367198944091796875" lon="1.61087279208004474639892578125">
        <ele>-24.3999996185302734375</ele>
        <time>2025-09-07T09:49:08.000Z</time>
        <extensions>
          <ns3:TrackPointExtension>
            <ns3:hr>147</ns3:hr>
            <ns3:cad>78</ns3:cad>
          </ns3:TrackPointExtension>
        </extensions>
      </trkpt>
      <trkpt lat="52.274811007082462310791015625" lon="1.61085426807403564453125">
        <ele>-24.799999237060546875</ele>
        <time>2025-09-07T09:49:09.000Z</time>
        <extensions>
          <ns3:TrackPointExtension>
            <ns3:hr>150</ns3:hr>
            <ns3:cad>78</ns3:cad>
          </ns3:TrackPointExtension>
        </extensions>
      </trkpt>
      <trkpt lat="52.274825088679790496826171875" lon="1.6108356602489948272705078125">
        <ele>-25.200000762939453125</ele>
        <time>2025-09-07T09:49:10.000Z</time>
        <extensions>
          <ns3:TrackPointExtension>
            <ns3:hr>150</ns3:hr>
            <ns3:cad>78</ns3:cad>
          </ns3:TrackPointExtension>
        </extensions>
      </trkpt>
      <trkpt lat="52.27483875118196010589599609375" lon="1.61081470549106597900390625">
        <ele>-25.6000003814697265625</ele>
        <time>2025-09-07T09:49:11.000Z</time>
        <extensions>
          <ns3:TrackPointExtension>
            <ns3:hr>151</ns3:hr>
            <ns3:cad>78</ns3:cad>
          </ns3:TrackPointExtension>
        </extensions>
      </trkpt>
      <trkpt lat="52.2748497314751148223876953125" lon="1.61079232580959796905517578125">
        <ele>-26</ele>
        <time>2025-09-07T09:49:12.000Z</time>
        <extensions>
          <ns3:TrackPointExtension>
            <ns3:hr>147</ns3:hr>
            <ns3:cad>79</ns3:cad>
          </ns3:TrackPointExtension>
        </extensions>
      </trkpt>
      <trkpt lat="52.2748698480427265167236328125" lon="1.61075829528272151947021484375">
        <ele>-26.6000003814697265625</ele>
        <time>2025-09-07T09:49:14.000Z</time>
        <extensions>
          <ns3:TrackPointExtension>
            <ns3:hr>148</ns3:hr>
            <ns3:cad>79</ns3:cad>
          </ns3:TrackPointExtension>
        </extensions>
      </trkpt>
      <trkpt lat="52.2748993523418903350830078125" lon="1.61070917733013629913330078125">
        <ele>-27.3999996185302734375</ele>
        <time>2025-09-07T09:49:16.000Z</time>
        <extensions>
          <ns3:TrackPointExtension>
            <ns3:hr>148</ns3:hr>
            <ns3:cad>80</ns3:cad>
          </ns3:TrackPointExtension>
        </extensions>
      </trkpt>
      <trkpt lat="52.2749097459018230438232421875" lon="1.610688976943492889404296875">
        <ele>-27.6000003814697265625</ele>
        <time>2025-09-07T09:49:17.000Z</time>
        <extensions>
          <ns3:TrackPointExtension>
            <ns3:hr>148</ns3:hr>
            <ns3:cad>80</ns3:cad>
          </ns3:TrackPointExtension>
        </extensions>
      </trkpt>
      <trkpt lat="52.27494587190449237823486328125" lon="1.61063239909708499908447265625">
        <ele>-28.799999237060546875</ele>
        <time>2025-09-07T09:49:20.000Z</time>
        <extensions>
          <ns3:TrackPointExtension>
            <ns3:hr>149</ns3:hr>
            <ns3:cad>78</ns3:cad>
          </ns3:TrackPointExtension>
        </extensions>
      </trkpt>
      <trkpt lat="52.27497168816626071929931640625" lon="1.61056500859558582305908203125">
        <ele>-29.6000003814697265625</ele>
        <time>2025-09-07T09:49:23.000Z</time>
        <extensions>
          <ns3:TrackPointExtension>
            <ns3:hr>152</ns3:hr>
            <ns3:cad>80</ns3:cad>
          </ns3:TrackPointExtension>
        </extensions>
      </trkpt>
      <trkpt lat="52.27498166263103485107421875" lon="1.61054153926670551300048828125">
        <ele>-29.799999237060546875</ele>
        <time>2025-09-07T09:49:24.000Z</time>
        <extensions>
          <ns3:TrackPointExtension>
            <ns3:hr>154</ns3:hr>
            <ns3:cad>80</ns3:cad>
          </ns3:TrackPointExtension>
        </extensions>
      </trkpt>
      <trkpt lat="52.2750166989862918853759765625" lon="1.61046794615685939788818359375">
        <ele>-30.799999237060546875</ele>
        <time>2025-09-07T09:49:28.000Z</time>
        <extensions>
          <ns3:TrackPointExtension>
            <ns3:hr>153</ns3:hr>
            <ns3:cad>79</ns3:cad>
          </ns3:TrackPointExtension>
        </extensions>
      </trkpt>
      <trkpt lat="52.27506347000598907470703125" lon="1.6103454865515232086181640625">
        <ele>-32</ele>
        <time>2025-09-07T09:49:32.000Z</time>
        <extensions>
          <ns3:TrackPointExtension>
            <ns3:hr>154</ns3:hr>
            <ns3:cad>79</ns3:cad>
          </ns3:TrackPointExtension>
        </extensions>
      </trkpt>
      <trkpt lat="52.2751256637275218963623046875" lon="1.61024716682732105255126953125">
        <ele>-33</ele>
        <time>2025-09-07T09:49:36.000Z</time>
        <extensions>
          <ns3:TrackPointExtension>
            <ns3:hr>155</ns3:hr>
            <ns3:cad>79</ns3:cad>
          </ns3:TrackPointExtension>
        </extensions>
      </trkpt>
      <trkpt lat="52.27516002953052520751953125" lon="1.61016938276588916778564453125">
        <ele>-33.799999237060546875</ele>
        <time>2025-09-07T09:49:39.000Z</time>
        <extensions>
          <ns3:TrackPointExtension>
            <ns3:hr>154</ns3:hr>
            <ns3:cad>79</ns3:cad>
          </ns3:TrackPointExtension>
        </extensions>
      </trkpt>
      <trkpt lat="52.275169752538204193115234375" lon="1.61014641635119915008544921875">
        <ele>-34.200000762939453125</ele>
        <time>2025-09-07T09:49:40.000Z</time>
        <extensions>
          <ns3:TrackPointExtension>
            <ns3:hr>155</ns3:hr>
            <ns3:cad>79</ns3:cad>
          </ns3:TrackPointExtension>
        </extensions>
      </trkpt>
      <trkpt lat="52.27520805783569812774658203125" lon="1.61006578244268894195556640625">
        <ele>-35.200000762939453125</ele>
        <time>2025-09-07T09:49:43.000Z</time>
        <extensions>
          <ns3:TrackPointExtension>
            <ns3:hr>151</ns3:hr>
            <ns3:cad>80</ns3:cad>
          </ns3:TrackPointExtension>
        </extensions>
      </trkpt>
      <trkpt lat="52.275222726166248321533203125" lon="1.61003954708576202392578125">
        <ele>-35.59999847412109375</ele>
        <time>2025-09-07T09:49:44.000Z</time>
        <extensions>
          <ns3:TrackPointExtension>
            <ns3:hr>150</ns3:hr>
            <ns3:cad>80</ns3:cad>
          </ns3:TrackPointExtension>
        </extensions>
      </trkpt>
      <trkpt lat="52.275251559913158416748046875" lon="1.60996444523334503173828125">
        <ele>-36.59999847412109375</ele>
        <time>2025-09-07T09:49:47.000Z</time>
        <extensions>
          <ns3:TrackPointExtension>
            <ns3:hr>148</ns3:hr>
            <ns3:cad>79</ns3:cad>
          </ns3:TrackPointExtension>
        </extensions>
      </trkpt>
      <trkpt lat="52.2752921283245086669921875" lon="1.60987987183034420013427734375">
        <ele>-37.799999237060546875</ele>
        <time>2025-09-07T09:49:50.000Z</time>
        <extensions>
          <ns3:TrackPointExtension>
            <ns3:hr>148</ns3:hr>
            <ns3:cad>79</ns3:cad>
          </ns3:TrackPointExtension>
        </extensions>
      </trkpt>
      <trkpt lat="52.27533110417425632476806640625" lon="1.60980426706373691558837890625">
        <ele>-39</ele>
        <time>2025-09-07T09:49:53.000Z</time>
        <extensions>
          <ns3:TrackPointExtension>
            <ns3:hr>149</ns3:hr>
            <ns3:cad>79</ns3:cad>
          </ns3:TrackPointExtension>
        </extensions>
      </trkpt>
      <trkpt lat="52.27536253631114959716796875" lon="1.60974743776023387908935546875">
        <ele>-39.799999237060546875</ele>
        <time>2025-09-07T09:49:55.000Z</time>
        <extensions>
          <ns3:TrackPointExtension>
            <ns3:hr>150</ns3:hr>
            <ns3:cad>79</ns3:cad>
          </ns3:TrackPointExtension>
        </extensions>
      </trkpt>
      <trkpt lat="52.275376282632350921630859375" lon="1.60972279496490955352783203125">
        <ele>-40.200000762939453125</ele>
        <time>2025-09-07T09:49:56.000Z</time>
        <extensions>
          <ns3:TrackPointExtension>
            <ns3:hr>150</ns3:hr>
            <ns3:cad>79</ns3:cad>
          </ns3:TrackPointExtension>
        </extensions>
      </trkpt>
      <trkpt lat="52.27540821768343448638916015625" lon="1.60965037532150745391845703125">
        <ele>-41.40000152587890625</ele>
        <time>2025-09-07T09:49:59.000Z</time>
        <extensions>
          <ns3:TrackPointExtension>
            <ns3:hr>151</ns3:hr>
            <ns3:cad>79</ns3:cad>
          </ns3:TrackPointExtension>
        </extensions>
      </trkpt>
      <trkpt lat="52.275436632335186004638671875" lon="1.60957510583102703094482421875">
        <ele>-42.799999237060546875</ele>
        <time>2025-09-07T09:50:02.000Z</time>
        <extensions>
          <ns3:TrackPointExtension>
            <ns3:hr>153</ns3:hr>
            <ns3:cad>79</ns3:cad>
          </ns3:TrackPointExtension>
        </extensions>
      </trkpt>
      <trkpt lat="52.27544509805738925933837890625" lon="1.60954861901700496673583984375">
        <ele>-43.40000152587890625</ele>
        <time>2025-09-07T09:50:03.000Z</time>
        <extensions>
          <ns3:TrackPointExtension>
            <ns3:hr>153</ns3:hr>
            <ns3:cad>79</ns3:cad>
          </ns3:TrackPointExtension>
        </extensions>
      </trkpt>
      <trkpt lat="52.275462783873081207275390625" lon="1.60949246026575565338134765625">
        <ele>-44.40000152587890625</ele>
        <time>2025-09-07T09:50:05.000Z</time>
        <extensions>
          <ns3:TrackPointExtension>
            <ns3:hr>154</ns3:hr>
            <ns3:cad>79</ns3:cad>
          </ns3:TrackPointExtension>
        </extensions>
      </trkpt>
      <trkpt lat="52.27548834867775440216064453125" lon="1.60940830595791339874267578125">
        <ele>-45.799999237060546875</ele>
        <time>2025-09-07T09:50:08.000Z</time>
        <extensions>
          <ns3:TrackPointExtension>
            <ns3:hr>154</ns3:hr>
            <ns3:cad>79</ns3:cad>
          </ns3:TrackPointExtension>
        </extensions>
      </trkpt>
      <trkpt lat="52.275505028665065765380859375" lon="1.60934946499764919281005859375">
        <ele>-46.799999237060546875</ele>
        <time>2025-09-07T09:50:10.000Z</time>
        <extensions>
          <ns3:TrackPointExtension>
            <ns3:hr>154</ns3:hr>
            <ns3:cad>79</ns3:cad>
          </ns3:TrackPointExtension>
        </extensions>
      </trkpt>
      <trkpt lat="52.27551282383501529693603515625" lon="1.6093205474317073822021484375">
        <ele>-47.200000762939453125</ele>
        <time>2025-09-07T09:50:11.000Z</time>
        <extensions>
          <ns3:TrackPointExtension>
            <ns3:hr>154</ns3:hr>
            <ns3:cad>79</ns3:cad>
          </ns3:TrackPointExtension>
        </extensions>
      </trkpt>
      <trkpt lat="52.2755253128707408905029296875" lon="1.60926396958529949188232421875">
        <ele>-48.200000762939453125</ele>
        <time>2025-09-07T09:50:13.000Z</time>
        <extensions>
          <ns3:TrackPointExtension>
            <ns3:hr>154</ns3:hr>
            <ns3:cad>79</ns3:cad>
          </ns3:TrackPointExtension>
        </extensions>
      </trkpt>
      <trkpt lat="52.27553956210613250732421875" lon="1.60921074450016021728515625">
        <ele>-49.40000152587890625</ele>
        <time>2025-09-07T09:50:15.000Z</time>
        <extensions>
          <ns3:TrackPointExtension>
            <ns3:hr>154</ns3:hr>
            <ns3:cad>79</ns3:cad>
          </ns3:TrackPointExtension>
        </extensions>
      </trkpt>
      <trkpt lat="52.27555406279861927032470703125" lon="1.60915911197662353515625">
        <ele>-50.40000152587890625</ele>
        <time>2025-09-07T09:50:17.000Z</time>
        <extensions>
          <ns3:TrackPointExtension>
            <ns3:hr>155</ns3:hr>
            <ns3:cad>80</ns3:cad>
          </ns3:TrackPointExtension>
        </extensions>
      </trkpt>
      <trkpt lat="52.27556445635855197906494140625" lon="1.60910907201468944549560546875">
        <ele>-51.40000152587890625</ele>
        <time>2025-09-07T09:50:19.000Z</time>
        <extensions>
          <ns3:TrackPointExtension>
            <ns3:hr>154</ns3:hr>
            <ns3:cad>80</ns3:cad>
          </ns3:TrackPointExtension>
        </extensions>
      </trkpt>
      <trkpt lat="52.2755675576627254486083984375" lon="1.609052829444408416748046875">
        <ele>-52.40000152587890625</ele>
        <time>2025-09-07T09:50:21.000Z</time>
        <extensions>
          <ns3:TrackPointExtension>
            <ns3:hr>155</ns3:hr>
            <ns3:cad>79</ns3:cad>
          </ns3:TrackPointExtension>
        </extensions>
      </trkpt>
      <trkpt lat="52.275569401681423187255859375" lon="1.60899214446544647216796875">
        <ele>-53.59999847412109375</ele>
        <time>2025-09-07T09:50:23.000Z</time>
        <extensions>
          <ns3:TrackPointExtension>
            <ns3:hr>155</ns3:hr>
            <ns3:cad>79</ns3:cad>
          </ns3:TrackPointExtension>
        </extensions>
      </trkpt>
      <trkpt lat="52.2755786217749118804931640625" lon="1.608933471143245697021484375">
        <ele>-54.59999847412109375</ele>
        <time>2025-09-07T09:50:25.000Z</time>
        <extensions>
          <ns3:TrackPointExtension>
            <ns3:hr>155</ns3:hr>
            <ns3:cad>79</ns3:cad>
          </ns3:TrackPointExtension>
        </extensions>
      </trkpt>
      <trkpt lat="52.2755853272974491119384765625" lon="1.60887085832655429840087890625">
        <ele>-55.799999237060546875</ele>
        <time>2025-09-07T09:50:27.000Z</time>
        <extensions>
          <ns3:TrackPointExtension>
            <ns3:hr>153</ns3:hr>
            <ns3:cad>80</ns3:cad>
          </ns3:TrackPointExtension>
        </extensions>
      </trkpt>
      <trkpt lat="52.27559714578092098236083984375" lon="1.60879994742572307586669921875">
        <ele>-57</ele>
        <time>2025-09-07T09:50:29.000Z</time>
        <extensions>
          <ns3:TrackPointExtension>
            <ns3:hr>153</ns3:hr>
            <ns3:cad>79</ns3:cad>
          </ns3:TrackPointExtension>
        </extensions>
      </trkpt>
      <trkpt lat="52.27560418657958507537841796875" lon="1.60873943008482456207275390625">
        <ele>-58</ele>
        <time>2025-09-07T09:50:31.000Z</time>
        <extensions>
          <ns3:TrackPointExtension>
            <ns3:hr>155</ns3:hr>
            <ns3:cad>80</ns3:cad>
          </ns3:TrackPointExtension>
        </extensions>
      </trkpt>
      <trkpt lat="52.275603599846363067626953125" lon="1.60867455415427684783935546875">
        <ele>-59.200000762939453125</ele>
        <time>2025-09-07T09:50:33.000Z</time>
        <extensions>
          <ns3:TrackPointExtension>
            <ns3:hr>154</ns3:hr>
            <ns3:cad>79</ns3:cad>
          </ns3:TrackPointExtension>
        </extensions>
      </trkpt>
      <trkpt lat="52.27559898979961872100830078125" lon="1.6086251847445964813232421875">
        <ele>-60.40000152587890625</ele>
        <time>2025-09-07T09:50:35.000Z</time>
        <extensions>
          <ns3:TrackPointExtension>
            <ns3:hr>154</ns3:hr>
            <ns3:cad>79</ns3:cad>
          </ns3:TrackPointExtension>
        </extensions>
      </trkpt>
      <trkpt lat="52.275596223771572113037109375" lon="1.608571708202362060546875">
        <ele>-61.59999847412109375</ele>
        <time>2025-09-07T09:50:37.000Z</time>
        <extensions>
          <ns3:TrackPointExtension>
            <ns3:hr>154</ns3:hr>
            <ns3:cad>80</ns3:cad>
          </ns3:TrackPointExtension>
        </extensions>
      </trkpt>
      <trkpt lat="52.27559848688542842864990234375" lon="1.6085033118724822998046875">
        <ele>-62.59999847412109375</ele>
        <time>2025-09-07T09:50:39.000Z</time>
        <extensions>
          <ns3:TrackPointExtension>
            <ns3:hr>153</ns3:hr>
            <ns3:cad>80</ns3:cad>
          </ns3:TrackPointExtension>
        </extensions>
      </trkpt>
      <trkpt lat="52.2755950503051280975341796875" lon="1.60843449644744396209716796875">
        <ele>-63.799999237060546875</ele>
        <time>2025-09-07T09:50:41.000Z</time>
        <extensions>
          <ns3:TrackPointExtension>
            <ns3:hr>155</ns3:hr>
            <ns3:cad>79</ns3:cad>
          </ns3:TrackPointExtension>
        </extensions>
      </trkpt>
      <trkpt lat="52.2755896858870983123779296875" lon="1.6083713807165622711181640625">
        <ele>-65</ele>
        <time>2025-09-07T09:50:43.000Z</time>
        <extensions>
          <ns3:TrackPointExtension>
            <ns3:hr>154</ns3:hr>
            <ns3:cad>79</ns3:cad>
          </ns3:TrackPointExtension>
        </extensions>
      </trkpt>
      <trkpt lat="52.27558943443000316619873046875" lon="1.60830474458634853363037109375">
        <ele>-66.1999969482421875</ele>
        <time>2025-09-07T09:50:45.000Z</time>
        <extensions>
          <ns3:TrackPointExtension>
            <ns3:hr>154</ns3:hr>
            <ns3:cad>79</ns3:cad>
          </ns3:TrackPointExtension>
        </extensions>
      </trkpt>
      <trkpt lat="52.275590859353542327880859375" lon="1.60824171267449855804443359375">
        <ele>-67.40000152587890625</ele>
        <time>2025-09-07T09:50:47.000Z</time>
        <extensions>
          <ns3:TrackPointExtension>
            <ns3:hr>154</ns3:hr>
            <ns3:cad>79</ns3:cad>
          </ns3:TrackPointExtension>
        </extensions>
      </trkpt>
      <trkpt lat="52.2755896858870983123779296875" lon="1.60817331634461879730224609375">
        <ele>-68.59999847412109375</ele>
        <time>2025-09-07T09:50:49.000Z</time>
        <extensions>
          <ns3:TrackPointExtension>
            <ns3:hr>154</ns3:hr>
            <ns3:cad>80</ns3:cad>
          </ns3:TrackPointExtension>
        </extensions>
      </trkpt>
      <trkpt lat="52.2755893506109714508056640625" lon="1.60814263857901096343994140625">
        <ele>-69.1999969482421875</ele>
        <time>2025-09-07T09:50:50.000Z</time>
        <extensions>
          <ns3:TrackPointExtension>
            <ns3:hr>153</ns3:hr>
            <ns3:cad>80</ns3:cad>
          </ns3:TrackPointExtension>
        </extensions>
      </trkpt>
      <trkpt lat="52.2755873389542102813720703125" lon="1.60811464302241802215576171875">
        <ele>-69.8000030517578125</ele>
        <time>2025-09-07T09:50:51.000Z</time>
        <extensions>
          <ns3:TrackPointExtension>
            <ns3:hr>154</ns3:hr>
            <ns3:cad>80</ns3:cad>
          </ns3:TrackPointExtension>
        </extensions>
      </trkpt>
      <trkpt lat="52.2755876742303371429443359375" lon="1.6080419719219207763671875">
        <ele>-71</ele>
        <time>2025-09-07T09:50:53.000Z</time>
        <extensions>
          <ns3:TrackPointExtension>
            <ns3:hr>154</ns3:hr>
            <ns3:cad>80</ns3:cad>
          </ns3:TrackPointExtension>
        </extensions>
      </trkpt>
      <trkpt lat="52.27558423765003681182861328125" lon="1.6079760901629924774169921875">
        <ele>-72.1999969482421875</ele>
        <time>2025-09-07T09:50:55.000Z</time>
        <extensions>
          <ns3:TrackPointExtension>
            <ns3:hr>155</ns3:hr>
            <ns3:cad>80</ns3:cad>
          </ns3:TrackPointExtension>
        </extensions>
      </trkpt>
      <trkpt lat="52.27558524347841739654541015625" lon="1.60792487673461437225341796875">
        <ele>-73.40000152587890625</ele>
        <time>2025-09-07T09:50:57.000Z</time>
        <extensions>
          <ns3:TrackPointExtension>
            <ns3:hr>155</ns3:hr>
            <ns3:cad>79</ns3:cad>
          </ns3:TrackPointExtension>
        </extensions>
      </trkpt>
      <trkpt lat="52.2755943797528743743896484375" lon="1.607874333858489990234375">
        <ele>-74.59999847412109375</ele>
        <time>2025-09-07T09:50:59.000Z</time>
        <extensions>
          <ns3:TrackPointExtension>
            <ns3:hr>155</ns3:hr>
            <ns3:cad>79</ns3:cad>
          </ns3:TrackPointExtension>
        </extensions>
      </trkpt>
      <trkpt lat="52.2755980677902698516845703125" lon="1.60781859420239925384521484375">
        <ele>-75.8000030517578125</ele>
        <time>2025-09-07T09:51:01.000Z</time>
        <extensions>
          <ns3:TrackPointExtension>
            <ns3:hr>154</ns3:hr>
            <ns3:cad>80</ns3:cad>
          </ns3:TrackPointExtension>
        </extensions>
      </trkpt>
      <trkpt lat="52.2755990736186504364013671875" lon="1.60776159726083278656005859375">
        <ele>-77</ele>
        <time>2025-09-07T09:51:03.000Z</time>
        <extensions>
          <ns3:TrackPointExtension>
            <ns3:hr>155</ns3:hr>
            <ns3:cad>80</ns3:cad>
          </ns3:TrackPointExtension>
        </extensions>
      </trkpt>
      <trkpt lat="52.275600247085094451904296875" lon="1.6077330149710178375244140625">
        <ele>-77.59999847412109375</ele>
        <time>2025-09-07T09:51:04.000Z</time>
        <extensions>
          <ns3:TrackPointExtension>
            <ns3:hr>154</ns3:hr>
            <ns3:cad>80</ns3:cad>
          </ns3:TrackPointExtension>
        </extensions>
      </trkpt>
      <trkpt lat="52.27559865452349185943603515625" lon="1.6077041812241077423095703125">
        <ele>-78</ele>
        <time>2025-09-07T09:51:05.000Z</time>
        <extensions>
          <ns3:TrackPointExtension>
            <ns3:hr>154</ns3:hr>
            <ns3:cad>80</ns3:cad>
          </ns3:TrackPointExtension>
        </extensions>
      </trkpt>
      <trkpt lat="52.2755898535251617431640625" lon="1.6076424904167652130126953125">
        <ele>-79.1999969482421875</ele>
        <time>2025-09-07T09:51:07.000Z</time>
        <extensions>
          <ns3:TrackPointExtension>
            <ns3:hr>155</ns3:hr>
            <ns3:cad>79</ns3:cad>
          </ns3:TrackPointExtension>
        </extensions>
      </trkpt>
      <trkpt lat="52.27558054961264133453369140625" lon="1.607598401606082916259765625">
        <ele>-80.40000152587890625</ele>
        <time>2025-09-07T09:51:09.000Z</time>
        <extensions>
          <ns3:TrackPointExtension>
            <ns3:hr>154</ns3:hr>
            <ns3:cad>79</ns3:cad>
          </ns3:TrackPointExtension>
        </extensions>
      </trkpt>
      <trkpt lat="52.27556780911982059478759765625" lon="1.60755741409957408905029296875">
        <ele>-81.40000152587890625</ele>
        <time>2025-09-07T09:51:11.000Z</time>
        <extensions>
          <ns3:TrackPointExtension>
            <ns3:hr>154</ns3:hr>
            <ns3:cad>79</ns3:cad>
          </ns3:TrackPointExtension>
        </extensions>
      </trkpt>
      <trkpt lat="52.275558672845363616943359375" lon="1.6075046919286251068115234375">
        <ele>-82.59999847412109375</ele>
        <time>2025-09-07T09:51:13.000Z</time>
        <extensions>
          <ns3:TrackPointExtension>
            <ns3:hr>154</ns3:hr>
            <ns3:cad>0</ns3:cad>
          </ns3:TrackPointExtension>
        </extensions>
      </trkpt>
      <trkpt lat="52.27555741555988788604736328125" lon="1.60746395587921142578125">
        <ele>-83.59999847412109375</ele>
        <time>2025-09-07T09:51:15.000Z</time>
        <extensions>
          <ns3:TrackPointExtension>
            <ns3:hr>154</ns3:hr>
            <ns3:cad>0</ns3:cad>
          </ns3:TrackPointExtension>
        </extensions>
      </trkpt>
      <trkpt lat="52.27555942721664905548095703125" lon="1.607432775199413299560546875">
        <ele>-84.8000030517578125</ele>
        <time>2025-09-07T09:51:17.000Z</time>
        <extensions>
          <ns3:TrackPointExtension>
            <ns3:hr>155</ns3:hr>
            <ns3:cad>0</ns3:cad>
          </ns3:TrackPointExtension>
        </extensions>
      </trkpt>
      <trkpt lat="52.2755574993789196014404296875" lon="1.6074165143072605133056640625">
        <ele>-85.40000152587890625</ele>
        <time>2025-09-07T09:51:18.000Z</time>
        <extensions>
          <ns3:TrackPointExtension>
            <ns3:hr>155</ns3:hr>
            <ns3:cad>0</ns3:cad>
          </ns3:TrackPointExtension>
        </extensions>
      </trkpt>
      <trkpt lat="52.2755564935505390167236328125" lon="1.607397906482219696044921875">
        <ele>-85.8000030517578125</ele>
        <time>2025-09-07T09:51:19.000Z</time>
        <extensions>
          <ns3:TrackPointExtension>
            <ns3:hr>154</ns3:hr>
            <ns3:cad>0</ns3:cad>
          </ns3:TrackPointExtension>
        </extensions>
      </trkpt>
      <trkpt lat="52.2755561582744121551513671875" lon="1.6073575057089328765869140625">
        <ele>-87</ele>
        <time>2025-09-07T09:51:21.000Z</time>
        <extensions>
          <ns3:TrackPointExtension>
            <ns3:hr>152</ns3:hr>
            <ns3:cad>49</ns3:cad>
          </ns3:TrackPointExtension>
        </extensions>
      </trkpt>
      <trkpt lat="52.27555825375020503997802734375" lon="1.60731383599340915679931640625">
        <ele>-88</ele>
        <time>2025-09-07T09:51:23.000Z</time>
        <extensions>
          <ns3:TrackPointExtension>
            <ns3:hr>148</ns3:hr>
            <ns3:cad>48</ns3:cad>
          </ns3:TrackPointExtension>
        </extensions>
      </trkpt>
      <trkpt lat="52.2755585052073001861572265625" lon="1.60727125592529773712158203125">
        <ele>-89</ele>
        <time>2025-09-07T09:51:25.000Z</time>
        <extensions>
          <ns3:TrackPointExtension>
            <ns3:hr>147</ns3:hr>
            <ns3:cad>53</ns3:cad>
          </ns3:TrackPointExtension>
        </extensions>
      </trkpt>
      <trkpt lat="52.27555691264569759368896484375" lon="1.60724309273064136505126953125">
        <ele>-89.59999847412109375</ele>
        <time>2025-09-07T09:51:26.000Z</time>
        <extensions>
          <ns3:TrackPointExtension>
            <ns3:hr>147</ns3:hr>
            <ns3:cad>0</ns3:cad>
          </ns3:TrackPointExtension>
        </extensions>
      </trkpt>
      <trkpt lat="52.27555699646472930908203125" lon="1.60721040330827236175537109375">
        <ele>-90</ele>
        <time>2025-09-07T09:51:27.000Z</time>
        <extensions>
          <ns3:TrackPointExtension>
            <ns3:hr>147</ns3:hr>
            <ns3:cad>0</ns3:cad>
          </ns3:TrackPointExtension>
        </extensions>
      </trkpt>
      <trkpt lat="52.2755585052073001861572265625" lon="1.607174612581729888916015625">
        <ele>-90.59999847412109375</ele>
        <time>2025-09-07T09:51:28.000Z</time>
        <extensions>
          <ns3:TrackPointExtension>
            <ns3:hr>144</ns3:hr>
            <ns3:cad>75</ns3:cad>
          </ns3:TrackPointExtension>
        </extensions>
      </trkpt>
      <trkpt lat="52.27556378580629825592041015625" lon="1.6071060486137866973876953125">
        <ele>-91.59999847412109375</ele>
        <time>2025-09-07T09:51:30.000Z</time>
        <extensions>
          <ns3:TrackPointExtension>
            <ns3:hr>144</ns3:hr>
            <ns3:cad>75</ns3:cad>
          </ns3:TrackPointExtension>
        </extensions>
      </trkpt>
      <trkpt lat="52.27556730620563030242919921875" lon="1.60701158456504344940185546875">
        <ele>-93</ele>
        <time>2025-09-07T09:51:33.000Z</time>
        <extensions>
          <ns3:TrackPointExtension>
            <ns3:hr>143</ns3:hr>
            <ns3:cad>77</ns3:cad>
          </ns3:TrackPointExtension>
        </extensions>
      </trkpt>
      <trkpt lat="52.275566719472408294677734375" lon="1.60694519989192485809326171875">
        <ele>-94.1999969482421875</ele>
        <time>2025-09-07T09:51:35.000Z</time>
        <extensions>
          <ns3:TrackPointExtension>
            <ns3:hr>141</ns3:hr>
            <ns3:cad>78</ns3:cad>
          </ns3:TrackPointExtension>
        </extensions>
      </trkpt>
      <trkpt lat="52.27556504309177398681640625" lon="1.60688526928424835205078125">
        <ele>-95.1999969482421875</ele>
        <time>2025-09-07T09:51:37.000Z</time>
        <extensions>
          <ns3:TrackPointExtension>
            <ns3:hr>144</ns3:hr>
            <ns3:cad>78</ns3:cad>
          </ns3:TrackPointExtension>
        </extensions>
      </trkpt>
      <trkpt lat="52.27555959485471248626708984375" lon="1.60682626068592071533203125">
        <ele>-96.40000152587890625</ele>
        <time>2025-09-07T09:51:39.000Z</time>
        <extensions>
          <ns3:TrackPointExtension>
            <ns3:hr>147</ns3:hr>
            <ns3:cad>79</ns3:cad>
          </ns3:TrackPointExtension>
        </extensions>
      </trkpt>
      <trkpt lat="52.27555825375020503997802734375" lon="1.6067617200314998626708984375">
        <ele>-97.59999847412109375</ele>
        <time>2025-09-07T09:51:41.000Z</time>
        <extensions>
          <ns3:TrackPointExtension>
            <ns3:hr>147</ns3:hr>
            <ns3:cad>79</ns3:cad>
          </ns3:TrackPointExtension>
        </extensions>
      </trkpt>
      <trkpt lat="52.2755595110356807708740234375" lon="1.606731712818145751953125">
        <ele>-98</ele>
        <time>2025-09-07T09:51:42.000Z</time>
        <extensions>
          <ns3:TrackPointExtension>
            <ns3:hr>147</ns3:hr>
            <ns3:cad>79</ns3:cad>
          </ns3:TrackPointExtension>
        </extensions>
      </trkpt>
      <trkpt lat="52.27555858902633190155029296875" lon="1.60670430399477481842041015625">
        <ele>-98.59999847412109375</ele>
        <time>2025-09-07T09:51:43.000Z</time>
        <extensions>
          <ns3:TrackPointExtension>
            <ns3:hr>148</ns3:hr>
            <ns3:cad>80</ns3:cad>
          </ns3:TrackPointExtension>
        </extensions>
      </trkpt>
      <trkpt lat="52.275552637875080108642578125" lon="1.6066349856555461883544921875">
        <ele>-99.8000030517578125</ele>
        <time>2025-09-07T09:51:45.000Z</time>
        <extensions>
          <ns3:TrackPointExtension>
            <ns3:hr>150</ns3:hr>
            <ns3:cad>80</ns3:cad>
          </ns3:TrackPointExtension>
        </extensions>
      </trkpt>
      <trkpt lat="52.275545597076416015625" lon="1.606572456657886505126953125">
        <ele>-100.8000030517578125</ele>
        <time>2025-09-07T09:51:47.000Z</time>
        <extensions>
          <ns3:TrackPointExtension>
            <ns3:hr>149</ns3:hr>
            <ns3:cad>79</ns3:cad>
          </ns3:TrackPointExtension>
        </extensions>
      </trkpt>
      <trkpt lat="52.27553964592516422271728515625" lon="1.606514453887939453125">
        <ele>-102</ele>
        <time>2025-09-07T09:51:49.000Z</time>
        <extensions>
          <ns3:TrackPointExtension>
            <ns3:hr>149</ns3:hr>
            <ns3:cad>79</ns3:cad>
          </ns3:TrackPointExtension>
        </extensions>
      </trkpt>
      <trkpt lat="52.2755306772887706756591796875" lon="1.60645720548927783966064453125">
        <ele>-103.1999969482421875</ele>
        <time>2025-09-07T09:51:51.000Z</time>
        <extensions>
          <ns3:TrackPointExtension>
            <ns3:hr>149</ns3:hr>
            <ns3:cad>79</ns3:cad>
          </ns3:TrackPointExtension>
        </extensions>
      </trkpt>
      <trkpt lat="52.2755273245275020599365234375" lon="1.60639844834804534912109375">
        <ele>-104.40000152587890625</ele>
        <time>2025-09-07T09:51:53.000Z</time>
        <extensions>
          <ns3:TrackPointExtension>
            <ns3:hr>150</ns3:hr>
            <ns3:cad>77</ns3:cad>
          </ns3:TrackPointExtension>
        </extensions>
      </trkpt>
      <trkpt lat="52.27551835589110851287841796875" lon="1.60634689964354038238525390625">
        <ele>-105.40000152587890625</ele>
        <time>2025-09-07T09:51:55.000Z</time>
        <extensions>
          <ns3:TrackPointExtension>
            <ns3:hr>152</ns3:hr>
            <ns3:cad>77</ns3:cad>
          </ns3:TrackPointExtension>
        </extensions>
      </trkpt>
      <trkpt lat="52.2755095548927783966064453125" lon="1.60629250109195709228515625">
        <ele>-106.59999847412109375</ele>
        <time>2025-09-07T09:51:57.000Z</time>
        <extensions>
          <ns3:TrackPointExtension>
            <ns3:hr>151</ns3:hr>
            <ns3:cad>78</ns3:cad>
          </ns3:TrackPointExtension>
        </extensions>
      </trkpt>
      <trkpt lat="52.27550603449344635009765625" lon="1.6062691994011402130126953125">
        <ele>-107</ele>
        <time>2025-09-07T09:51:58.000Z</time>
        <extensions>
          <ns3:TrackPointExtension>
            <ns3:hr>154</ns3:hr>
            <ns3:cad>79</ns3:cad>
          </ns3:TrackPointExtension>
        </extensions>
      </trkpt>
      <trkpt lat="52.27549874223768711090087890625" lon="1.606248579919338226318359375">
        <ele>-107.59999847412109375</ele>
        <time>2025-09-07T09:51:59.000Z</time>
        <extensions>
          <ns3:TrackPointExtension>
            <ns3:hr>154</ns3:hr>
            <ns3:cad>79</ns3:cad>
          </ns3:TrackPointExtension>
        </extensions>
      </trkpt>
      <trkpt lat="52.2754867561161518096923828125" lon="1.60621245391666889190673828125">
        <ele>-108.59999847412109375</ele>
        <time>2025-09-07T09:52:01.000Z</time>
        <extensions>
          <ns3:TrackPointExtension>
            <ns3:hr>153</ns3:hr>
            <ns3:cad>79</ns3:cad>
          </ns3:TrackPointExtension>
        </extensions>
      </trkpt>
      <trkpt lat="52.2754891030490398406982421875" lon="1.60616752691566944122314453125">
        <ele>-109.59999847412109375</ele>
        <time>2025-09-07T09:52:03.000Z</time>
        <extensions>
          <ns3:TrackPointExtension>
            <ns3:hr>154</ns3:hr>
            <ns3:cad>80</ns3:cad>
          </ns3:TrackPointExtension>
        </extensions>
      </trkpt>
      <trkpt lat="52.27550469338893890380859375" lon="1.606082953512668609619140625">
        <ele>-111.1999969482421875</ele>
        <time>2025-09-07T09:52:06.000Z</time>
        <extensions>
          <ns3:TrackPointExtension>
            <ns3:hr>152</ns3:hr>
            <ns3:cad>79</ns3:cad>
          </ns3:TrackPointExtension>
        </extensions>
      </trkpt>
      <trkpt lat="52.27552388794720172882080078125" lon="1.60597826354205608367919921875">
        <ele>-112.40000152587890625</ele>
        <time>2025-09-07T09:52:09.000Z</time>
        <extensions>
          <ns3:TrackPointExtension>
            <ns3:hr>152</ns3:hr>
            <ns3:cad>79</ns3:cad>
          </ns3:TrackPointExtension>
        </extensions>
      </trkpt>
      <trkpt lat="52.27553545497357845306396484375" lon="1.60594406537711620330810546875">
        <ele>-112.8000030517578125</ele>
        <time>2025-09-07T09:52:10.000Z</time>
        <extensions>
          <ns3:TrackPointExtension>
            <ns3:hr>153</ns3:hr>
            <ns3:cad>79</ns3:cad>
          </ns3:TrackPointExtension>
        </extensions>
      </trkpt>
      <trkpt lat="52.2755615226924419403076171875" lon="1.60588991828262805938720703125">
        <ele>-113.59999847412109375</ele>
        <time>2025-09-07T09:52:12.000Z</time>
        <extensions>
          <ns3:TrackPointExtension>
            <ns3:hr>153</ns3:hr>
            <ns3:cad>79</ns3:cad>
          </ns3:TrackPointExtension>
        </extensions>
      </trkpt>
      <trkpt lat="52.27558926679193973541259765625" lon="1.6058222763240337371826171875">
        <ele>-115</ele>
        <time>2025-09-07T09:52:15.000Z</time>
        <extensions>
          <ns3:TrackPointExtension>
            <ns3:hr>152</ns3:hr>
            <ns3:cad>80</ns3:cad>
          </ns3:TrackPointExtension>
        </extensions>
      </trkpt>
      <trkpt lat="52.2756020911037921905517578125" lon="1.6057874076068401336669921875">
        <ele>-115.8000030517578125</ele>
        <time>2025-09-07T09:52:17.000Z</time>
        <extensions>
          <ns3:TrackPointExtension>
            <ns3:hr>153</ns3:hr>
            <ns3:cad>79</ns3:cad>
          </ns3:TrackPointExtension>
        </extensions>
      </trkpt>
      <trkpt lat="52.27560988627374172210693359375" lon="1.60577005706727504730224609375">
        <ele>-116.1999969482421875</ele>
        <time>2025-09-07T09:52:18.000Z</time>
        <extensions>
          <ns3:TrackPointExtension>
            <ns3:hr>153</ns3:hr>
            <ns3:cad>79</ns3:cad>
          </ns3:TrackPointExtension>
        </extensions>
      </trkpt>
      <trkpt lat="52.27561759762465953826904296875" lon="1.60571205429732799530029296875">
        <ele>-117.40000152587890625</ele>
        <time>2025-09-07T09:52:21.000Z</time>
        <extensions>
          <ns3:TrackPointExtension>
            <ns3:hr>153</ns3:hr>
            <ns3:cad>79</ns3:cad>
          </ns3:TrackPointExtension>
        </extensions>
      </trkpt>
      <trkpt lat="52.2756327688694000244140625" lon="1.60565002821385860443115234375">
        <ele>-118.59999847412109375</ele>
        <time>2025-09-07T09:52:24.000Z</time>
        <extensions>
          <ns3:TrackPointExtension>
            <ns3:hr>152</ns3:hr>
            <ns3:cad>79</ns3:cad>
          </ns3:TrackPointExtension>
        </extensions>
      </trkpt>
      <trkpt lat="52.27563151158392429351806640625" lon="1.6055936180055141448974609375">
        <ele>-119.40000152587890625</ele>
        <time>2025-09-07T09:52:26.000Z</time>
        <extensions>
          <ns3:TrackPointExtension>
            <ns3:hr>153</ns3:hr>
            <ns3:cad>79</ns3:cad>
          </ns3:TrackPointExtension>
        </extensions>
      </trkpt>
      <trkpt lat="52.2756349481642246246337890625" lon="1.6055621020495891571044921875">
        <ele>-119.8000030517578125</ele>
        <time>2025-09-07T09:52:27.000Z</time>
        <extensions>
          <ns3:TrackPointExtension>
            <ns3:hr>154</ns3:hr>
            <ns3:cad>79</ns3:cad>
          </ns3:TrackPointExtension>
        </extensions>
      </trkpt>
      <trkpt lat="52.27563855238258838653564453125" lon="1.605484485626220703125">
        <ele>-121</ele>
        <time>2025-09-07T09:52:30.000Z</time>
        <extensions>
          <ns3:TrackPointExtension>
            <ns3:hr>154</ns3:hr>
            <ns3:cad>79</ns3:cad>
          </ns3:TrackPointExtension>
        </extensions>
      </trkpt>
      <trkpt lat="52.27563704364001750946044921875" lon="1.60539790056645870208740234375">
        <ele>-122.1999969482421875</ele>
        <time>2025-09-07T09:52:33.000Z</time>
        <extensions>
          <ns3:TrackPointExtension>
            <ns3:hr>154</ns3:hr>
            <ns3:cad>80</ns3:cad>
          </ns3:TrackPointExtension>
        </extensions>
      </trkpt>
      <trkpt lat="52.27563369087874889373779296875" lon="1.60529740154743194580078125">
        <ele>-123.40000152587890625</ele>
        <time>2025-09-07T09:52:36.000Z</time>
        <extensions>
          <ns3:TrackPointExtension>
            <ns3:hr>154</ns3:hr>
            <ns3:cad>80</ns3:cad>
          </ns3:TrackPointExtension>
        </extensions>
      </trkpt>
      <trkpt lat="52.27563201449811458587646484375" lon="1.60521718673408031463623046875">
        <ele>-124.8000030517578125</ele>
        <time>2025-09-07T09:52:39.000Z</time>
        <extensions>
          <ns3:TrackPointExtension>
            <ns3:hr>155</ns3:hr>
            <ns3:cad>81</ns3:cad>
          </ns3:TrackPointExtension>
        </extensions>
      </trkpt>
      <trkpt lat="52.27563872002065181732177734375" lon="1.60512381233274936676025390625">
        <ele>-126</ele>
        <time>2025-09-07T09:52:42.000Z</time>
        <extensions>
          <ns3:TrackPointExtension>
            <ns3:hr>155</ns3:hr>
            <ns3:cad>79</ns3:cad>
          </ns3:TrackPointExtension>
        </extensions>
      </trkpt>
      <trkpt lat="52.2756421566009521484375" lon="1.6050953976809978485107421875">
        <ele>-126.40000152587890625</ele>
        <time>2025-09-07T09:52:43.000Z</time>
        <extensions>
          <ns3:TrackPointExtension>
            <ns3:hr>156</ns3:hr>
            <ns3:cad>79</ns3:cad>
          </ns3:TrackPointExtension>
        </extensions>
      </trkpt>
      <trkpt lat="52.27564282715320587158203125" lon="1.60504795610904693603515625">
        <ele>-127.40000152587890625</ele>
        <time>2025-09-07T09:52:45.000Z</time>
        <extensions>
          <ns3:TrackPointExtension>
            <ns3:hr>155</ns3:hr>
            <ns3:cad>79</ns3:cad>
          </ns3:TrackPointExtension>
        </extensions>
      </trkpt>
      <trkpt lat="52.275639809668064117431640625" lon="1.60494293086230754852294921875">
        <ele>-128.8000030517578125</ele>
        <time>2025-09-07T09:52:48.000Z</time>
        <extensions>
          <ns3:TrackPointExtension>
            <ns3:hr>157</ns3:hr>
            <ns3:cad>79</ns3:cad>
          </ns3:TrackPointExtension>
        </extensions>
      </trkpt>
      <trkpt lat="52.2756456770002841949462890625" lon="1.60483715124428272247314453125">
        <ele>-130</ele>
        <time>2025-09-07T09:52:51.000Z</time>
        <extensions>
          <ns3:TrackPointExtension>
            <ns3:hr>155</ns3:hr>
            <ns3:cad>79</ns3:cad>
          </ns3:TrackPointExtension>
        </extensions>
      </trkpt>
      <trkpt lat="52.2756456770002841949462890625" lon="1.604745201766490936279296875">
        <ele>-131.399993896484375</ele>
        <time>2025-09-07T09:52:54.000Z</time>
        <extensions>
          <ns3:TrackPointExtension>
            <ns3:hr>154</ns3:hr>
            <ns3:cad>79</ns3:cad>
          </ns3:TrackPointExtension>
        </extensions>
      </trkpt>
      <trkpt lat="52.275633104145526885986328125" lon="1.60467118956148624420166015625">
        <ele>-132.8000030517578125</ele>
        <time>2025-09-07T09:52:57.000Z</time>
        <extensions>
          <ns3:TrackPointExtension>
            <ns3:hr>153</ns3:hr>
            <ns3:cad>79</ns3:cad>
          </ns3:TrackPointExtension>
        </extensions>
      </trkpt>
      <trkpt lat="52.27563302032649517059326171875" lon="1.604587621986865997314453125">
        <ele>-134.1999969482421875</ele>
        <time>2025-09-07T09:53:00.000Z</time>
        <extensions>
          <ns3:TrackPointExtension>
            <ns3:hr>150</ns3:hr>
            <ns3:cad>78</ns3:cad>
          </ns3:TrackPointExtension>
        </extensions>
      </trkpt>
      <trkpt lat="52.27563302032649517059326171875" lon="1.60448695532977581024169921875">
        <ele>-135.8000030517578125</ele>
        <time>2025-09-07T09:53:03.000Z</time>
        <extensions>
          <ns3:TrackPointExtension>
            <ns3:hr>149</ns3:hr>
            <ns3:cad>78</ns3:cad>
          </ns3:TrackPointExtension>
        </extensions>
      </trkpt>
      <trkpt lat="52.27564006112515926361083984375" lon="1.60444580018520355224609375">
        <ele>-136.600006103515625</ele>
        <time>2025-09-07T09:53:04.000Z</time>
        <extensions>
          <ns3:TrackPointExtension>
            <ns3:hr>149</ns3:hr>
            <ns3:cad>78</ns3:cad>
          </ns3:TrackPointExtension>
        </extensions>
      </trkpt>
      <trkpt lat="52.27564374916255474090576171875" lon="1.604428701102733612060546875">
        <ele>-137.1999969482421875</ele>
        <time>2025-09-07T09:53:06.000Z</time>
        <extensions>
          <ns3:TrackPointExtension>
            <ns3:hr>148</ns3:hr>
            <ns3:cad>78</ns3:cad>
          </ns3:TrackPointExtension>
        </extensions>
      </trkpt>
      <trkpt lat="52.275650203227996826171875" lon="1.6044129431247711181640625">
        <ele>-137.600006103515625</ele>
        <time>2025-09-07T09:53:07.000Z</time>
        <extensions>
          <ns3:TrackPointExtension>
            <ns3:hr>148</ns3:hr>
            <ns3:cad>78</ns3:cad>
          </ns3:TrackPointExtension>
        </extensions>
      </trkpt>
      <trkpt lat="52.27567501366138458251953125" lon="1.6043655015528202056884765625">
        <ele>-138.600006103515625</ele>
        <time>2025-09-07T09:53:09.000Z</time>
        <extensions>
          <ns3:TrackPointExtension>
            <ns3:hr>148</ns3:hr>
            <ns3:cad>78</ns3:cad>
          </ns3:TrackPointExtension>
        </extensions>
      </trkpt>
      <trkpt lat="52.275703512132167816162109375" lon="1.6042803414165973663330078125">
        <ele>-139.600006103515625</ele>
        <time>2025-09-07T09:53:11.000Z</time>
        <extensions>
          <ns3:TrackPointExtension>
            <ns3:hr>147</ns3:hr>
            <ns3:cad>78</ns3:cad>
          </ns3:TrackPointExtension>
        </extensions>
      </trkpt>
      <trkpt lat="52.27572371251881122589111328125" lon="1.60414547659456729888916015625">
        <ele>-140.600006103515625</ele>
        <time>2025-09-07T09:53:13.000Z</time>
        <extensions>
          <ns3:TrackPointExtension>
            <ns3:hr>147</ns3:hr>
            <ns3:cad>78</ns3:cad>
          </ns3:TrackPointExtension>
        </extensions>
      </trkpt>
      <trkpt lat="52.27572438307106494903564453125" lon="1.60411186516284942626953125">
        <ele>-141.1999969482421875</ele>
        <time>2025-09-07T09:53:14.000Z</time>
        <extensions>
          <ns3:TrackPointExtension>
            <ns3:hr>146</ns3:hr>
            <ns3:cad>78</ns3:cad>
          </ns3:TrackPointExtension>
        </extensions>
      </trkpt>
      <trkpt lat="52.27572622708976268768310546875" lon="1.60408495925366878509521484375">
        <ele>-141.8000030517578125</ele>
        <time>2025-09-07T09:53:15.000Z</time>
        <extensions>
          <ns3:TrackPointExtension>
            <ns3:hr>146</ns3:hr>
            <ns3:cad>78</ns3:cad>
          </ns3:TrackPointExtension>
        </extensions>
      </trkpt>
      <trkpt lat="52.27572597563266754150390625" lon="1.60400851629674434661865234375">
        <ele>-142.8000030517578125</ele>
        <time>2025-09-07T09:53:17.000Z</time>
        <extensions>
          <ns3:TrackPointExtension>
            <ns3:hr>146</ns3:hr>
            <ns3:cad>79</ns3:cad>
          </ns3:TrackPointExtension>
        </extensions>
      </trkpt>
      <trkpt lat="52.27571750991046428680419921875" lon="1.60392905585467815399169921875">
        <ele>-144.1999969482421875</ele>
        <time>2025-09-07T09:53:20.000Z</time>
        <extensions>
          <ns3:TrackPointExtension>
            <ns3:hr>148</ns3:hr>
            <ns3:cad>79</ns3:cad>
          </ns3:TrackPointExtension>
        </extensions>
      </trkpt>
      <trkpt lat="52.2757159173488616943359375" lon="1.60390323959290981292724609375">
        <ele>-144.8000030517578125</ele>
        <time>2025-09-07T09:53:21.000Z</time>
        <extensions>
          <ns3:TrackPointExtension>
            <ns3:hr>148</ns3:hr>
            <ns3:cad>79</ns3:cad>
          </ns3:TrackPointExtension>
        </extensions>
      </trkpt>
      <trkpt lat="52.27571499533951282501220703125" lon="1.60387256182730197906494140625">
        <ele>-145.1999969482421875</ele>
        <time>2025-09-07T09:53:22.000Z</time>
        <extensions>
          <ns3:TrackPointExtension>
            <ns3:hr>149</ns3:hr>
            <ns3:cad>80</ns3:cad>
          </ns3:TrackPointExtension>
        </extensions>
      </trkpt>
      <trkpt lat="52.27571013383567333221435546875" lon="1.6038094460964202880859375">
        <ele>-146.1999969482421875</ele>
        <time>2025-09-07T09:53:24.000Z</time>
        <extensions>
          <ns3:TrackPointExtension>
            <ns3:hr>149</ns3:hr>
            <ns3:cad>80</ns3:cad>
          </ns3:TrackPointExtension>
        </extensions>
      </trkpt>
      <trkpt lat="52.2756989859044551849365234375" lon="1.60374968312680721282958984375">
        <ele>-147.399993896484375</ele>
        <time>2025-09-07T09:53:26.000Z</time>
        <extensions>
          <ns3:TrackPointExtension>
            <ns3:hr>149</ns3:hr>
            <ns3:cad>80</ns3:cad>
          </ns3:TrackPointExtension>
        </extensions>
      </trkpt>
      <trkpt lat="52.27569672279059886932373046875" lon="1.603698469698429107666015625">
        <ele>-148.399993896484375</ele>
        <time>2025-09-07T09:53:28.000Z</time>
        <extensions>
          <ns3:TrackPointExtension>
            <ns3:hr>149</ns3:hr>
            <ns3:cad>79</ns3:cad>
          </ns3:TrackPointExtension>
        </extensions>
      </trkpt>
      <trkpt lat="52.275698818266391754150390625" lon="1.603673994541168212890625">
        <ele>-148.8000030517578125</ele>
        <time>2025-09-07T09:53:29.000Z</time>
        <extensions>
          <ns3:TrackPointExtension>
            <ns3:hr>149</ns3:hr>
            <ns3:cad>78</ns3:cad>
          </ns3:TrackPointExtension>
        </extensions>
      </trkpt>
      <trkpt lat="52.27570183575153350830078125" lon="1.60365262068808078765869140625">
        <ele>-149.399993896484375</ele>
        <time>2025-09-07T09:53:30.000Z</time>
        <extensions>
          <ns3:TrackPointExtension>
            <ns3:hr>147</ns3:hr>
            <ns3:cad>76</ns3:cad>
          </ns3:TrackPointExtension>
        </extensions>
      </trkpt>
      <trkpt lat="52.275700159370899200439453125" lon="1.60361557267606258392333984375">
        <ele>-150.399993896484375</ele>
        <time>2025-09-07T09:53:32.000Z</time>
        <extensions>
          <ns3:TrackPointExtension>
            <ns3:hr>147</ns3:hr>
            <ns3:cad>77</ns3:cad>
          </ns3:TrackPointExtension>
        </extensions>
      </trkpt>
      <trkpt lat="52.27570543996989727020263671875" lon="1.6035725735127925872802734375">
        <ele>-151.600006103515625</ele>
        <time>2025-09-07T09:53:34.000Z</time>
        <extensions>
          <ns3:TrackPointExtension>
            <ns3:hr>147</ns3:hr>
            <ns3:cad>80</ns3:cad>
          </ns3:TrackPointExtension>
        </extensions>
      </trkpt>
      <trkpt lat="52.275711558759212493896484375" lon="1.6035373695194721221923828125">
        <ele>-152.600006103515625</ele>
        <time>2025-09-07T09:53:36.000Z</time>
        <extensions>
          <ns3:TrackPointExtension>
            <ns3:hr>148</ns3:hr>
            <ns3:cad>80</ns3:cad>
          </ns3:TrackPointExtension>
        </extensions>
      </trkpt>
      <trkpt lat="52.2757160849869251251220703125" lon="1.603521443903446197509765625">
        <ele>-153</ele>
        <time>2025-09-07T09:53:37.000Z</time>
        <extensions>
          <ns3:TrackPointExtension>
            <ns3:hr>149</ns3:hr>
            <ns3:cad>80</ns3:cad>
          </ns3:TrackPointExtension>
        </extensions>
      </trkpt>
      <trkpt lat="52.2757211141288280487060546875" lon="1.60350166261196136474609375">
        <ele>-153.600006103515625</ele>
        <time>2025-09-07T09:53:38.000Z</time>
        <extensions>
          <ns3:TrackPointExtension>
            <ns3:hr>149</ns3:hr>
            <ns3:cad>79</ns3:cad>
          </ns3:TrackPointExtension>
        </extensions>
      </trkpt>
      <trkpt lat="52.275722287595272064208984375" lon="1.603456400334835052490234375">
        <ele>-154.600006103515625</ele>
        <time>2025-09-07T09:53:40.000Z</time>
        <extensions>
          <ns3:TrackPointExtension>
            <ns3:hr>150</ns3:hr>
            <ns3:cad>79</ns3:cad>
          </ns3:TrackPointExtension>
        </extensions>
      </trkpt>
      <trkpt lat="52.2757241316139698028564453125" lon="1.6034005768597126007080078125">
        <ele>-155.8000030517578125</ele>
        <time>2025-09-07T09:53:42.000Z</time>
        <extensions>
          <ns3:TrackPointExtension>
            <ns3:hr>151</ns3:hr>
            <ns3:cad>80</ns3:cad>
          </ns3:TrackPointExtension>
        </extensions>
      </trkpt>
      <trkpt lat="52.27573410607874393463134765625" lon="1.6033412329852581024169921875">
        <ele>-156.8000030517578125</ele>
        <time>2025-09-07T09:53:44.000Z</time>
        <extensions>
          <ns3:TrackPointExtension>
            <ns3:hr>149</ns3:hr>
            <ns3:cad>79</ns3:cad>
          </ns3:TrackPointExtension>
        </extensions>
      </trkpt>
      <trkpt lat="52.2757388837635517120361328125" lon="1.603287421166896820068359375">
        <ele>-157.8000030517578125</ele>
        <time>2025-09-07T09:53:46.000Z</time>
        <extensions>
          <ns3:TrackPointExtension>
            <ns3:hr>150</ns3:hr>
            <ns3:cad>78</ns3:cad>
          </ns3:TrackPointExtension>
        </extensions>
      </trkpt>
      <trkpt lat="52.27574198506772518157958984375" lon="1.60326026380062103271484375">
        <ele>-158.399993896484375</ele>
        <time>2025-09-07T09:53:47.000Z</time>
        <extensions>
          <ns3:TrackPointExtension>
            <ns3:hr>150</ns3:hr>
            <ns3:cad>78</ns3:cad>
          </ns3:TrackPointExtension>
        </extensions>
      </trkpt>
      <trkpt lat="52.27574517019093036651611328125" lon="1.603231765329837799072265625">
        <ele>-158.8000030517578125</ele>
        <time>2025-09-07T09:53:48.000Z</time>
        <extensions>
          <ns3:TrackPointExtension>
            <ns3:hr>150</ns3:hr>
            <ns3:cad>78</ns3:cad>
          </ns3:TrackPointExtension>
        </extensions>
      </trkpt>
      <trkpt lat="52.2757588326930999755859375" lon="1.6031746007502079010009765625">
        <ele>-159.8000030517578125</ele>
        <time>2025-09-07T09:53:50.000Z</time>
        <extensions>
          <ns3:TrackPointExtension>
            <ns3:hr>150</ns3:hr>
            <ns3:cad>78</ns3:cad>
          </ns3:TrackPointExtension>
        </extensions>
      </trkpt>
      <trkpt lat="52.27578925900161266326904296875" lon="1.60309706814587116241455078125">
        <ele>-161.399993896484375</ele>
        <time>2025-09-07T09:53:53.000Z</time>
        <extensions>
          <ns3:TrackPointExtension>
            <ns3:hr>152</ns3:hr>
            <ns3:cad>78</ns3:cad>
          </ns3:TrackPointExtension>
        </extensions>
      </trkpt>
      <trkpt lat="52.27580736391246318817138671875" lon="1.60305499099195003509521484375">
        <ele>-162.399993896484375</ele>
        <time>2025-09-07T09:53:55.000Z</time>
        <extensions>
          <ns3:TrackPointExtension>
            <ns3:hr>152</ns3:hr>
            <ns3:cad>77</ns3:cad>
          </ns3:TrackPointExtension>
        </extensions>
      </trkpt>
      <trkpt lat="52.27582345716655254364013671875" lon="1.60301190800964832305908203125">
        <ele>-163.399993896484375</ele>
        <time>2025-09-07T09:53:57.000Z</time>
        <extensions>
          <ns3:TrackPointExtension>
            <ns3:hr>152</ns3:hr>
            <ns3:cad>77</ns3:cad>
          </ns3:TrackPointExtension>
        </extensions>
      </trkpt>
      <trkpt lat="52.27583737112581729888916015625" lon="1.602980308234691619873046875">
        <ele>-164.399993896484375</ele>
        <time>2025-09-07T09:53:59.000Z</time>
        <extensions>
          <ns3:TrackPointExtension>
            <ns3:hr>152</ns3:hr>
            <ns3:cad>79</ns3:cad>
          </ns3:TrackPointExtension>
        </extensions>
      </trkpt>
      <trkpt lat="52.27584558539092540740966796875" lon="1.60294242203235626220703125">
        <ele>-165.399993896484375</ele>
        <time>2025-09-07T09:54:01.000Z</time>
        <extensions>
          <ns3:TrackPointExtension>
            <ns3:hr>152</ns3:hr>
            <ns3:cad>80</ns3:cad>
          </ns3:TrackPointExtension>
        </extensions>
      </trkpt>
      <trkpt lat="52.275850363075733184814453125" lon="1.60286170430481433868408203125">
        <ele>-166.8000030517578125</ele>
        <time>2025-09-07T09:54:04.000Z</time>
        <extensions>
          <ns3:TrackPointExtension>
            <ns3:hr>152</ns3:hr>
            <ns3:cad>79</ns3:cad>
          </ns3:TrackPointExtension>
        </extensions>
      </trkpt>
      <trkpt lat="52.275855056941509246826171875" lon="1.6027521528303623199462890625">
        <ele>-168.399993896484375</ele>
        <time>2025-09-07T09:54:07.000Z</time>
        <extensions>
          <ns3:TrackPointExtension>
            <ns3:hr>152</ns3:hr>
            <ns3:cad>80</ns3:cad>
          </ns3:TrackPointExtension>
        </extensions>
      </trkpt>
      <trkpt lat="52.2758582420647144317626953125" lon="1.60262248478829860687255859375">
        <ele>-169.8000030517578125</ele>
        <time>2025-09-07T09:54:10.000Z</time>
        <extensions>
          <ns3:TrackPointExtension>
            <ns3:hr>154</ns3:hr>
            <ns3:cad>80</ns3:cad>
          </ns3:TrackPointExtension>
        </extensions>
      </trkpt>
      <trkpt lat="52.275879867374897003173828125" lon="1.60258845426142215728759765625">
        <ele>-171.1999969482421875</ele>
        <time>2025-09-07T09:54:13.000Z</time>
        <extensions>
          <ns3:TrackPointExtension>
            <ns3:hr>153</ns3:hr>
            <ns3:cad>0</ns3:cad>
          </ns3:TrackPointExtension>
        </extensions>
      </trkpt>
      <trkpt lat="52.275881879031658172607421875" lon="1.602583341300487518310546875">
        <ele>-172.600006103515625</ele>
        <time>2025-09-07T09:54:16.000Z</time>
        <extensions>
          <ns3:TrackPointExtension>
            <ns3:hr>155</ns3:hr>
            <ns3:cad>0</ns3:cad>
          </ns3:TrackPointExtension>
        </extensions>
      </trkpt>
      <trkpt lat="52.275887243449687957763671875" lon="1.60257236100733280181884765625">
        <ele>-174</ele>
        <time>2025-09-07T09:54:19.000Z</time>
        <extensions>
          <ns3:TrackPointExtension>
            <ns3:hr>155</ns3:hr>
            <ns3:cad>0</ns3:cad>
          </ns3:TrackPointExtension>
        </extensions>
      </trkpt>
      <trkpt lat="52.27589788846671581268310546875" lon="1.60253849811851978302001953125">
        <ele>-175</ele>
        <time>2025-09-07T09:54:21.000Z</time>
        <extensions>
          <ns3:TrackPointExtension>
            <ns3:hr>154</ns3:hr>
            <ns3:cad>0</ns3:cad>
          </ns3:TrackPointExtension>
        </extensions>
      </trkpt>
      <trkpt lat="52.27589671500027179718017578125" lon="1.60251385532319545745849609375">
        <ele>-175.399993896484375</ele>
        <time>2025-09-07T09:54:22.000Z</time>
        <extensions>
          <ns3:TrackPointExtension>
            <ns3:hr>154</ns3:hr>
            <ns3:cad>51</ns3:cad>
          </ns3:TrackPointExtension>
        </extensions>
      </trkpt>
      <trkpt lat="52.2758857347071170806884765625" lon="1.6024299524724483489990234375">
        <ele>-176.8000030517578125</ele>
        <time>2025-09-07T09:54:25.000Z</time>
        <extensions>
          <ns3:TrackPointExtension>
            <ns3:hr>153</ns3:hr>
            <ns3:cad>0</ns3:cad>
          </ns3:TrackPointExtension>
        </extensions>
      </trkpt>
      <trkpt lat="52.27587173692882061004638671875" lon="1.60236599855124950408935546875">
        <ele>-178</ele>
        <time>2025-09-07T09:54:28.000Z</time>
        <extensions>
          <ns3:TrackPointExtension>
            <ns3:hr>154</ns3:hr>
            <ns3:cad>76</ns3:cad>
          </ns3:TrackPointExtension>
        </extensions>
      </trkpt>
      <trkpt lat="52.27584608830511569976806640625" lon="1.60226524807512760162353515625">
        <ele>-179.1999969482421875</ele>
        <time>2025-09-07T09:54:31.000Z</time>
        <extensions>
          <ns3:TrackPointExtension>
            <ns3:hr>155</ns3:hr>
            <ns3:cad>78</ns3:cad>
          </ns3:TrackPointExtension>
        </extensions>
      </trkpt>
      <trkpt lat="52.27581851184368133544921875" lon="1.60215510986745357513427734375">
        <ele>-180.1999969482421875</ele>
        <time>2025-09-07T09:54:34.000Z</time>
        <extensions>
          <ns3:TrackPointExtension>
            <ns3:hr>156</ns3:hr>
            <ns3:cad>80</ns3:cad>
          </ns3:TrackPointExtension>
        </extensions>
      </trkpt>
      <trkpt lat="52.27578640915453433990478515625" lon="1.60206793807446956634521484375">
        <ele>-181.1999969482421875</ele>
        <time>2025-09-07T09:54:37.000Z</time>
        <extensions>
          <ns3:TrackPointExtension>
            <ns3:hr>156</ns3:hr>
            <ns3:cad>80</ns3:cad>
          </ns3:TrackPointExtension>
        </extensions>
      </trkpt>
      <trkpt lat="52.275773584842681884765625" lon="1.60204589366912841796875">
        <ele>-181.399993896484375</ele>
        <time>2025-09-07T09:54:38.000Z</time>
        <extensions>
          <ns3:TrackPointExtension>
            <ns3:hr>157</ns3:hr>
            <ns3:cad>80</ns3:cad>
          </ns3:TrackPointExtension>
        </extensions>
      </trkpt>
      <trkpt lat="52.27569437585771083831787109375" lon="1.601848416030406951904296875">
        <ele>-182</ele>
        <time>2025-09-07T09:54:44.000Z</time>
        <extensions>
          <ns3:TrackPointExtension>
            <ns3:hr>157</ns3:hr>
            <ns3:cad>80</ns3:cad>
          </ns3:TrackPointExtension>
        </extensions>
      </trkpt>
      <trkpt lat="52.27567342109978199005126953125" lon="1.6017302311956882476806640625">
        <ele>-182.399993896484375</ele>
        <time>2025-09-07T09:54:47.000Z</time>
        <extensions>
          <ns3:TrackPointExtension>
            <ns3:hr>157</ns3:hr>
            <ns3:cad>79</ns3:cad>
          </ns3:TrackPointExtension>
        </extensions>
      </trkpt>
      <trkpt lat="52.27563251741230487823486328125" lon="1.60163090564310550689697265625">
        <ele>-182.8000030517578125</ele>
        <time>2025-09-07T09:54:52.000Z</time>
        <extensions>
          <ns3:TrackPointExtension>
            <ns3:hr>157</ns3:hr>
            <ns3:cad>79</ns3:cad>
          </ns3:TrackPointExtension>
        </extensions>
      </trkpt>
      <trkpt lat="52.2756047733128070831298828125" lon="1.60161472856998443603515625">
        <ele>-183.1999969482421875</ele>
        <time>2025-09-07T09:54:54.000Z</time>
        <extensions>
          <ns3:TrackPointExtension>
            <ns3:hr>154</ns3:hr>
            <ns3:cad>78</ns3:cad>
          </ns3:TrackPointExtension>
        </extensions>
      </trkpt>
      <trkpt lat="52.27558289654552936553955078125" lon="1.60160240717232227325439453125">
        <ele>-183.399993896484375</ele>
        <time>2025-09-07T09:54:56.000Z</time>
        <extensions>
          <ns3:TrackPointExtension>
            <ns3:hr>154</ns3:hr>
            <ns3:cad>76</ns3:cad>
          </ns3:TrackPointExtension>
        </extensions>
      </trkpt>
      <trkpt lat="52.27555355988442897796630859375" lon="1.60155245102941989898681640625">
        <ele>-184.399993896484375</ele>
        <time>2025-09-07T09:55:00.000Z</time>
        <extensions>
          <ns3:TrackPointExtension>
            <ns3:hr>154</ns3:hr>
            <ns3:cad>0</ns3:cad>
          </ns3:TrackPointExtension>
        </extensions>
      </trkpt>
      <trkpt lat="52.2755528055131435394287109375" lon="1.60154591314494609832763671875">
        <ele>-184.600006103515625</ele>
        <time>2025-09-07T09:55:01.000Z</time>
        <extensions>
          <ns3:TrackPointExtension>
            <ns3:hr>155</ns3:hr>
            <ns3:cad>0</ns3:cad>
          </ns3:TrackPointExtension>
        </extensions>
      </trkpt>
      <trkpt lat="52.275545261800289154052734375" lon="1.60152697004377841949462890625">
        <ele>-185.1999969482421875</ele>
        <time>2025-09-07T09:55:03.000Z</time>
        <extensions>
          <ns3:TrackPointExtension>
            <ns3:hr>152</ns3:hr>
            <ns3:cad>0</ns3:cad>
          </ns3:TrackPointExtension>
        </extensions>
      </trkpt>
      <trkpt lat="52.2755350358784198760986328125" lon="1.60151506774127483367919921875">
        <ele>-185.8000030517578125</ele>
        <time>2025-09-07T09:55:06.000Z</time>
        <extensions>
          <ns3:TrackPointExtension>
            <ns3:hr>151</ns3:hr>
            <ns3:cad>0</ns3:cad>
          </ns3:TrackPointExtension>
        </extensions>
      </trkpt>
      <trkpt lat="52.275529839098453521728515625" lon="1.6014973819255828857421875">
        <ele>-186.600006103515625</ele>
        <time>2025-09-07T09:55:09.000Z</time>
        <extensions>
          <ns3:TrackPointExtension>
            <ns3:hr>152</ns3:hr>
            <ns3:cad>0</ns3:cad>
          </ns3:TrackPointExtension>
        </extensions>
      </trkpt>
      <trkpt lat="52.27552472613751888275146484375" lon="1.60149042494595050811767578125">
        <ele>-187</ele>
        <time>2025-09-07T09:55:10.000Z</time>
        <extensions>
          <ns3:TrackPointExtension>
            <ns3:hr>151</ns3:hr>
            <ns3:cad>0</ns3:cad>
          </ns3:TrackPointExtension>
        </extensions>
      </trkpt>
      <trkpt lat="52.27550444193184375762939453125" lon="1.601442731916904449462890625">
        <ele>-188</ele>
        <time>2025-09-07T09:55:14.000Z</time>
        <extensions>
          <ns3:TrackPointExtension>
            <ns3:hr>147</ns3:hr>
            <ns3:cad>54</ns3:cad>
          </ns3:TrackPointExtension>
        </extensions>
      </trkpt>
      <trkpt lat="52.27550259791314601898193359375" lon="1.60141934640705585479736328125">
        <ele>-188.1999969482421875</ele>
        <time>2025-09-07T09:55:15.000Z</time>
        <extensions>
          <ns3:TrackPointExtension>
            <ns3:hr>148</ns3:hr>
            <ns3:cad>54</ns3:cad>
          </ns3:TrackPointExtension>
        </extensions>
      </trkpt>
      <trkpt lat="52.27548197843134403228759765625" lon="1.60141892731189727783203125">
        <ele>-188.600006103515625</ele>
        <time>2025-09-07T09:55:16.000Z</time>
        <extensions>
          <ns3:TrackPointExtension>
            <ns3:hr>145</ns3:hr>
            <ns3:cad>54</ns3:cad>
          </ns3:TrackPointExtension>
        </extensions>
      </trkpt>
      <trkpt lat="52.27547041140496730804443359375" lon="1.6013848967850208282470703125">
        <ele>-189.1999969482421875</ele>
        <time>2025-09-07T09:55:18.000Z</time>
        <extensions>
          <ns3:TrackPointExtension>
            <ns3:hr>145</ns3:hr>
            <ns3:cad>53</ns3:cad>
          </ns3:TrackPointExtension>
        </extensions>
      </trkpt>
      <trkpt lat="52.2754693217575550079345703125" lon="1.6012933664023876190185546875">
        <ele>-190.1999969482421875</ele>
        <time>2025-09-07T09:55:21.000Z</time>
        <extensions>
          <ns3:TrackPointExtension>
            <ns3:hr>143</ns3:hr>
            <ns3:cad>58</ns3:cad>
          </ns3:TrackPointExtension>
        </extensions>
      </trkpt>
      <trkpt lat="52.2754772007465362548828125" lon="1.6012323461472988128662109375">
        <ele>-191</ele>
        <time>2025-09-07T09:55:23.000Z</time>
        <extensions>
          <ns3:TrackPointExtension>
            <ns3:hr>146</ns3:hr>
            <ns3:cad>58</ns3:cad>
          </ns3:TrackPointExtension>
        </extensions>
      </trkpt>
      <trkpt lat="52.2754760272800922393798828125" lon="1.6012125648558139801025390625">
        <ele>-191.399993896484375</ele>
        <time>2025-09-07T09:55:24.000Z</time>
        <extensions>
          <ns3:TrackPointExtension>
            <ns3:hr>144</ns3:hr>
            <ns3:cad>59</ns3:cad>
          </ns3:TrackPointExtension>
        </extensions>
      </trkpt>
      <trkpt lat="52.27547326125204563140869140625" lon="1.60112396813929080963134765625">
        <ele>-192.600006103515625</ele>
        <time>2025-09-07T09:55:27.000Z</time>
        <extensions>
          <ns3:TrackPointExtension>
            <ns3:hr>145</ns3:hr>
            <ns3:cad>60</ns3:cad>
          </ns3:TrackPointExtension>
        </extensions>
      </trkpt>
      <trkpt lat="52.27546043694019317626953125" lon="1.60105087794363498687744140625">
        <ele>-194</ele>
        <time>2025-09-07T09:55:30.000Z</time>
        <extensions>
          <ns3:TrackPointExtension>
            <ns3:hr>145</ns3:hr>
            <ns3:cad>77</ns3:cad>
          </ns3:TrackPointExtension>
        </extensions>
      </trkpt>
      <trkpt lat="52.2754530608654022216796875" lon="1.6009765304625034332275390625">
        <ele>-195.1999969482421875</ele>
        <time>2025-09-07T09:55:33.000Z</time>
        <extensions>
          <ns3:TrackPointExtension>
            <ns3:hr>145</ns3:hr>
            <ns3:cad>79</ns3:cad>
          </ns3:TrackPointExtension>
        </extensions>
      </trkpt>
      <trkpt lat="52.27542665787041187286376953125" lon="1.60088759846985340118408203125">
        <ele>-196.399993896484375</ele>
        <time>2025-09-07T09:55:36.000Z</time>
        <extensions>
          <ns3:TrackPointExtension>
            <ns3:hr>145</ns3:hr>
            <ns3:cad>79</ns3:cad>
          </ns3:TrackPointExtension>
        </extensions>
      </trkpt>
      <trkpt lat="52.275416851043701171875" lon="1.600857339799404144287109375">
        <ele>-196.8000030517578125</ele>
        <time>2025-09-07T09:55:37.000Z</time>
        <extensions>
          <ns3:TrackPointExtension>
            <ns3:hr>147</ns3:hr>
            <ns3:cad>79</ns3:cad>
          </ns3:TrackPointExtension>
        </extensions>
      </trkpt>
      <trkpt lat="52.275405786931514739990234375" lon="1.6007911227643489837646484375">
        <ele>-197.600006103515625</ele>
        <time>2025-09-07T09:55:39.000Z</time>
        <extensions>
          <ns3:TrackPointExtension>
            <ns3:hr>149</ns3:hr>
            <ns3:cad>78</ns3:cad>
          </ns3:TrackPointExtension>
        </extensions>
      </trkpt>
      <trkpt lat="52.2753908671438694000244140625" lon="1.6006927192211151123046875">
        <ele>-198.600006103515625</ele>
        <time>2025-09-07T09:55:42.000Z</time>
        <extensions>
          <ns3:TrackPointExtension>
            <ns3:hr>149</ns3:hr>
            <ns3:cad>80</ns3:cad>
          </ns3:TrackPointExtension>
        </extensions>
      </trkpt>
      <trkpt lat="52.27538491599261760711669921875" lon="1.60063438117504119873046875">
        <ele>-199.1999969482421875</ele>
        <time>2025-09-07T09:55:44.000Z</time>
        <extensions>
          <ns3:TrackPointExtension>
            <ns3:hr>152</ns3:hr>
            <ns3:cad>79</ns3:cad>
          </ns3:TrackPointExtension>
        </extensions>
      </trkpt>
      <trkpt lat="52.2753821499645709991455078125" lon="1.60060965456068515777587890625">
        <ele>-199.600006103515625</ele>
        <time>2025-09-07T09:55:45.000Z</time>
        <extensions>
          <ns3:TrackPointExtension>
            <ns3:hr>153</ns3:hr>
            <ns3:cad>79</ns3:cad>
          </ns3:TrackPointExtension>
        </extensions>
      </trkpt>
      <trkpt lat="52.27537988685071468353271484375" lon="1.60059087909758090972900390625">
        <ele>-199.8000030517578125</ele>
        <time>2025-09-07T09:55:46.000Z</time>
        <extensions>
          <ns3:TrackPointExtension>
            <ns3:hr>154</ns3:hr>
            <ns3:cad>79</ns3:cad>
          </ns3:TrackPointExtension>
        </extensions>
      </trkpt>
      <trkpt lat="52.275359518826007843017578125" lon="1.60049624741077423095703125">
        <ele>-201</ele>
        <time>2025-09-07T09:55:50.000Z</time>
        <extensions>
          <ns3:TrackPointExtension>
            <ns3:hr>157</ns3:hr>
            <ns3:cad>80</ns3:cad>
          </ns3:TrackPointExtension>
        </extensions>
      </trkpt>
      <trkpt lat="52.27535926736891269683837890625" lon="1.60038937814533710479736328125">
        <ele>-202.1999969482421875</ele>
        <time>2025-09-07T09:55:54.000Z</time>
        <extensions>
          <ns3:TrackPointExtension>
            <ns3:hr>157</ns3:hr>
            <ns3:cad>79</ns3:cad>
          </ns3:TrackPointExtension>
        </extensions>
      </trkpt>
      <trkpt lat="52.2753563337028026580810546875" lon="1.6003582812845706939697265625">
        <ele>-202.399993896484375</ele>
        <time>2025-09-07T09:55:55.000Z</time>
        <extensions>
          <ns3:TrackPointExtension>
            <ns3:hr>157</ns3:hr>
            <ns3:cad>79</ns3:cad>
          </ns3:TrackPointExtension>
        </extensions>
      </trkpt>
      <trkpt lat="52.27534669451415538787841796875" lon="1.6002394258975982666015625">
        <ele>-203.399993896484375</ele>
        <time>2025-09-07T09:55:58.000Z</time>
        <extensions>
          <ns3:TrackPointExtension>
            <ns3:hr>159</ns3:hr>
            <ns3:cad>80</ns3:cad>
          </ns3:TrackPointExtension>
        </extensions>
      </trkpt>
      <trkpt lat="52.275325991213321685791015625" lon="1.60009668208658695220947265625">
        <ele>-204.399993896484375</ele>
        <time>2025-09-07T09:56:02.000Z</time>
        <extensions>
          <ns3:TrackPointExtension>
            <ns3:hr>157</ns3:hr>
            <ns3:cad>80</ns3:cad>
          </ns3:TrackPointExtension>
        </extensions>
      </trkpt>
      <trkpt lat="52.2753231413662433624267578125" lon="1.6000642441213130950927734375">
        <ele>-204.8000030517578125</ele>
        <time>2025-09-07T09:56:03.000Z</time>
        <extensions>
          <ns3:TrackPointExtension>
            <ns3:hr>158</ns3:hr>
            <ns3:cad>80</ns3:cad>
          </ns3:TrackPointExtension>
        </extensions>
      </trkpt>
      <trkpt lat="52.27532230317592620849609375" lon="1.5999623201787471771240234375">
        <ele>-205.8000030517578125</ele>
        <time>2025-09-07T09:56:06.000Z</time>
        <extensions>
          <ns3:TrackPointExtension>
            <ns3:hr>158</ns3:hr>
            <ns3:cad>80</ns3:cad>
          </ns3:TrackPointExtension>
        </extensions>
      </trkpt>
      <trkpt lat="52.2753063775599002838134765625" lon="1.59981471486389636993408203125">
        <ele>-207</ele>
        <time>2025-09-07T09:56:10.000Z</time>
        <extensions>
          <ns3:TrackPointExtension>
            <ns3:hr>161</ns3:hr>
            <ns3:cad>80</ns3:cad>
          </ns3:TrackPointExtension>
        </extensions>
      </trkpt>
      <trkpt lat="52.27528098039329051971435546875" lon="1.59975084476172924041748046875">
        <ele>-207.8000030517578125</ele>
        <time>2025-09-07T09:56:12.000Z</time>
        <extensions>
          <ns3:TrackPointExtension>
            <ns3:hr>161</ns3:hr>
            <ns3:cad>81</ns3:cad>
          </ns3:TrackPointExtension>
        </extensions>
      </trkpt>
      <trkpt lat="52.275260947644710540771484375" lon="1.5997249446809291839599609375">
        <ele>-208</ele>
        <time>2025-09-07T09:56:13.000Z</time>
        <extensions>
          <ns3:TrackPointExtension>
            <ns3:hr>160</ns3:hr>
            <ns3:cad>80</ns3:cad>
          </ns3:TrackPointExtension>
        </extensions>
      </trkpt>
      <trkpt lat="52.27525030262768268585205078125" lon="1.5996967814862728118896484375">
        <ele>-208.399993896484375</ele>
        <time>2025-09-07T09:56:14.000Z</time>
        <extensions>
          <ns3:TrackPointExtension>
            <ns3:hr>155</ns3:hr>
            <ns3:cad>80</ns3:cad>
          </ns3:TrackPointExtension>
        </extensions>
      </trkpt>
      <trkpt lat="52.27523647248744964599609375" lon="1.59965227358043193817138671875">
        <ele>-209.1999969482421875</ele>
        <time>2025-09-07T09:56:16.000Z</time>
        <extensions>
          <ns3:TrackPointExtension>
            <ns3:hr>153</ns3:hr>
            <ns3:cad>80</ns3:cad>
          </ns3:TrackPointExtension>
        </extensions>
      </trkpt>
      <trkpt lat="52.2752242349088191986083984375" lon="1.59957365132868289947509765625">
        <ele>-210.1999969482421875</ele>
        <time>2025-09-07T09:56:19.000Z</time>
        <extensions>
          <ns3:TrackPointExtension>
            <ns3:hr>152</ns3:hr>
            <ns3:cad>80</ns3:cad>
          </ns3:TrackPointExtension>
        </extensions>
      </trkpt>
      <trkpt lat="52.27522314526140689849853515625" lon="1.5995432250201702117919921875">
        <ele>-210.399993896484375</ele>
        <time>2025-09-07T09:56:20.000Z</time>
        <extensions>
          <ns3:TrackPointExtension>
            <ns3:hr>152</ns3:hr>
            <ns3:cad>80</ns3:cad>
          </ns3:TrackPointExtension>
        </extensions>
      </trkpt>
      <trkpt lat="52.2752175293862819671630859375" lon="1.59948580898344516754150390625">
        <ele>-211.1999969482421875</ele>
        <time>2025-09-07T09:56:22.000Z</time>
        <extensions>
          <ns3:TrackPointExtension>
            <ns3:hr>152</ns3:hr>
            <ns3:cad>80</ns3:cad>
          </ns3:TrackPointExtension>
        </extensions>
      </trkpt>
      <trkpt lat="52.275195904076099395751953125" lon="1.59937064163386821746826171875">
        <ele>-212.600006103515625</ele>
        <time>2025-09-07T09:56:26.000Z</time>
        <extensions>
          <ns3:TrackPointExtension>
            <ns3:hr>152</ns3:hr>
            <ns3:cad>79</ns3:cad>
          </ns3:TrackPointExtension>
        </extensions>
      </trkpt>
      <trkpt lat="52.275193221867084503173828125" lon="1.59935136325657367706298828125">
        <ele>-212.8000030517578125</ele>
        <time>2025-09-07T09:56:27.000Z</time>
        <extensions>
          <ns3:TrackPointExtension>
            <ns3:hr>151</ns3:hr>
            <ns3:cad>79</ns3:cad>
          </ns3:TrackPointExtension>
        </extensions>
      </trkpt>
      <trkpt lat="52.275185845792293548583984375" lon="1.599285565316677093505859375">
        <ele>-213.8000030517578125</ele>
        <time>2025-09-07T09:56:30.000Z</time>
        <extensions>
          <ns3:TrackPointExtension>
            <ns3:hr>149</ns3:hr>
            <ns3:cad>79</ns3:cad>
          </ns3:TrackPointExtension>
        </extensions>
      </trkpt>
      <trkpt lat="52.275157012045383453369140625" lon="1.59918372519314289093017578125">
        <ele>-215</ele>
        <time>2025-09-07T09:56:34.000Z</time>
        <extensions>
          <ns3:TrackPointExtension>
            <ns3:hr>149</ns3:hr>
            <ns3:cad>79</ns3:cad>
          </ns3:TrackPointExtension>
        </extensions>
      </trkpt>
      <trkpt lat="52.27514837868511676788330078125" lon="1.59915640018880367279052734375">
        <ele>-215.1999969482421875</ele>
        <time>2025-09-07T09:56:35.000Z</time>
        <extensions>
          <ns3:TrackPointExtension>
            <ns3:hr>149</ns3:hr>
            <ns3:cad>79</ns3:cad>
          </ns3:TrackPointExtension>
        </extensions>
      </trkpt>
      <trkpt lat="52.27511032484471797943115234375" lon="1.5990607626736164093017578125">
        <ele>-216.1999969482421875</ele>
        <time>2025-09-07T09:56:38.000Z</time>
        <extensions>
          <ns3:TrackPointExtension>
            <ns3:hr>149</ns3:hr>
            <ns3:cad>80</ns3:cad>
          </ns3:TrackPointExtension>
        </extensions>
      </trkpt>
      <trkpt lat="52.27507646195590496063232421875" lon="1.5989585034549236297607421875">
        <ele>-217.1999969482421875</ele>
        <time>2025-09-07T09:56:42.000Z</time>
        <extensions>
          <ns3:TrackPointExtension>
            <ns3:hr>150</ns3:hr>
            <ns3:cad>79</ns3:cad>
          </ns3:TrackPointExtension>
        </extensions>
      </trkpt>
      <trkpt lat="52.27506489492952823638916015625" lon="1.59890008158981800079345703125">
        <ele>-217.8000030517578125</ele>
        <time>2025-09-07T09:56:44.000Z</time>
        <extensions>
          <ns3:TrackPointExtension>
            <ns3:hr>153</ns3:hr>
            <ns3:cad>79</ns3:cad>
          </ns3:TrackPointExtension>
        </extensions>
      </trkpt>
      <trkpt lat="52.27505617775022983551025390625" lon="1.59879438579082489013671875">
        <ele>-218.399993896484375</ele>
        <time>2025-09-07T09:56:47.000Z</time>
        <extensions>
          <ns3:TrackPointExtension>
            <ns3:hr>156</ns3:hr>
            <ns3:cad>80</ns3:cad>
          </ns3:TrackPointExtension>
        </extensions>
      </trkpt>
      <trkpt lat="52.27503723464906215667724609375" lon="1.5986963175237178802490234375">
        <ele>-219.1999969482421875</ele>
        <time>2025-09-07T09:56:50.000Z</time>
        <extensions>
          <ns3:TrackPointExtension>
            <ns3:hr>155</ns3:hr>
            <ns3:cad>79</ns3:cad>
          </ns3:TrackPointExtension>
        </extensions>
      </trkpt>
      <trkpt lat="52.27503455244004726409912109375" lon="1.59866706468164920806884765625">
        <ele>-219.399993896484375</ele>
        <time>2025-09-07T09:56:51.000Z</time>
        <extensions>
          <ns3:TrackPointExtension>
            <ns3:hr>155</ns3:hr>
            <ns3:cad>79</ns3:cad>
          </ns3:TrackPointExtension>
        </extensions>
      </trkpt>
      <trkpt lat="52.27501980029046535491943359375" lon="1.59855030477046966552734375">
        <ele>-220.399993896484375</ele>
        <time>2025-09-07T09:56:55.000Z</time>
        <extensions>
          <ns3:TrackPointExtension>
            <ns3:hr>154</ns3:hr>
            <ns3:cad>79</ns3:cad>
          </ns3:TrackPointExtension>
        </extensions>
      </trkpt>
      <trkpt lat="52.27502650581300258636474609375" lon="1.59842918626964092254638671875">
        <ele>-221.600006103515625</ele>
        <time>2025-09-07T09:56:59.000Z</time>
        <extensions>
          <ns3:TrackPointExtension>
            <ns3:hr>152</ns3:hr>
            <ns3:cad>79</ns3:cad>
          </ns3:TrackPointExtension>
        </extensions>
      </trkpt>
      <trkpt lat="52.27501426823437213897705078125" lon="1.59834000281989574432373046875">
        <ele>-222.8000030517578125</ele>
        <time>2025-09-07T09:57:03.000Z</time>
        <extensions>
          <ns3:TrackPointExtension>
            <ns3:hr>151</ns3:hr>
            <ns3:cad>79</ns3:cad>
          </ns3:TrackPointExtension>
        </extensions>
      </trkpt>
      <trkpt lat="52.27502114139497280120849609375" lon="1.5983194671571254730224609375">
        <ele>-223</ele>
        <time>2025-09-07T09:57:04.000Z</time>
        <extensions>
          <ns3:TrackPointExtension>
            <ns3:hr>148</ns3:hr>
            <ns3:cad>0</ns3:cad>
          </ns3:TrackPointExtension>
        </extensions>
      </trkpt>
      <trkpt lat="52.2750254161655902862548828125" lon="1.598318628966808319091796875">
        <ele>-223.8000030517578125</ele>
        <time>2025-09-07T09:57:07.000Z</time>
        <extensions>
          <ns3:TrackPointExtension>
            <ns3:hr>149</ns3:hr>
            <ns3:cad>0</ns3:cad>
          </ns3:TrackPointExtension>
        </extensions>
      </trkpt>
      <trkpt lat="52.27502918802201747894287109375" lon="1.59831225872039794921875">
        <ele>-225</ele>
        <time>2025-09-07T09:57:11.000Z</time>
        <extensions>
          <ns3:TrackPointExtension>
            <ns3:hr>150</ns3:hr>
            <ns3:cad>0</ns3:cad>
          </ns3:TrackPointExtension>
        </extensions>
      </trkpt>
      <trkpt lat="52.27501560933887958526611328125" lon="1.5982681699097156524658203125">
        <ele>-226.1999969482421875</ele>
        <time>2025-09-07T09:57:16.000Z</time>
        <extensions>
          <ns3:TrackPointExtension>
            <ns3:hr>147</ns3:hr>
            <ns3:cad>0</ns3:cad>
          </ns3:TrackPointExtension>
        </extensions>
      </trkpt>
      <trkpt lat="52.2750106640160083770751953125" lon="1.598227433860301971435546875">
        <ele>-227</ele>
        <time>2025-09-07T09:57:20.000Z</time>
        <extensions>
          <ns3:TrackPointExtension>
            <ns3:hr>144</ns3:hr>
            <ns3:cad>0</ns3:cad>
          </ns3:TrackPointExtension>
        </extensions>
      </trkpt>
      <trkpt lat="52.2750109992921352386474609375" lon="1.5982265956699848175048828125">
        <ele>-227.1999969482421875</ele>
        <time>2025-09-07T09:57:21.000Z</time>
        <extensions>
          <ns3:TrackPointExtension>
            <ns3:hr>144</ns3:hr>
            <ns3:cad>0</ns3:cad>
          </ns3:TrackPointExtension>
        </extensions>
      </trkpt>
      <trkpt lat="52.27502055466175079345703125" lon="1.59821100533008575439453125">
        <ele>-228.1999969482421875</ele>
        <time>2025-09-07T09:57:26.000Z</time>
        <extensions>
          <ns3:TrackPointExtension>
            <ns3:hr>144</ns3:hr>
            <ns3:cad>0</ns3:cad>
          </ns3:TrackPointExtension>
        </extensions>
      </trkpt>
      <trkpt lat="52.27502482943236827850341796875" lon="1.59821033477783203125">
        <ele>-228.399993896484375</ele>
        <time>2025-09-07T09:57:27.000Z</time>
        <extensions>
          <ns3:TrackPointExtension>
            <ns3:hr>143</ns3:hr>
            <ns3:cad>0</ns3:cad>
          </ns3:TrackPointExtension>
        </extensions>
      </trkpt>
      <trkpt lat="52.27505433373153209686279296875" lon="1.59818527288734912872314453125">
        <ele>-229.399993896484375</ele>
        <time>2025-09-07T09:57:32.000Z</time>
        <extensions>
          <ns3:TrackPointExtension>
            <ns3:hr>142</ns3:hr>
            <ns3:cad>0</ns3:cad>
          </ns3:TrackPointExtension>
        </extensions>
      </trkpt>
      <trkpt lat="52.2750609554350376129150390625" lon="1.5981794893741607666015625">
        <ele>-229.600006103515625</ele>
        <time>2025-09-07T09:57:33.000Z</time>
        <extensions>
          <ns3:TrackPointExtension>
            <ns3:hr>141</ns3:hr>
            <ns3:cad>0</ns3:cad>
          </ns3:TrackPointExtension>
        </extensions>
      </trkpt>
      <trkpt lat="52.2750881128013134002685546875" lon="1.5981417708098888397216796875">
        <ele>-230.600006103515625</ele>
        <time>2025-09-07T09:57:37.000Z</time>
        <extensions>
          <ns3:TrackPointExtension>
            <ns3:hr>138</ns3:hr>
            <ns3:cad>52</ns3:cad>
          </ns3:TrackPointExtension>
        </extensions>
      </trkpt>
      <trkpt lat="52.27512205950915813446044921875" lon="1.59806373529136180877685546875">
        <ele>-231.600006103515625</ele>
        <time>2025-09-07T09:57:42.000Z</time>
        <extensions>
          <ns3:TrackPointExtension>
            <ns3:hr>139</ns3:hr>
            <ns3:cad>57</ns3:cad>
          </ns3:TrackPointExtension>
        </extensions>
      </trkpt>
      <trkpt lat="52.27512591518461704254150390625" lon="1.5980475582182407379150390625">
        <ele>-231.8000030517578125</ele>
        <time>2025-09-07T09:57:43.000Z</time>
        <extensions>
          <ns3:TrackPointExtension>
            <ns3:hr>138</ns3:hr>
            <ns3:cad>57</ns3:cad>
          </ns3:TrackPointExtension>
        </extensions>
      </trkpt>
      <trkpt lat="52.275137566030025482177734375" lon="1.59795041196048259735107421875">
        <ele>-232.8000030517578125</ele>
        <time>2025-09-07T09:57:47.000Z</time>
        <extensions>
          <ns3:TrackPointExtension>
            <ns3:hr>140</ns3:hr>
            <ns3:cad>58</ns3:cad>
          </ns3:TrackPointExtension>
        </extensions>
      </trkpt>
      <trkpt lat="52.2751420922577381134033203125" lon="1.59790397621691226959228515625">
        <ele>-233.1999969482421875</ele>
        <time>2025-09-07T09:57:49.000Z</time>
        <extensions>
          <ns3:TrackPointExtension>
            <ns3:hr>137</ns3:hr>
            <ns3:cad>59</ns3:cad>
          </ns3:TrackPointExtension>
        </extensions>
      </trkpt>
      <trkpt lat="52.2751709260046482086181640625" lon="1.59784488379955291748046875">
        <ele>-234</ele>
        <time>2025-09-07T09:57:52.000Z</time>
        <extensions>
          <ns3:TrackPointExtension>
            <ns3:hr>135</ns3:hr>
            <ns3:cad>59</ns3:cad>
          </ns3:TrackPointExtension>
        </extensions>
      </trkpt>
      <trkpt lat="52.27517771534621715545654296875" lon="1.59782954491674900054931640625">
        <ele>-234.1999969482421875</ele>
        <time>2025-09-07T09:57:53.000Z</time>
        <extensions>
          <ns3:TrackPointExtension>
            <ns3:hr>133</ns3:hr>
            <ns3:cad>59</ns3:cad>
          </ns3:TrackPointExtension>
        </extensions>
      </trkpt>
      <trkpt lat="52.27520822547376155853271484375" lon="1.597749330103397369384765625">
        <ele>-235.1999969482421875</ele>
        <time>2025-09-07T09:57:57.000Z</time>
        <extensions>
          <ns3:TrackPointExtension>
            <ns3:hr>134</ns3:hr>
            <ns3:cad>58</ns3:cad>
          </ns3:TrackPointExtension>
        </extensions>
      </trkpt>
      <trkpt lat="52.275254242122173309326171875" lon="1.59768789075314998626708984375">
        <ele>-236.399993896484375</ele>
        <time>2025-09-07T09:58:02.000Z</time>
        <extensions>
          <ns3:TrackPointExtension>
            <ns3:hr>133</ns3:hr>
            <ns3:cad>60</ns3:cad>
          </ns3:TrackPointExtension>
        </extensions>
      </trkpt>
      <trkpt lat="52.275270335376262664794921875" lon="1.59763592295348644256591796875">
        <ele>-236.8000030517578125</ele>
        <time>2025-09-07T09:58:04.000Z</time>
        <extensions>
          <ns3:TrackPointExtension>
            <ns3:hr>134</ns3:hr>
            <ns3:cad>120</ns3:cad>
          </ns3:TrackPointExtension>
        </extensions>
      </trkpt>
      <trkpt lat="52.27527938783168792724609375" lon="1.5976150520145893096923828125">
        <ele>-237.1999969482421875</ele>
        <time>2025-09-07T09:58:05.000Z</time>
        <extensions>
          <ns3:TrackPointExtension>
            <ns3:hr>131</ns3:hr>
            <ns3:cad>120</ns3:cad>
          </ns3:TrackPointExtension>
        </extensions>
      </trkpt>
      <trkpt lat="52.2752879373729228973388671875" lon="1.59757959656417369842529296875">
        <ele>-237.399993896484375</ele>
        <time>2025-09-07T09:58:06.000Z</time>
        <extensions>
          <ns3:TrackPointExtension>
            <ns3:hr>130</ns3:hr>
            <ns3:cad>120</ns3:cad>
          </ns3:TrackPointExtension>
        </extensions>
      </trkpt>
      <trkpt lat="52.27530746720731258392333984375" lon="1.59749443642795085906982421875">
        <ele>-238.399993896484375</ele>
        <time>2025-09-07T09:58:10.000Z</time>
        <extensions>
          <ns3:TrackPointExtension>
            <ns3:hr>130</ns3:hr>
            <ns3:cad>78</ns3:cad>
          </ns3:TrackPointExtension>
        </extensions>
      </trkpt>
      <trkpt lat="52.27531014941632747650146484375" lon="1.59746912308037281036376953125">
        <ele>-238.600006103515625</ele>
        <time>2025-09-07T09:58:11.000Z</time>
        <extensions>
          <ns3:TrackPointExtension>
            <ns3:hr>129</ns3:hr>
            <ns3:cad>78</ns3:cad>
          </ns3:TrackPointExtension>
        </extensions>
      </trkpt>
      <trkpt lat="52.27531425654888153076171875" lon="1.59739888273179531097412109375">
        <ele>-239</ele>
        <time>2025-09-07T09:58:13.000Z</time>
        <extensions>
          <ns3:TrackPointExtension>
            <ns3:hr>130</ns3:hr>
            <ns3:cad>79</ns3:cad>
          </ns3:TrackPointExtension>
        </extensions>
      </trkpt>
      <trkpt lat="52.27532071061432361602783203125" lon="1.59733568318188190460205078125">
        <ele>-239.600006103515625</ele>
        <time>2025-09-07T09:58:15.000Z</time>
        <extensions>
          <ns3:TrackPointExtension>
            <ns3:hr>133</ns3:hr>
            <ns3:cad>79</ns3:cad>
          </ns3:TrackPointExtension>
        </extensions>
      </trkpt>
      <trkpt lat="52.275333702564239501953125" lon="1.597275920212268829345703125">
        <ele>-240</ele>
        <time>2025-09-07T09:58:17.000Z</time>
        <extensions>
          <ns3:TrackPointExtension>
            <ns3:hr>137</ns3:hr>
            <ns3:cad>78</ns3:cad>
          </ns3:TrackPointExtension>
        </extensions>
      </trkpt>
      <trkpt lat="52.275358177721500396728515625" lon="1.59720844589173793792724609375">
        <ele>-240.8000030517578125</ele>
        <time>2025-09-07T09:58:20.000Z</time>
        <extensions>
          <ns3:TrackPointExtension>
            <ns3:hr>140</ns3:hr>
            <ns3:cad>78</ns3:cad>
          </ns3:TrackPointExtension>
        </extensions>
      </trkpt>
      <trkpt lat="52.27542917244136333465576171875" lon="1.59713217057287693023681640625">
        <ele>-241.8000030517578125</ele>
        <time>2025-09-07T09:58:24.000Z</time>
        <extensions>
          <ns3:TrackPointExtension>
            <ns3:hr>143</ns3:hr>
            <ns3:cad>80</ns3:cad>
          </ns3:TrackPointExtension>
        </extensions>
      </trkpt>
      <trkpt lat="52.27544526569545269012451171875" lon="1.5971087850630283355712890625">
        <ele>-242</ele>
        <time>2025-09-07T09:58:25.000Z</time>
        <extensions>
          <ns3:TrackPointExtension>
            <ns3:hr>144</ns3:hr>
            <ns3:cad>80</ns3:cad>
          </ns3:TrackPointExtension>
        </extensions>
      </trkpt>
      <trkpt lat="52.27551232092082500457763671875" lon="1.59695128910243511199951171875">
        <ele>-243</ele>
        <time>2025-09-07T09:58:30.000Z</time>
        <extensions>
          <ns3:TrackPointExtension>
            <ns3:hr>147</ns3:hr>
            <ns3:cad>79</ns3:cad>
          </ns3:TrackPointExtension>
        </extensions>
      </trkpt>
      <trkpt lat="52.27551877498626708984375" lon="1.59692580811679363250732421875">
        <ele>-243.1999969482421875</ele>
        <time>2025-09-07T09:58:31.000Z</time>
        <extensions>
          <ns3:TrackPointExtension>
            <ns3:hr>147</ns3:hr>
            <ns3:cad>79</ns3:cad>
          </ns3:TrackPointExtension>
        </extensions>
      </trkpt>
      <trkpt lat="52.275576777756214141845703125" lon="1.5967342816293239593505859375">
        <ele>-244.399993896484375</ele>
        <time>2025-09-07T09:58:37.000Z</time>
        <extensions>
          <ns3:TrackPointExtension>
            <ns3:hr>150</ns3:hr>
            <ns3:cad>80</ns3:cad>
          </ns3:TrackPointExtension>
        </extensions>
      </trkpt>
      <trkpt lat="52.27561240084469318389892578125" lon="1.596638225018978118896484375">
        <ele>-245</ele>
        <time>2025-09-07T09:58:40.000Z</time>
        <extensions>
          <ns3:TrackPointExtension>
            <ns3:hr>150</ns3:hr>
            <ns3:cad>80</ns3:cad>
          </ns3:TrackPointExtension>
        </extensions>
      </trkpt>
      <trkpt lat="52.27563419379293918609619140625" lon="1.596580557525157928466796875">
        <ele>-245.399993896484375</ele>
        <time>2025-09-07T09:58:42.000Z</time>
        <extensions>
          <ns3:TrackPointExtension>
            <ns3:hr>151</ns3:hr>
            <ns3:cad>81</ns3:cad>
          </ns3:TrackPointExtension>
        </extensions>
      </trkpt>
      <trkpt lat="52.27566562592983245849609375" lon="1.59645474515855312347412109375">
        <ele>-246.399993896484375</ele>
        <time>2025-09-07T09:58:47.000Z</time>
        <extensions>
          <ns3:TrackPointExtension>
            <ns3:hr>151</ns3:hr>
            <ns3:cad>78</ns3:cad>
          </ns3:TrackPointExtension>
        </extensions>
      </trkpt>
      <trkpt lat="52.2756641171872615814208984375" lon="1.5964321978390216827392578125">
        <ele>-246.600006103515625</ele>
        <time>2025-09-07T09:58:48.000Z</time>
        <extensions>
          <ns3:TrackPointExtension>
            <ns3:hr>151</ns3:hr>
            <ns3:cad>79</ns3:cad>
          </ns3:TrackPointExtension>
        </extensions>
      </trkpt>
      <trkpt lat="52.275695465505123138427734375" lon="1.59630487672984600067138671875">
        <ele>-247.600006103515625</ele>
        <time>2025-09-07T09:58:53.000Z</time>
        <extensions>
          <ns3:TrackPointExtension>
            <ns3:hr>154</ns3:hr>
            <ns3:cad>79</ns3:cad>
          </ns3:TrackPointExtension>
        </extensions>
      </trkpt>
      <trkpt lat="52.27570116519927978515625" lon="1.5962752886116504669189453125">
        <ele>-247.8000030517578125</ele>
        <time>2025-09-07T09:58:54.000Z</time>
        <extensions>
          <ns3:TrackPointExtension>
            <ns3:hr>154</ns3:hr>
            <ns3:cad>79</ns3:cad>
          </ns3:TrackPointExtension>
        </extensions>
      </trkpt>
      <trkpt lat="52.2757060267031192779541015625" lon="1.59624603576958179473876953125">
        <ele>-248</ele>
        <time>2025-09-07T09:58:55.000Z</time>
        <extensions>
          <ns3:TrackPointExtension>
            <ns3:hr>152</ns3:hr>
            <ns3:cad>79</ns3:cad>
          </ns3:TrackPointExtension>
        </extensions>
      </trkpt>
      <trkpt lat="52.27573477663099765777587890625" lon="1.59611561335623264312744140625">
        <ele>-248.8000030517578125</ele>
        <time>2025-09-07T09:59:00.000Z</time>
        <extensions>
          <ns3:TrackPointExtension>
            <ns3:hr>153</ns3:hr>
            <ns3:cad>79</ns3:cad>
          </ns3:TrackPointExtension>
        </extensions>
      </trkpt>
      <trkpt lat="52.27575682103633880615234375" lon="1.596018970012664794921875">
        <ele>-249.399993896484375</ele>
        <time>2025-09-07T09:59:04.000Z</time>
        <extensions>
          <ns3:TrackPointExtension>
            <ns3:hr>153</ns3:hr>
            <ns3:cad>78</ns3:cad>
          </ns3:TrackPointExtension>
        </extensions>
      </trkpt>
      <trkpt lat="52.27578154765069484710693359375" lon="1.59596406854689121246337890625">
        <ele>-249.8000030517578125</ele>
        <time>2025-09-07T09:59:07.000Z</time>
        <extensions>
          <ns3:TrackPointExtension>
            <ns3:hr>153</ns3:hr>
            <ns3:cad>79</ns3:cad>
          </ns3:TrackPointExtension>
        </extensions>
      </trkpt>
      <trkpt lat="52.2758227027952671051025390625" lon="1.595867089927196502685546875">
        <ele>-250.399993896484375</ele>
        <time>2025-09-07T09:59:11.000Z</time>
        <extensions>
          <ns3:TrackPointExtension>
            <ns3:hr>154</ns3:hr>
            <ns3:cad>79</ns3:cad>
          </ns3:TrackPointExtension>
        </extensions>
      </trkpt>
      <trkpt lat="52.27585949935019016265869140625" lon="1.595788635313510894775390625">
        <ele>-251</ele>
        <time>2025-09-07T09:59:15.000Z</time>
        <extensions>
          <ns3:TrackPointExtension>
            <ns3:hr>156</ns3:hr>
            <ns3:cad>80</ns3:cad>
          </ns3:TrackPointExtension>
        </extensions>
      </trkpt>
      <trkpt lat="52.27590057067573070526123046875" lon="1.595686376094818115234375">
        <ele>-251.600006103515625</ele>
        <time>2025-09-07T09:59:20.000Z</time>
        <extensions>
          <ns3:TrackPointExtension>
            <ns3:hr>157</ns3:hr>
            <ns3:cad>79</ns3:cad>
          </ns3:TrackPointExtension>
        </extensions>
      </trkpt>
      <trkpt lat="52.27591515518724918365478515625" lon="1.5956030599772930145263671875">
        <ele>-252</ele>
        <time>2025-09-07T09:59:23.000Z</time>
        <extensions>
          <ns3:TrackPointExtension>
            <ns3:hr>158</ns3:hr>
            <ns3:cad>80</ns3:cad>
          </ns3:TrackPointExtension>
        </extensions>
      </trkpt>
      <trkpt lat="52.275921441614627838134765625" lon="1.59554421901702880859375">
        <ele>-252.399993896484375</ele>
        <time>2025-09-07T09:59:25.000Z</time>
        <extensions>
          <ns3:TrackPointExtension>
            <ns3:hr>155</ns3:hr>
            <ns3:cad>80</ns3:cad>
          </ns3:TrackPointExtension>
        </extensions>
      </trkpt>
      <trkpt lat="52.2759546339511871337890625" lon="1.59541404806077480316162109375">
        <ele>-253</ele>
        <time>2025-09-07T09:59:30.000Z</time>
        <extensions>
          <ns3:TrackPointExtension>
            <ns3:hr>159</ns3:hr>
            <ns3:cad>80</ns3:cad>
          </ns3:TrackPointExtension>
        </extensions>
      </trkpt>
      <trkpt lat="52.275965698063373565673828125" lon="1.5953901596367359161376953125">
        <ele>-253</ele>
        <time>2025-09-07T09:59:31.000Z</time>
        <extensions>
          <ns3:TrackPointExtension>
            <ns3:hr>156</ns3:hr>
            <ns3:cad>80</ns3:cad>
          </ns3:TrackPointExtension>
        </extensions>
      </trkpt>
      <trkpt lat="52.27600551210343837738037109375" lon="1.595254205167293548583984375">
        <ele>-253.600006103515625</ele>
        <time>2025-09-07T09:59:36.000Z</time>
        <extensions>
          <ns3:TrackPointExtension>
            <ns3:hr>153</ns3:hr>
            <ns3:cad>79</ns3:cad>
          </ns3:TrackPointExtension>
        </extensions>
      </trkpt>
      <trkpt lat="52.27603384293615818023681640625" lon="1.5951313264667987823486328125">
        <ele>-254.1999969482421875</ele>
        <time>2025-09-07T09:59:40.000Z</time>
        <extensions>
          <ns3:TrackPointExtension>
            <ns3:hr>152</ns3:hr>
            <ns3:cad>79</ns3:cad>
          </ns3:TrackPointExtension>
        </extensions>
      </trkpt>
      <trkpt lat="52.27607474662363529205322265625" lon="1.594870984554290771484375">
        <ele>-254.8000030517578125</ele>
        <time>2025-09-07T09:59:48.000Z</time>
        <extensions>
          <ns3:TrackPointExtension>
            <ns3:hr>152</ns3:hr>
            <ns3:cad>78</ns3:cad>
          </ns3:TrackPointExtension>
        </extensions>
      </trkpt>
      <trkpt lat="52.27609335444867610931396484375" lon="1.5948054380714893341064453125">
        <ele>-255.1999969482421875</ele>
        <time>2025-09-07T09:59:51.000Z</time>
        <extensions>
          <ns3:TrackPointExtension>
            <ns3:hr>152</ns3:hr>
            <ns3:cad>78</ns3:cad>
          </ns3:TrackPointExtension>
        </extensions>
      </trkpt>
      <trkpt lat="52.27615906856954097747802734375" lon="1.59464794211089611053466796875">
        <ele>-255.8000030517578125</ele>
        <time>2025-09-07T09:59:58.000Z</time>
        <extensions>
          <ns3:TrackPointExtension>
            <ns3:hr>154</ns3:hr>
            <ns3:cad>79</ns3:cad>
          </ns3:TrackPointExtension>
        </extensions>
      </trkpt>
      <trkpt lat="52.27617658674716949462890625" lon="1.5945925377309322357177734375">
        <ele>-255.8000030517578125</ele>
        <time>2025-09-07T10:00:00.000Z</time>
        <extensions>
          <ns3:TrackPointExtension>
            <ns3:hr>157</ns3:hr>
            <ns3:cad>80</ns3:cad>
          </ns3:TrackPointExtension>
        </extensions>
      </trkpt>
      <trkpt lat="52.27618840523064136505126953125" lon="1.59451223909854888916015625">
        <ele>-256.20001220703125</ele>
        <time>2025-09-07T10:00:03.000Z</time>
        <extensions>
          <ns3:TrackPointExtension>
            <ns3:hr>160</ns3:hr>
            <ns3:cad>79</ns3:cad>
          </ns3:TrackPointExtension>
        </extensions>
      </trkpt>
      <trkpt lat="52.276197373867034912109375" lon="1.594455242156982421875">
        <ele>-256.399993896484375</ele>
        <time>2025-09-07T10:00:05.000Z</time>
        <extensions>
          <ns3:TrackPointExtension>
            <ns3:hr>156</ns3:hr>
            <ns3:cad>79</ns3:cad>
          </ns3:TrackPointExtension>
        </extensions>
      </trkpt>
      <trkpt lat="52.2762106172740459442138671875" lon="1.5943990834057331085205078125">
        <ele>-256.600006103515625</ele>
        <time>2025-09-07T10:00:07.000Z</time>
        <extensions>
          <ns3:TrackPointExtension>
            <ns3:hr>156</ns3:hr>
            <ns3:cad>80</ns3:cad>
          </ns3:TrackPointExtension>
        </extensions>
      </trkpt>
      <trkpt lat="52.27624925784766674041748046875" lon="1.594256423413753509521484375">
        <ele>-257.20001220703125</ele>
        <time>2025-09-07T10:00:14.000Z</time>
        <extensions>
          <ns3:TrackPointExtension>
            <ns3:hr>157</ns3:hr>
            <ns3:cad>78</ns3:cad>
          </ns3:TrackPointExtension>
        </extensions>
      </trkpt>
      <trkpt lat="52.27627046406269073486328125" lon="1.59418425522744655609130859375">
        <ele>-257.600006103515625</ele>
        <time>2025-09-07T10:00:18.000Z</time>
        <extensions>
          <ns3:TrackPointExtension>
            <ns3:hr>160</ns3:hr>
            <ns3:cad>80</ns3:cad>
          </ns3:TrackPointExtension>
        </extensions>
      </trkpt>
      <trkpt lat="52.27628789842128753662109375" lon="1.59408451057970523834228515625">
        <ele>-258</ele>
        <time>2025-09-07T10:00:22.000Z</time>
        <extensions>
          <ns3:TrackPointExtension>
            <ns3:hr>159</ns3:hr>
            <ns3:cad>79</ns3:cad>
          </ns3:TrackPointExtension>
        </extensions>
      </trkpt>
      <trkpt lat="52.276319079101085662841796875" lon="1.59398811869323253631591796875">
        <ele>-258.20001220703125</ele>
        <time>2025-09-07T10:00:26.000Z</time>
        <extensions>
          <ns3:TrackPointExtension>
            <ns3:hr>159</ns3:hr>
            <ns3:cad>79</ns3:cad>
          </ns3:TrackPointExtension>
        </extensions>
      </trkpt>
      <trkpt lat="52.27637775242328643798828125" lon="1.593885608017444610595703125">
        <ele>-258.600006103515625</ele>
        <time>2025-09-07T10:00:31.000Z</time>
        <extensions>
          <ns3:TrackPointExtension>
            <ns3:hr>160</ns3:hr>
            <ns3:cad>76</ns3:cad>
          </ns3:TrackPointExtension>
        </extensions>
      </trkpt>
      <trkpt lat="52.2763842903077602386474609375" lon="1.59387060441076755523681640625">
        <ele>-258.600006103515625</ele>
        <time>2025-09-07T10:00:32.000Z</time>
        <extensions>
          <ns3:TrackPointExtension>
            <ns3:hr>160</ns3:hr>
            <ns3:cad>56</ns3:cad>
          </ns3:TrackPointExtension>
        </extensions>
      </trkpt>
      <trkpt lat="52.2764171473681926727294921875" lon="1.5938381664454936981201171875">
        <ele>-259</ele>
        <time>2025-09-07T10:00:36.000Z</time>
        <extensions>
          <ns3:TrackPointExtension>
            <ns3:hr>163</ns3:hr>
            <ns3:cad>0</ns3:cad>
          </ns3:TrackPointExtension>
        </extensions>
      </trkpt>
      <trkpt lat="52.2764235176146030426025390625" lon="1.5938222408294677734375">
        <ele>-259.20001220703125</ele>
        <time>2025-09-07T10:00:38.000Z</time>
        <extensions>
          <ns3:TrackPointExtension>
            <ns3:hr>163</ns3:hr>
            <ns3:cad>0</ns3:cad>
          </ns3:TrackPointExtension>
        </extensions>
      </trkpt>
      <trkpt lat="52.276418320834636688232421875" lon="1.593815200030803680419921875">
        <ele>-259.399993896484375</ele>
        <time>2025-09-07T10:00:39.000Z</time>
        <extensions>
          <ns3:TrackPointExtension>
            <ns3:hr>163</ns3:hr>
            <ns3:cad>0</ns3:cad>
          </ns3:TrackPointExtension>
        </extensions>
      </trkpt>
      <trkpt lat="52.27644891478121280670166015625" lon="1.5938277728855609893798828125">
        <ele>-260</ele>
        <time>2025-09-07T10:00:45.000Z</time>
        <extensions>
          <ns3:TrackPointExtension>
            <ns3:hr>160</ns3:hr>
            <ns3:cad>54</ns3:cad>
          </ns3:TrackPointExtension>
        </extensions>
      </trkpt>
      <trkpt lat="52.2764627449214458465576171875" lon="1.5938609652221202850341796875">
        <ele>-260.399993896484375</ele>
        <time>2025-09-07T10:00:47.000Z</time>
        <extensions>
          <ns3:TrackPointExtension>
            <ns3:hr>159</ns3:hr>
            <ns3:cad>54</ns3:cad>
          </ns3:TrackPointExtension>
        </extensions>
      </trkpt>
      <trkpt lat="52.27648462168872356414794921875" lon="1.59388971514999866485595703125">
        <ele>-260.79998779296875</ele>
        <time>2025-09-07T10:00:50.000Z</time>
        <extensions>
          <ns3:TrackPointExtension>
            <ns3:hr>156</ns3:hr>
            <ns3:cad>55</ns3:cad>
          </ns3:TrackPointExtension>
        </extensions>
      </trkpt>
      <trkpt lat="52.27651949040591716766357421875" lon="1.5939389169216156005859375">
        <ele>-261.399993896484375</ele>
        <time>2025-09-07T10:00:54.000Z</time>
        <extensions>
          <ns3:TrackPointExtension>
            <ns3:hr>154</ns3:hr>
            <ns3:cad>57</ns3:cad>
          </ns3:TrackPointExtension>
        </extensions>
      </trkpt>
      <trkpt lat="52.27652921341359615325927734375" lon="1.593948639929294586181640625">
        <ele>-261.600006103515625</ele>
        <time>2025-09-07T10:00:55.000Z</time>
        <extensions>
          <ns3:TrackPointExtension>
            <ns3:hr>154</ns3:hr>
            <ns3:cad>57</ns3:cad>
          </ns3:TrackPointExtension>
        </extensions>
      </trkpt>
      <trkpt lat="52.27656575851142406463623046875" lon="1.594004966318607330322265625">
        <ele>-262.20001220703125</ele>
        <time>2025-09-07T10:00:59.000Z</time>
        <extensions>
          <ns3:TrackPointExtension>
            <ns3:hr>151</ns3:hr>
            <ns3:cad>58</ns3:cad>
          </ns3:TrackPointExtension>
        </extensions>
      </trkpt>
      <trkpt lat="52.27659459225833415985107421875" lon="1.5940208919346332550048828125">
        <ele>-262.600006103515625</ele>
        <time>2025-09-07T10:01:01.000Z</time>
        <extensions>
          <ns3:TrackPointExtension>
            <ns3:hr>149</ns3:hr>
            <ns3:cad>57</ns3:cad>
          </ns3:TrackPointExtension>
        </extensions>
      </trkpt>
      <trkpt lat="52.27661370299756526947021484375" lon="1.59404293633997440338134765625">
        <ele>-263</ele>
        <time>2025-09-07T10:01:03.000Z</time>
        <extensions>
          <ns3:TrackPointExtension>
            <ns3:hr>146</ns3:hr>
            <ns3:cad>57</ns3:cad>
          </ns3:TrackPointExtension>
        </extensions>
      </trkpt>
      <trkpt lat="52.27666340768337249755859375" lon="1.5940996818244457244873046875">
        <ele>-263.600006103515625</ele>
        <time>2025-09-07T10:01:07.000Z</time>
        <extensions>
          <ns3:TrackPointExtension>
            <ns3:hr>143</ns3:hr>
            <ns3:cad>57</ns3:cad>
          </ns3:TrackPointExtension>
        </extensions>
      </trkpt>
      <trkpt lat="52.27672250010073184967041015625" lon="1.59414972178637981414794921875">
        <ele>-264.399993896484375</ele>
        <time>2025-09-07T10:01:12.000Z</time>
        <extensions>
          <ns3:TrackPointExtension>
            <ns3:hr>141</ns3:hr>
            <ns3:cad>56</ns3:cad>
          </ns3:TrackPointExtension>
        </extensions>
      </trkpt>
      <trkpt lat="52.27673507295548915863037109375" lon="1.59416313283145427703857421875">
        <ele>-264.600006103515625</ele>
        <time>2025-09-07T10:01:13.000Z</time>
        <extensions>
          <ns3:TrackPointExtension>
            <ns3:hr>140</ns3:hr>
            <ns3:cad>58</ns3:cad>
          </ns3:TrackPointExtension>
        </extensions>
      </trkpt>
      <trkpt lat="52.27680313400924205780029296875" lon="1.59427192993462085723876953125">
        <ele>-265.79998779296875</ele>
        <time>2025-09-07T10:01:19.000Z</time>
        <extensions>
          <ns3:TrackPointExtension>
            <ns3:hr>137</ns3:hr>
            <ns3:cad>58</ns3:cad>
          </ns3:TrackPointExtension>
        </extensions>
      </trkpt>
      <trkpt lat="52.27683749981224536895751953125" lon="1.5942740254104137420654296875">
        <ele>-266.20001220703125</ele>
        <time>2025-09-07T10:01:21.000Z</time>
        <extensions>
          <ns3:TrackPointExtension>
            <ns3:hr>134</ns3:hr>
            <ns3:cad>58</ns3:cad>
          </ns3:TrackPointExtension>
        </extensions>
      </trkpt>
      <trkpt lat="52.2768799960613250732421875" lon="1.5942998416721820831298828125">
        <ele>-266.79998779296875</ele>
        <time>2025-09-07T10:01:24.000Z</time>
        <extensions>
          <ns3:TrackPointExtension>
            <ns3:hr>132</ns3:hr>
            <ns3:cad>59</ns3:cad>
          </ns3:TrackPointExtension>
        </extensions>
      </trkpt>
      <trkpt lat="52.27694596163928508758544921875" lon="1.59437402151525020599365234375">
        <ele>-267.600006103515625</ele>
        <time>2025-09-07T10:01:28.000Z</time>
        <extensions>
          <ns3:TrackPointExtension>
            <ns3:hr>132</ns3:hr>
            <ns3:cad>59</ns3:cad>
          </ns3:TrackPointExtension>
        </extensions>
      </trkpt>
      <trkpt lat="52.27698083035647869110107421875" lon="1.59442146308720111846923828125">
        <ele>-268</ele>
        <time>2025-09-07T10:01:30.000Z</time>
        <extensions>
          <ns3:TrackPointExtension>
            <ns3:hr>134</ns3:hr>
            <ns3:cad>77</ns3:cad>
          </ns3:TrackPointExtension>
        </extensions>
      </trkpt>
      <trkpt lat="52.27707705460488796234130859375" lon="1.59454350359737873077392578125">
        <ele>-269.20001220703125</ele>
        <time>2025-09-07T10:01:36.000Z</time>
        <extensions>
          <ns3:TrackPointExtension>
            <ns3:hr>135</ns3:hr>
            <ns3:cad>79</ns3:cad>
          </ns3:TrackPointExtension>
        </extensions>
      </trkpt>
      <trkpt lat="52.27710454724729061126708984375" lon="1.594580970704555511474609375">
        <ele>-269.399993896484375</ele>
        <time>2025-09-07T10:01:38.000Z</time>
        <extensions>
          <ns3:TrackPointExtension>
            <ns3:hr>139</ns3:hr>
            <ns3:cad>79</ns3:cad>
          </ns3:TrackPointExtension>
        </extensions>
      </trkpt>
      <trkpt lat="52.277135811746120452880859375" lon="1.5946220420300960540771484375">
        <ele>-269.79998779296875</ele>
        <time>2025-09-07T10:01:40.000Z</time>
        <extensions>
          <ns3:TrackPointExtension>
            <ns3:hr>145</ns3:hr>
            <ns3:cad>79</ns3:cad>
          </ns3:TrackPointExtension>
        </extensions>
      </trkpt>
      <trkpt lat="52.277179397642612457275390625" lon="1.594717763364315032958984375">
        <ele>-270.20001220703125</ele>
        <time>2025-09-07T10:01:44.000Z</time>
        <extensions>
          <ns3:TrackPointExtension>
            <ns3:hr>148</ns3:hr>
            <ns3:cad>79</ns3:cad>
          </ns3:TrackPointExtension>
        </extensions>
      </trkpt>
      <trkpt lat="52.2771936468780040740966796875" lon="1.59474165178835391998291015625">
        <ele>-270.399993896484375</ele>
        <time>2025-09-07T10:01:45.000Z</time>
        <extensions>
          <ns3:TrackPointExtension>
            <ns3:hr>149</ns3:hr>
            <ns3:cad>79</ns3:cad>
          </ns3:TrackPointExtension>
        </extensions>
      </trkpt>
      <trkpt lat="52.27727453224360942840576171875" lon="1.5948875807225704193115234375">
        <ele>-271</ele>
        <time>2025-09-07T10:01:51.000Z</time>
        <extensions>
          <ns3:TrackPointExtension>
            <ns3:hr>152</ns3:hr>
            <ns3:cad>80</ns3:cad>
          </ns3:TrackPointExtension>
        </extensions>
      </trkpt>
      <trkpt lat="52.2772982530295848846435546875" lon="1.5949318371713161468505859375">
        <ele>-271.20001220703125</ele>
        <time>2025-09-07T10:01:53.000Z</time>
        <extensions>
          <ns3:TrackPointExtension>
            <ns3:hr>153</ns3:hr>
            <ns3:cad>80</ns3:cad>
          </ns3:TrackPointExtension>
        </extensions>
      </trkpt>
      <trkpt lat="52.27739037014544010162353515625" lon="1.59508916549384593963623046875">
        <ele>-272</ele>
        <time>2025-09-07T10:02:01.000Z</time>
        <extensions>
          <ns3:TrackPointExtension>
            <ns3:hr>153</ns3:hr>
            <ns3:cad>79</ns3:cad>
          </ns3:TrackPointExtension>
        </extensions>
      </trkpt>
      <trkpt lat="52.2774236463010311126708984375" lon="1.59514767117798328399658203125">
        <ele>-272.399993896484375</ele>
        <time>2025-09-07T10:02:04.000Z</time>
        <extensions>
          <ns3:TrackPointExtension>
            <ns3:hr>152</ns3:hr>
            <ns3:cad>79</ns3:cad>
          </ns3:TrackPointExtension>
        </extensions>
      </trkpt>
      <trkpt lat="52.2774655558168888092041015625" lon="1.59524993039667606353759765625">
        <ele>-272.79998779296875</ele>
        <time>2025-09-07T10:02:09.000Z</time>
        <extensions>
          <ns3:TrackPointExtension>
            <ns3:hr>153</ns3:hr>
            <ns3:cad>79</ns3:cad>
          </ns3:TrackPointExtension>
        </extensions>
      </trkpt>
      <trkpt lat="52.2775031067430973052978515625" lon="1.59534506499767303466796875">
        <ele>-273.399993896484375</ele>
        <time>2025-09-07T10:02:14.000Z</time>
        <extensions>
          <ns3:TrackPointExtension>
            <ns3:hr>153</ns3:hr>
            <ns3:cad>79</ns3:cad>
          </ns3:TrackPointExtension>
        </extensions>
      </trkpt>
      <trkpt lat="52.2775272466242313385009765625" lon="1.59540005028247833251953125">
        <ele>-273.79998779296875</ele>
        <time>2025-09-07T10:02:17.000Z</time>
        <extensions>
          <ns3:TrackPointExtension>
            <ns3:hr>152</ns3:hr>
            <ns3:cad>79</ns3:cad>
          </ns3:TrackPointExtension>
        </extensions>
      </trkpt>
      <trkpt lat="52.2775371372699737548828125" lon="1.59541622735559940338134765625">
        <ele>-273.79998779296875</ele>
        <time>2025-09-07T10:02:18.000Z</time>
        <extensions>
          <ns3:TrackPointExtension>
            <ns3:hr>155</ns3:hr>
            <ns3:cad>79</ns3:cad>
          </ns3:TrackPointExtension>
        </extensions>
      </trkpt>
      <trkpt lat="52.27754853665828704833984375" lon="1.595460064709186553955078125">
        <ele>-274.20001220703125</ele>
        <time>2025-09-07T10:02:20.000Z</time>
        <extensions>
          <ns3:TrackPointExtension>
            <ns3:hr>152</ns3:hr>
            <ns3:cad>79</ns3:cad>
          </ns3:TrackPointExtension>
        </extensions>
      </trkpt>
      <trkpt lat="52.27757041342556476593017578125" lon="1.59553818404674530029296875">
        <ele>-274.399993896484375</ele>
        <time>2025-09-07T10:02:23.000Z</time>
        <extensions>
          <ns3:TrackPointExtension>
            <ns3:hr>153</ns3:hr>
            <ns3:cad>79</ns3:cad>
          </ns3:TrackPointExtension>
        </extensions>
      </trkpt>
      <trkpt lat="52.27757728658616542816162109375" lon="1.59556106664240360260009765625">
        <ele>-274.600006103515625</ele>
        <time>2025-09-07T10:02:24.000Z</time>
        <extensions>
          <ns3:TrackPointExtension>
            <ns3:hr>153</ns3:hr>
            <ns3:cad>79</ns3:cad>
          </ns3:TrackPointExtension>
        </extensions>
      </trkpt>
      <trkpt lat="52.2776605188846588134765625" lon="1.595776565372943878173828125">
        <ele>-275.600006103515625</ele>
        <time>2025-09-07T10:02:32.000Z</time>
        <extensions>
          <ns3:TrackPointExtension>
            <ns3:hr>152</ns3:hr>
            <ns3:cad>78</ns3:cad>
          </ns3:TrackPointExtension>
        </extensions>
      </trkpt>
      <trkpt lat="52.277668230235576629638671875" lon="1.5957998670637607574462890625">
        <ele>-275.79998779296875</ele>
        <time>2025-09-07T10:02:33.000Z</time>
        <extensions>
          <ns3:TrackPointExtension>
            <ns3:hr>155</ns3:hr>
            <ns3:cad>78</ns3:cad>
          </ns3:TrackPointExtension>
        </extensions>
      </trkpt>
      <trkpt lat="52.27769496850669384002685546875" lon="1.5959296189248561859130859375">
        <ele>-276.79998779296875</ele>
        <time>2025-09-07T10:02:39.000Z</time>
        <extensions>
          <ns3:TrackPointExtension>
            <ns3:hr>155</ns3:hr>
            <ns3:cad>77</ns3:cad>
          </ns3:TrackPointExtension>
        </extensions>
      </trkpt>
      <trkpt lat="52.27770812809467315673828125" lon="1.595960296690464019775390625">
        <ele>-277</ele>
        <time>2025-09-07T10:02:41.000Z</time>
        <extensions>
          <ns3:TrackPointExtension>
            <ns3:hr>154</ns3:hr>
            <ns3:cad>77</ns3:cad>
          </ns3:TrackPointExtension>
        </extensions>
      </trkpt>
      <trkpt lat="52.27777208201587200164794921875" lon="1.59607420675456523895263671875">
        <ele>-277.79998779296875</ele>
        <time>2025-09-07T10:02:46.000Z</time>
        <extensions>
          <ns3:TrackPointExtension>
            <ns3:hr>156</ns3:hr>
            <ns3:cad>79</ns3:cad>
          </ns3:TrackPointExtension>
        </extensions>
      </trkpt>
      <trkpt lat="52.27779890410602092742919921875" lon="1.59613824449479579925537109375">
        <ele>-278.20001220703125</ele>
        <time>2025-09-07T10:02:49.000Z</time>
        <extensions>
          <ns3:TrackPointExtension>
            <ns3:hr>156</ns3:hr>
            <ns3:cad>79</ns3:cad>
          </ns3:TrackPointExtension>
        </extensions>
      </trkpt>
      <trkpt lat="52.27788909338414669036865234375" lon="1.59630739130079746246337890625">
        <ele>-279</ele>
        <time>2025-09-07T10:02:56.000Z</time>
        <extensions>
          <ns3:TrackPointExtension>
            <ns3:hr>155</ns3:hr>
            <ns3:cad>80</ns3:cad>
          </ns3:TrackPointExtension>
        </extensions>
      </trkpt>
      <trkpt lat="52.2779004089534282684326171875" lon="1.59633421339094638824462890625">
        <ele>-279</ele>
        <time>2025-09-07T10:02:57.000Z</time>
        <extensions>
          <ns3:TrackPointExtension>
            <ns3:hr>158</ns3:hr>
            <ns3:cad>80</ns3:cad>
          </ns3:TrackPointExtension>
        </extensions>
      </trkpt>
      <trkpt lat="52.27791172452270984649658203125" lon="1.59636606462299823760986328125">
        <ele>-279</ele>
        <time>2025-09-07T10:02:58.000Z</time>
        <extensions>
          <ns3:TrackPointExtension>
            <ns3:hr>159</ns3:hr>
            <ns3:cad>80</ns3:cad>
          </ns3:TrackPointExtension>
        </extensions>
      </trkpt>
      <trkpt lat="52.2779919393360614776611328125" lon="1.5966316871345043182373046875">
        <ele>-279.600006103515625</ele>
        <time>2025-09-07T10:03:05.000Z</time>
        <extensions>
          <ns3:TrackPointExtension>
            <ns3:hr>157</ns3:hr>
            <ns3:cad>80</ns3:cad>
          </ns3:TrackPointExtension>
        </extensions>
      </trkpt>
      <trkpt lat="52.2780891694128513336181640625" lon="1.59681801684200763702392578125">
        <ele>-280</ele>
        <time>2025-09-07T10:03:11.000Z</time>
        <extensions>
          <ns3:TrackPointExtension>
            <ns3:hr>156</ns3:hr>
            <ns3:cad>79</ns3:cad>
          </ns3:TrackPointExtension>
        </extensions>
      </trkpt>
      <trkpt lat="52.2781112976372241973876953125" lon="1.59688674844801425933837890625">
        <ele>-280.399993896484375</ele>
        <time>2025-09-07T10:03:14.000Z</time>
        <extensions>
          <ns3:TrackPointExtension>
            <ns3:hr>154</ns3:hr>
            <ns3:cad>78</ns3:cad>
          </ns3:TrackPointExtension>
        </extensions>
      </trkpt>
      <trkpt lat="52.2781555540859699249267578125" lon="1.59701717086136341094970703125">
        <ele>-281.20001220703125</ele>
        <time>2025-09-07T10:03:19.000Z</time>
        <extensions>
          <ns3:TrackPointExtension>
            <ns3:hr>153</ns3:hr>
            <ns3:cad>82</ns3:cad>
          </ns3:TrackPointExtension>
        </extensions>
      </trkpt>
      <trkpt lat="52.27818463928997516632080078125" lon="1.59709311090409755706787109375">
        <ele>-281.600006103515625</ele>
        <time>2025-09-07T10:03:22.000Z</time>
        <extensions>
          <ns3:TrackPointExtension>
            <ns3:hr>154</ns3:hr>
            <ns3:cad>79</ns3:cad>
          </ns3:TrackPointExtension>
        </extensions>
      </trkpt>
      <trkpt lat="52.27823384106159210205078125" lon="1.5971976332366466522216796875">
        <ele>-282.20001220703125</ele>
        <time>2025-09-07T10:03:26.000Z</time>
        <extensions>
          <ns3:TrackPointExtension>
            <ns3:hr>152</ns3:hr>
            <ns3:cad>0</ns3:cad>
          </ns3:TrackPointExtension>
        </extensions>
      </trkpt>
      <trkpt lat="52.2782400436699390411376953125" lon="1.59723929129540920257568359375">
        <ele>-282.600006103515625</ele>
        <time>2025-09-07T10:03:29.000Z</time>
        <extensions>
          <ns3:TrackPointExtension>
            <ns3:hr>152</ns3:hr>
            <ns3:cad>0</ns3:cad>
          </ns3:TrackPointExtension>
        </extensions>
      </trkpt>
      <trkpt lat="52.278256975114345550537109375" lon="1.59726510755717754364013671875">
        <ele>-283.20001220703125</ele>
        <time>2025-09-07T10:03:34.000Z</time>
        <extensions>
          <ns3:TrackPointExtension>
            <ns3:hr>153</ns3:hr>
            <ns3:cad>0</ns3:cad>
          </ns3:TrackPointExtension>
        </extensions>
      </trkpt>
      <trkpt lat="52.27827231399714946746826171875" lon="1.5972844697535037994384765625">
        <ele>-283.600006103515625</ele>
        <time>2025-09-07T10:03:37.000Z</time>
        <extensions>
          <ns3:TrackPointExtension>
            <ns3:hr>153</ns3:hr>
            <ns3:cad>0</ns3:cad>
          </ns3:TrackPointExtension>
        </extensions>
      </trkpt>
      <trkpt lat="52.2783181630074977874755859375" lon="1.597384549677371978759765625">
        <ele>-284.20001220703125</ele>
        <time>2025-09-07T10:03:44.000Z</time>
        <extensions>
          <ns3:TrackPointExtension>
            <ns3:hr>149</ns3:hr>
            <ns3:cad>55</ns3:cad>
          </ns3:TrackPointExtension>
        </extensions>
      </trkpt>
      <trkpt lat="52.2783218510448932647705078125" lon="1.597412042319774627685546875">
        <ele>-284.20001220703125</ele>
        <time>2025-09-07T10:03:45.000Z</time>
        <extensions>
          <ns3:TrackPointExtension>
            <ns3:hr>148</ns3:hr>
            <ns3:cad>56</ns3:cad>
          </ns3:TrackPointExtension>
        </extensions>
      </trkpt>
      <trkpt lat="52.27832662872970104217529296875" lon="1.59743526019155979156494140625">
        <ele>-284.399993896484375</ele>
        <time>2025-09-07T10:03:46.000Z</time>
        <extensions>
          <ns3:TrackPointExtension>
            <ns3:hr>147</ns3:hr>
            <ns3:cad>57</ns3:cad>
          </ns3:TrackPointExtension>
        </extensions>
      </trkpt>
      <trkpt lat="52.27836971171200275421142578125" lon="1.59759300760924816131591796875">
        <ele>-284.79998779296875</ele>
        <time>2025-09-07T10:03:53.000Z</time>
        <extensions>
          <ns3:TrackPointExtension>
            <ns3:hr>143</ns3:hr>
            <ns3:cad>60</ns3:cad>
          </ns3:TrackPointExtension>
        </extensions>
      </trkpt>
      <trkpt lat="52.2783778421580791473388671875" lon="1.597615890204906463623046875">
        <ele>-284.79998779296875</ele>
        <time>2025-09-07T10:03:54.000Z</time>
        <extensions>
          <ns3:TrackPointExtension>
            <ns3:hr>144</ns3:hr>
            <ns3:cad>60</ns3:cad>
          </ns3:TrackPointExtension>
        </extensions>
      </trkpt>
      <trkpt lat="52.2783912532031536102294921875" lon="1.59766676835715770721435546875">
        <ele>-285</ele>
        <time>2025-09-07T10:03:56.000Z</time>
        <extensions>
          <ns3:TrackPointExtension>
            <ns3:hr>142</ns3:hr>
            <ns3:cad>80</ns3:cad>
          </ns3:TrackPointExtension>
        </extensions>
      </trkpt>
      <trkpt lat="52.27841430343687534332275390625" lon="1.59773332066833972930908203125">
        <ele>-285.20001220703125</ele>
        <time>2025-09-07T10:03:59.000Z</time>
        <extensions>
          <ns3:TrackPointExtension>
            <ns3:hr>141</ns3:hr>
            <ns3:cad>79</ns3:cad>
          </ns3:TrackPointExtension>
        </extensions>
      </trkpt>
      <trkpt lat="52.27842151187360286712646484375" lon="1.597762070596218109130859375">
        <ele>-285.399993896484375</ele>
        <time>2025-09-07T10:04:00.000Z</time>
        <extensions>
          <ns3:TrackPointExtension>
            <ns3:hr>144</ns3:hr>
            <ns3:cad>79</ns3:cad>
          </ns3:TrackPointExtension>
        </extensions>
      </trkpt>
      <trkpt lat="52.2784383594989776611328125" lon="1.59783591516315937042236328125">
        <ele>-285.79998779296875</ele>
        <time>2025-09-07T10:04:03.000Z</time>
        <extensions>
          <ns3:TrackPointExtension>
            <ns3:hr>147</ns3:hr>
            <ns3:cad>80</ns3:cad>
          </ns3:TrackPointExtension>
        </extensions>
      </trkpt>
      <trkpt lat="52.27847230620682239532470703125" lon="1.597932390868663787841796875">
        <ele>-286.20001220703125</ele>
        <time>2025-09-07T10:04:07.000Z</time>
        <extensions>
          <ns3:TrackPointExtension>
            <ns3:hr>150</ns3:hr>
            <ns3:cad>81</ns3:cad>
          </ns3:TrackPointExtension>
        </extensions>
      </trkpt>
      <trkpt lat="52.278506755828857421875" lon="1.5980024635791778564453125">
        <ele>-286.399993896484375</ele>
        <time>2025-09-07T10:04:09.000Z</time>
        <extensions>
          <ns3:TrackPointExtension>
            <ns3:hr>152</ns3:hr>
            <ns3:cad>81</ns3:cad>
          </ns3:TrackPointExtension>
        </extensions>
      </trkpt>
      <trkpt lat="52.27851723320782184600830078125" lon="1.59803557209670543670654296875">
        <ele>-286.399993896484375</ele>
        <time>2025-09-07T10:04:10.000Z</time>
        <extensions>
          <ns3:TrackPointExtension>
            <ns3:hr>152</ns3:hr>
            <ns3:cad>81</ns3:cad>
          </ns3:TrackPointExtension>
        </extensions>
      </trkpt>
      <trkpt lat="52.27858680300414562225341796875" lon="1.5982416830956935882568359375">
        <ele>-286.20001220703125</ele>
        <time>2025-09-07T10:04:16.000Z</time>
        <extensions>
          <ns3:TrackPointExtension>
            <ns3:hr>155</ns3:hr>
            <ns3:cad>81</ns3:cad>
          </ns3:TrackPointExtension>
        </extensions>
      </trkpt>
      <trkpt lat="52.27859987877309322357177734375" lon="1.598266661167144775390625">
        <ele>-286.20001220703125</ele>
        <time>2025-09-07T10:04:17.000Z</time>
        <extensions>
          <ns3:TrackPointExtension>
            <ns3:hr>150</ns3:hr>
            <ns3:cad>81</ns3:cad>
          </ns3:TrackPointExtension>
        </extensions>
      </trkpt>
      <trkpt lat="52.27861328981816768646240234375" lon="1.5982859395444393157958984375">
        <ele>-286</ele>
        <time>2025-09-07T10:04:18.000Z</time>
        <extensions>
          <ns3:TrackPointExtension>
            <ns3:hr>150</ns3:hr>
            <ns3:cad>80</ns3:cad>
          </ns3:TrackPointExtension>
        </extensions>
      </trkpt>
      <trkpt lat="52.2786520980298519134521484375" lon="1.59841426648199558258056640625">
        <ele>-285.399993896484375</ele>
        <time>2025-09-07T10:04:24.000Z</time>
        <extensions>
          <ns3:TrackPointExtension>
            <ns3:hr>150</ns3:hr>
            <ns3:cad>81</ns3:cad>
          </ns3:TrackPointExtension>
        </extensions>
      </trkpt>
      <trkpt lat="52.278654277324676513671875" lon="1.59844276495277881622314453125">
        <ele>-285.20001220703125</ele>
        <time>2025-09-07T10:04:25.000Z</time>
        <extensions>
          <ns3:TrackPointExtension>
            <ns3:hr>150</ns3:hr>
            <ns3:cad>81</ns3:cad>
          </ns3:TrackPointExtension>
        </extensions>
      </trkpt>
      <trkpt lat="52.278722338378429412841796875" lon="1.59859456121921539306640625">
        <ele>-284.399993896484375</ele>
        <time>2025-09-07T10:04:32.000Z</time>
        <extensions>
          <ns3:TrackPointExtension>
            <ns3:hr>151</ns3:hr>
            <ns3:cad>81</ns3:cad>
          </ns3:TrackPointExtension>
        </extensions>
      </trkpt>
      <trkpt lat="52.27873809635639190673828125" lon="1.5986104868352413177490234375">
        <ele>-284.20001220703125</ele>
        <time>2025-09-07T10:04:33.000Z</time>
        <extensions>
          <ns3:TrackPointExtension>
            <ns3:hr>148</ns3:hr>
            <ns3:cad>80</ns3:cad>
          </ns3:TrackPointExtension>
        </extensions>
      </trkpt>
      <trkpt lat="52.2788701951503753662109375" lon="1.5987798012793064117431640625">
        <ele>-283.20001220703125</ele>
        <time>2025-09-07T10:04:40.000Z</time>
        <extensions>
          <ns3:TrackPointExtension>
            <ns3:hr>147</ns3:hr>
            <ns3:cad>81</ns3:cad>
          </ns3:TrackPointExtension>
        </extensions>
      </trkpt>
      <trkpt lat="52.2789722867310047149658203125" lon="1.59895406104624271392822265625">
        <ele>-282.399993896484375</ele>
        <time>2025-09-07T10:04:47.000Z</time>
        <extensions>
          <ns3:TrackPointExtension>
            <ns3:hr>148</ns3:hr>
            <ns3:cad>80</ns3:cad>
          </ns3:TrackPointExtension>
        </extensions>
      </trkpt>
      <trkpt lat="52.27900874800980091094970703125" lon="1.5990034304559230804443359375">
        <ele>-282.20001220703125</ele>
        <time>2025-09-07T10:04:50.000Z</time>
        <extensions>
          <ns3:TrackPointExtension>
            <ns3:hr>147</ns3:hr>
            <ns3:cad>80</ns3:cad>
          </ns3:TrackPointExtension>
        </extensions>
      </trkpt>
      <trkpt lat="52.279067337512969970703125" lon="1.59907157532870769500732421875">
        <ele>-281.79998779296875</ele>
        <time>2025-09-07T10:04:54.000Z</time>
        <extensions>
          <ns3:TrackPointExtension>
            <ns3:hr>150</ns3:hr>
            <ns3:cad>81</ns3:cad>
          </ns3:TrackPointExtension>
        </extensions>
      </trkpt>
      <trkpt lat="52.2791798226535320281982421875" lon="1.59919135272502899169921875">
        <ele>-281.20001220703125</ele>
        <time>2025-09-07T10:05:03.000Z</time>
        <extensions>
          <ns3:TrackPointExtension>
            <ns3:hr>150</ns3:hr>
            <ns3:cad>80</ns3:cad>
          </ns3:TrackPointExtension>
        </extensions>
      </trkpt>
      <trkpt lat="52.2792183794081211090087890625" lon="1.5992304123938083648681640625">
        <ele>-281</ele>
        <time>2025-09-07T10:05:06.000Z</time>
        <extensions>
          <ns3:TrackPointExtension>
            <ns3:hr>150</ns3:hr>
            <ns3:cad>80</ns3:cad>
          </ns3:TrackPointExtension>
        </extensions>
      </trkpt>
      <trkpt lat="52.27934083901345729827880859375" lon="1.5994392894208431243896484375">
        <ele>-280.600006103515625</ele>
        <time>2025-09-07T10:05:14.000Z</time>
        <extensions>
          <ns3:TrackPointExtension>
            <ns3:hr>149</ns3:hr>
            <ns3:cad>81</ns3:cad>
          </ns3:TrackPointExtension>
        </extensions>
      </trkpt>
      <trkpt lat="52.27946891449391841888427734375" lon="1.5996511839330196380615234375">
        <ele>-280.20001220703125</ele>
        <time>2025-09-07T10:05:21.000Z</time>
        <extensions>
          <ns3:TrackPointExtension>
            <ns3:hr>149</ns3:hr>
            <ns3:cad>80</ns3:cad>
          </ns3:TrackPointExtension>
        </extensions>
      </trkpt>
      <trkpt lat="52.27949808351695537567138671875" lon="1.59969351254403591156005859375">
        <ele>-280.20001220703125</ele>
        <time>2025-09-07T10:05:23.000Z</time>
        <extensions>
          <ns3:TrackPointExtension>
            <ns3:hr>147</ns3:hr>
            <ns3:cad>79</ns3:cad>
          </ns3:TrackPointExtension>
        </extensions>
      </trkpt>
      <trkpt lat="52.27953345514833927154541015625" lon="1.59973575733602046966552734375">
        <ele>-280.20001220703125</ele>
        <time>2025-09-07T10:05:25.000Z</time>
        <extensions>
          <ns3:TrackPointExtension>
            <ns3:hr>146</ns3:hr>
            <ns3:cad>79</ns3:cad>
          </ns3:TrackPointExtension>
        </extensions>
      </trkpt>
      <trkpt lat="52.27963822893798351287841796875" lon="1.5999006293714046478271484375">
        <ele>-280</ele>
        <time>2025-09-07T10:05:32.000Z</time>
        <extensions>
          <ns3:TrackPointExtension>
            <ns3:hr>146</ns3:hr>
            <ns3:cad>79</ns3:cad>
          </ns3:TrackPointExtension>
        </extensions>
      </trkpt>
      <trkpt lat="52.27964811958372592926025390625" lon="1.59992384724318981170654296875">
        <ele>-280</ele>
        <time>2025-09-07T10:05:33.000Z</time>
        <extensions>
          <ns3:TrackPointExtension>
            <ns3:hr>149</ns3:hr>
            <ns3:cad>80</ns3:cad>
          </ns3:TrackPointExtension>
        </extensions>
      </trkpt>
      <trkpt lat="52.27972674183547496795654296875" lon="1.6000436246395111083984375">
        <ele>-280</ele>
        <time>2025-09-07T10:05:39.000Z</time>
        <extensions>
          <ns3:TrackPointExtension>
            <ns3:hr>148</ns3:hr>
            <ns3:cad>81</ns3:cad>
          </ns3:TrackPointExtension>
        </extensions>
      </trkpt>
      <trkpt lat="52.27985791862010955810546875" lon="1.6001497395336627960205078125">
        <ele>-279.600006103515625</ele>
        <time>2025-09-07T10:05:46.000Z</time>
        <extensions>
          <ns3:TrackPointExtension>
            <ns3:hr>147</ns3:hr>
            <ns3:cad>80</ns3:cad>
          </ns3:TrackPointExtension>
        </extensions>
      </trkpt>
      <trkpt lat="52.279932014644145965576171875" lon="1.6001574508845806121826171875">
        <ele>-279.20001220703125</ele>
        <time>2025-09-07T10:05:51.000Z</time>
        <extensions>
          <ns3:TrackPointExtension>
            <ns3:hr>150</ns3:hr>
            <ns3:cad>79</ns3:cad>
          </ns3:TrackPointExtension>
        </extensions>
      </trkpt>
      <trkpt lat="52.279948778450489044189453125" lon="1.60016071982681751251220703125">
        <ele>-279</ele>
        <time>2025-09-07T10:05:52.000Z</time>
        <extensions>
          <ns3:TrackPointExtension>
            <ns3:hr>149</ns3:hr>
            <ns3:cad>79</ns3:cad>
          </ns3:TrackPointExtension>
        </extensions>
      </trkpt>
      <trkpt lat="52.28000921197235584259033203125" lon="1.6001618094742298126220703125">
        <ele>-278.79998779296875</ele>
        <time>2025-09-07T10:05:56.000Z</time>
        <extensions>
          <ns3:TrackPointExtension>
            <ns3:hr>148</ns3:hr>
            <ns3:cad>79</ns3:cad>
          </ns3:TrackPointExtension>
        </extensions>
      </trkpt>
      <trkpt lat="52.2800803743302822113037109375" lon="1.6002018749713897705078125">
        <ele>-278.600006103515625</ele>
        <time>2025-09-07T10:06:03.000Z</time>
        <extensions>
          <ns3:TrackPointExtension>
            <ns3:hr>147</ns3:hr>
            <ns3:cad>0</ns3:cad>
          </ns3:TrackPointExtension>
        </extensions>
      </trkpt>
      <trkpt lat="52.28004525415599346160888671875" lon="1.6001993604004383087158203125">
        <ele>-279</ele>
        <time>2025-09-07T10:06:11.000Z</time>
        <extensions>
          <ns3:TrackPointExtension>
            <ns3:hr>145</ns3:hr>
            <ns3:cad>0</ns3:cad>
          </ns3:TrackPointExtension>
        </extensions>
      </trkpt>
      <trkpt lat="52.280061431229114532470703125" lon="1.6002141125500202178955078125">
        <ele>-279.20001220703125</ele>
        <time>2025-09-07T10:06:15.000Z</time>
        <extensions>
          <ns3:TrackPointExtension>
            <ns3:hr>142</ns3:hr>
            <ns3:cad>0</ns3:cad>
          </ns3:TrackPointExtension>
        </extensions>
      </trkpt>
      <trkpt lat="52.28008179925382137298583984375" lon="1.6002305410802364349365234375">
        <ele>-279.600006103515625</ele>
        <time>2025-09-07T10:06:20.000Z</time>
        <extensions>
          <ns3:TrackPointExtension>
            <ns3:hr>142</ns3:hr>
            <ns3:cad>0</ns3:cad>
          </ns3:TrackPointExtension>
        </extensions>
      </trkpt>
      <trkpt lat="52.2800803743302822113037109375" lon="1.6002286970615386962890625">
        <ele>-280</ele>
        <time>2025-09-07T10:06:26.000Z</time>
        <extensions>
          <ns3:TrackPointExtension>
            <ns3:hr>143</ns3:hr>
            <ns3:cad>0</ns3:cad>
          </ns3:TrackPointExtension>
        </extensions>
      </trkpt>
      <trkpt lat="52.28008112870156764984130859375" lon="1.60022945143282413482666015625">
        <ele>-280.399993896484375</ele>
        <time>2025-09-07T10:06:29.000Z</time>
        <extensions>
          <ns3:TrackPointExtension>
            <ns3:hr>142</ns3:hr>
            <ns3:cad>0</ns3:cad>
          </ns3:TrackPointExtension>
        </extensions>
      </trkpt>
      <trkpt lat="52.28010443039238452911376953125" lon="1.6002751328051090240478515625">
        <ele>-281.20001220703125</ele>
        <time>2025-09-07T10:06:34.000Z</time>
        <extensions>
          <ns3:TrackPointExtension>
            <ns3:hr>141</ns3:hr>
            <ns3:cad>0</ns3:cad>
          </ns3:TrackPointExtension>
        </extensions>
      </trkpt>
      <trkpt lat="52.28014550171792507171630859375" lon="1.6002959199249744415283203125">
        <ele>-281.600006103515625</ele>
        <time>2025-09-07T10:06:37.000Z</time>
        <extensions>
          <ns3:TrackPointExtension>
            <ns3:hr>140</ns3:hr>
            <ns3:cad>77</ns3:cad>
          </ns3:TrackPointExtension>
        </extensions>
      </trkpt>
      <trkpt lat="52.280173413455486297607421875" lon="1.60031243227422237396240234375">
        <ele>-282</ele>
        <time>2025-09-07T10:06:39.000Z</time>
        <extensions>
          <ns3:TrackPointExtension>
            <ns3:hr>144</ns3:hr>
            <ns3:cad>79</ns3:cad>
          </ns3:TrackPointExtension>
        </extensions>
      </trkpt>
      <trkpt lat="52.2801911830902099609375" lon="1.60032056272029876708984375">
        <ele>-282.399993896484375</ele>
        <time>2025-09-07T10:06:40.000Z</time>
        <extensions>
          <ns3:TrackPointExtension>
            <ns3:hr>146</ns3:hr>
            <ns3:cad>79</ns3:cad>
          </ns3:TrackPointExtension>
        </extensions>
      </trkpt>
      <trkpt lat="52.2802527062594890594482421875" lon="1.60035501234233379364013671875">
        <ele>-283.399993896484375</ele>
        <time>2025-09-07T10:06:44.000Z</time>
        <extensions>
          <ns3:TrackPointExtension>
            <ns3:hr>149</ns3:hr>
            <ns3:cad>80</ns3:cad>
          </ns3:TrackPointExtension>
        </extensions>
      </trkpt>
      <trkpt lat="52.28028547950088977813720703125" lon="1.600410081446170806884765625">
        <ele>-284.20001220703125</ele>
        <time>2025-09-07T10:06:47.000Z</time>
        <extensions>
          <ns3:TrackPointExtension>
            <ns3:hr>152</ns3:hr>
            <ns3:cad>80</ns3:cad>
          </ns3:TrackPointExtension>
        </extensions>
      </trkpt>
      <trkpt lat="52.2802993096411228179931640625" lon="1.6004260070621967315673828125">
        <ele>-284.399993896484375</ele>
        <time>2025-09-07T10:06:48.000Z</time>
        <extensions>
          <ns3:TrackPointExtension>
            <ns3:hr>153</ns3:hr>
            <ns3:cad>80</ns3:cad>
          </ns3:TrackPointExtension>
        </extensions>
      </trkpt>
      <trkpt lat="52.2803660295903682708740234375" lon="1.60047571174800395965576171875">
        <ele>-285.399993896484375</ele>
        <time>2025-09-07T10:06:52.000Z</time>
        <extensions>
          <ns3:TrackPointExtension>
            <ns3:hr>154</ns3:hr>
            <ns3:cad>81</ns3:cad>
          </ns3:TrackPointExtension>
        </extensions>
      </trkpt>
      <trkpt lat="52.280431576073169708251953125" lon="1.6005336306989192962646484375">
        <ele>-286.600006103515625</ele>
        <time>2025-09-07T10:06:56.000Z</time>
        <extensions>
          <ns3:TrackPointExtension>
            <ns3:hr>151</ns3:hr>
            <ns3:cad>81</ns3:cad>
          </ns3:TrackPointExtension>
        </extensions>
      </trkpt>
      <trkpt lat="52.28048496879637241363525390625" lon="1.600584425032138824462890625">
        <ele>-287.399993896484375</ele>
        <time>2025-09-07T10:06:59.000Z</time>
        <extensions>
          <ns3:TrackPointExtension>
            <ns3:hr>148</ns3:hr>
            <ns3:cad>82</ns3:cad>
          </ns3:TrackPointExtension>
        </extensions>
      </trkpt>
      <trkpt lat="52.2804998047649860382080078125" lon="1.6006003506481647491455078125">
        <ele>-287.600006103515625</ele>
        <time>2025-09-07T10:07:00.000Z</time>
        <extensions>
          <ns3:TrackPointExtension>
            <ns3:hr>149</ns3:hr>
            <ns3:cad>82</ns3:cad>
          </ns3:TrackPointExtension>
        </extensions>
      </trkpt>
      <trkpt lat="52.28052587248384952545166015625" lon="1.60060948692262172698974609375">
        <ele>-288.20001220703125</ele>
        <time>2025-09-07T10:07:02.000Z</time>
        <extensions>
          <ns3:TrackPointExtension>
            <ns3:hr>152</ns3:hr>
            <ns3:cad>0</ns3:cad>
          </ns3:TrackPointExtension>
        </extensions>
      </trkpt>
      <trkpt lat="52.280556969344615936279296875" lon="1.60061988048255443572998046875">
        <ele>-288.600006103515625</ele>
        <time>2025-09-07T10:07:04.000Z</time>
        <extensions>
          <ns3:TrackPointExtension>
            <ns3:hr>149</ns3:hr>
            <ns3:cad>0</ns3:cad>
          </ns3:TrackPointExtension>
        </extensions>
      </trkpt>
      <trkpt lat="52.2805680334568023681640625" lon="1.6006392426788806915283203125">
        <ele>-289</ele>
        <time>2025-09-07T10:07:05.000Z</time>
        <extensions>
          <ns3:TrackPointExtension>
            <ns3:hr>150</ns3:hr>
            <ns3:cad>0</ns3:cad>
          </ns3:TrackPointExtension>
        </extensions>
      </trkpt>
      <trkpt lat="52.28060399182140827178955078125" lon="1.60067453049123287200927734375">
        <ele>-289.79998779296875</ele>
        <time>2025-09-07T10:07:08.000Z</time>
        <extensions>
          <ns3:TrackPointExtension>
            <ns3:hr>151</ns3:hr>
            <ns3:cad>61</ns3:cad>
          </ns3:TrackPointExtension>
        </extensions>
      </trkpt>
      <trkpt lat="52.2806516848504543304443359375" lon="1.6007222235202789306640625">
        <ele>-290.79998779296875</ele>
        <time>2025-09-07T10:07:12.000Z</time>
        <extensions>
          <ns3:TrackPointExtension>
            <ns3:hr>150</ns3:hr>
            <ns3:cad>60</ns3:cad>
          </ns3:TrackPointExtension>
        </extensions>
      </trkpt>
      <trkpt lat="52.28070373646914958953857421875" lon="1.60080562345683574676513671875">
        <ele>-292</ele>
        <time>2025-09-07T10:07:16.000Z</time>
        <extensions>
          <ns3:TrackPointExtension>
            <ns3:hr>148</ns3:hr>
            <ns3:cad>60</ns3:cad>
          </ns3:TrackPointExtension>
        </extensions>
      </trkpt>
      <trkpt lat="52.28078269399702548980712890625" lon="1.60086630843579769134521484375">
        <ele>-293</ele>
        <time>2025-09-07T10:07:20.000Z</time>
        <extensions>
          <ns3:TrackPointExtension>
            <ns3:hr>149</ns3:hr>
            <ns3:cad>62</ns3:cad>
          </ns3:TrackPointExtension>
        </extensions>
      </trkpt>
      <trkpt lat="52.28080348111689090728759765625" lon="1.60088114440441131591796875">
        <ele>-293.20001220703125</ele>
        <time>2025-09-07T10:07:21.000Z</time>
        <extensions>
          <ns3:TrackPointExtension>
            <ns3:hr>147</ns3:hr>
            <ns3:cad>65</ns3:cad>
          </ns3:TrackPointExtension>
        </extensions>
      </trkpt>
      <trkpt lat="52.28084455244243144989013671875" lon="1.60092263482511043548583984375">
        <ele>-294.20001220703125</ele>
        <time>2025-09-07T10:07:24.000Z</time>
        <extensions>
          <ns3:TrackPointExtension>
            <ns3:hr>146</ns3:hr>
            <ns3:cad>57</ns3:cad>
          </ns3:TrackPointExtension>
        </extensions>
      </trkpt>
      <trkpt lat="52.28092350997030735015869140625" lon="1.600970663130283355712890625">
        <ele>-295.20001220703125</ele>
        <time>2025-09-07T10:07:28.000Z</time>
        <extensions>
          <ns3:TrackPointExtension>
            <ns3:hr>149</ns3:hr>
            <ns3:cad>57</ns3:cad>
          </ns3:TrackPointExtension>
        </extensions>
      </trkpt>
      <trkpt lat="52.2809453867375850677490234375" lon="1.6009845770895481109619140625">
        <ele>-295.399993896484375</ele>
        <time>2025-09-07T10:07:29.000Z</time>
        <extensions>
          <ns3:TrackPointExtension>
            <ns3:hr>151</ns3:hr>
            <ns3:cad>57</ns3:cad>
          </ns3:TrackPointExtension>
        </extensions>
      </trkpt>
      <trkpt lat="52.2810065746307373046875" lon="1.60102405585348606109619140625">
        <ele>-296.399993896484375</ele>
        <time>2025-09-07T10:07:32.000Z</time>
        <extensions>
          <ns3:TrackPointExtension>
            <ns3:hr>154</ns3:hr>
            <ns3:cad>0</ns3:cad>
          </ns3:TrackPointExtension>
        </extensions>
      </trkpt>
      <trkpt lat="52.28104907087981700897216796875" lon="1.60106747411191463470458984375">
        <ele>-297.20001220703125</ele>
        <time>2025-09-07T10:07:35.000Z</time>
        <extensions>
          <ns3:TrackPointExtension>
            <ns3:hr>155</ns3:hr>
            <ns3:cad>58</ns3:cad>
          </ns3:TrackPointExtension>
        </extensions>
      </trkpt>
      <trkpt lat="52.2810623981058597564697265625" lon="1.6010816395282745361328125">
        <ele>-297.600006103515625</ele>
        <time>2025-09-07T10:07:36.000Z</time>
        <extensions>
          <ns3:TrackPointExtension>
            <ns3:hr>155</ns3:hr>
            <ns3:cad>57</ns3:cad>
          </ns3:TrackPointExtension>
        </extensions>
      </trkpt>
      <trkpt lat="52.2811019606888294219970703125" lon="1.601119525730609893798828125">
        <ele>-298.600006103515625</ele>
        <time>2025-09-07T10:07:40.000Z</time>
        <extensions>
          <ns3:TrackPointExtension>
            <ns3:hr>156</ns3:hr>
            <ns3:cad>59</ns3:cad>
          </ns3:TrackPointExtension>
        </extensions>
      </trkpt>
      <trkpt lat="52.28113004006445407867431640625" lon="1.6011433303356170654296875">
        <ele>-299.600006103515625</ele>
        <time>2025-09-07T10:07:43.000Z</time>
        <extensions>
          <ns3:TrackPointExtension>
            <ns3:hr>158</ns3:hr>
            <ns3:cad>58</ns3:cad>
          </ns3:TrackPointExtension>
        </extensions>
      </trkpt>
      <trkpt lat="52.28114110417664051055908203125" lon="1.60115330480039119720458984375">
        <ele>-299.79998779296875</ele>
        <time>2025-09-07T10:07:44.000Z</time>
        <extensions>
          <ns3:TrackPointExtension>
            <ns3:hr>159</ns3:hr>
            <ns3:cad>58</ns3:cad>
          </ns3:TrackPointExtension>
        </extensions>
      </trkpt>
      <trkpt lat="52.28117915801703929901123046875" lon="1.60117409192025661468505859375">
        <ele>-300.600006103515625</ele>
        <time>2025-09-07T10:07:47.000Z</time>
        <extensions>
          <ns3:TrackPointExtension>
            <ns3:hr>162</ns3:hr>
            <ns3:cad>62</ns3:cad>
          </ns3:TrackPointExtension>
        </extensions>
      </trkpt>
      <trkpt lat="52.28118888102471828460693359375" lon="1.6011830605566501617431640625">
        <ele>-300.79998779296875</ele>
        <time>2025-09-07T10:07:48.000Z</time>
        <extensions>
          <ns3:TrackPointExtension>
            <ns3:hr>162</ns3:hr>
            <ns3:cad>0</ns3:cad>
          </ns3:TrackPointExtension>
        </extensions>
      </trkpt>
      <trkpt lat="52.2812211513519287109375" lon="1.6012095473706722259521484375">
        <ele>-301.600006103515625</ele>
        <time>2025-09-07T10:07:51.000Z</time>
        <extensions>
          <ns3:TrackPointExtension>
            <ns3:hr>163</ns3:hr>
            <ns3:cad>0</ns3:cad>
          </ns3:TrackPointExtension>
        </extensions>
      </trkpt>
      <trkpt lat="52.2812354005873203277587890625" lon="1.60121868364512920379638671875">
        <ele>-302</ele>
        <time>2025-09-07T10:07:52.000Z</time>
        <extensions>
          <ns3:TrackPointExtension>
            <ns3:hr>163</ns3:hr>
            <ns3:cad>0</ns3:cad>
          </ns3:TrackPointExtension>
        </extensions>
      </trkpt>
      <trkpt lat="52.28129868395626544952392578125" lon="1.60125958733260631561279296875">
        <ele>-303.20001220703125</ele>
        <time>2025-09-07T10:07:57.000Z</time>
        <extensions>
          <ns3:TrackPointExtension>
            <ns3:hr>164</ns3:hr>
            <ns3:cad>0</ns3:cad>
          </ns3:TrackPointExtension>
        </extensions>
      </trkpt>
      <trkpt lat="52.28135802783071994781494140625" lon="1.6012997366487979888916015625">
        <ele>-304.399993896484375</ele>
        <time>2025-09-07T10:08:02.000Z</time>
        <extensions>
          <ns3:TrackPointExtension>
            <ns3:hr>164</ns3:hr>
            <ns3:cad>0</ns3:cad>
          </ns3:TrackPointExtension>
        </extensions>
      </trkpt>
      <trkpt lat="52.28138619102537631988525390625" lon="1.601313985884189605712890625">
        <ele>-304.79998779296875</ele>
        <time>2025-09-07T10:08:04.000Z</time>
        <extensions>
          <ns3:TrackPointExtension>
            <ns3:hr>164</ns3:hr>
            <ns3:cad>61</ns3:cad>
          </ns3:TrackPointExtension>
        </extensions>
      </trkpt>
      <trkpt lat="52.28141988627612590789794921875" lon="1.60130283795297145843505859375">
        <ele>-305.399993896484375</ele>
        <time>2025-09-07T10:08:07.000Z</time>
        <extensions>
          <ns3:TrackPointExtension>
            <ns3:hr>164</ns3:hr>
            <ns3:cad>61</ns3:cad>
          </ns3:TrackPointExtension>
        </extensions>
      </trkpt>
      <trkpt lat="52.28143882937729358673095703125" lon="1.60124802030622959136962890625">
        <ele>-306.20001220703125</ele>
        <time>2025-09-07T10:08:10.000Z</time>
        <extensions>
          <ns3:TrackPointExtension>
            <ns3:hr>164</ns3:hr>
            <ns3:cad>61</ns3:cad>
          </ns3:TrackPointExtension>
        </extensions>
      </trkpt>
      <trkpt lat="52.2814504802227020263671875" lon="1.60121197812259197235107421875">
        <ele>-306.600006103515625</ele>
        <time>2025-09-07T10:08:12.000Z</time>
        <extensions>
          <ns3:TrackPointExtension>
            <ns3:hr>163</ns3:hr>
            <ns3:cad>0</ns3:cad>
          </ns3:TrackPointExtension>
        </extensions>
      </trkpt>
      <trkpt lat="52.28148962371051311492919921875" lon="1.6011414863169193267822265625">
        <ele>-307.79998779296875</ele>
        <time>2025-09-07T10:08:17.000Z</time>
        <extensions>
          <ns3:TrackPointExtension>
            <ns3:hr>161</ns3:hr>
            <ns3:cad>60</ns3:cad>
          </ns3:TrackPointExtension>
        </extensions>
      </trkpt>
      <trkpt lat="52.28149808943271636962890625" lon="1.60112933255732059478759765625">
        <ele>-308</ele>
        <time>2025-09-07T10:08:18.000Z</time>
        <extensions>
          <ns3:TrackPointExtension>
            <ns3:hr>162</ns3:hr>
            <ns3:cad>60</ns3:cad>
          </ns3:TrackPointExtension>
        </extensions>
      </trkpt>
      <trkpt lat="52.28152818046510219573974609375" lon="1.60104668699204921722412109375">
        <ele>-309</ele>
        <time>2025-09-07T10:08:22.000Z</time>
        <extensions>
          <ns3:TrackPointExtension>
            <ns3:hr>160</ns3:hr>
            <ns3:cad>61</ns3:cad>
          </ns3:TrackPointExtension>
        </extensions>
      </trkpt>
      <trkpt lat="52.2815458662807941436767578125" lon="1.60095113329589366912841796875">
        <ele>-310</ele>
        <time>2025-09-07T10:08:26.000Z</time>
        <extensions>
          <ns3:TrackPointExtension>
            <ns3:hr>160</ns3:hr>
            <ns3:cad>0</ns3:cad>
          </ns3:TrackPointExtension>
        </extensions>
      </trkpt>
      <trkpt lat="52.28156908415257930755615234375" lon="1.600868403911590576171875">
        <ele>-311.20001220703125</ele>
        <time>2025-09-07T10:08:30.000Z</time>
        <extensions>
          <ns3:TrackPointExtension>
            <ns3:hr>157</ns3:hr>
            <ns3:cad>0</ns3:cad>
          </ns3:TrackPointExtension>
        </extensions>
      </trkpt>
      <trkpt lat="52.2815938107669353485107421875" lon="1.600795648992061614990234375">
        <ele>-312.20001220703125</ele>
        <time>2025-09-07T10:08:34.000Z</time>
        <extensions>
          <ns3:TrackPointExtension>
            <ns3:hr>157</ns3:hr>
            <ns3:cad>78</ns3:cad>
          </ns3:TrackPointExtension>
        </extensions>
      </trkpt>
      <trkpt lat="52.28160143829882144927978515625" lon="1.6007760353386402130126953125">
        <ele>-312.399993896484375</ele>
        <time>2025-09-07T10:08:35.000Z</time>
        <extensions>
          <ns3:TrackPointExtension>
            <ns3:hr>155</ns3:hr>
            <ns3:cad>78</ns3:cad>
          </ns3:TrackPointExtension>
        </extensions>
      </trkpt>
      <trkpt lat="52.28163748048245906829833984375" lon="1.60068861208856105804443359375">
        <ele>-313.20001220703125</ele>
        <time>2025-09-07T10:08:38.000Z</time>
        <extensions>
          <ns3:TrackPointExtension>
            <ns3:hr>158</ns3:hr>
            <ns3:cad>79</ns3:cad>
          </ns3:TrackPointExtension>
        </extensions>
      </trkpt>
      <trkpt lat="52.28164485655725002288818359375" lon="1.60065256990492343902587890625">
        <ele>-313.399993896484375</ele>
        <time>2025-09-07T10:08:39.000Z</time>
        <extensions>
          <ns3:TrackPointExtension>
            <ns3:hr>159</ns3:hr>
            <ns3:cad>79</ns3:cad>
          </ns3:TrackPointExtension>
        </extensions>
      </trkpt>
      <trkpt lat="52.281666062772274017333984375" lon="1.60057210363447666168212890625">
        <ele>-314</ele>
        <time>2025-09-07T10:08:42.000Z</time>
        <extensions>
          <ns3:TrackPointExtension>
            <ns3:hr>162</ns3:hr>
            <ns3:cad>79</ns3:cad>
          </ns3:TrackPointExtension>
        </extensions>
      </trkpt>
      <trkpt lat="52.2816796414554119110107421875" lon="1.6005232371389865875244140625">
        <ele>-314.399993896484375</ele>
        <time>2025-09-07T10:08:44.000Z</time>
        <extensions>
          <ns3:TrackPointExtension>
            <ns3:hr>161</ns3:hr>
            <ns3:cad>79</ns3:cad>
          </ns3:TrackPointExtension>
        </extensions>
      </trkpt>
      <trkpt lat="52.28170336224138736724853515625" lon="1.6004555113613605499267578125">
        <ele>-315</ele>
        <time>2025-09-07T10:08:47.000Z</time>
        <extensions>
          <ns3:TrackPointExtension>
            <ns3:hr>164</ns3:hr>
            <ns3:cad>60</ns3:cad>
          </ns3:TrackPointExtension>
        </extensions>
      </trkpt>
      <trkpt lat="52.281723059713840484619140625" lon="1.60039943642914295196533203125">
        <ele>-315.600006103515625</ele>
        <time>2025-09-07T10:08:50.000Z</time>
        <extensions>
          <ns3:TrackPointExtension>
            <ns3:hr>166</ns3:hr>
            <ns3:cad>60</ns3:cad>
          </ns3:TrackPointExtension>
        </extensions>
      </trkpt>
      <trkpt lat="52.28173051960766315460205078125" lon="1.60037797875702381134033203125">
        <ele>-315.79998779296875</ele>
        <time>2025-09-07T10:08:51.000Z</time>
        <extensions>
          <ns3:TrackPointExtension>
            <ns3:hr>165</ns3:hr>
            <ns3:cad>61</ns3:cad>
          </ns3:TrackPointExtension>
        </extensions>
      </trkpt>
      <trkpt lat="52.28177569806575775146484375" lon="1.60028376616537570953369140625">
        <ele>-316.600006103515625</ele>
        <time>2025-09-07T10:08:56.000Z</time>
        <extensions>
          <ns3:TrackPointExtension>
            <ns3:hr>165</ns3:hr>
            <ns3:cad>70</ns3:cad>
          </ns3:TrackPointExtension>
        </extensions>
      </trkpt>
      <trkpt lat="52.28182892315089702606201171875" lon="1.60019491799175739288330078125">
        <ele>-317.20001220703125</ele>
        <time>2025-09-07T10:09:00.000Z</time>
        <extensions>
          <ns3:TrackPointExtension>
            <ns3:hr>165</ns3:hr>
            <ns3:cad>76</ns3:cad>
          </ns3:TrackPointExtension>
        </extensions>
      </trkpt>
      <trkpt lat="52.28184971027076244354248046875" lon="1.6001540981233119964599609375">
        <ele>-317.600006103515625</ele>
        <time>2025-09-07T10:09:02.000Z</time>
        <extensions>
          <ns3:TrackPointExtension>
            <ns3:hr>166</ns3:hr>
            <ns3:cad>76</ns3:cad>
          </ns3:TrackPointExtension>
        </extensions>
      </trkpt>
      <trkpt lat="52.28186228312551975250244140625" lon="1.60014177672564983367919921875">
        <ele>-318.399993896484375</ele>
        <time>2025-09-07T10:09:06.000Z</time>
        <extensions>
          <ns3:TrackPointExtension>
            <ns3:hr>165</ns3:hr>
            <ns3:cad>0</ns3:cad>
          </ns3:TrackPointExtension>
        </extensions>
      </trkpt>
      <trkpt lat="52.2818730957806110382080078125" lon="1.60013255663216114044189453125">
        <ele>-318.79998779296875</ele>
        <time>2025-09-07T10:09:09.000Z</time>
        <extensions>
          <ns3:TrackPointExtension>
            <ns3:hr>162</ns3:hr>
            <ns3:cad>0</ns3:cad>
          </ns3:TrackPointExtension>
        </extensions>
      </trkpt>
      <trkpt lat="52.28191441856324672698974609375" lon="1.60014085471630096435546875">
        <ele>-319.600006103515625</ele>
        <time>2025-09-07T10:09:15.000Z</time>
        <extensions>
          <ns3:TrackPointExtension>
            <ns3:hr>160</ns3:hr>
            <ns3:cad>58</ns3:cad>
          </ns3:TrackPointExtension>
        </extensions>
      </trkpt>
      <trkpt lat="52.28193839080631732940673828125" lon="1.60014295019209384918212890625">
        <ele>-319.79998779296875</ele>
        <time>2025-09-07T10:09:17.000Z</time>
        <extensions>
          <ns3:TrackPointExtension>
            <ns3:hr>158</ns3:hr>
            <ns3:cad>58</ns3:cad>
          </ns3:TrackPointExtension>
        </extensions>
      </trkpt>
      <trkpt lat="52.281982898712158203125" lon="1.60016960464417934417724609375">
        <ele>-320.20001220703125</ele>
        <time>2025-09-07T10:09:20.000Z</time>
        <extensions>
          <ns3:TrackPointExtension>
            <ns3:hr>154</ns3:hr>
            <ns3:cad>60</ns3:cad>
          </ns3:TrackPointExtension>
        </extensions>
      </trkpt>
      <trkpt lat="52.28199991397559642791748046875" lon="1.60018242895603179931640625">
        <ele>-320.20001220703125</ele>
        <time>2025-09-07T10:09:21.000Z</time>
        <extensions>
          <ns3:TrackPointExtension>
            <ns3:hr>152</ns3:hr>
            <ns3:cad>0</ns3:cad>
          </ns3:TrackPointExtension>
        </extensions>
      </trkpt>
      <trkpt lat="52.28202975355088710784912109375" lon="1.6002131067216396331787109375">
        <ele>-320.399993896484375</ele>
        <time>2025-09-07T10:09:23.000Z</time>
        <extensions>
          <ns3:TrackPointExtension>
            <ns3:hr>147</ns3:hr>
            <ns3:cad>0</ns3:cad>
          </ns3:TrackPointExtension>
        </extensions>
      </trkpt>
      <trkpt lat="52.28207015432417392730712890625" lon="1.6002530045807361602783203125">
        <ele>-321</ele>
        <time>2025-09-07T10:09:26.000Z</time>
        <extensions>
          <ns3:TrackPointExtension>
            <ns3:hr>146</ns3:hr>
            <ns3:cad>61</ns3:cad>
          </ns3:TrackPointExtension>
        </extensions>
      </trkpt>
      <trkpt lat="52.28210116736590862274169921875" lon="1.600281335413455963134765625">
        <ele>-321.399993896484375</ele>
        <time>2025-09-07T10:09:28.000Z</time>
        <extensions>
          <ns3:TrackPointExtension>
            <ns3:hr>145</ns3:hr>
            <ns3:cad>62</ns3:cad>
          </ns3:TrackPointExtension>
        </extensions>
      </trkpt>
      <trkpt lat="52.2821496985852718353271484375" lon="1.6003039665520191192626953125">
        <ele>-322.20001220703125</ele>
        <time>2025-09-07T10:09:31.000Z</time>
        <extensions>
          <ns3:TrackPointExtension>
            <ns3:hr>143</ns3:hr>
            <ns3:cad>63</ns3:cad>
          </ns3:TrackPointExtension>
        </extensions>
      </trkpt>
      <trkpt lat="52.28222002275288105010986328125" lon="1.6003384999930858612060546875">
        <ele>-323</ele>
        <time>2025-09-07T10:09:35.000Z</time>
        <extensions>
          <ns3:TrackPointExtension>
            <ns3:hr>143</ns3:hr>
            <ns3:cad>62</ns3:cad>
          </ns3:TrackPointExtension>
        </extensions>
      </trkpt>
      <trkpt lat="52.282238043844699859619140625" lon="1.60034579224884510040283203125">
        <ele>-323.20001220703125</ele>
        <time>2025-09-07T10:09:36.000Z</time>
        <extensions>
          <ns3:TrackPointExtension>
            <ns3:hr>143</ns3:hr>
            <ns3:cad>62</ns3:cad>
          </ns3:TrackPointExtension>
        </extensions>
      </trkpt>
      <trkpt lat="52.28230551816523075103759765625" lon="1.60037110559642314910888671875">
        <ele>-324.399993896484375</ele>
        <time>2025-09-07T10:09:41.000Z</time>
        <extensions>
          <ns3:TrackPointExtension>
            <ns3:hr>142</ns3:hr>
            <ns3:cad>62</ns3:cad>
          </ns3:TrackPointExtension>
        </extensions>
      </trkpt>
      <trkpt lat="52.28232177905738353729248046875" lon="1.60037512890994548797607421875">
        <ele>-324.600006103515625</ele>
        <time>2025-09-07T10:09:42.000Z</time>
        <extensions>
          <ns3:TrackPointExtension>
            <ns3:hr>142</ns3:hr>
            <ns3:cad>62</ns3:cad>
          </ns3:TrackPointExtension>
        </extensions>
      </trkpt>
      <trkpt lat="52.28237785398960113525390625" lon="1.60039625130593776702880859375">
        <ele>-325.600006103515625</ele>
        <time>2025-09-07T10:09:46.000Z</time>
        <extensions>
          <ns3:TrackPointExtension>
            <ns3:hr>140</ns3:hr>
            <ns3:cad>59</ns3:cad>
          </ns3:TrackPointExtension>
        </extensions>
      </trkpt>
      <trkpt lat="52.282436527311801910400390625" lon="1.600420810282230377197265625">
        <ele>-326.600006103515625</ele>
        <time>2025-09-07T10:09:50.000Z</time>
        <extensions>
          <ns3:TrackPointExtension>
            <ns3:hr>140</ns3:hr>
            <ns3:cad>59</ns3:cad>
          </ns3:TrackPointExtension>
        </extensions>
      </trkpt>
      <trkpt lat="52.28245136328041553497314453125" lon="1.60042424686253070831298828125">
        <ele>-326.79998779296875</ele>
        <time>2025-09-07T10:09:51.000Z</time>
        <extensions>
          <ns3:TrackPointExtension>
            <ns3:hr>140</ns3:hr>
            <ns3:cad>61</ns3:cad>
          </ns3:TrackPointExtension>
        </extensions>
      </trkpt>
      <trkpt lat="52.28252160362899303436279296875" lon="1.60044520162045955657958984375">
        <ele>-328</ele>
        <time>2025-09-07T10:09:56.000Z</time>
        <extensions>
          <ns3:TrackPointExtension>
            <ns3:hr>142</ns3:hr>
            <ns3:cad>64</ns3:cad>
          </ns3:TrackPointExtension>
        </extensions>
      </trkpt>
      <trkpt lat="52.28259335272014141082763671875" lon="1.60044386051595211029052734375">
        <ele>-329</ele>
        <time>2025-09-07T10:10:01.000Z</time>
        <extensions>
          <ns3:TrackPointExtension>
            <ns3:hr>143</ns3:hr>
            <ns3:cad>64</ns3:cad>
          </ns3:TrackPointExtension>
        </extensions>
      </trkpt>
      <trkpt lat="52.282624952495098114013671875" lon="1.60043564625084400177001953125">
        <ele>-329.399993896484375</ele>
        <time>2025-09-07T10:10:03.000Z</time>
        <extensions>
          <ns3:TrackPointExtension>
            <ns3:hr>143</ns3:hr>
            <ns3:cad>64</ns3:cad>
          </ns3:TrackPointExtension>
        </extensions>
      </trkpt>
      <trkpt lat="52.28268823586404323577880859375" lon="1.6004400886595249176025390625">
        <ele>-330.20001220703125</ele>
        <time>2025-09-07T10:10:06.000Z</time>
        <extensions>
          <ns3:TrackPointExtension>
            <ns3:hr>141</ns3:hr>
            <ns3:cad>64</ns3:cad>
          </ns3:TrackPointExtension>
        </extensions>
      </trkpt>
      <trkpt lat="52.2827458195388317108154296875" lon="1.600479148328304290771484375">
        <ele>-330.79998779296875</ele>
        <time>2025-09-07T10:10:09.000Z</time>
        <extensions>
          <ns3:TrackPointExtension>
            <ns3:hr>142</ns3:hr>
            <ns3:cad>78</ns3:cad>
          </ns3:TrackPointExtension>
        </extensions>
      </trkpt>
      <trkpt lat="52.2827889025211334228515625" lon="1.600500606000423431396484375">
        <ele>-331.20001220703125</ele>
        <time>2025-09-07T10:10:11.000Z</time>
        <extensions>
          <ns3:TrackPointExtension>
            <ns3:hr>142</ns3:hr>
            <ns3:cad>79</ns3:cad>
          </ns3:TrackPointExtension>
        </extensions>
      </trkpt>
      <trkpt lat="52.2828832827508449554443359375" lon="1.6005272604525089263916015625">
        <ele>-331.79998779296875</ele>
        <time>2025-09-07T10:10:15.000Z</time>
        <extensions>
          <ns3:TrackPointExtension>
            <ns3:hr>143</ns3:hr>
            <ns3:cad>80</ns3:cad>
          </ns3:TrackPointExtension>
        </extensions>
      </trkpt>
      <trkpt lat="52.28292234241962432861328125" lon="1.60054544918239116668701171875">
        <ele>-332.20001220703125</ele>
        <time>2025-09-07T10:10:17.000Z</time>
        <extensions>
          <ns3:TrackPointExtension>
            <ns3:hr>145</ns3:hr>
            <ns3:cad>80</ns3:cad>
          </ns3:TrackPointExtension>
        </extensions>
      </trkpt>
      <trkpt lat="52.2829570434987545013427734375" lon="1.60055617801845073699951171875">
        <ele>-332.399993896484375</ele>
        <time>2025-09-07T10:10:19.000Z</time>
        <extensions>
          <ns3:TrackPointExtension>
            <ns3:hr>149</ns3:hr>
            <ns3:cad>80</ns3:cad>
          </ns3:TrackPointExtension>
        </extensions>
      </trkpt>
      <trkpt lat="52.28301948867738246917724609375" lon="1.6005902923643589019775390625">
        <ele>-333</ele>
        <time>2025-09-07T10:10:23.000Z</time>
        <extensions>
          <ns3:TrackPointExtension>
            <ns3:hr>151</ns3:hr>
            <ns3:cad>80</ns3:cad>
          </ns3:TrackPointExtension>
        </extensions>
      </trkpt>
      <trkpt lat="52.28305670432746410369873046875" lon="1.6006124205887317657470703125">
        <ele>-333.399993896484375</ele>
        <time>2025-09-07T10:10:25.000Z</time>
        <extensions>
          <ns3:TrackPointExtension>
            <ns3:hr>151</ns3:hr>
            <ns3:cad>80</ns3:cad>
          </ns3:TrackPointExtension>
        </extensions>
      </trkpt>
      <trkpt lat="52.28315058164298534393310546875" lon="1.6006724350154399871826171875">
        <ele>-333.79998779296875</ele>
        <time>2025-09-07T10:10:30.000Z</time>
        <extensions>
          <ns3:TrackPointExtension>
            <ns3:hr>153</ns3:hr>
            <ns3:cad>79</ns3:cad>
          </ns3:TrackPointExtension>
        </extensions>
      </trkpt>
      <trkpt lat="52.28322249837219715118408203125" lon="1.60071928985416889190673828125">
        <ele>-334.399993896484375</ele>
        <time>2025-09-07T10:10:34.000Z</time>
        <extensions>
          <ns3:TrackPointExtension>
            <ns3:hr>155</ns3:hr>
            <ns3:cad>79</ns3:cad>
          </ns3:TrackPointExtension>
        </extensions>
      </trkpt>
      <trkpt lat="52.28328838013112545013427734375" lon="1.6007421724498271942138671875">
        <ele>-334.600006103515625</ele>
        <time>2025-09-07T10:10:37.000Z</time>
        <extensions>
          <ns3:TrackPointExtension>
            <ns3:hr>154</ns3:hr>
            <ns3:cad>80</ns3:cad>
          </ns3:TrackPointExtension>
        </extensions>
      </trkpt>
      <trkpt lat="52.283431626856327056884765625" lon="1.6007973253726959228515625">
        <ele>-335</ele>
        <time>2025-09-07T10:10:44.000Z</time>
        <extensions>
          <ns3:TrackPointExtension>
            <ns3:hr>154</ns3:hr>
            <ns3:cad>79</ns3:cad>
          </ns3:TrackPointExtension>
        </extensions>
      </trkpt>
      <trkpt lat="52.28355375118553638458251953125" lon="1.60090000368654727935791015625">
        <ele>-335.20001220703125</ele>
        <time>2025-09-07T10:10:51.000Z</time>
        <extensions>
          <ns3:TrackPointExtension>
            <ns3:hr>153</ns3:hr>
            <ns3:cad>79</ns3:cad>
          </ns3:TrackPointExtension>
        </extensions>
      </trkpt>
      <trkpt lat="52.28359113447368144989013671875" lon="1.60091022960841655731201171875">
        <ele>-335.399993896484375</ele>
        <time>2025-09-07T10:10:53.000Z</time>
        <extensions>
          <ns3:TrackPointExtension>
            <ns3:hr>151</ns3:hr>
            <ns3:cad>79</ns3:cad>
          </ns3:TrackPointExtension>
        </extensions>
      </trkpt>
      <trkpt lat="52.28364159353077411651611328125" lon="1.600931100547313690185546875">
        <ele>-335.600006103515625</ele>
        <time>2025-09-07T10:10:57.000Z</time>
        <extensions>
          <ns3:TrackPointExtension>
            <ns3:hr>149</ns3:hr>
            <ns3:cad>77</ns3:cad>
          </ns3:TrackPointExtension>
        </extensions>
      </trkpt>
      <trkpt lat="52.28367746807634830474853515625" lon="1.60094241611659526824951171875">
        <ele>-335.79998779296875</ele>
        <time>2025-09-07T10:11:04.000Z</time>
        <extensions>
          <ns3:TrackPointExtension>
            <ns3:hr>148</ns3:hr>
            <ns3:cad>49</ns3:cad>
          </ns3:TrackPointExtension>
        </extensions>
      </trkpt>
      <trkpt lat="52.28370152413845062255859375" lon="1.6008900292217731475830078125">
        <ele>-336</ele>
        <time>2025-09-07T10:11:07.000Z</time>
        <extensions>
          <ns3:TrackPointExtension>
            <ns3:hr>145</ns3:hr>
            <ns3:cad>49</ns3:cad>
          </ns3:TrackPointExtension>
        </extensions>
      </trkpt>
      <trkpt lat="52.2837288491427898406982421875" lon="1.60076354630291461944580078125">
        <ele>-336</ele>
        <time>2025-09-07T10:11:12.000Z</time>
        <extensions>
          <ns3:TrackPointExtension>
            <ns3:hr>146</ns3:hr>
            <ns3:cad>78</ns3:cad>
          </ns3:TrackPointExtension>
        </extensions>
      </trkpt>
      <trkpt lat="52.28375089354813098907470703125" lon="1.60054427571594715118408203125">
        <ele>-336.399993896484375</ele>
        <time>2025-09-07T10:11:20.000Z</time>
        <extensions>
          <ns3:TrackPointExtension>
            <ns3:hr>146</ns3:hr>
            <ns3:cad>81</ns3:cad>
          </ns3:TrackPointExtension>
        </extensions>
      </trkpt>
      <trkpt lat="52.28382566012442111968994140625" lon="1.60041402094066143035888671875">
        <ele>-337</ele>
        <time>2025-09-07T10:11:28.000Z</time>
        <extensions>
          <ns3:TrackPointExtension>
            <ns3:hr>144</ns3:hr>
            <ns3:cad>80</ns3:cad>
          </ns3:TrackPointExtension>
        </extensions>
      </trkpt>
      <trkpt lat="52.283872850239276885986328125" lon="1.6003747098147869110107421875">
        <ele>-337.399993896484375</ele>
        <time>2025-09-07T10:11:32.000Z</time>
        <extensions>
          <ns3:TrackPointExtension>
            <ns3:hr>147</ns3:hr>
            <ns3:cad>80</ns3:cad>
          </ns3:TrackPointExtension>
        </extensions>
      </trkpt>
      <trkpt lat="52.28388098068535327911376953125" lon="1.6002583689987659454345703125">
        <ele>-337.79998779296875</ele>
        <time>2025-09-07T10:11:36.000Z</time>
        <extensions>
          <ns3:TrackPointExtension>
            <ns3:hr>146</ns3:hr>
            <ns3:cad>80</ns3:cad>
          </ns3:TrackPointExtension>
        </extensions>
      </trkpt>
      <trkpt lat="52.283915765583515167236328125" lon="1.6000917367637157440185546875">
        <ele>-338.399993896484375</ele>
        <time>2025-09-07T10:11:42.000Z</time>
        <extensions>
          <ns3:TrackPointExtension>
            <ns3:hr>144</ns3:hr>
            <ns3:cad>80</ns3:cad>
          </ns3:TrackPointExtension>
        </extensions>
      </trkpt>
      <trkpt lat="52.28393395431339740753173828125" lon="1.599994339048862457275390625">
        <ele>-338.79998779296875</ele>
        <time>2025-09-07T10:11:46.000Z</time>
        <extensions>
          <ns3:TrackPointExtension>
            <ns3:hr>146</ns3:hr>
            <ns3:cad>80</ns3:cad>
          </ns3:TrackPointExtension>
        </extensions>
      </trkpt>
      <trkpt lat="52.28394904173910617828369140625" lon="1.59972603432834148406982421875">
        <ele>-339.600006103515625</ele>
        <time>2025-09-07T10:11:53.000Z</time>
        <extensions>
          <ns3:TrackPointExtension>
            <ns3:hr>145</ns3:hr>
            <ns3:cad>81</ns3:cad>
          </ns3:TrackPointExtension>
        </extensions>
      </trkpt>
      <trkpt lat="52.2839558310806751251220703125" lon="1.59969292581081390380859375">
        <ele>-339.600006103515625</ele>
        <time>2025-09-07T10:11:54.000Z</time>
        <extensions>
          <ns3:TrackPointExtension>
            <ns3:hr>146</ns3:hr>
            <ns3:cad>81</ns3:cad>
          </ns3:TrackPointExtension>
        </extensions>
      </trkpt>
      <trkpt lat="52.2839880175888538360595703125" lon="1.599531657993793487548828125">
        <ele>-340.20001220703125</ele>
        <time>2025-09-07T10:11:59.000Z</time>
        <extensions>
          <ns3:TrackPointExtension>
            <ns3:hr>149</ns3:hr>
            <ns3:cad>80</ns3:cad>
          </ns3:TrackPointExtension>
        </extensions>
      </trkpt>
      <trkpt lat="52.28400469757616519927978515625" lon="1.5994040854275226593017578125">
        <ele>-340.600006103515625</ele>
        <time>2025-09-07T10:12:03.000Z</time>
        <extensions>
          <ns3:TrackPointExtension>
            <ns3:hr>152</ns3:hr>
            <ns3:cad>81</ns3:cad>
          </ns3:TrackPointExtension>
        </extensions>
      </trkpt>
      <trkpt lat="52.28400059044361114501953125" lon="1.59932814538478851318359375">
        <ele>-341</ele>
        <time>2025-09-07T10:12:05.000Z</time>
        <extensions>
          <ns3:TrackPointExtension>
            <ns3:hr>152</ns3:hr>
            <ns3:cad>81</ns3:cad>
          </ns3:TrackPointExtension>
        </extensions>
      </trkpt>
      <trkpt lat="52.28402833454310894012451171875" lon="1.59913158975541591644287109375">
        <ele>-341.79998779296875</ele>
        <time>2025-09-07T10:12:12.000Z</time>
        <extensions>
          <ns3:TrackPointExtension>
            <ns3:hr>153</ns3:hr>
            <ns3:cad>80</ns3:cad>
          </ns3:TrackPointExtension>
        </extensions>
      </trkpt>
      <trkpt lat="52.2840280830860137939453125" lon="1.59906168468296527862548828125">
        <ele>-342</ele>
        <time>2025-09-07T10:12:14.000Z</time>
        <extensions>
          <ns3:TrackPointExtension>
            <ns3:hr>153</ns3:hr>
            <ns3:cad>80</ns3:cad>
          </ns3:TrackPointExtension>
        </extensions>
      </trkpt>
      <trkpt lat="52.284051217138767242431640625" lon="1.59882078878581523895263671875">
        <ele>-342.600006103515625</ele>
        <time>2025-09-07T10:12:21.000Z</time>
        <extensions>
          <ns3:TrackPointExtension>
            <ns3:hr>153</ns3:hr>
            <ns3:cad>81</ns3:cad>
          </ns3:TrackPointExtension>
        </extensions>
      </trkpt>
      <trkpt lat="52.28406135924160480499267578125" lon="1.59880419261753559112548828125">
        <ele>-342.600006103515625</ele>
        <time>2025-09-07T10:12:22.000Z</time>
        <extensions>
          <ns3:TrackPointExtension>
            <ns3:hr>153</ns3:hr>
            <ns3:cad>81</ns3:cad>
          </ns3:TrackPointExtension>
        </extensions>
      </trkpt>
      <trkpt lat="52.28406504727900028228759765625" lon="1.5987828187644481658935546875">
        <ele>-342.79998779296875</ele>
        <time>2025-09-07T10:12:23.000Z</time>
        <extensions>
          <ns3:TrackPointExtension>
            <ns3:hr>153</ns3:hr>
            <ns3:cad>81</ns3:cad>
          </ns3:TrackPointExtension>
        </extensions>
      </trkpt>
      <trkpt lat="52.28407971560955047607421875" lon="1.59865935333073139190673828125">
        <ele>-343</ele>
        <time>2025-09-07T10:12:28.000Z</time>
        <extensions>
          <ns3:TrackPointExtension>
            <ns3:hr>151</ns3:hr>
            <ns3:cad>80</ns3:cad>
          </ns3:TrackPointExtension>
        </extensions>
      </trkpt>
      <trkpt lat="52.28406219743192195892333984375" lon="1.59856162033975124359130859375">
        <ele>-343.20001220703125</ele>
        <time>2025-09-07T10:12:31.000Z</time>
        <extensions>
          <ns3:TrackPointExtension>
            <ns3:hr>151</ns3:hr>
            <ns3:cad>80</ns3:cad>
          </ns3:TrackPointExtension>
        </extensions>
      </trkpt>
      <trkpt lat="52.284199409186840057373046875" lon="1.59832944162189960479736328125">
        <ele>-343.600006103515625</ele>
        <time>2025-09-07T10:12:38.000Z</time>
        <extensions>
          <ns3:TrackPointExtension>
            <ns3:hr>150</ns3:hr>
            <ns3:cad>80</ns3:cad>
          </ns3:TrackPointExtension>
        </extensions>
      </trkpt>
      <trkpt lat="52.284238971769809722900390625" lon="1.59815409220755100250244140625">
        <ele>-343.79998779296875</ele>
        <time>2025-09-07T10:12:42.000Z</time>
        <extensions>
          <ns3:TrackPointExtension>
            <ns3:hr>150</ns3:hr>
            <ns3:cad>80</ns3:cad>
          </ns3:TrackPointExtension>
        </extensions>
      </trkpt>
      <trkpt lat="52.28425246663391590118408203125" lon="1.59798393957316875457763671875">
        <ele>-344</ele>
        <time>2025-09-07T10:12:46.000Z</time>
        <extensions>
          <ns3:TrackPointExtension>
            <ns3:hr>150</ns3:hr>
            <ns3:cad>81</ns3:cad>
          </ns3:TrackPointExtension>
        </extensions>
      </trkpt>
      <trkpt lat="52.28430636227130889892578125" lon="1.59778428263962268829345703125">
        <ele>-344.399993896484375</ele>
        <time>2025-09-07T10:12:53.000Z</time>
        <extensions>
          <ns3:TrackPointExtension>
            <ns3:hr>150</ns3:hr>
            <ns3:cad>0</ns3:cad>
          </ns3:TrackPointExtension>
        </extensions>
      </trkpt>
      <trkpt lat="52.28438171558082103729248046875" lon="1.5977223403751850128173828125">
        <ele>-344.79998779296875</ele>
        <time>2025-09-07T10:13:00.000Z</time>
        <extensions>
          <ns3:TrackPointExtension>
            <ns3:hr>148</ns3:hr>
            <ns3:cad>56</ns3:cad>
          </ns3:TrackPointExtension>
        </extensions>
      </trkpt>
      <trkpt lat="52.28450593538582324981689453125" lon="1.597731895744800567626953125">
        <ele>-345.600006103515625</ele>
        <time>2025-09-07T10:13:08.000Z</time>
        <extensions>
          <ns3:TrackPointExtension>
            <ns3:hr>148</ns3:hr>
            <ns3:cad>60</ns3:cad>
          </ns3:TrackPointExtension>
        </extensions>
      </trkpt>
      <trkpt lat="52.28453703224658966064453125" lon="1.5977411158382892608642578125">
        <ele>-346</ele>
        <time>2025-09-07T10:13:10.000Z</time>
        <extensions>
          <ns3:TrackPointExtension>
            <ns3:hr>147</ns3:hr>
            <ns3:cad>60</ns3:cad>
          </ns3:TrackPointExtension>
        </extensions>
      </trkpt>
      <trkpt lat="52.28464138694107532501220703125" lon="1.5977813489735126495361328125">
        <ele>-347</ele>
        <time>2025-09-07T10:13:17.000Z</time>
        <extensions>
          <ns3:TrackPointExtension>
            <ns3:hr>145</ns3:hr>
            <ns3:cad>60</ns3:cad>
          </ns3:TrackPointExtension>
        </extensions>
      </trkpt>
      <trkpt lat="52.2847326658666133880615234375" lon="1.597837172448635101318359375">
        <ele>-348.20001220703125</ele>
        <time>2025-09-07T10:13:24.000Z</time>
        <extensions>
          <ns3:TrackPointExtension>
            <ns3:hr>143</ns3:hr>
            <ns3:cad>60</ns3:cad>
          </ns3:TrackPointExtension>
        </extensions>
      </trkpt>
      <trkpt lat="52.28474532254040241241455078125" lon="1.59784496761858463287353515625">
        <ele>-348.20001220703125</ele>
        <time>2025-09-07T10:13:25.000Z</time>
        <extensions>
          <ns3:TrackPointExtension>
            <ns3:hr>142</ns3:hr>
            <ns3:cad>60</ns3:cad>
          </ns3:TrackPointExtension>
        </extensions>
      </trkpt>
      <trkpt lat="52.28480684570968151092529296875" lon="1.597922332584857940673828125">
        <ele>-349.20001220703125</ele>
        <time>2025-09-07T10:13:31.000Z</time>
        <extensions>
          <ns3:TrackPointExtension>
            <ns3:hr>139</ns3:hr>
            <ns3:cad>59</ns3:cad>
          </ns3:TrackPointExtension>
        </extensions>
      </trkpt>
      <trkpt lat="52.2848399542272090911865234375" lon="1.59796566702425479888916015625">
        <ele>-349.600006103515625</ele>
        <time>2025-09-07T10:13:34.000Z</time>
        <extensions>
          <ns3:TrackPointExtension>
            <ns3:hr>138</ns3:hr>
            <ns3:cad>60</ns3:cad>
          </ns3:TrackPointExtension>
        </extensions>
      </trkpt>
      <trkpt lat="52.2849105298519134521484375" lon="1.5979890525341033935546875">
        <ele>-350.20001220703125</ele>
        <time>2025-09-07T10:13:39.000Z</time>
        <extensions>
          <ns3:TrackPointExtension>
            <ns3:hr>135</ns3:hr>
            <ns3:cad>57</ns3:cad>
          </ns3:TrackPointExtension>
        </extensions>
      </trkpt>
      <trkpt lat="52.28493609465658664703369140625" lon="1.59799433313310146331787109375">
        <ele>-350.600006103515625</ele>
        <time>2025-09-07T10:13:41.000Z</time>
        <extensions>
          <ns3:TrackPointExtension>
            <ns3:hr>134</ns3:hr>
            <ns3:cad>57</ns3:cad>
          </ns3:TrackPointExtension>
        </extensions>
      </trkpt>
      <trkpt lat="52.28504656814038753509521484375" lon="1.59806021489202976226806640625">
        <ele>-351.399993896484375</ele>
        <time>2025-09-07T10:13:47.000Z</time>
        <extensions>
          <ns3:TrackPointExtension>
            <ns3:hr>132</ns3:hr>
            <ns3:cad>78</ns3:cad>
          </ns3:TrackPointExtension>
        </extensions>
      </trkpt>
      <trkpt lat="52.2851936705410480499267578125" lon="1.5981354005634784698486328125">
        <ele>-352.600006103515625</ele>
        <time>2025-09-07T10:13:54.000Z</time>
        <extensions>
          <ns3:TrackPointExtension>
            <ns3:hr>136</ns3:hr>
            <ns3:cad>80</ns3:cad>
          </ns3:TrackPointExtension>
        </extensions>
      </trkpt>
      <trkpt lat="52.2853428684175014495849609375" lon="1.59820069558918476104736328125">
        <ele>-353.79998779296875</ele>
        <time>2025-09-07T10:14:01.000Z</time>
        <extensions>
          <ns3:TrackPointExtension>
            <ns3:hr>140</ns3:hr>
            <ns3:cad>80</ns3:cad>
          </ns3:TrackPointExtension>
        </extensions>
      </trkpt>
      <trkpt lat="52.28542559780180454254150390625" lon="1.5982607938349246978759765625">
        <ele>-354.399993896484375</ele>
        <time>2025-09-07T10:14:06.000Z</time>
        <extensions>
          <ns3:TrackPointExtension>
            <ns3:hr>143</ns3:hr>
            <ns3:cad>79</ns3:cad>
          </ns3:TrackPointExtension>
        </extensions>
      </trkpt>
      <trkpt lat="52.2854682616889476776123046875" lon="1.598286442458629608154296875">
        <ele>-354.79998779296875</ele>
        <time>2025-09-07T10:14:09.000Z</time>
        <extensions>
          <ns3:TrackPointExtension>
            <ns3:hr>144</ns3:hr>
            <ns3:cad>79</ns3:cad>
          </ns3:TrackPointExtension>
        </extensions>
      </trkpt>
      <trkpt lat="52.2855879552662372589111328125" lon="1.59840236417949199676513671875">
        <ele>-355.399993896484375</ele>
        <time>2025-09-07T10:14:16.000Z</time>
        <extensions>
          <ns3:TrackPointExtension>
            <ns3:hr>145</ns3:hr>
            <ns3:cad>80</ns3:cad>
          </ns3:TrackPointExtension>
        </extensions>
      </trkpt>
      <trkpt lat="52.28563497774302959442138671875" lon="1.5984342992305755615234375">
        <ele>-355.79998779296875</ele>
        <time>2025-09-07T10:14:19.000Z</time>
        <extensions>
          <ns3:TrackPointExtension>
            <ns3:hr>148</ns3:hr>
            <ns3:cad>80</ns3:cad>
          </ns3:TrackPointExtension>
        </extensions>
      </trkpt>
      <trkpt lat="52.28571049869060516357421875" lon="1.59847008995711803436279296875">
        <ele>-356.20001220703125</ele>
        <time>2025-09-07T10:14:24.000Z</time>
        <extensions>
          <ns3:TrackPointExtension>
            <ns3:hr>151</ns3:hr>
            <ns3:cad>80</ns3:cad>
          </ns3:TrackPointExtension>
        </extensions>
      </trkpt>
      <trkpt lat="52.28580035269260406494140625" lon="1.59858911298215389251708984375">
        <ele>-356.600006103515625</ele>
        <time>2025-09-07T10:14:31.000Z</time>
        <extensions>
          <ns3:TrackPointExtension>
            <ns3:hr>151</ns3:hr>
            <ns3:cad>80</ns3:cad>
          </ns3:TrackPointExtension>
        </extensions>
      </trkpt>
      <trkpt lat="52.28584066964685916900634765625" lon="1.5986349619925022125244140625">
        <ele>-356.600006103515625</ele>
        <time>2025-09-07T10:14:34.000Z</time>
        <extensions>
          <ns3:TrackPointExtension>
            <ns3:hr>148</ns3:hr>
            <ns3:cad>80</ns3:cad>
          </ns3:TrackPointExtension>
        </extensions>
      </trkpt>
      <trkpt lat="52.2859002649784088134765625" lon="1.5986936353147029876708984375">
        <ele>-356.600006103515625</ele>
        <time>2025-09-07T10:14:38.000Z</time>
        <extensions>
          <ns3:TrackPointExtension>
            <ns3:hr>150</ns3:hr>
            <ns3:cad>80</ns3:cad>
          </ns3:TrackPointExtension>
        </extensions>
      </trkpt>
      <trkpt lat="52.285992465913295745849609375" lon="1.59879882819950580596923828125">
        <ele>-356.600006103515625</ele>
        <time>2025-09-07T10:14:45.000Z</time>
        <extensions>
          <ns3:TrackPointExtension>
            <ns3:hr>152</ns3:hr>
            <ns3:cad>80</ns3:cad>
          </ns3:TrackPointExtension>
        </extensions>
      </trkpt>
      <trkpt lat="52.286059856414794921875" lon="1.59886118955910205841064453125">
        <ele>-356.399993896484375</ele>
        <time>2025-09-07T10:14:49.000Z</time>
        <extensions>
          <ns3:TrackPointExtension>
            <ns3:hr>150</ns3:hr>
            <ns3:cad>80</ns3:cad>
          </ns3:TrackPointExtension>
        </extensions>
      </trkpt>
      <trkpt lat="52.28608726523816585540771484375" lon="1.59888549707829952239990234375">
        <ele>-356.20001220703125</ele>
        <time>2025-09-07T10:14:51.000Z</time>
        <extensions>
          <ns3:TrackPointExtension>
            <ns3:hr>151</ns3:hr>
            <ns3:cad>80</ns3:cad>
          </ns3:TrackPointExtension>
        </extensions>
      </trkpt>
      <trkpt lat="52.286198325455188751220703125" lon="1.59895691089332103729248046875">
        <ele>-354.600006103515625</ele>
        <time>2025-09-07T10:14:57.000Z</time>
        <extensions>
          <ns3:TrackPointExtension>
            <ns3:hr>151</ns3:hr>
            <ns3:cad>80</ns3:cad>
          </ns3:TrackPointExtension>
        </extensions>
      </trkpt>
      <trkpt lat="52.28621341288089752197265625" lon="1.598965711891651153564453125">
        <ele>-354.399993896484375</ele>
        <time>2025-09-07T10:14:58.000Z</time>
        <extensions>
          <ns3:TrackPointExtension>
            <ns3:hr>151</ns3:hr>
            <ns3:cad>80</ns3:cad>
          </ns3:TrackPointExtension>
        </extensions>
      </trkpt>
      <trkpt lat="52.28626529686152935028076171875" lon="1.599000580608844757080078125">
        <ele>-353.399993896484375</ele>
        <time>2025-09-07T10:15:01.000Z</time>
        <extensions>
          <ns3:TrackPointExtension>
            <ns3:hr>150</ns3:hr>
            <ns3:cad>80</ns3:cad>
          </ns3:TrackPointExtension>
        </extensions>
      </trkpt>
      <trkpt lat="52.2862953878939151763916015625" lon="1.59902547486126422882080078125">
        <ele>-352.79998779296875</ele>
        <time>2025-09-07T10:15:03.000Z</time>
        <extensions>
          <ns3:TrackPointExtension>
            <ns3:hr>154</ns3:hr>
            <ns3:cad>81</ns3:cad>
          </ns3:TrackPointExtension>
        </extensions>
      </trkpt>
      <trkpt lat="52.2863121517002582550048828125" lon="1.59904039464890956878662109375">
        <ele>-352.399993896484375</ele>
        <time>2025-09-07T10:15:04.000Z</time>
        <extensions>
          <ns3:TrackPointExtension>
            <ns3:hr>154</ns3:hr>
            <ns3:cad>81</ns3:cad>
          </ns3:TrackPointExtension>
        </extensions>
      </trkpt>
      <trkpt lat="52.28634844534099102020263671875" lon="1.59906252287328243255615234375">
        <ele>-351.600006103515625</ele>
        <time>2025-09-07T10:15:06.000Z</time>
        <extensions>
          <ns3:TrackPointExtension>
            <ns3:hr>153</ns3:hr>
            <ns3:cad>81</ns3:cad>
          </ns3:TrackPointExtension>
        </extensions>
      </trkpt>
      <trkpt lat="52.28636235930025577545166015625" lon="1.5990771912038326263427734375">
        <ele>-351.20001220703125</ele>
        <time>2025-09-07T10:15:07.000Z</time>
        <extensions>
          <ns3:TrackPointExtension>
            <ns3:hr>156</ns3:hr>
            <ns3:cad>81</ns3:cad>
          </ns3:TrackPointExtension>
        </extensions>
      </trkpt>
      <trkpt lat="52.28640728630125522613525390625" lon="1.59912438131868839263916015625">
        <ele>-350.20001220703125</ele>
        <time>2025-09-07T10:15:10.000Z</time>
        <extensions>
          <ns3:TrackPointExtension>
            <ns3:hr>154</ns3:hr>
            <ns3:cad>80</ns3:cad>
          </ns3:TrackPointExtension>
        </extensions>
      </trkpt>
      <trkpt lat="52.28646143339574337005615234375" lon="1.59916226752102375030517578125">
        <ele>-349</ele>
        <time>2025-09-07T10:15:13.000Z</time>
        <extensions>
          <ns3:TrackPointExtension>
            <ns3:hr>152</ns3:hr>
            <ns3:cad>79</ns3:cad>
          </ns3:TrackPointExtension>
        </extensions>
      </trkpt>
      <trkpt lat="52.28648775257170200347900390625" lon="1.599203087389469146728515625">
        <ele>-348.20001220703125</ele>
        <time>2025-09-07T10:15:15.000Z</time>
        <extensions>
          <ns3:TrackPointExtension>
            <ns3:hr>151</ns3:hr>
            <ns3:cad>80</ns3:cad>
          </ns3:TrackPointExtension>
        </extensions>
      </trkpt>
      <trkpt lat="52.2864945419132709503173828125" lon="1.599221862852573394775390625">
        <ele>-348</ele>
        <time>2025-09-07T10:15:16.000Z</time>
        <extensions>
          <ns3:TrackPointExtension>
            <ns3:hr>152</ns3:hr>
            <ns3:cad>80</ns3:cad>
          </ns3:TrackPointExtension>
        </extensions>
      </trkpt>
      <trkpt lat="52.2865129821002483367919921875" lon="1.59925262443721294403076171875">
        <ele>-346.79998779296875</ele>
        <time>2025-09-07T10:15:19.000Z</time>
        <extensions>
          <ns3:TrackPointExtension>
            <ns3:hr>155</ns3:hr>
            <ns3:cad>80</ns3:cad>
          </ns3:TrackPointExtension>
        </extensions>
      </trkpt>
      <trkpt lat="52.286523543298244476318359375" lon="1.5992552228271961212158203125">
        <ele>-346.600006103515625</ele>
        <time>2025-09-07T10:15:20.000Z</time>
        <extensions>
          <ns3:TrackPointExtension>
            <ns3:hr>151</ns3:hr>
            <ns3:cad>80</ns3:cad>
          </ns3:TrackPointExtension>
        </extensions>
      </trkpt>
      <trkpt lat="52.28654064238071441650390625" lon="1.5992684662342071533203125">
        <ele>-345.79998779296875</ele>
        <time>2025-09-07T10:15:22.000Z</time>
        <extensions>
          <ns3:TrackPointExtension>
            <ns3:hr>151</ns3:hr>
            <ns3:cad>62</ns3:cad>
          </ns3:TrackPointExtension>
        </extensions>
      </trkpt>
      <trkpt lat="52.28655648417770862579345703125" lon="1.5992763452231884002685546875">
        <ele>-345.600006103515625</ele>
        <time>2025-09-07T10:15:23.000Z</time>
        <extensions>
          <ns3:TrackPointExtension>
            <ns3:hr>151</ns3:hr>
            <ns3:cad>60</ns3:cad>
          </ns3:TrackPointExtension>
        </extensions>
      </trkpt>
      <trkpt lat="52.28662420995533466339111328125" lon="1.59933493472635746002197265625">
        <ele>-344.399993896484375</ele>
        <time>2025-09-07T10:15:27.000Z</time>
        <extensions>
          <ns3:TrackPointExtension>
            <ns3:hr>151</ns3:hr>
            <ns3:cad>60</ns3:cad>
          </ns3:TrackPointExtension>
        </extensions>
      </trkpt>
      <trkpt lat="52.2866460867226123809814453125" lon="1.59937080927193164825439453125">
        <ele>-343.79998779296875</ele>
        <time>2025-09-07T10:15:29.000Z</time>
        <extensions>
          <ns3:TrackPointExtension>
            <ns3:hr>151</ns3:hr>
            <ns3:cad>55</ns3:cad>
          </ns3:TrackPointExtension>
        </extensions>
      </trkpt>
      <trkpt lat="52.28666544891893863677978515625" lon="1.5994141437113285064697265625">
        <ele>-343.20001220703125</ele>
        <time>2025-09-07T10:15:31.000Z</time>
        <extensions>
          <ns3:TrackPointExtension>
            <ns3:hr>151</ns3:hr>
            <ns3:cad>55</ns3:cad>
          </ns3:TrackPointExtension>
        </extensions>
      </trkpt>
      <trkpt lat="52.2867111302912235260009765625" lon="1.599514894187450408935546875">
        <ele>-342.20001220703125</ele>
        <time>2025-09-07T10:15:36.000Z</time>
        <extensions>
          <ns3:TrackPointExtension>
            <ns3:hr>151</ns3:hr>
            <ns3:cad>56</ns3:cad>
          </ns3:TrackPointExtension>
        </extensions>
      </trkpt>
      <trkpt lat="52.28674004785716533660888671875" lon="1.599537692964076995849609375">
        <ele>-342</ele>
        <time>2025-09-07T10:15:37.000Z</time>
        <extensions>
          <ns3:TrackPointExtension>
            <ns3:hr>152</ns3:hr>
            <ns3:cad>56</ns3:cad>
          </ns3:TrackPointExtension>
        </extensions>
      </trkpt>
      <trkpt lat="52.28682520799338817596435546875" lon="1.59959007985889911651611328125">
        <ele>-341</ele>
        <time>2025-09-07T10:15:43.000Z</time>
        <extensions>
          <ns3:TrackPointExtension>
            <ns3:hr>154</ns3:hr>
            <ns3:cad>58</ns3:cad>
          </ns3:TrackPointExtension>
        </extensions>
      </trkpt>
      <trkpt lat="52.2868375293910503387451171875" lon="1.59958831965923309326171875">
        <ele>-341</ele>
        <time>2025-09-07T10:15:44.000Z</time>
        <extensions>
          <ns3:TrackPointExtension>
            <ns3:hr>154</ns3:hr>
            <ns3:cad>58</ns3:cad>
          </ns3:TrackPointExtension>
        </extensions>
      </trkpt>
      <trkpt lat="52.28687952272593975067138671875" lon="1.59956845454871654510498046875">
        <ele>-340.600006103515625</ele>
        <time>2025-09-07T10:15:47.000Z</time>
        <extensions>
          <ns3:TrackPointExtension>
            <ns3:hr>151</ns3:hr>
            <ns3:cad>59</ns3:cad>
          </ns3:TrackPointExtension>
        </extensions>
      </trkpt>
      <trkpt lat="52.28694171644747257232666015625" lon="1.59948631189763545989990234375">
        <ele>-340.20001220703125</ele>
        <time>2025-09-07T10:15:52.000Z</time>
        <extensions>
          <ns3:TrackPointExtension>
            <ns3:hr>151</ns3:hr>
            <ns3:cad>59</ns3:cad>
          </ns3:TrackPointExtension>
        </extensions>
      </trkpt>
      <trkpt lat="52.28695713914930820465087890625" lon="1.599479019641876220703125">
        <ele>-340</ele>
        <time>2025-09-07T10:15:53.000Z</time>
        <extensions>
          <ns3:TrackPointExtension>
            <ns3:hr>150</ns3:hr>
            <ns3:cad>59</ns3:cad>
          </ns3:TrackPointExtension>
        </extensions>
      </trkpt>
      <trkpt lat="52.28703408502042293548583984375" lon="1.59942378289997577667236328125">
        <ele>-339.79998779296875</ele>
        <time>2025-09-07T10:15:57.000Z</time>
        <extensions>
          <ns3:TrackPointExtension>
            <ns3:hr>147</ns3:hr>
            <ns3:cad>78</ns3:cad>
          </ns3:TrackPointExtension>
        </extensions>
      </trkpt>
      <trkpt lat="52.2871144674718379974365234375" lon="1.59937215037643909454345703125">
        <ele>-339.600006103515625</ele>
        <time>2025-09-07T10:16:01.000Z</time>
        <extensions>
          <ns3:TrackPointExtension>
            <ns3:hr>145</ns3:hr>
            <ns3:cad>79</ns3:cad>
          </ns3:TrackPointExtension>
        </extensions>
      </trkpt>
      <trkpt lat="52.28714774362742900848388671875" lon="1.59932487644255161285400390625">
        <ele>-339.600006103515625</ele>
        <time>2025-09-07T10:16:03.000Z</time>
        <extensions>
          <ns3:TrackPointExtension>
            <ns3:hr>148</ns3:hr>
            <ns3:cad>78</ns3:cad>
          </ns3:TrackPointExtension>
        </extensions>
      </trkpt>
      <trkpt lat="52.28720474056899547576904296875" lon="1.5992542169988155364990234375">
        <ele>-339.79998779296875</ele>
        <time>2025-09-07T10:16:07.000Z</time>
        <extensions>
          <ns3:TrackPointExtension>
            <ns3:hr>151</ns3:hr>
            <ns3:cad>79</ns3:cad>
          </ns3:TrackPointExtension>
        </extensions>
      </trkpt>
      <trkpt lat="52.2872351668775081634521484375" lon="1.59921415150165557861328125">
        <ele>-339.79998779296875</ele>
        <time>2025-09-07T10:16:09.000Z</time>
        <extensions>
          <ns3:TrackPointExtension>
            <ns3:hr>150</ns3:hr>
            <ns3:cad>80</ns3:cad>
          </ns3:TrackPointExtension>
        </extensions>
      </trkpt>
      <trkpt lat="52.28736366145312786102294921875" lon="1.59908448345959186553955078125">
        <ele>-340</ele>
        <time>2025-09-07T10:16:17.000Z</time>
        <extensions>
          <ns3:TrackPointExtension>
            <ns3:hr>153</ns3:hr>
            <ns3:cad>80</ns3:cad>
          </ns3:TrackPointExtension>
        </extensions>
      </trkpt>
      <trkpt lat="52.2874960117042064666748046875" lon="1.598942242562770843505859375">
        <ele>-340.399993896484375</ele>
        <time>2025-09-07T10:16:25.000Z</time>
        <extensions>
          <ns3:TrackPointExtension>
            <ns3:hr>152</ns3:hr>
            <ns3:cad>79</ns3:cad>
          </ns3:TrackPointExtension>
        </extensions>
      </trkpt>
      <trkpt lat="52.28755577467381954193115234375" lon="1.59886655397713184356689453125">
        <ele>-340.600006103515625</ele>
        <time>2025-09-07T10:16:29.000Z</time>
        <extensions>
          <ns3:TrackPointExtension>
            <ns3:hr>149</ns3:hr>
            <ns3:cad>79</ns3:cad>
          </ns3:TrackPointExtension>
        </extensions>
      </trkpt>
      <trkpt lat="52.28760673664510250091552734375" lon="1.59879840910434722900390625">
        <ele>-340.79998779296875</ele>
        <time>2025-09-07T10:16:32.000Z</time>
        <extensions>
          <ns3:TrackPointExtension>
            <ns3:hr>150</ns3:hr>
            <ns3:cad>80</ns3:cad>
          </ns3:TrackPointExtension>
        </extensions>
      </trkpt>
      <trkpt lat="52.28766180574893951416015625" lon="1.5987244807183742523193359375">
        <ele>-340.79998779296875</ele>
        <time>2025-09-07T10:16:35.000Z</time>
        <extensions>
          <ns3:TrackPointExtension>
            <ns3:hr>154</ns3:hr>
            <ns3:cad>79</ns3:cad>
          </ns3:TrackPointExtension>
        </extensions>
      </trkpt>
      <trkpt lat="52.28769407607614994049072265625" lon="1.59868047572672367095947265625">
        <ele>-341</ele>
        <time>2025-09-07T10:16:37.000Z</time>
        <extensions>
          <ns3:TrackPointExtension>
            <ns3:hr>150</ns3:hr>
            <ns3:cad>79</ns3:cad>
          </ns3:TrackPointExtension>
        </extensions>
      </trkpt>
      <trkpt lat="52.287760041654109954833984375" lon="1.598608307540416717529296875">
        <ele>-341</ele>
        <time>2025-09-07T10:16:41.000Z</time>
        <extensions>
          <ns3:TrackPointExtension>
            <ns3:hr>150</ns3:hr>
            <ns3:cad>80</ns3:cad>
          </ns3:TrackPointExtension>
        </extensions>
      </trkpt>
      <trkpt lat="52.28784863837063312530517578125" lon="1.59850227646529674530029296875">
        <ele>-341</ele>
        <time>2025-09-07T10:16:47.000Z</time>
        <extensions>
          <ns3:TrackPointExtension>
            <ns3:hr>153</ns3:hr>
            <ns3:cad>78</ns3:cad>
          </ns3:TrackPointExtension>
        </extensions>
      </trkpt>
      <trkpt lat="52.28791519068181514739990234375" lon="1.59843220375478267669677734375">
        <ele>-341</ele>
        <time>2025-09-07T10:16:51.000Z</time>
        <extensions>
          <ns3:TrackPointExtension>
            <ns3:hr>150</ns3:hr>
            <ns3:cad>80</ns3:cad>
          </ns3:TrackPointExtension>
        </extensions>
      </trkpt>
      <trkpt lat="52.28807847015559673309326171875" lon="1.5982711873948574066162109375">
        <ele>-341</ele>
        <time>2025-09-07T10:17:01.000Z</time>
        <extensions>
          <ns3:TrackPointExtension>
            <ns3:hr>151</ns3:hr>
            <ns3:cad>79</ns3:cad>
          </ns3:TrackPointExtension>
        </extensions>
      </trkpt>
      <trkpt lat="52.288189195096492767333984375" lon="1.59813330508768558502197265625">
        <ele>-341.20001220703125</ele>
        <time>2025-09-07T10:17:07.000Z</time>
        <extensions>
          <ns3:TrackPointExtension>
            <ns3:hr>152</ns3:hr>
            <ns3:cad>80</ns3:cad>
          </ns3:TrackPointExtension>
        </extensions>
      </trkpt>
      <trkpt lat="52.28824292309582233428955078125" lon="1.59805267117917537689208984375">
        <ele>-341.20001220703125</ele>
        <time>2025-09-07T10:17:10.000Z</time>
        <extensions>
          <ns3:TrackPointExtension>
            <ns3:hr>153</ns3:hr>
            <ns3:cad>80</ns3:cad>
          </ns3:TrackPointExtension>
        </extensions>
      </trkpt>
      <trkpt lat="52.2883110679686069488525390625" lon="1.59795661456882953643798828125">
        <ele>-341.600006103515625</ele>
        <time>2025-09-07T10:17:14.000Z</time>
        <extensions>
          <ns3:TrackPointExtension>
            <ns3:hr>157</ns3:hr>
            <ns3:cad>80</ns3:cad>
          </ns3:TrackPointExtension>
        </extensions>
      </trkpt>
      <trkpt lat="52.28834308683872222900390625" lon="1.5979070775210857391357421875">
        <ele>-342</ele>
        <time>2025-09-07T10:17:16.000Z</time>
        <extensions>
          <ns3:TrackPointExtension>
            <ns3:hr>160</ns3:hr>
            <ns3:cad>80</ns3:cad>
          </ns3:TrackPointExtension>
        </extensions>
      </trkpt>
      <trkpt lat="52.28838264942169189453125" lon="1.59787262789905071258544921875">
        <ele>-342.20001220703125</ele>
        <time>2025-09-07T10:17:18.000Z</time>
        <extensions>
          <ns3:TrackPointExtension>
            <ns3:hr>160</ns3:hr>
            <ns3:cad>80</ns3:cad>
          </ns3:TrackPointExtension>
        </extensions>
      </trkpt>
      <trkpt lat="52.288398407399654388427734375" lon="1.59785100258886814117431640625">
        <ele>-342.20001220703125</ele>
        <time>2025-09-07T10:17:19.000Z</time>
        <extensions>
          <ns3:TrackPointExtension>
            <ns3:hr>160</ns3:hr>
            <ns3:cad>80</ns3:cad>
          </ns3:TrackPointExtension>
        </extensions>
      </trkpt>
      <trkpt lat="52.28850075043737888336181640625" lon="1.5978098474442958831787109375">
        <ele>-343</ele>
        <time>2025-09-07T10:17:25.000Z</time>
        <extensions>
          <ns3:TrackPointExtension>
            <ns3:hr>160</ns3:hr>
            <ns3:cad>79</ns3:cad>
          </ns3:TrackPointExtension>
        </extensions>
      </trkpt>
      <trkpt lat="52.28852841071784496307373046875" lon="1.59785100258886814117431640625">
        <ele>-343.20001220703125</ele>
        <time>2025-09-07T10:17:27.000Z</time>
        <extensions>
          <ns3:TrackPointExtension>
            <ns3:hr>159</ns3:hr>
            <ns3:cad>80</ns3:cad>
          </ns3:TrackPointExtension>
        </extensions>
      </trkpt>
      <trkpt lat="52.28854919783771038055419921875" lon="1.59795912913978099822998046875">
        <ele>-343.600006103515625</ele>
        <time>2025-09-07T10:17:30.000Z</time>
        <extensions>
          <ns3:TrackPointExtension>
            <ns3:hr>160</ns3:hr>
            <ns3:cad>80</ns3:cad>
          </ns3:TrackPointExtension>
        </extensions>
      </trkpt>
      <trkpt lat="52.2885531373322010040283203125" lon="1.5980173833668231964111328125">
        <ele>-343.79998779296875</ele>
        <time>2025-09-07T10:17:32.000Z</time>
        <extensions>
          <ns3:TrackPointExtension>
            <ns3:hr>157</ns3:hr>
            <ns3:cad>80</ns3:cad>
          </ns3:TrackPointExtension>
        </extensions>
      </trkpt>
      <trkpt lat="52.28855120949447154998779296875" lon="1.59807111136615276336669921875">
        <ele>-344</ele>
        <time>2025-09-07T10:17:34.000Z</time>
        <extensions>
          <ns3:TrackPointExtension>
            <ns3:hr>154</ns3:hr>
            <ns3:cad>80</ns3:cad>
          </ns3:TrackPointExtension>
        </extensions>
      </trkpt>
      <trkpt lat="52.2885544784367084503173828125" lon="1.59811285324394702911376953125">
        <ele>-344.20001220703125</ele>
        <time>2025-09-07T10:17:36.000Z</time>
        <extensions>
          <ns3:TrackPointExtension>
            <ns3:hr>153</ns3:hr>
            <ns3:cad>79</ns3:cad>
          </ns3:TrackPointExtension>
        </extensions>
      </trkpt>
      <trkpt lat="52.28855188004672527313232421875" lon="1.5981655754148960113525390625">
        <ele>-344.600006103515625</ele>
        <time>2025-09-07T10:17:38.000Z</time>
        <extensions>
          <ns3:TrackPointExtension>
            <ns3:hr>152</ns3:hr>
            <ns3:cad>79</ns3:cad>
          </ns3:TrackPointExtension>
        </extensions>
      </trkpt>
      <trkpt lat="52.2885293327271938323974609375" lon="1.59829423762857913970947265625">
        <ele>-345.20001220703125</ele>
        <time>2025-09-07T10:17:44.000Z</time>
        <extensions>
          <ns3:TrackPointExtension>
            <ns3:hr>152</ns3:hr>
            <ns3:cad>79</ns3:cad>
          </ns3:TrackPointExtension>
        </extensions>
      </trkpt>
      <trkpt lat="52.288521118462085723876953125" lon="1.598340086638927459716796875">
        <ele>-345.399993896484375</ele>
        <time>2025-09-07T10:17:46.000Z</time>
        <extensions>
          <ns3:TrackPointExtension>
            <ns3:hr>152</ns3:hr>
            <ns3:cad>79</ns3:cad>
          </ns3:TrackPointExtension>
        </extensions>
      </trkpt>
      <trkpt lat="52.28853763081133365631103515625" lon="1.5984767116606235504150390625">
        <ele>-345.79998779296875</ele>
        <time>2025-09-07T10:17:52.000Z</time>
        <extensions>
          <ns3:TrackPointExtension>
            <ns3:hr>152</ns3:hr>
            <ns3:cad>80</ns3:cad>
          </ns3:TrackPointExtension>
        </extensions>
      </trkpt>
      <trkpt lat="52.288562022149562835693359375" lon="1.59862540662288665771484375">
        <ele>-346</ele>
        <time>2025-09-07T10:17:59.000Z</time>
        <extensions>
          <ns3:TrackPointExtension>
            <ns3:hr>152</ns3:hr>
            <ns3:cad>80</ns3:cad>
          </ns3:TrackPointExtension>
        </extensions>
      </trkpt>
      <trkpt lat="52.28856545872986316680908203125" lon="1.59870545379817485809326171875">
        <ele>-346</ele>
        <time>2025-09-07T10:18:02.000Z</time>
        <extensions>
          <ns3:TrackPointExtension>
            <ns3:hr>152</ns3:hr>
            <ns3:cad>80</ns3:cad>
          </ns3:TrackPointExtension>
        </extensions>
      </trkpt>
      <trkpt lat="52.28858473710715770721435546875" lon="1.59888063557446002960205078125">
        <ele>-346</ele>
        <time>2025-09-07T10:18:07.000Z</time>
        <extensions>
          <ns3:TrackPointExtension>
            <ns3:hr>152</ns3:hr>
            <ns3:cad>79</ns3:cad>
          </ns3:TrackPointExtension>
        </extensions>
      </trkpt>
      <trkpt lat="52.28861474432051181793212890625" lon="1.5991328470408916473388671875">
        <ele>-346</ele>
        <time>2025-09-07T10:18:14.000Z</time>
        <extensions>
          <ns3:TrackPointExtension>
            <ns3:hr>153</ns3:hr>
            <ns3:cad>81</ns3:cad>
          </ns3:TrackPointExtension>
        </extensions>
      </trkpt>
      <trkpt lat="52.28866050951182842254638671875" lon="1.5994014032185077667236328125">
        <ele>-346.20001220703125</ele>
        <time>2025-09-07T10:18:22.000Z</time>
        <extensions>
          <ns3:TrackPointExtension>
            <ns3:hr>152</ns3:hr>
            <ns3:cad>81</ns3:cad>
          </ns3:TrackPointExtension>
        </extensions>
      </trkpt>
      <trkpt lat="52.28871817700564861297607421875" lon="1.5996109507977962493896484375">
        <ele>-346.399993896484375</ele>
        <time>2025-09-07T10:18:29.000Z</time>
        <extensions>
          <ns3:TrackPointExtension>
            <ns3:hr>154</ns3:hr>
            <ns3:cad>81</ns3:cad>
          </ns3:TrackPointExtension>
        </extensions>
      </trkpt>
      <trkpt lat="52.28870845399796962738037109375" lon="1.59968093968927860260009765625">
        <ele>-346.399993896484375</ele>
        <time>2025-09-07T10:18:32.000Z</time>
        <extensions>
          <ns3:TrackPointExtension>
            <ns3:hr>154</ns3:hr>
            <ns3:cad>80</ns3:cad>
          </ns3:TrackPointExtension>
        </extensions>
      </trkpt>
      <trkpt lat="52.2886621020734310150146484375" lon="1.59979619085788726806640625">
        <ele>-346.79998779296875</ele>
        <time>2025-09-07T10:18:36.000Z</time>
        <extensions>
          <ns3:TrackPointExtension>
            <ns3:hr>154</ns3:hr>
            <ns3:cad>81</ns3:cad>
          </ns3:TrackPointExtension>
        </extensions>
      </trkpt>
      <trkpt lat="52.28864843957126140594482421875" lon="1.5999041497707366943359375">
        <ele>-347</ele>
        <time>2025-09-07T10:18:40.000Z</time>
        <extensions>
          <ns3:TrackPointExtension>
            <ns3:hr>157</ns3:hr>
            <ns3:cad>81</ns3:cad>
          </ns3:TrackPointExtension>
        </extensions>
      </trkpt>
      <trkpt lat="52.28866134770214557647705078125" lon="1.59994044341146945953369140625">
        <ele>-347</ele>
        <time>2025-09-07T10:18:41.000Z</time>
        <extensions>
          <ns3:TrackPointExtension>
            <ns3:hr>155</ns3:hr>
            <ns3:cad>81</ns3:cad>
          </ns3:TrackPointExtension>
        </extensions>
      </trkpt>
      <trkpt lat="52.28866319172084331512451171875" lon="1.59998989664018154144287109375">
        <ele>-347.20001220703125</ele>
        <time>2025-09-07T10:18:43.000Z</time>
        <extensions>
          <ns3:TrackPointExtension>
            <ns3:hr>155</ns3:hr>
            <ns3:cad>81</ns3:cad>
          </ns3:TrackPointExtension>
        </extensions>
      </trkpt>
      <trkpt lat="52.28866755031049251556396484375" lon="1.60007522441446781158447265625">
        <ele>-347.399993896484375</ele>
        <time>2025-09-07T10:18:46.000Z</time>
        <extensions>
          <ns3:TrackPointExtension>
            <ns3:hr>155</ns3:hr>
            <ns3:cad>81</ns3:cad>
          </ns3:TrackPointExtension>
        </extensions>
      </trkpt>
      <trkpt lat="52.2886978089809417724609375" lon="1.600274629890918731689453125">
        <ele>-347.79998779296875</ele>
        <time>2025-09-07T10:18:51.000Z</time>
        <extensions>
          <ns3:TrackPointExtension>
            <ns3:hr>155</ns3:hr>
            <ns3:cad>81</ns3:cad>
          </ns3:TrackPointExtension>
        </extensions>
      </trkpt>
      <trkpt lat="52.28875455446541309356689453125" lon="1.6004566848278045654296875">
        <ele>-348.20001220703125</ele>
        <time>2025-09-07T10:18:58.000Z</time>
        <extensions>
          <ns3:TrackPointExtension>
            <ns3:hr>152</ns3:hr>
            <ns3:cad>81</ns3:cad>
          </ns3:TrackPointExtension>
        </extensions>
      </trkpt>
      <trkpt lat="52.28876763023436069488525390625" lon="1.60050840117037296295166015625">
        <ele>-348.399993896484375</ele>
        <time>2025-09-07T10:19:00.000Z</time>
        <extensions>
          <ns3:TrackPointExtension>
            <ns3:hr>152</ns3:hr>
            <ns3:cad>81</ns3:cad>
          </ns3:TrackPointExtension>
        </extensions>
      </trkpt>
      <trkpt lat="52.28882546536624431610107421875" lon="1.60072867758572101593017578125">
        <ele>-349.20001220703125</ele>
        <time>2025-09-07T10:19:07.000Z</time>
        <extensions>
          <ns3:TrackPointExtension>
            <ns3:hr>149</ns3:hr>
            <ns3:cad>81</ns3:cad>
          </ns3:TrackPointExtension>
        </extensions>
      </trkpt>
      <trkpt lat="52.28882429189980030059814453125" lon="1.6007559187710285186767578125">
        <ele>-349.20001220703125</ele>
        <time>2025-09-07T10:19:08.000Z</time>
        <extensions>
          <ns3:TrackPointExtension>
            <ns3:hr>152</ns3:hr>
            <ns3:cad>81</ns3:cad>
          </ns3:TrackPointExtension>
        </extensions>
      </trkpt>
      <trkpt lat="52.2888265550136566162109375" lon="1.6008400730788707733154296875">
        <ele>-349.600006103515625</ele>
        <time>2025-09-07T10:19:11.000Z</time>
        <extensions>
          <ns3:TrackPointExtension>
            <ns3:hr>151</ns3:hr>
            <ns3:cad>80</ns3:cad>
          </ns3:TrackPointExtension>
        </extensions>
      </trkpt>
      <trkpt lat="52.2888424806296825408935546875" lon="1.600876115262508392333984375">
        <ele>-349.600006103515625</ele>
        <time>2025-09-07T10:19:12.000Z</time>
        <extensions>
          <ns3:TrackPointExtension>
            <ns3:hr>151</ns3:hr>
            <ns3:cad>80</ns3:cad>
          </ns3:TrackPointExtension>
        </extensions>
      </trkpt>
      <trkpt lat="52.28887592442333698272705078125" lon="1.6009329445660114288330078125">
        <ele>-349.79998779296875</ele>
        <time>2025-09-07T10:19:14.000Z</time>
        <extensions>
          <ns3:TrackPointExtension>
            <ns3:hr>151</ns3:hr>
            <ns3:cad>80</ns3:cad>
          </ns3:TrackPointExtension>
        </extensions>
      </trkpt>
      <trkpt lat="52.2889326699078083038330078125" lon="1.601137630641460418701171875">
        <ele>-350.399993896484375</ele>
        <time>2025-09-07T10:19:22.000Z</time>
        <extensions>
          <ns3:TrackPointExtension>
            <ns3:hr>151</ns3:hr>
            <ns3:cad>80</ns3:cad>
          </ns3:TrackPointExtension>
        </extensions>
      </trkpt>
      <trkpt lat="52.2889454104006290435791015625" lon="1.60121373832225799560546875">
        <ele>-350.600006103515625</ele>
        <time>2025-09-07T10:19:25.000Z</time>
        <extensions>
          <ns3:TrackPointExtension>
            <ns3:hr>150</ns3:hr>
            <ns3:cad>79</ns3:cad>
          </ns3:TrackPointExtension>
        </extensions>
      </trkpt>
      <trkpt lat="52.2889888286590576171875" lon="1.60133100114762783050537109375">
        <ele>-350.79998779296875</ele>
        <time>2025-09-07T10:19:30.000Z</time>
        <extensions>
          <ns3:TrackPointExtension>
            <ns3:hr>150</ns3:hr>
            <ns3:cad>80</ns3:cad>
          </ns3:TrackPointExtension>
        </extensions>
      </trkpt>
      <trkpt lat="52.28900450281798839569091796875" lon="1.60150744020938873291015625">
        <ele>-350.79998779296875</ele>
        <time>2025-09-07T10:19:37.000Z</time>
        <extensions>
          <ns3:TrackPointExtension>
            <ns3:hr>149</ns3:hr>
            <ns3:cad>80</ns3:cad>
          </ns3:TrackPointExtension>
        </extensions>
      </trkpt>
      <trkpt lat="52.2890355996787548065185546875" lon="1.60174691118299961090087890625">
        <ele>-351</ele>
        <time>2025-09-07T10:19:45.000Z</time>
        <extensions>
          <ns3:TrackPointExtension>
            <ns3:hr>149</ns3:hr>
            <ns3:cad>80</ns3:cad>
          </ns3:TrackPointExtension>
        </extensions>
      </trkpt>
      <trkpt lat="52.28904716670513153076171875" lon="1.601909101009368896484375">
        <ele>-351.20001220703125</ele>
        <time>2025-09-07T10:19:50.000Z</time>
        <extensions>
          <ns3:TrackPointExtension>
            <ns3:hr>149</ns3:hr>
            <ns3:cad>80</ns3:cad>
          </ns3:TrackPointExtension>
        </extensions>
      </trkpt>
      <trkpt lat="52.28903803043067455291748046875" lon="1.601969785988330841064453125">
        <ele>-351.20001220703125</ele>
        <time>2025-09-07T10:19:52.000Z</time>
        <extensions>
          <ns3:TrackPointExtension>
            <ns3:hr>149</ns3:hr>
            <ns3:cad>80</ns3:cad>
          </ns3:TrackPointExtension>
        </extensions>
      </trkpt>
      <trkpt lat="52.28907122276723384857177734375" lon="1.60219006240367889404296875">
        <ele>-351.399993896484375</ele>
        <time>2025-09-07T10:20:00.000Z</time>
        <extensions>
          <ns3:TrackPointExtension>
            <ns3:hr>151</ns3:hr>
            <ns3:cad>80</ns3:cad>
          </ns3:TrackPointExtension>
        </extensions>
      </trkpt>
      <trkpt lat="52.28908832184970378875732421875" lon="1.60230698995292186737060546875">
        <ele>-351.399993896484375</ele>
        <time>2025-09-07T10:20:04.000Z</time>
        <extensions>
          <ns3:TrackPointExtension>
            <ns3:hr>148</ns3:hr>
            <ns3:cad>79</ns3:cad>
          </ns3:TrackPointExtension>
        </extensions>
      </trkpt>
      <trkpt lat="52.2891076840460300445556640625" lon="1.60239818505942821502685546875">
        <ele>-351.600006103515625</ele>
        <time>2025-09-07T10:20:07.000Z</time>
        <extensions>
          <ns3:TrackPointExtension>
            <ns3:hr>148</ns3:hr>
            <ns3:cad>79</ns3:cad>
          </ns3:TrackPointExtension>
        </extensions>
      </trkpt>
      <trkpt lat="52.289120592176914215087890625" lon="1.60244545899331569671630859375">
        <ele>-351.79998779296875</ele>
        <time>2025-09-07T10:20:09.000Z</time>
        <extensions>
          <ns3:TrackPointExtension>
            <ns3:hr>148</ns3:hr>
            <ns3:cad>80</ns3:cad>
          </ns3:TrackPointExtension>
        </extensions>
      </trkpt>
      <trkpt lat="52.28914716280996799468994140625" lon="1.6026748716831207275390625">
        <ele>-352.20001220703125</ele>
        <time>2025-09-07T10:20:18.000Z</time>
        <extensions>
          <ns3:TrackPointExtension>
            <ns3:hr>148</ns3:hr>
            <ns3:cad>80</ns3:cad>
          </ns3:TrackPointExtension>
        </extensions>
      </trkpt>
      <trkpt lat="52.28916308842599391937255859375" lon="1.60280168987810611724853515625">
        <ele>-352.600006103515625</ele>
        <time>2025-09-07T10:20:22.000Z</time>
        <extensions>
          <ns3:TrackPointExtension>
            <ns3:hr>148</ns3:hr>
            <ns3:cad>80</ns3:cad>
          </ns3:TrackPointExtension>
        </extensions>
      </trkpt>
      <trkpt lat="52.28918069042265415191650390625" lon="1.60296857357025146484375">
        <ele>-353.20001220703125</ele>
        <time>2025-09-07T10:20:26.000Z</time>
        <extensions>
          <ns3:TrackPointExtension>
            <ns3:hr>149</ns3:hr>
            <ns3:cad>80</ns3:cad>
          </ns3:TrackPointExtension>
        </extensions>
      </trkpt>
      <trkpt lat="52.289223186671733856201171875" lon="1.60314224660396575927734375">
        <ele>-353.79998779296875</ele>
        <time>2025-09-07T10:20:30.000Z</time>
        <extensions>
          <ns3:TrackPointExtension>
            <ns3:hr>150</ns3:hr>
            <ns3:cad>80</ns3:cad>
          </ns3:TrackPointExtension>
        </extensions>
      </trkpt>
      <trkpt lat="52.28923299349844455718994140625" lon="1.603326313197612762451171875">
        <ele>-354.79998779296875</ele>
        <time>2025-09-07T10:20:36.000Z</time>
        <extensions>
          <ns3:TrackPointExtension>
            <ns3:hr>148</ns3:hr>
            <ns3:cad>80</ns3:cad>
          </ns3:TrackPointExtension>
        </extensions>
      </trkpt>
      <trkpt lat="52.289226539433002471923828125" lon="1.60345765762031078338623046875">
        <ele>-356</ele>
        <time>2025-09-07T10:20:41.000Z</time>
        <extensions>
          <ns3:TrackPointExtension>
            <ns3:hr>149</ns3:hr>
            <ns3:cad>80</ns3:cad>
          </ns3:TrackPointExtension>
        </extensions>
      </trkpt>
      <trkpt lat="52.28922796435654163360595703125" lon="1.603581793606281280517578125">
        <ele>-356.79998779296875</ele>
        <time>2025-09-07T10:20:45.000Z</time>
        <extensions>
          <ns3:TrackPointExtension>
            <ns3:hr>149</ns3:hr>
            <ns3:cad>81</ns3:cad>
          </ns3:TrackPointExtension>
        </extensions>
      </trkpt>
      <trkpt lat="52.28923114947974681854248046875" lon="1.60361121408641338348388671875">
        <ele>-357.20001220703125</ele>
        <time>2025-09-07T10:20:46.000Z</time>
        <extensions>
          <ns3:TrackPointExtension>
            <ns3:hr>149</ns3:hr>
            <ns3:cad>80</ns3:cad>
          </ns3:TrackPointExtension>
        </extensions>
      </trkpt>
      <trkpt lat="52.28924539871513843536376953125" lon="1.60373509861528873443603515625">
        <ele>-358.20001220703125</ele>
        <time>2025-09-07T10:20:50.000Z</time>
        <extensions>
          <ns3:TrackPointExtension>
            <ns3:hr>149</ns3:hr>
            <ns3:cad>80</ns3:cad>
          </ns3:TrackPointExtension>
        </extensions>
      </trkpt>
      <trkpt lat="52.28924070484936237335205078125" lon="1.60384573973715305328369140625">
        <ele>-359.20001220703125</ele>
        <time>2025-09-07T10:20:54.000Z</time>
        <extensions>
          <ns3:TrackPointExtension>
            <ns3:hr>149</ns3:hr>
            <ns3:cad>79</ns3:cad>
          </ns3:TrackPointExtension>
        </extensions>
      </trkpt>
      <trkpt lat="52.289256714284420013427734375" lon="1.6039792634546756744384765625">
        <ele>-360.399993896484375</ele>
        <time>2025-09-07T10:20:59.000Z</time>
        <extensions>
          <ns3:TrackPointExtension>
            <ns3:hr>148</ns3:hr>
            <ns3:cad>80</ns3:cad>
          </ns3:TrackPointExtension>
        </extensions>
      </trkpt>
      <trkpt lat="52.2892696224153041839599609375" lon="1.604048497974872589111328125">
        <ele>-361.20001220703125</ele>
        <time>2025-09-07T10:21:02.000Z</time>
        <extensions>
          <ns3:TrackPointExtension>
            <ns3:hr>146</ns3:hr>
            <ns3:cad>80</ns3:cad>
          </ns3:TrackPointExtension>
        </extensions>
      </trkpt>
      <trkpt lat="52.2892900742590427398681640625" lon="1.60407976247370243072509765625">
        <ele>-361.600006103515625</ele>
        <time>2025-09-07T10:21:04.000Z</time>
        <extensions>
          <ns3:TrackPointExtension>
            <ns3:hr>146</ns3:hr>
            <ns3:cad>0</ns3:cad>
          </ns3:TrackPointExtension>
        </extensions>
      </trkpt>
      <trkpt lat="52.2892932593822479248046875" lon="1.604120247066020965576171875">
        <ele>-362.79998779296875</ele>
        <time>2025-09-07T10:21:09.000Z</time>
        <extensions>
          <ns3:TrackPointExtension>
            <ns3:hr>146</ns3:hr>
            <ns3:cad>0</ns3:cad>
          </ns3:TrackPointExtension>
        </extensions>
      </trkpt>
      <trkpt lat="52.28929669596254825592041015625" lon="1.60412116907536983489990234375">
        <ele>-363.79998779296875</ele>
        <time>2025-09-07T10:21:14.000Z</time>
        <extensions>
          <ns3:TrackPointExtension>
            <ns3:hr>145</ns3:hr>
            <ns3:cad>0</ns3:cad>
          </ns3:TrackPointExtension>
        </extensions>
      </trkpt>
      <trkpt lat="52.28934128768742084503173828125" lon="1.60417514853179454803466796875">
        <ele>-364.600006103515625</ele>
        <time>2025-09-07T10:21:18.000Z</time>
        <extensions>
          <ns3:TrackPointExtension>
            <ns3:hr>142</ns3:hr>
            <ns3:cad>0</ns3:cad>
          </ns3:TrackPointExtension>
        </extensions>
      </trkpt>
      <trkpt lat="52.2893497534096240997314453125" lon="1.6041961871087551116943359375">
        <ele>-364.79998779296875</ele>
        <time>2025-09-07T10:21:19.000Z</time>
        <extensions>
          <ns3:TrackPointExtension>
            <ns3:hr>142</ns3:hr>
            <ns3:cad>0</ns3:cad>
          </ns3:TrackPointExtension>
        </extensions>
      </trkpt>
      <trkpt lat="52.289364337921142578125" lon="1.604284532368183135986328125">
        <ele>-366</ele>
        <time>2025-09-07T10:21:24.000Z</time>
        <extensions>
          <ns3:TrackPointExtension>
            <ns3:hr>143</ns3:hr>
            <ns3:cad>0</ns3:cad>
          </ns3:TrackPointExtension>
        </extensions>
      </trkpt>
      <trkpt lat="52.28937464766204357147216796875" lon="1.6043323092162609100341796875">
        <ele>-366.79998779296875</ele>
        <time>2025-09-07T10:21:28.000Z</time>
        <extensions>
          <ns3:TrackPointExtension>
            <ns3:hr>142</ns3:hr>
            <ns3:cad>0</ns3:cad>
          </ns3:TrackPointExtension>
        </extensions>
      </trkpt>
      <trkpt lat="52.289376743137836456298828125" lon="1.604350246489048004150390625">
        <ele>-367.20001220703125</ele>
        <time>2025-09-07T10:21:29.000Z</time>
        <extensions>
          <ns3:TrackPointExtension>
            <ns3:hr>141</ns3:hr>
            <ns3:cad>0</ns3:cad>
          </ns3:TrackPointExtension>
        </extensions>
      </trkpt>
      <trkpt lat="52.28942074812948703765869140625" lon="1.604424007236957550048828125">
        <ele>-368.399993896484375</ele>
        <time>2025-09-07T10:21:34.000Z</time>
        <extensions>
          <ns3:TrackPointExtension>
            <ns3:hr>140</ns3:hr>
            <ns3:cad>57</ns3:cad>
          </ns3:TrackPointExtension>
        </extensions>
      </trkpt>
      <trkpt lat="52.289431057870388031005859375" lon="1.6044523380696773529052734375">
        <ele>-368.79998779296875</ele>
        <time>2025-09-07T10:21:36.000Z</time>
        <extensions>
          <ns3:TrackPointExtension>
            <ns3:hr>138</ns3:hr>
            <ns3:cad>58</ns3:cad>
          </ns3:TrackPointExtension>
        </extensions>
      </trkpt>
      <trkpt lat="52.289436422288417816162109375" lon="1.604468263685703277587890625">
        <ele>-369.399993896484375</ele>
        <time>2025-09-07T10:21:38.000Z</time>
        <extensions>
          <ns3:TrackPointExtension>
            <ns3:hr>139</ns3:hr>
            <ns3:cad>56</ns3:cad>
          </ns3:TrackPointExtension>
        </extensions>
      </trkpt>
      <trkpt lat="52.2894608974456787109375" lon="1.604521572589874267578125">
        <ele>-370.399993896484375</ele>
        <time>2025-09-07T10:21:42.000Z</time>
        <extensions>
          <ns3:TrackPointExtension>
            <ns3:hr>140</ns3:hr>
            <ns3:cad>58</ns3:cad>
          </ns3:TrackPointExtension>
        </extensions>
      </trkpt>
      <trkpt lat="52.28947632014751434326171875" lon="1.60458393394947052001953125">
        <ele>-371.600006103515625</ele>
        <time>2025-09-07T10:21:46.000Z</time>
        <extensions>
          <ns3:TrackPointExtension>
            <ns3:hr>140</ns3:hr>
            <ns3:cad>60</ns3:cad>
          </ns3:TrackPointExtension>
        </extensions>
      </trkpt>
      <trkpt lat="52.289493083953857421875" lon="1.60463330335915088653564453125">
        <ele>-372.79998779296875</ele>
        <time>2025-09-07T10:21:50.000Z</time>
        <extensions>
          <ns3:TrackPointExtension>
            <ns3:hr>142</ns3:hr>
            <ns3:cad>59</ns3:cad>
          </ns3:TrackPointExtension>
        </extensions>
      </trkpt>
      <trkpt lat="52.2895157150924205780029296875" lon="1.604622490704059600830078125">
        <ele>-373.600006103515625</ele>
        <time>2025-09-07T10:21:53.000Z</time>
        <extensions>
          <ns3:TrackPointExtension>
            <ns3:hr>142</ns3:hr>
            <ns3:cad>58</ns3:cad>
          </ns3:TrackPointExtension>
        </extensions>
      </trkpt>
      <trkpt lat="52.28953055106103420257568359375" lon="1.604629196226596832275390625">
        <ele>-373.79998779296875</ele>
        <time>2025-09-07T10:21:54.000Z</time>
        <extensions>
          <ns3:TrackPointExtension>
            <ns3:hr>140</ns3:hr>
            <ns3:cad>58</ns3:cad>
          </ns3:TrackPointExtension>
        </extensions>
      </trkpt>
      <trkpt lat="52.28957430459558963775634765625" lon="1.6046581976115703582763671875">
        <ele>-375</ele>
        <time>2025-09-07T10:21:58.000Z</time>
        <extensions>
          <ns3:TrackPointExtension>
            <ns3:hr>141</ns3:hr>
            <ns3:cad>59</ns3:cad>
          </ns3:TrackPointExtension>
        </extensions>
      </trkpt>
      <trkpt lat="52.2896005399525165557861328125" lon="1.6046716086566448211669921875">
        <ele>-375.79998779296875</ele>
        <time>2025-09-07T10:22:00.000Z</time>
        <extensions>
          <ns3:TrackPointExtension>
            <ns3:hr>139</ns3:hr>
            <ns3:cad>59</ns3:cad>
          </ns3:TrackPointExtension>
        </extensions>
      </trkpt>
      <trkpt lat="52.28961001150310039520263671875" lon="1.604671441018581390380859375">
        <ele>-376</ele>
        <time>2025-09-07T10:22:01.000Z</time>
        <extensions>
          <ns3:TrackPointExtension>
            <ns3:hr>139</ns3:hr>
            <ns3:cad>58</ns3:cad>
          </ns3:TrackPointExtension>
        </extensions>
      </trkpt>
      <trkpt lat="52.28961872868239879608154296875" lon="1.6046575270593166351318359375">
        <ele>-376.399993896484375</ele>
        <time>2025-09-07T10:22:02.000Z</time>
        <extensions>
          <ns3:TrackPointExtension>
            <ns3:hr>140</ns3:hr>
            <ns3:cad>58</ns3:cad>
          </ns3:TrackPointExtension>
        </extensions>
      </trkpt>
      <trkpt lat="52.28967522270977497100830078125" lon="1.60460195504128932952880859375">
        <ele>-377.600006103515625</ele>
        <time>2025-09-07T10:22:06.000Z</time>
        <extensions>
          <ns3:TrackPointExtension>
            <ns3:hr>137</ns3:hr>
            <ns3:cad>59</ns3:cad>
          </ns3:TrackPointExtension>
        </extensions>
      </trkpt>
      <trkpt lat="52.28969718329608440399169921875" lon="1.60457991063594818115234375">
        <ele>-378.399993896484375</ele>
        <time>2025-09-07T10:22:09.000Z</time>
        <extensions>
          <ns3:TrackPointExtension>
            <ns3:hr>136</ns3:hr>
            <ns3:cad>58</ns3:cad>
          </ns3:TrackPointExtension>
        </extensions>
      </trkpt>
      <trkpt lat="52.2896970994770526885986328125" lon="1.604576222598552703857421875">
        <ele>-378.600006103515625</ele>
        <time>2025-09-07T10:22:10.000Z</time>
        <extensions>
          <ns3:TrackPointExtension>
            <ns3:hr>133</ns3:hr>
            <ns3:cad>58</ns3:cad>
          </ns3:TrackPointExtension>
        </extensions>
      </trkpt>
      <trkpt lat="52.28971864096820354461669921875" lon="1.60458259284496307373046875">
        <ele>-379.600006103515625</ele>
        <time>2025-09-07T10:22:13.000Z</time>
        <extensions>
          <ns3:TrackPointExtension>
            <ns3:hr>125</ns3:hr>
            <ns3:cad>53</ns3:cad>
          </ns3:TrackPointExtension>
        </extensions>
      </trkpt>
      <trkpt lat="52.28972836397588253021240234375" lon="1.604576222598552703857421875">
        <ele>-379.79998779296875</ele>
        <time>2025-09-07T10:22:14.000Z</time>
        <extensions>
          <ns3:TrackPointExtension>
            <ns3:hr>123</ns3:hr>
            <ns3:cad>53</ns3:cad>
          </ns3:TrackPointExtension>
        </extensions>
      </trkpt>
      <trkpt lat="52.289737164974212646484375" lon="1.6045589558780193328857421875">
        <ele>-380.20001220703125</ele>
        <time>2025-09-07T10:22:15.000Z</time>
        <extensions>
          <ns3:TrackPointExtension>
            <ns3:hr>123</ns3:hr>
            <ns3:cad>55</ns3:cad>
          </ns3:TrackPointExtension>
        </extensions>
      </trkpt>
      <trkpt lat="52.28974244557321071624755859375" lon="1.6045214049518108367919921875">
        <ele>-380.79998779296875</ele>
        <time>2025-09-07T10:22:17.000Z</time>
        <extensions>
          <ns3:TrackPointExtension>
            <ns3:hr>121</ns3:hr>
            <ns3:cad>57</ns3:cad>
          </ns3:TrackPointExtension>
        </extensions>
      </trkpt>
      <trkpt lat="52.28974630124866962432861328125" lon="1.60450321622192859649658203125">
        <ele>-381</ele>
        <time>2025-09-07T10:22:18.000Z</time>
        <extensions>
          <ns3:TrackPointExtension>
            <ns3:hr>121</ns3:hr>
            <ns3:cad>57</ns3:cad>
          </ns3:TrackPointExtension>
        </extensions>
      </trkpt>
      <trkpt lat="52.289767675101757049560546875" lon="1.60444973967969417572021484375">
        <ele>-382.399993896484375</ele>
        <time>2025-09-07T10:22:22.000Z</time>
        <extensions>
          <ns3:TrackPointExtension>
            <ns3:hr>120</ns3:hr>
            <ns3:cad>61</ns3:cad>
          </ns3:TrackPointExtension>
        </extensions>
      </trkpt>
      <trkpt lat="52.289778403937816619873046875" lon="1.6044432856142520904541015625">
        <ele>-382.79998779296875</ele>
        <time>2025-09-07T10:22:23.000Z</time>
        <extensions>
          <ns3:TrackPointExtension>
            <ns3:hr>122</ns3:hr>
            <ns3:cad>78</ns3:cad>
          </ns3:TrackPointExtension>
        </extensions>
      </trkpt>
      <trkpt lat="52.2897866182029247283935546875" lon="1.60443331114947795867919921875">
        <ele>-383</ele>
        <time>2025-09-07T10:22:24.000Z</time>
        <extensions>
          <ns3:TrackPointExtension>
            <ns3:hr>125</ns3:hr>
            <ns3:cad>78</ns3:cad>
          </ns3:TrackPointExtension>
        </extensions>
      </trkpt>
      <trkpt lat="52.28979759849607944488525390625" lon="1.6044255159795284271240234375">
        <ele>-383.399993896484375</ele>
        <time>2025-09-07T10:22:25.000Z</time>
        <extensions>
          <ns3:TrackPointExtension>
            <ns3:hr>126</ns3:hr>
            <ns3:cad>78</ns3:cad>
          </ns3:TrackPointExtension>
        </extensions>
      </trkpt>
      <trkpt lat="52.2898107580840587615966796875" lon="1.6044188104569911956787109375">
        <ele>-383.79998779296875</ele>
        <time>2025-09-07T10:22:26.000Z</time>
        <extensions>
          <ns3:TrackPointExtension>
            <ns3:hr>130</ns3:hr>
            <ns3:cad>79</ns3:cad>
          </ns3:TrackPointExtension>
        </extensions>
      </trkpt>
      <trkpt lat="52.28982341475784778594970703125" lon="1.60440959036350250244140625">
        <ele>-384</ele>
        <time>2025-09-07T10:22:27.000Z</time>
        <extensions>
          <ns3:TrackPointExtension>
            <ns3:hr>129</ns3:hr>
            <ns3:cad>79</ns3:cad>
          </ns3:TrackPointExtension>
        </extensions>
      </trkpt>
      <trkpt lat="52.289837412536144256591796875" lon="1.6043849475681781768798828125">
        <ele>-384.600006103515625</ele>
        <time>2025-09-07T10:22:29.000Z</time>
        <extensions>
          <ns3:TrackPointExtension>
            <ns3:hr>131</ns3:hr>
            <ns3:cad>80</ns3:cad>
          </ns3:TrackPointExtension>
        </extensions>
      </trkpt>
      <trkpt lat="52.2898959182202816009521484375" lon="1.60433582961559295654296875">
        <ele>-386</ele>
        <time>2025-09-07T10:22:33.000Z</time>
        <extensions>
          <ns3:TrackPointExtension>
            <ns3:hr>135</ns3:hr>
            <ns3:cad>79</ns3:cad>
          </ns3:TrackPointExtension>
        </extensions>
      </trkpt>
      <trkpt lat="52.289930284023284912109375" lon="1.60431713797152042388916015625">
        <ele>-386.600006103515625</ele>
        <time>2025-09-07T10:22:35.000Z</time>
        <extensions>
          <ns3:TrackPointExtension>
            <ns3:hr>138</ns3:hr>
            <ns3:cad>79</ns3:cad>
          </ns3:TrackPointExtension>
        </extensions>
      </trkpt>
      <trkpt lat="52.2899462096393108367919921875" lon="1.60431076772511005401611328125">
        <ele>-387</ele>
        <time>2025-09-07T10:22:36.000Z</time>
        <extensions>
          <ns3:TrackPointExtension>
            <ns3:hr>139</ns3:hr>
            <ns3:cad>79</ns3:cad>
          </ns3:TrackPointExtension>
        </extensions>
      </trkpt>
      <trkpt lat="52.2899629734456539154052734375" lon="1.6043011285364627838134765625">
        <ele>-387.20001220703125</ele>
        <time>2025-09-07T10:22:37.000Z</time>
        <extensions>
          <ns3:TrackPointExtension>
            <ns3:hr>139</ns3:hr>
            <ns3:cad>79</ns3:cad>
          </ns3:TrackPointExtension>
        </extensions>
      </trkpt>
      <trkpt lat="52.2900280170142650604248046875" lon="1.60424957983195781707763671875">
        <ele>-388.399993896484375</ele>
        <time>2025-09-07T10:22:41.000Z</time>
        <extensions>
          <ns3:TrackPointExtension>
            <ns3:hr>141</ns3:hr>
            <ns3:cad>0</ns3:cad>
          </ns3:TrackPointExtension>
        </extensions>
      </trkpt>
      <trkpt lat="52.2900752909481525421142578125" lon="1.60423457622528076171875">
        <ele>-389</ele>
        <time>2025-09-07T10:22:43.000Z</time>
        <extensions>
          <ns3:TrackPointExtension>
            <ns3:hr>141</ns3:hr>
            <ns3:cad>0</ns3:cad>
          </ns3:TrackPointExtension>
        </extensions>
      </trkpt>
      <trkpt lat="52.2900967486202716827392578125" lon="1.60421848297119140625">
        <ele>-389.399993896484375</ele>
        <time>2025-09-07T10:22:44.000Z</time>
        <extensions>
          <ns3:TrackPointExtension>
            <ns3:hr>141</ns3:hr>
            <ns3:cad>0</ns3:cad>
          </ns3:TrackPointExtension>
        </extensions>
      </trkpt>
      <trkpt lat="52.290111668407917022705078125" lon="1.60420716740190982818603515625">
        <ele>-389.600006103515625</ele>
        <time>2025-09-07T10:22:45.000Z</time>
        <extensions>
          <ns3:TrackPointExtension>
            <ns3:hr>140</ns3:hr>
            <ns3:cad>0</ns3:cad>
          </ns3:TrackPointExtension>
        </extensions>
      </trkpt>
      <trkpt lat="52.29016698896884918212890625" lon="1.60412418656051158905029296875">
        <ele>-390.79998779296875</ele>
        <time>2025-09-07T10:22:49.000Z</time>
        <extensions>
          <ns3:TrackPointExtension>
            <ns3:hr>141</ns3:hr>
            <ns3:cad>78</ns3:cad>
          </ns3:TrackPointExtension>
        </extensions>
      </trkpt>
      <trkpt lat="52.29020495899021625518798828125" lon="1.604049839079380035400390625">
        <ele>-392</ele>
        <time>2025-09-07T10:22:53.000Z</time>
        <extensions>
          <ns3:TrackPointExtension>
            <ns3:hr>141</ns3:hr>
            <ns3:cad>78</ns3:cad>
          </ns3:TrackPointExtension>
        </extensions>
      </trkpt>
      <trkpt lat="52.29021065868437290191650390625" lon="1.60403718240559101104736328125">
        <ele>-392.20001220703125</ele>
        <time>2025-09-07T10:22:54.000Z</time>
        <extensions>
          <ns3:TrackPointExtension>
            <ns3:hr>142</ns3:hr>
            <ns3:cad>78</ns3:cad>
          </ns3:TrackPointExtension>
        </extensions>
      </trkpt>
      <trkpt lat="52.29022658430039882659912109375" lon="1.60401354543864727020263671875">
        <ele>-392.600006103515625</ele>
        <time>2025-09-07T10:22:56.000Z</time>
        <extensions>
          <ns3:TrackPointExtension>
            <ns3:hr>145</ns3:hr>
            <ns3:cad>80</ns3:cad>
          </ns3:TrackPointExtension>
        </extensions>
      </trkpt>
      <trkpt lat="52.29025558568537235260009765625" lon="1.60399326123297214508056640625">
        <ele>-393.20001220703125</ele>
        <time>2025-09-07T10:22:58.000Z</time>
        <extensions>
          <ns3:TrackPointExtension>
            <ns3:hr>145</ns3:hr>
            <ns3:cad>80</ns3:cad>
          </ns3:TrackPointExtension>
        </extensions>
      </trkpt>
      <trkpt lat="52.290334291756153106689453125" lon="1.6038686223328113555908203125">
        <ele>-394.20001220703125</ele>
        <time>2025-09-07T10:23:03.000Z</time>
        <extensions>
          <ns3:TrackPointExtension>
            <ns3:hr>147</ns3:hr>
            <ns3:cad>80</ns3:cad>
          </ns3:TrackPointExtension>
        </extensions>
      </trkpt>
      <trkpt lat="52.2904117405414581298828125" lon="1.60380651243031024932861328125">
        <ele>-395.20001220703125</ele>
        <time>2025-09-07T10:23:07.000Z</time>
        <extensions>
          <ns3:TrackPointExtension>
            <ns3:hr>152</ns3:hr>
            <ns3:cad>78</ns3:cad>
          </ns3:TrackPointExtension>
        </extensions>
      </trkpt>
      <trkpt lat="52.29042372666299343109130859375" lon="1.60379595123231410980224609375">
        <ele>-395.399993896484375</ele>
        <time>2025-09-07T10:23:08.000Z</time>
        <extensions>
          <ns3:TrackPointExtension>
            <ns3:hr>153</ns3:hr>
            <ns3:cad>78</ns3:cad>
          </ns3:TrackPointExtension>
        </extensions>
      </trkpt>
      <trkpt lat="52.29044484905898571014404296875" lon="1.60376460291445255279541015625">
        <ele>-395.79998779296875</ele>
        <time>2025-09-07T10:23:10.000Z</time>
        <extensions>
          <ns3:TrackPointExtension>
            <ns3:hr>157</ns3:hr>
            <ns3:cad>74</ns3:cad>
          </ns3:TrackPointExtension>
        </extensions>
      </trkpt>
      <trkpt lat="52.29046362452208995819091796875" lon="1.60375085659325122833251953125">
        <ele>-396.20001220703125</ele>
        <time>2025-09-07T10:23:12.000Z</time>
        <extensions>
          <ns3:TrackPointExtension>
            <ns3:hr>160</ns3:hr>
            <ns3:cad>0</ns3:cad>
          </ns3:TrackPointExtension>
        </extensions>
      </trkpt>
      <trkpt lat="52.2904715873301029205322265625" lon="1.6037418879568576812744140625">
        <ele>-396.399993896484375</ele>
        <time>2025-09-07T10:23:13.000Z</time>
        <extensions>
          <ns3:TrackPointExtension>
            <ns3:hr>161</ns3:hr>
            <ns3:cad>0</ns3:cad>
          </ns3:TrackPointExtension>
        </extensions>
      </trkpt>
      <trkpt lat="52.29052372276782989501953125" lon="1.6036989726126194000244140625">
        <ele>-397.399993896484375</ele>
        <time>2025-09-07T10:23:18.000Z</time>
        <extensions>
          <ns3:TrackPointExtension>
            <ns3:hr>163</ns3:hr>
            <ns3:cad>0</ns3:cad>
          </ns3:TrackPointExtension>
        </extensions>
      </trkpt>
      <trkpt lat="52.2905292548239231109619140625" lon="1.603630073368549346923828125">
        <ele>-398</ele>
        <time>2025-09-07T10:23:20.000Z</time>
        <extensions>
          <ns3:TrackPointExtension>
            <ns3:hr>162</ns3:hr>
            <ns3:cad>0</ns3:cad>
          </ns3:TrackPointExtension>
        </extensions>
      </trkpt>
      <trkpt lat="52.29054107330739498138427734375" lon="1.6035651974380016326904296875">
        <ele>-398.600006103515625</ele>
        <time>2025-09-07T10:23:23.000Z</time>
        <extensions>
          <ns3:TrackPointExtension>
            <ns3:hr>162</ns3:hr>
            <ns3:cad>61</ns3:cad>
          </ns3:TrackPointExtension>
        </extensions>
      </trkpt>
      <trkpt lat="52.2905500419437885284423828125" lon="1.6035492718219757080078125">
        <ele>-398.79998779296875</ele>
        <time>2025-09-07T10:23:24.000Z</time>
        <extensions>
          <ns3:TrackPointExtension>
            <ns3:hr>161</ns3:hr>
            <ns3:cad>61</ns3:cad>
          </ns3:TrackPointExtension>
        </extensions>
      </trkpt>
      <trkpt lat="52.2905565798282623291015625" lon="1.603535525500774383544921875">
        <ele>-399</ele>
        <time>2025-09-07T10:23:25.000Z</time>
        <extensions>
          <ns3:TrackPointExtension>
            <ns3:hr>160</ns3:hr>
            <ns3:cad>58</ns3:cad>
          </ns3:TrackPointExtension>
        </extensions>
      </trkpt>
      <trkpt lat="52.29058985598385334014892578125" lon="1.60350141115486621856689453125">
        <ele>-399.600006103515625</ele>
        <time>2025-09-07T10:23:28.000Z</time>
        <extensions>
          <ns3:TrackPointExtension>
            <ns3:hr>158</ns3:hr>
            <ns3:cad>58</ns3:cad>
          </ns3:TrackPointExtension>
        </extensions>
      </trkpt>
      <trkpt lat="52.29063545353710651397705078125" lon="1.60347810946404933929443359375">
        <ele>-400.600006103515625</ele>
        <time>2025-09-07T10:23:32.000Z</time>
        <extensions>
          <ns3:TrackPointExtension>
            <ns3:hr>155</ns3:hr>
            <ns3:cad>0</ns3:cad>
          </ns3:TrackPointExtension>
        </extensions>
      </trkpt>
      <trkpt lat="52.290638722479343414306640625" lon="1.60347525961697101593017578125">
        <ele>-400.79998779296875</ele>
        <time>2025-09-07T10:23:33.000Z</time>
        <extensions>
          <ns3:TrackPointExtension>
            <ns3:hr>154</ns3:hr>
            <ns3:cad>0</ns3:cad>
          </ns3:TrackPointExtension>
        </extensions>
      </trkpt>
      <trkpt lat="52.29065372608602046966552734375" lon="1.6034190170466899871826171875">
        <ele>-401.79998779296875</ele>
        <time>2025-09-07T10:23:39.000Z</time>
        <extensions>
          <ns3:TrackPointExtension>
            <ns3:hr>152</ns3:hr>
            <ns3:cad>48</ns3:cad>
          </ns3:TrackPointExtension>
        </extensions>
      </trkpt>
      <trkpt lat="52.29067660868167877197265625" lon="1.60337585024535655975341796875">
        <ele>-402.399993896484375</ele>
        <time>2025-09-07T10:23:42.000Z</time>
        <extensions>
          <ns3:TrackPointExtension>
            <ns3:hr>151</ns3:hr>
            <ns3:cad>0</ns3:cad>
          </ns3:TrackPointExtension>
        </extensions>
      </trkpt>
      <trkpt lat="52.29071172885596752166748046875" lon="1.6033065319061279296875">
        <ele>-403</ele>
        <time>2025-09-07T10:23:46.000Z</time>
        <extensions>
          <ns3:TrackPointExtension>
            <ns3:hr>150</ns3:hr>
            <ns3:cad>0</ns3:cad>
          </ns3:TrackPointExtension>
        </extensions>
      </trkpt>
      <trkpt lat="52.29075975716114044189453125" lon="1.60326906479895114898681640625">
        <ele>-403.399993896484375</ele>
        <time>2025-09-07T10:23:50.000Z</time>
        <extensions>
          <ns3:TrackPointExtension>
            <ns3:hr>147</ns3:hr>
            <ns3:cad>78</ns3:cad>
          </ns3:TrackPointExtension>
        </extensions>
      </trkpt>
      <trkpt lat="52.2907689772546291351318359375" lon="1.60326152108609676361083984375">
        <ele>-403.600006103515625</ele>
        <time>2025-09-07T10:23:51.000Z</time>
        <extensions>
          <ns3:TrackPointExtension>
            <ns3:hr>148</ns3:hr>
            <ns3:cad>79</ns3:cad>
          </ns3:TrackPointExtension>
        </extensions>
      </trkpt>
      <trkpt lat="52.2908276505768299102783203125" lon="1.60319630987942218780517578125">
        <ele>-404</ele>
        <time>2025-09-07T10:23:56.000Z</time>
        <extensions>
          <ns3:TrackPointExtension>
            <ns3:hr>149</ns3:hr>
            <ns3:cad>80</ns3:cad>
          </ns3:TrackPointExtension>
        </extensions>
      </trkpt>
      <trkpt lat="52.29085631668567657470703125" lon="1.6031581722199916839599609375">
        <ele>-404.20001220703125</ele>
        <time>2025-09-07T10:23:58.000Z</time>
        <extensions>
          <ns3:TrackPointExtension>
            <ns3:hr>152</ns3:hr>
            <ns3:cad>81</ns3:cad>
          </ns3:TrackPointExtension>
        </extensions>
      </trkpt>
      <trkpt lat="52.290869392454624176025390625" lon="1.60313822329044342041015625">
        <ele>-404.399993896484375</ele>
        <time>2025-09-07T10:23:59.000Z</time>
        <extensions>
          <ns3:TrackPointExtension>
            <ns3:hr>152</ns3:hr>
            <ns3:cad>81</ns3:cad>
          </ns3:TrackPointExtension>
        </extensions>
      </trkpt>
      <trkpt lat="52.2909946180880069732666015625" lon="1.60303437151014804840087890625">
        <ele>-404.79998779296875</ele>
        <time>2025-09-07T10:24:06.000Z</time>
        <extensions>
          <ns3:TrackPointExtension>
            <ns3:hr>155</ns3:hr>
            <ns3:cad>81</ns3:cad>
          </ns3:TrackPointExtension>
        </extensions>
      </trkpt>
      <trkpt lat="52.2911357693374156951904296875" lon="1.602843515574932098388671875">
        <ele>-404.79998779296875</ele>
        <time>2025-09-07T10:24:15.000Z</time>
        <extensions>
          <ns3:TrackPointExtension>
            <ns3:hr>154</ns3:hr>
            <ns3:cad>80</ns3:cad>
          </ns3:TrackPointExtension>
        </extensions>
      </trkpt>
      <trkpt lat="52.29127633385360240936279296875" lon="1.60275810398161411285400390625">
        <ele>-404.399993896484375</ele>
        <time>2025-09-07T10:24:25.000Z</time>
        <extensions>
          <ns3:TrackPointExtension>
            <ns3:hr>153</ns3:hr>
            <ns3:cad>80</ns3:cad>
          </ns3:TrackPointExtension>
        </extensions>
      </trkpt>
      <trkpt lat="52.29136048816144466400146484375" lon="1.602610833942890167236328125">
        <ele>-404.20001220703125</ele>
        <time>2025-09-07T10:24:32.000Z</time>
        <extensions>
          <ns3:TrackPointExtension>
            <ns3:hr>156</ns3:hr>
            <ns3:cad>79</ns3:cad>
          </ns3:TrackPointExtension>
        </extensions>
      </trkpt>
      <trkpt lat="52.291378676891326904296875" lon="1.602595411241054534912109375">
        <ele>-404.20001220703125</ele>
        <time>2025-09-07T10:24:33.000Z</time>
        <extensions>
          <ns3:TrackPointExtension>
            <ns3:hr>152</ns3:hr>
            <ns3:cad>79</ns3:cad>
          </ns3:TrackPointExtension>
        </extensions>
      </trkpt>
      <trkpt lat="52.29153701104223728179931640625" lon="1.60249340347945690155029296875">
        <ele>-403.399993896484375</ele>
        <time>2025-09-07T10:24:42.000Z</time>
        <extensions>
          <ns3:TrackPointExtension>
            <ns3:hr>155</ns3:hr>
            <ns3:cad>79</ns3:cad>
          </ns3:TrackPointExtension>
        </extensions>
      </trkpt>
      <trkpt lat="52.29160289280116558074951171875" lon="1.602439172565937042236328125">
        <ele>-403</ele>
        <time>2025-09-07T10:24:46.000Z</time>
        <extensions>
          <ns3:TrackPointExtension>
            <ns3:hr>151</ns3:hr>
            <ns3:cad>80</ns3:cad>
          </ns3:TrackPointExtension>
        </extensions>
      </trkpt>
      <trkpt lat="52.29161378927528858184814453125" lon="1.60242400132119655609130859375">
        <ele>-403</ele>
        <time>2025-09-07T10:24:47.000Z</time>
        <extensions>
          <ns3:TrackPointExtension>
            <ns3:hr>151</ns3:hr>
            <ns3:cad>80</ns3:cad>
          </ns3:TrackPointExtension>
        </extensions>
      </trkpt>
      <trkpt lat="52.29163843207061290740966796875" lon="1.60237915813922882080078125">
        <ele>-402.79998779296875</ele>
        <time>2025-09-07T10:24:49.000Z</time>
        <extensions>
          <ns3:TrackPointExtension>
            <ns3:hr>147</ns3:hr>
            <ns3:cad>80</ns3:cad>
          </ns3:TrackPointExtension>
        </extensions>
      </trkpt>
      <trkpt lat="52.29165050201117992401123046875" lon="1.60235862247645854949951171875">
        <ele>-402.79998779296875</ele>
        <time>2025-09-07T10:24:50.000Z</time>
        <extensions>
          <ns3:TrackPointExtension>
            <ns3:hr>152</ns3:hr>
            <ns3:cad>80</ns3:cad>
          </ns3:TrackPointExtension>
        </extensions>
      </trkpt>
      <trkpt lat="52.2916909866034984588623046875" lon="1.602334566414356231689453125">
        <ele>-402.600006103515625</ele>
        <time>2025-09-07T10:24:52.000Z</time>
        <extensions>
          <ns3:TrackPointExtension>
            <ns3:hr>150</ns3:hr>
            <ns3:cad>80</ns3:cad>
          </ns3:TrackPointExtension>
        </extensions>
      </trkpt>
      <trkpt lat="52.291804812848567962646484375" lon="1.60220456309616565704345703125">
        <ele>-402.20001220703125</ele>
        <time>2025-09-07T10:25:00.000Z</time>
        <extensions>
          <ns3:TrackPointExtension>
            <ns3:hr>149</ns3:hr>
            <ns3:cad>79</ns3:cad>
          </ns3:TrackPointExtension>
        </extensions>
      </trkpt>
      <trkpt lat="52.29182702489197254180908203125" lon="1.60195813514292240142822265625">
        <ele>-402.20001220703125</ele>
        <time>2025-09-07T10:25:07.000Z</time>
        <extensions>
          <ns3:TrackPointExtension>
            <ns3:hr>148</ns3:hr>
            <ns3:cad>78</ns3:cad>
          </ns3:TrackPointExtension>
        </extensions>
      </trkpt>
      <trkpt lat="52.291814200580120086669921875" lon="1.60193391144275665283203125">
        <ele>-402.20001220703125</ele>
        <time>2025-09-07T10:25:08.000Z</time>
        <extensions>
          <ns3:TrackPointExtension>
            <ns3:hr>151</ns3:hr>
            <ns3:cad>79</ns3:cad>
          </ns3:TrackPointExtension>
        </extensions>
      </trkpt>
      <trkpt lat="52.29181411676108837127685546875" lon="1.601742468774318695068359375">
        <ele>-402.399993896484375</ele>
        <time>2025-09-07T10:25:15.000Z</time>
        <extensions>
          <ns3:TrackPointExtension>
            <ns3:hr>151</ns3:hr>
            <ns3:cad>77</ns3:cad>
          </ns3:TrackPointExtension>
        </extensions>
      </trkpt>
      <trkpt lat="52.2918378375470638275146484375" lon="1.60172469913959503173828125">
        <ele>-402.399993896484375</ele>
        <time>2025-09-07T10:25:17.000Z</time>
        <extensions>
          <ns3:TrackPointExtension>
            <ns3:hr>154</ns3:hr>
            <ns3:cad>77</ns3:cad>
          </ns3:TrackPointExtension>
        </extensions>
      </trkpt>
      <trkpt lat="52.2918502427637577056884765625" lon="1.60170768387615680694580078125">
        <ele>-402.399993896484375</ele>
        <time>2025-09-07T10:25:20.000Z</time>
        <extensions>
          <ns3:TrackPointExtension>
            <ns3:hr>159</ns3:hr>
            <ns3:cad>0</ns3:cad>
          </ns3:TrackPointExtension>
        </extensions>
      </trkpt>
      <trkpt lat="52.29185703210532665252685546875" lon="1.60170181654393672943115234375">
        <ele>-402.20001220703125</ele>
        <time>2025-09-07T10:25:22.000Z</time>
        <extensions>
          <ns3:TrackPointExtension>
            <ns3:hr>162</ns3:hr>
            <ns3:cad>0</ns3:cad>
          </ns3:TrackPointExtension>
        </extensions>
      </trkpt>
      <trkpt lat="52.29187731631100177764892578125" lon="1.6016913391649723052978515625">
        <ele>-402.20001220703125</ele>
        <time>2025-09-07T10:25:27.000Z</time>
        <extensions>
          <ns3:TrackPointExtension>
            <ns3:hr>165</ns3:hr>
            <ns3:cad>0</ns3:cad>
          </ns3:TrackPointExtension>
        </extensions>
      </trkpt>
      <trkpt lat="52.29187647812068462371826171875" lon="1.60168454982340335845947265625">
        <ele>-402.20001220703125</ele>
        <time>2025-09-07T10:25:29.000Z</time>
        <extensions>
          <ns3:TrackPointExtension>
            <ns3:hr>159</ns3:hr>
            <ns3:cad>0</ns3:cad>
          </ns3:TrackPointExtension>
        </extensions>
      </trkpt>
      <trkpt lat="52.2918774001300334930419921875" lon="1.601682119071483612060546875">
        <ele>-402.20001220703125</ele>
        <time>2025-09-07T10:25:30.000Z</time>
        <extensions>
          <ns3:TrackPointExtension>
            <ns3:hr>155</ns3:hr>
            <ns3:cad>0</ns3:cad>
          </ns3:TrackPointExtension>
        </extensions>
      </trkpt>
      <trkpt lat="52.29187530465424060821533203125" lon="1.6016678698360919952392578125">
        <ele>-402.20001220703125</ele>
        <time>2025-09-07T10:25:31.000Z</time>
        <extensions>
          <ns3:TrackPointExtension>
            <ns3:hr>155</ns3:hr>
            <ns3:cad>0</ns3:cad>
          </ns3:TrackPointExtension>
        </extensions>
      </trkpt>
      <trkpt lat="52.2919075749814510345458984375" lon="1.60165152512490749359130859375">
        <ele>-402.20001220703125</ele>
        <time>2025-09-07T10:25:34.000Z</time>
        <extensions>
          <ns3:TrackPointExtension>
            <ns3:hr>151</ns3:hr>
            <ns3:cad>0</ns3:cad>
          </ns3:TrackPointExtension>
        </extensions>
      </trkpt>
      <trkpt lat="52.29193297214806079864501953125" lon="1.60163258202373981475830078125">
        <ele>-402.20001220703125</ele>
        <time>2025-09-07T10:25:36.000Z</time>
        <extensions>
          <ns3:TrackPointExtension>
            <ns3:hr>147</ns3:hr>
            <ns3:cad>54</ns3:cad>
          </ns3:TrackPointExtension>
        </extensions>
      </trkpt>
      <trkpt lat="52.291963733732700347900390625" lon="1.601619422435760498046875">
        <ele>-402.20001220703125</ele>
        <time>2025-09-07T10:25:38.000Z</time>
        <extensions>
          <ns3:TrackPointExtension>
            <ns3:hr>144</ns3:hr>
            <ns3:cad>56</ns3:cad>
          </ns3:TrackPointExtension>
        </extensions>
      </trkpt>
      <trkpt lat="52.2920202277600765228271484375" lon="1.60154205746948719024658203125">
        <ele>-402.399993896484375</ele>
        <time>2025-09-07T10:25:43.000Z</time>
        <extensions>
          <ns3:TrackPointExtension>
            <ns3:hr>141</ns3:hr>
            <ns3:cad>59</ns3:cad>
          </ns3:TrackPointExtension>
        </extensions>
      </trkpt>
      <trkpt lat="52.292028777301311492919921875" lon="1.601519174873828887939453125">
        <ele>-402.600006103515625</ele>
        <time>2025-09-07T10:25:44.000Z</time>
        <extensions>
          <ns3:TrackPointExtension>
            <ns3:hr>141</ns3:hr>
            <ns3:cad>59</ns3:cad>
          </ns3:TrackPointExtension>
        </extensions>
      </trkpt>
      <trkpt lat="52.29212097823619842529296875" lon="1.60134055651724338531494140625">
        <ele>-403.20001220703125</ele>
        <time>2025-09-07T10:25:52.000Z</time>
        <extensions>
          <ns3:TrackPointExtension>
            <ns3:hr>140</ns3:hr>
            <ns3:cad>79</ns3:cad>
          </ns3:TrackPointExtension>
        </extensions>
      </trkpt>
      <trkpt lat="52.292236648499965667724609375" lon="1.60128775052726268768310546875">
        <ele>-403.600006103515625</ele>
        <time>2025-09-07T10:25:59.000Z</time>
        <extensions>
          <ns3:TrackPointExtension>
            <ns3:hr>143</ns3:hr>
            <ns3:cad>80</ns3:cad>
          </ns3:TrackPointExtension>
        </extensions>
      </trkpt>
      <trkpt lat="52.29228400625288486480712890625" lon="1.601292192935943603515625">
        <ele>-403.600006103515625</ele>
        <time>2025-09-07T10:26:02.000Z</time>
        <extensions>
          <ns3:TrackPointExtension>
            <ns3:hr>146</ns3:hr>
            <ns3:cad>80</ns3:cad>
          </ns3:TrackPointExtension>
        </extensions>
      </trkpt>
      <trkpt lat="52.29234158992767333984375" lon="1.6013014130294322967529296875">
        <ele>-403.600006103515625</ele>
        <time>2025-09-07T10:26:05.000Z</time>
        <extensions>
          <ns3:TrackPointExtension>
            <ns3:hr>142</ns3:hr>
            <ns3:cad>81</ns3:cad>
          </ns3:TrackPointExtension>
        </extensions>
      </trkpt>
      <trkpt lat="52.29238928295671939849853515625" lon="1.60130987875163555145263671875">
        <ele>-403.600006103515625</ele>
        <time>2025-09-07T10:26:07.000Z</time>
        <extensions>
          <ns3:TrackPointExtension>
            <ns3:hr>137</ns3:hr>
            <ns3:cad>81</ns3:cad>
          </ns3:TrackPointExtension>
        </extensions>
      </trkpt>
      <trkpt lat="52.2924121655523777008056640625" lon="1.60131121985614299774169921875">
        <ele>-403.600006103515625</ele>
        <time>2025-09-07T10:26:08.000Z</time>
        <extensions>
          <ns3:TrackPointExtension>
            <ns3:hr>135</ns3:hr>
            <ns3:cad>80</ns3:cad>
          </ns3:TrackPointExtension>
        </extensions>
      </trkpt>
      <trkpt lat="52.292526327073574066162109375" lon="1.60122287459671497344970703125">
        <ele>-403</ele>
        <time>2025-09-07T10:26:15.000Z</time>
        <extensions>
          <ns3:TrackPointExtension>
            <ns3:hr>135</ns3:hr>
            <ns3:cad>81</ns3:cad>
          </ns3:TrackPointExtension>
        </extensions>
      </trkpt>
      <trkpt lat="52.292684577405452728271484375" lon="1.60112648271024227142333984375">
        <ele>-402.399993896484375</ele>
        <time>2025-09-07T10:26:22.000Z</time>
        <extensions>
          <ns3:TrackPointExtension>
            <ns3:hr>138</ns3:hr>
            <ns3:cad>80</ns3:cad>
          </ns3:TrackPointExtension>
        </extensions>
      </trkpt>
      <trkpt lat="52.29277099482715129852294921875" lon="1.60108901560306549072265625">
        <ele>-402.20001220703125</ele>
        <time>2025-09-07T10:26:26.000Z</time>
        <extensions>
          <ns3:TrackPointExtension>
            <ns3:hr>141</ns3:hr>
            <ns3:cad>81</ns3:cad>
          </ns3:TrackPointExtension>
        </extensions>
      </trkpt>
      <trkpt lat="52.29281692765653133392333984375" lon="1.60104551352560520172119140625">
        <ele>-402</ele>
        <time>2025-09-07T10:26:29.000Z</time>
        <extensions>
          <ns3:TrackPointExtension>
            <ns3:hr>144</ns3:hr>
            <ns3:cad>81</ns3:cad>
          </ns3:TrackPointExtension>
        </extensions>
      </trkpt>
      <trkpt lat="52.2929356992244720458984375" lon="1.600996144115924835205078125">
        <ele>-402</ele>
        <time>2025-09-07T10:26:37.000Z</time>
        <extensions>
          <ns3:TrackPointExtension>
            <ns3:hr>143</ns3:hr>
            <ns3:cad>0</ns3:cad>
          </ns3:TrackPointExtension>
        </extensions>
      </trkpt>
      <trkpt lat="52.29307073168456554412841796875" lon="1.60092766396701335906982421875">
        <ele>-402.399993896484375</ele>
        <time>2025-09-07T10:26:45.000Z</time>
        <extensions>
          <ns3:TrackPointExtension>
            <ns3:hr>145</ns3:hr>
            <ns3:cad>77</ns3:cad>
          </ns3:TrackPointExtension>
        </extensions>
      </trkpt>
      <trkpt lat="52.293190844357013702392578125" lon="1.60084015689790248870849609375">
        <ele>-403</ele>
        <time>2025-09-07T10:26:52.000Z</time>
        <extensions>
          <ns3:TrackPointExtension>
            <ns3:hr>143</ns3:hr>
            <ns3:cad>78</ns3:cad>
          </ns3:TrackPointExtension>
        </extensions>
      </trkpt>
      <trkpt lat="52.293373905122280120849609375" lon="1.6008397378027439117431640625">
        <ele>-403.79998779296875</ele>
        <time>2025-09-07T10:26:59.000Z</time>
        <extensions>
          <ns3:TrackPointExtension>
            <ns3:hr>144</ns3:hr>
            <ns3:cad>79</ns3:cad>
          </ns3:TrackPointExtension>
        </extensions>
      </trkpt>
      <trkpt lat="52.29339368641376495361328125" lon="1.600841917097568511962890625">
        <ele>-404</ele>
        <time>2025-09-07T10:27:00.000Z</time>
        <extensions>
          <ns3:TrackPointExtension>
            <ns3:hr>145</ns3:hr>
            <ns3:cad>79</ns3:cad>
          </ns3:TrackPointExtension>
        </extensions>
      </trkpt>
      <trkpt lat="52.2934091091156005859375" lon="1.60083697177469730377197265625">
        <ele>-404</ele>
        <time>2025-09-07T10:27:01.000Z</time>
        <extensions>
          <ns3:TrackPointExtension>
            <ns3:hr>145</ns3:hr>
            <ns3:cad>79</ns3:cad>
          </ns3:TrackPointExtension>
        </extensions>
      </trkpt>
      <trkpt lat="52.293563000857830047607421875" lon="1.6008266620337963104248046875">
        <ele>-405</ele>
        <time>2025-09-07T10:27:09.000Z</time>
        <extensions>
          <ns3:TrackPointExtension>
            <ns3:hr>147</ns3:hr>
            <ns3:cad>80</ns3:cad>
          </ns3:TrackPointExtension>
        </extensions>
      </trkpt>
      <trkpt lat="52.2935863025486469268798828125" lon="1.6008281707763671875">
        <ele>-405.20001220703125</ele>
        <time>2025-09-07T10:27:10.000Z</time>
        <extensions>
          <ns3:TrackPointExtension>
            <ns3:hr>146</ns3:hr>
            <ns3:cad>80</ns3:cad>
          </ns3:TrackPointExtension>
        </extensions>
      </trkpt>
      <trkpt lat="52.29364271275699138641357421875" lon="1.6008253209292888641357421875">
        <ele>-405.399993896484375</ele>
        <time>2025-09-07T10:27:13.000Z</time>
        <extensions>
          <ns3:TrackPointExtension>
            <ns3:hr>149</ns3:hr>
            <ns3:cad>80</ns3:cad>
          </ns3:TrackPointExtension>
        </extensions>
      </trkpt>
      <trkpt lat="52.2937589697539806365966796875" lon="1.6007569245994091033935546875">
        <ele>-406</ele>
        <time>2025-09-07T10:27:20.000Z</time>
        <extensions>
          <ns3:TrackPointExtension>
            <ns3:hr>148</ns3:hr>
            <ns3:cad>80</ns3:cad>
          </ns3:TrackPointExtension>
        </extensions>
      </trkpt>
      <trkpt lat="52.29388645850121974945068359375" lon="1.6006798110902309417724609375">
        <ele>-406.20001220703125</ele>
        <time>2025-09-07T10:27:27.000Z</time>
        <extensions>
          <ns3:TrackPointExtension>
            <ns3:hr>151</ns3:hr>
            <ns3:cad>81</ns3:cad>
          </ns3:TrackPointExtension>
        </extensions>
      </trkpt>
      <trkpt lat="52.29390406049787998199462890625" lon="1.60066120326519012451171875">
        <ele>-406.20001220703125</ele>
        <time>2025-09-07T10:27:28.000Z</time>
        <extensions>
          <ns3:TrackPointExtension>
            <ns3:hr>150</ns3:hr>
            <ns3:cad>81</ns3:cad>
          </ns3:TrackPointExtension>
        </extensions>
      </trkpt>
      <trkpt lat="52.2940640710294246673583984375" lon="1.60056573338806629180908203125">
        <ele>-406.399993896484375</ele>
        <time>2025-09-07T10:27:37.000Z</time>
        <extensions>
          <ns3:TrackPointExtension>
            <ns3:hr>150</ns3:hr>
            <ns3:cad>80</ns3:cad>
          </ns3:TrackPointExtension>
        </extensions>
      </trkpt>
      <trkpt lat="52.29422257281839847564697265625" lon="1.60043380223214626312255859375">
        <ele>-406.399993896484375</ele>
        <time>2025-09-07T10:27:45.000Z</time>
        <extensions>
          <ns3:TrackPointExtension>
            <ns3:hr>149</ns3:hr>
            <ns3:cad>81</ns3:cad>
          </ns3:TrackPointExtension>
        </extensions>
      </trkpt>
      <trkpt lat="52.29439926333725452423095703125" lon="1.600277982652187347412109375">
        <ele>-406.399993896484375</ele>
        <time>2025-09-07T10:27:54.000Z</time>
        <extensions>
          <ns3:TrackPointExtension>
            <ns3:hr>150</ns3:hr>
            <ns3:cad>81</ns3:cad>
          </ns3:TrackPointExtension>
        </extensions>
      </trkpt>
      <trkpt lat="52.29450948536396026611328125" lon="1.60013305954635143280029296875">
        <ele>-406.20001220703125</ele>
        <time>2025-09-07T10:28:00.000Z</time>
        <extensions>
          <ns3:TrackPointExtension>
            <ns3:hr>147</ns3:hr>
            <ns3:cad>82</ns3:cad>
          </ns3:TrackPointExtension>
        </extensions>
      </trkpt>
      <trkpt lat="52.294538319110870361328125" lon="1.60009182058274745941162109375">
        <ele>-406.20001220703125</ele>
        <time>2025-09-07T10:28:03.000Z</time>
        <extensions>
          <ns3:TrackPointExtension>
            <ns3:hr>149</ns3:hr>
            <ns3:cad>82</ns3:cad>
          </ns3:TrackPointExtension>
        </extensions>
      </trkpt>
      <trkpt lat="52.2947140038013458251953125" lon="1.59994077868759632110595703125">
        <ele>-406.399993896484375</ele>
        <time>2025-09-07T10:28:13.000Z</time>
        <extensions>
          <ns3:TrackPointExtension>
            <ns3:hr>149</ns3:hr>
            <ns3:cad>82</ns3:cad>
          </ns3:TrackPointExtension>
        </extensions>
      </trkpt>
      <trkpt lat="52.29481936432421207427978515625" lon="1.59983952529728412628173828125">
        <ele>-406.600006103515625</ele>
        <time>2025-09-07T10:28:21.000Z</time>
        <extensions>
          <ns3:TrackPointExtension>
            <ns3:hr>146</ns3:hr>
            <ns3:cad>81</ns3:cad>
          </ns3:TrackPointExtension>
        </extensions>
      </trkpt>
      <trkpt lat="52.2948368825018405914306640625" lon="1.59982879646122455596923828125">
        <ele>-406.600006103515625</ele>
        <time>2025-09-07T10:28:22.000Z</time>
        <extensions>
          <ns3:TrackPointExtension>
            <ns3:hr>147</ns3:hr>
            <ns3:cad>81</ns3:cad>
          </ns3:TrackPointExtension>
        </extensions>
      </trkpt>
      <trkpt lat="52.29499471373856067657470703125" lon="1.59973793663084506988525390625">
        <ele>-406.79998779296875</ele>
        <time>2025-09-07T10:28:29.000Z</time>
        <extensions>
          <ns3:TrackPointExtension>
            <ns3:hr>146</ns3:hr>
            <ns3:cad>81</ns3:cad>
          </ns3:TrackPointExtension>
        </extensions>
      </trkpt>
      <trkpt lat="52.29511776007711887359619140625" lon="1.59961606375873088836669921875">
        <ele>-406.79998779296875</ele>
        <time>2025-09-07T10:28:36.000Z</time>
        <extensions>
          <ns3:TrackPointExtension>
            <ns3:hr>145</ns3:hr>
            <ns3:cad>80</ns3:cad>
          </ns3:TrackPointExtension>
        </extensions>
      </trkpt>
      <trkpt lat="52.29517039842903614044189453125" lon="1.59954808652400970458984375">
        <ele>-406.79998779296875</ele>
        <time>2025-09-07T10:28:38.000Z</time>
        <extensions>
          <ns3:TrackPointExtension>
            <ns3:hr>148</ns3:hr>
            <ns3:cad>79</ns3:cad>
          </ns3:TrackPointExtension>
        </extensions>
      </trkpt>
      <trkpt lat="52.2953176684677600860595703125" lon="1.59935220144689083099365234375">
        <ele>-407</ele>
        <time>2025-09-07T10:28:46.000Z</time>
        <extensions>
          <ns3:TrackPointExtension>
            <ns3:hr>151</ns3:hr>
            <ns3:cad>81</ns3:cad>
          </ns3:TrackPointExtension>
        </extensions>
      </trkpt>
      <trkpt lat="52.29533133096992969512939453125" lon="1.59932856447994709014892578125">
        <ele>-407</ele>
        <time>2025-09-07T10:28:47.000Z</time>
        <extensions>
          <ns3:TrackPointExtension>
            <ns3:hr>151</ns3:hr>
            <ns3:cad>80</ns3:cad>
          </ns3:TrackPointExtension>
        </extensions>
      </trkpt>
      <trkpt lat="52.29543543420732021331787109375" lon="1.5992297418415546417236328125">
        <ele>-407.20001220703125</ele>
        <time>2025-09-07T10:28:52.000Z</time>
        <extensions>
          <ns3:TrackPointExtension>
            <ns3:hr>151</ns3:hr>
            <ns3:cad>81</ns3:cad>
          </ns3:TrackPointExtension>
        </extensions>
      </trkpt>
      <trkpt lat="52.2955084405839443206787109375" lon="1.599140055477619171142578125">
        <ele>-407.399993896484375</ele>
        <time>2025-09-07T10:28:56.000Z</time>
        <extensions>
          <ns3:TrackPointExtension>
            <ns3:hr>150</ns3:hr>
            <ns3:cad>80</ns3:cad>
          </ns3:TrackPointExtension>
        </extensions>
      </trkpt>
      <trkpt lat="52.29563659988343715667724609375" lon="1.59904114902019500732421875">
        <ele>-408</ele>
        <time>2025-09-07T10:29:02.000Z</time>
        <extensions>
          <ns3:TrackPointExtension>
            <ns3:hr>147</ns3:hr>
            <ns3:cad>80</ns3:cad>
          </ns3:TrackPointExtension>
        </extensions>
      </trkpt>
      <trkpt lat="52.29565319605171680450439453125" lon="1.5990218706429004669189453125">
        <ele>-408.20001220703125</ele>
        <time>2025-09-07T10:29:03.000Z</time>
        <extensions>
          <ns3:TrackPointExtension>
            <ns3:hr>148</ns3:hr>
            <ns3:cad>81</ns3:cad>
          </ns3:TrackPointExtension>
        </extensions>
      </trkpt>
      <trkpt lat="52.29569510556757450103759765625" lon="1.59898373298346996307373046875">
        <ele>-408.600006103515625</ele>
        <time>2025-09-07T10:29:05.000Z</time>
        <extensions>
          <ns3:TrackPointExtension>
            <ns3:hr>149</ns3:hr>
            <ns3:cad>81</ns3:cad>
          </ns3:TrackPointExtension>
        </extensions>
      </trkpt>
      <trkpt lat="52.2957706265151500701904296875" lon="1.5989186055958271026611328125">
        <ele>-409.20001220703125</ele>
        <time>2025-09-07T10:29:09.000Z</time>
        <extensions>
          <ns3:TrackPointExtension>
            <ns3:hr>148</ns3:hr>
            <ns3:cad>81</ns3:cad>
          </ns3:TrackPointExtension>
        </extensions>
      </trkpt>
      <trkpt lat="52.29587263427674770355224609375" lon="1.59880385734140872955322265625">
        <ele>-410.20001220703125</ele>
        <time>2025-09-07T10:29:15.000Z</time>
        <extensions>
          <ns3:TrackPointExtension>
            <ns3:hr>147</ns3:hr>
            <ns3:cad>81</ns3:cad>
          </ns3:TrackPointExtension>
        </extensions>
      </trkpt>
      <trkpt lat="52.29595762677490711212158203125" lon="1.598686091601848602294921875">
        <ele>-411.20001220703125</ele>
        <time>2025-09-07T10:29:21.000Z</time>
        <extensions>
          <ns3:TrackPointExtension>
            <ns3:hr>146</ns3:hr>
            <ns3:cad>81</ns3:cad>
          </ns3:TrackPointExtension>
        </extensions>
      </trkpt>
      <trkpt lat="52.295974306762218475341796875" lon="1.59867175854742527008056640625">
        <ele>-411.399993896484375</ele>
        <time>2025-09-07T10:29:22.000Z</time>
        <extensions>
          <ns3:TrackPointExtension>
            <ns3:hr>149</ns3:hr>
            <ns3:cad>81</ns3:cad>
          </ns3:TrackPointExtension>
        </extensions>
      </trkpt>
      <trkpt lat="52.29599475860595703125" lon="1.59865893423557281494140625">
        <ele>-411.600006103515625</ele>
        <time>2025-09-07T10:29:23.000Z</time>
        <extensions>
          <ns3:TrackPointExtension>
            <ns3:hr>149</ns3:hr>
            <ns3:cad>81</ns3:cad>
          </ns3:TrackPointExtension>
        </extensions>
      </trkpt>
      <trkpt lat="52.29606642387807369232177734375" lon="1.59859581850469112396240234375">
        <ele>-412.399993896484375</ele>
        <time>2025-09-07T10:29:27.000Z</time>
        <extensions>
          <ns3:TrackPointExtension>
            <ns3:hr>148</ns3:hr>
            <ns3:cad>81</ns3:cad>
          </ns3:TrackPointExtension>
        </extensions>
      </trkpt>
      <trkpt lat="52.29613163508474826812744140625" lon="1.59854720346629619598388671875">
        <ele>-413.20001220703125</ele>
        <time>2025-09-07T10:29:31.000Z</time>
        <extensions>
          <ns3:TrackPointExtension>
            <ns3:hr>149</ns3:hr>
            <ns3:cad>81</ns3:cad>
          </ns3:TrackPointExtension>
        </extensions>
      </trkpt>
      <trkpt lat="52.29616600088775157928466796875" lon="1.5985266678035259246826171875">
        <ele>-413.600006103515625</ele>
        <time>2025-09-07T10:29:33.000Z</time>
        <extensions>
          <ns3:TrackPointExtension>
            <ns3:hr>147</ns3:hr>
            <ns3:cad>81</ns3:cad>
          </ns3:TrackPointExtension>
        </extensions>
      </trkpt>
      <trkpt lat="52.296254932880401611328125" lon="1.59844595007598400115966796875">
        <ele>-414.399993896484375</ele>
        <time>2025-09-07T10:29:38.000Z</time>
        <extensions>
          <ns3:TrackPointExtension>
            <ns3:hr>146</ns3:hr>
            <ns3:cad>81</ns3:cad>
          </ns3:TrackPointExtension>
        </extensions>
      </trkpt>
      <trkpt lat="52.2962723672389984130859375" lon="1.5984284318983554840087890625">
        <ele>-414.600006103515625</ele>
        <time>2025-09-07T10:29:39.000Z</time>
        <extensions>
          <ns3:TrackPointExtension>
            <ns3:hr>147</ns3:hr>
            <ns3:cad>81</ns3:cad>
          </ns3:TrackPointExtension>
        </extensions>
      </trkpt>
      <trkpt lat="52.29638309217989444732666015625" lon="1.5983452834188938140869140625">
        <ele>-415.79998779296875</ele>
        <time>2025-09-07T10:29:45.000Z</time>
        <extensions>
          <ns3:TrackPointExtension>
            <ns3:hr>146</ns3:hr>
            <ns3:cad>81</ns3:cad>
          </ns3:TrackPointExtension>
        </extensions>
      </trkpt>
      <trkpt lat="52.29640572331845760345458984375" lon="1.59833380021154880523681640625">
        <ele>-416</ele>
        <time>2025-09-07T10:29:46.000Z</time>
        <extensions>
          <ns3:TrackPointExtension>
            <ns3:hr>147</ns3:hr>
            <ns3:cad>81</ns3:cad>
          </ns3:TrackPointExtension>
        </extensions>
      </trkpt>
      <trkpt lat="52.29651602916419506072998046875" lon="1.59827277995645999908447265625">
        <ele>-416.79998779296875</ele>
        <time>2025-09-07T10:29:51.000Z</time>
        <extensions>
          <ns3:TrackPointExtension>
            <ns3:hr>144</ns3:hr>
            <ns3:cad>79</ns3:cad>
          </ns3:TrackPointExtension>
        </extensions>
      </trkpt>
      <trkpt lat="52.2965888679027557373046875" lon="1.5982170403003692626953125">
        <ele>-417.399993896484375</ele>
        <time>2025-09-07T10:29:55.000Z</time>
        <extensions>
          <ns3:TrackPointExtension>
            <ns3:hr>147</ns3:hr>
            <ns3:cad>80</ns3:cad>
          </ns3:TrackPointExtension>
        </extensions>
      </trkpt>
      <trkpt lat="52.29662834666669368743896484375" lon="1.5981991030275821685791015625">
        <ele>-417.79998779296875</ele>
        <time>2025-09-07T10:29:57.000Z</time>
        <extensions>
          <ns3:TrackPointExtension>
            <ns3:hr>149</ns3:hr>
            <ns3:cad>80</ns3:cad>
          </ns3:TrackPointExtension>
        </extensions>
      </trkpt>
      <trkpt lat="52.29672792367637157440185546875" lon="1.5981105901300907135009765625">
        <ele>-419</ele>
        <time>2025-09-07T10:30:03.000Z</time>
        <extensions>
          <ns3:TrackPointExtension>
            <ns3:hr>148</ns3:hr>
            <ns3:cad>80</ns3:cad>
          </ns3:TrackPointExtension>
        </extensions>
      </trkpt>
      <trkpt lat="52.29674778878688812255859375" lon="1.59810480661690235137939453125">
        <ele>-420.20001220703125</ele>
        <time>2025-09-07T10:30:08.000Z</time>
        <extensions>
          <ns3:TrackPointExtension>
            <ns3:hr>146</ns3:hr>
            <ns3:cad>0</ns3:cad>
          </ns3:TrackPointExtension>
        </extensions>
      </trkpt>
      <trkpt lat="52.2967519797384738922119140625" lon="1.5981082431972026824951171875">
        <ele>-420.399993896484375</ele>
        <time>2025-09-07T10:30:09.000Z</time>
        <extensions>
          <ns3:TrackPointExtension>
            <ns3:hr>146</ns3:hr>
            <ns3:cad>0</ns3:cad>
          </ns3:TrackPointExtension>
        </extensions>
      </trkpt>
      <trkpt lat="52.2967553324997425079345703125" lon="1.59808804281055927276611328125">
        <ele>-421.20001220703125</ele>
        <time>2025-09-07T10:30:13.000Z</time>
        <extensions>
          <ns3:TrackPointExtension>
            <ns3:hr>146</ns3:hr>
            <ns3:cad>0</ns3:cad>
          </ns3:TrackPointExtension>
        </extensions>
      </trkpt>
      <trkpt lat="52.2967586852610111236572265625" lon="1.5980804152786731719970703125">
        <ele>-422.20001220703125</ele>
        <time>2025-09-07T10:30:17.000Z</time>
        <extensions>
          <ns3:TrackPointExtension>
            <ns3:hr>141</ns3:hr>
            <ns3:cad>0</ns3:cad>
          </ns3:TrackPointExtension>
        </extensions>
      </trkpt>
      <trkpt lat="52.2967556677758693695068359375" lon="1.59807287156581878662109375">
        <ele>-422.399993896484375</ele>
        <time>2025-09-07T10:30:18.000Z</time>
        <extensions>
          <ns3:TrackPointExtension>
            <ns3:hr>141</ns3:hr>
            <ns3:cad>0</ns3:cad>
          </ns3:TrackPointExtension>
        </extensions>
      </trkpt>
      <trkpt lat="52.29675340466201305389404296875" lon="1.59806004725396633148193359375">
        <ele>-422.79998779296875</ele>
        <time>2025-09-07T10:30:20.000Z</time>
        <extensions>
          <ns3:TrackPointExtension>
            <ns3:hr>135</ns3:hr>
            <ns3:cad>0</ns3:cad>
          </ns3:TrackPointExtension>
        </extensions>
      </trkpt>
      <trkpt lat="52.29674653150141239166259765625" lon="1.59803775139153003692626953125">
        <ele>-423.399993896484375</ele>
        <time>2025-09-07T10:30:23.000Z</time>
        <extensions>
          <ns3:TrackPointExtension>
            <ns3:hr>133</ns3:hr>
            <ns3:cad>0</ns3:cad>
          </ns3:TrackPointExtension>
        </extensions>
      </trkpt>
      <trkpt lat="52.296727336943149566650390625" lon="1.59802534617483615875244140625">
        <ele>-424.399993896484375</ele>
        <time>2025-09-07T10:30:27.000Z</time>
        <extensions>
          <ns3:TrackPointExtension>
            <ns3:hr>133</ns3:hr>
            <ns3:cad>0</ns3:cad>
          </ns3:TrackPointExtension>
        </extensions>
      </trkpt>
      <trkpt lat="52.2967251576483249664306640625" lon="1.5980244241654872894287109375">
        <ele>-424.600006103515625</ele>
        <time>2025-09-07T10:30:28.000Z</time>
        <extensions>
          <ns3:TrackPointExtension>
            <ns3:hr>133</ns3:hr>
            <ns3:cad>0</ns3:cad>
          </ns3:TrackPointExtension>
        </extensions>
      </trkpt>
      <trkpt lat="52.2967251576483249664306640625" lon="1.59802115522325038909912109375">
        <ele>-425.79998779296875</ele>
        <time>2025-09-07T10:30:33.000Z</time>
        <extensions>
          <ns3:TrackPointExtension>
            <ns3:hr>132</ns3:hr>
            <ns3:cad>0</ns3:cad>
          </ns3:TrackPointExtension>
        </extensions>
      </trkpt>
      <trkpt lat="52.296721637248992919921875" lon="1.597995422780513763427734375">
        <ele>-426.79998779296875</ele>
        <time>2025-09-07T10:30:37.000Z</time>
        <extensions>
          <ns3:TrackPointExtension>
            <ns3:hr>131</ns3:hr>
            <ns3:cad>0</ns3:cad>
          </ns3:TrackPointExtension>
        </extensions>
      </trkpt>
      <trkpt lat="52.29671736247837543487548828125" lon="1.59797840751707553863525390625">
        <ele>-428</ele>
        <time>2025-09-07T10:30:41.000Z</time>
        <extensions>
          <ns3:TrackPointExtension>
            <ns3:hr>131</ns3:hr>
            <ns3:cad>0</ns3:cad>
          </ns3:TrackPointExtension>
        </extensions>
      </trkpt>
      <trkpt lat="52.29671292006969451904296875" lon="1.597966253757476806640625">
        <ele>-429.20001220703125</ele>
        <time>2025-09-07T10:30:45.000Z</time>
        <extensions>
          <ns3:TrackPointExtension>
            <ns3:hr>131</ns3:hr>
            <ns3:cad>0</ns3:cad>
          </ns3:TrackPointExtension>
        </extensions>
      </trkpt>
      <trkpt lat="52.2967077232897281646728515625" lon="1.59795627929270267486572265625">
        <ele>-430.20001220703125</ele>
        <time>2025-09-07T10:30:48.000Z</time>
        <extensions>
          <ns3:TrackPointExtension>
            <ns3:hr>129</ns3:hr>
            <ns3:cad>0</ns3:cad>
          </ns3:TrackPointExtension>
        </extensions>
      </trkpt>
      <trkpt lat="52.29671937413513660430908203125" lon="1.59794521518051624298095703125">
        <ele>-431.399993896484375</ele>
        <time>2025-09-07T10:30:51.000Z</time>
        <extensions>
          <ns3:TrackPointExtension>
            <ns3:hr>128</ns3:hr>
            <ns3:cad>0</ns3:cad>
          </ns3:TrackPointExtension>
        </extensions>
      </trkpt>
      <trkpt lat="52.2967248223721981048583984375" lon="1.5979419462382793426513671875">
        <ele>-432.399993896484375</ele>
        <time>2025-09-07T10:30:54.000Z</time>
        <extensions>
          <ns3:TrackPointExtension>
            <ns3:hr>123</ns3:hr>
            <ns3:cad>0</ns3:cad>
          </ns3:TrackPointExtension>
        </extensions>
      </trkpt>
      <trkpt lat="52.29672557674348354339599609375" lon="1.5979402698576450347900390625">
        <ele>-432.79998779296875</ele>
        <time>2025-09-07T10:30:55.000Z</time>
        <extensions>
          <ns3:TrackPointExtension>
            <ns3:hr>119</ns3:hr>
            <ns3:cad>0</ns3:cad>
          </ns3:TrackPointExtension>
        </extensions>
      </trkpt>
      <trkpt lat="52.29671937413513660430908203125" lon="1.59793532453477382659912109375">
        <ele>-433.20001220703125</ele>
        <time>2025-09-07T10:30:56.000Z</time>
        <extensions>
          <ns3:TrackPointExtension>
            <ns3:hr>117</ns3:hr>
            <ns3:cad>0</ns3:cad>
          </ns3:TrackPointExtension>
        </extensions>
      </trkpt>
      <trkpt lat="52.29671115987002849578857421875" lon="1.59792375750839710235595703125">
        <ele>-433.600006103515625</ele>
        <time>2025-09-07T10:30:57.000Z</time>
        <extensions>
          <ns3:TrackPointExtension>
            <ns3:hr>116</ns3:hr>
            <ns3:cad>0</ns3:cad>
          </ns3:TrackPointExtension>
        </extensions>
      </trkpt>
      <trkpt lat="52.29670160450041294097900390625" lon="1.5978795848786830902099609375">
        <ele>-434.79998779296875</ele>
        <time>2025-09-07T10:31:00.000Z</time>
        <extensions>
          <ns3:TrackPointExtension>
            <ns3:hr>114</ns3:hr>
            <ns3:cad>0</ns3:cad>
          </ns3:TrackPointExtension>
        </extensions>
      </trkpt>
      <trkpt lat="52.296698503196239471435546875" lon="1.5978510864078998565673828125">
        <ele>-435.600006103515625</ele>
        <time>2025-09-07T10:31:02.000Z</time>
        <extensions>
          <ns3:TrackPointExtension>
            <ns3:hr>114</ns3:hr>
            <ns3:cad>65</ns3:cad>
          </ns3:TrackPointExtension>
        </extensions>
      </trkpt>
      <trkpt lat="52.2967033647000789642333984375" lon="1.597829125821590423583984375">
        <ele>-436</ele>
        <time>2025-09-07T10:31:03.000Z</time>
        <extensions>
          <ns3:TrackPointExtension>
            <ns3:hr>113</ns3:hr>
            <ns3:cad>0</ns3:cad>
          </ns3:TrackPointExtension>
        </extensions>
      </trkpt>
      <trkpt lat="52.29672205634415149688720703125" lon="1.5977629087865352630615234375">
        <ele>-437.20001220703125</ele>
        <time>2025-09-07T10:31:06.000Z</time>
        <extensions>
          <ns3:TrackPointExtension>
            <ns3:hr>115</ns3:hr>
            <ns3:cad>80</ns3:cad>
          </ns3:TrackPointExtension>
        </extensions>
      </trkpt>
      <trkpt lat="52.29673295281827449798583984375" lon="1.59768906421959400177001953125">
        <ele>-438.399993896484375</ele>
        <time>2025-09-07T10:31:09.000Z</time>
        <extensions>
          <ns3:TrackPointExtension>
            <ns3:hr>118</ns3:hr>
            <ns3:cad>80</ns3:cad>
          </ns3:TrackPointExtension>
        </extensions>
      </trkpt>
      <trkpt lat="52.29673882015049457550048828125" lon="1.59763592295348644256591796875">
        <ele>-439</ele>
        <time>2025-09-07T10:31:11.000Z</time>
        <extensions>
          <ns3:TrackPointExtension>
            <ns3:hr>121</ns3:hr>
            <ns3:cad>82</ns3:cad>
          </ns3:TrackPointExtension>
        </extensions>
      </trkpt>
      <trkpt lat="52.29673747904598712921142578125" lon="1.5976081788539886474609375">
        <ele>-439.399993896484375</ele>
        <time>2025-09-07T10:31:12.000Z</time>
        <extensions>
          <ns3:TrackPointExtension>
            <ns3:hr>123</ns3:hr>
            <ns3:cad>82</ns3:cad>
          </ns3:TrackPointExtension>
        </extensions>
      </trkpt>
      <trkpt lat="52.2967395745217800140380859375" lon="1.5975518524646759033203125">
        <ele>-440.20001220703125</ele>
        <time>2025-09-07T10:31:14.000Z</time>
        <extensions>
          <ns3:TrackPointExtension>
            <ns3:hr>126</ns3:hr>
            <ns3:cad>82</ns3:cad>
          </ns3:TrackPointExtension>
        </extensions>
      </trkpt>
      <trkpt lat="52.29674108326435089111328125" lon="1.59752176143229007720947265625">
        <ele>-440.600006103515625</ele>
        <time>2025-09-07T10:31:15.000Z</time>
        <extensions>
          <ns3:TrackPointExtension>
            <ns3:hr>127</ns3:hr>
            <ns3:cad>82</ns3:cad>
          </ns3:TrackPointExtension>
        </extensions>
      </trkpt>
      <trkpt lat="52.2967476211488246917724609375" lon="1.59746509976685047149658203125">
        <ele>-441.20001220703125</ele>
        <time>2025-09-07T10:31:17.000Z</time>
        <extensions>
          <ns3:TrackPointExtension>
            <ns3:hr>129</ns3:hr>
            <ns3:cad>82</ns3:cad>
          </ns3:TrackPointExtension>
        </extensions>
      </trkpt>
      <trkpt lat="52.2967492975294589996337890625" lon="1.59743584692478179931640625">
        <ele>-441.600006103515625</ele>
        <time>2025-09-07T10:31:18.000Z</time>
        <extensions>
          <ns3:TrackPointExtension>
            <ns3:hr>129</ns3:hr>
            <ns3:cad>82</ns3:cad>
          </ns3:TrackPointExtension>
        </extensions>
      </trkpt>
      <trkpt lat="52.29674921371042728424072265625" lon="1.59734331071376800537109375">
        <ele>-442.600006103515625</ele>
        <time>2025-09-07T10:31:21.000Z</time>
        <extensions>
          <ns3:TrackPointExtension>
            <ns3:hr>130</ns3:hr>
            <ns3:cad>82</ns3:cad>
          </ns3:TrackPointExtension>
        </extensions>
      </trkpt>
      <trkpt lat="52.29674334637820720672607421875" lon="1.597249768674373626708984375">
        <ele>-443.600006103515625</ele>
        <time>2025-09-07T10:31:24.000Z</time>
        <extensions>
          <ns3:TrackPointExtension>
            <ns3:hr>132</ns3:hr>
            <ns3:cad>81</ns3:cad>
          </ns3:TrackPointExtension>
        </extensions>
      </trkpt>
      <trkpt lat="52.2967435978353023529052734375" lon="1.59719939343631267547607421875">
        <ele>-444.399993896484375</ele>
        <time>2025-09-07T10:31:26.000Z</time>
        <extensions>
          <ns3:TrackPointExtension>
            <ns3:hr>134</ns3:hr>
            <ns3:cad>81</ns3:cad>
          </ns3:TrackPointExtension>
        </extensions>
      </trkpt>
      <trkpt lat="52.2967498004436492919921875" lon="1.59714792855083942413330078125">
        <ele>-445</ele>
        <time>2025-09-07T10:31:28.000Z</time>
        <extensions>
          <ns3:TrackPointExtension>
            <ns3:hr>137</ns3:hr>
            <ns3:cad>81</ns3:cad>
          </ns3:TrackPointExtension>
        </extensions>
      </trkpt>
      <trkpt lat="52.29675357230007648468017578125" lon="1.59706243313848972320556640625">
        <ele>-445.79998779296875</ele>
        <time>2025-09-07T10:31:31.000Z</time>
        <extensions>
          <ns3:TrackPointExtension>
            <ns3:hr>140</ns3:hr>
            <ns3:cad>81</ns3:cad>
          </ns3:TrackPointExtension>
        </extensions>
      </trkpt>
      <trkpt lat="52.29675005190074443817138671875" lon="1.597035191953182220458984375">
        <ele>-446.20001220703125</ele>
        <time>2025-09-07T10:31:32.000Z</time>
        <extensions>
          <ns3:TrackPointExtension>
            <ns3:hr>140</ns3:hr>
            <ns3:cad>81</ns3:cad>
          </ns3:TrackPointExtension>
        </extensions>
      </trkpt>
      <trkpt lat="52.29674753732979297637939453125" lon="1.59700610674917697906494140625">
        <ele>-446.399993896484375</ele>
        <time>2025-09-07T10:31:33.000Z</time>
        <extensions>
          <ns3:TrackPointExtension>
            <ns3:hr>140</ns3:hr>
            <ns3:cad>81</ns3:cad>
          </ns3:TrackPointExtension>
        </extensions>
      </trkpt>
      <trkpt lat="52.29674753732979297637939453125" lon="1.596915163099765777587890625">
        <ele>-447.399993896484375</ele>
        <time>2025-09-07T10:31:36.000Z</time>
        <extensions>
          <ns3:TrackPointExtension>
            <ns3:hr>140</ns3:hr>
            <ns3:cad>80</ns3:cad>
          </ns3:TrackPointExtension>
        </extensions>
      </trkpt>
      <trkpt lat="52.29678005911409854888916015625" lon="1.5967899374663829803466796875">
        <ele>-448.399993896484375</ele>
        <time>2025-09-07T10:31:40.000Z</time>
        <extensions>
          <ns3:TrackPointExtension>
            <ns3:hr>137</ns3:hr>
            <ns3:cad>80</ns3:cad>
          </ns3:TrackPointExtension>
        </extensions>
      </trkpt>
      <trkpt lat="52.29679472744464874267578125" lon="1.59675984643399715423583984375">
        <ele>-448.600006103515625</ele>
        <time>2025-09-07T10:31:41.000Z</time>
        <extensions>
          <ns3:TrackPointExtension>
            <ns3:hr>138</ns3:hr>
            <ns3:cad>80</ns3:cad>
          </ns3:TrackPointExtension>
        </extensions>
      </trkpt>
      <trkpt lat="52.2968079708516597747802734375" lon="1.596732772886753082275390625">
        <ele>-448.79998779296875</ele>
        <time>2025-09-07T10:31:42.000Z</time>
        <extensions>
          <ns3:TrackPointExtension>
            <ns3:hr>141</ns3:hr>
            <ns3:cad>80</ns3:cad>
          </ns3:TrackPointExtension>
        </extensions>
      </trkpt>
      <trkpt lat="52.29685239493846893310546875" lon="1.59665666520595550537109375">
        <ele>-449.600006103515625</ele>
        <time>2025-09-07T10:31:45.000Z</time>
        <extensions>
          <ns3:TrackPointExtension>
            <ns3:hr>143</ns3:hr>
            <ns3:cad>80</ns3:cad>
          </ns3:TrackPointExtension>
        </extensions>
      </trkpt>
      <trkpt lat="52.29688835330307483673095703125" lon="1.59659204073250293731689453125">
        <ele>-450.20001220703125</ele>
        <time>2025-09-07T10:31:48.000Z</time>
        <extensions>
          <ns3:TrackPointExtension>
            <ns3:hr>146</ns3:hr>
            <ns3:cad>80</ns3:cad>
          </ns3:TrackPointExtension>
        </extensions>
      </trkpt>
      <trkpt lat="52.29690645821392536163330078125" lon="1.59654174931347370147705078125">
        <ele>-450.79998779296875</ele>
        <time>2025-09-07T10:31:50.000Z</time>
        <extensions>
          <ns3:TrackPointExtension>
            <ns3:hr>144</ns3:hr>
            <ns3:cad>80</ns3:cad>
          </ns3:TrackPointExtension>
        </extensions>
      </trkpt>
      <trkpt lat="52.29693529196083545684814453125" lon="1.5964573435485363006591796875">
        <ele>-451.399993896484375</ele>
        <time>2025-09-07T10:31:53.000Z</time>
        <extensions>
          <ns3:TrackPointExtension>
            <ns3:hr>147</ns3:hr>
            <ns3:cad>81</ns3:cad>
          </ns3:TrackPointExtension>
        </extensions>
      </trkpt>
      <trkpt lat="52.29695624671876430511474609375" lon="1.59639506600797176361083984375">
        <ele>-451.79998779296875</ele>
        <time>2025-09-07T10:31:55.000Z</time>
        <extensions>
          <ns3:TrackPointExtension>
            <ns3:hr>149</ns3:hr>
            <ns3:cad>81</ns3:cad>
          </ns3:TrackPointExtension>
        </extensions>
      </trkpt>
      <trkpt lat="52.29698658920824527740478515625" lon="1.59632633440196514129638671875">
        <ele>-452.20001220703125</ele>
        <time>2025-09-07T10:31:57.000Z</time>
        <extensions>
          <ns3:TrackPointExtension>
            <ns3:hr>150</ns3:hr>
            <ns3:cad>81</ns3:cad>
          </ns3:TrackPointExtension>
        </extensions>
      </trkpt>
      <trkpt lat="52.29702766053378582000732421875" lon="1.5962256677448749542236328125">
        <ele>-453</ele>
        <time>2025-09-07T10:32:00.000Z</time>
        <extensions>
          <ns3:TrackPointExtension>
            <ns3:hr>152</ns3:hr>
            <ns3:cad>81</ns3:cad>
          </ns3:TrackPointExtension>
        </extensions>
      </trkpt>
      <trkpt lat="52.29703520424664020538330078125" lon="1.59616003744304180145263671875">
        <ele>-453.399993896484375</ele>
        <time>2025-09-07T10:32:03.000Z</time>
        <extensions>
          <ns3:TrackPointExtension>
            <ns3:hr>152</ns3:hr>
            <ns3:cad>81</ns3:cad>
          </ns3:TrackPointExtension>
        </extensions>
      </trkpt>
      <trkpt lat="52.29704207740724086761474609375" lon="1.596022658050060272216796875">
        <ele>-454.20001220703125</ele>
        <time>2025-09-07T10:32:07.000Z</time>
        <extensions>
          <ns3:TrackPointExtension>
            <ns3:hr>153</ns3:hr>
            <ns3:cad>81</ns3:cad>
          </ns3:TrackPointExtension>
        </extensions>
      </trkpt>
      <trkpt lat="52.297067306935787200927734375" lon="1.5959158726036548614501953125">
        <ele>-454.600006103515625</ele>
        <time>2025-09-07T10:32:10.000Z</time>
        <extensions>
          <ns3:TrackPointExtension>
            <ns3:hr>152</ns3:hr>
            <ns3:cad>80</ns3:cad>
          </ns3:TrackPointExtension>
        </extensions>
      </trkpt>
      <trkpt lat="52.29709915816783905029296875" lon="1.5957857854664325714111328125">
        <ele>-455.20001220703125</ele>
        <time>2025-09-07T10:32:14.000Z</time>
        <extensions>
          <ns3:TrackPointExtension>
            <ns3:hr>151</ns3:hr>
            <ns3:cad>81</ns3:cad>
          </ns3:TrackPointExtension>
        </extensions>
      </trkpt>
      <trkpt lat="52.2971452586352825164794921875" lon="1.59564186818897724151611328125">
        <ele>-455.79998779296875</ele>
        <time>2025-09-07T10:32:18.000Z</time>
        <extensions>
          <ns3:TrackPointExtension>
            <ns3:hr>152</ns3:hr>
            <ns3:cad>81</ns3:cad>
          </ns3:TrackPointExtension>
        </extensions>
      </trkpt>
      <trkpt lat="52.2972039319574832916259765625" lon="1.595509685575962066650390625">
        <ele>-456.399993896484375</ele>
        <time>2025-09-07T10:32:22.000Z</time>
        <extensions>
          <ns3:TrackPointExtension>
            <ns3:hr>152</ns3:hr>
            <ns3:cad>80</ns3:cad>
          </ns3:TrackPointExtension>
        </extensions>
      </trkpt>
      <trkpt lat="52.2972548939287662506103515625" lon="1.59542829729616641998291015625">
        <ele>-456.79998779296875</ele>
        <time>2025-09-07T10:32:25.000Z</time>
        <extensions>
          <ns3:TrackPointExtension>
            <ns3:hr>152</ns3:hr>
            <ns3:cad>81</ns3:cad>
          </ns3:TrackPointExtension>
        </extensions>
      </trkpt>
      <trkpt lat="52.29734097607433795928955078125" lon="1.595313213765621185302734375">
        <ele>-457.399993896484375</ele>
        <time>2025-09-07T10:32:30.000Z</time>
        <extensions>
          <ns3:TrackPointExtension>
            <ns3:hr>152</ns3:hr>
            <ns3:cad>81</ns3:cad>
          </ns3:TrackPointExtension>
        </extensions>
      </trkpt>
      <trkpt lat="52.2973869927227497100830078125" lon="1.59524087794125080108642578125">
        <ele>-457.79998779296875</ele>
        <time>2025-09-07T10:32:33.000Z</time>
        <extensions>
          <ns3:TrackPointExtension>
            <ns3:hr>152</ns3:hr>
            <ns3:cad>80</ns3:cad>
          </ns3:TrackPointExtension>
        </extensions>
      </trkpt>
      <trkpt lat="52.29742429219186305999755859375" lon="1.59516544081270694732666015625">
        <ele>-458.20001220703125</ele>
        <time>2025-09-07T10:32:36.000Z</time>
        <extensions>
          <ns3:TrackPointExtension>
            <ns3:hr>153</ns3:hr>
            <ns3:cad>81</ns3:cad>
          </ns3:TrackPointExtension>
        </extensions>
      </trkpt>
      <trkpt lat="52.297426052391529083251953125" lon="1.5951125510036945343017578125">
        <ele>-458.399993896484375</ele>
        <time>2025-09-07T10:32:38.000Z</time>
        <extensions>
          <ns3:TrackPointExtension>
            <ns3:hr>154</ns3:hr>
            <ns3:cad>81</ns3:cad>
          </ns3:TrackPointExtension>
        </extensions>
      </trkpt>
      <trkpt lat="52.29740685783326625823974609375" lon="1.59494985826313495635986328125">
        <ele>-459.20001220703125</ele>
        <time>2025-09-07T10:32:44.000Z</time>
        <extensions>
          <ns3:TrackPointExtension>
            <ns3:hr>153</ns3:hr>
            <ns3:cad>64</ns3:cad>
          </ns3:TrackPointExtension>
        </extensions>
      </trkpt>
      <trkpt lat="52.297397218644618988037109375" lon="1.59490308724343776702880859375">
        <ele>-459.600006103515625</ele>
        <time>2025-09-07T10:32:46.000Z</time>
        <extensions>
          <ns3:TrackPointExtension>
            <ns3:hr>153</ns3:hr>
            <ns3:cad>64</ns3:cad>
          </ns3:TrackPointExtension>
        </extensions>
      </trkpt>
      <trkpt lat="52.2973658703267574310302734375" lon="1.59474014304578304290771484375">
        <ele>-460.399993896484375</ele>
        <time>2025-09-07T10:32:53.000Z</time>
        <extensions>
          <ns3:TrackPointExtension>
            <ns3:hr>149</ns3:hr>
            <ns3:cad>59</ns3:cad>
          </ns3:TrackPointExtension>
        </extensions>
      </trkpt>
      <trkpt lat="52.2973538003861904144287109375" lon="1.59468247555196285247802734375">
        <ele>-460.600006103515625</ele>
        <time>2025-09-07T10:32:55.000Z</time>
        <extensions>
          <ns3:TrackPointExtension>
            <ns3:hr>147</ns3:hr>
            <ns3:cad>59</ns3:cad>
          </ns3:TrackPointExtension>
        </extensions>
      </trkpt>
      <trkpt lat="52.2973450832068920135498046875" lon="1.59462715499103069305419921875">
        <ele>-460.79998779296875</ele>
        <time>2025-09-07T10:32:57.000Z</time>
        <extensions>
          <ns3:TrackPointExtension>
            <ns3:hr>144</ns3:hr>
            <ns3:cad>60</ns3:cad>
          </ns3:TrackPointExtension>
        </extensions>
      </trkpt>
      <trkpt lat="52.2973306663334369659423828125" lon="1.59447695128619670867919921875">
        <ele>-461.399993896484375</ele>
        <time>2025-09-07T10:33:03.000Z</time>
        <extensions>
          <ns3:TrackPointExtension>
            <ns3:hr>141</ns3:hr>
            <ns3:cad>58</ns3:cad>
          </ns3:TrackPointExtension>
        </extensions>
      </trkpt>
      <trkpt lat="52.297318764030933380126953125" lon="1.59444141201674938201904296875">
        <ele>-461.600006103515625</ele>
        <time>2025-09-07T10:33:05.000Z</time>
        <extensions>
          <ns3:TrackPointExtension>
            <ns3:hr>140</ns3:hr>
            <ns3:cad>57</ns3:cad>
          </ns3:TrackPointExtension>
        </extensions>
      </trkpt>
      <trkpt lat="52.297332845628261566162109375" lon="1.59436882473528385162353515625">
        <ele>-462</ele>
        <time>2025-09-07T10:33:10.000Z</time>
        <extensions>
          <ns3:TrackPointExtension>
            <ns3:hr>138</ns3:hr>
            <ns3:cad>56</ns3:cad>
          </ns3:TrackPointExtension>
        </extensions>
      </trkpt>
      <trkpt lat="52.29734198190271854400634765625" lon="1.59435004927217960357666015625">
        <ele>-462.20001220703125</ele>
        <time>2025-09-07T10:33:13.000Z</time>
        <extensions>
          <ns3:TrackPointExtension>
            <ns3:hr>135</ns3:hr>
            <ns3:cad>0</ns3:cad>
          </ns3:TrackPointExtension>
        </extensions>
      </trkpt>
      <trkpt lat="52.29734214954078197479248046875" lon="1.59434267319738864898681640625">
        <ele>-462.399993896484375</ele>
        <time>2025-09-07T10:33:16.000Z</time>
        <extensions>
          <ns3:TrackPointExtension>
            <ns3:hr>133</ns3:hr>
            <ns3:cad>0</ns3:cad>
          </ns3:TrackPointExtension>
        </extensions>
      </trkpt>
      <trkpt lat="52.2973303310573101043701171875" lon="1.59432775340974330902099609375">
        <ele>-462.600006103515625</ele>
        <time>2025-09-07T10:33:18.000Z</time>
        <extensions>
          <ns3:TrackPointExtension>
            <ns3:hr>130</ns3:hr>
            <ns3:cad>0</ns3:cad>
          </ns3:TrackPointExtension>
        </extensions>
      </trkpt>
      <trkpt lat="52.2973269782960414886474609375" lon="1.59432641230523586273193359375">
        <ele>-462.79998779296875</ele>
        <time>2025-09-07T10:33:19.000Z</time>
        <extensions>
          <ns3:TrackPointExtension>
            <ns3:hr>128</ns3:hr>
            <ns3:cad>0</ns3:cad>
          </ns3:TrackPointExtension>
        </extensions>
      </trkpt>
      <trkpt lat="52.29732287116348743438720703125" lon="1.5943427570164203643798828125">
        <ele>-463.20001220703125</ele>
        <time>2025-09-07T10:33:22.000Z</time>
        <extensions>
          <ns3:TrackPointExtension>
            <ns3:hr>125</ns3:hr>
            <ns3:cad>0</ns3:cad>
          </ns3:TrackPointExtension>
        </extensions>
      </trkpt>
      <trkpt lat="52.297322787344455718994140625" lon="1.59434988163411617279052734375">
        <ele>-463.399993896484375</ele>
        <time>2025-09-07T10:33:24.000Z</time>
        <extensions>
          <ns3:TrackPointExtension>
            <ns3:hr>125</ns3:hr>
            <ns3:cad>0</ns3:cad>
          </ns3:TrackPointExtension>
        </extensions>
      </trkpt>
      <trkpt lat="52.2973323427140712738037109375" lon="1.5943373925983905792236328125">
        <ele>-463.79998779296875</ele>
        <time>2025-09-07T10:33:28.000Z</time>
        <extensions>
          <ns3:TrackPointExtension>
            <ns3:hr>126</ns3:hr>
            <ns3:cad>0</ns3:cad>
          </ns3:TrackPointExtension>
        </extensions>
      </trkpt>
      <trkpt lat="52.29733963496983051300048828125" lon="1.59435474313795566558837890625">
        <ele>-464.600006103515625</ele>
        <time>2025-09-07T10:33:32.000Z</time>
        <extensions>
          <ns3:TrackPointExtension>
            <ns3:hr>126</ns3:hr>
            <ns3:cad>58</ns3:cad>
          </ns3:TrackPointExtension>
        </extensions>
      </trkpt>
      <trkpt lat="52.2973578236997127532958984375" lon="1.59436916001141071319580078125">
        <ele>-465</ele>
        <time>2025-09-07T10:33:34.000Z</time>
        <extensions>
          <ns3:TrackPointExtension>
            <ns3:hr>125</ns3:hr>
            <ns3:cad>58</ns3:cad>
          </ns3:TrackPointExtension>
        </extensions>
      </trkpt>
      <trkpt lat="52.29736997745931148529052734375" lon="1.59437670372426509857177734375">
        <ele>-465.20001220703125</ele>
        <time>2025-09-07T10:33:35.000Z</time>
        <extensions>
          <ns3:TrackPointExtension>
            <ns3:hr>124</ns3:hr>
            <ns3:cad>58</ns3:cad>
          </ns3:TrackPointExtension>
        </extensions>
      </trkpt>
      <trkpt lat="52.29741808958351612091064453125" lon="1.594406627118587493896484375">
        <ele>-466</ele>
        <time>2025-09-07T10:33:39.000Z</time>
        <extensions>
          <ns3:TrackPointExtension>
            <ns3:hr>123</ns3:hr>
            <ns3:cad>58</ns3:cad>
          </ns3:TrackPointExtension>
        </extensions>
      </trkpt>
      <trkpt lat="52.29743041098117828369140625" lon="1.594418697059154510498046875">
        <ele>-466</ele>
        <time>2025-09-07T10:33:40.000Z</time>
        <extensions>
          <ns3:TrackPointExtension>
            <ns3:hr>123</ns3:hr>
            <ns3:cad>58</ns3:cad>
          </ns3:TrackPointExtension>
        </extensions>
      </trkpt>
      <trkpt lat="52.29751548729836940765380859375" lon="1.5945107303559780120849609375">
        <ele>-467.20001220703125</ele>
        <time>2025-09-07T10:33:47.000Z</time>
        <extensions>
          <ns3:TrackPointExtension>
            <ns3:hr>124</ns3:hr>
            <ns3:cad>60</ns3:cad>
          </ns3:TrackPointExtension>
        </extensions>
      </trkpt>
      <trkpt lat="52.29752403683960437774658203125" lon="1.59452606923878192901611328125">
        <ele>-467.399993896484375</ele>
        <time>2025-09-07T10:33:48.000Z</time>
        <extensions>
          <ns3:TrackPointExtension>
            <ns3:hr>124</ns3:hr>
            <ns3:cad>62</ns3:cad>
          </ns3:TrackPointExtension>
        </extensions>
      </trkpt>
      <trkpt lat="52.29753241874277591705322265625" lon="1.5945445932447910308837890625">
        <ele>-467.399993896484375</ele>
        <time>2025-09-07T10:33:49.000Z</time>
        <extensions>
          <ns3:TrackPointExtension>
            <ns3:hr>121</ns3:hr>
            <ns3:cad>62</ns3:cad>
          </ns3:TrackPointExtension>
        </extensions>
      </trkpt>
      <trkpt lat="52.29760349728167057037353515625" lon="1.59470343030989170074462890625">
        <ele>-468.20001220703125</ele>
        <time>2025-09-07T10:33:57.000Z</time>
        <extensions>
          <ns3:TrackPointExtension>
            <ns3:hr>120</ns3:hr>
            <ns3:cad>61</ns3:cad>
          </ns3:TrackPointExtension>
        </extensions>
      </trkpt>
      <trkpt lat="52.29765663854777812957763671875" lon="1.59480216912925243377685546875">
        <ele>-468.600006103515625</ele>
        <time>2025-09-07T10:34:03.000Z</time>
        <extensions>
          <ns3:TrackPointExtension>
            <ns3:hr>117</ns3:hr>
            <ns3:cad>60</ns3:cad>
          </ns3:TrackPointExtension>
        </extensions>
      </trkpt>
      <trkpt lat="52.297685556113719940185546875" lon="1.59484156407415866851806640625">
        <ele>-468.600006103515625</ele>
        <time>2025-09-07T10:34:06.000Z</time>
        <extensions>
          <ns3:TrackPointExtension>
            <ns3:hr>117</ns3:hr>
            <ns3:cad>60</ns3:cad>
          </ns3:TrackPointExtension>
        </extensions>
      </trkpt>
      <trkpt lat="52.29771816171705722808837890625" lon="1.5948905982077121734619140625">
        <ele>-468.600006103515625</ele>
        <time>2025-09-07T10:34:10.000Z</time>
        <extensions>
          <ns3:TrackPointExtension>
            <ns3:hr>114</ns3:hr>
            <ns3:cad>59</ns3:cad>
          </ns3:TrackPointExtension>
        </extensions>
      </trkpt>
      <trkpt lat="52.29775805957615375518798828125" lon="1.594946421682834625244140625">
        <ele>-468.600006103515625</ele>
        <time>2025-09-07T10:34:14.000Z</time>
        <extensions>
          <ns3:TrackPointExtension>
            <ns3:hr>113</ns3:hr>
            <ns3:cad>120</ns3:cad>
          </ns3:TrackPointExtension>
        </extensions>
      </trkpt>
      <trkpt lat="52.29777163825929164886474609375" lon="1.5949608385562896728515625">
        <ele>-468.600006103515625</ele>
        <time>2025-09-07T10:34:15.000Z</time>
        <extensions>
          <ns3:TrackPointExtension>
            <ns3:hr>112</ns3:hr>
            <ns3:cad>120</ns3:cad>
          </ns3:TrackPointExtension>
        </extensions>
      </trkpt>
      <trkpt lat="52.29778672568500041961669921875" lon="1.59497651271522045135498046875">
        <ele>-468.79998779296875</ele>
        <time>2025-09-07T10:34:16.000Z</time>
        <extensions>
          <ns3:TrackPointExtension>
            <ns3:hr>118</ns3:hr>
            <ns3:cad>80</ns3:cad>
          </ns3:TrackPointExtension>
        </extensions>
      </trkpt>
      <trkpt lat="52.29787657968699932098388671875" lon="1.59511816687881946563720703125">
        <ele>-469</ele>
        <time>2025-09-07T10:34:22.000Z</time>
        <extensions>
          <ns3:TrackPointExtension>
            <ns3:hr>116</ns3:hr>
            <ns3:cad>80</ns3:cad>
          </ns3:TrackPointExtension>
        </extensions>
      </trkpt>
      <trkpt lat="52.29788999073207378387451171875" lon="1.59514381550252437591552734375">
        <ele>-469</ele>
        <time>2025-09-07T10:34:23.000Z</time>
        <extensions>
          <ns3:TrackPointExtension>
            <ns3:hr>119</ns3:hr>
            <ns3:cad>80</ns3:cad>
          </ns3:TrackPointExtension>
        </extensions>
      </trkpt>
      <trkpt lat="52.297924943268299102783203125" lon="1.59522009082138538360595703125">
        <ele>-469.399993896484375</ele>
        <time>2025-09-07T10:34:26.000Z</time>
        <extensions>
          <ns3:TrackPointExtension>
            <ns3:hr>122</ns3:hr>
            <ns3:cad>81</ns3:cad>
          </ns3:TrackPointExtension>
        </extensions>
      </trkpt>
      <trkpt lat="52.29793575592339038848876953125" lon="1.5952520258724689483642578125">
        <ele>-469.399993896484375</ele>
        <time>2025-09-07T10:34:27.000Z</time>
        <extensions>
          <ns3:TrackPointExtension>
            <ns3:hr>125</ns3:hr>
            <ns3:cad>81</ns3:cad>
          </ns3:TrackPointExtension>
        </extensions>
      </trkpt>
      <trkpt lat="52.29795335792005062103271484375" lon="1.59528597258031368255615234375">
        <ele>-469.600006103515625</ele>
        <time>2025-09-07T10:34:28.000Z</time>
        <extensions>
          <ns3:TrackPointExtension>
            <ns3:hr>125</ns3:hr>
            <ns3:cad>81</ns3:cad>
          </ns3:TrackPointExtension>
        </extensions>
      </trkpt>
      <trkpt lat="52.29797246865928173065185546875" lon="1.59531983546912670135498046875">
        <ele>-469.600006103515625</ele>
        <time>2025-09-07T10:34:29.000Z</time>
        <extensions>
          <ns3:TrackPointExtension>
            <ns3:hr>128</ns3:hr>
            <ns3:cad>81</ns3:cad>
          </ns3:TrackPointExtension>
        </extensions>
      </trkpt>
      <trkpt lat="52.29799476452171802520751953125" lon="1.59535721875727176666259765625">
        <ele>-469.79998779296875</ele>
        <time>2025-09-07T10:34:30.000Z</time>
        <extensions>
          <ns3:TrackPointExtension>
            <ns3:hr>131</ns3:hr>
            <ns3:cad>80</ns3:cad>
          </ns3:TrackPointExtension>
        </extensions>
      </trkpt>
      <trkpt lat="52.29801555164158344268798828125" lon="1.59539057873189449310302734375">
        <ele>-469.79998779296875</ele>
        <time>2025-09-07T10:34:31.000Z</time>
        <extensions>
          <ns3:TrackPointExtension>
            <ns3:hr>134</ns3:hr>
            <ns3:cad>80</ns3:cad>
          </ns3:TrackPointExtension>
        </extensions>
      </trkpt>
      <trkpt lat="52.29804472066462039947509765625" lon="1.595450341701507568359375">
        <ele>-470</ele>
        <time>2025-09-07T10:34:33.000Z</time>
        <extensions>
          <ns3:TrackPointExtension>
            <ns3:hr>137</ns3:hr>
            <ns3:cad>81</ns3:cad>
          </ns3:TrackPointExtension>
        </extensions>
      </trkpt>
      <trkpt lat="52.29806936345994472503662109375" lon="1.5954997949302196502685546875">
        <ele>-470.20001220703125</ele>
        <time>2025-09-07T10:34:35.000Z</time>
        <extensions>
          <ns3:TrackPointExtension>
            <ns3:hr>141</ns3:hr>
            <ns3:cad>81</ns3:cad>
          </ns3:TrackPointExtension>
        </extensions>
      </trkpt>
      <trkpt lat="52.2980833612382411956787109375" lon="1.59552276134490966796875">
        <ele>-470.399993896484375</ele>
        <time>2025-09-07T10:34:36.000Z</time>
        <extensions>
          <ns3:TrackPointExtension>
            <ns3:hr>142</ns3:hr>
            <ns3:cad>81</ns3:cad>
          </ns3:TrackPointExtension>
        </extensions>
      </trkpt>
      <trkpt lat="52.29812971316277980804443359375" lon="1.59558554179966449737548828125">
        <ele>-470.600006103515625</ele>
        <time>2025-09-07T10:34:39.000Z</time>
        <extensions>
          <ns3:TrackPointExtension>
            <ns3:hr>144</ns3:hr>
            <ns3:cad>80</ns3:cad>
          </ns3:TrackPointExtension>
        </extensions>
      </trkpt>
      <trkpt lat="52.2982164658606052398681640625" lon="1.5957348234951496124267578125">
        <ele>-471.399993896484375</ele>
        <time>2025-09-07T10:34:47.000Z</time>
        <extensions>
          <ns3:TrackPointExtension>
            <ns3:hr>145</ns3:hr>
            <ns3:cad>80</ns3:cad>
          </ns3:TrackPointExtension>
        </extensions>
      </trkpt>
      <trkpt lat="52.29823063127696514129638671875" lon="1.5957532636821269989013671875">
        <ele>-471.399993896484375</ele>
        <time>2025-09-07T10:34:48.000Z</time>
        <extensions>
          <ns3:TrackPointExtension>
            <ns3:hr>145</ns3:hr>
            <ns3:cad>80</ns3:cad>
          </ns3:TrackPointExtension>
        </extensions>
      </trkpt>
      <trkpt lat="52.2983224131166934967041015625" lon="1.59586180932819843292236328125">
        <ele>-471.399993896484375</ele>
        <time>2025-09-07T10:34:54.000Z</time>
        <extensions>
          <ns3:TrackPointExtension>
            <ns3:hr>148</ns3:hr>
            <ns3:cad>80</ns3:cad>
          </ns3:TrackPointExtension>
        </extensions>
      </trkpt>
      <trkpt lat="52.29833406396210193634033203125" lon="1.5958810038864612579345703125">
        <ele>-471.399993896484375</ele>
        <time>2025-09-07T10:34:55.000Z</time>
        <extensions>
          <ns3:TrackPointExtension>
            <ns3:hr>148</ns3:hr>
            <ns3:cad>80</ns3:cad>
          </ns3:TrackPointExtension>
        </extensions>
      </trkpt>
      <trkpt lat="52.29843556880950927734375" lon="1.59598854370415210723876953125">
        <ele>-471</ele>
        <time>2025-09-07T10:35:01.000Z</time>
        <extensions>
          <ns3:TrackPointExtension>
            <ns3:hr>150</ns3:hr>
            <ns3:cad>80</ns3:cad>
          </ns3:TrackPointExtension>
        </extensions>
      </trkpt>
      <trkpt lat="52.29855182580649852752685546875" lon="1.5961230732500553131103515625">
        <ele>-470.79998779296875</ele>
        <time>2025-09-07T10:35:08.000Z</time>
        <extensions>
          <ns3:TrackPointExtension>
            <ns3:hr>151</ns3:hr>
            <ns3:cad>80</ns3:cad>
          </ns3:TrackPointExtension>
        </extensions>
      </trkpt>
      <trkpt lat="52.2986868582665920257568359375" lon="1.5962578542530536651611328125">
        <ele>-470.399993896484375</ele>
        <time>2025-09-07T10:35:16.000Z</time>
        <extensions>
          <ns3:TrackPointExtension>
            <ns3:hr>151</ns3:hr>
            <ns3:cad>81</ns3:cad>
          </ns3:TrackPointExtension>
        </extensions>
      </trkpt>
      <trkpt lat="52.29870420880615711212158203125" lon="1.59626866690814495086669921875">
        <ele>-470.399993896484375</ele>
        <time>2025-09-07T10:35:17.000Z</time>
        <extensions>
          <ns3:TrackPointExtension>
            <ns3:hr>151</ns3:hr>
            <ns3:cad>81</ns3:cad>
          </ns3:TrackPointExtension>
        </extensions>
      </trkpt>
      <trkpt lat="52.2987961582839488983154296875" lon="1.59637159667909145355224609375">
        <ele>-470</ele>
        <time>2025-09-07T10:35:24.000Z</time>
        <extensions>
          <ns3:TrackPointExtension>
            <ns3:hr>149</ns3:hr>
            <ns3:cad>80</ns3:cad>
          </ns3:TrackPointExtension>
        </extensions>
      </trkpt>
      <trkpt lat="52.29889833368360996246337890625" lon="1.59659765660762786865234375">
        <ele>-469.600006103515625</ele>
        <time>2025-09-07T10:35:33.000Z</time>
        <extensions>
          <ns3:TrackPointExtension>
            <ns3:hr>148</ns3:hr>
            <ns3:cad>81</ns3:cad>
          </ns3:TrackPointExtension>
        </extensions>
      </trkpt>
      <trkpt lat="52.2989483736455440521240234375" lon="1.5967148356139659881591796875">
        <ele>-469.399993896484375</ele>
        <time>2025-09-07T10:35:37.000Z</time>
        <extensions>
          <ns3:TrackPointExtension>
            <ns3:hr>151</ns3:hr>
            <ns3:cad>81</ns3:cad>
          </ns3:TrackPointExtension>
        </extensions>
      </trkpt>
      <trkpt lat="52.29895524680614471435546875" lon="1.59675146453082561492919921875">
        <ele>-469.399993896484375</ele>
        <time>2025-09-07T10:35:38.000Z</time>
        <extensions>
          <ns3:TrackPointExtension>
            <ns3:hr>151</ns3:hr>
            <ns3:cad>81</ns3:cad>
          </ns3:TrackPointExtension>
        </extensions>
      </trkpt>
      <trkpt lat="52.29898609220981597900390625" lon="1.59682522527873516082763671875">
        <ele>-469.20001220703125</ele>
        <time>2025-09-07T10:35:41.000Z</time>
        <extensions>
          <ns3:TrackPointExtension>
            <ns3:hr>151</ns3:hr>
            <ns3:cad>81</ns3:cad>
          </ns3:TrackPointExtension>
        </extensions>
      </trkpt>
      <trkpt lat="52.299078963696956634521484375" lon="1.59701742231845855712890625">
        <ele>-468.600006103515625</ele>
        <time>2025-09-07T10:35:50.000Z</time>
        <extensions>
          <ns3:TrackPointExtension>
            <ns3:hr>152</ns3:hr>
            <ns3:cad>81</ns3:cad>
          </ns3:TrackPointExtension>
        </extensions>
      </trkpt>
      <trkpt lat="52.299172841012477874755859375" lon="1.5972251258790493011474609375">
        <ele>-468.399993896484375</ele>
        <time>2025-09-07T10:35:58.000Z</time>
        <extensions>
          <ns3:TrackPointExtension>
            <ns3:hr>153</ns3:hr>
            <ns3:cad>81</ns3:cad>
          </ns3:TrackPointExtension>
        </extensions>
      </trkpt>
      <trkpt lat="52.29919689707458019256591796875" lon="1.5972750820219516754150390625">
        <ele>-468.399993896484375</ele>
        <time>2025-09-07T10:36:00.000Z</time>
        <extensions>
          <ns3:TrackPointExtension>
            <ns3:hr>153</ns3:hr>
            <ns3:cad>81</ns3:cad>
          </ns3:TrackPointExtension>
        </extensions>
      </trkpt>
      <trkpt lat="52.29927551932632923126220703125" lon="1.5974061749875545501708984375">
        <ele>-468.20001220703125</ele>
        <time>2025-09-07T10:36:05.000Z</time>
        <extensions>
          <ns3:TrackPointExtension>
            <ns3:hr>150</ns3:hr>
            <ns3:cad>81</ns3:cad>
          </ns3:TrackPointExtension>
        </extensions>
      </trkpt>
      <trkpt lat="52.29928842745721340179443359375" lon="1.597429811954498291015625">
        <ele>-468.20001220703125</ele>
        <time>2025-09-07T10:36:06.000Z</time>
        <extensions>
          <ns3:TrackPointExtension>
            <ns3:hr>150</ns3:hr>
            <ns3:cad>81</ns3:cad>
          </ns3:TrackPointExtension>
        </extensions>
      </trkpt>
      <trkpt lat="52.29938984848558902740478515625" lon="1.597628295421600341796875">
        <ele>-467.79998779296875</ele>
        <time>2025-09-07T10:36:15.000Z</time>
        <extensions>
          <ns3:TrackPointExtension>
            <ns3:hr>149</ns3:hr>
            <ns3:cad>81</ns3:cad>
          </ns3:TrackPointExtension>
        </extensions>
      </trkpt>
      <trkpt lat="52.2995089553296566009521484375" lon="1.597782857716083526611328125">
        <ele>-467.399993896484375</ele>
        <time>2025-09-07T10:36:22.000Z</time>
        <extensions>
          <ns3:TrackPointExtension>
            <ns3:hr>148</ns3:hr>
            <ns3:cad>81</ns3:cad>
          </ns3:TrackPointExtension>
        </extensions>
      </trkpt>
      <trkpt lat="52.29952110908925533294677734375" lon="1.5977986156940460205078125">
        <ele>-467.399993896484375</ele>
        <time>2025-09-07T10:36:23.000Z</time>
        <extensions>
          <ns3:TrackPointExtension>
            <ns3:hr>149</ns3:hr>
            <ns3:cad>81</ns3:cad>
          </ns3:TrackPointExtension>
        </extensions>
      </trkpt>
      <trkpt lat="52.29957877658307552337646484375" lon="1.59795912913978099822998046875">
        <ele>-466.600006103515625</ele>
        <time>2025-09-07T10:36:30.000Z</time>
        <extensions>
          <ns3:TrackPointExtension>
            <ns3:hr>148</ns3:hr>
            <ns3:cad>82</ns3:cad>
          </ns3:TrackPointExtension>
        </extensions>
      </trkpt>
      <trkpt lat="52.29962437413632869720458984375" lon="1.59801025874912738800048828125">
        <ele>-466.20001220703125</ele>
        <time>2025-09-07T10:36:33.000Z</time>
        <extensions>
          <ns3:TrackPointExtension>
            <ns3:hr>146</ns3:hr>
            <ns3:cad>81</ns3:cad>
          </ns3:TrackPointExtension>
        </extensions>
      </trkpt>
      <trkpt lat="52.29968287982046604156494140625" lon="1.59811939112842082977294921875">
        <ele>-465.79998779296875</ele>
        <time>2025-09-07T10:36:38.000Z</time>
        <extensions>
          <ns3:TrackPointExtension>
            <ns3:hr>145</ns3:hr>
            <ns3:cad>82</ns3:cad>
          </ns3:TrackPointExtension>
        </extensions>
      </trkpt>
      <trkpt lat="52.29978539049625396728515625" lon="1.5983141027390956878662109375">
        <ele>-465.20001220703125</ele>
        <time>2025-09-07T10:36:46.000Z</time>
        <extensions>
          <ns3:TrackPointExtension>
            <ns3:hr>145</ns3:hr>
            <ns3:cad>81</ns3:cad>
          </ns3:TrackPointExtension>
        </extensions>
      </trkpt>
      <trkpt lat="52.29989293031394481658935546875" lon="1.5985514782369136810302734375">
        <ele>-464.79998779296875</ele>
        <time>2025-09-07T10:36:55.000Z</time>
        <extensions>
          <ns3:TrackPointExtension>
            <ns3:hr>145</ns3:hr>
            <ns3:cad>81</ns3:cad>
          </ns3:TrackPointExtension>
        </extensions>
      </trkpt>
      <trkpt lat="52.29996032081544399261474609375" lon="1.5987194515764713287353515625">
        <ele>-464.600006103515625</ele>
        <time>2025-09-07T10:37:02.000Z</time>
        <extensions>
          <ns3:TrackPointExtension>
            <ns3:hr>144</ns3:hr>
            <ns3:cad>81</ns3:cad>
          </ns3:TrackPointExtension>
        </extensions>
      </trkpt>
      <trkpt lat="52.30002008378505706787109375" lon="1.59890544600784778594970703125">
        <ele>-464.20001220703125</ele>
        <time>2025-09-07T10:37:09.000Z</time>
        <extensions>
          <ns3:TrackPointExtension>
            <ns3:hr>147</ns3:hr>
            <ns3:cad>82</ns3:cad>
          </ns3:TrackPointExtension>
        </extensions>
      </trkpt>
      <trkpt lat="52.3000286333262920379638671875" lon="1.5989353694021701812744140625">
        <ele>-464.20001220703125</ele>
        <time>2025-09-07T10:37:10.000Z</time>
        <extensions>
          <ns3:TrackPointExtension>
            <ns3:hr>145</ns3:hr>
            <ns3:cad>82</ns3:cad>
          </ns3:TrackPointExtension>
        </extensions>
      </trkpt>
      <trkpt lat="52.30008537881076335906982421875" lon="1.59911801107227802276611328125">
        <ele>-463.79998779296875</ele>
        <time>2025-09-07T10:37:18.000Z</time>
        <extensions>
          <ns3:TrackPointExtension>
            <ns3:hr>146</ns3:hr>
            <ns3:cad>80</ns3:cad>
          </ns3:TrackPointExtension>
        </extensions>
      </trkpt>
      <trkpt lat="52.3001240193843841552734375" lon="1.59925840795040130615234375">
        <ele>-463.399993896484375</ele>
        <time>2025-09-07T10:37:24.000Z</time>
        <extensions>
          <ns3:TrackPointExtension>
            <ns3:hr>150</ns3:hr>
            <ns3:cad>81</ns3:cad>
          </ns3:TrackPointExtension>
        </extensions>
      </trkpt>
      <trkpt lat="52.30013030581176280975341796875" lon="1.5992837212979793548583984375">
        <ele>-463.20001220703125</ele>
        <time>2025-09-07T10:37:25.000Z</time>
        <extensions>
          <ns3:TrackPointExtension>
            <ns3:hr>147</ns3:hr>
            <ns3:cad>81</ns3:cad>
          </ns3:TrackPointExtension>
        </extensions>
      </trkpt>
      <trkpt lat="52.30014287866652011871337890625" lon="1.5993102081120014190673828125">
        <ele>-463.20001220703125</ele>
        <time>2025-09-07T10:37:26.000Z</time>
        <extensions>
          <ns3:TrackPointExtension>
            <ns3:hr>149</ns3:hr>
            <ns3:cad>82</ns3:cad>
          </ns3:TrackPointExtension>
        </extensions>
      </trkpt>
      <trkpt lat="52.30016534216701984405517578125" lon="1.599359996616840362548828125">
        <ele>-463</ele>
        <time>2025-09-07T10:37:28.000Z</time>
        <extensions>
          <ns3:TrackPointExtension>
            <ns3:hr>148</ns3:hr>
            <ns3:cad>82</ns3:cad>
          </ns3:TrackPointExtension>
        </extensions>
      </trkpt>
      <trkpt lat="52.300202809274196624755859375" lon="1.599443815648555755615234375">
        <ele>-462.79998779296875</ele>
        <time>2025-09-07T10:37:31.000Z</time>
        <extensions>
          <ns3:TrackPointExtension>
            <ns3:hr>151</ns3:hr>
            <ns3:cad>82</ns3:cad>
          </ns3:TrackPointExtension>
        </extensions>
      </trkpt>
      <trkpt lat="52.3002525977790355682373046875" lon="1.5995415486395359039306640625">
        <ele>-462.600006103515625</ele>
        <time>2025-09-07T10:37:34.000Z</time>
        <extensions>
          <ns3:TrackPointExtension>
            <ns3:hr>150</ns3:hr>
            <ns3:cad>82</ns3:cad>
          </ns3:TrackPointExtension>
        </extensions>
      </trkpt>
      <trkpt lat="52.30029710568487644195556640625" lon="1.59967004321515560150146484375">
        <ele>-462.20001220703125</ele>
        <time>2025-09-07T10:37:38.000Z</time>
        <extensions>
          <ns3:TrackPointExtension>
            <ns3:hr>150</ns3:hr>
            <ns3:cad>82</ns3:cad>
          </ns3:TrackPointExtension>
        </extensions>
      </trkpt>
      <trkpt lat="52.30033163912594318389892578125" lon="1.5997500903904438018798828125">
        <ele>-462</ele>
        <time>2025-09-07T10:37:40.000Z</time>
        <extensions>
          <ns3:TrackPointExtension>
            <ns3:hr>150</ns3:hr>
            <ns3:cad>0</ns3:cad>
          </ns3:TrackPointExtension>
        </extensions>
      </trkpt>
      <trkpt lat="52.3003820143640041351318359375" lon="1.59990875981748104095458984375">
        <ele>-461.20001220703125</ele>
        <time>2025-09-07T10:37:46.000Z</time>
        <extensions>
          <ns3:TrackPointExtension>
            <ns3:hr>153</ns3:hr>
            <ns3:cad>57</ns3:cad>
          </ns3:TrackPointExtension>
        </extensions>
      </trkpt>
      <trkpt lat="52.30038343928754329681396484375" lon="1.599921248853206634521484375">
        <ele>-461</ele>
        <time>2025-09-07T10:37:47.000Z</time>
        <extensions>
          <ns3:TrackPointExtension>
            <ns3:hr>151</ns3:hr>
            <ns3:cad>57</ns3:cad>
          </ns3:TrackPointExtension>
        </extensions>
      </trkpt>
      <trkpt lat="52.30038410983979701995849609375" lon="1.59995871596038341522216796875">
        <ele>-460.79998779296875</ele>
        <time>2025-09-07T10:37:49.000Z</time>
        <extensions>
          <ns3:TrackPointExtension>
            <ns3:hr>148</ns3:hr>
            <ns3:cad>57</ns3:cad>
          </ns3:TrackPointExtension>
        </extensions>
      </trkpt>
      <trkpt lat="52.300394587218761444091796875" lon="1.600048653781414031982421875">
        <ele>-460</ele>
        <time>2025-09-07T10:37:55.000Z</time>
        <extensions>
          <ns3:TrackPointExtension>
            <ns3:hr>148</ns3:hr>
            <ns3:cad>61</ns3:cad>
          </ns3:TrackPointExtension>
        </extensions>
      </trkpt>
      <trkpt lat="52.30040363967418670654296875" lon="1.60007187165319919586181640625">
        <ele>-459.79998779296875</ele>
        <time>2025-09-07T10:37:56.000Z</time>
        <extensions>
          <ns3:TrackPointExtension>
            <ns3:hr>149</ns3:hr>
            <ns3:cad>59</ns3:cad>
          </ns3:TrackPointExtension>
        </extensions>
      </trkpt>
      <trkpt lat="52.30040892027318477630615234375" lon="1.60009081475436687469482421875">
        <ele>-459.79998779296875</ele>
        <time>2025-09-07T10:37:57.000Z</time>
        <extensions>
          <ns3:TrackPointExtension>
            <ns3:hr>144</ns3:hr>
            <ns3:cad>59</ns3:cad>
          </ns3:TrackPointExtension>
        </extensions>
      </trkpt>
      <trkpt lat="52.30046088807284832000732421875" lon="1.60028074868023395538330078125">
        <ele>-459.20001220703125</ele>
        <time>2025-09-07T10:38:04.000Z</time>
        <extensions>
          <ns3:TrackPointExtension>
            <ns3:hr>141</ns3:hr>
            <ns3:cad>63</ns3:cad>
          </ns3:TrackPointExtension>
        </extensions>
      </trkpt>
      <trkpt lat="52.30053967796266078948974609375" lon="1.60052197985351085662841796875">
        <ele>-459.399993896484375</ele>
        <time>2025-09-07T10:38:15.000Z</time>
        <extensions>
          <ns3:TrackPointExtension>
            <ns3:hr>139</ns3:hr>
            <ns3:cad>64</ns3:cad>
          </ns3:TrackPointExtension>
        </extensions>
      </trkpt>
      <trkpt lat="52.3005868680775165557861328125" lon="1.60067369230091571807861328125">
        <ele>-460.20001220703125</ele>
        <time>2025-09-07T10:38:23.000Z</time>
        <extensions>
          <ns3:TrackPointExtension>
            <ns3:hr>139</ns3:hr>
            <ns3:cad>62</ns3:cad>
          </ns3:TrackPointExtension>
        </extensions>
      </trkpt>
      <trkpt lat="52.300642691552639007568359375" lon="1.60081266425549983978271484375">
        <ele>-461</ele>
        <time>2025-09-07T10:38:29.000Z</time>
        <extensions>
          <ns3:TrackPointExtension>
            <ns3:hr>136</ns3:hr>
            <ns3:cad>61</ns3:cad>
          </ns3:TrackPointExtension>
        </extensions>
      </trkpt>
      <trkpt lat="52.300654090940952301025390625" lon="1.6008310206234455108642578125">
        <ele>-461.20001220703125</ele>
        <time>2025-09-07T10:38:30.000Z</time>
        <extensions>
          <ns3:TrackPointExtension>
            <ns3:hr>137</ns3:hr>
            <ns3:cad>61</ns3:cad>
          </ns3:TrackPointExtension>
        </extensions>
      </trkpt>
      <trkpt lat="52.300709076225757598876953125" lon="1.6009228862822055816650390625">
        <ele>-462</ele>
        <time>2025-09-07T10:38:35.000Z</time>
        <extensions>
          <ns3:TrackPointExtension>
            <ns3:hr>135</ns3:hr>
            <ns3:cad>62</ns3:cad>
          </ns3:TrackPointExtension>
        </extensions>
      </trkpt>
      <trkpt lat="52.3007451184093952178955078125" lon="1.6009782068431377410888671875">
        <ele>-462.600006103515625</ele>
        <time>2025-09-07T10:38:38.000Z</time>
        <extensions>
          <ns3:TrackPointExtension>
            <ns3:hr>135</ns3:hr>
            <ns3:cad>62</ns3:cad>
          </ns3:TrackPointExtension>
        </extensions>
      </trkpt>
      <trkpt lat="52.3007705993950366973876953125" lon="1.6010187752544879913330078125">
        <ele>-463.20001220703125</ele>
        <time>2025-09-07T10:38:40.000Z</time>
        <extensions>
          <ns3:TrackPointExtension>
            <ns3:hr>136</ns3:hr>
            <ns3:cad>58</ns3:cad>
          </ns3:TrackPointExtension>
        </extensions>
      </trkpt>
      <trkpt lat="52.3007930628955364227294921875" lon="1.60105540417134761810302734375">
        <ele>-463.399993896484375</ele>
        <time>2025-09-07T10:38:42.000Z</time>
        <extensions>
          <ns3:TrackPointExtension>
            <ns3:hr>139</ns3:hr>
            <ns3:cad>60</ns3:cad>
          </ns3:TrackPointExtension>
        </extensions>
      </trkpt>
      <trkpt lat="52.30082784779369831085205078125" lon="1.6011294163763523101806640625">
        <ele>-464.20001220703125</ele>
        <time>2025-09-07T10:38:46.000Z</time>
        <extensions>
          <ns3:TrackPointExtension>
            <ns3:hr>138</ns3:hr>
            <ns3:cad>63</ns3:cad>
          </ns3:TrackPointExtension>
        </extensions>
      </trkpt>
      <trkpt lat="52.30090596713125705718994140625" lon="1.6012705676257610321044921875">
        <ele>-465</ele>
        <time>2025-09-07T10:38:55.000Z</time>
        <extensions>
          <ns3:TrackPointExtension>
            <ns3:hr>138</ns3:hr>
            <ns3:cad>63</ns3:cad>
          </ns3:TrackPointExtension>
        </extensions>
      </trkpt>
      <trkpt lat="52.3009932227432727813720703125" lon="1.601444073021411895751953125">
        <ele>-463.600006103515625</ele>
        <time>2025-09-07T10:39:02.000Z</time>
        <extensions>
          <ns3:TrackPointExtension>
            <ns3:hr>139</ns3:hr>
            <ns3:cad>80</ns3:cad>
          </ns3:TrackPointExtension>
        </extensions>
      </trkpt>
      <trkpt lat="52.3010197095572948455810546875" lon="1.6014928556978702545166015625">
        <ele>-463</ele>
        <time>2025-09-07T10:39:04.000Z</time>
        <extensions>
          <ns3:TrackPointExtension>
            <ns3:hr>137</ns3:hr>
            <ns3:cad>81</ns3:cad>
          </ns3:TrackPointExtension>
        </extensions>
      </trkpt>
      <trkpt lat="52.30106321163475513458251953125" lon="1.601584218442440032958984375">
        <ele>-462.399993896484375</ele>
        <time>2025-09-07T10:39:07.000Z</time>
        <extensions>
          <ns3:TrackPointExtension>
            <ns3:hr>134</ns3:hr>
            <ns3:cad>81</ns3:cad>
          </ns3:TrackPointExtension>
        </extensions>
      </trkpt>
      <trkpt lat="52.30108500458300113677978515625" lon="1.6016155667603015899658203125">
        <ele>-462.20001220703125</ele>
        <time>2025-09-07T10:39:08.000Z</time>
        <extensions>
          <ns3:TrackPointExtension>
            <ns3:hr>138</ns3:hr>
            <ns3:cad>81</ns3:cad>
          </ns3:TrackPointExtension>
        </extensions>
      </trkpt>
      <trkpt lat="52.30110243894159793853759765625" lon="1.60164029337465763092041015625">
        <ele>-462</ele>
        <time>2025-09-07T10:39:09.000Z</time>
        <extensions>
          <ns3:TrackPointExtension>
            <ns3:hr>139</ns3:hr>
            <ns3:cad>81</ns3:cad>
          </ns3:TrackPointExtension>
        </extensions>
      </trkpt>
      <trkpt lat="52.30112473480403423309326171875" lon="1.6016718931496143341064453125">
        <ele>-461.79998779296875</ele>
        <time>2025-09-07T10:39:10.000Z</time>
        <extensions>
          <ns3:TrackPointExtension>
            <ns3:hr>139</ns3:hr>
            <ns3:cad>82</ns3:cad>
          </ns3:TrackPointExtension>
        </extensions>
      </trkpt>
      <trkpt lat="52.30117888189852237701416015625" lon="1.6017389483749866485595703125">
        <ele>-461.399993896484375</ele>
        <time>2025-09-07T10:39:13.000Z</time>
        <extensions>
          <ns3:TrackPointExtension>
            <ns3:hr>144</ns3:hr>
            <ns3:cad>82</ns3:cad>
          </ns3:TrackPointExtension>
        </extensions>
      </trkpt>
      <trkpt lat="52.30123654939234256744384765625" lon="1.60184271633625030517578125">
        <ele>-460.79998779296875</ele>
        <time>2025-09-07T10:39:17.000Z</time>
        <extensions>
          <ns3:TrackPointExtension>
            <ns3:hr>147</ns3:hr>
            <ns3:cad>82</ns3:cad>
          </ns3:TrackPointExtension>
        </extensions>
      </trkpt>
      <trkpt lat="52.30128365568816661834716796875" lon="1.60192393697798252105712890625">
        <ele>-460.600006103515625</ele>
        <time>2025-09-07T10:39:20.000Z</time>
        <extensions>
          <ns3:TrackPointExtension>
            <ns3:hr>144</ns3:hr>
            <ns3:cad>81</ns3:cad>
          </ns3:TrackPointExtension>
        </extensions>
      </trkpt>
      <trkpt lat="52.30136797763407230377197265625" lon="1.60207481123507022857666015625">
        <ele>-460</ele>
        <time>2025-09-07T10:39:25.000Z</time>
        <extensions>
          <ns3:TrackPointExtension>
            <ns3:hr>143</ns3:hr>
            <ns3:cad>81</ns3:cad>
          </ns3:TrackPointExtension>
        </extensions>
      </trkpt>
      <trkpt lat="52.30141374282538890838623046875" lon="1.6021396033465862274169921875">
        <ele>-459.79998779296875</ele>
        <time>2025-09-07T10:39:28.000Z</time>
        <extensions>
          <ns3:TrackPointExtension>
            <ns3:hr>146</ns3:hr>
            <ns3:cad>82</ns3:cad>
          </ns3:TrackPointExtension>
        </extensions>
      </trkpt>
      <trkpt lat="52.301427908241748809814453125" lon="1.60215812735259532928466796875">
        <ele>-459.79998779296875</ele>
        <time>2025-09-07T10:39:29.000Z</time>
        <extensions>
          <ns3:TrackPointExtension>
            <ns3:hr>144</ns3:hr>
            <ns3:cad>82</ns3:cad>
          </ns3:TrackPointExtension>
        </extensions>
      </trkpt>
      <trkpt lat="52.301467470824718475341796875" lon="1.60226382315158843994140625">
        <ele>-459.600006103515625</ele>
        <time>2025-09-07T10:39:33.000Z</time>
        <extensions>
          <ns3:TrackPointExtension>
            <ns3:hr>145</ns3:hr>
            <ns3:cad>82</ns3:cad>
          </ns3:TrackPointExtension>
        </extensions>
      </trkpt>
      <trkpt lat="52.30150577612221240997314453125" lon="1.6023216582834720611572265625">
        <ele>-459.399993896484375</ele>
        <time>2025-09-07T10:39:36.000Z</time>
        <extensions>
          <ns3:TrackPointExtension>
            <ns3:hr>148</ns3:hr>
            <ns3:cad>82</ns3:cad>
          </ns3:TrackPointExtension>
        </extensions>
      </trkpt>
      <trkpt lat="52.30158490128815174102783203125" lon="1.60242048092186450958251953125">
        <ele>-459.399993896484375</ele>
        <time>2025-09-07T10:39:42.000Z</time>
        <extensions>
          <ns3:TrackPointExtension>
            <ns3:hr>149</ns3:hr>
            <ns3:cad>82</ns3:cad>
          </ns3:TrackPointExtension>
        </extensions>
      </trkpt>
      <trkpt lat="52.301674000918865203857421875" lon="1.60254587419331073760986328125">
        <ele>-459.399993896484375</ele>
        <time>2025-09-07T10:39:50.000Z</time>
        <extensions>
          <ns3:TrackPointExtension>
            <ns3:hr>150</ns3:hr>
            <ns3:cad>82</ns3:cad>
          </ns3:TrackPointExtension>
        </extensions>
      </trkpt>
      <trkpt lat="52.30176142416894435882568359375" lon="1.6026668250560760498046875">
        <ele>-459.79998779296875</ele>
        <time>2025-09-07T10:39:58.000Z</time>
        <extensions>
          <ns3:TrackPointExtension>
            <ns3:hr>149</ns3:hr>
            <ns3:cad>80</ns3:cad>
          </ns3:TrackPointExtension>
        </extensions>
      </trkpt>
      <trkpt lat="52.301914058625698089599609375" lon="1.602838151156902313232421875">
        <ele>-460.399993896484375</ele>
        <time>2025-09-07T10:40:07.000Z</time>
        <extensions>
          <ns3:TrackPointExtension>
            <ns3:hr>150</ns3:hr>
            <ns3:cad>80</ns3:cad>
          </ns3:TrackPointExtension>
        </extensions>
      </trkpt>
      <trkpt lat="52.3019988834857940673828125" lon="1.602907218039035797119140625">
        <ele>-460.79998779296875</ele>
        <time>2025-09-07T10:40:12.000Z</time>
        <extensions>
          <ns3:TrackPointExtension>
            <ns3:hr>149</ns3:hr>
            <ns3:cad>81</ns3:cad>
          </ns3:TrackPointExtension>
        </extensions>
      </trkpt>
      <trkpt lat="52.302079014480113983154296875" lon="1.602966897189617156982421875">
        <ele>-461.20001220703125</ele>
        <time>2025-09-07T10:40:16.000Z</time>
        <extensions>
          <ns3:TrackPointExtension>
            <ns3:hr>150</ns3:hr>
            <ns3:cad>81</ns3:cad>
          </ns3:TrackPointExtension>
        </extensions>
      </trkpt>
      <trkpt lat="52.30216911993920803070068359375" lon="1.60305331461131572723388671875">
        <ele>-462</ele>
        <time>2025-09-07T10:40:22.000Z</time>
        <extensions>
          <ns3:TrackPointExtension>
            <ns3:hr>149</ns3:hr>
            <ns3:cad>81</ns3:cad>
          </ns3:TrackPointExtension>
        </extensions>
      </trkpt>
      <trkpt lat="52.30221270583570003509521484375" lon="1.6030914522707462310791015625">
        <ele>-462.20001220703125</ele>
        <time>2025-09-07T10:40:25.000Z</time>
        <extensions>
          <ns3:TrackPointExtension>
            <ns3:hr>150</ns3:hr>
            <ns3:cad>81</ns3:cad>
          </ns3:TrackPointExtension>
        </extensions>
      </trkpt>
      <trkpt lat="52.30230540968477725982666015625" lon="1.60317200236022472381591796875">
        <ele>-463</ele>
        <time>2025-09-07T10:40:31.000Z</time>
        <extensions>
          <ns3:TrackPointExtension>
            <ns3:hr>149</ns3:hr>
            <ns3:cad>0</ns3:cad>
          </ns3:TrackPointExtension>
        </extensions>
      </trkpt>
      <trkpt lat="52.30233826674520969390869140625" lon="1.603206284344196319580078125">
        <ele>-463.20001220703125</ele>
        <time>2025-09-07T10:40:33.000Z</time>
        <extensions>
          <ns3:TrackPointExtension>
            <ns3:hr>151</ns3:hr>
            <ns3:cad>74</ns3:cad>
          </ns3:TrackPointExtension>
        </extensions>
      </trkpt>
      <trkpt lat="52.3023852892220020294189453125" lon="1.60325163044035434722900390625">
        <ele>-464</ele>
        <time>2025-09-07T10:40:37.000Z</time>
        <extensions>
          <ns3:TrackPointExtension>
            <ns3:hr>152</ns3:hr>
            <ns3:cad>80</ns3:cad>
          </ns3:TrackPointExtension>
        </extensions>
      </trkpt>
      <trkpt lat="52.302442453801631927490234375" lon="1.603313572704792022705078125">
        <ele>-465</ele>
        <time>2025-09-07T10:40:41.000Z</time>
        <extensions>
          <ns3:TrackPointExtension>
            <ns3:hr>151</ns3:hr>
            <ns3:cad>81</ns3:cad>
          </ns3:TrackPointExtension>
        </extensions>
      </trkpt>
      <trkpt lat="52.3024587146937847137451171875" lon="1.6033281572163105010986328125">
        <ele>-465.20001220703125</ele>
        <time>2025-09-07T10:40:42.000Z</time>
        <extensions>
          <ns3:TrackPointExtension>
            <ns3:hr>151</ns3:hr>
            <ns3:cad>81</ns3:cad>
          </ns3:TrackPointExtension>
        </extensions>
      </trkpt>
      <trkpt lat="52.30252300389111042022705078125" lon="1.60338490270078182220458984375">
        <ele>-466.20001220703125</ele>
        <time>2025-09-07T10:40:47.000Z</time>
        <extensions>
          <ns3:TrackPointExtension>
            <ns3:hr>149</ns3:hr>
            <ns3:cad>81</ns3:cad>
          </ns3:TrackPointExtension>
        </extensions>
      </trkpt>
      <trkpt lat="52.30255099944770336151123046875" lon="1.6034186817705631256103515625">
        <ele>-467</ele>
        <time>2025-09-07T10:40:50.000Z</time>
        <extensions>
          <ns3:TrackPointExtension>
            <ns3:hr>149</ns3:hr>
            <ns3:cad>80</ns3:cad>
          </ns3:TrackPointExtension>
        </extensions>
      </trkpt>
      <trkpt lat="52.302578575909137725830078125" lon="1.6034508682787418365478515625">
        <ele>-467.399993896484375</ele>
        <time>2025-09-07T10:40:52.000Z</time>
        <extensions>
          <ns3:TrackPointExtension>
            <ns3:hr>146</ns3:hr>
            <ns3:cad>80</ns3:cad>
          </ns3:TrackPointExtension>
        </extensions>
      </trkpt>
      <trkpt lat="52.3026372492313385009765625" lon="1.60350057296454906463623046875">
        <ele>-468</ele>
        <time>2025-09-07T10:40:55.000Z</time>
        <extensions>
          <ns3:TrackPointExtension>
            <ns3:hr>149</ns3:hr>
            <ns3:cad>81</ns3:cad>
          </ns3:TrackPointExtension>
        </extensions>
      </trkpt>
      <trkpt lat="52.3026732914149761199951171875" lon="1.60352848470211029052734375">
        <ele>-468.600006103515625</ele>
        <time>2025-09-07T10:40:57.000Z</time>
        <extensions>
          <ns3:TrackPointExtension>
            <ns3:hr>151</ns3:hr>
            <ns3:cad>82</ns3:cad>
          </ns3:TrackPointExtension>
        </extensions>
      </trkpt>
      <trkpt lat="52.3027499020099639892578125" lon="1.6036071069538593292236328125">
        <ele>-469.600006103515625</ele>
        <time>2025-09-07T10:41:02.000Z</time>
        <extensions>
          <ns3:TrackPointExtension>
            <ns3:hr>149</ns3:hr>
            <ns3:cad>81</ns3:cad>
          </ns3:TrackPointExtension>
        </extensions>
      </trkpt>
      <trkpt lat="52.30280228890478610992431640625" lon="1.6036885790526866912841796875">
        <ele>-470.399993896484375</ele>
        <time>2025-09-07T10:41:06.000Z</time>
        <extensions>
          <ns3:TrackPointExtension>
            <ns3:hr>150</ns3:hr>
            <ns3:cad>81</ns3:cad>
          </ns3:TrackPointExtension>
        </extensions>
      </trkpt>
      <trkpt lat="52.30283330194652080535888671875" lon="1.60372487269341945648193359375">
        <ele>-470.79998779296875</ele>
        <time>2025-09-07T10:41:08.000Z</time>
        <extensions>
          <ns3:TrackPointExtension>
            <ns3:hr>152</ns3:hr>
            <ns3:cad>81</ns3:cad>
          </ns3:TrackPointExtension>
        </extensions>
      </trkpt>
      <trkpt lat="52.302979566156864166259765625" lon="1.60389502532780170440673828125">
        <ele>-471.600006103515625</ele>
        <time>2025-09-07T10:41:14.000Z</time>
        <extensions>
          <ns3:TrackPointExtension>
            <ns3:hr>150</ns3:hr>
            <ns3:cad>82</ns3:cad>
          </ns3:TrackPointExtension>
        </extensions>
      </trkpt>
      <trkpt lat="52.3029971681535243988037109375" lon="1.6039086878299713134765625">
        <ele>-471.79998779296875</ele>
        <time>2025-09-07T10:41:15.000Z</time>
        <extensions>
          <ns3:TrackPointExtension>
            <ns3:hr>150</ns3:hr>
            <ns3:cad>82</ns3:cad>
          </ns3:TrackPointExtension>
        </extensions>
      </trkpt>
      <trkpt lat="52.30306028388440608978271484375" lon="1.603953950107097625732421875">
        <ele>-472.600006103515625</ele>
        <time>2025-09-07T10:41:19.000Z</time>
        <extensions>
          <ns3:TrackPointExtension>
            <ns3:hr>146</ns3:hr>
            <ns3:cad>81</ns3:cad>
          </ns3:TrackPointExtension>
        </extensions>
      </trkpt>
      <trkpt lat="52.3031031154096126556396484375" lon="1.60397113300859928131103515625">
        <ele>-473</ele>
        <time>2025-09-07T10:41:22.000Z</time>
        <extensions>
          <ns3:TrackPointExtension>
            <ns3:hr>143</ns3:hr>
            <ns3:cad>82</ns3:cad>
          </ns3:TrackPointExtension>
        </extensions>
      </trkpt>
      <trkpt lat="52.303128428757190704345703125" lon="1.6039891541004180908203125">
        <ele>-473.399993896484375</ele>
        <time>2025-09-07T10:41:24.000Z</time>
        <extensions>
          <ns3:TrackPointExtension>
            <ns3:hr>142</ns3:hr>
            <ns3:cad>82</ns3:cad>
          </ns3:TrackPointExtension>
        </extensions>
      </trkpt>
      <trkpt lat="52.30319573543965816497802734375" lon="1.6040194965898990631103515625">
        <ele>-474</ele>
        <time>2025-09-07T10:41:28.000Z</time>
        <extensions>
          <ns3:TrackPointExtension>
            <ns3:hr>141</ns3:hr>
            <ns3:cad>82</ns3:cad>
          </ns3:TrackPointExtension>
        </extensions>
      </trkpt>
      <trkpt lat="52.30324409902095794677734375" lon="1.6040533594787120819091796875">
        <ele>-474.399993896484375</ele>
        <time>2025-09-07T10:41:31.000Z</time>
        <extensions>
          <ns3:TrackPointExtension>
            <ns3:hr>145</ns3:hr>
            <ns3:cad>82</ns3:cad>
          </ns3:TrackPointExtension>
        </extensions>
      </trkpt>
      <trkpt lat="52.303303778171539306640625" lon="1.60408512689173221588134765625">
        <ele>-475</ele>
        <time>2025-09-07T10:41:34.000Z</time>
        <extensions>
          <ns3:TrackPointExtension>
            <ns3:hr>144</ns3:hr>
            <ns3:cad>82</ns3:cad>
          </ns3:TrackPointExtension>
        </extensions>
      </trkpt>
      <trkpt lat="52.3033254034817218780517578125" lon="1.60411546938121318817138671875">
        <ele>-475</ele>
        <time>2025-09-07T10:41:35.000Z</time>
        <extensions>
          <ns3:TrackPointExtension>
            <ns3:hr>144</ns3:hr>
            <ns3:cad>82</ns3:cad>
          </ns3:TrackPointExtension>
        </extensions>
      </trkpt>
      <trkpt lat="52.303437553346157073974609375" lon="1.60423734225332736968994140625">
        <ele>-475.79998779296875</ele>
        <time>2025-09-07T10:41:41.000Z</time>
        <extensions>
          <ns3:TrackPointExtension>
            <ns3:hr>144</ns3:hr>
            <ns3:cad>79</ns3:cad>
          </ns3:TrackPointExtension>
        </extensions>
      </trkpt>
      <trkpt lat="52.30348926968872547149658203125" lon="1.6042538546025753021240234375">
        <ele>-476.20001220703125</ele>
        <time>2025-09-07T10:41:43.000Z</time>
        <extensions>
          <ns3:TrackPointExtension>
            <ns3:hr>144</ns3:hr>
            <ns3:cad>80</ns3:cad>
          </ns3:TrackPointExtension>
        </extensions>
      </trkpt>
      <trkpt lat="52.30353604070842266082763671875" lon="1.6042696125805377960205078125">
        <ele>-476.600006103515625</ele>
        <time>2025-09-07T10:41:46.000Z</time>
        <extensions>
          <ns3:TrackPointExtension>
            <ns3:hr>141</ns3:hr>
            <ns3:cad>81</ns3:cad>
          </ns3:TrackPointExtension>
        </extensions>
      </trkpt>
      <trkpt lat="52.30358473956584930419921875" lon="1.604290902614593505859375">
        <ele>-477.20001220703125</ele>
        <time>2025-09-07T10:41:49.000Z</time>
        <extensions>
          <ns3:TrackPointExtension>
            <ns3:hr>145</ns3:hr>
            <ns3:cad>80</ns3:cad>
          </ns3:TrackPointExtension>
        </extensions>
      </trkpt>
      <trkpt lat="52.30359940789639949798583984375" lon="1.604307331144809722900390625">
        <ele>-477.20001220703125</ele>
        <time>2025-09-07T10:41:50.000Z</time>
        <extensions>
          <ns3:TrackPointExtension>
            <ns3:hr>145</ns3:hr>
            <ns3:cad>80</ns3:cad>
          </ns3:TrackPointExtension>
        </extensions>
      </trkpt>
      <trkpt lat="52.30362354777753353118896484375" lon="1.60433893091976642608642578125">
        <ele>-477.600006103515625</ele>
        <time>2025-09-07T10:41:52.000Z</time>
        <extensions>
          <ns3:TrackPointExtension>
            <ns3:hr>144</ns3:hr>
            <ns3:cad>80</ns3:cad>
          </ns3:TrackPointExtension>
        </extensions>
      </trkpt>
      <trkpt lat="52.30371625162661075592041015625" lon="1.604392826557159423828125">
        <ele>-478.399993896484375</ele>
        <time>2025-09-07T10:41:57.000Z</time>
        <extensions>
          <ns3:TrackPointExtension>
            <ns3:hr>146</ns3:hr>
            <ns3:cad>80</ns3:cad>
          </ns3:TrackPointExtension>
        </extensions>
      </trkpt>
      <trkpt lat="52.30379437096416950225830078125" lon="1.60441168583929538726806640625">
        <ele>-479.20001220703125</ele>
        <time>2025-09-07T10:42:01.000Z</time>
        <extensions>
          <ns3:TrackPointExtension>
            <ns3:hr>147</ns3:hr>
            <ns3:cad>81</ns3:cad>
          </ns3:TrackPointExtension>
        </extensions>
      </trkpt>
      <trkpt lat="52.30384231545031070709228515625" lon="1.604442112147808074951171875">
        <ele>-479.600006103515625</ele>
        <time>2025-09-07T10:42:04.000Z</time>
        <extensions>
          <ns3:TrackPointExtension>
            <ns3:hr>145</ns3:hr>
            <ns3:cad>82</ns3:cad>
          </ns3:TrackPointExtension>
        </extensions>
      </trkpt>
      <trkpt lat="52.303925044834613800048828125" lon="1.60449885763227939605712890625">
        <ele>-480.399993896484375</ele>
        <time>2025-09-07T10:42:09.000Z</time>
        <extensions>
          <ns3:TrackPointExtension>
            <ns3:hr>147</ns3:hr>
            <ns3:cad>82</ns3:cad>
          </ns3:TrackPointExtension>
        </extensions>
      </trkpt>
      <trkpt lat="52.303943820297718048095703125" lon="1.60452433861792087554931640625">
        <ele>-480.600006103515625</ele>
        <time>2025-09-07T10:42:11.000Z</time>
        <extensions>
          <ns3:TrackPointExtension>
            <ns3:hr>148</ns3:hr>
            <ns3:cad>82</ns3:cad>
          </ns3:TrackPointExtension>
        </extensions>
      </trkpt>
      <trkpt lat="52.30405085720121860504150390625" lon="1.6046343930065631866455078125">
        <ele>-481.600006103515625</ele>
        <time>2025-09-07T10:42:17.000Z</time>
        <extensions>
          <ns3:TrackPointExtension>
            <ns3:hr>148</ns3:hr>
            <ns3:cad>82</ns3:cad>
          </ns3:TrackPointExtension>
        </extensions>
      </trkpt>
      <trkpt lat="52.3040936887264251708984375" lon="1.604674793779850006103515625">
        <ele>-481.79998779296875</ele>
        <time>2025-09-07T10:42:19.000Z</time>
        <extensions>
          <ns3:TrackPointExtension>
            <ns3:hr>147</ns3:hr>
            <ns3:cad>82</ns3:cad>
          </ns3:TrackPointExtension>
        </extensions>
      </trkpt>
      <trkpt lat="52.3042212612926959991455078125" lon="1.6048764623701572418212890625">
        <ele>-482.399993896484375</ele>
        <time>2025-09-07T10:42:26.000Z</time>
        <extensions>
          <ns3:TrackPointExtension>
            <ns3:hr>147</ns3:hr>
            <ns3:cad>81</ns3:cad>
          </ns3:TrackPointExtension>
        </extensions>
      </trkpt>
      <trkpt lat="52.3043308965861797332763671875" lon="1.6050779633224010467529296875">
        <ele>-482.79998779296875</ele>
        <time>2025-09-07T10:42:32.000Z</time>
        <extensions>
          <ns3:TrackPointExtension>
            <ns3:hr>150</ns3:hr>
            <ns3:cad>83</ns3:cad>
          </ns3:TrackPointExtension>
        </extensions>
      </trkpt>
      <trkpt lat="52.30435453355312347412109375" lon="1.6051089763641357421875">
        <ele>-482.79998779296875</ele>
        <time>2025-09-07T10:42:33.000Z</time>
        <extensions>
          <ns3:TrackPointExtension>
            <ns3:hr>150</ns3:hr>
            <ns3:cad>82</ns3:cad>
          </ns3:TrackPointExtension>
        </extensions>
      </trkpt>
      <trkpt lat="52.30443491600453853607177734375" lon="1.6052808053791522979736328125">
        <ele>-483</ele>
        <time>2025-09-07T10:42:39.000Z</time>
        <extensions>
          <ns3:TrackPointExtension>
            <ns3:hr>151</ns3:hr>
            <ns3:cad>81</ns3:cad>
          </ns3:TrackPointExtension>
        </extensions>
      </trkpt>
      <trkpt lat="52.30446525849401950836181640625" lon="1.605468057096004486083984375">
        <ele>-483</ele>
        <time>2025-09-07T10:42:46.000Z</time>
        <extensions>
          <ns3:TrackPointExtension>
            <ns3:hr>150</ns3:hr>
            <ns3:cad>81</ns3:cad>
          </ns3:TrackPointExtension>
        </extensions>
      </trkpt>
      <trkpt lat="52.3044812679290771484375" lon="1.60563359968364238739013671875">
        <ele>-482.79998779296875</ele>
        <time>2025-09-07T10:42:52.000Z</time>
        <extensions>
          <ns3:TrackPointExtension>
            <ns3:hr>150</ns3:hr>
            <ns3:cad>81</ns3:cad>
          </ns3:TrackPointExtension>
        </extensions>
      </trkpt>
      <trkpt lat="52.304545976221561431884765625" lon="1.605834178626537322998046875">
        <ele>-482.20001220703125</ele>
        <time>2025-09-07T10:43:00.000Z</time>
        <extensions>
          <ns3:TrackPointExtension>
            <ns3:hr>151</ns3:hr>
            <ns3:cad>81</ns3:cad>
          </ns3:TrackPointExtension>
        </extensions>
      </trkpt>
      <trkpt lat="52.3045669309794902801513671875" lon="1.60589662380516529083251953125">
        <ele>-482</ele>
        <time>2025-09-07T10:43:03.000Z</time>
        <extensions>
          <ns3:TrackPointExtension>
            <ns3:hr>148</ns3:hr>
            <ns3:cad>81</ns3:cad>
          </ns3:TrackPointExtension>
        </extensions>
      </trkpt>
      <trkpt lat="52.30458344332873821258544921875" lon="1.60595982335507869720458984375">
        <ele>-481.79998779296875</ele>
        <time>2025-09-07T10:43:06.000Z</time>
        <extensions>
          <ns3:TrackPointExtension>
            <ns3:hr>150</ns3:hr>
            <ns3:cad>61</ns3:cad>
          </ns3:TrackPointExtension>
        </extensions>
      </trkpt>
      <trkpt lat="52.304594255983829498291015625" lon="1.60600307397544384002685546875">
        <ele>-481.79998779296875</ele>
        <time>2025-09-07T10:43:08.000Z</time>
        <extensions>
          <ns3:TrackPointExtension>
            <ns3:hr>148</ns3:hr>
            <ns3:cad>61</ns3:cad>
          </ns3:TrackPointExtension>
        </extensions>
      </trkpt>
      <trkpt lat="52.30460288934409618377685546875" lon="1.6060281358659267425537109375">
        <ele>-481.79998779296875</ele>
        <time>2025-09-07T10:43:09.000Z</time>
        <extensions>
          <ns3:TrackPointExtension>
            <ns3:hr>151</ns3:hr>
            <ns3:cad>61</ns3:cad>
          </ns3:TrackPointExtension>
        </extensions>
      </trkpt>
      <trkpt lat="52.30464630760252475738525390625" lon="1.60614707507193088531494140625">
        <ele>-481.600006103515625</ele>
        <time>2025-09-07T10:43:14.000Z</time>
        <extensions>
          <ns3:TrackPointExtension>
            <ns3:hr>149</ns3:hr>
            <ns3:cad>61</ns3:cad>
          </ns3:TrackPointExtension>
        </extensions>
      </trkpt>
      <trkpt lat="52.3047090880572795867919921875" lon="1.60636181943118572235107421875">
        <ele>-481.399993896484375</ele>
        <time>2025-09-07T10:43:23.000Z</time>
        <extensions>
          <ns3:TrackPointExtension>
            <ns3:hr>147</ns3:hr>
            <ns3:cad>61</ns3:cad>
          </ns3:TrackPointExtension>
        </extensions>
      </trkpt>
      <trkpt lat="52.30473750270903110504150390625" lon="1.6064991988241672515869140625">
        <ele>-481.399993896484375</ele>
        <time>2025-09-07T10:43:29.000Z</time>
        <extensions>
          <ns3:TrackPointExtension>
            <ns3:hr>144</ns3:hr>
            <ns3:cad>55</ns3:cad>
          </ns3:TrackPointExtension>
        </extensions>
      </trkpt>
      <trkpt lat="52.30473314411938190460205078125" lon="1.60652359016239643096923828125">
        <ele>-481.399993896484375</ele>
        <time>2025-09-07T10:43:30.000Z</time>
        <extensions>
          <ns3:TrackPointExtension>
            <ns3:hr>143</ns3:hr>
            <ns3:cad>55</ns3:cad>
          </ns3:TrackPointExtension>
        </extensions>
      </trkpt>
      <trkpt lat="52.3047597147524356842041015625" lon="1.6066591255366802215576171875">
        <ele>-481.399993896484375</ele>
        <time>2025-09-07T10:43:37.000Z</time>
        <extensions>
          <ns3:TrackPointExtension>
            <ns3:hr>143</ns3:hr>
            <ns3:cad>0</ns3:cad>
          </ns3:TrackPointExtension>
        </extensions>
      </trkpt>
      <trkpt lat="52.304777316749095916748046875" lon="1.60670748911798000335693359375">
        <ele>-481.20001220703125</ele>
        <time>2025-09-07T10:43:39.000Z</time>
        <extensions>
          <ns3:TrackPointExtension>
            <ns3:hr>140</ns3:hr>
            <ns3:cad>0</ns3:cad>
          </ns3:TrackPointExtension>
        </extensions>
      </trkpt>
      <trkpt lat="52.30485568754374980926513671875" lon="1.6068834252655506134033203125">
        <ele>-480.600006103515625</ele>
        <time>2025-09-07T10:43:46.000Z</time>
        <extensions>
          <ns3:TrackPointExtension>
            <ns3:hr>144</ns3:hr>
            <ns3:cad>80</ns3:cad>
          </ns3:TrackPointExtension>
        </extensions>
      </trkpt>
      <trkpt lat="52.30486960150301456451416015625" lon="1.6069454513490200042724609375">
        <ele>-480.399993896484375</ele>
        <time>2025-09-07T10:43:48.000Z</time>
        <extensions>
          <ns3:TrackPointExtension>
            <ns3:hr>147</ns3:hr>
            <ns3:cad>82</ns3:cad>
          </ns3:TrackPointExtension>
        </extensions>
      </trkpt>
      <trkpt lat="52.30488829314708709716796875" lon="1.6070601157844066619873046875">
        <ele>-479.399993896484375</ele>
        <time>2025-09-07T10:43:52.000Z</time>
        <extensions>
          <ns3:TrackPointExtension>
            <ns3:hr>150</ns3:hr>
            <ns3:cad>82</ns3:cad>
          </ns3:TrackPointExtension>
        </extensions>
      </trkpt>
      <trkpt lat="52.3049055598676204681396484375" lon="1.60712306387722492218017578125">
        <ele>-479</ele>
        <time>2025-09-07T10:43:54.000Z</time>
        <extensions>
          <ns3:TrackPointExtension>
            <ns3:hr>151</ns3:hr>
            <ns3:cad>82</ns3:cad>
          </ns3:TrackPointExtension>
        </extensions>
      </trkpt>
      <trkpt lat="52.3049243353307247161865234375" lon="1.6071845032274723052978515625">
        <ele>-478.20001220703125</ele>
        <time>2025-09-07T10:43:56.000Z</time>
        <extensions>
          <ns3:TrackPointExtension>
            <ns3:hr>149</ns3:hr>
            <ns3:cad>82</ns3:cad>
          </ns3:TrackPointExtension>
        </extensions>
      </trkpt>
      <trkpt lat="52.30493179522454738616943359375" lon="1.6072166897356510162353515625">
        <ele>-477.79998779296875</ele>
        <time>2025-09-07T10:43:57.000Z</time>
        <extensions>
          <ns3:TrackPointExtension>
            <ns3:hr>152</ns3:hr>
            <ns3:cad>82</ns3:cad>
          </ns3:TrackPointExtension>
        </extensions>
      </trkpt>
      <trkpt lat="52.3049427755177021026611328125" lon="1.607283242046833038330078125">
        <ele>-477</ele>
        <time>2025-09-07T10:43:59.000Z</time>
        <extensions>
          <ns3:TrackPointExtension>
            <ns3:hr>153</ns3:hr>
            <ns3:cad>82</ns3:cad>
          </ns3:TrackPointExtension>
        </extensions>
      </trkpt>
      <trkpt lat="52.304939590394496917724609375" lon="1.6073608584702014923095703125">
        <ele>-476.20001220703125</ele>
        <time>2025-09-07T10:44:01.000Z</time>
        <extensions>
          <ns3:TrackPointExtension>
            <ns3:hr>153</ns3:hr>
            <ns3:cad>81</ns3:cad>
          </ns3:TrackPointExtension>
        </extensions>
      </trkpt>
      <trkpt lat="52.304939590394496917724609375" lon="1.607396565377712249755859375">
        <ele>-475.79998779296875</ele>
        <time>2025-09-07T10:44:02.000Z</time>
        <extensions>
          <ns3:TrackPointExtension>
            <ns3:hr>155</ns3:hr>
            <ns3:cad>81</ns3:cad>
          </ns3:TrackPointExtension>
        </extensions>
      </trkpt>
      <trkpt lat="52.3049498163163661956787109375" lon="1.607480384409427642822265625">
        <ele>-474.399993896484375</ele>
        <time>2025-09-07T10:44:05.000Z</time>
        <extensions>
          <ns3:TrackPointExtension>
            <ns3:hr>155</ns3:hr>
            <ns3:cad>81</ns3:cad>
          </ns3:TrackPointExtension>
        </extensions>
      </trkpt>
      <trkpt lat="52.3049595393240451812744140625" lon="1.6075405664741992950439453125">
        <ele>-473.399993896484375</ele>
        <time>2025-09-07T10:44:07.000Z</time>
        <extensions>
          <ns3:TrackPointExtension>
            <ns3:hr>154</ns3:hr>
            <ns3:cad>82</ns3:cad>
          </ns3:TrackPointExtension>
        </extensions>
      </trkpt>
      <trkpt lat="52.3049672506749629974365234375" lon="1.60757501609623432159423828125">
        <ele>-473</ele>
        <time>2025-09-07T10:44:08.000Z</time>
        <extensions>
          <ns3:TrackPointExtension>
            <ns3:hr>154</ns3:hr>
            <ns3:cad>82</ns3:cad>
          </ns3:TrackPointExtension>
        </extensions>
      </trkpt>
      <trkpt lat="52.304977811872959136962890625" lon="1.60762958228588104248046875">
        <ele>-471.79998779296875</ele>
        <time>2025-09-07T10:44:10.000Z</time>
        <extensions>
          <ns3:TrackPointExtension>
            <ns3:hr>154</ns3:hr>
            <ns3:cad>81</ns3:cad>
          </ns3:TrackPointExtension>
        </extensions>
      </trkpt>
      <trkpt lat="52.30498929508030414581298828125" lon="1.6076852381229400634765625">
        <ele>-470.600006103515625</ele>
        <time>2025-09-07T10:44:12.000Z</time>
        <extensions>
          <ns3:TrackPointExtension>
            <ns3:hr>154</ns3:hr>
            <ns3:cad>81</ns3:cad>
          </ns3:TrackPointExtension>
        </extensions>
      </trkpt>
      <trkpt lat="52.30499700643122196197509765625" lon="1.60774625837802886962890625">
        <ele>-469.600006103515625</ele>
        <time>2025-09-07T10:44:14.000Z</time>
        <extensions>
          <ns3:TrackPointExtension>
            <ns3:hr>155</ns3:hr>
            <ns3:cad>81</ns3:cad>
          </ns3:TrackPointExtension>
        </extensions>
      </trkpt>
      <trkpt lat="52.305008657276630401611328125" lon="1.60779763944447040557861328125">
        <ele>-468.399993896484375</ele>
        <time>2025-09-07T10:44:16.000Z</time>
        <extensions>
          <ns3:TrackPointExtension>
            <ns3:hr>155</ns3:hr>
            <ns3:cad>81</ns3:cad>
          </ns3:TrackPointExtension>
        </extensions>
      </trkpt>
      <trkpt lat="52.3050158657133579254150390625" lon="1.60784952342510223388671875">
        <ele>-467.20001220703125</ele>
        <time>2025-09-07T10:44:18.000Z</time>
        <extensions>
          <ns3:TrackPointExtension>
            <ns3:hr>153</ns3:hr>
            <ns3:cad>80</ns3:cad>
          </ns3:TrackPointExtension>
        </extensions>
      </trkpt>
      <trkpt lat="52.3050255887210369110107421875" lon="1.6079078614711761474609375">
        <ele>-466.20001220703125</ele>
        <time>2025-09-07T10:44:20.000Z</time>
        <extensions>
          <ns3:TrackPointExtension>
            <ns3:hr>153</ns3:hr>
            <ns3:cad>80</ns3:cad>
          </ns3:TrackPointExtension>
        </extensions>
      </trkpt>
      <trkpt lat="52.30502952821552753448486328125" lon="1.6079427301883697509765625">
        <ele>-465.600006103515625</ele>
        <time>2025-09-07T10:44:21.000Z</time>
        <extensions>
          <ns3:TrackPointExtension>
            <ns3:hr>151</ns3:hr>
            <ns3:cad>81</ns3:cad>
          </ns3:TrackPointExtension>
        </extensions>
      </trkpt>
      <trkpt lat="52.30503380298614501953125" lon="1.6079794429242610931396484375">
        <ele>-465</ele>
        <time>2025-09-07T10:44:22.000Z</time>
        <extensions>
          <ns3:TrackPointExtension>
            <ns3:hr>151</ns3:hr>
            <ns3:cad>82</ns3:cad>
          </ns3:TrackPointExtension>
        </extensions>
      </trkpt>
      <trkpt lat="52.30503606610000133514404296875" lon="1.60804264247417449951171875">
        <ele>-464</ele>
        <time>2025-09-07T10:44:24.000Z</time>
        <extensions>
          <ns3:TrackPointExtension>
            <ns3:hr>153</ns3:hr>
            <ns3:cad>82</ns3:cad>
          </ns3:TrackPointExtension>
        </extensions>
      </trkpt>
      <trkpt lat="52.305030785501003265380859375" lon="1.6080982983112335205078125">
        <ele>-463</ele>
        <time>2025-09-07T10:44:26.000Z</time>
        <extensions>
          <ns3:TrackPointExtension>
            <ns3:hr>154</ns3:hr>
            <ns3:cad>82</ns3:cad>
          </ns3:TrackPointExtension>
        </extensions>
      </trkpt>
      <trkpt lat="52.3050259239971637725830078125" lon="1.60814314149320125579833984375">
        <ele>-461.79998779296875</ele>
        <time>2025-09-07T10:44:28.000Z</time>
        <extensions>
          <ns3:TrackPointExtension>
            <ns3:hr>155</ns3:hr>
            <ns3:cad>82</ns3:cad>
          </ns3:TrackPointExtension>
        </extensions>
      </trkpt>
      <trkpt lat="52.305025756359100341796875" lon="1.60816334187984466552734375">
        <ele>-461.399993896484375</ele>
        <time>2025-09-07T10:44:29.000Z</time>
        <extensions>
          <ns3:TrackPointExtension>
            <ns3:hr>155</ns3:hr>
            <ns3:cad>81</ns3:cad>
          </ns3:TrackPointExtension>
        </extensions>
      </trkpt>
      <trkpt lat="52.30503179132938385009765625" lon="1.60819812677800655364990234375">
        <ele>-460.399993896484375</ele>
        <time>2025-09-07T10:44:31.000Z</time>
        <extensions>
          <ns3:TrackPointExtension>
            <ns3:hr>155</ns3:hr>
            <ns3:cad>80</ns3:cad>
          </ns3:TrackPointExtension>
        </extensions>
      </trkpt>
      <trkpt lat="52.30505249463021755218505859375" lon="1.6082520224153995513916015625">
        <ele>-459</ele>
        <time>2025-09-07T10:44:34.000Z</time>
        <extensions>
          <ns3:TrackPointExtension>
            <ns3:hr>154</ns3:hr>
            <ns3:cad>80</ns3:cad>
          </ns3:TrackPointExtension>
        </extensions>
      </trkpt>
      <trkpt lat="52.305057607591152191162109375" lon="1.60827406682074069976806640625">
        <ele>-458.600006103515625</ele>
        <time>2025-09-07T10:44:35.000Z</time>
        <extensions>
          <ns3:TrackPointExtension>
            <ns3:hr>153</ns3:hr>
            <ns3:cad>80</ns3:cad>
          </ns3:TrackPointExtension>
        </extensions>
      </trkpt>
      <trkpt lat="52.30506489984691143035888671875" lon="1.6083123721182346343994140625">
        <ele>-457.600006103515625</ele>
        <time>2025-09-07T10:44:37.000Z</time>
        <extensions>
          <ns3:TrackPointExtension>
            <ns3:hr>153</ns3:hr>
            <ns3:cad>80</ns3:cad>
          </ns3:TrackPointExtension>
        </extensions>
      </trkpt>
      <trkpt lat="52.30508543550968170166015625" lon="1.608386300504207611083984375">
        <ele>-456.600006103515625</ele>
        <time>2025-09-07T10:44:40.000Z</time>
        <extensions>
          <ns3:TrackPointExtension>
            <ns3:hr>152</ns3:hr>
            <ns3:cad>61</ns3:cad>
          </ns3:TrackPointExtension>
        </extensions>
      </trkpt>
      <trkpt lat="52.3051013611257076263427734375" lon="1.60844338126480579376220703125">
        <ele>-455.79998779296875</ele>
        <time>2025-09-07T10:44:42.000Z</time>
        <extensions>
          <ns3:TrackPointExtension>
            <ns3:hr>152</ns3:hr>
            <ns3:cad>61</ns3:cad>
          </ns3:TrackPointExtension>
        </extensions>
      </trkpt>
      <trkpt lat="52.30510957539081573486328125" lon="1.6084719635546207427978515625">
        <ele>-455.399993896484375</ele>
        <time>2025-09-07T10:44:43.000Z</time>
        <extensions>
          <ns3:TrackPointExtension>
            <ns3:hr>150</ns3:hr>
            <ns3:cad>61</ns3:cad>
          </ns3:TrackPointExtension>
        </extensions>
      </trkpt>
      <trkpt lat="52.30513782240450382232666015625" lon="1.6085772402584552764892578125">
        <ele>-454.20001220703125</ele>
        <time>2025-09-07T10:44:47.000Z</time>
        <extensions>
          <ns3:TrackPointExtension>
            <ns3:hr>147</ns3:hr>
            <ns3:cad>62</ns3:cad>
          </ns3:TrackPointExtension>
        </extensions>
      </trkpt>
      <trkpt lat="52.30515777133405208587646484375" lon="1.60864437930285930633544921875">
        <ele>-453.399993896484375</ele>
        <time>2025-09-07T10:44:50.000Z</time>
        <extensions>
          <ns3:TrackPointExtension>
            <ns3:hr>145</ns3:hr>
            <ns3:cad>63</ns3:cad>
          </ns3:TrackPointExtension>
        </extensions>
      </trkpt>
      <trkpt lat="52.30516380630433559417724609375" lon="1.608685366809368133544921875">
        <ele>-453</ele>
        <time>2025-09-07T10:44:52.000Z</time>
        <extensions>
          <ns3:TrackPointExtension>
            <ns3:hr>144</ns3:hr>
            <ns3:cad>60</ns3:cad>
          </ns3:TrackPointExtension>
        </extensions>
      </trkpt>
      <trkpt lat="52.30516497977077960968017578125" lon="1.60878117196261882781982421875">
        <ele>-452</ele>
        <time>2025-09-07T10:44:57.000Z</time>
        <extensions>
          <ns3:TrackPointExtension>
            <ns3:hr>143</ns3:hr>
            <ns3:cad>61</ns3:cad>
          </ns3:TrackPointExtension>
        </extensions>
      </trkpt>
      <trkpt lat="52.305171601474285125732421875" lon="1.60880229435861110687255859375">
        <ele>-452</ele>
        <time>2025-09-07T10:44:58.000Z</time>
        <extensions>
          <ns3:TrackPointExtension>
            <ns3:hr>143</ns3:hr>
            <ns3:cad>61</ns3:cad>
          </ns3:TrackPointExtension>
        </extensions>
      </trkpt>
      <trkpt lat="52.30518761090934276580810546875" lon="1.608917377889156341552734375">
        <ele>-451.399993896484375</ele>
        <time>2025-09-07T10:45:04.000Z</time>
        <extensions>
          <ns3:TrackPointExtension>
            <ns3:hr>141</ns3:hr>
            <ns3:cad>120</ns3:cad>
          </ns3:TrackPointExtension>
        </extensions>
      </trkpt>
      <trkpt lat="52.3052405007183551788330078125" lon="1.60909716971218585968017578125">
        <ele>-451</ele>
        <time>2025-09-07T10:45:13.000Z</time>
        <extensions>
          <ns3:TrackPointExtension>
            <ns3:hr>138</ns3:hr>
            <ns3:cad>61</ns3:cad>
          </ns3:TrackPointExtension>
        </extensions>
      </trkpt>
      <trkpt lat="52.30529355816543102264404296875" lon="1.60925961099565029144287109375">
        <ele>-451</ele>
        <time>2025-09-07T10:45:21.000Z</time>
        <extensions>
          <ns3:TrackPointExtension>
            <ns3:hr>139</ns3:hr>
            <ns3:cad>60</ns3:cad>
          </ns3:TrackPointExtension>
        </extensions>
      </trkpt>
      <trkpt lat="52.30535994283854961395263671875" lon="1.60949531011283397674560546875">
        <ele>-451.20001220703125</ele>
        <time>2025-09-07T10:45:31.000Z</time>
        <extensions>
          <ns3:TrackPointExtension>
            <ns3:hr>142</ns3:hr>
            <ns3:cad>61</ns3:cad>
          </ns3:TrackPointExtension>
        </extensions>
      </trkpt>
      <trkpt lat="52.305393554270267486572265625" lon="1.6095934621989727020263671875">
        <ele>-451.399993896484375</ele>
        <time>2025-09-07T10:45:37.000Z</time>
        <extensions>
          <ns3:TrackPointExtension>
            <ns3:hr>145</ns3:hr>
            <ns3:cad>62</ns3:cad>
          </ns3:TrackPointExtension>
        </extensions>
      </trkpt>
      <trkpt lat="52.30543957091867923736572265625" lon="1.6097735054790973663330078125">
        <ele>-451.600006103515625</ele>
        <time>2025-09-07T10:45:45.000Z</time>
        <extensions>
          <ns3:TrackPointExtension>
            <ns3:hr>146</ns3:hr>
            <ns3:cad>61</ns3:cad>
          </ns3:TrackPointExtension>
        </extensions>
      </trkpt>
      <trkpt lat="52.305456586182117462158203125" lon="1.609931252896785736083984375">
        <ele>-452.20001220703125</ele>
        <time>2025-09-07T10:45:53.000Z</time>
        <extensions>
          <ns3:TrackPointExtension>
            <ns3:hr>145</ns3:hr>
            <ns3:cad>59</ns3:cad>
          </ns3:TrackPointExtension>
        </extensions>
      </trkpt>
      <trkpt lat="52.30545247904956340789794921875" lon="1.6100092045962810516357421875">
        <ele>-452.399993896484375</ele>
        <time>2025-09-07T10:45:57.000Z</time>
        <extensions>
          <ns3:TrackPointExtension>
            <ns3:hr>141</ns3:hr>
            <ns3:cad>55</ns3:cad>
          </ns3:TrackPointExtension>
        </extensions>
      </trkpt>
      <trkpt lat="52.3054487071931362152099609375" lon="1.6100568138062953948974609375">
        <ele>-452.600006103515625</ele>
        <time>2025-09-07T10:45:59.000Z</time>
        <extensions>
          <ns3:TrackPointExtension>
            <ns3:hr>144</ns3:hr>
            <ns3:cad>0</ns3:cad>
          </ns3:TrackPointExtension>
        </extensions>
      </trkpt>
      <trkpt lat="52.3054440133273601531982421875" lon="1.61011137999594211578369140625">
        <ele>-452.79998779296875</ele>
        <time>2025-09-07T10:46:01.000Z</time>
        <extensions>
          <ns3:TrackPointExtension>
            <ns3:hr>145</ns3:hr>
            <ns3:cad>0</ns3:cad>
          </ns3:TrackPointExtension>
        </extensions>
      </trkpt>
      <trkpt lat="52.30544510297477245330810546875" lon="1.61015714518725872039794921875">
        <ele>-453</ele>
        <time>2025-09-07T10:46:03.000Z</time>
        <extensions>
          <ns3:TrackPointExtension>
            <ns3:hr>145</ns3:hr>
            <ns3:cad>62</ns3:cad>
          </ns3:TrackPointExtension>
        </extensions>
      </trkpt>
      <trkpt lat="52.305440492928028106689453125" lon="1.61032880656421184539794921875">
        <ele>-453.600006103515625</ele>
        <time>2025-09-07T10:46:10.000Z</time>
        <extensions>
          <ns3:TrackPointExtension>
            <ns3:hr>144</ns3:hr>
            <ns3:cad>78</ns3:cad>
          </ns3:TrackPointExtension>
        </extensions>
      </trkpt>
      <trkpt lat="52.30544208548963069915771484375" lon="1.61051454953849315643310546875">
        <ele>-454</ele>
        <time>2025-09-07T10:46:17.000Z</time>
        <extensions>
          <ns3:TrackPointExtension>
            <ns3:hr>145</ns3:hr>
            <ns3:cad>80</ns3:cad>
          </ns3:TrackPointExtension>
        </extensions>
      </trkpt>
      <trkpt lat="52.3054480366408824920654296875" lon="1.61056266166269779205322265625">
        <ele>-454</ele>
        <time>2025-09-07T10:46:19.000Z</time>
        <extensions>
          <ns3:TrackPointExtension>
            <ns3:hr>148</ns3:hr>
            <ns3:cad>80</ns3:cad>
          </ns3:TrackPointExtension>
        </extensions>
      </trkpt>
      <trkpt lat="52.305461950600147247314453125" lon="1.61062024533748626708984375">
        <ele>-454.20001220703125</ele>
        <time>2025-09-07T10:46:21.000Z</time>
        <extensions>
          <ns3:TrackPointExtension>
            <ns3:hr>152</ns3:hr>
            <ns3:cad>81</ns3:cad>
          </ns3:TrackPointExtension>
        </extensions>
      </trkpt>
      <trkpt lat="52.305479384958744049072265625" lon="1.6107196547091007232666015625">
        <ele>-454.20001220703125</ele>
        <time>2025-09-07T10:46:24.000Z</time>
        <extensions>
          <ns3:TrackPointExtension>
            <ns3:hr>155</ns3:hr>
            <ns3:cad>80</ns3:cad>
          </ns3:TrackPointExtension>
        </extensions>
      </trkpt>
      <trkpt lat="52.305487431585788726806640625" lon="1.61078654229640960693359375">
        <ele>-454.20001220703125</ele>
        <time>2025-09-07T10:46:26.000Z</time>
        <extensions>
          <ns3:TrackPointExtension>
            <ns3:hr>155</ns3:hr>
            <ns3:cad>80</ns3:cad>
          </ns3:TrackPointExtension>
        </extensions>
      </trkpt>
      <trkpt lat="52.305521629750728607177734375" lon="1.6109479777514934539794921875">
        <ele>-454</ele>
        <time>2025-09-07T10:46:32.000Z</time>
        <extensions>
          <ns3:TrackPointExtension>
            <ns3:hr>158</ns3:hr>
            <ns3:cad>81</ns3:cad>
          </ns3:TrackPointExtension>
        </extensions>
      </trkpt>
      <trkpt lat="52.30552037246525287628173828125" lon="1.6109816730022430419921875">
        <ele>-454</ele>
        <time>2025-09-07T10:46:33.000Z</time>
        <extensions>
          <ns3:TrackPointExtension>
            <ns3:hr>159</ns3:hr>
            <ns3:cad>81</ns3:cad>
          </ns3:TrackPointExtension>
        </extensions>
      </trkpt>
      <trkpt lat="52.30553160421550273895263671875" lon="1.6112029552459716796875">
        <ele>-453.399993896484375</ele>
        <time>2025-09-07T10:46:39.000Z</time>
        <extensions>
          <ns3:TrackPointExtension>
            <ns3:hr>158</ns3:hr>
            <ns3:cad>80</ns3:cad>
          </ns3:TrackPointExtension>
        </extensions>
      </trkpt>
      <trkpt lat="52.305547110736370086669921875" lon="1.61129943095147609710693359375">
        <ele>-452.79998779296875</ele>
        <time>2025-09-07T10:46:42.000Z</time>
        <extensions>
          <ns3:TrackPointExtension>
            <ns3:hr>159</ns3:hr>
            <ns3:cad>80</ns3:cad>
          </ns3:TrackPointExtension>
        </extensions>
      </trkpt>
      <trkpt lat="52.30558960698544979095458984375" lon="1.61146773956716060638427734375">
        <ele>-451.79998779296875</ele>
        <time>2025-09-07T10:46:48.000Z</time>
        <extensions>
          <ns3:TrackPointExtension>
            <ns3:hr>161</ns3:hr>
            <ns3:cad>80</ns3:cad>
          </ns3:TrackPointExtension>
        </extensions>
      </trkpt>
      <trkpt lat="52.30559279210865497589111328125" lon="1.611492633819580078125">
        <ele>-451.600006103515625</ele>
        <time>2025-09-07T10:46:49.000Z</time>
        <extensions>
          <ns3:TrackPointExtension>
            <ns3:hr>155</ns3:hr>
            <ns3:cad>80</ns3:cad>
          </ns3:TrackPointExtension>
        </extensions>
      </trkpt>
      <trkpt lat="52.3055989108979701995849609375" lon="1.61151836626231670379638671875">
        <ele>-451.399993896484375</ele>
        <time>2025-09-07T10:46:50.000Z</time>
        <extensions>
          <ns3:TrackPointExtension>
            <ns3:hr>155</ns3:hr>
            <ns3:cad>81</ns3:cad>
          </ns3:TrackPointExtension>
        </extensions>
      </trkpt>
      <trkpt lat="52.3056066222488880157470703125" lon="1.6116307675838470458984375">
        <ele>-450.600006103515625</ele>
        <time>2025-09-07T10:46:54.000Z</time>
        <extensions>
          <ns3:TrackPointExtension>
            <ns3:hr>156</ns3:hr>
            <ns3:cad>81</ns3:cad>
          </ns3:TrackPointExtension>
        </extensions>
      </trkpt>
      <trkpt lat="52.3056091368198394775390625" lon="1.6116986609995365142822265625">
        <ele>-450.20001220703125</ele>
        <time>2025-09-07T10:46:56.000Z</time>
        <extensions>
          <ns3:TrackPointExtension>
            <ns3:hr>156</ns3:hr>
            <ns3:cad>81</ns3:cad>
          </ns3:TrackPointExtension>
        </extensions>
      </trkpt>
      <trkpt lat="52.305565215647220611572265625" lon="1.6118351183831691741943359375">
        <ele>-449.600006103515625</ele>
        <time>2025-09-07T10:46:59.000Z</time>
        <extensions>
          <ns3:TrackPointExtension>
            <ns3:hr>156</ns3:hr>
            <ns3:cad>81</ns3:cad>
          </ns3:TrackPointExtension>
        </extensions>
      </trkpt>
      <trkpt lat="52.30555406771600246429443359375" lon="1.61197735927999019622802734375">
        <ele>-448.600006103515625</ele>
        <time>2025-09-07T10:47:03.000Z</time>
        <extensions>
          <ns3:TrackPointExtension>
            <ns3:hr>156</ns3:hr>
            <ns3:cad>81</ns3:cad>
          </ns3:TrackPointExtension>
        </extensions>
      </trkpt>
      <trkpt lat="52.3055563308298587799072265625" lon="1.6120057739317417144775390625">
        <ele>-448.399993896484375</ele>
        <time>2025-09-07T10:47:04.000Z</time>
        <extensions>
          <ns3:TrackPointExtension>
            <ns3:hr>157</ns3:hr>
            <ns3:cad>82</ns3:cad>
          </ns3:TrackPointExtension>
        </extensions>
      </trkpt>
      <trkpt lat="52.30558457784354686737060546875" lon="1.61211289465427398681640625">
        <ele>-447.399993896484375</ele>
        <time>2025-09-07T10:47:08.000Z</time>
        <extensions>
          <ns3:TrackPointExtension>
            <ns3:hr>157</ns3:hr>
            <ns3:cad>81</ns3:cad>
          </ns3:TrackPointExtension>
        </extensions>
      </trkpt>
      <trkpt lat="52.30560285039246082305908203125" lon="1.6121623478829860687255859375">
        <ele>-446.79998779296875</ele>
        <time>2025-09-07T10:47:10.000Z</time>
        <extensions>
          <ns3:TrackPointExtension>
            <ns3:hr>157</ns3:hr>
            <ns3:cad>81</ns3:cad>
          </ns3:TrackPointExtension>
        </extensions>
      </trkpt>
      <trkpt lat="52.30562145821750164031982421875" lon="1.61221708171069622039794921875">
        <ele>-446.20001220703125</ele>
        <time>2025-09-07T10:47:12.000Z</time>
        <extensions>
          <ns3:TrackPointExtension>
            <ns3:hr>158</ns3:hr>
            <ns3:cad>81</ns3:cad>
          </ns3:TrackPointExtension>
        </extensions>
      </trkpt>
      <trkpt lat="52.3056374676525592803955078125" lon="1.61233006976544857025146484375">
        <ele>-445</ele>
        <time>2025-09-07T10:47:16.000Z</time>
        <extensions>
          <ns3:TrackPointExtension>
            <ns3:hr>157</ns3:hr>
            <ns3:cad>81</ns3:cad>
          </ns3:TrackPointExtension>
        </extensions>
      </trkpt>
      <trkpt lat="52.30564023368060588836669921875" lon="1.61235789768397808074951171875">
        <ele>-444.600006103515625</ele>
        <time>2025-09-07T10:47:17.000Z</time>
        <extensions>
          <ns3:TrackPointExtension>
            <ns3:hr>157</ns3:hr>
            <ns3:cad>81</ns3:cad>
          </ns3:TrackPointExtension>
        </extensions>
      </trkpt>
      <trkpt lat="52.30564828030765056610107421875" lon="1.61245219409465789794921875">
        <ele>-443.600006103515625</ele>
        <time>2025-09-07T10:47:20.000Z</time>
        <extensions>
          <ns3:TrackPointExtension>
            <ns3:hr>156</ns3:hr>
            <ns3:cad>80</ns3:cad>
          </ns3:TrackPointExtension>
        </extensions>
      </trkpt>
      <trkpt lat="52.3056493699550628662109375" lon="1.61257155239582061767578125">
        <ele>-442.600006103515625</ele>
        <time>2025-09-07T10:47:23.000Z</time>
        <extensions>
          <ns3:TrackPointExtension>
            <ns3:hr>156</ns3:hr>
            <ns3:cad>80</ns3:cad>
          </ns3:TrackPointExtension>
        </extensions>
      </trkpt>
      <trkpt lat="52.305650375783443450927734375" lon="1.61260700784623622894287109375">
        <ele>-442.20001220703125</ele>
        <time>2025-09-07T10:47:24.000Z</time>
        <extensions>
          <ns3:TrackPointExtension>
            <ns3:hr>157</ns3:hr>
            <ns3:cad>80</ns3:cad>
          </ns3:TrackPointExtension>
        </extensions>
      </trkpt>
      <trkpt lat="52.30564375407993793487548828125" lon="1.61272217519581317901611328125">
        <ele>-441.20001220703125</ele>
        <time>2025-09-07T10:47:27.000Z</time>
        <extensions>
          <ns3:TrackPointExtension>
            <ns3:hr>157</ns3:hr>
            <ns3:cad>80</ns3:cad>
          </ns3:TrackPointExtension>
        </extensions>
      </trkpt>
      <trkpt lat="52.30564526282250881195068359375" lon="1.61279476247727870941162109375">
        <ele>-440.600006103515625</ele>
        <time>2025-09-07T10:47:29.000Z</time>
        <extensions>
          <ns3:TrackPointExtension>
            <ns3:hr>154</ns3:hr>
            <ns3:cad>80</ns3:cad>
          </ns3:TrackPointExtension>
        </extensions>
      </trkpt>
      <trkpt lat="52.305648028850555419921875" lon="1.612871624529361724853515625">
        <ele>-440</ele>
        <time>2025-09-07T10:47:31.000Z</time>
        <extensions>
          <ns3:TrackPointExtension>
            <ns3:hr>155</ns3:hr>
            <ns3:cad>80</ns3:cad>
          </ns3:TrackPointExtension>
        </extensions>
      </trkpt>
      <trkpt lat="52.30564199388027191162109375" lon="1.61291596479713916778564453125">
        <ele>-439.600006103515625</ele>
        <time>2025-09-07T10:47:32.000Z</time>
        <extensions>
          <ns3:TrackPointExtension>
            <ns3:hr>152</ns3:hr>
            <ns3:cad>80</ns3:cad>
          </ns3:TrackPointExtension>
        </extensions>
      </trkpt>
      <trkpt lat="52.305645011365413665771484375" lon="1.61295100115239620208740234375">
        <ele>-439.399993896484375</ele>
        <time>2025-09-07T10:47:33.000Z</time>
        <extensions>
          <ns3:TrackPointExtension>
            <ns3:hr>156</ns3:hr>
            <ns3:cad>80</ns3:cad>
          </ns3:TrackPointExtension>
        </extensions>
      </trkpt>
      <trkpt lat="52.305655069649219512939453125" lon="1.6130216605961322784423828125">
        <ele>-438.79998779296875</ele>
        <time>2025-09-07T10:47:35.000Z</time>
        <extensions>
          <ns3:TrackPointExtension>
            <ns3:hr>155</ns3:hr>
            <ns3:cad>80</ns3:cad>
          </ns3:TrackPointExtension>
        </extensions>
      </trkpt>
      <trkpt lat="52.305653393268585205078125" lon="1.61317932419478893280029296875">
        <ele>-437.79998779296875</ele>
        <time>2025-09-07T10:47:39.000Z</time>
        <extensions>
          <ns3:TrackPointExtension>
            <ns3:hr>152</ns3:hr>
            <ns3:cad>81</ns3:cad>
          </ns3:TrackPointExtension>
        </extensions>
      </trkpt>
      <trkpt lat="52.3056518845260143280029296875" lon="1.6132211498916149139404296875">
        <ele>-437.600006103515625</ele>
        <time>2025-09-07T10:47:40.000Z</time>
        <extensions>
          <ns3:TrackPointExtension>
            <ns3:hr>152</ns3:hr>
            <ns3:cad>81</ns3:cad>
          </ns3:TrackPointExtension>
        </extensions>
      </trkpt>
      <trkpt lat="52.30565398000180721282958984375" lon="1.61329708993434906005859375">
        <ele>-437</ele>
        <time>2025-09-07T10:47:42.000Z</time>
        <extensions>
          <ns3:TrackPointExtension>
            <ns3:hr>155</ns3:hr>
            <ns3:cad>81</ns3:cad>
          </ns3:TrackPointExtension>
        </extensions>
      </trkpt>
      <trkpt lat="52.30564626865088939666748046875" lon="1.6133753769099712371826171875">
        <ele>-436.600006103515625</ele>
        <time>2025-09-07T10:47:44.000Z</time>
        <extensions>
          <ns3:TrackPointExtension>
            <ns3:hr>153</ns3:hr>
            <ns3:cad>80</ns3:cad>
          </ns3:TrackPointExtension>
        </extensions>
      </trkpt>
      <trkpt lat="52.3056381382048130035400390625" lon="1.613485515117645263671875">
        <ele>-436.20001220703125</ele>
        <time>2025-09-07T10:47:47.000Z</time>
        <extensions>
          <ns3:TrackPointExtension>
            <ns3:hr>152</ns3:hr>
            <ns3:cad>80</ns3:cad>
          </ns3:TrackPointExtension>
        </extensions>
      </trkpt>
      <trkpt lat="52.30562916956841945648193359375" lon="1.613589115440845489501953125">
        <ele>-435.600006103515625</ele>
        <time>2025-09-07T10:47:50.000Z</time>
        <extensions>
          <ns3:TrackPointExtension>
            <ns3:hr>153</ns3:hr>
            <ns3:cad>81</ns3:cad>
          </ns3:TrackPointExtension>
        </extensions>
      </trkpt>
      <trkpt lat="52.30563486926257610321044921875" lon="1.61374510265886783599853515625">
        <ele>-435</ele>
        <time>2025-09-07T10:47:55.000Z</time>
        <extensions>
          <ns3:TrackPointExtension>
            <ns3:hr>155</ns3:hr>
            <ns3:cad>81</ns3:cad>
          </ns3:TrackPointExtension>
        </extensions>
      </trkpt>
      <trkpt lat="52.30563671328127384185791015625" lon="1.61384283564984798431396484375">
        <ele>-434.600006103515625</ele>
        <time>2025-09-07T10:47:58.000Z</time>
        <extensions>
          <ns3:TrackPointExtension>
            <ns3:hr>154</ns3:hr>
            <ns3:cad>80</ns3:cad>
          </ns3:TrackPointExtension>
        </extensions>
      </trkpt>
      <trkpt lat="52.30564995668828487396240234375" lon="1.61402128636837005615234375">
        <ele>-433.79998779296875</ele>
        <time>2025-09-07T10:48:04.000Z</time>
        <extensions>
          <ns3:TrackPointExtension>
            <ns3:hr>153</ns3:hr>
            <ns3:cad>80</ns3:cad>
          </ns3:TrackPointExtension>
        </extensions>
      </trkpt>
      <trkpt lat="52.30565481819212436676025390625" lon="1.614112146198749542236328125">
        <ele>-433.399993896484375</ele>
        <time>2025-09-07T10:48:07.000Z</time>
        <extensions>
          <ns3:TrackPointExtension>
            <ns3:hr>153</ns3:hr>
            <ns3:cad>81</ns3:cad>
          </ns3:TrackPointExtension>
        </extensions>
      </trkpt>
      <trkpt lat="52.3056761920452117919921875" lon="1.61422655917704105377197265625">
        <ele>-433</ele>
        <time>2025-09-07T10:48:11.000Z</time>
        <extensions>
          <ns3:TrackPointExtension>
            <ns3:hr>154</ns3:hr>
            <ns3:cad>81</ns3:cad>
          </ns3:TrackPointExtension>
        </extensions>
      </trkpt>
      <trkpt lat="52.30571533553302288055419921875" lon="1.6143329255282878875732421875">
        <ele>-432.600006103515625</ele>
        <time>2025-09-07T10:48:15.000Z</time>
        <extensions>
          <ns3:TrackPointExtension>
            <ns3:hr>158</ns3:hr>
            <ns3:cad>81</ns3:cad>
          </ns3:TrackPointExtension>
        </extensions>
      </trkpt>
      <trkpt lat="52.30572388507425785064697265625" lon="1.614359915256500244140625">
        <ele>-432.399993896484375</ele>
        <time>2025-09-07T10:48:16.000Z</time>
        <extensions>
          <ns3:TrackPointExtension>
            <ns3:hr>155</ns3:hr>
            <ns3:cad>81</ns3:cad>
          </ns3:TrackPointExtension>
        </extensions>
      </trkpt>
      <trkpt lat="52.30574752204120159149169921875" lon="1.6144229471683502197265625">
        <ele>-432.20001220703125</ele>
        <time>2025-09-07T10:48:18.000Z</time>
        <extensions>
          <ns3:TrackPointExtension>
            <ns3:hr>155</ns3:hr>
            <ns3:cad>81</ns3:cad>
          </ns3:TrackPointExtension>
        </extensions>
      </trkpt>
      <trkpt lat="52.30579982511699199676513671875" lon="1.61460223607718944549560546875">
        <ele>-431.399993896484375</ele>
        <time>2025-09-07T10:48:24.000Z</time>
        <extensions>
          <ns3:TrackPointExtension>
            <ns3:hr>152</ns3:hr>
            <ns3:cad>80</ns3:cad>
          </ns3:TrackPointExtension>
        </extensions>
      </trkpt>
      <trkpt lat="52.3058111406862735748291015625" lon="1.61463509313762187957763671875">
        <ele>-431.399993896484375</ele>
        <time>2025-09-07T10:48:25.000Z</time>
        <extensions>
          <ns3:TrackPointExtension>
            <ns3:hr>152</ns3:hr>
            <ns3:cad>80</ns3:cad>
          </ns3:TrackPointExtension>
        </extensions>
      </trkpt>
      <trkpt lat="52.30581155978143215179443359375" lon="1.61466233432292938232421875">
        <ele>-431.20001220703125</ele>
        <time>2025-09-07T10:48:26.000Z</time>
        <extensions>
          <ns3:TrackPointExtension>
            <ns3:hr>152</ns3:hr>
            <ns3:cad>80</ns3:cad>
          </ns3:TrackPointExtension>
        </extensions>
      </trkpt>
      <trkpt lat="52.30579060502350330352783203125" lon="1.614807508885860443115234375">
        <ele>-430.79998779296875</ele>
        <time>2025-09-07T10:48:31.000Z</time>
        <extensions>
          <ns3:TrackPointExtension>
            <ns3:hr>152</ns3:hr>
            <ns3:cad>81</ns3:cad>
          </ns3:TrackPointExtension>
        </extensions>
      </trkpt>
      <trkpt lat="52.30582530610263347625732421875" lon="1.6150349937379360198974609375">
        <ele>-430.399993896484375</ele>
        <time>2025-09-07T10:48:38.000Z</time>
        <extensions>
          <ns3:TrackPointExtension>
            <ns3:hr>153</ns3:hr>
            <ns3:cad>81</ns3:cad>
          </ns3:TrackPointExtension>
        </extensions>
      </trkpt>
      <trkpt lat="52.3058827221393585205078125" lon="1.6152787394821643829345703125">
        <ele>-430.399993896484375</ele>
        <time>2025-09-07T10:48:46.000Z</time>
        <extensions>
          <ns3:TrackPointExtension>
            <ns3:hr>154</ns3:hr>
            <ns3:cad>81</ns3:cad>
          </ns3:TrackPointExtension>
        </extensions>
      </trkpt>
      <trkpt lat="52.305909879505634307861328125" lon="1.615553833544254302978515625">
        <ele>-430.399993896484375</ele>
        <time>2025-09-07T10:48:54.000Z</time>
        <extensions>
          <ns3:TrackPointExtension>
            <ns3:hr>154</ns3:hr>
            <ns3:cad>82</ns3:cad>
          </ns3:TrackPointExtension>
        </extensions>
      </trkpt>
      <trkpt lat="52.305953465402126312255859375" lon="1.61581761203706264495849609375">
        <ele>-430.600006103515625</ele>
        <time>2025-09-07T10:49:02.000Z</time>
        <extensions>
          <ns3:TrackPointExtension>
            <ns3:hr>154</ns3:hr>
            <ns3:cad>81</ns3:cad>
          </ns3:TrackPointExtension>
        </extensions>
      </trkpt>
      <trkpt lat="52.30601054616272449493408203125" lon="1.61604367196559906005859375">
        <ele>-430.79998779296875</ele>
        <time>2025-09-07T10:49:09.000Z</time>
        <extensions>
          <ns3:TrackPointExtension>
            <ns3:hr>154</ns3:hr>
            <ns3:cad>81</ns3:cad>
          </ns3:TrackPointExtension>
        </extensions>
      </trkpt>
      <trkpt lat="52.30607022531330585479736328125" lon="1.61635019816458225250244140625">
        <ele>-430.600006103515625</ele>
        <time>2025-09-07T10:49:18.000Z</time>
        <extensions>
          <ns3:TrackPointExtension>
            <ns3:hr>155</ns3:hr>
            <ns3:cad>82</ns3:cad>
          </ns3:TrackPointExtension>
        </extensions>
      </trkpt>
      <trkpt lat="52.30610190890729427337646484375" lon="1.61654214374721050262451171875">
        <ele>-430.20001220703125</ele>
        <time>2025-09-07T10:49:24.000Z</time>
        <extensions>
          <ns3:TrackPointExtension>
            <ns3:hr>155</ns3:hr>
            <ns3:cad>82</ns3:cad>
          </ns3:TrackPointExtension>
        </extensions>
      </trkpt>
      <trkpt lat="52.30611381120979785919189453125" lon="1.61664272658526897430419921875">
        <ele>-430</ele>
        <time>2025-09-07T10:49:27.000Z</time>
        <extensions>
          <ns3:TrackPointExtension>
            <ns3:hr>154</ns3:hr>
            <ns3:cad>81</ns3:cad>
          </ns3:TrackPointExtension>
        </extensions>
      </trkpt>
      <trkpt lat="52.30613359250128269195556640625" lon="1.61688261665403842926025390625">
        <ele>-429.399993896484375</ele>
        <time>2025-09-07T10:49:35.000Z</time>
        <extensions>
          <ns3:TrackPointExtension>
            <ns3:hr>153</ns3:hr>
            <ns3:cad>81</ns3:cad>
          </ns3:TrackPointExtension>
        </extensions>
      </trkpt>
      <trkpt lat="52.30614046566188335418701171875" lon="1.61696660332381725311279296875">
        <ele>-429.20001220703125</ele>
        <time>2025-09-07T10:49:38.000Z</time>
        <extensions>
          <ns3:TrackPointExtension>
            <ns3:hr>153</ns3:hr>
            <ns3:cad>81</ns3:cad>
          </ns3:TrackPointExtension>
        </extensions>
      </trkpt>
      <trkpt lat="52.3061504401266574859619140625" lon="1.61709107458591461181640625">
        <ele>-429</ele>
        <time>2025-09-07T10:49:42.000Z</time>
        <extensions>
          <ns3:TrackPointExtension>
            <ns3:hr>153</ns3:hr>
            <ns3:cad>81</ns3:cad>
          </ns3:TrackPointExtension>
        </extensions>
      </trkpt>
      <trkpt lat="52.30617416091263294219970703125" lon="1.61733624525368213653564453125">
        <ele>-428.20001220703125</ele>
        <time>2025-09-07T10:49:50.000Z</time>
        <extensions>
          <ns3:TrackPointExtension>
            <ns3:hr>153</ns3:hr>
            <ns3:cad>80</ns3:cad>
          </ns3:TrackPointExtension>
        </extensions>
      </trkpt>
      <trkpt lat="52.30617441236972808837890625" lon="1.6173678450286388397216796875">
        <ele>-428.20001220703125</ele>
        <time>2025-09-07T10:49:51.000Z</time>
        <extensions>
          <ns3:TrackPointExtension>
            <ns3:hr>153</ns3:hr>
            <ns3:cad>80</ns3:cad>
          </ns3:TrackPointExtension>
        </extensions>
      </trkpt>
      <trkpt lat="52.30618706904351711273193359375" lon="1.61763715557754039764404296875">
        <ele>-427.399993896484375</ele>
        <time>2025-09-07T10:49:59.000Z</time>
        <extensions>
          <ns3:TrackPointExtension>
            <ns3:hr>152</ns3:hr>
            <ns3:cad>81</ns3:cad>
          </ns3:TrackPointExtension>
        </extensions>
      </trkpt>
      <trkpt lat="52.30621020309627056121826171875" lon="1.61780898459255695343017578125">
        <ele>-427.20001220703125</ele>
        <time>2025-09-07T10:50:04.000Z</time>
        <extensions>
          <ns3:TrackPointExtension>
            <ns3:hr>153</ns3:hr>
            <ns3:cad>81</ns3:cad>
          </ns3:TrackPointExtension>
        </extensions>
      </trkpt>
      <trkpt lat="52.30621975846588611602783203125" lon="1.6179686598479747772216796875">
        <ele>-427</ele>
        <time>2025-09-07T10:50:09.000Z</time>
        <extensions>
          <ns3:TrackPointExtension>
            <ns3:hr>154</ns3:hr>
            <ns3:cad>81</ns3:cad>
          </ns3:TrackPointExtension>
        </extensions>
      </trkpt>
      <trkpt lat="52.30624021030962467193603515625" lon="1.61823235452175140380859375">
        <ele>-427</ele>
        <time>2025-09-07T10:50:17.000Z</time>
        <extensions>
          <ns3:TrackPointExtension>
            <ns3:hr>153</ns3:hr>
            <ns3:cad>81</ns3:cad>
          </ns3:TrackPointExtension>
        </extensions>
      </trkpt>
      <trkpt lat="52.3062691278755664825439453125" lon="1.61849009804427623748779296875">
        <ele>-427.399993896484375</ele>
        <time>2025-09-07T10:50:25.000Z</time>
        <extensions>
          <ns3:TrackPointExtension>
            <ns3:hr>153</ns3:hr>
            <ns3:cad>81</ns3:cad>
          </ns3:TrackPointExtension>
        </extensions>
      </trkpt>
      <trkpt lat="52.30627692304551601409912109375" lon="1.6187131404876708984375">
        <ele>-428</ele>
        <time>2025-09-07T10:50:32.000Z</time>
        <extensions>
          <ns3:TrackPointExtension>
            <ns3:hr>153</ns3:hr>
            <ns3:cad>81</ns3:cad>
          </ns3:TrackPointExtension>
        </extensions>
      </trkpt>
      <trkpt lat="52.3062781803309917449951171875" lon="1.6187471710145473480224609375">
        <ele>-428.20001220703125</ele>
        <time>2025-09-07T10:50:33.000Z</time>
        <extensions>
          <ns3:TrackPointExtension>
            <ns3:hr>153</ns3:hr>
            <ns3:cad>81</ns3:cad>
          </ns3:TrackPointExtension>
        </extensions>
      </trkpt>
      <trkpt lat="52.3062984645366668701171875" lon="1.618970967829227447509765625">
        <ele>-429</ele>
        <time>2025-09-07T10:50:40.000Z</time>
        <extensions>
          <ns3:TrackPointExtension>
            <ns3:hr>154</ns3:hr>
            <ns3:cad>82</ns3:cad>
          </ns3:TrackPointExtension>
        </extensions>
      </trkpt>
      <trkpt lat="52.30630240403115749359130859375" lon="1.6190039925277233123779296875">
        <ele>-429.20001220703125</ele>
        <time>2025-09-07T10:50:41.000Z</time>
        <extensions>
          <ns3:TrackPointExtension>
            <ns3:hr>154</ns3:hr>
            <ns3:cad>81</ns3:cad>
          </ns3:TrackPointExtension>
        </extensions>
      </trkpt>
      <trkpt lat="52.3063355125486850738525390625" lon="1.61920675076544284820556640625">
        <ele>-430</ele>
        <time>2025-09-07T10:50:47.000Z</time>
        <extensions>
          <ns3:TrackPointExtension>
            <ns3:hr>153</ns3:hr>
            <ns3:cad>81</ns3:cad>
          </ns3:TrackPointExtension>
        </extensions>
      </trkpt>
      <trkpt lat="52.30633609928190708160400390625" lon="1.619241535663604736328125">
        <ele>-430.20001220703125</ele>
        <time>2025-09-07T10:50:48.000Z</time>
        <extensions>
          <ns3:TrackPointExtension>
            <ns3:hr>153</ns3:hr>
            <ns3:cad>81</ns3:cad>
          </ns3:TrackPointExtension>
        </extensions>
      </trkpt>
      <trkpt lat="52.3063395358622074127197265625" lon="1.61945267580449581146240234375">
        <ele>-431.20001220703125</ele>
        <time>2025-09-07T10:50:54.000Z</time>
        <extensions>
          <ns3:TrackPointExtension>
            <ns3:hr>150</ns3:hr>
            <ns3:cad>81</ns3:cad>
          </ns3:TrackPointExtension>
        </extensions>
      </trkpt>
      <trkpt lat="52.306341715157032012939453125" lon="1.61948804743587970733642578125">
        <ele>-431.399993896484375</ele>
        <time>2025-09-07T10:50:55.000Z</time>
        <extensions>
          <ns3:TrackPointExtension>
            <ns3:hr>151</ns3:hr>
            <ns3:cad>80</ns3:cad>
          </ns3:TrackPointExtension>
        </extensions>
      </trkpt>
      <trkpt lat="52.30634230189025402069091796875" lon="1.61969122476875782012939453125">
        <ele>-432.600006103515625</ele>
        <time>2025-09-07T10:51:01.000Z</time>
        <extensions>
          <ns3:TrackPointExtension>
            <ns3:hr>153</ns3:hr>
            <ns3:cad>81</ns3:cad>
          </ns3:TrackPointExtension>
        </extensions>
      </trkpt>
      <trkpt lat="52.3063449002802371978759765625" lon="1.61979616619646549224853515625">
        <ele>-433.20001220703125</ele>
        <time>2025-09-07T10:51:04.000Z</time>
        <extensions>
          <ns3:TrackPointExtension>
            <ns3:hr>153</ns3:hr>
            <ns3:cad>80</ns3:cad>
          </ns3:TrackPointExtension>
        </extensions>
      </trkpt>
      <trkpt lat="52.30634951032698154449462890625" lon="1.619862802326679229736328125">
        <ele>-433.600006103515625</ele>
        <time>2025-09-07T10:51:06.000Z</time>
        <extensions>
          <ns3:TrackPointExtension>
            <ns3:hr>153</ns3:hr>
            <ns3:cad>81</ns3:cad>
          </ns3:TrackPointExtension>
        </extensions>
      </trkpt>
      <trkpt lat="52.3063636757433414459228515625" lon="1.6200262494385242462158203125">
        <ele>-434.79998779296875</ele>
        <time>2025-09-07T10:51:11.000Z</time>
        <extensions>
          <ns3:TrackPointExtension>
            <ns3:hr>155</ns3:hr>
            <ns3:cad>82</ns3:cad>
          </ns3:TrackPointExtension>
        </extensions>
      </trkpt>
      <trkpt lat="52.30636325664818286895751953125" lon="1.62015792913734912872314453125">
        <ele>-435.79998779296875</ele>
        <time>2025-09-07T10:51:15.000Z</time>
        <extensions>
          <ns3:TrackPointExtension>
            <ns3:hr>154</ns3:hr>
            <ns3:cad>82</ns3:cad>
          </ns3:TrackPointExtension>
        </extensions>
      </trkpt>
      <trkpt lat="52.306369878351688385009765625" lon="1.6202917881309986114501953125">
        <ele>-437</ele>
        <time>2025-09-07T10:51:19.000Z</time>
        <extensions>
          <ns3:TrackPointExtension>
            <ns3:hr>156</ns3:hr>
            <ns3:cad>81</ns3:cad>
          </ns3:TrackPointExtension>
        </extensions>
      </trkpt>
      <trkpt lat="52.306374572217464447021484375" lon="1.62032045423984527587890625">
        <ele>-437.20001220703125</ele>
        <time>2025-09-07T10:51:20.000Z</time>
        <extensions>
          <ns3:TrackPointExtension>
            <ns3:hr>154</ns3:hr>
            <ns3:cad>81</ns3:cad>
          </ns3:TrackPointExtension>
        </extensions>
      </trkpt>
      <trkpt lat="52.30639276094734668731689453125" lon="1.620411314070224761962890625">
        <ele>-438</ele>
        <time>2025-09-07T10:51:23.000Z</time>
        <extensions>
          <ns3:TrackPointExtension>
            <ns3:hr>154</ns3:hr>
            <ns3:cad>81</ns3:cad>
          </ns3:TrackPointExtension>
        </extensions>
      </trkpt>
      <trkpt lat="52.3063842952251434326171875" lon="1.62054131738841533660888671875">
        <ele>-439.20001220703125</ele>
        <time>2025-09-07T10:51:27.000Z</time>
        <extensions>
          <ns3:TrackPointExtension>
            <ns3:hr>154</ns3:hr>
            <ns3:cad>81</ns3:cad>
          </ns3:TrackPointExtension>
        </extensions>
      </trkpt>
      <trkpt lat="52.30638588778674602508544921875" lon="1.62057216279208660125732421875">
        <ele>-439.600006103515625</ele>
        <time>2025-09-07T10:51:28.000Z</time>
        <extensions>
          <ns3:TrackPointExtension>
            <ns3:hr>154</ns3:hr>
            <ns3:cad>81</ns3:cad>
          </ns3:TrackPointExtension>
        </extensions>
      </trkpt>
      <trkpt lat="52.30638789944350719451904296875" lon="1.62066872231662273406982421875">
        <ele>-440.600006103515625</ele>
        <time>2025-09-07T10:51:31.000Z</time>
        <extensions>
          <ns3:TrackPointExtension>
            <ns3:hr>152</ns3:hr>
            <ns3:cad>81</ns3:cad>
          </ns3:TrackPointExtension>
        </extensions>
      </trkpt>
      <trkpt lat="52.30639058165252208709716796875" lon="1.620807945728302001953125">
        <ele>-441.79998779296875</ele>
        <time>2025-09-07T10:51:35.000Z</time>
        <extensions>
          <ns3:TrackPointExtension>
            <ns3:hr>152</ns3:hr>
            <ns3:cad>80</ns3:cad>
          </ns3:TrackPointExtension>
        </extensions>
      </trkpt>
      <trkpt lat="52.30638957582414150238037109375" lon="1.6208439879119396209716796875">
        <ele>-442.20001220703125</ele>
        <time>2025-09-07T10:51:36.000Z</time>
        <extensions>
          <ns3:TrackPointExtension>
            <ns3:hr>153</ns3:hr>
            <ns3:cad>80</ns3:cad>
          </ns3:TrackPointExtension>
        </extensions>
      </trkpt>
      <trkpt lat="52.306401394307613372802734375" lon="1.62093778140842914581298828125">
        <ele>-443</ele>
        <time>2025-09-07T10:51:39.000Z</time>
        <extensions>
          <ns3:TrackPointExtension>
            <ns3:hr>153</ns3:hr>
            <ns3:cad>80</ns3:cad>
          </ns3:TrackPointExtension>
        </extensions>
      </trkpt>
      <trkpt lat="52.3064059205353260040283203125" lon="1.62105747498571872711181640625">
        <ele>-444.399993896484375</ele>
        <time>2025-09-07T10:51:43.000Z</time>
        <extensions>
          <ns3:TrackPointExtension>
            <ns3:hr>155</ns3:hr>
            <ns3:cad>80</ns3:cad>
          </ns3:TrackPointExtension>
        </extensions>
      </trkpt>
      <trkpt lat="52.306408099830150604248046875" lon="1.62117515690624713897705078125">
        <ele>-445.600006103515625</ele>
        <time>2025-09-07T10:51:47.000Z</time>
        <extensions>
          <ns3:TrackPointExtension>
            <ns3:hr>153</ns3:hr>
            <ns3:cad>81</ns3:cad>
          </ns3:TrackPointExtension>
        </extensions>
      </trkpt>
      <trkpt lat="52.30641178786754608154296875" lon="1.6212666034698486328125">
        <ele>-446.600006103515625</ele>
        <time>2025-09-07T10:51:50.000Z</time>
        <extensions>
          <ns3:TrackPointExtension>
            <ns3:hr>153</ns3:hr>
            <ns3:cad>81</ns3:cad>
          </ns3:TrackPointExtension>
        </extensions>
      </trkpt>
      <trkpt lat="52.306420840322971343994140625" lon="1.62133508361876010894775390625">
        <ele>-447.399993896484375</ele>
        <time>2025-09-07T10:51:52.000Z</time>
        <extensions>
          <ns3:TrackPointExtension>
            <ns3:hr>153</ns3:hr>
            <ns3:cad>81</ns3:cad>
          </ns3:TrackPointExtension>
        </extensions>
      </trkpt>
      <trkpt lat="52.30642008595168590545654296875" lon="1.621372215449810028076171875">
        <ele>-447.79998779296875</ele>
        <time>2025-09-07T10:51:53.000Z</time>
        <extensions>
          <ns3:TrackPointExtension>
            <ns3:hr>153</ns3:hr>
            <ns3:cad>81</ns3:cad>
          </ns3:TrackPointExtension>
        </extensions>
      </trkpt>
      <trkpt lat="52.30642561800777912139892578125" lon="1.621482856571674346923828125">
        <ele>-448.79998779296875</ele>
        <time>2025-09-07T10:51:56.000Z</time>
        <extensions>
          <ns3:TrackPointExtension>
            <ns3:hr>153</ns3:hr>
            <ns3:cad>81</ns3:cad>
          </ns3:TrackPointExtension>
        </extensions>
      </trkpt>
      <trkpt lat="52.306436598300933837890625" lon="1.62159123457968235015869140625">
        <ele>-449.79998779296875</ele>
        <time>2025-09-07T10:51:59.000Z</time>
        <extensions>
          <ns3:TrackPointExtension>
            <ns3:hr>153</ns3:hr>
            <ns3:cad>81</ns3:cad>
          </ns3:TrackPointExtension>
        </extensions>
      </trkpt>
      <trkpt lat="52.30643752031028270721435546875" lon="1.6216245107352733612060546875">
        <ele>-450.20001220703125</ele>
        <time>2025-09-07T10:52:00.000Z</time>
        <extensions>
          <ns3:TrackPointExtension>
            <ns3:hr>154</ns3:hr>
            <ns3:cad>81</ns3:cad>
          </ns3:TrackPointExtension>
        </extensions>
      </trkpt>
      <trkpt lat="52.3064438067376613616943359375" lon="1.62168226204812526702880859375">
        <ele>-451</ele>
        <time>2025-09-07T10:52:02.000Z</time>
        <extensions>
          <ns3:TrackPointExtension>
            <ns3:hr>154</ns3:hr>
            <ns3:cad>81</ns3:cad>
          </ns3:TrackPointExtension>
        </extensions>
      </trkpt>
      <trkpt lat="52.30645914562046527862548828125" lon="1.6217646561563014984130859375">
        <ele>-452</ele>
        <time>2025-09-07T10:52:05.000Z</time>
        <extensions>
          <ns3:TrackPointExtension>
            <ns3:hr>153</ns3:hr>
            <ns3:cad>81</ns3:cad>
          </ns3:TrackPointExtension>
        </extensions>
      </trkpt>
      <trkpt lat="52.30647523887455463409423828125" lon="1.62185576744377613067626953125">
        <ele>-453</ele>
        <time>2025-09-07T10:52:08.000Z</time>
        <extensions>
          <ns3:TrackPointExtension>
            <ns3:hr>153</ns3:hr>
            <ns3:cad>81</ns3:cad>
          </ns3:TrackPointExtension>
        </extensions>
      </trkpt>
      <trkpt lat="52.30649250559508800506591796875" lon="1.6219599545001983642578125">
        <ele>-454.20001220703125</ele>
        <time>2025-09-07T10:52:11.000Z</time>
        <extensions>
          <ns3:TrackPointExtension>
            <ns3:hr>152</ns3:hr>
            <ns3:cad>80</ns3:cad>
          </ns3:TrackPointExtension>
        </extensions>
      </trkpt>
      <trkpt lat="52.306491248309612274169921875" lon="1.6220503114163875579833984375">
        <ele>-455.20001220703125</ele>
        <time>2025-09-07T10:52:14.000Z</time>
        <extensions>
          <ns3:TrackPointExtension>
            <ns3:hr>152</ns3:hr>
            <ns3:cad>82</ns3:cad>
          </ns3:TrackPointExtension>
        </extensions>
      </trkpt>
      <trkpt lat="52.30649418197572231292724609375" lon="1.62212767638266086578369140625">
        <ele>-456.20001220703125</ele>
        <time>2025-09-07T10:52:17.000Z</time>
        <extensions>
          <ns3:TrackPointExtension>
            <ns3:hr>151</ns3:hr>
            <ns3:cad>82</ns3:cad>
          </ns3:TrackPointExtension>
        </extensions>
      </trkpt>
      <trkpt lat="52.30649082921445369720458984375" lon="1.622221134603023529052734375">
        <ele>-457.399993896484375</ele>
        <time>2025-09-07T10:52:20.000Z</time>
        <extensions>
          <ns3:TrackPointExtension>
            <ns3:hr>150</ns3:hr>
            <ns3:cad>82</ns3:cad>
          </ns3:TrackPointExtension>
        </extensions>
      </trkpt>
      <trkpt lat="52.306489907205104827880859375" lon="1.62225541658699512481689453125">
        <ele>-457.600006103515625</ele>
        <time>2025-09-07T10:52:21.000Z</time>
        <extensions>
          <ns3:TrackPointExtension>
            <ns3:hr>150</ns3:hr>
            <ns3:cad>82</ns3:cad>
          </ns3:TrackPointExtension>
        </extensions>
      </trkpt>
      <trkpt lat="52.306505329906940460205078125" lon="1.6223658062517642974853515625">
        <ele>-458.600006103515625</ele>
        <time>2025-09-07T10:52:24.000Z</time>
        <extensions>
          <ns3:TrackPointExtension>
            <ns3:hr>149</ns3:hr>
            <ns3:cad>81</ns3:cad>
          </ns3:TrackPointExtension>
        </extensions>
      </trkpt>
      <trkpt lat="52.30652703903615474700927734375" lon="1.62246622145175933837890625">
        <ele>-459.600006103515625</ele>
        <time>2025-09-07T10:52:27.000Z</time>
        <extensions>
          <ns3:TrackPointExtension>
            <ns3:hr>149</ns3:hr>
            <ns3:cad>82</ns3:cad>
          </ns3:TrackPointExtension>
        </extensions>
      </trkpt>
      <trkpt lat="52.30653374455869197845458984375" lon="1.62250050343573093414306640625">
        <ele>-460</ele>
        <time>2025-09-07T10:52:28.000Z</time>
        <extensions>
          <ns3:TrackPointExtension>
            <ns3:hr>149</ns3:hr>
            <ns3:cad>82</ns3:cad>
          </ns3:TrackPointExtension>
        </extensions>
      </trkpt>
      <trkpt lat="52.306544892489910125732421875" lon="1.62264165468513965606689453125">
        <ele>-461.20001220703125</ele>
        <time>2025-09-07T10:52:32.000Z</time>
        <extensions>
          <ns3:TrackPointExtension>
            <ns3:hr>149</ns3:hr>
            <ns3:cad>81</ns3:cad>
          </ns3:TrackPointExtension>
        </extensions>
      </trkpt>
      <trkpt lat="52.3065507598221302032470703125" lon="1.6227109730243682861328125">
        <ele>-461.79998779296875</ele>
        <time>2025-09-07T10:52:34.000Z</time>
        <extensions>
          <ns3:TrackPointExtension>
            <ns3:hr>150</ns3:hr>
            <ns3:cad>81</ns3:cad>
          </ns3:TrackPointExtension>
        </extensions>
      </trkpt>
      <trkpt lat="52.306550256907939910888671875" lon="1.622771658003330230712890625">
        <ele>-462.20001220703125</ele>
        <time>2025-09-07T10:52:36.000Z</time>
        <extensions>
          <ns3:TrackPointExtension>
            <ns3:hr>150</ns3:hr>
            <ns3:cad>81</ns3:cad>
          </ns3:TrackPointExtension>
        </extensions>
      </trkpt>
      <trkpt lat="52.30654162354767322540283203125" lon="1.622907109558582305908203125">
        <ele>-463.399993896484375</ele>
        <time>2025-09-07T10:52:40.000Z</time>
        <extensions>
          <ns3:TrackPointExtension>
            <ns3:hr>149</ns3:hr>
            <ns3:cad>80</ns3:cad>
          </ns3:TrackPointExtension>
        </extensions>
      </trkpt>
      <trkpt lat="52.3065433837473392486572265625" lon="1.62294340319931507110595703125">
        <ele>-463.79998779296875</ele>
        <time>2025-09-07T10:52:41.000Z</time>
        <extensions>
          <ns3:TrackPointExtension>
            <ns3:hr>149</ns3:hr>
            <ns3:cad>81</ns3:cad>
          </ns3:TrackPointExtension>
        </extensions>
      </trkpt>
      <trkpt lat="52.30655536986887454986572265625" lon="1.62300945259630680084228515625">
        <ele>-464.399993896484375</ele>
        <time>2025-09-07T10:52:43.000Z</time>
        <extensions>
          <ns3:TrackPointExtension>
            <ns3:hr>152</ns3:hr>
            <ns3:cad>82</ns3:cad>
          </ns3:TrackPointExtension>
        </extensions>
      </trkpt>
      <trkpt lat="52.30656140483915805816650390625" lon="1.6230340115725994110107421875">
        <ele>-464.600006103515625</ele>
        <time>2025-09-07T10:52:44.000Z</time>
        <extensions>
          <ns3:TrackPointExtension>
            <ns3:hr>150</ns3:hr>
            <ns3:cad>82</ns3:cad>
          </ns3:TrackPointExtension>
        </extensions>
      </trkpt>
      <trkpt lat="52.30658135376870632171630859375" lon="1.6231178306043148040771484375">
        <ele>-465.399993896484375</ele>
        <time>2025-09-07T10:52:47.000Z</time>
        <extensions>
          <ns3:TrackPointExtension>
            <ns3:hr>149</ns3:hr>
            <ns3:cad>81</ns3:cad>
          </ns3:TrackPointExtension>
        </extensions>
      </trkpt>
      <trkpt lat="52.30658076703548431396484375" lon="1.623153872787952423095703125">
        <ele>-465.79998779296875</ele>
        <time>2025-09-07T10:52:48.000Z</time>
        <extensions>
          <ns3:TrackPointExtension>
            <ns3:hr>149</ns3:hr>
            <ns3:cad>81</ns3:cad>
          </ns3:TrackPointExtension>
        </extensions>
      </trkpt>
      <trkpt lat="52.30658537708222866058349609375" lon="1.6232769191265106201171875">
        <ele>-466.79998779296875</ele>
        <time>2025-09-07T10:52:52.000Z</time>
        <extensions>
          <ns3:TrackPointExtension>
            <ns3:hr>148</ns3:hr>
            <ns3:cad>81</ns3:cad>
          </ns3:TrackPointExtension>
        </extensions>
      </trkpt>
      <trkpt lat="52.3065800964832305908203125" lon="1.62336878478527069091796875">
        <ele>-467.600006103515625</ele>
        <time>2025-09-07T10:52:55.000Z</time>
        <extensions>
          <ns3:TrackPointExtension>
            <ns3:hr>148</ns3:hr>
            <ns3:cad>80</ns3:cad>
          </ns3:TrackPointExtension>
        </extensions>
      </trkpt>
      <trkpt lat="52.3065789230167865753173828125" lon="1.62340071983635425567626953125">
        <ele>-468</ele>
        <time>2025-09-07T10:52:56.000Z</time>
        <extensions>
          <ns3:TrackPointExtension>
            <ns3:hr>148</ns3:hr>
            <ns3:cad>80</ns3:cad>
          </ns3:TrackPointExtension>
        </extensions>
      </trkpt>
      <trkpt lat="52.3065728880465030670166015625" lon="1.62355377338826656341552734375">
        <ele>-469</ele>
        <time>2025-09-07T10:53:00.000Z</time>
        <extensions>
          <ns3:TrackPointExtension>
            <ns3:hr>146</ns3:hr>
            <ns3:cad>81</ns3:cad>
          </ns3:TrackPointExtension>
        </extensions>
      </trkpt>
      <trkpt lat="52.30657028965651988983154296875" lon="1.62362099625170230865478515625">
        <ele>-469.399993896484375</ele>
        <time>2025-09-07T10:53:02.000Z</time>
        <extensions>
          <ns3:TrackPointExtension>
            <ns3:hr>146</ns3:hr>
            <ns3:cad>81</ns3:cad>
          </ns3:TrackPointExtension>
        </extensions>
      </trkpt>
      <trkpt lat="52.3065755702555179595947265625" lon="1.6237169690430164337158203125">
        <ele>-470.20001220703125</ele>
        <time>2025-09-07T10:53:05.000Z</time>
        <extensions>
          <ns3:TrackPointExtension>
            <ns3:hr>147</ns3:hr>
            <ns3:cad>81</ns3:cad>
          </ns3:TrackPointExtension>
        </extensions>
      </trkpt>
      <trkpt lat="52.30655687861144542694091796875" lon="1.623896174132823944091796875">
        <ele>-471.399993896484375</ele>
        <time>2025-09-07T10:53:10.000Z</time>
        <extensions>
          <ns3:TrackPointExtension>
            <ns3:hr>149</ns3:hr>
            <ns3:cad>81</ns3:cad>
          </ns3:TrackPointExtension>
        </extensions>
      </trkpt>
      <trkpt lat="52.3065547831356525421142578125" lon="1.62405274808406829833984375">
        <ele>-472.399993896484375</ele>
        <time>2025-09-07T10:53:15.000Z</time>
        <extensions>
          <ns3:TrackPointExtension>
            <ns3:hr>149</ns3:hr>
            <ns3:cad>81</ns3:cad>
          </ns3:TrackPointExtension>
        </extensions>
      </trkpt>
      <trkpt lat="52.30655285529792308807373046875" lon="1.62415676750242710113525390625">
        <ele>-473</ele>
        <time>2025-09-07T10:53:18.000Z</time>
        <extensions>
          <ns3:TrackPointExtension>
            <ns3:hr>149</ns3:hr>
            <ns3:cad>81</ns3:cad>
          </ns3:TrackPointExtension>
        </extensions>
      </trkpt>
      <trkpt lat="52.306538522243499755859375" lon="1.62427227012813091278076171875">
        <ele>-473.600006103515625</ele>
        <time>2025-09-07T10:53:21.000Z</time>
        <extensions>
          <ns3:TrackPointExtension>
            <ns3:hr>149</ns3:hr>
            <ns3:cad>81</ns3:cad>
          </ns3:TrackPointExtension>
        </extensions>
      </trkpt>
      <trkpt lat="52.30652854777872562408447265625" lon="1.624461449682712554931640625">
        <ele>-474.399993896484375</ele>
        <time>2025-09-07T10:53:26.000Z</time>
        <extensions>
          <ns3:TrackPointExtension>
            <ns3:hr>149</ns3:hr>
            <ns3:cad>81</ns3:cad>
          </ns3:TrackPointExtension>
        </extensions>
      </trkpt>
      <trkpt lat="52.30653240345418453216552734375" lon="1.62449656985700130462646484375">
        <ele>-474.600006103515625</ele>
        <time>2025-09-07T10:53:27.000Z</time>
        <extensions>
          <ns3:TrackPointExtension>
            <ns3:hr>149</ns3:hr>
            <ns3:cad>81</ns3:cad>
          </ns3:TrackPointExtension>
        </extensions>
      </trkpt>
      <trkpt lat="52.3065403662621974945068359375" lon="1.62462464533746242523193359375">
        <ele>-475.600006103515625</ele>
        <time>2025-09-07T10:53:32.000Z</time>
        <extensions>
          <ns3:TrackPointExtension>
            <ns3:hr>149</ns3:hr>
            <ns3:cad>68</ns3:cad>
          </ns3:TrackPointExtension>
        </extensions>
      </trkpt>
      <trkpt lat="52.30654346756637096405029296875" lon="1.6246423311531543731689453125">
        <ele>-475.79998779296875</ele>
        <time>2025-09-07T10:53:33.000Z</time>
        <extensions>
          <ns3:TrackPointExtension>
            <ns3:hr>149</ns3:hr>
            <ns3:cad>68</ns3:cad>
          </ns3:TrackPointExtension>
        </extensions>
      </trkpt>
      <trkpt lat="52.3065531067550182342529296875" lon="1.624723635613918304443359375">
        <ele>-476.79998779296875</ele>
        <time>2025-09-07T10:53:38.000Z</time>
        <extensions>
          <ns3:TrackPointExtension>
            <ns3:hr>146</ns3:hr>
            <ns3:cad>61</ns3:cad>
          </ns3:TrackPointExtension>
        </extensions>
      </trkpt>
      <trkpt lat="52.30656442232429981231689453125" lon="1.62478105165064334869384765625">
        <ele>-477.79998779296875</ele>
        <time>2025-09-07T10:53:42.000Z</time>
        <extensions>
          <ns3:TrackPointExtension>
            <ns3:hr>144</ns3:hr>
            <ns3:cad>0</ns3:cad>
          </ns3:TrackPointExtension>
        </extensions>
      </trkpt>
      <trkpt lat="52.3065671883523464202880859375" lon="1.62480116821825504302978515625">
        <ele>-478</ele>
        <time>2025-09-07T10:53:43.000Z</time>
        <extensions>
          <ns3:TrackPointExtension>
            <ns3:hr>143</ns3:hr>
            <ns3:cad>0</ns3:cad>
          </ns3:TrackPointExtension>
        </extensions>
      </trkpt>
      <trkpt lat="52.30658948421478271484375" lon="1.62489890120923519134521484375">
        <ele>-479.20001220703125</ele>
        <time>2025-09-07T10:53:48.000Z</time>
        <extensions>
          <ns3:TrackPointExtension>
            <ns3:hr>141</ns3:hr>
            <ns3:cad>61</ns3:cad>
          </ns3:TrackPointExtension>
        </extensions>
      </trkpt>
      <trkpt lat="52.30660733766853809356689453125" lon="1.62494583986699581146240234375">
        <ele>-479.79998779296875</ele>
        <time>2025-09-07T10:53:50.000Z</time>
        <extensions>
          <ns3:TrackPointExtension>
            <ns3:hr>140</ns3:hr>
            <ns3:cad>61</ns3:cad>
          </ns3:TrackPointExtension>
        </extensions>
      </trkpt>
      <trkpt lat="52.30661856941878795623779296875" lon="1.62499286234378814697265625">
        <ele>-480.399993896484375</ele>
        <time>2025-09-07T10:53:52.000Z</time>
        <extensions>
          <ns3:TrackPointExtension>
            <ns3:hr>140</ns3:hr>
            <ns3:cad>0</ns3:cad>
          </ns3:TrackPointExtension>
        </extensions>
      </trkpt>
      <trkpt lat="52.306634075939655303955078125" lon="1.62508313544094562530517578125">
        <ele>-481.600006103515625</ele>
        <time>2025-09-07T10:53:56.000Z</time>
        <extensions>
          <ns3:TrackPointExtension>
            <ns3:hr>139</ns3:hr>
            <ns3:cad>60</ns3:cad>
          </ns3:TrackPointExtension>
        </extensions>
      </trkpt>
      <trkpt lat="52.30665327049791812896728515625" lon="1.6251620091497898101806640625">
        <ele>-482.79998779296875</ele>
        <time>2025-09-07T10:54:00.000Z</time>
        <extensions>
          <ns3:TrackPointExtension>
            <ns3:hr>137</ns3:hr>
            <ns3:cad>61</ns3:cad>
          </ns3:TrackPointExtension>
        </extensions>
      </trkpt>
      <trkpt lat="52.30666450224816799163818359375" lon="1.62523434497416019439697265625">
        <ele>-483.79998779296875</ele>
        <time>2025-09-07T10:54:03.000Z</time>
        <extensions>
          <ns3:TrackPointExtension>
            <ns3:hr>137</ns3:hr>
            <ns3:cad>61</ns3:cad>
          </ns3:TrackPointExtension>
        </extensions>
      </trkpt>
      <trkpt lat="52.3066694475710391998291015625" lon="1.6252595745027065277099609375">
        <ele>-484.20001220703125</ele>
        <time>2025-09-07T10:54:04.000Z</time>
        <extensions>
          <ns3:TrackPointExtension>
            <ns3:hr>136</ns3:hr>
            <ns3:cad>61</ns3:cad>
          </ns3:TrackPointExtension>
        </extensions>
      </trkpt>
      <trkpt lat="52.30665528215467929840087890625" lon="1.62539561279118061065673828125">
        <ele>-485.399993896484375</ele>
        <time>2025-09-07T10:54:08.000Z</time>
        <extensions>
          <ns3:TrackPointExtension>
            <ns3:hr>137</ns3:hr>
            <ns3:cad>80</ns3:cad>
          </ns3:TrackPointExtension>
        </extensions>
      </trkpt>
      <trkpt lat="52.30665050446987152099609375" lon="1.62550156004726886749267578125">
        <ele>-486.399993896484375</ele>
        <time>2025-09-07T10:54:11.000Z</time>
        <extensions>
          <ns3:TrackPointExtension>
            <ns3:hr>136</ns3:hr>
            <ns3:cad>81</ns3:cad>
          </ns3:TrackPointExtension>
        </extensions>
      </trkpt>
      <trkpt lat="52.30665813200175762176513671875" lon="1.62553559057414531707763671875">
        <ele>-486.79998779296875</ele>
        <time>2025-09-07T10:54:12.000Z</time>
        <extensions>
          <ns3:TrackPointExtension>
            <ns3:hr>137</ns3:hr>
            <ns3:cad>81</ns3:cad>
          </ns3:TrackPointExtension>
        </extensions>
      </trkpt>
      <trkpt lat="52.30664488859474658966064453125" lon="1.62566517479717731475830078125">
        <ele>-488</ele>
        <time>2025-09-07T10:54:16.000Z</time>
        <extensions>
          <ns3:TrackPointExtension>
            <ns3:hr>139</ns3:hr>
            <ns3:cad>82</ns3:cad>
          </ns3:TrackPointExtension>
        </extensions>
      </trkpt>
      <trkpt lat="52.30664153583347797393798828125" lon="1.625749580562114715576171875">
        <ele>-488.79998779296875</ele>
        <time>2025-09-07T10:54:19.000Z</time>
        <extensions>
          <ns3:TrackPointExtension>
            <ns3:hr>143</ns3:hr>
            <ns3:cad>82</ns3:cad>
          </ns3:TrackPointExtension>
        </extensions>
      </trkpt>
      <trkpt lat="52.306640781462192535400390625" lon="1.62578084506094455718994140625">
        <ele>-489</ele>
        <time>2025-09-07T10:54:20.000Z</time>
        <extensions>
          <ns3:TrackPointExtension>
            <ns3:hr>142</ns3:hr>
            <ns3:cad>82</ns3:cad>
          </ns3:TrackPointExtension>
        </extensions>
      </trkpt>
      <trkpt lat="52.30662795715034008026123046875" lon="1.6259210743010044097900390625">
        <ele>-490</ele>
        <time>2025-09-07T10:54:24.000Z</time>
        <extensions>
          <ns3:TrackPointExtension>
            <ns3:hr>139</ns3:hr>
            <ns3:cad>82</ns3:cad>
          </ns3:TrackPointExtension>
        </extensions>
      </trkpt>
      <trkpt lat="52.3066228441894054412841796875" lon="1.62595535628497600555419921875">
        <ele>-490.399993896484375</ele>
        <time>2025-09-07T10:54:25.000Z</time>
        <extensions>
          <ns3:TrackPointExtension>
            <ns3:hr>138</ns3:hr>
            <ns3:cad>82</ns3:cad>
          </ns3:TrackPointExtension>
        </extensions>
      </trkpt>
      <trkpt lat="52.30661831796169281005859375" lon="1.625987626612186431884765625">
        <ele>-490.600006103515625</ele>
        <time>2025-09-07T10:54:26.000Z</time>
        <extensions>
          <ns3:TrackPointExtension>
            <ns3:hr>138</ns3:hr>
            <ns3:cad>82</ns3:cad>
          </ns3:TrackPointExtension>
        </extensions>
      </trkpt>
      <trkpt lat="52.30661588720977306365966796875" lon="1.6261245869100093841552734375">
        <ele>-491.399993896484375</ele>
        <time>2025-09-07T10:54:31.000Z</time>
        <extensions>
          <ns3:TrackPointExtension>
            <ns3:hr>139</ns3:hr>
            <ns3:cad>82</ns3:cad>
          </ns3:TrackPointExtension>
        </extensions>
      </trkpt>
      <trkpt lat="52.30662309564650058746337890625" lon="1.6261772252619266510009765625">
        <ele>-491.79998779296875</ele>
        <time>2025-09-07T10:54:33.000Z</time>
        <extensions>
          <ns3:TrackPointExtension>
            <ns3:hr>139</ns3:hr>
            <ns3:cad>61</ns3:cad>
          </ns3:TrackPointExtension>
        </extensions>
      </trkpt>
      <trkpt lat="52.30662829242646694183349609375" lon="1.62620723247528076171875">
        <ele>-491.79998779296875</ele>
        <time>2025-09-07T10:54:34.000Z</time>
        <extensions>
          <ns3:TrackPointExtension>
            <ns3:hr>136</ns3:hr>
            <ns3:cad>61</ns3:cad>
          </ns3:TrackPointExtension>
        </extensions>
      </trkpt>
      <trkpt lat="52.30664522387087345123291015625" lon="1.62629012949764728546142578125">
        <ele>-492.399993896484375</ele>
        <time>2025-09-07T10:54:37.000Z</time>
        <extensions>
          <ns3:TrackPointExtension>
            <ns3:hr>139</ns3:hr>
            <ns3:cad>61</ns3:cad>
          </ns3:TrackPointExtension>
        </extensions>
      </trkpt>
      <trkpt lat="52.30665385723114013671875" lon="1.62631946615874767303466796875">
        <ele>-492.600006103515625</ele>
        <time>2025-09-07T10:54:38.000Z</time>
        <extensions>
          <ns3:TrackPointExtension>
            <ns3:hr>137</ns3:hr>
            <ns3:cad>61</ns3:cad>
          </ns3:TrackPointExtension>
        </extensions>
      </trkpt>
      <trkpt lat="52.30666047893464565277099609375" lon="1.6263998486101627349853515625">
        <ele>-493</ele>
        <time>2025-09-07T10:54:41.000Z</time>
        <extensions>
          <ns3:TrackPointExtension>
            <ns3:hr>134</ns3:hr>
            <ns3:cad>61</ns3:cad>
          </ns3:TrackPointExtension>
        </extensions>
      </trkpt>
      <trkpt lat="52.30666550807654857635498046875" lon="1.626427173614501953125">
        <ele>-493.20001220703125</ele>
        <time>2025-09-07T10:54:42.000Z</time>
        <extensions>
          <ns3:TrackPointExtension>
            <ns3:hr>133</ns3:hr>
            <ns3:cad>61</ns3:cad>
          </ns3:TrackPointExtension>
        </extensions>
      </trkpt>
      <trkpt lat="52.306672297418117523193359375" lon="1.626512669026851654052734375">
        <ele>-493.600006103515625</ele>
        <time>2025-09-07T10:54:45.000Z</time>
        <extensions>
          <ns3:TrackPointExtension>
            <ns3:hr>131</ns3:hr>
            <ns3:cad>61</ns3:cad>
          </ns3:TrackPointExtension>
        </extensions>
      </trkpt>
      <trkpt lat="52.30669501237571239471435546875" lon="1.62666413001716136932373046875">
        <ele>-494.399993896484375</ele>
        <time>2025-09-07T10:54:50.000Z</time>
        <extensions>
          <ns3:TrackPointExtension>
            <ns3:hr>131</ns3:hr>
            <ns3:cad>61</ns3:cad>
          </ns3:TrackPointExtension>
        </extensions>
      </trkpt>
      <trkpt lat="52.3067009635269641876220703125" lon="1.626722551882266998291015625">
        <ele>-494.79998779296875</ele>
        <time>2025-09-07T10:54:52.000Z</time>
        <extensions>
          <ns3:TrackPointExtension>
            <ns3:hr>131</ns3:hr>
            <ns3:cad>61</ns3:cad>
          </ns3:TrackPointExtension>
        </extensions>
      </trkpt>
      <trkpt lat="52.30670087970793247222900390625" lon="1.6268826462328433990478515625">
        <ele>-495.79998779296875</ele>
        <time>2025-09-07T10:54:58.000Z</time>
        <extensions>
          <ns3:TrackPointExtension>
            <ns3:hr>131</ns3:hr>
            <ns3:cad>64</ns3:cad>
          </ns3:TrackPointExtension>
        </extensions>
      </trkpt>
      <trkpt lat="52.30670146644115447998046875" lon="1.6269067861139774322509765625">
        <ele>-496</ele>
        <time>2025-09-07T10:54:59.000Z</time>
        <extensions>
          <ns3:TrackPointExtension>
            <ns3:hr>131</ns3:hr>
            <ns3:cad>64</ns3:cad>
          </ns3:TrackPointExtension>
        </extensions>
      </trkpt>
      <trkpt lat="52.3067123629152774810791015625" lon="1.62702153436839580535888671875">
        <ele>-497</ele>
        <time>2025-09-07T10:55:04.000Z</time>
        <extensions>
          <ns3:TrackPointExtension>
            <ns3:hr>131</ns3:hr>
            <ns3:cad>62</ns3:cad>
          </ns3:TrackPointExtension>
        </extensions>
      </trkpt>
      <trkpt lat="52.306713201105594635009765625" lon="1.6270657069981098175048828125">
        <ele>-497.20001220703125</ele>
        <time>2025-09-07T10:55:06.000Z</time>
        <extensions>
          <ns3:TrackPointExtension>
            <ns3:hr>131</ns3:hr>
            <ns3:cad>62</ns3:cad>
          </ns3:TrackPointExtension>
        </extensions>
      </trkpt>
      <trkpt lat="52.3067142069339752197265625" lon="1.62714801728725433349609375">
        <ele>-498</ele>
        <time>2025-09-07T10:55:10.000Z</time>
        <extensions>
          <ns3:TrackPointExtension>
            <ns3:hr>126</ns3:hr>
            <ns3:cad>60</ns3:cad>
          </ns3:TrackPointExtension>
        </extensions>
      </trkpt>
      <trkpt lat="52.30672434903681278228759765625" lon="1.6272625140845775604248046875">
        <ele>-498.600006103515625</ele>
        <time>2025-09-07T10:55:14.000Z</time>
        <extensions>
          <ns3:TrackPointExtension>
            <ns3:hr>127</ns3:hr>
            <ns3:cad>0</ns3:cad>
          </ns3:TrackPointExtension>
        </extensions>
      </trkpt>
      <trkpt lat="52.306705154478549957275390625" lon="1.62739746272563934326171875">
        <ele>-499</ele>
        <time>2025-09-07T10:55:18.000Z</time>
        <extensions>
          <ns3:TrackPointExtension>
            <ns3:hr>127</ns3:hr>
            <ns3:cad>79</ns3:cad>
          </ns3:TrackPointExtension>
        </extensions>
      </trkpt>
      <trkpt lat="52.3067002929747104644775390625" lon="1.627464853227138519287109375">
        <ele>-499</ele>
        <time>2025-09-07T10:55:20.000Z</time>
        <extensions>
          <ns3:TrackPointExtension>
            <ns3:hr>132</ns3:hr>
            <ns3:cad>79</ns3:cad>
          </ns3:TrackPointExtension>
        </extensions>
      </trkpt>
      <trkpt lat="52.30669987387955188751220703125" lon="1.6274992190301418304443359375">
        <ele>-499.20001220703125</ele>
        <time>2025-09-07T10:55:21.000Z</time>
        <extensions>
          <ns3:TrackPointExtension>
            <ns3:hr>131</ns3:hr>
            <ns3:cad>79</ns3:cad>
          </ns3:TrackPointExtension>
        </extensions>
      </trkpt>
      <trkpt lat="52.3066900670528411865234375" lon="1.62757004611194133758544921875">
        <ele>-499.20001220703125</ele>
        <time>2025-09-07T10:55:23.000Z</time>
        <extensions>
          <ns3:TrackPointExtension>
            <ns3:hr>136</ns3:hr>
            <ns3:cad>79</ns3:cad>
          </ns3:TrackPointExtension>
        </extensions>
      </trkpt>
      <trkpt lat="52.3066914081573486328125" lon="1.62760307081043720245361328125">
        <ele>-499.20001220703125</ele>
        <time>2025-09-07T10:55:24.000Z</time>
        <extensions>
          <ns3:TrackPointExtension>
            <ns3:hr>136</ns3:hr>
            <ns3:cad>79</ns3:cad>
          </ns3:TrackPointExtension>
        </extensions>
      </trkpt>
      <trkpt lat="52.30670641176402568817138671875" lon="1.627726368606090545654296875">
        <ele>-499.20001220703125</ele>
        <time>2025-09-07T10:55:28.000Z</time>
        <extensions>
          <ns3:TrackPointExtension>
            <ns3:hr>139</ns3:hr>
            <ns3:cad>82</ns3:cad>
          </ns3:TrackPointExtension>
        </extensions>
      </trkpt>
      <trkpt lat="52.30670976452529430389404296875" lon="1.62775687873363494873046875">
        <ele>-499.20001220703125</ele>
        <time>2025-09-07T10:55:29.000Z</time>
        <extensions>
          <ns3:TrackPointExtension>
            <ns3:hr>139</ns3:hr>
            <ns3:cad>82</ns3:cad>
          </ns3:TrackPointExtension>
        </extensions>
      </trkpt>
      <trkpt lat="52.3067365027964115142822265625" lon="1.6280007921159267425537109375">
        <ele>-498.600006103515625</ele>
        <time>2025-09-07T10:55:37.000Z</time>
        <extensions>
          <ns3:TrackPointExtension>
            <ns3:hr>142</ns3:hr>
            <ns3:cad>82</ns3:cad>
          </ns3:TrackPointExtension>
        </extensions>
      </trkpt>
      <trkpt lat="52.30674480088055133819580078125" lon="1.62805954925715923309326171875">
        <ele>-498.20001220703125</ele>
        <time>2025-09-07T10:55:39.000Z</time>
        <extensions>
          <ns3:TrackPointExtension>
            <ns3:hr>145</ns3:hr>
            <ns3:cad>82</ns3:cad>
          </ns3:TrackPointExtension>
        </extensions>
      </trkpt>
      <trkpt lat="52.30674798600375652313232421875" lon="1.6281248442828655242919921875">
        <ele>-498</ele>
        <time>2025-09-07T10:55:41.000Z</time>
        <extensions>
          <ns3:TrackPointExtension>
            <ns3:hr>147</ns3:hr>
            <ns3:cad>82</ns3:cad>
          </ns3:TrackPointExtension>
        </extensions>
      </trkpt>
      <trkpt lat="52.306752093136310577392578125" lon="1.6282167099416255950927734375">
        <ele>-497.600006103515625</ele>
        <time>2025-09-07T10:55:44.000Z</time>
        <extensions>
          <ns3:TrackPointExtension>
            <ns3:hr>145</ns3:hr>
            <ns3:cad>82</ns3:cad>
          </ns3:TrackPointExtension>
        </extensions>
      </trkpt>
      <trkpt lat="52.306782938539981842041015625" lon="1.62834553979337215423583984375">
        <ele>-497</ele>
        <time>2025-09-07T10:55:48.000Z</time>
        <extensions>
          <ns3:TrackPointExtension>
            <ns3:hr>142</ns3:hr>
            <ns3:cad>82</ns3:cad>
          </ns3:TrackPointExtension>
        </extensions>
      </trkpt>
      <trkpt lat="52.306787632405757904052734375" lon="1.62837990559637546539306640625">
        <ele>-496.79998779296875</ele>
        <time>2025-09-07T10:55:49.000Z</time>
        <extensions>
          <ns3:TrackPointExtension>
            <ns3:hr>142</ns3:hr>
            <ns3:cad>82</ns3:cad>
          </ns3:TrackPointExtension>
        </extensions>
      </trkpt>
      <trkpt lat="52.30681034736335277557373046875" lon="1.62847512401640415191650390625">
        <ele>-496.399993896484375</ele>
        <time>2025-09-07T10:55:52.000Z</time>
        <extensions>
          <ns3:TrackPointExtension>
            <ns3:hr>144</ns3:hr>
            <ns3:cad>82</ns3:cad>
          </ns3:TrackPointExtension>
        </extensions>
      </trkpt>
      <trkpt lat="52.3068437911570072174072265625" lon="1.62861024029552936553955078125">
        <ele>-496</ele>
        <time>2025-09-07T10:55:56.000Z</time>
        <extensions>
          <ns3:TrackPointExtension>
            <ns3:hr>148</ns3:hr>
            <ns3:cad>82</ns3:cad>
          </ns3:TrackPointExtension>
        </extensions>
      </trkpt>
      <trkpt lat="52.30685845948755741119384765625" lon="1.62867360748350620269775390625">
        <ele>-495.79998779296875</ele>
        <time>2025-09-07T10:55:58.000Z</time>
        <extensions>
          <ns3:TrackPointExtension>
            <ns3:hr>147</ns3:hr>
            <ns3:cad>82</ns3:cad>
          </ns3:TrackPointExtension>
        </extensions>
      </trkpt>
      <trkpt lat="52.30687522329390048980712890625" lon="1.62872993387281894683837890625">
        <ele>-495.600006103515625</ele>
        <time>2025-09-07T10:56:00.000Z</time>
        <extensions>
          <ns3:TrackPointExtension>
            <ns3:hr>146</ns3:hr>
            <ns3:cad>81</ns3:cad>
          </ns3:TrackPointExtension>
        </extensions>
      </trkpt>
      <trkpt lat="52.30695552192628383636474609375" lon="1.62885926663875579833984375">
        <ele>-495</ele>
        <time>2025-09-07T10:56:07.000Z</time>
        <extensions>
          <ns3:TrackPointExtension>
            <ns3:hr>145</ns3:hr>
            <ns3:cad>68</ns3:cad>
          </ns3:TrackPointExtension>
        </extensions>
      </trkpt>
      <trkpt lat="52.30697815306484699249267578125" lon="1.6288909502327442169189453125">
        <ele>-494.79998779296875</ele>
        <time>2025-09-07T10:56:09.000Z</time>
        <extensions>
          <ns3:TrackPointExtension>
            <ns3:hr>144</ns3:hr>
            <ns3:cad>74</ns3:cad>
          </ns3:TrackPointExtension>
        </extensions>
      </trkpt>
      <trkpt lat="52.3069872893393039703369140625" lon="1.6289653815329074859619140625">
        <ele>-494.600006103515625</ele>
        <time>2025-09-07T10:56:13.000Z</time>
        <extensions>
          <ns3:TrackPointExtension>
            <ns3:hr>143</ns3:hr>
            <ns3:cad>74</ns3:cad>
          </ns3:TrackPointExtension>
        </extensions>
      </trkpt>
      <trkpt lat="52.30700195766985416412353515625" lon="1.62911784835159778594970703125">
        <ele>-494.20001220703125</ele>
        <time>2025-09-07T10:56:19.000Z</time>
        <extensions>
          <ns3:TrackPointExtension>
            <ns3:hr>143</ns3:hr>
            <ns3:cad>79</ns3:cad>
          </ns3:TrackPointExtension>
        </extensions>
      </trkpt>
      <trkpt lat="52.30705409310758113861083984375" lon="1.62931649945676326751708984375">
        <ele>-494.20001220703125</ele>
        <time>2025-09-07T10:56:27.000Z</time>
        <extensions>
          <ns3:TrackPointExtension>
            <ns3:hr>142</ns3:hr>
            <ns3:cad>81</ns3:cad>
          </ns3:TrackPointExtension>
        </extensions>
      </trkpt>
      <trkpt lat="52.30706465430557727813720703125" lon="1.6293452493846416473388671875">
        <ele>-494.399993896484375</ele>
        <time>2025-09-07T10:56:28.000Z</time>
        <extensions>
          <ns3:TrackPointExtension>
            <ns3:hr>145</ns3:hr>
            <ns3:cad>81</ns3:cad>
          </ns3:TrackPointExtension>
        </extensions>
      </trkpt>
      <trkpt lat="52.3071200586855411529541015625" lon="1.62952001206576824188232421875">
        <ele>-494.399993896484375</ele>
        <time>2025-09-07T10:56:34.000Z</time>
        <extensions>
          <ns3:TrackPointExtension>
            <ns3:hr>149</ns3:hr>
            <ns3:cad>81</ns3:cad>
          </ns3:TrackPointExtension>
        </extensions>
      </trkpt>
      <trkpt lat="52.30715467594563961029052734375" lon="1.62964054383337497711181640625">
        <ele>-494.399993896484375</ele>
        <time>2025-09-07T10:56:38.000Z</time>
        <extensions>
          <ns3:TrackPointExtension>
            <ns3:hr>145</ns3:hr>
            <ns3:cad>81</ns3:cad>
          </ns3:TrackPointExtension>
        </extensions>
      </trkpt>
      <trkpt lat="52.307179234921932220458984375" lon="1.6297355107963085174560546875">
        <ele>-494.20001220703125</ele>
        <time>2025-09-07T10:56:41.000Z</time>
        <extensions>
          <ns3:TrackPointExtension>
            <ns3:hr>148</ns3:hr>
            <ns3:cad>81</ns3:cad>
          </ns3:TrackPointExtension>
        </extensions>
      </trkpt>
      <trkpt lat="52.30719189159572124481201171875" lon="1.62979627959430217742919921875">
        <ele>-494.20001220703125</ele>
        <time>2025-09-07T10:56:43.000Z</time>
        <extensions>
          <ns3:TrackPointExtension>
            <ns3:hr>148</ns3:hr>
            <ns3:cad>81</ns3:cad>
          </ns3:TrackPointExtension>
        </extensions>
      </trkpt>
      <trkpt lat="52.3072414286434650421142578125" lon="1.63000113330781459808349609375">
        <ele>-494.20001220703125</ele>
        <time>2025-09-07T10:56:51.000Z</time>
        <extensions>
          <ns3:TrackPointExtension>
            <ns3:hr>149</ns3:hr>
            <ns3:cad>82</ns3:cad>
          </ns3:TrackPointExtension>
        </extensions>
      </trkpt>
      <trkpt lat="52.30728610418736934661865234375" lon="1.63019106723368167877197265625">
        <ele>-494.399993896484375</ele>
        <time>2025-09-07T10:56:57.000Z</time>
        <extensions>
          <ns3:TrackPointExtension>
            <ns3:hr>147</ns3:hr>
            <ns3:cad>82</ns3:cad>
          </ns3:TrackPointExtension>
        </extensions>
      </trkpt>
      <trkpt lat="52.30731326155364513397216796875" lon="1.63039474748075008392333984375">
        <ele>-494.79998779296875</ele>
        <time>2025-09-07T10:57:04.000Z</time>
        <extensions>
          <ns3:TrackPointExtension>
            <ns3:hr>145</ns3:hr>
            <ns3:cad>81</ns3:cad>
          </ns3:TrackPointExtension>
        </extensions>
      </trkpt>
      <trkpt lat="52.30732264928519725799560546875" lon="1.63049298338592052459716796875">
        <ele>-495</ele>
        <time>2025-09-07T10:57:08.000Z</time>
        <extensions>
          <ns3:TrackPointExtension>
            <ns3:hr>142</ns3:hr>
            <ns3:cad>81</ns3:cad>
          </ns3:TrackPointExtension>
        </extensions>
      </trkpt>
      <trkpt lat="52.30735131539404392242431640625" lon="1.63055132143199443817138671875">
        <ele>-495.20001220703125</ele>
        <time>2025-09-07T10:57:11.000Z</time>
        <extensions>
          <ns3:TrackPointExtension>
            <ns3:hr>142</ns3:hr>
            <ns3:cad>81</ns3:cad>
          </ns3:TrackPointExtension>
        </extensions>
      </trkpt>
      <trkpt lat="52.30740956962108612060546875" lon="1.6306628845632076263427734375">
        <ele>-495.79998779296875</ele>
        <time>2025-09-07T10:57:16.000Z</time>
        <extensions>
          <ns3:TrackPointExtension>
            <ns3:hr>141</ns3:hr>
            <ns3:cad>64</ns3:cad>
          </ns3:TrackPointExtension>
        </extensions>
      </trkpt>
      <trkpt lat="52.30744586326181888580322265625" lon="1.63072147406637668609619140625">
        <ele>-496.399993896484375</ele>
        <time>2025-09-07T10:57:19.000Z</time>
        <extensions>
          <ns3:TrackPointExtension>
            <ns3:hr>142</ns3:hr>
            <ns3:cad>62</ns3:cad>
          </ns3:TrackPointExtension>
        </extensions>
      </trkpt>
      <trkpt lat="52.307460196316242218017578125" lon="1.63074175827205181121826171875">
        <ele>-496.600006103515625</ele>
        <time>2025-09-07T10:57:20.000Z</time>
        <extensions>
          <ns3:TrackPointExtension>
            <ns3:hr>139</ns3:hr>
            <ns3:cad>62</ns3:cad>
          </ns3:TrackPointExtension>
        </extensions>
      </trkpt>
      <trkpt lat="52.30748374946415424346923828125" lon="1.6307715140283107757568359375">
        <ele>-497</ele>
        <time>2025-09-07T10:57:22.000Z</time>
        <extensions>
          <ns3:TrackPointExtension>
            <ns3:hr>141</ns3:hr>
            <ns3:cad>61</ns3:cad>
          </ns3:TrackPointExtension>
        </extensions>
      </trkpt>
      <trkpt lat="52.30752113275229930877685546875" lon="1.630845107138156890869140625">
        <ele>-497.600006103515625</ele>
        <time>2025-09-07T10:57:26.000Z</time>
        <extensions>
          <ns3:TrackPointExtension>
            <ns3:hr>144</ns3:hr>
            <ns3:cad>62</ns3:cad>
          </ns3:TrackPointExtension>
        </extensions>
      </trkpt>
      <trkpt lat="52.30754326097667217254638671875" lon="1.63087922148406505584716796875">
        <ele>-498</ele>
        <time>2025-09-07T10:57:28.000Z</time>
        <extensions>
          <ns3:TrackPointExtension>
            <ns3:hr>143</ns3:hr>
            <ns3:cad>62</ns3:cad>
          </ns3:TrackPointExtension>
        </extensions>
      </trkpt>
      <trkpt lat="52.30757854878902435302734375" lon="1.6309240646660327911376953125">
        <ele>-498.79998779296875</ele>
        <time>2025-09-07T10:57:31.000Z</time>
        <extensions>
          <ns3:TrackPointExtension>
            <ns3:hr>140</ns3:hr>
            <ns3:cad>62</ns3:cad>
          </ns3:TrackPointExtension>
        </extensions>
      </trkpt>
      <trkpt lat="52.3075951449573040008544921875" lon="1.6309542395174503326416015625">
        <ele>-499.20001220703125</ele>
        <time>2025-09-07T10:57:33.000Z</time>
        <extensions>
          <ns3:TrackPointExtension>
            <ns3:hr>138</ns3:hr>
            <ns3:cad>62</ns3:cad>
          </ns3:TrackPointExtension>
        </extensions>
      </trkpt>
      <trkpt lat="52.30760545469820499420166015625" lon="1.630971170961856842041015625">
        <ele>-499.600006103515625</ele>
        <time>2025-09-07T10:57:34.000Z</time>
        <extensions>
          <ns3:TrackPointExtension>
            <ns3:hr>137</ns3:hr>
            <ns3:cad>62</ns3:cad>
          </ns3:TrackPointExtension>
        </extensions>
      </trkpt>
      <trkpt lat="52.3076437599956989288330078125" lon="1.63103143684566020965576171875">
        <ele>-500</ele>
        <time>2025-09-07T10:57:37.000Z</time>
        <extensions>
          <ns3:TrackPointExtension>
            <ns3:hr>137</ns3:hr>
            <ns3:cad>0</ns3:cad>
          </ns3:TrackPointExtension>
        </extensions>
      </trkpt>
      <trkpt lat="52.30768793262541294097900390625" lon="1.631125397980213165283203125">
        <ele>-500</ele>
        <time>2025-09-07T10:57:41.000Z</time>
        <extensions>
          <ns3:TrackPointExtension>
            <ns3:hr>135</ns3:hr>
            <ns3:cad>0</ns3:cad>
          </ns3:TrackPointExtension>
        </extensions>
      </trkpt>
      <trkpt lat="52.30773084796965122222900390625" lon="1.631188094615936279296875">
        <ele>-500</ele>
        <time>2025-09-07T10:57:44.000Z</time>
        <extensions>
          <ns3:TrackPointExtension>
            <ns3:hr>133</ns3:hr>
            <ns3:cad>0</ns3:cad>
          </ns3:TrackPointExtension>
        </extensions>
      </trkpt>
      <trkpt lat="52.3077554069459438323974609375" lon="1.6312335245311260223388671875">
        <ele>-500</ele>
        <time>2025-09-07T10:57:47.000Z</time>
        <extensions>
          <ns3:TrackPointExtension>
            <ns3:hr>132</ns3:hr>
            <ns3:cad>61</ns3:cad>
          </ns3:TrackPointExtension>
        </extensions>
      </trkpt>
      <trkpt lat="52.307789437472820281982421875" lon="1.63127585314214229583740234375">
        <ele>-500</ele>
        <time>2025-09-07T10:57:50.000Z</time>
        <extensions>
          <ns3:TrackPointExtension>
            <ns3:hr>129</ns3:hr>
            <ns3:cad>61</ns3:cad>
          </ns3:TrackPointExtension>
        </extensions>
      </trkpt>
      <trkpt lat="52.30783008970320224761962890625" lon="1.63131306879222393035888671875">
        <ele>-500</ele>
        <time>2025-09-07T10:57:53.000Z</time>
        <extensions>
          <ns3:TrackPointExtension>
            <ns3:hr>130</ns3:hr>
            <ns3:cad>110</ns3:cad>
          </ns3:TrackPointExtension>
        </extensions>
      </trkpt>
      <trkpt lat="52.3078385554254055023193359375" lon="1.63133117370307445526123046875">
        <ele>-500</ele>
        <time>2025-09-07T10:57:54.000Z</time>
        <extensions>
          <ns3:TrackPointExtension>
            <ns3:hr>128</ns3:hr>
            <ns3:cad>110</ns3:cad>
          </ns3:TrackPointExtension>
        </extensions>
      </trkpt>
      <trkpt lat="52.30784668587148189544677734375" lon="1.6313545592129230499267578125">
        <ele>-500</ele>
        <time>2025-09-07T10:57:55.000Z</time>
        <extensions>
          <ns3:TrackPointExtension>
            <ns3:hr>133</ns3:hr>
            <ns3:cad>62</ns3:cad>
          </ns3:TrackPointExtension>
        </extensions>
      </trkpt>
      <trkpt lat="52.3078519664704799652099609375" lon="1.6313709877431392669677734375">
        <ele>-500</ele>
        <time>2025-09-07T10:57:56.000Z</time>
        <extensions>
          <ns3:TrackPointExtension>
            <ns3:hr>133</ns3:hr>
            <ns3:cad>62</ns3:cad>
          </ns3:TrackPointExtension>
        </extensions>
      </trkpt>
      <trkpt lat="52.30788272805511951446533203125" lon="1.63141809403896331787109375">
        <ele>-500</ele>
        <time>2025-09-07T10:57:59.000Z</time>
        <extensions>
          <ns3:TrackPointExtension>
            <ns3:hr>134</ns3:hr>
            <ns3:cad>62</ns3:cad>
          </ns3:TrackPointExtension>
        </extensions>
      </trkpt>
      <trkpt lat="52.3079196922481060028076171875" lon="1.63147785700857639312744140625">
        <ele>-500</ele>
        <time>2025-09-07T10:58:02.000Z</time>
        <extensions>
          <ns3:TrackPointExtension>
            <ns3:hr>134</ns3:hr>
            <ns3:cad>61</ns3:cad>
          </ns3:TrackPointExtension>
        </extensions>
      </trkpt>
      <trkpt lat="52.30795799754559993743896484375" lon="1.6315486840903759002685546875">
        <ele>-500</ele>
        <time>2025-09-07T10:58:05.000Z</time>
        <extensions>
          <ns3:TrackPointExtension>
            <ns3:hr>135</ns3:hr>
            <ns3:cad>61</ns3:cad>
          </ns3:TrackPointExtension>
        </extensions>
      </trkpt>
      <trkpt lat="52.30798331089317798614501953125" lon="1.63159134797751903533935546875">
        <ele>-500</ele>
        <time>2025-09-07T10:58:07.000Z</time>
        <extensions>
          <ns3:TrackPointExtension>
            <ns3:hr>132</ns3:hr>
            <ns3:cad>61</ns3:cad>
          </ns3:TrackPointExtension>
        </extensions>
      </trkpt>
      <trkpt lat="52.30799454264342784881591796875" lon="1.63161330856382846832275390625">
        <ele>-500</ele>
        <time>2025-09-07T10:58:08.000Z</time>
        <extensions>
          <ns3:TrackPointExtension>
            <ns3:hr>132</ns3:hr>
            <ns3:cad>61</ns3:cad>
          </ns3:TrackPointExtension>
        </extensions>
      </trkpt>
      <trkpt lat="52.3080392181873321533203125" lon="1.6316921822726726531982421875">
        <ele>-500</ele>
        <time>2025-09-07T10:58:12.000Z</time>
        <extensions>
          <ns3:TrackPointExtension>
            <ns3:hr>134</ns3:hr>
            <ns3:cad>62</ns3:cad>
          </ns3:TrackPointExtension>
        </extensions>
      </trkpt>
      <trkpt lat="52.3080709017813205718994140625" lon="1.63175378926098346710205078125">
        <ele>-500</ele>
        <time>2025-09-07T10:58:16.000Z</time>
        <extensions>
          <ns3:TrackPointExtension>
            <ns3:hr>135</ns3:hr>
            <ns3:cad>63</ns3:cad>
          </ns3:TrackPointExtension>
        </extensions>
      </trkpt>
      <trkpt lat="52.308094538748264312744140625" lon="1.63182687945663928985595703125">
        <ele>-500</ele>
        <time>2025-09-07T10:58:20.000Z</time>
        <extensions>
          <ns3:TrackPointExtension>
            <ns3:hr>133</ns3:hr>
            <ns3:cad>62</ns3:cad>
          </ns3:TrackPointExtension>
        </extensions>
      </trkpt>
      <trkpt lat="52.3081094585359096527099609375" lon="1.63187348283827304840087890625">
        <ele>-500</ele>
        <time>2025-09-07T10:58:23.000Z</time>
        <extensions>
          <ns3:TrackPointExtension>
            <ns3:hr>130</ns3:hr>
            <ns3:cad>60</ns3:cad>
          </ns3:TrackPointExtension>
        </extensions>
      </trkpt>
      <trkpt lat="52.3081081174314022064208984375" lon="1.63190969265997409820556640625">
        <ele>-500</ele>
        <time>2025-09-07T10:58:25.000Z</time>
        <extensions>
          <ns3:TrackPointExtension>
            <ns3:hr>127</ns3:hr>
            <ns3:cad>61</ns3:cad>
          </ns3:TrackPointExtension>
        </extensions>
      </trkpt>
      <trkpt lat="52.30810635723173618316650390625" lon="1.6319268755614757537841796875">
        <ele>-500</ele>
        <time>2025-09-07T10:58:26.000Z</time>
        <extensions>
          <ns3:TrackPointExtension>
            <ns3:hr>126</ns3:hr>
            <ns3:cad>61</ns3:cad>
          </ns3:TrackPointExtension>
        </extensions>
      </trkpt>
      <trkpt lat="52.308118678629398345947265625" lon="1.63198244757950305938720703125">
        <ele>-500</ele>
        <time>2025-09-07T10:58:29.000Z</time>
        <extensions>
          <ns3:TrackPointExtension>
            <ns3:hr>123</ns3:hr>
            <ns3:cad>61</ns3:cad>
          </ns3:TrackPointExtension>
        </extensions>
      </trkpt>
      <trkpt lat="52.3081299103796482086181640625" lon="1.63200507871806621551513671875">
        <ele>-500</ele>
        <time>2025-09-07T10:58:30.000Z</time>
        <extensions>
          <ns3:TrackPointExtension>
            <ns3:hr>123</ns3:hr>
            <ns3:cad>61</ns3:cad>
          </ns3:TrackPointExtension>
        </extensions>
      </trkpt>
      <trkpt lat="52.30815279297530651092529296875" lon="1.632050760090351104736328125">
        <ele>-500</ele>
        <time>2025-09-07T10:58:32.000Z</time>
        <extensions>
          <ns3:TrackPointExtension>
            <ns3:hr>122</ns3:hr>
            <ns3:cad>57</ns3:cad>
          </ns3:TrackPointExtension>
        </extensions>
      </trkpt>
      <trkpt lat="52.30819654650986194610595703125" lon="1.63213281892240047454833984375">
        <ele>-500</ele>
        <time>2025-09-07T10:58:36.000Z</time>
        <extensions>
          <ns3:TrackPointExtension>
            <ns3:hr>122</ns3:hr>
            <ns3:cad>57</ns3:cad>
          </ns3:TrackPointExtension>
        </extensions>
      </trkpt>
      <trkpt lat="52.30823107995092868804931640625" lon="1.63220691494643688201904296875">
        <ele>-500</ele>
        <time>2025-09-07T10:58:39.000Z</time>
        <extensions>
          <ns3:TrackPointExtension>
            <ns3:hr>123</ns3:hr>
            <ns3:cad>77</ns3:cad>
          </ns3:TrackPointExtension>
        </extensions>
      </trkpt>
      <trkpt lat="52.30826209299266338348388671875" lon="1.632276065647602081298828125">
        <ele>-500</ele>
        <time>2025-09-07T10:58:42.000Z</time>
        <extensions>
          <ns3:TrackPointExtension>
            <ns3:hr>122</ns3:hr>
            <ns3:cad>80</ns3:cad>
          </ns3:TrackPointExtension>
        </extensions>
      </trkpt>
      <trkpt lat="52.30827902443706989288330078125" lon="1.6323159635066986083984375">
        <ele>-500</ele>
        <time>2025-09-07T10:58:44.000Z</time>
        <extensions>
          <ns3:TrackPointExtension>
            <ns3:hr>125</ns3:hr>
            <ns3:cad>81</ns3:cad>
          </ns3:TrackPointExtension>
        </extensions>
      </trkpt>
      <trkpt lat="52.308310456573963165283203125" lon="1.63239634595811367034912109375">
        <ele>-500</ele>
        <time>2025-09-07T10:58:47.000Z</time>
        <extensions>
          <ns3:TrackPointExtension>
            <ns3:hr>128</ns3:hr>
            <ns3:cad>82</ns3:cad>
          </ns3:TrackPointExtension>
        </extensions>
      </trkpt>
      <trkpt lat="52.3083196766674518585205078125" lon="1.63241948001086711883544921875">
        <ele>-500</ele>
        <time>2025-09-07T10:58:48.000Z</time>
        <extensions>
          <ns3:TrackPointExtension>
            <ns3:hr>131</ns3:hr>
            <ns3:cad>82</ns3:cad>
          </ns3:TrackPointExtension>
        </extensions>
      </trkpt>
      <trkpt lat="52.30834700167179107666015625" lon="1.63246239535510540008544921875">
        <ele>-500</ele>
        <time>2025-09-07T10:58:50.000Z</time>
        <extensions>
          <ns3:TrackPointExtension>
            <ns3:hr>134</ns3:hr>
            <ns3:cad>82</ns3:cad>
          </ns3:TrackPointExtension>
        </extensions>
      </trkpt>
      <trkpt lat="52.3083713091909885406494140625" lon="1.63250447250902652740478515625">
        <ele>-500</ele>
        <time>2025-09-07T10:58:52.000Z</time>
        <extensions>
          <ns3:TrackPointExtension>
            <ns3:hr>134</ns3:hr>
            <ns3:cad>81</ns3:cad>
          </ns3:TrackPointExtension>
        </extensions>
      </trkpt>
      <trkpt lat="52.30839586816728115081787109375" lon="1.63254537619650363922119140625">
        <ele>-500</ele>
        <time>2025-09-07T10:58:54.000Z</time>
        <extensions>
          <ns3:TrackPointExtension>
            <ns3:hr>135</ns3:hr>
            <ns3:cad>81</ns3:cad>
          </ns3:TrackPointExtension>
        </extensions>
      </trkpt>
      <trkpt lat="52.3084200918674468994140625" lon="1.63261343725025653839111328125">
        <ele>-500</ele>
        <time>2025-09-07T10:58:57.000Z</time>
        <extensions>
          <ns3:TrackPointExtension>
            <ns3:hr>135</ns3:hr>
            <ns3:cad>82</ns3:cad>
          </ns3:TrackPointExtension>
        </extensions>
      </trkpt>
      <trkpt lat="52.3084668628871440887451171875" lon="1.6327285207808017730712890625">
        <ele>-500</ele>
        <time>2025-09-07T10:59:02.000Z</time>
        <extensions>
          <ns3:TrackPointExtension>
            <ns3:hr>135</ns3:hr>
            <ns3:cad>81</ns3:cad>
          </ns3:TrackPointExtension>
        </extensions>
      </trkpt>
      <trkpt lat="52.30847532860934734344482421875" lon="1.63276062346994876861572265625">
        <ele>-500</ele>
        <time>2025-09-07T10:59:03.000Z</time>
        <extensions>
          <ns3:TrackPointExtension>
            <ns3:hr>135</ns3:hr>
            <ns3:cad>81</ns3:cad>
          </ns3:TrackPointExtension>
        </extensions>
      </trkpt>
      <trkpt lat="52.308530397713184356689453125" lon="1.6329156048595905303955078125">
        <ele>-500</ele>
        <time>2025-09-07T10:59:09.000Z</time>
        <extensions>
          <ns3:TrackPointExtension>
            <ns3:hr>138</ns3:hr>
            <ns3:cad>82</ns3:cad>
          </ns3:TrackPointExtension>
        </extensions>
      </trkpt>
      <trkpt lat="52.30855914764106273651123046875" lon="1.63299531675875186920166015625">
        <ele>-500</ele>
        <time>2025-09-07T10:59:12.000Z</time>
        <extensions>
          <ns3:TrackPointExtension>
            <ns3:hr>135</ns3:hr>
            <ns3:cad>81</ns3:cad>
          </ns3:TrackPointExtension>
        </extensions>
      </trkpt>
      <trkpt lat="52.30856694281101226806640625" lon="1.63302230648696422576904296875">
        <ele>-500</ele>
        <time>2025-09-07T10:59:13.000Z</time>
        <extensions>
          <ns3:TrackPointExtension>
            <ns3:hr>137</ns3:hr>
            <ns3:cad>81</ns3:cad>
          </ns3:TrackPointExtension>
        </extensions>
      </trkpt>
      <trkpt lat="52.30865470133721828460693359375" lon="1.6332005895674228668212890625">
        <ele>-500</ele>
        <time>2025-09-07T10:59:20.000Z</time>
        <extensions>
          <ns3:TrackPointExtension>
            <ns3:hr>136</ns3:hr>
            <ns3:cad>80</ns3:cad>
          </ns3:TrackPointExtension>
        </extensions>
      </trkpt>
      <trkpt lat="52.3087528534233570098876953125" lon="1.63336931727826595306396484375">
        <ele>-500</ele>
        <time>2025-09-07T10:59:27.000Z</time>
        <extensions>
          <ns3:TrackPointExtension>
            <ns3:hr>138</ns3:hr>
            <ns3:cad>80</ns3:cad>
          </ns3:TrackPointExtension>
        </extensions>
      </trkpt>
      <trkpt lat="52.30881035327911376953125" lon="1.63362689316272735595703125">
        <ele>-500</ele>
        <time>2025-09-07T10:59:35.000Z</time>
        <extensions>
          <ns3:TrackPointExtension>
            <ns3:hr>141</ns3:hr>
            <ns3:cad>81</ns3:cad>
          </ns3:TrackPointExtension>
        </extensions>
      </trkpt>
      <trkpt lat="52.30889149010181427001953125" lon="1.63379914127290248870849609375">
        <ele>-500</ele>
        <time>2025-09-07T10:59:41.000Z</time>
        <extensions>
          <ns3:TrackPointExtension>
            <ns3:hr>139</ns3:hr>
            <ns3:cad>81</ns3:cad>
          </ns3:TrackPointExtension>
        </extensions>
      </trkpt>
      <trkpt lat="52.3089672625064849853515625" lon="1.63395722396671772003173828125">
        <ele>-500</ele>
        <time>2025-09-07T10:59:48.000Z</time>
        <extensions>
          <ns3:TrackPointExtension>
            <ns3:hr>141</ns3:hr>
            <ns3:cad>81</ns3:cad>
          </ns3:TrackPointExtension>
        </extensions>
      </trkpt>
      <trkpt lat="52.30898804962635040283203125" lon="1.6340112872421741485595703125">
        <ele>-500</ele>
        <time>2025-09-07T10:59:50.000Z</time>
        <extensions>
          <ns3:TrackPointExtension>
            <ns3:hr>138</ns3:hr>
            <ns3:cad>81</ns3:cad>
          </ns3:TrackPointExtension>
        </extensions>
      </trkpt>
      <trkpt lat="52.3089999519288539886474609375" lon="1.63404238410294055938720703125">
        <ele>-500</ele>
        <time>2025-09-07T10:59:51.000Z</time>
        <extensions>
          <ns3:TrackPointExtension>
            <ns3:hr>139</ns3:hr>
            <ns3:cad>82</ns3:cad>
          </ns3:TrackPointExtension>
        </extensions>
      </trkpt>
      <trkpt lat="52.309046722948551177978515625" lon="1.63431085646152496337890625">
        <ele>-500</ele>
        <time>2025-09-07T10:59:58.000Z</time>
        <extensions>
          <ns3:TrackPointExtension>
            <ns3:hr>139</ns3:hr>
            <ns3:cad>81</ns3:cad>
          </ns3:TrackPointExtension>
        </extensions>
      </trkpt>
      <trkpt lat="52.3090619780123233795166015625" lon="1.63450892083346843719482421875">
        <ele>-500</ele>
        <time>2025-09-07T11:00:03.000Z</time>
        <extensions>
          <ns3:TrackPointExtension>
            <ns3:hr>143</ns3:hr>
            <ns3:cad>82</ns3:cad>
          </ns3:TrackPointExtension>
        </extensions>
      </trkpt>
      <trkpt lat="52.30907513760030269622802734375" lon="1.63462827913463115692138671875">
        <ele>-500</ele>
        <time>2025-09-07T11:00:07.000Z</time>
        <extensions>
          <ns3:TrackPointExtension>
            <ns3:hr>143</ns3:hr>
            <ns3:cad>82</ns3:cad>
          </ns3:TrackPointExtension>
        </extensions>
      </trkpt>
      <trkpt lat="52.3091360740363597869873046875" lon="1.6348213143646717071533203125">
        <ele>-500</ele>
        <time>2025-09-07T11:00:14.000Z</time>
        <extensions>
          <ns3:TrackPointExtension>
            <ns3:hr>140</ns3:hr>
            <ns3:cad>82</ns3:cad>
          </ns3:TrackPointExtension>
        </extensions>
      </trkpt>
      <trkpt lat="52.30914906598627567291259765625" lon="1.6348491422832012176513671875">
        <ele>-500</ele>
        <time>2025-09-07T11:00:15.000Z</time>
        <extensions>
          <ns3:TrackPointExtension>
            <ns3:hr>144</ns3:hr>
            <ns3:cad>82</ns3:cad>
          </ns3:TrackPointExtension>
        </extensions>
      </trkpt>
      <trkpt lat="52.30922902934253215789794921875" lon="1.635017953813076019287109375">
        <ele>-500</ele>
        <time>2025-09-07T11:00:21.000Z</time>
        <extensions>
          <ns3:TrackPointExtension>
            <ns3:hr>142</ns3:hr>
            <ns3:cad>81</ns3:cad>
          </ns3:TrackPointExtension>
        </extensions>
      </trkpt>
      <trkpt lat="52.30929876677691936492919921875" lon="1.63532448001205921173095703125">
        <ele>-500</ele>
        <time>2025-09-07T11:00:30.000Z</time>
        <extensions>
          <ns3:TrackPointExtension>
            <ns3:hr>142</ns3:hr>
            <ns3:cad>81</ns3:cad>
          </ns3:TrackPointExtension>
        </extensions>
      </trkpt>
      <trkpt lat="52.30932542122900485992431640625" lon="1.63551558740437030792236328125">
        <ele>-500</ele>
        <time>2025-09-07T11:00:36.000Z</time>
        <extensions>
          <ns3:TrackPointExtension>
            <ns3:hr>143</ns3:hr>
            <ns3:cad>82</ns3:cad>
          </ns3:TrackPointExtension>
        </extensions>
      </trkpt>
      <trkpt lat="52.30936464853584766387939453125" lon="1.63570837117731571197509765625">
        <ele>-500</ele>
        <time>2025-09-07T11:00:42.000Z</time>
        <extensions>
          <ns3:TrackPointExtension>
            <ns3:hr>140</ns3:hr>
            <ns3:cad>82</ns3:cad>
          </ns3:TrackPointExtension>
        </extensions>
      </trkpt>
      <trkpt lat="52.30938099324703216552734375" lon="1.6357721574604511260986328125">
        <ele>-500</ele>
        <time>2025-09-07T11:00:44.000Z</time>
        <extensions>
          <ns3:TrackPointExtension>
            <ns3:hr>142</ns3:hr>
            <ns3:cad>82</ns3:cad>
          </ns3:TrackPointExtension>
        </extensions>
      </trkpt>
      <trkpt lat="52.30942265130579471588134765625" lon="1.6359351016581058502197265625">
        <ele>-500</ele>
        <time>2025-09-07T11:00:49.000Z</time>
        <extensions>
          <ns3:TrackPointExtension>
            <ns3:hr>145</ns3:hr>
            <ns3:cad>82</ns3:cad>
          </ns3:TrackPointExtension>
        </extensions>
      </trkpt>
      <trkpt lat="52.309446372091770172119140625" lon="1.63602881133556365966796875">
        <ele>-500</ele>
        <time>2025-09-07T11:00:52.000Z</time>
        <extensions>
          <ns3:TrackPointExtension>
            <ns3:hr>144</ns3:hr>
            <ns3:cad>82</ns3:cad>
          </ns3:TrackPointExtension>
        </extensions>
      </trkpt>
      <trkpt lat="52.30951778590679168701171875" lon="1.63628605194389820098876953125">
        <ele>-500</ele>
        <time>2025-09-07T11:01:00.000Z</time>
        <extensions>
          <ns3:TrackPointExtension>
            <ns3:hr>141</ns3:hr>
            <ns3:cad>83</ns3:cad>
          </ns3:TrackPointExtension>
        </extensions>
      </trkpt>
      <trkpt lat="52.30952390469610691070556640625" lon="1.63631957955658435821533203125">
        <ele>-500</ele>
        <time>2025-09-07T11:01:01.000Z</time>
        <extensions>
          <ns3:TrackPointExtension>
            <ns3:hr>141</ns3:hr>
            <ns3:cad>83</ns3:cad>
          </ns3:TrackPointExtension>
        </extensions>
      </trkpt>
      <trkpt lat="52.30959515087306499481201171875" lon="1.6365117765963077545166015625">
        <ele>-500</ele>
        <time>2025-09-07T11:01:08.000Z</time>
        <extensions>
          <ns3:TrackPointExtension>
            <ns3:hr>144</ns3:hr>
            <ns3:cad>83</ns3:cad>
          </ns3:TrackPointExtension>
        </extensions>
      </trkpt>
      <trkpt lat="52.30960822664201259613037109375" lon="1.63653734140098094940185546875">
        <ele>-500</ele>
        <time>2025-09-07T11:01:09.000Z</time>
        <extensions>
          <ns3:TrackPointExtension>
            <ns3:hr>144</ns3:hr>
            <ns3:cad>83</ns3:cad>
          </ns3:TrackPointExtension>
        </extensions>
      </trkpt>
      <trkpt lat="52.30968165211379528045654296875" lon="1.6366777382791042327880859375">
        <ele>-500</ele>
        <time>2025-09-07T11:01:14.000Z</time>
        <extensions>
          <ns3:TrackPointExtension>
            <ns3:hr>141</ns3:hr>
            <ns3:cad>81</ns3:cad>
          </ns3:TrackPointExtension>
        </extensions>
      </trkpt>
      <trkpt lat="52.3097161017358303070068359375" lon="1.63678242824971675872802734375">
        <ele>-500</ele>
        <time>2025-09-07T11:01:17.000Z</time>
        <extensions>
          <ns3:TrackPointExtension>
            <ns3:hr>142</ns3:hr>
            <ns3:cad>83</ns3:cad>
          </ns3:TrackPointExtension>
        </extensions>
      </trkpt>
      <trkpt lat="52.30972423218190670013427734375" lon="1.63681075908243656158447265625">
        <ele>-500</ele>
        <time>2025-09-07T11:01:18.000Z</time>
        <extensions>
          <ns3:TrackPointExtension>
            <ns3:hr>142</ns3:hr>
            <ns3:cad>84</ns3:cad>
          </ns3:TrackPointExtension>
        </extensions>
      </trkpt>
      <trkpt lat="52.3097818158566951751708984375" lon="1.63698694668710231781005859375">
        <ele>-500</ele>
        <time>2025-09-07T11:01:24.000Z</time>
        <extensions>
          <ns3:TrackPointExtension>
            <ns3:hr>141</ns3:hr>
            <ns3:cad>83</ns3:cad>
          </ns3:TrackPointExtension>
        </extensions>
      </trkpt>
      <trkpt lat="52.309847362339496612548828125" lon="1.63719900883734226226806640625">
        <ele>-500</ele>
        <time>2025-09-07T11:01:31.000Z</time>
        <extensions>
          <ns3:TrackPointExtension>
            <ns3:hr>141</ns3:hr>
            <ns3:cad>83</ns3:cad>
          </ns3:TrackPointExtension>
        </extensions>
      </trkpt>
      <trkpt lat="52.3099082149565219879150390625" lon="1.63745029829442501068115234375">
        <ele>-500</ele>
        <time>2025-09-07T11:01:39.000Z</time>
        <extensions>
          <ns3:TrackPointExtension>
            <ns3:hr>140</ns3:hr>
            <ns3:cad>82</ns3:cad>
          </ns3:TrackPointExtension>
        </extensions>
      </trkpt>
      <trkpt lat="52.3099149204790592193603515625" lon="1.63747829385101795196533203125">
        <ele>-500</ele>
        <time>2025-09-07T11:01:40.000Z</time>
        <extensions>
          <ns3:TrackPointExtension>
            <ns3:hr>140</ns3:hr>
            <ns3:cad>82</ns3:cad>
          </ns3:TrackPointExtension>
        </extensions>
      </trkpt>
      <trkpt lat="52.3099279962480068206787109375" lon="1.63757988251745700836181640625">
        <ele>-500</ele>
        <time>2025-09-07T11:01:43.000Z</time>
        <extensions>
          <ns3:TrackPointExtension>
            <ns3:hr>137</ns3:hr>
            <ns3:cad>82</ns3:cad>
          </ns3:TrackPointExtension>
        </extensions>
      </trkpt>
      <trkpt lat="52.30997954495251178741455078125" lon="1.6376906074583530426025390625">
        <ele>-500</ele>
        <time>2025-09-07T11:01:47.000Z</time>
        <extensions>
          <ns3:TrackPointExtension>
            <ns3:hr>138</ns3:hr>
            <ns3:cad>82</ns3:cad>
          </ns3:TrackPointExtension>
        </extensions>
      </trkpt>
      <trkpt lat="52.31002296321094036102294921875" lon="1.63776579312980175018310546875">
        <ele>-500</ele>
        <time>2025-09-07T11:01:50.000Z</time>
        <extensions>
          <ns3:TrackPointExtension>
            <ns3:hr>141</ns3:hr>
            <ns3:cad>82</ns3:cad>
          </ns3:TrackPointExtension>
        </extensions>
      </trkpt>
      <trkpt lat="52.31007141061127185821533203125" lon="1.63779831491410732269287109375">
        <ele>-500</ele>
        <time>2025-09-07T11:01:52.000Z</time>
        <extensions>
          <ns3:TrackPointExtension>
            <ns3:hr>138</ns3:hr>
            <ns3:cad>41</ns3:cad>
          </ns3:TrackPointExtension>
        </extensions>
      </trkpt>
      <trkpt lat="52.31008884496986865997314453125" lon="1.6378116421401500701904296875">
        <ele>-500</ele>
        <time>2025-09-07T11:01:53.000Z</time>
        <extensions>
          <ns3:TrackPointExtension>
            <ns3:hr>138</ns3:hr>
            <ns3:cad>41</ns3:cad>
          </ns3:TrackPointExtension>
        </extensions>
      </trkpt>
      <trkpt lat="52.31013092212378978729248046875" lon="1.63780317641794681549072265625">
        <ele>-500</ele>
        <time>2025-09-07T11:01:58.000Z</time>
        <extensions>
          <ns3:TrackPointExtension>
            <ns3:hr>139</ns3:hr>
            <ns3:cad>57</ns3:cad>
          </ns3:TrackPointExtension>
        </extensions>
      </trkpt>
      <trkpt lat="52.31013335287570953369140625" lon="1.63779730908572673797607421875">
        <ele>-500</ele>
        <time>2025-09-07T11:01:59.000Z</time>
        <extensions>
          <ns3:TrackPointExtension>
            <ns3:hr>139</ns3:hr>
            <ns3:cad>0</ns3:cad>
          </ns3:TrackPointExtension>
        </extensions>
      </trkpt>
      <trkpt lat="52.31014081276953220367431640625" lon="1.63778741843998432159423828125">
        <ele>-500</ele>
        <time>2025-09-07T11:02:01.000Z</time>
        <extensions>
          <ns3:TrackPointExtension>
            <ns3:hr>136</ns3:hr>
            <ns3:cad>0</ns3:cad>
          </ns3:TrackPointExtension>
        </extensions>
      </trkpt>
      <trkpt lat="52.31014600954949855804443359375" lon="1.63778658024966716766357421875">
        <ele>-500</ele>
        <time>2025-09-07T11:02:05.000Z</time>
        <extensions>
          <ns3:TrackPointExtension>
            <ns3:hr>136</ns3:hr>
            <ns3:cad>0</ns3:cad>
          </ns3:TrackPointExtension>
        </extensions>
      </trkpt>
      <trkpt lat="52.31015338562428951263427734375" lon="1.6377472691237926483154296875">
        <ele>-500</ele>
        <time>2025-09-07T11:02:09.000Z</time>
        <extensions>
          <ns3:TrackPointExtension>
            <ns3:hr>135</ns3:hr>
            <ns3:cad>0</ns3:cad>
          </ns3:TrackPointExtension>
        </extensions>
      </trkpt>
      <trkpt lat="52.3101506195962429046630859375" lon="1.63770829327404499053955078125">
        <ele>-500</ele>
        <time>2025-09-07T11:02:11.000Z</time>
        <extensions>
          <ns3:TrackPointExtension>
            <ns3:hr>133</ns3:hr>
            <ns3:cad>80</ns3:cad>
          </ns3:TrackPointExtension>
        </extensions>
      </trkpt>
      <trkpt lat="52.31015087105333805084228515625" lon="1.6376875899732112884521484375">
        <ele>-500</ele>
        <time>2025-09-07T11:02:12.000Z</time>
        <extensions>
          <ns3:TrackPointExtension>
            <ns3:hr>135</ns3:hr>
            <ns3:cad>80</ns3:cad>
          </ns3:TrackPointExtension>
        </extensions>
      </trkpt>
      <trkpt lat="52.31015346944332122802734375" lon="1.63764216005802154541015625">
        <ele>-500</ele>
        <time>2025-09-07T11:02:14.000Z</time>
        <extensions>
          <ns3:TrackPointExtension>
            <ns3:hr>139</ns3:hr>
            <ns3:cad>81</ns3:cad>
          </ns3:TrackPointExtension>
        </extensions>
      </trkpt>
      <trkpt lat="52.3101509548723697662353515625" lon="1.63762179203331470489501953125">
        <ele>-500</ele>
        <time>2025-09-07T11:02:15.000Z</time>
        <extensions>
          <ns3:TrackPointExtension>
            <ns3:hr>141</ns3:hr>
            <ns3:cad>81</ns3:cad>
          </ns3:TrackPointExtension>
        </extensions>
      </trkpt>
      <trkpt lat="52.3101492784917354583740234375" lon="1.637470163404941558837890625">
        <ele>-500</ele>
        <time>2025-09-07T11:02:21.000Z</time>
        <extensions>
          <ns3:TrackPointExtension>
            <ns3:hr>143</ns3:hr>
            <ns3:cad>81</ns3:cad>
          </ns3:TrackPointExtension>
        </extensions>
      </trkpt>
      <trkpt lat="52.31015237979590892791748046875" lon="1.63737754337489604949951171875">
        <ele>-500</ele>
        <time>2025-09-07T11:02:24.000Z</time>
        <extensions>
          <ns3:TrackPointExtension>
            <ns3:hr>142</ns3:hr>
            <ns3:cad>81</ns3:cad>
          </ns3:TrackPointExtension>
        </extensions>
      </trkpt>
      <trkpt lat="52.31015053577721118927001953125" lon="1.637312583625316619873046875">
        <ele>-500</ele>
        <time>2025-09-07T11:02:26.000Z</time>
        <extensions>
          <ns3:TrackPointExtension>
            <ns3:hr>141</ns3:hr>
            <ns3:cad>81</ns3:cad>
          </ns3:TrackPointExtension>
        </extensions>
      </trkpt>
      <trkpt lat="52.310154139995574951171875" lon="1.6371541656553745269775390625">
        <ele>-500</ele>
        <time>2025-09-07T11:02:31.000Z</time>
        <extensions>
          <ns3:TrackPointExtension>
            <ns3:hr>140</ns3:hr>
            <ns3:cad>81</ns3:cad>
          </ns3:TrackPointExtension>
        </extensions>
      </trkpt>
      <trkpt lat="52.31015422381460666656494140625" lon="1.6371233202517032623291015625">
        <ele>-500</ele>
        <time>2025-09-07T11:02:32.000Z</time>
        <extensions>
          <ns3:TrackPointExtension>
            <ns3:hr>140</ns3:hr>
            <ns3:cad>81</ns3:cad>
          </ns3:TrackPointExtension>
        </extensions>
      </trkpt>
      <trkpt lat="52.310157828032970428466796875" lon="1.63697470910847187042236328125">
        <ele>-500</ele>
        <time>2025-09-07T11:02:36.000Z</time>
        <extensions>
          <ns3:TrackPointExtension>
            <ns3:hr>139</ns3:hr>
            <ns3:cad>81</ns3:cad>
          </ns3:TrackPointExtension>
        </extensions>
      </trkpt>
      <trkpt lat="52.3101533018052577972412109375" lon="1.63682618178427219390869140625">
        <ele>-500</ele>
        <time>2025-09-07T11:02:40.000Z</time>
        <extensions>
          <ns3:TrackPointExtension>
            <ns3:hr>140</ns3:hr>
            <ns3:cad>81</ns3:cad>
          </ns3:TrackPointExtension>
        </extensions>
      </trkpt>
      <trkpt lat="52.31015388853847980499267578125" lon="1.63679189980030059814453125">
        <ele>-500</ele>
        <time>2025-09-07T11:02:41.000Z</time>
        <extensions>
          <ns3:TrackPointExtension>
            <ns3:hr>141</ns3:hr>
            <ns3:cad>81</ns3:cad>
          </ns3:TrackPointExtension>
        </extensions>
      </trkpt>
      <trkpt lat="52.310157828032970428466796875" lon="1.63658511824905872344970703125">
        <ele>-500</ele>
        <time>2025-09-07T11:02:47.000Z</time>
        <extensions>
          <ns3:TrackPointExtension>
            <ns3:hr>140</ns3:hr>
            <ns3:cad>82</ns3:cad>
          </ns3:TrackPointExtension>
        </extensions>
      </trkpt>
      <trkpt lat="52.31015673838555812835693359375" lon="1.636555530130863189697265625">
        <ele>-500</ele>
        <time>2025-09-07T11:02:48.000Z</time>
        <extensions>
          <ns3:TrackPointExtension>
            <ns3:hr>140</ns3:hr>
            <ns3:cad>82</ns3:cad>
          </ns3:TrackPointExtension>
        </extensions>
      </trkpt>
      <trkpt lat="52.31016880832612514495849609375" lon="1.63632653653621673583984375">
        <ele>-500</ele>
        <time>2025-09-07T11:02:55.000Z</time>
        <extensions>
          <ns3:TrackPointExtension>
            <ns3:hr>142</ns3:hr>
            <ns3:cad>83</ns3:cad>
          </ns3:TrackPointExtension>
        </extensions>
      </trkpt>
      <trkpt lat="52.31016822159290313720703125" lon="1.63629745133221149444580078125">
        <ele>-500</ele>
        <time>2025-09-07T11:02:56.000Z</time>
        <extensions>
          <ns3:TrackPointExtension>
            <ns3:hr>143</ns3:hr>
            <ns3:cad>83</ns3:cad>
          </ns3:TrackPointExtension>
        </extensions>
      </trkpt>
      <trkpt lat="52.31018858961760997772216796875" lon="1.63606166839599609375">
        <ele>-500</ele>
        <time>2025-09-07T11:03:03.000Z</time>
        <extensions>
          <ns3:TrackPointExtension>
            <ns3:hr>145</ns3:hr>
            <ns3:cad>82</ns3:cad>
          </ns3:TrackPointExtension>
        </extensions>
      </trkpt>
      <trkpt lat="52.31022379361093044281005859375" lon="1.63583527319133281707763671875">
        <ele>-500</ele>
        <time>2025-09-07T11:03:11.000Z</time>
        <extensions>
          <ns3:TrackPointExtension>
            <ns3:hr>146</ns3:hr>
            <ns3:cad>82</ns3:cad>
          </ns3:TrackPointExtension>
        </extensions>
      </trkpt>
      <trkpt lat="52.310242317616939544677734375" lon="1.63571692071855068206787109375">
        <ele>-500</ele>
        <time>2025-09-07T11:03:15.000Z</time>
        <extensions>
          <ns3:TrackPointExtension>
            <ns3:hr>149</ns3:hr>
            <ns3:cad>82</ns3:cad>
          </ns3:TrackPointExtension>
        </extensions>
      </trkpt>
      <trkpt lat="52.310260422527790069580078125" lon="1.63562513887882232666015625">
        <ele>-500</ele>
        <time>2025-09-07T11:03:18.000Z</time>
        <extensions>
          <ns3:TrackPointExtension>
            <ns3:hr>148</ns3:hr>
            <ns3:cad>81</ns3:cad>
          </ns3:TrackPointExtension>
        </extensions>
      </trkpt>
      <trkpt lat="52.3102656193077564239501953125" lon="1.6355941258370876312255859375">
        <ele>-500</ele>
        <time>2025-09-07T11:03:19.000Z</time>
        <extensions>
          <ns3:TrackPointExtension>
            <ns3:hr>148</ns3:hr>
            <ns3:cad>81</ns3:cad>
          </ns3:TrackPointExtension>
        </extensions>
      </trkpt>
      <trkpt lat="52.3102962970733642578125" lon="1.63541349582374095916748046875">
        <ele>-500</ele>
        <time>2025-09-07T11:03:25.000Z</time>
        <extensions>
          <ns3:TrackPointExtension>
            <ns3:hr>144</ns3:hr>
            <ns3:cad>81</ns3:cad>
          </ns3:TrackPointExtension>
        </extensions>
      </trkpt>
      <trkpt lat="52.31030308641493320465087890625" lon="1.6353493742644786834716796875">
        <ele>-500</ele>
        <time>2025-09-07T11:03:27.000Z</time>
        <extensions>
          <ns3:TrackPointExtension>
            <ns3:hr>147</ns3:hr>
            <ns3:cad>82</ns3:cad>
          </ns3:TrackPointExtension>
        </extensions>
      </trkpt>
      <trkpt lat="52.31030509807169437408447265625" lon="1.63529128767549991607666015625">
        <ele>-500</ele>
        <time>2025-09-07T11:03:29.000Z</time>
        <extensions>
          <ns3:TrackPointExtension>
            <ns3:hr>150</ns3:hr>
            <ns3:cad>82</ns3:cad>
          </ns3:TrackPointExtension>
        </extensions>
      </trkpt>
      <trkpt lat="52.3103110492229461669921875" lon="1.63522238843142986297607421875">
        <ele>-500</ele>
        <time>2025-09-07T11:03:31.000Z</time>
        <extensions>
          <ns3:TrackPointExtension>
            <ns3:hr>152</ns3:hr>
            <ns3:cad>81</ns3:cad>
          </ns3:TrackPointExtension>
        </extensions>
      </trkpt>
      <trkpt lat="52.31033007614314556121826171875" lon="1.63504301570355892181396484375">
        <ele>-500</ele>
        <time>2025-09-07T11:03:37.000Z</time>
        <extensions>
          <ns3:TrackPointExtension>
            <ns3:hr>153</ns3:hr>
            <ns3:cad>82</ns3:cad>
          </ns3:TrackPointExtension>
        </extensions>
      </trkpt>
      <trkpt lat="52.3103323392570018768310546875" lon="1.63500647060573101043701171875">
        <ele>-500</ele>
        <time>2025-09-07T11:03:38.000Z</time>
        <extensions>
          <ns3:TrackPointExtension>
            <ns3:hr>153</ns3:hr>
            <ns3:cad>82</ns3:cad>
          </ns3:TrackPointExtension>
        </extensions>
      </trkpt>
      <trkpt lat="52.31034390628337860107421875" lon="1.63488074205815792083740234375">
        <ele>-500</ele>
        <time>2025-09-07T11:03:42.000Z</time>
        <extensions>
          <ns3:TrackPointExtension>
            <ns3:hr>153</ns3:hr>
            <ns3:cad>82</ns3:cad>
          </ns3:TrackPointExtension>
        </extensions>
      </trkpt>
      <trkpt lat="52.31034751050174236297607421875" lon="1.6348479688167572021484375">
        <ele>-500</ele>
        <time>2025-09-07T11:03:43.000Z</time>
        <extensions>
          <ns3:TrackPointExtension>
            <ns3:hr>153</ns3:hr>
            <ns3:cad>82</ns3:cad>
          </ns3:TrackPointExtension>
        </extensions>
      </trkpt>
      <trkpt lat="52.310363687574863433837890625" lon="1.63472349755465984344482421875">
        <ele>-500</ele>
        <time>2025-09-07T11:03:47.000Z</time>
        <extensions>
          <ns3:TrackPointExtension>
            <ns3:hr>154</ns3:hr>
            <ns3:cad>82</ns3:cad>
          </ns3:TrackPointExtension>
        </extensions>
      </trkpt>
      <trkpt lat="52.31039277277886867523193359375" lon="1.63462827913463115692138671875">
        <ele>-500</ele>
        <time>2025-09-07T11:03:50.000Z</time>
        <extensions>
          <ns3:TrackPointExtension>
            <ns3:hr>154</ns3:hr>
            <ns3:cad>82</ns3:cad>
          </ns3:TrackPointExtension>
        </extensions>
      </trkpt>
      <trkpt lat="52.310419343411922454833984375" lon="1.6345663368701934814453125">
        <ele>-500</ele>
        <time>2025-09-07T11:03:52.000Z</time>
        <extensions>
          <ns3:TrackPointExtension>
            <ns3:hr>154</ns3:hr>
            <ns3:cad>82</ns3:cad>
          </ns3:TrackPointExtension>
        </extensions>
      </trkpt>
      <trkpt lat="52.3104694671928882598876953125" lon="1.6344642452895641326904296875">
        <ele>-500</ele>
        <time>2025-09-07T11:03:56.000Z</time>
        <extensions>
          <ns3:TrackPointExtension>
            <ns3:hr>153</ns3:hr>
            <ns3:cad>79</ns3:cad>
          </ns3:TrackPointExtension>
        </extensions>
      </trkpt>
      <trkpt lat="52.310478687286376953125" lon="1.63443532772362232208251953125">
        <ele>-500</ele>
        <time>2025-09-07T11:03:57.000Z</time>
        <extensions>
          <ns3:TrackPointExtension>
            <ns3:hr>154</ns3:hr>
            <ns3:cad>79</ns3:cad>
          </ns3:TrackPointExtension>
        </extensions>
      </trkpt>
      <trkpt lat="52.31050861068069934844970703125" lon="1.63436986505985260009765625">
        <ele>-500</ele>
        <time>2025-09-07T11:04:00.000Z</time>
        <extensions>
          <ns3:TrackPointExtension>
            <ns3:hr>152</ns3:hr>
            <ns3:cad>122</ns3:cad>
          </ns3:TrackPointExtension>
        </extensions>
      </trkpt>
      <trkpt lat="52.31055286712944507598876953125" lon="1.63430993445217609405517578125">
        <ele>-500</ele>
        <time>2025-09-07T11:04:04.000Z</time>
        <extensions>
          <ns3:TrackPointExtension>
            <ns3:hr>152</ns3:hr>
            <ns3:cad>60</ns3:cad>
          </ns3:TrackPointExtension>
        </extensions>
      </trkpt>
      <trkpt lat="52.31060952879488468170166015625" lon="1.63423248566687107086181640625">
        <ele>-500</ele>
        <time>2025-09-07T11:04:08.000Z</time>
        <extensions>
          <ns3:TrackPointExtension>
            <ns3:hr>151</ns3:hr>
            <ns3:cad>120</ns3:cad>
          </ns3:TrackPointExtension>
        </extensions>
      </trkpt>
      <trkpt lat="52.3106619156897068023681640625" lon="1.63419426418840885162353515625">
        <ele>-500</ele>
        <time>2025-09-07T11:04:11.000Z</time>
        <extensions>
          <ns3:TrackPointExtension>
            <ns3:hr>149</ns3:hr>
            <ns3:cad>120</ns3:cad>
          </ns3:TrackPointExtension>
        </extensions>
      </trkpt>
      <trkpt lat="52.310680188238620758056640625" lon="1.63418772630393505096435546875">
        <ele>-500</ele>
        <time>2025-09-07T11:04:12.000Z</time>
        <extensions>
          <ns3:TrackPointExtension>
            <ns3:hr>148</ns3:hr>
            <ns3:cad>120</ns3:cad>
          </ns3:TrackPointExtension>
        </extensions>
      </trkpt>
      <trkpt lat="52.3107256181538105010986328125" lon="1.6341789253056049346923828125">
        <ele>-500</ele>
        <time>2025-09-07T11:04:15.000Z</time>
        <extensions>
          <ns3:TrackPointExtension>
            <ns3:hr>147</ns3:hr>
            <ns3:cad>61</ns3:cad>
          </ns3:TrackPointExtension>
        </extensions>
      </trkpt>
      <trkpt lat="52.3107651807367801666259765625" lon="1.63417674601078033447265625">
        <ele>-500</ele>
        <time>2025-09-07T11:04:18.000Z</time>
        <extensions>
          <ns3:TrackPointExtension>
            <ns3:hr>146</ns3:hr>
            <ns3:cad>62</ns3:cad>
          </ns3:TrackPointExtension>
        </extensions>
      </trkpt>
      <trkpt lat="52.31077817268669605255126953125" lon="1.63417540490627288818359375">
        <ele>-500</ele>
        <time>2025-09-07T11:04:19.000Z</time>
        <extensions>
          <ns3:TrackPointExtension>
            <ns3:hr>146</ns3:hr>
            <ns3:cad>61</ns3:cad>
          </ns3:TrackPointExtension>
        </extensions>
      </trkpt>
      <trkpt lat="52.31080935336649417877197265625" lon="1.63417867384850978851318359375">
        <ele>-500</ele>
        <time>2025-09-07T11:04:21.000Z</time>
        <extensions>
          <ns3:TrackPointExtension>
            <ns3:hr>146</ns3:hr>
            <ns3:cad>61</ns3:cad>
          </ns3:TrackPointExtension>
        </extensions>
      </trkpt>
      <trkpt lat="52.310852520167827606201171875" lon="1.6341856308281421661376953125">
        <ele>-500</ele>
        <time>2025-09-07T11:04:24.000Z</time>
        <extensions>
          <ns3:TrackPointExtension>
            <ns3:hr>145</ns3:hr>
            <ns3:cad>61</ns3:cad>
          </ns3:TrackPointExtension>
        </extensions>
      </trkpt>
      <trkpt lat="52.3108919151127338409423828125" lon="1.63418889977037906646728515625">
        <ele>-500</ele>
        <time>2025-09-07T11:04:27.000Z</time>
        <extensions>
          <ns3:TrackPointExtension>
            <ns3:hr>144</ns3:hr>
            <ns3:cad>61</ns3:cad>
          </ns3:TrackPointExtension>
        </extensions>
      </trkpt>
      <trkpt lat="52.310905493795871734619140625" lon="1.63418881595134735107421875">
        <ele>-500</ele>
        <time>2025-09-07T11:04:28.000Z</time>
        <extensions>
          <ns3:TrackPointExtension>
            <ns3:hr>144</ns3:hr>
            <ns3:cad>61</ns3:cad>
          </ns3:TrackPointExtension>
        </extensions>
      </trkpt>
      <trkpt lat="52.31093089096248149871826171875" lon="1.63418537937104701995849609375">
        <ele>-500</ele>
        <time>2025-09-07T11:04:30.000Z</time>
        <extensions>
          <ns3:TrackPointExtension>
            <ns3:hr>143</ns3:hr>
            <ns3:cad>61</ns3:cad>
          </ns3:TrackPointExtension>
        </extensions>
      </trkpt>
      <trkpt lat="52.31096290983259677886962890625" lon="1.634174399077892303466796875">
        <ele>-500</ele>
        <time>2025-09-07T11:04:33.000Z</time>
        <extensions>
          <ns3:TrackPointExtension>
            <ns3:hr>142</ns3:hr>
            <ns3:cad>62</ns3:cad>
          </ns3:TrackPointExtension>
        </extensions>
      </trkpt>
      <trkpt lat="52.31100230477750301361083984375" lon="1.63417649455368518829345703125">
        <ele>-500</ele>
        <time>2025-09-07T11:04:36.000Z</time>
        <extensions>
          <ns3:TrackPointExtension>
            <ns3:hr>142</ns3:hr>
            <ns3:cad>62</ns3:cad>
          </ns3:TrackPointExtension>
        </extensions>
      </trkpt>
      <trkpt lat="52.31104270555078983306884765625" lon="1.63417942821979522705078125">
        <ele>-500</ele>
        <time>2025-09-07T11:04:39.000Z</time>
        <extensions>
          <ns3:TrackPointExtension>
            <ns3:hr>141</ns3:hr>
            <ns3:cad>60</ns3:cad>
          </ns3:TrackPointExtension>
        </extensions>
      </trkpt>
      <trkpt lat="52.3110753111541271209716796875" lon="1.63418286480009555816650390625">
        <ele>-500</ele>
        <time>2025-09-07T11:04:42.000Z</time>
        <extensions>
          <ns3:TrackPointExtension>
            <ns3:hr>140</ns3:hr>
            <ns3:cad>60</ns3:cad>
          </ns3:TrackPointExtension>
        </extensions>
      </trkpt>
      <trkpt lat="52.31111847795546054840087890625" lon="1.63418613374233245849609375">
        <ele>-500</ele>
        <time>2025-09-07T11:04:45.000Z</time>
        <extensions>
          <ns3:TrackPointExtension>
            <ns3:hr>139</ns3:hr>
            <ns3:cad>0</ns3:cad>
          </ns3:TrackPointExtension>
        </extensions>
      </trkpt>
      <trkpt lat="52.31116072274744510650634765625" lon="1.63418722338974475860595703125">
        <ele>-500</ele>
        <time>2025-09-07T11:04:48.000Z</time>
        <extensions>
          <ns3:TrackPointExtension>
            <ns3:hr>139</ns3:hr>
            <ns3:cad>61</ns3:cad>
          </ns3:TrackPointExtension>
        </extensions>
      </trkpt>
      <trkpt lat="52.3111735470592975616455078125" lon="1.63418521173298358917236328125">
        <ele>-500</ele>
        <time>2025-09-07T11:04:49.000Z</time>
        <extensions>
          <ns3:TrackPointExtension>
            <ns3:hr>139</ns3:hr>
            <ns3:cad>61</ns3:cad>
          </ns3:TrackPointExtension>
        </extensions>
      </trkpt>
      <trkpt lat="52.3112070746719837188720703125" lon="1.634175069630146026611328125">
        <ele>-500</ele>
        <time>2025-09-07T11:04:51.000Z</time>
        <extensions>
          <ns3:TrackPointExtension>
            <ns3:hr>138</ns3:hr>
            <ns3:cad>61</ns3:cad>
          </ns3:TrackPointExtension>
        </extensions>
      </trkpt>
      <trkpt lat="52.31125158257782459259033203125" lon="1.63417247124016284942626953125">
        <ele>-500</ele>
        <time>2025-09-07T11:04:54.000Z</time>
        <extensions>
          <ns3:TrackPointExtension>
            <ns3:hr>138</ns3:hr>
            <ns3:cad>61</ns3:cad>
          </ns3:TrackPointExtension>
        </extensions>
      </trkpt>
      <trkpt lat="52.31126549653708934783935546875" lon="1.63417180068790912628173828125">
        <ele>-500</ele>
        <time>2025-09-07T11:04:55.000Z</time>
        <extensions>
          <ns3:TrackPointExtension>
            <ns3:hr>138</ns3:hr>
            <ns3:cad>60</ns3:cad>
          </ns3:TrackPointExtension>
        </extensions>
      </trkpt>
      <trkpt lat="52.3113039694726467132568359375" lon="1.63417783565819263458251953125">
        <ele>-500</ele>
        <time>2025-09-07T11:04:57.000Z</time>
        <extensions>
          <ns3:TrackPointExtension>
            <ns3:hr>137</ns3:hr>
            <ns3:cad>61</ns3:cad>
          </ns3:TrackPointExtension>
        </extensions>
      </trkpt>
      <trkpt lat="52.311360128223896026611328125" lon="1.63419225253164768218994140625">
        <ele>-500</ele>
        <time>2025-09-07T11:05:00.000Z</time>
        <extensions>
          <ns3:TrackPointExtension>
            <ns3:hr>137</ns3:hr>
            <ns3:cad>61</ns3:cad>
          </ns3:TrackPointExtension>
        </extensions>
      </trkpt>
      <trkpt lat="52.31137789785861968994140625" lon="1.634193174540996551513671875">
        <ele>-500</ele>
        <time>2025-09-07T11:05:01.000Z</time>
        <extensions>
          <ns3:TrackPointExtension>
            <ns3:hr>137</ns3:hr>
            <ns3:cad>61</ns3:cad>
          </ns3:TrackPointExtension>
        </extensions>
      </trkpt>
      <trkpt lat="52.31140966527163982391357421875" lon="1.6341936774551868438720703125">
        <ele>-500</ele>
        <time>2025-09-07T11:05:03.000Z</time>
        <extensions>
          <ns3:TrackPointExtension>
            <ns3:hr>136</ns3:hr>
            <ns3:cad>61</ns3:cad>
          </ns3:TrackPointExtension>
        </extensions>
      </trkpt>
      <trkpt lat="52.3114617168903350830078125" lon="1.6341983713209629058837890625">
        <ele>-500</ele>
        <time>2025-09-07T11:05:06.000Z</time>
        <extensions>
          <ns3:TrackPointExtension>
            <ns3:hr>135</ns3:hr>
            <ns3:cad>61</ns3:cad>
          </ns3:TrackPointExtension>
        </extensions>
      </trkpt>
      <trkpt lat="52.31152734719216823577880859375" lon="1.63418789394199848175048828125">
        <ele>-500</ele>
        <time>2025-09-07T11:05:09.000Z</time>
        <extensions>
          <ns3:TrackPointExtension>
            <ns3:hr>135</ns3:hr>
            <ns3:cad>61</ns3:cad>
          </ns3:TrackPointExtension>
        </extensions>
      </trkpt>
      <trkpt lat="52.31159859336912631988525390625" lon="1.634187139570713043212890625">
        <ele>-500</ele>
        <time>2025-09-07T11:05:13.000Z</time>
        <extensions>
          <ns3:TrackPointExtension>
            <ns3:hr>134</ns3:hr>
            <ns3:cad>60</ns3:cad>
          </ns3:TrackPointExtension>
        </extensions>
      </trkpt>
      <trkpt lat="52.31163178570568561553955078125" lon="1.634188480675220489501953125">
        <ele>-500</ele>
        <time>2025-09-07T11:05:16.000Z</time>
        <extensions>
          <ns3:TrackPointExtension>
            <ns3:hr>134</ns3:hr>
            <ns3:cad>62</ns3:cad>
          </ns3:TrackPointExtension>
        </extensions>
      </trkpt>
      <trkpt lat="52.3116449452936649322509765625" lon="1.63418688811361789703369140625">
        <ele>-500</ele>
        <time>2025-09-07T11:05:17.000Z</time>
        <extensions>
          <ns3:TrackPointExtension>
            <ns3:hr>134</ns3:hr>
            <ns3:cad>62</ns3:cad>
          </ns3:TrackPointExtension>
        </extensions>
      </trkpt>
      <trkpt lat="52.31171459890902042388916015625" lon="1.6341876424849033355712890625">
        <ele>-500</ele>
        <time>2025-09-07T11:05:21.000Z</time>
        <extensions>
          <ns3:TrackPointExtension>
            <ns3:hr>136</ns3:hr>
            <ns3:cad>123</ns3:cad>
          </ns3:TrackPointExtension>
        </extensions>
      </trkpt>
      <trkpt lat="52.31172926723957061767578125" lon="1.63418856449425220489501953125">
        <ele>-500</ele>
        <time>2025-09-07T11:05:22.000Z</time>
        <extensions>
          <ns3:TrackPointExtension>
            <ns3:hr>135</ns3:hr>
            <ns3:cad>123</ns3:cad>
          </ns3:TrackPointExtension>
        </extensions>
      </trkpt>
      <trkpt lat="52.31177310459315776824951171875" lon="1.6341829486191272735595703125">
        <ele>-500</ele>
        <time>2025-09-07T11:05:25.000Z</time>
        <extensions>
          <ns3:TrackPointExtension>
            <ns3:hr>133</ns3:hr>
            <ns3:cad>61</ns3:cad>
          </ns3:TrackPointExtension>
        </extensions>
      </trkpt>
      <trkpt lat="52.31183496303856372833251953125" lon="1.63418202660977840423583984375">
        <ele>-500</ele>
        <time>2025-09-07T11:05:29.000Z</time>
        <extensions>
          <ns3:TrackPointExtension>
            <ns3:hr>133</ns3:hr>
            <ns3:cad>0</ns3:cad>
          </ns3:TrackPointExtension>
        </extensions>
      </trkpt>
      <trkpt lat="52.31188827194273471832275390625" lon="1.6341584734618663787841796875">
        <ele>-500</ele>
        <time>2025-09-07T11:05:34.000Z</time>
        <extensions>
          <ns3:TrackPointExtension>
            <ns3:hr>134</ns3:hr>
            <ns3:cad>0</ns3:cad>
          </ns3:TrackPointExtension>
        </extensions>
      </trkpt>
      <trkpt lat="52.31190319173038005828857421875" lon="1.63415319286286830902099609375">
        <ele>-500</ele>
        <time>2025-09-07T11:05:35.000Z</time>
        <extensions>
          <ns3:TrackPointExtension>
            <ns3:hr>134</ns3:hr>
            <ns3:cad>0</ns3:cad>
          </ns3:TrackPointExtension>
        </extensions>
      </trkpt>
      <trkpt lat="52.31196463108062744140625" lon="1.63414196111261844635009765625">
        <ele>-500</ele>
        <time>2025-09-07T11:05:39.000Z</time>
        <extensions>
          <ns3:TrackPointExtension>
            <ns3:hr>134</ns3:hr>
            <ns3:cad>60</ns3:cad>
          </ns3:TrackPointExtension>
        </extensions>
      </trkpt>
      <trkpt lat="52.3120342008769512176513671875" lon="1.6341236047446727752685546875">
        <ele>-500</ele>
        <time>2025-09-07T11:05:43.000Z</time>
        <extensions>
          <ns3:TrackPointExtension>
            <ns3:hr>133</ns3:hr>
            <ns3:cad>61</ns3:cad>
          </ns3:TrackPointExtension>
        </extensions>
      </trkpt>
      <trkpt lat="52.3121183551847934722900390625" lon="1.63412083871662616729736328125">
        <ele>-500</ele>
        <time>2025-09-07T11:05:48.000Z</time>
        <extensions>
          <ns3:TrackPointExtension>
            <ns3:hr>132</ns3:hr>
            <ns3:cad>0</ns3:cad>
          </ns3:TrackPointExtension>
        </extensions>
      </trkpt>
      <trkpt lat="52.3121478594839572906494140625" lon="1.63413056172430515289306640625">
        <ele>-500</ele>
        <time>2025-09-07T11:05:50.000Z</time>
        <extensions>
          <ns3:TrackPointExtension>
            <ns3:hr>132</ns3:hr>
            <ns3:cad>61</ns3:cad>
          </ns3:TrackPointExtension>
        </extensions>
      </trkpt>
      <trkpt lat="52.31219940818846225738525390625" lon="1.6341412067413330078125">
        <ele>-500</ele>
        <time>2025-09-07T11:05:53.000Z</time>
        <extensions>
          <ns3:TrackPointExtension>
            <ns3:hr>131</ns3:hr>
            <ns3:cad>61</ns3:cad>
          </ns3:TrackPointExtension>
        </extensions>
      </trkpt>
      <trkpt lat="52.31228657998144626617431640625" lon="1.6341564618051052093505859375">
        <ele>-500</ele>
        <time>2025-09-07T11:05:58.000Z</time>
        <extensions>
          <ns3:TrackPointExtension>
            <ns3:hr>132</ns3:hr>
            <ns3:cad>61</ns3:cad>
          </ns3:TrackPointExtension>
        </extensions>
      </trkpt>
      <trkpt lat="52.3123027570545673370361328125" lon="1.63415939547121524810791015625">
        <ele>-500</ele>
        <time>2025-09-07T11:05:59.000Z</time>
        <extensions>
          <ns3:TrackPointExtension>
            <ns3:hr>132</ns3:hr>
            <ns3:cad>61</ns3:cad>
          </ns3:TrackPointExtension>
        </extensions>
      </trkpt>
      <trkpt lat="52.3123664595186710357666015625" lon="1.6341742314398288726806640625">
        <ele>-500</ele>
        <time>2025-09-07T11:06:03.000Z</time>
        <extensions>
          <ns3:TrackPointExtension>
            <ns3:hr>133</ns3:hr>
            <ns3:cad>80</ns3:cad>
          </ns3:TrackPointExtension>
        </extensions>
      </trkpt>
      <trkpt lat="52.31242203153669834136962890625" lon="1.6341987065970897674560546875">
        <ele>-500</ele>
        <time>2025-09-07T11:06:06.000Z</time>
        <extensions>
          <ns3:TrackPointExtension>
            <ns3:hr>136</ns3:hr>
            <ns3:cad>81</ns3:cad>
          </ns3:TrackPointExtension>
        </extensions>
      </trkpt>
      <trkpt lat="52.31243862770497798919677734375" lon="1.63420666940510272979736328125">
        <ele>-500</ele>
        <time>2025-09-07T11:06:07.000Z</time>
        <extensions>
          <ns3:TrackPointExtension>
            <ns3:hr>134</ns3:hr>
            <ns3:cad>81</ns3:cad>
          </ns3:TrackPointExtension>
        </extensions>
      </trkpt>
      <trkpt lat="52.31247601099312305450439453125" lon="1.63421873934566974639892578125">
        <ele>-500</ele>
        <time>2025-09-07T11:06:09.000Z</time>
        <extensions>
          <ns3:TrackPointExtension>
            <ns3:hr>135</ns3:hr>
            <ns3:cad>82</ns3:cad>
          </ns3:TrackPointExtension>
        </extensions>
      </trkpt>
      <trkpt lat="52.312557063996791839599609375" lon="1.63419015705585479736328125">
        <ele>-500</ele>
        <time>2025-09-07T11:06:13.000Z</time>
        <extensions>
          <ns3:TrackPointExtension>
            <ns3:hr>140</ns3:hr>
            <ns3:cad>81</ns3:cad>
          </ns3:TrackPointExtension>
        </extensions>
      </trkpt>
      <trkpt lat="52.31257575564086437225341796875" lon="1.634183116257190704345703125">
        <ele>-500</ele>
        <time>2025-09-07T11:06:14.000Z</time>
        <extensions>
          <ns3:TrackPointExtension>
            <ns3:hr>143</ns3:hr>
            <ns3:cad>81</ns3:cad>
          </ns3:TrackPointExtension>
        </extensions>
      </trkpt>
      <trkpt lat="52.31261305510997772216796875" lon="1.63418437354266643524169921875">
        <ele>-500</ele>
        <time>2025-09-07T11:06:16.000Z</time>
        <extensions>
          <ns3:TrackPointExtension>
            <ns3:hr>144</ns3:hr>
            <ns3:cad>80</ns3:cad>
          </ns3:TrackPointExtension>
        </extensions>
      </trkpt>
      <trkpt lat="52.31268346309661865234375" lon="1.6341973654925823211669921875">
        <ele>-500</ele>
        <time>2025-09-07T11:06:21.000Z</time>
        <extensions>
          <ns3:TrackPointExtension>
            <ns3:hr>145</ns3:hr>
            <ns3:cad>81</ns3:cad>
          </ns3:TrackPointExtension>
        </extensions>
      </trkpt>
      <trkpt lat="52.31273216195404529571533203125" lon="1.63420465774834156036376953125">
        <ele>-500</ele>
        <time>2025-09-07T11:06:24.000Z</time>
        <extensions>
          <ns3:TrackPointExtension>
            <ns3:hr>145</ns3:hr>
            <ns3:cad>81</ns3:cad>
          </ns3:TrackPointExtension>
        </extensions>
      </trkpt>
      <trkpt lat="52.31281564570963382720947265625" lon="1.63420356810092926025390625">
        <ele>-500</ele>
        <time>2025-09-07T11:06:29.000Z</time>
        <extensions>
          <ns3:TrackPointExtension>
            <ns3:hr>145</ns3:hr>
            <ns3:cad>81</ns3:cad>
          </ns3:TrackPointExtension>
        </extensions>
      </trkpt>
      <trkpt lat="52.31290784664452075958251953125" lon="1.6341792605817317962646484375">
        <ele>-500</ele>
        <time>2025-09-07T11:06:34.000Z</time>
        <extensions>
          <ns3:TrackPointExtension>
            <ns3:hr>149</ns3:hr>
            <ns3:cad>80</ns3:cad>
          </ns3:TrackPointExtension>
        </extensions>
      </trkpt>
      <trkpt lat="52.31294967234134674072265625" lon="1.634180434048175811767578125">
        <ele>-500</ele>
        <time>2025-09-07T11:06:36.000Z</time>
        <extensions>
          <ns3:TrackPointExtension>
            <ns3:hr>146</ns3:hr>
            <ns3:cad>81</ns3:cad>
          </ns3:TrackPointExtension>
        </extensions>
      </trkpt>
      <trkpt lat="52.31299367733299732208251953125" lon="1.63417884148657321929931640625">
        <ele>-500</ele>
        <time>2025-09-07T11:06:38.000Z</time>
        <extensions>
          <ns3:TrackPointExtension>
            <ns3:hr>145</ns3:hr>
            <ns3:cad>81</ns3:cad>
          </ns3:TrackPointExtension>
        </extensions>
      </trkpt>
      <trkpt lat="52.31318394653499126434326171875" lon="1.6341846249997615814208984375">
        <ele>-500</ele>
        <time>2025-09-07T11:06:48.000Z</time>
        <extensions>
          <ns3:TrackPointExtension>
            <ns3:hr>146</ns3:hr>
            <ns3:cad>81</ns3:cad>
          </ns3:TrackPointExtension>
        </extensions>
      </trkpt>
      <trkpt lat="52.31335225515067577362060546875" lon="1.634168364107608795166015625">
        <ele>-500</ele>
        <time>2025-09-07T11:06:57.000Z</time>
        <extensions>
          <ns3:TrackPointExtension>
            <ns3:hr>146</ns3:hr>
            <ns3:cad>80</ns3:cad>
          </ns3:TrackPointExtension>
        </extensions>
      </trkpt>
      <trkpt lat="52.3135084100067615509033203125" lon="1.63414598442614078521728515625">
        <ele>-500</ele>
        <time>2025-09-07T11:07:05.000Z</time>
        <extensions>
          <ns3:TrackPointExtension>
            <ns3:hr>149</ns3:hr>
            <ns3:cad>81</ns3:cad>
          </ns3:TrackPointExtension>
        </extensions>
      </trkpt>
      <trkpt lat="52.31365266256034374237060546875" lon="1.634124778211116790771484375">
        <ele>-500</ele>
        <time>2025-09-07T11:07:13.000Z</time>
        <extensions>
          <ns3:TrackPointExtension>
            <ns3:hr>150</ns3:hr>
            <ns3:cad>81</ns3:cad>
          </ns3:TrackPointExtension>
        </extensions>
      </trkpt>
      <trkpt lat="52.31381828896701335906982421875" lon="1.63415604270994663238525390625">
        <ele>-500</ele>
        <time>2025-09-07T11:07:21.000Z</time>
        <extensions>
          <ns3:TrackPointExtension>
            <ns3:hr>150</ns3:hr>
            <ns3:cad>81</ns3:cad>
          </ns3:TrackPointExtension>
        </extensions>
      </trkpt>
      <trkpt lat="52.31398877687752246856689453125" lon="1.63414179347455501556396484375">
        <ele>-500</ele>
        <time>2025-09-07T11:07:29.000Z</time>
        <extensions>
          <ns3:TrackPointExtension>
            <ns3:hr>151</ns3:hr>
            <ns3:cad>81</ns3:cad>
          </ns3:TrackPointExtension>
        </extensions>
      </trkpt>
      <trkpt lat="52.314134873449802398681640625" lon="1.63404003717005252838134765625">
        <ele>-500</ele>
        <time>2025-09-07T11:07:36.000Z</time>
        <extensions>
          <ns3:TrackPointExtension>
            <ns3:hr>153</ns3:hr>
            <ns3:cad>80</ns3:cad>
          </ns3:TrackPointExtension>
        </extensions>
      </trkpt>
      <trkpt lat="52.3141876794397830963134765625" lon="1.634013466536998748779296875">
        <ele>-500</ele>
        <time>2025-09-07T11:07:39.000Z</time>
        <extensions>
          <ns3:TrackPointExtension>
            <ns3:hr>154</ns3:hr>
            <ns3:cad>80</ns3:cad>
          </ns3:TrackPointExtension>
        </extensions>
      </trkpt>
      <trkpt lat="52.31420226395130157470703125" lon="1.634017489850521087646484375">
        <ele>-500</ele>
        <time>2025-09-07T11:07:40.000Z</time>
        <extensions>
          <ns3:TrackPointExtension>
            <ns3:hr>155</ns3:hr>
            <ns3:cad>80</ns3:cad>
          </ns3:TrackPointExtension>
        </extensions>
      </trkpt>
      <trkpt lat="52.314222045242786407470703125" lon="1.63403534330427646636962890625">
        <ele>-500</ele>
        <time>2025-09-07T11:07:42.000Z</time>
        <extensions>
          <ns3:TrackPointExtension>
            <ns3:hr>155</ns3:hr>
            <ns3:cad>0</ns3:cad>
          </ns3:TrackPointExtension>
        </extensions>
      </trkpt>
      <trkpt lat="52.3142339475452899932861328125" lon="1.63405160419642925262451171875">
        <ele>-500</ele>
        <time>2025-09-07T11:07:49.000Z</time>
        <extensions>
          <ns3:TrackPointExtension>
            <ns3:hr>156</ns3:hr>
            <ns3:cad>0</ns3:cad>
          </ns3:TrackPointExtension>
        </extensions>
      </trkpt>
      <trkpt lat="52.3142349533736705780029296875" lon="1.63405931554734706878662109375">
        <ele>-500</ele>
        <time>2025-09-07T11:07:53.000Z</time>
        <extensions>
          <ns3:TrackPointExtension>
            <ns3:hr>153</ns3:hr>
            <ns3:cad>0</ns3:cad>
          </ns3:TrackPointExtension>
        </extensions>
      </trkpt>
      <trkpt lat="52.314231097698211669921875" lon="1.63413056172430515289306640625">
        <ele>-500</ele>
        <time>2025-09-07T11:07:58.000Z</time>
        <extensions>
          <ns3:TrackPointExtension>
            <ns3:hr>152</ns3:hr>
            <ns3:cad>0</ns3:cad>
          </ns3:TrackPointExtension>
        </extensions>
      </trkpt>
      <trkpt lat="52.314234115183353424072265625" lon="1.63417867384850978851318359375">
        <ele>-500</ele>
        <time>2025-09-07T11:08:03.000Z</time>
        <extensions>
          <ns3:TrackPointExtension>
            <ns3:hr>148</ns3:hr>
            <ns3:cad>0</ns3:cad>
          </ns3:TrackPointExtension>
        </extensions>
      </trkpt>
      <trkpt lat="52.31422640383243560791015625" lon="1.63417833857238292694091796875">
        <ele>-500</ele>
        <time>2025-09-07T11:08:07.000Z</time>
        <extensions>
          <ns3:TrackPointExtension>
            <ns3:hr>147</ns3:hr>
            <ns3:cad>0</ns3:cad>
          </ns3:TrackPointExtension>
        </extensions>
      </trkpt>
      <trkpt lat="52.314210645854473114013671875" lon="1.63418638519942760467529296875">
        <ele>-500</ele>
        <time>2025-09-07T11:08:16.000Z</time>
        <extensions>
          <ns3:TrackPointExtension>
            <ns3:hr>145</ns3:hr>
            <ns3:cad>0</ns3:cad>
          </ns3:TrackPointExtension>
        </extensions>
      </trkpt>
      <trkpt lat="52.31422062031924724578857421875" lon="1.63414313457906246185302734375">
        <ele>-500</ele>
        <time>2025-09-07T11:08:26.000Z</time>
        <extensions>
          <ns3:TrackPointExtension>
            <ns3:hr>143</ns3:hr>
            <ns3:cad>0</ns3:cad>
          </ns3:TrackPointExtension>
        </extensions>
      </trkpt>
      <trkpt lat="52.31427594088017940521240234375" lon="1.634237430989742279052734375">
        <ele>-500</ele>
        <time>2025-09-07T11:08:32.000Z</time>
        <extensions>
          <ns3:TrackPointExtension>
            <ns3:hr>142</ns3:hr>
            <ns3:cad>60</ns3:cad>
          </ns3:TrackPointExtension>
        </extensions>
      </trkpt>
      <trkpt lat="52.3143640346825122833251953125" lon="1.63433910347521305084228515625">
        <ele>-500</ele>
        <time>2025-09-07T11:08:37.000Z</time>
        <extensions>
          <ns3:TrackPointExtension>
            <ns3:hr>140</ns3:hr>
            <ns3:cad>80</ns3:cad>
          </ns3:TrackPointExtension>
        </extensions>
      </trkpt>
      <trkpt lat="52.314462773501873016357421875" lon="1.634484194219112396240234375">
        <ele>-500</ele>
        <time>2025-09-07T11:08:43.000Z</time>
        <extensions>
          <ns3:TrackPointExtension>
            <ns3:hr>145</ns3:hr>
            <ns3:cad>82</ns3:cad>
          </ns3:TrackPointExtension>
        </extensions>
      </trkpt>
      <trkpt lat="52.31447325088083744049072265625" lon="1.63451294414699077606201171875">
        <ele>-500</ele>
        <time>2025-09-07T11:08:44.000Z</time>
        <extensions>
          <ns3:TrackPointExtension>
            <ns3:hr>145</ns3:hr>
            <ns3:cad>82</ns3:cad>
          </ns3:TrackPointExtension>
        </extensions>
      </trkpt>
      <trkpt lat="52.3144984804093837738037109375" lon="1.6345681808888912200927734375">
        <ele>-500</ele>
        <time>2025-09-07T11:08:46.000Z</time>
        <extensions>
          <ns3:TrackPointExtension>
            <ns3:hr>150</ns3:hr>
            <ns3:cad>83</ns3:cad>
          </ns3:TrackPointExtension>
        </extensions>
      </trkpt>
      <trkpt lat="52.314511723816394805908203125" lon="1.634590812027454376220703125">
        <ele>-500</ele>
        <time>2025-09-07T11:08:47.000Z</time>
        <extensions>
          <ns3:TrackPointExtension>
            <ns3:hr>150</ns3:hr>
            <ns3:cad>83</ns3:cad>
          </ns3:TrackPointExtension>
        </extensions>
      </trkpt>
      <trkpt lat="52.31456494890153408050537109375" lon="1.634696759283542633056640625">
        <ele>-500</ele>
        <time>2025-09-07T11:08:51.000Z</time>
        <extensions>
          <ns3:TrackPointExtension>
            <ns3:hr>152</ns3:hr>
            <ns3:cad>81</ns3:cad>
          </ns3:TrackPointExtension>
        </extensions>
      </trkpt>
      <trkpt lat="52.31463686563074588775634765625" lon="1.6348372399806976318359375">
        <ele>-500</ele>
        <time>2025-09-07T11:08:57.000Z</time>
        <extensions>
          <ns3:TrackPointExtension>
            <ns3:hr>155</ns3:hr>
            <ns3:cad>82</ns3:cad>
          </ns3:TrackPointExtension>
        </extensions>
      </trkpt>
      <trkpt lat="52.31465756893157958984375" lon="1.634898595511913299560546875">
        <ele>-500</ele>
        <time>2025-09-07T11:08:59.000Z</time>
        <extensions>
          <ns3:TrackPointExtension>
            <ns3:hr>154</ns3:hr>
            <ns3:cad>79</ns3:cad>
          </ns3:TrackPointExtension>
        </extensions>
      </trkpt>
      <trkpt lat="52.31470123864710330963134765625" lon="1.6350248269736766815185546875">
        <ele>-500</ele>
        <time>2025-09-07T11:09:04.000Z</time>
        <extensions>
          <ns3:TrackPointExtension>
            <ns3:hr>157</ns3:hr>
            <ns3:cad>81</ns3:cad>
          </ns3:TrackPointExtension>
        </extensions>
      </trkpt>
      <trkpt lat="52.31470660306513309478759765625" lon="1.63504268042743206024169921875">
        <ele>-500</ele>
        <time>2025-09-07T11:09:05.000Z</time>
        <extensions>
          <ns3:TrackPointExtension>
            <ns3:hr>161</ns3:hr>
            <ns3:cad>80</ns3:cad>
          </ns3:TrackPointExtension>
        </extensions>
      </trkpt>
      <trkpt lat="52.314708195626735687255859375" lon="1.63504871539771556854248046875">
        <ele>-500</ele>
        <time>2025-09-07T11:09:06.000Z</time>
        <extensions>
          <ns3:TrackPointExtension>
            <ns3:hr>163</ns3:hr>
            <ns3:cad>0</ns3:cad>
          </ns3:TrackPointExtension>
        </extensions>
      </trkpt>
      <trkpt lat="52.31470375321805477142333984375" lon="1.63505910895764827728271484375">
        <ele>-500</ele>
        <time>2025-09-07T11:09:14.000Z</time>
        <extensions>
          <ns3:TrackPointExtension>
            <ns3:hr>162</ns3:hr>
            <ns3:cad>0</ns3:cad>
          </ns3:TrackPointExtension>
        </extensions>
      </trkpt>
      <trkpt lat="52.31475748121738433837890625" lon="1.63516237400472164154052734375">
        <ele>-500</ele>
        <time>2025-09-07T11:09:19.000Z</time>
        <extensions>
          <ns3:TrackPointExtension>
            <ns3:hr>159</ns3:hr>
            <ns3:cad>80</ns3:cad>
          </ns3:TrackPointExtension>
        </extensions>
      </trkpt>
      <trkpt lat="52.314769215881824493408203125" lon="1.635189615190029144287109375">
        <ele>-500</ele>
        <time>2025-09-07T11:09:20.000Z</time>
        <extensions>
          <ns3:TrackPointExtension>
            <ns3:hr>160</ns3:hr>
            <ns3:cad>80</ns3:cad>
          </ns3:TrackPointExtension>
        </extensions>
      </trkpt>
      <trkpt lat="52.3148116283118724822998046875" lon="1.6353010945022106170654296875">
        <ele>-500</ele>
        <time>2025-09-07T11:09:24.000Z</time>
        <extensions>
          <ns3:TrackPointExtension>
            <ns3:hr>164</ns3:hr>
            <ns3:cad>81</ns3:cad>
          </ns3:TrackPointExtension>
        </extensions>
      </trkpt>
      <trkpt lat="52.3148345947265625" lon="1.63535892963409423828125">
        <ele>-500</ele>
        <time>2025-09-07T11:09:26.000Z</time>
        <extensions>
          <ns3:TrackPointExtension>
            <ns3:hr>165</ns3:hr>
            <ns3:cad>82</ns3:cad>
          </ns3:TrackPointExtension>
        </extensions>
      </trkpt>
      <trkpt lat="52.31485546566545963287353515625" lon="1.63541651330888271331787109375">
        <ele>-500</ele>
        <time>2025-09-07T11:09:28.000Z</time>
        <extensions>
          <ns3:TrackPointExtension>
            <ns3:hr>166</ns3:hr>
            <ns3:cad>83</ns3:cad>
          </ns3:TrackPointExtension>
        </extensions>
      </trkpt>
      <trkpt lat="52.3149179108440876007080078125" lon="1.635586917400360107421875">
        <ele>-500</ele>
        <time>2025-09-07T11:09:34.000Z</time>
        <extensions>
          <ns3:TrackPointExtension>
            <ns3:hr>167</ns3:hr>
            <ns3:cad>83</ns3:cad>
          </ns3:TrackPointExtension>
        </extensions>
      </trkpt>
      <trkpt lat="52.3150075972080230712890625" lon="1.6358546353876590728759765625">
        <ele>-500</ele>
        <time>2025-09-07T11:09:43.000Z</time>
        <extensions>
          <ns3:TrackPointExtension>
            <ns3:hr>166</ns3:hr>
            <ns3:cad>82</ns3:cad>
          </ns3:TrackPointExtension>
        </extensions>
      </trkpt>
      <trkpt lat="52.3150406219065189361572265625" lon="1.6359498538076877593994140625">
        <ele>-500</ele>
        <time>2025-09-07T11:09:46.000Z</time>
        <extensions>
          <ns3:TrackPointExtension>
            <ns3:hr>165</ns3:hr>
            <ns3:cad>82</ns3:cad>
          </ns3:TrackPointExtension>
        </extensions>
      </trkpt>
      <trkpt lat="52.3151046596467494964599609375" lon="1.636123694479465484619140625">
        <ele>-500</ele>
        <time>2025-09-07T11:09:52.000Z</time>
        <extensions>
          <ns3:TrackPointExtension>
            <ns3:hr>165</ns3:hr>
            <ns3:cad>82</ns3:cad>
          </ns3:TrackPointExtension>
        </extensions>
      </trkpt>
      <trkpt lat="52.3151210881769657135009765625" lon="1.63617976941168308258056640625">
        <ele>-500</ele>
        <time>2025-09-07T11:09:54.000Z</time>
        <extensions>
          <ns3:TrackPointExtension>
            <ns3:hr>164</ns3:hr>
            <ns3:cad>81</ns3:cad>
          </ns3:TrackPointExtension>
        </extensions>
      </trkpt>
      <trkpt lat="52.3151526041328907012939453125" lon="1.6362693719565868377685546875">
        <ele>-500</ele>
        <time>2025-09-07T11:09:57.000Z</time>
        <extensions>
          <ns3:TrackPointExtension>
            <ns3:hr>161</ns3:hr>
            <ns3:cad>81</ns3:cad>
          </ns3:TrackPointExtension>
        </extensions>
      </trkpt>
      <trkpt lat="52.3151733912527561187744140625" lon="1.63633265532553195953369140625">
        <ele>-500</ele>
        <time>2025-09-07T11:09:59.000Z</time>
        <extensions>
          <ns3:TrackPointExtension>
            <ns3:hr>157</ns3:hr>
            <ns3:cad>81</ns3:cad>
          </ns3:TrackPointExtension>
        </extensions>
      </trkpt>
      <trkpt lat="52.3151827789843082427978515625" lon="1.6363660991191864013671875">
        <ele>-500</ele>
        <time>2025-09-07T11:10:00.000Z</time>
        <extensions>
          <ns3:TrackPointExtension>
            <ns3:hr>155</ns3:hr>
            <ns3:cad>81</ns3:cad>
          </ns3:TrackPointExtension>
        </extensions>
      </trkpt>
      <trkpt lat="52.3152159713208675384521484375" lon="1.63648721762001514434814453125">
        <ele>-500</ele>
        <time>2025-09-07T11:10:04.000Z</time>
        <extensions>
          <ns3:TrackPointExtension>
            <ns3:hr>152</ns3:hr>
            <ns3:cad>82</ns3:cad>
          </ns3:TrackPointExtension>
        </extensions>
      </trkpt>
      <trkpt lat="52.3152240179479122161865234375" lon="1.63651638664305210113525390625">
        <ele>-500</ele>
        <time>2025-09-07T11:10:05.000Z</time>
        <extensions>
          <ns3:TrackPointExtension>
            <ns3:hr>152</ns3:hr>
            <ns3:cad>82</ns3:cad>
          </ns3:TrackPointExtension>
        </extensions>
      </trkpt>
      <trkpt lat="52.3152448050677776336669921875" lon="1.63657941855490207672119140625">
        <ele>-500</ele>
        <time>2025-09-07T11:10:07.000Z</time>
        <extensions>
          <ns3:TrackPointExtension>
            <ns3:hr>153</ns3:hr>
            <ns3:cad>82</ns3:cad>
          </ns3:TrackPointExtension>
        </extensions>
      </trkpt>
      <trkpt lat="52.315273471176624298095703125" lon="1.63667363114655017852783203125">
        <ele>-500</ele>
        <time>2025-09-07T11:10:10.000Z</time>
        <extensions>
          <ns3:TrackPointExtension>
            <ns3:hr>154</ns3:hr>
            <ns3:cad>81</ns3:cad>
          </ns3:TrackPointExtension>
        </extensions>
      </trkpt>
      <trkpt lat="52.31532015837728977203369140625" lon="1.6367867030203342437744140625">
        <ele>-500</ele>
        <time>2025-09-07T11:10:14.000Z</time>
        <extensions>
          <ns3:TrackPointExtension>
            <ns3:hr>152</ns3:hr>
            <ns3:cad>81</ns3:cad>
          </ns3:TrackPointExtension>
        </extensions>
      </trkpt>
      <trkpt lat="52.31533817946910858154296875" lon="1.63683749735355377197265625">
        <ele>-500</ele>
        <time>2025-09-07T11:10:16.000Z</time>
        <extensions>
          <ns3:TrackPointExtension>
            <ns3:hr>151</ns3:hr>
            <ns3:cad>81</ns3:cad>
          </ns3:TrackPointExtension>
        </extensions>
      </trkpt>
      <trkpt lat="52.3153473995625972747802734375" lon="1.63686423562467098236083984375">
        <ele>-500</ele>
        <time>2025-09-07T11:10:17.000Z</time>
        <extensions>
          <ns3:TrackPointExtension>
            <ns3:hr>151</ns3:hr>
            <ns3:cad>81</ns3:cad>
          </ns3:TrackPointExtension>
        </extensions>
      </trkpt>
      <trkpt lat="52.3153722099959850311279296875" lon="1.63694185204803943634033203125">
        <ele>-500</ele>
        <time>2025-09-07T11:10:20.000Z</time>
        <extensions>
          <ns3:TrackPointExtension>
            <ns3:hr>152</ns3:hr>
            <ns3:cad>81</ns3:cad>
          </ns3:TrackPointExtension>
        </extensions>
      </trkpt>
      <trkpt lat="52.31539308093488216400146484375" lon="1.63702382706105709075927734375">
        <ele>-500</ele>
        <time>2025-09-07T11:10:23.000Z</time>
        <extensions>
          <ns3:TrackPointExtension>
            <ns3:hr>151</ns3:hr>
            <ns3:cad>81</ns3:cad>
          </ns3:TrackPointExtension>
        </extensions>
      </trkpt>
      <trkpt lat="52.315412946045398712158203125" lon="1.63710697554051876068115234375">
        <ele>-500</ele>
        <time>2025-09-07T11:10:26.000Z</time>
        <extensions>
          <ns3:TrackPointExtension>
            <ns3:hr>152</ns3:hr>
            <ns3:cad>81</ns3:cad>
          </ns3:TrackPointExtension>
        </extensions>
      </trkpt>
      <trkpt lat="52.315436415374279022216796875" lon="1.63719289004802703857421875">
        <ele>-500</ele>
        <time>2025-09-07T11:10:29.000Z</time>
        <extensions>
          <ns3:TrackPointExtension>
            <ns3:hr>151</ns3:hr>
            <ns3:cad>81</ns3:cad>
          </ns3:TrackPointExtension>
        </extensions>
      </trkpt>
      <trkpt lat="52.3154362477362155914306640625" lon="1.63725483231246471405029296875">
        <ele>-500</ele>
        <time>2025-09-07T11:10:31.000Z</time>
        <extensions>
          <ns3:TrackPointExtension>
            <ns3:hr>153</ns3:hr>
            <ns3:cad>81</ns3:cad>
          </ns3:TrackPointExtension>
        </extensions>
      </trkpt>
      <trkpt lat="52.315437085926532745361328125" lon="1.63728567771613597869873046875">
        <ele>-500</ele>
        <time>2025-09-07T11:10:32.000Z</time>
        <extensions>
          <ns3:TrackPointExtension>
            <ns3:hr>153</ns3:hr>
            <ns3:cad>81</ns3:cad>
          </ns3:TrackPointExtension>
        </extensions>
      </trkpt>
      <trkpt lat="52.315431050956249237060546875" lon="1.63737234659492969512939453125">
        <ele>-500</ele>
        <time>2025-09-07T11:10:35.000Z</time>
        <extensions>
          <ns3:TrackPointExtension>
            <ns3:hr>152</ns3:hr>
            <ns3:cad>82</ns3:cad>
          </ns3:TrackPointExtension>
        </extensions>
      </trkpt>
      <trkpt lat="52.31542828492820262908935546875" lon="1.63742498494684696197509765625">
        <ele>-500</ele>
        <time>2025-09-07T11:10:37.000Z</time>
        <extensions>
          <ns3:TrackPointExtension>
            <ns3:hr>152</ns3:hr>
            <ns3:cad>82</ns3:cad>
          </ns3:TrackPointExtension>
        </extensions>
      </trkpt>
      <trkpt lat="52.3154235072433948516845703125" lon="1.6374552436172962188720703125">
        <ele>-500</ele>
        <time>2025-09-07T11:10:38.000Z</time>
        <extensions>
          <ns3:TrackPointExtension>
            <ns3:hr>152</ns3:hr>
            <ns3:cad>0</ns3:cad>
          </ns3:TrackPointExtension>
        </extensions>
      </trkpt>
      <trkpt lat="52.31541956774890422821044921875" lon="1.6374845802783966064453125">
        <ele>-500</ele>
        <time>2025-09-07T11:10:39.000Z</time>
        <extensions>
          <ns3:TrackPointExtension>
            <ns3:hr>155</ns3:hr>
            <ns3:cad>0</ns3:cad>
          </ns3:TrackPointExtension>
        </extensions>
      </trkpt>
      <trkpt lat="52.3154087550938129425048828125" lon="1.63754031993448734283447265625">
        <ele>-500</ele>
        <time>2025-09-07T11:10:41.000Z</time>
        <extensions>
          <ns3:TrackPointExtension>
            <ns3:hr>153</ns3:hr>
            <ns3:cad>82</ns3:cad>
          </ns3:TrackPointExtension>
        </extensions>
      </trkpt>
      <trkpt lat="52.3153997026383876800537109375" lon="1.6376401484012603759765625">
        <ele>-500</ele>
        <time>2025-09-07T11:10:44.000Z</time>
        <extensions>
          <ns3:TrackPointExtension>
            <ns3:hr>152</ns3:hr>
            <ns3:cad>80</ns3:cad>
          </ns3:TrackPointExtension>
        </extensions>
      </trkpt>
      <trkpt lat="52.31538511812686920166015625" lon="1.63769940845668315887451171875">
        <ele>-500</ele>
        <time>2025-09-07T11:10:46.000Z</time>
        <extensions>
          <ns3:TrackPointExtension>
            <ns3:hr>152</ns3:hr>
            <ns3:cad>81</ns3:cad>
          </ns3:TrackPointExtension>
        </extensions>
      </trkpt>
      <trkpt lat="52.315378077328205108642578125" lon="1.63773343898355960845947265625">
        <ele>-500</ele>
        <time>2025-09-07T11:10:47.000Z</time>
        <extensions>
          <ns3:TrackPointExtension>
            <ns3:hr>151</ns3:hr>
            <ns3:cad>81</ns3:cad>
          </ns3:TrackPointExtension>
        </extensions>
      </trkpt>
      <trkpt lat="52.315362989902496337890625" lon="1.63780015893280506134033203125">
        <ele>-500</ele>
        <time>2025-09-07T11:10:49.000Z</time>
        <extensions>
          <ns3:TrackPointExtension>
            <ns3:hr>154</ns3:hr>
            <ns3:cad>81</ns3:cad>
          </ns3:TrackPointExtension>
        </extensions>
      </trkpt>
      <trkpt lat="52.31535703875124454498291015625" lon="1.63783050142228603363037109375">
        <ele>-500</ele>
        <time>2025-09-07T11:10:50.000Z</time>
        <extensions>
          <ns3:TrackPointExtension>
            <ns3:hr>152</ns3:hr>
            <ns3:cad>81</ns3:cad>
          </ns3:TrackPointExtension>
        </extensions>
      </trkpt>
      <trkpt lat="52.31535133905708789825439453125" lon="1.63792454637587070465087890625">
        <ele>-500</ele>
        <time>2025-09-07T11:10:53.000Z</time>
        <extensions>
          <ns3:TrackPointExtension>
            <ns3:hr>152</ns3:hr>
            <ns3:cad>81</ns3:cad>
          </ns3:TrackPointExtension>
        </extensions>
      </trkpt>
      <trkpt lat="52.3153447173535823822021484375" lon="1.63802915252745151519775390625">
        <ele>-500</ele>
        <time>2025-09-07T11:10:56.000Z</time>
        <extensions>
          <ns3:TrackPointExtension>
            <ns3:hr>152</ns3:hr>
            <ns3:cad>81</ns3:cad>
          </ns3:TrackPointExtension>
        </extensions>
      </trkpt>
      <trkpt lat="52.31533323414623737335205078125" lon="1.638135015964508056640625">
        <ele>-500</ele>
        <time>2025-09-07T11:10:59.000Z</time>
        <extensions>
          <ns3:TrackPointExtension>
            <ns3:hr>153</ns3:hr>
            <ns3:cad>82</ns3:cad>
          </ns3:TrackPointExtension>
        </extensions>
      </trkpt>
      <trkpt lat="52.31532208621501922607421875" lon="1.6381975449621677398681640625">
        <ele>-500</ele>
        <time>2025-09-07T11:11:01.000Z</time>
        <extensions>
          <ns3:TrackPointExtension>
            <ns3:hr>154</ns3:hr>
            <ns3:cad>82</ns3:cad>
          </ns3:TrackPointExtension>
        </extensions>
      </trkpt>
      <trkpt lat="52.31531445868313312530517578125" lon="1.638226211071014404296875">
        <ele>-500</ele>
        <time>2025-09-07T11:11:02.000Z</time>
        <extensions>
          <ns3:TrackPointExtension>
            <ns3:hr>155</ns3:hr>
            <ns3:cad>83</ns3:cad>
          </ns3:TrackPointExtension>
        </extensions>
      </trkpt>
      <trkpt lat="52.31530691497027873992919921875" lon="1.63829335011541843414306640625">
        <ele>-500</ele>
        <time>2025-09-07T11:11:05.000Z</time>
        <extensions>
          <ns3:TrackPointExtension>
            <ns3:hr>156</ns3:hr>
            <ns3:cad>83</ns3:cad>
          </ns3:TrackPointExtension>
        </extensions>
      </trkpt>
      <trkpt lat="52.3152997903525829315185546875" lon="1.63830072619020938873291015625">
        <ele>-500</ele>
        <time>2025-09-07T11:11:07.000Z</time>
        <extensions>
          <ns3:TrackPointExtension>
            <ns3:hr>152</ns3:hr>
            <ns3:cad>0</ns3:cad>
          </ns3:TrackPointExtension>
        </extensions>
      </trkpt>
      <trkpt lat="52.315302975475788116455078125" lon="1.63830089382827281951904296875">
        <ele>-500</ele>
        <time>2025-09-07T11:11:08.000Z</time>
        <extensions>
          <ns3:TrackPointExtension>
            <ns3:hr>152</ns3:hr>
            <ns3:cad>0</ns3:cad>
          </ns3:TrackPointExtension>
        </extensions>
      </trkpt>
      <trkpt lat="52.31532099656760692596435546875" lon="1.63833073340356349945068359375">
        <ele>-500</ele>
        <time>2025-09-07T11:11:10.000Z</time>
        <extensions>
          <ns3:TrackPointExtension>
            <ns3:hr>151</ns3:hr>
            <ns3:cad>80</ns3:cad>
          </ns3:TrackPointExtension>
        </extensions>
      </trkpt>
      <trkpt lat="52.315331809222698211669921875" lon="1.63834079168736934661865234375">
        <ele>-500</ele>
        <time>2025-09-07T11:11:11.000Z</time>
        <extensions>
          <ns3:TrackPointExtension>
            <ns3:hr>149</ns3:hr>
            <ns3:cad>0</ns3:cad>
          </ns3:TrackPointExtension>
        </extensions>
      </trkpt>
      <trkpt lat="52.315363325178623199462890625" lon="1.63838655687868595123291015625">
        <ele>-500</ele>
        <time>2025-09-07T11:11:14.000Z</time>
        <extensions>
          <ns3:TrackPointExtension>
            <ns3:hr>148</ns3:hr>
            <ns3:cad>82</ns3:cad>
          </ns3:TrackPointExtension>
        </extensions>
      </trkpt>
      <trkpt lat="52.31538721360266208648681640625" lon="1.6384124569594860076904296875">
        <ele>-500</ele>
        <time>2025-09-07T11:11:17.000Z</time>
        <extensions>
          <ns3:TrackPointExtension>
            <ns3:hr>152</ns3:hr>
            <ns3:cad>0</ns3:cad>
          </ns3:TrackPointExtension>
        </extensions>
      </trkpt>
      <trkpt lat="52.3153991997241973876953125" lon="1.63843114860355854034423828125">
        <ele>-500</ele>
        <time>2025-09-07T11:11:20.000Z</time>
        <extensions>
          <ns3:TrackPointExtension>
            <ns3:hr>153</ns3:hr>
            <ns3:cad>0</ns3:cad>
          </ns3:TrackPointExtension>
        </extensions>
      </trkpt>
      <trkpt lat="52.31542912311851978302001953125" lon="1.63846685551106929779052734375">
        <ele>-500</ele>
        <time>2025-09-07T11:11:23.000Z</time>
        <extensions>
          <ns3:TrackPointExtension>
            <ns3:hr>151</ns3:hr>
            <ns3:cad>56</ns3:cad>
          </ns3:TrackPointExtension>
        </extensions>
      </trkpt>
      <trkpt lat="52.31543339788913726806640625" lon="1.638479344546794891357421875">
        <ele>-500</ele>
        <time>2025-09-07T11:11:24.000Z</time>
        <extensions>
          <ns3:TrackPointExtension>
            <ns3:hr>152</ns3:hr>
            <ns3:cad>56</ns3:cad>
          </ns3:TrackPointExtension>
        </extensions>
      </trkpt>
      <trkpt lat="52.31545644812285900115966796875" lon="1.63853910751640796661376953125">
        <ele>-500</ele>
        <time>2025-09-07T11:11:28.000Z</time>
        <extensions>
          <ns3:TrackPointExtension>
            <ns3:hr>151</ns3:hr>
            <ns3:cad>56</ns3:cad>
          </ns3:TrackPointExtension>
        </extensions>
      </trkpt>
      <trkpt lat="52.31547555886209011077880859375" lon="1.63861085660755634307861328125">
        <ele>-500</ele>
        <time>2025-09-07T11:11:32.000Z</time>
        <extensions>
          <ns3:TrackPointExtension>
            <ns3:hr>148</ns3:hr>
            <ns3:cad>59</ns3:cad>
          </ns3:TrackPointExtension>
        </extensions>
      </trkpt>
      <trkpt lat="52.31549450196325778961181640625" lon="1.63866081275045871734619140625">
        <ele>-500</ele>
        <time>2025-09-07T11:11:35.000Z</time>
        <extensions>
          <ns3:TrackPointExtension>
            <ns3:hr>145</ns3:hr>
            <ns3:cad>61</ns3:cad>
          </ns3:TrackPointExtension>
        </extensions>
      </trkpt>
      <trkpt lat="52.315502800047397613525390625" lon="1.63867975585162639617919921875">
        <ele>-500</ele>
        <time>2025-09-07T11:11:36.000Z</time>
        <extensions>
          <ns3:TrackPointExtension>
            <ns3:hr>143</ns3:hr>
            <ns3:cad>61</ns3:cad>
          </ns3:TrackPointExtension>
        </extensions>
      </trkpt>
      <trkpt lat="52.3155261017382144927978515625" lon="1.63871881552040576934814453125">
        <ele>-500</ele>
        <time>2025-09-07T11:11:38.000Z</time>
        <extensions>
          <ns3:TrackPointExtension>
            <ns3:hr>140</ns3:hr>
            <ns3:cad>60</ns3:cad>
          </ns3:TrackPointExtension>
        </extensions>
      </trkpt>
      <trkpt lat="52.3155391775071620941162109375" lon="1.63875787518918514251708984375">
        <ele>-500</ele>
        <time>2025-09-07T11:11:40.000Z</time>
        <extensions>
          <ns3:TrackPointExtension>
            <ns3:hr>138</ns3:hr>
            <ns3:cad>60</ns3:cad>
          </ns3:TrackPointExtension>
        </extensions>
      </trkpt>
      <trkpt lat="52.31558385305106639862060546875" lon="1.6388315521180629730224609375">
        <ele>-500</ele>
        <time>2025-09-07T11:11:44.000Z</time>
        <extensions>
          <ns3:TrackPointExtension>
            <ns3:hr>138</ns3:hr>
            <ns3:cad>0</ns3:cad>
          </ns3:TrackPointExtension>
        </extensions>
      </trkpt>
      <trkpt lat="52.315604723989963531494140625" lon="1.6388885490596294403076171875">
        <ele>-500</ele>
        <time>2025-09-07T11:11:46.000Z</time>
        <extensions>
          <ns3:TrackPointExtension>
            <ns3:hr>139</ns3:hr>
            <ns3:cad>0</ns3:cad>
          </ns3:TrackPointExtension>
        </extensions>
      </trkpt>
      <trkpt lat="52.3156250081956386566162109375" lon="1.6389475576579570770263671875">
        <ele>-500</ele>
        <time>2025-09-07T11:11:48.000Z</time>
        <extensions>
          <ns3:TrackPointExtension>
            <ns3:hr>140</ns3:hr>
            <ns3:cad>81</ns3:cad>
          </ns3:TrackPointExtension>
        </extensions>
      </trkpt>
      <trkpt lat="52.31568560935556888580322265625" lon="1.63906482048332691192626953125">
        <ele>-500</ele>
        <time>2025-09-07T11:11:53.000Z</time>
        <extensions>
          <ns3:TrackPointExtension>
            <ns3:hr>138</ns3:hr>
            <ns3:cad>81</ns3:cad>
          </ns3:TrackPointExtension>
        </extensions>
      </trkpt>
      <trkpt lat="52.31577747501432895660400390625" lon="1.63925609551370143890380859375">
        <ele>-500</ele>
        <time>2025-09-07T11:12:00.000Z</time>
        <extensions>
          <ns3:TrackPointExtension>
            <ns3:hr>139</ns3:hr>
            <ns3:cad>82</ns3:cad>
          </ns3:TrackPointExtension>
        </extensions>
      </trkpt>
      <trkpt lat="52.3158633895218372344970703125" lon="1.63942960090935230255126953125">
        <ele>-500</ele>
        <time>2025-09-07T11:12:06.000Z</time>
        <extensions>
          <ns3:TrackPointExtension>
            <ns3:hr>142</ns3:hr>
            <ns3:cad>83</ns3:cad>
          </ns3:TrackPointExtension>
        </extensions>
      </trkpt>
      <trkpt lat="52.31590211391448974609375" lon="1.639511995017528533935546875">
        <ele>-500</ele>
        <time>2025-09-07T11:12:09.000Z</time>
        <extensions>
          <ns3:TrackPointExtension>
            <ns3:hr>142</ns3:hr>
            <ns3:cad>83</ns3:cad>
          </ns3:TrackPointExtension>
        </extensions>
      </trkpt>
      <trkpt lat="52.3159492202103137969970703125" lon="1.63962791673839092254638671875">
        <ele>-500</ele>
        <time>2025-09-07T11:12:13.000Z</time>
        <extensions>
          <ns3:TrackPointExtension>
            <ns3:hr>146</ns3:hr>
            <ns3:cad>84</ns3:cad>
          </ns3:TrackPointExtension>
        </extensions>
      </trkpt>
      <trkpt lat="52.3159881122410297393798828125" lon="1.6397646255791187286376953125">
        <ele>-500</ele>
        <time>2025-09-07T11:12:17.000Z</time>
        <extensions>
          <ns3:TrackPointExtension>
            <ns3:hr>144</ns3:hr>
            <ns3:cad>83</ns3:cad>
          </ns3:TrackPointExtension>
        </extensions>
      </trkpt>
      <trkpt lat="52.31599657796323299407958984375" lon="1.63980075158178806304931640625">
        <ele>-500</ele>
        <time>2025-09-07T11:12:18.000Z</time>
        <extensions>
          <ns3:TrackPointExtension>
            <ns3:hr>144</ns3:hr>
            <ns3:cad>83</ns3:cad>
          </ns3:TrackPointExtension>
        </extensions>
      </trkpt>
      <trkpt lat="52.31604158878326416015625" lon="1.640029661357402801513671875">
        <ele>-500</ele>
        <time>2025-09-07T11:12:24.000Z</time>
        <extensions>
          <ns3:TrackPointExtension>
            <ns3:hr>144</ns3:hr>
            <ns3:cad>82</ns3:cad>
          </ns3:TrackPointExtension>
        </extensions>
      </trkpt>
      <trkpt lat="52.31605659238994121551513671875" lon="1.640103757381439208984375">
        <ele>-500</ele>
        <time>2025-09-07T11:12:26.000Z</time>
        <extensions>
          <ns3:TrackPointExtension>
            <ns3:hr>143</ns3:hr>
            <ns3:cad>83</ns3:cad>
          </ns3:TrackPointExtension>
        </extensions>
      </trkpt>
      <trkpt lat="52.31610260903835296630859375" lon="1.64022915065288543701171875">
        <ele>-500</ele>
        <time>2025-09-07T11:12:30.000Z</time>
        <extensions>
          <ns3:TrackPointExtension>
            <ns3:hr>145</ns3:hr>
            <ns3:cad>83</ns3:cad>
          </ns3:TrackPointExtension>
        </extensions>
      </trkpt>
      <trkpt lat="52.31615633703768253326416015625" lon="1.6403309069573879241943359375">
        <ele>-500</ele>
        <time>2025-09-07T11:12:34.000Z</time>
        <extensions>
          <ns3:TrackPointExtension>
            <ns3:hr>145</ns3:hr>
            <ns3:cad>82</ns3:cad>
          </ns3:TrackPointExtension>
        </extensions>
      </trkpt>
      <trkpt lat="52.31618634425103664398193359375" lon="1.64037608541548252105712890625">
        <ele>-500</ele>
        <time>2025-09-07T11:12:36.000Z</time>
        <extensions>
          <ns3:TrackPointExtension>
            <ns3:hr>144</ns3:hr>
            <ns3:cad>82</ns3:cad>
          </ns3:TrackPointExtension>
        </extensions>
      </trkpt>
      <trkpt lat="52.316255830228328704833984375" lon="1.640499047935009002685546875">
        <ele>-500</ele>
        <time>2025-09-07T11:12:41.000Z</time>
        <extensions>
          <ns3:TrackPointExtension>
            <ns3:hr>144</ns3:hr>
            <ns3:cad>82</ns3:cad>
          </ns3:TrackPointExtension>
        </extensions>
      </trkpt>
      <trkpt lat="52.3163190297782421112060546875" lon="1.64064086973667144775390625">
        <ele>-500</ele>
        <time>2025-09-07T11:12:46.000Z</time>
        <extensions>
          <ns3:TrackPointExtension>
            <ns3:hr>145</ns3:hr>
            <ns3:cad>82</ns3:cad>
          </ns3:TrackPointExtension>
        </extensions>
      </trkpt>
      <trkpt lat="52.31635767035186290740966796875" lon="1.64079249836504459381103515625">
        <ele>-500</ele>
        <time>2025-09-07T11:12:51.000Z</time>
        <extensions>
          <ns3:TrackPointExtension>
            <ns3:hr>146</ns3:hr>
            <ns3:cad>83</ns3:cad>
          </ns3:TrackPointExtension>
        </extensions>
      </trkpt>
      <trkpt lat="52.31637493707239627838134765625" lon="1.640887297689914703369140625">
        <ele>-500</ele>
        <time>2025-09-07T11:12:54.000Z</time>
        <extensions>
          <ns3:TrackPointExtension>
            <ns3:hr>146</ns3:hr>
            <ns3:cad>81</ns3:cad>
          </ns3:TrackPointExtension>
        </extensions>
      </trkpt>
      <trkpt lat="52.316389270126819610595703125" lon="1.6409568674862384796142578125">
        <ele>-500</ele>
        <time>2025-09-07T11:12:56.000Z</time>
        <extensions>
          <ns3:TrackPointExtension>
            <ns3:hr>146</ns3:hr>
            <ns3:cad>82</ns3:cad>
          </ns3:TrackPointExtension>
        </extensions>
      </trkpt>
      <trkpt lat="52.3164130747318267822265625" lon="1.64114537648856639862060546875">
        <ele>-500</ele>
        <time>2025-09-07T11:13:01.000Z</time>
        <extensions>
          <ns3:TrackPointExtension>
            <ns3:hr>149</ns3:hr>
            <ns3:cad>82</ns3:cad>
          </ns3:TrackPointExtension>
        </extensions>
      </trkpt>
      <trkpt lat="52.31641718186438083648681640625" lon="1.6411804966628551483154296875">
        <ele>-500</ele>
        <time>2025-09-07T11:13:02.000Z</time>
        <extensions>
          <ns3:TrackPointExtension>
            <ns3:hr>149</ns3:hr>
            <ns3:cad>82</ns3:cad>
          </ns3:TrackPointExtension>
        </extensions>
      </trkpt>
      <trkpt lat="52.31645322404801845550537109375" lon="1.64134436286985874176025390625">
        <ele>-500</ele>
        <time>2025-09-07T11:13:07.000Z</time>
        <extensions>
          <ns3:TrackPointExtension>
            <ns3:hr>151</ns3:hr>
            <ns3:cad>82</ns3:cad>
          </ns3:TrackPointExtension>
        </extensions>
      </trkpt>
      <trkpt lat="52.31646294705569744110107421875" lon="1.6414059698581695556640625">
        <ele>-500</ele>
        <time>2025-09-07T11:13:09.000Z</time>
        <extensions>
          <ns3:TrackPointExtension>
            <ns3:hr>152</ns3:hr>
            <ns3:cad>83</ns3:cad>
          </ns3:TrackPointExtension>
        </extensions>
      </trkpt>
      <trkpt lat="52.31649915687739849090576171875" lon="1.64156899787485599517822265625">
        <ele>-500</ele>
        <time>2025-09-07T11:13:14.000Z</time>
        <extensions>
          <ns3:TrackPointExtension>
            <ns3:hr>153</ns3:hr>
            <ns3:cad>81</ns3:cad>
          </ns3:TrackPointExtension>
        </extensions>
      </trkpt>
      <trkpt lat="52.31651877053081989288330078125" lon="1.64163001812994480133056640625">
        <ele>-500</ele>
        <time>2025-09-07T11:13:16.000Z</time>
        <extensions>
          <ns3:TrackPointExtension>
            <ns3:hr>153</ns3:hr>
            <ns3:cad>81</ns3:cad>
          </ns3:TrackPointExtension>
        </extensions>
      </trkpt>
      <trkpt lat="52.31658850796520709991455078125" lon="1.6417920403182506561279296875">
        <ele>-500</ele>
        <time>2025-09-07T11:13:22.000Z</time>
        <extensions>
          <ns3:TrackPointExtension>
            <ns3:hr>154</ns3:hr>
            <ns3:cad>83</ns3:cad>
          </ns3:TrackPointExtension>
        </extensions>
      </trkpt>
      <trkpt lat="52.3165989853441715240478515625" lon="1.6418178565800189971923828125">
        <ele>-500</ele>
        <time>2025-09-07T11:13:23.000Z</time>
        <extensions>
          <ns3:TrackPointExtension>
            <ns3:hr>153</ns3:hr>
            <ns3:cad>83</ns3:cad>
          </ns3:TrackPointExtension>
        </extensions>
      </trkpt>
      <trkpt lat="52.31666930951178073883056640625" lon="1.641987673938274383544921875">
        <ele>-500</ele>
        <time>2025-09-07T11:13:29.000Z</time>
        <extensions>
          <ns3:TrackPointExtension>
            <ns3:hr>155</ns3:hr>
            <ns3:cad>82</ns3:cad>
          </ns3:TrackPointExtension>
        </extensions>
      </trkpt>
      <trkpt lat="52.31668741442263126373291015625" lon="1.64204576052725315093994140625">
        <ele>-500</ele>
        <time>2025-09-07T11:13:31.000Z</time>
        <extensions>
          <ns3:TrackPointExtension>
            <ns3:hr>155</ns3:hr>
            <ns3:cad>82</ns3:cad>
          </ns3:TrackPointExtension>
        </extensions>
      </trkpt>
      <trkpt lat="52.3167448304593563079833984375" lon="1.64222580380737781524658203125">
        <ele>-500</ele>
        <time>2025-09-07T11:13:37.000Z</time>
        <extensions>
          <ns3:TrackPointExtension>
            <ns3:hr>154</ns3:hr>
            <ns3:cad>82</ns3:cad>
          </ns3:TrackPointExtension>
        </extensions>
      </trkpt>
      <trkpt lat="52.3167807050049304962158203125" lon="1.64233912713825702667236328125">
        <ele>-500</ele>
        <time>2025-09-07T11:13:41.000Z</time>
        <extensions>
          <ns3:TrackPointExtension>
            <ns3:hr>154</ns3:hr>
            <ns3:cad>82</ns3:cad>
          </ns3:TrackPointExtension>
        </extensions>
      </trkpt>
      <trkpt lat="52.31680509634315967559814453125" lon="1.642425544559955596923828125">
        <ele>-500</ele>
        <time>2025-09-07T11:13:44.000Z</time>
        <extensions>
          <ns3:TrackPointExtension>
            <ns3:hr>155</ns3:hr>
            <ns3:cad>82</ns3:cad>
          </ns3:TrackPointExtension>
        </extensions>
      </trkpt>
      <trkpt lat="52.3168717324733734130859375" lon="1.6425879858434200286865234375">
        <ele>-500</ele>
        <time>2025-09-07T11:13:50.000Z</time>
        <extensions>
          <ns3:TrackPointExtension>
            <ns3:hr>155</ns3:hr>
            <ns3:cad>81</ns3:cad>
          </ns3:TrackPointExtension>
        </extensions>
      </trkpt>
      <trkpt lat="52.31695412658154964447021484375" lon="1.64277859032154083251953125">
        <ele>-500</ele>
        <time>2025-09-07T11:13:57.000Z</time>
        <extensions>
          <ns3:TrackPointExtension>
            <ns3:hr>155</ns3:hr>
            <ns3:cad>82</ns3:cad>
          </ns3:TrackPointExtension>
        </extensions>
      </trkpt>
      <trkpt lat="52.31702755205333232879638671875" lon="1.6429732181131839752197265625">
        <ele>-500</ele>
        <time>2025-09-07T11:14:04.000Z</time>
        <extensions>
          <ns3:TrackPointExtension>
            <ns3:hr>154</ns3:hr>
            <ns3:cad>83</ns3:cad>
          </ns3:TrackPointExtension>
        </extensions>
      </trkpt>
      <trkpt lat="52.317096702754497528076171875" lon="1.64318838156759738922119140625">
        <ele>-500</ele>
        <time>2025-09-07T11:14:11.000Z</time>
        <extensions>
          <ns3:TrackPointExtension>
            <ns3:hr>153</ns3:hr>
            <ns3:cad>83</ns3:cad>
          </ns3:TrackPointExtension>
        </extensions>
      </trkpt>
      <trkpt lat="52.317165434360504150390625" lon="1.64339776150882244110107421875">
        <ele>-500</ele>
        <time>2025-09-07T11:14:18.000Z</time>
        <extensions>
          <ns3:TrackPointExtension>
            <ns3:hr>156</ns3:hr>
            <ns3:cad>82</ns3:cad>
          </ns3:TrackPointExtension>
        </extensions>
      </trkpt>
      <trkpt lat="52.31718630529940128326416015625" lon="1.64345392026007175445556640625">
        <ele>-500</ele>
        <time>2025-09-07T11:14:20.000Z</time>
        <extensions>
          <ns3:TrackPointExtension>
            <ns3:hr>155</ns3:hr>
            <ns3:cad>81</ns3:cad>
          </ns3:TrackPointExtension>
        </extensions>
      </trkpt>
      <trkpt lat="52.31726006604731082916259765625" lon="1.6436628811061382293701171875">
        <ele>-500</ele>
        <time>2025-09-07T11:14:27.000Z</time>
        <extensions>
          <ns3:TrackPointExtension>
            <ns3:hr>155</ns3:hr>
            <ns3:cad>83</ns3:cad>
          </ns3:TrackPointExtension>
        </extensions>
      </trkpt>
      <trkpt lat="52.317336760461330413818359375" lon="1.643892042338848114013671875">
        <ele>-500</ele>
        <time>2025-09-07T11:14:35.000Z</time>
        <extensions>
          <ns3:TrackPointExtension>
            <ns3:hr>155</ns3:hr>
            <ns3:cad>82</ns3:cad>
          </ns3:TrackPointExtension>
        </extensions>
      </trkpt>
      <trkpt lat="52.3174033127725124359130859375" lon="1.644081138074398040771484375">
        <ele>-500</ele>
        <time>2025-09-07T11:14:42.000Z</time>
        <extensions>
          <ns3:TrackPointExtension>
            <ns3:hr>155</ns3:hr>
            <ns3:cad>81</ns3:cad>
          </ns3:TrackPointExtension>
        </extensions>
      </trkpt>
      <trkpt lat="52.3174301348626613616943359375" lon="1.64413251914083957672119140625">
        <ele>-500</ele>
        <time>2025-09-07T11:14:44.000Z</time>
        <extensions>
          <ns3:TrackPointExtension>
            <ns3:hr>155</ns3:hr>
            <ns3:cad>82</ns3:cad>
          </ns3:TrackPointExtension>
        </extensions>
      </trkpt>
      <trkpt lat="52.31746491976082324981689453125" lon="1.6442358680069446563720703125">
        <ele>-500</ele>
        <time>2025-09-07T11:14:48.000Z</time>
        <extensions>
          <ns3:TrackPointExtension>
            <ns3:hr>154</ns3:hr>
            <ns3:cad>82</ns3:cad>
          </ns3:TrackPointExtension>
        </extensions>
      </trkpt>
      <trkpt lat="52.31747413985431194305419921875" lon="1.644262857735157012939453125">
        <ele>-500</ele>
        <time>2025-09-07T11:14:49.000Z</time>
        <extensions>
          <ns3:TrackPointExtension>
            <ns3:hr>153</ns3:hr>
            <ns3:cad>82</ns3:cad>
          </ns3:TrackPointExtension>
        </extensions>
      </trkpt>
      <trkpt lat="52.31752828694880008697509765625" lon="1.64446704089641571044921875">
        <ele>-500</ele>
        <time>2025-09-07T11:14:56.000Z</time>
        <extensions>
          <ns3:TrackPointExtension>
            <ns3:hr>153</ns3:hr>
            <ns3:cad>82</ns3:cad>
          </ns3:TrackPointExtension>
        </extensions>
      </trkpt>
      <trkpt lat="52.31753666885197162628173828125" lon="1.64449512027204036712646484375">
        <ele>-500</ele>
        <time>2025-09-07T11:14:57.000Z</time>
        <extensions>
          <ns3:TrackPointExtension>
            <ns3:hr>153</ns3:hr>
            <ns3:cad>82</ns3:cad>
          </ns3:TrackPointExtension>
        </extensions>
      </trkpt>
      <trkpt lat="52.3175825178623199462890625" lon="1.64463761262595653533935546875">
        <ele>-500</ele>
        <time>2025-09-07T11:15:02.000Z</time>
        <extensions>
          <ns3:TrackPointExtension>
            <ns3:hr>152</ns3:hr>
            <ns3:cad>82</ns3:cad>
          </ns3:TrackPointExtension>
        </extensions>
      </trkpt>
      <trkpt lat="52.3176618106663227081298828125" lon="1.64487716741859912872314453125">
        <ele>-500</ele>
        <time>2025-09-07T11:15:10.000Z</time>
        <extensions>
          <ns3:TrackPointExtension>
            <ns3:hr>152</ns3:hr>
            <ns3:cad>82</ns3:cad>
          </ns3:TrackPointExtension>
        </extensions>
      </trkpt>
      <trkpt lat="52.31775543652474880218505859375" lon="1.64510414935648441314697265625">
        <ele>-500</ele>
        <time>2025-09-07T11:15:18.000Z</time>
        <extensions>
          <ns3:TrackPointExtension>
            <ns3:hr>152</ns3:hr>
            <ns3:cad>81</ns3:cad>
          </ns3:TrackPointExtension>
        </extensions>
      </trkpt>
      <trkpt lat="52.3178314603865146636962890625" lon="1.6452983580529689788818359375">
        <ele>-500</ele>
        <time>2025-09-07T11:15:25.000Z</time>
        <extensions>
          <ns3:TrackPointExtension>
            <ns3:hr>153</ns3:hr>
            <ns3:cad>82</ns3:cad>
          </ns3:TrackPointExtension>
        </extensions>
      </trkpt>
      <trkpt lat="52.31785275042057037353515625" lon="1.64535393007099628448486328125">
        <ele>-500</ele>
        <time>2025-09-07T11:15:27.000Z</time>
        <extensions>
          <ns3:TrackPointExtension>
            <ns3:hr>153</ns3:hr>
            <ns3:cad>82</ns3:cad>
          </ns3:TrackPointExtension>
        </extensions>
      </trkpt>
      <trkpt lat="52.31790865771472454071044921875" lon="1.6455223225057125091552734375">
        <ele>-500</ele>
        <time>2025-09-07T11:15:33.000Z</time>
        <extensions>
          <ns3:TrackPointExtension>
            <ns3:hr>153</ns3:hr>
            <ns3:cad>82</ns3:cad>
          </ns3:TrackPointExtension>
        </extensions>
      </trkpt>
      <trkpt lat="52.31797881424427032470703125" lon="1.6456453688442707061767578125">
        <ele>-500</ele>
        <time>2025-09-07T11:15:39.000Z</time>
        <extensions>
          <ns3:TrackPointExtension>
            <ns3:hr>152</ns3:hr>
            <ns3:cad>81</ns3:cad>
          </ns3:TrackPointExtension>
        </extensions>
      </trkpt>
      <trkpt lat="52.31799230910837650299072265625" lon="1.6456733644008636474609375">
        <ele>-500</ele>
        <time>2025-09-07T11:15:41.000Z</time>
        <extensions>
          <ns3:TrackPointExtension>
            <ns3:hr>151</ns3:hr>
            <ns3:cad>79</ns3:cad>
          </ns3:TrackPointExtension>
        </extensions>
      </trkpt>
      <trkpt lat="52.3179957456886768341064453125" lon="1.64569758810102939605712890625">
        <ele>-500</ele>
        <time>2025-09-07T11:15:43.000Z</time>
        <extensions>
          <ns3:TrackPointExtension>
            <ns3:hr>152</ns3:hr>
            <ns3:cad>78</ns3:cad>
          </ns3:TrackPointExtension>
        </extensions>
      </trkpt>
      <trkpt lat="52.31799717061221599578857421875" lon="1.6457109153270721435546875">
        <ele>-500</ele>
        <time>2025-09-07T11:15:49.000Z</time>
        <extensions>
          <ns3:TrackPointExtension>
            <ns3:hr>157</ns3:hr>
            <ns3:cad>0</ns3:cad>
          </ns3:TrackPointExtension>
        </extensions>
      </trkpt>
      <trkpt lat="52.31799750588834285736083984375" lon="1.645722649991512298583984375">
        <ele>-500</ele>
        <time>2025-09-07T11:15:50.000Z</time>
        <extensions>
          <ns3:TrackPointExtension>
            <ns3:hr>157</ns3:hr>
            <ns3:cad>0</ns3:cad>
          </ns3:TrackPointExtension>
        </extensions>
      </trkpt>
      <trkpt lat="52.3180004395544528961181640625" lon="1.6457311995327472686767578125">
        <ele>-500</ele>
        <time>2025-09-07T11:15:51.000Z</time>
        <extensions>
          <ns3:TrackPointExtension>
            <ns3:hr>156</ns3:hr>
            <ns3:cad>0</ns3:cad>
          </ns3:TrackPointExtension>
        </extensions>
      </trkpt>
      <trkpt lat="52.3180151917040348052978515625" lon="1.64580068551003932952880859375">
        <ele>-500</ele>
        <time>2025-09-07T11:15:55.000Z</time>
        <extensions>
          <ns3:TrackPointExtension>
            <ns3:hr>152</ns3:hr>
            <ns3:cad>50</ns3:cad>
          </ns3:TrackPointExtension>
        </extensions>
      </trkpt>
      <trkpt lat="52.31801963411271572113037109375" lon="1.64584561251103878021240234375">
        <ele>-500</ele>
        <time>2025-09-07T11:15:57.000Z</time>
        <extensions>
          <ns3:TrackPointExtension>
            <ns3:hr>148</ns3:hr>
            <ns3:cad>64</ns3:cad>
          </ns3:TrackPointExtension>
        </extensions>
      </trkpt>
      <trkpt lat="52.3180282674729824066162109375" lon="1.6458961553871631622314453125">
        <ele>-500</ele>
        <time>2025-09-07T11:15:59.000Z</time>
        <extensions>
          <ns3:TrackPointExtension>
            <ns3:hr>145</ns3:hr>
            <ns3:cad>64</ns3:cad>
          </ns3:TrackPointExtension>
        </extensions>
      </trkpt>
      <trkpt lat="52.318045534193515777587890625" lon="1.64596228860318660736083984375">
        <ele>-500</ele>
        <time>2025-09-07T11:16:02.000Z</time>
        <extensions>
          <ns3:TrackPointExtension>
            <ns3:hr>144</ns3:hr>
            <ns3:cad>0</ns3:cad>
          </ns3:TrackPointExtension>
        </extensions>
      </trkpt>
      <trkpt lat="52.318058274686336517333984375" lon="1.6459913738071918487548828125">
        <ele>-500</ele>
        <time>2025-09-07T11:16:03.000Z</time>
        <extensions>
          <ns3:TrackPointExtension>
            <ns3:hr>144</ns3:hr>
            <ns3:cad>0</ns3:cad>
          </ns3:TrackPointExtension>
        </extensions>
      </trkpt>
      <trkpt lat="52.318083755671977996826171875" lon="1.6460862569510936737060546875">
        <ele>-500</ele>
        <time>2025-09-07T11:16:07.000Z</time>
        <extensions>
          <ns3:TrackPointExtension>
            <ns3:hr>143</ns3:hr>
            <ns3:cad>0</ns3:cad>
          </ns3:TrackPointExtension>
        </extensions>
      </trkpt>
      <trkpt lat="52.3180926404893398284912109375" lon="1.646106876432895660400390625">
        <ele>-500</ele>
        <time>2025-09-07T11:16:08.000Z</time>
        <extensions>
          <ns3:TrackPointExtension>
            <ns3:hr>143</ns3:hr>
            <ns3:cad>0</ns3:cad>
          </ns3:TrackPointExtension>
        </extensions>
      </trkpt>
      <trkpt lat="52.318115942180156707763671875" lon="1.6461751051247119903564453125">
        <ele>-500</ele>
        <time>2025-09-07T11:16:11.000Z</time>
        <extensions>
          <ns3:TrackPointExtension>
            <ns3:hr>142</ns3:hr>
            <ns3:cad>0</ns3:cad>
          </ns3:TrackPointExtension>
        </extensions>
      </trkpt>
      <trkpt lat="52.31814150698482990264892578125" lon="1.64628423750400543212890625">
        <ele>-500</ele>
        <time>2025-09-07T11:16:15.000Z</time>
        <extensions>
          <ns3:TrackPointExtension>
            <ns3:hr>142</ns3:hr>
            <ns3:cad>0</ns3:cad>
          </ns3:TrackPointExtension>
        </extensions>
      </trkpt>
      <trkpt lat="52.31814871542155742645263671875" lon="1.64630996994674205780029296875">
        <ele>-500</ele>
        <time>2025-09-07T11:16:16.000Z</time>
        <extensions>
          <ns3:TrackPointExtension>
            <ns3:hr>139</ns3:hr>
            <ns3:cad>0</ns3:cad>
          </ns3:TrackPointExtension>
        </extensions>
      </trkpt>
      <trkpt lat="52.318160198628902435302734375" lon="1.6463465988636016845703125">
        <ele>-500</ele>
        <time>2025-09-07T11:16:18.000Z</time>
        <extensions>
          <ns3:TrackPointExtension>
            <ns3:hr>136</ns3:hr>
            <ns3:cad>60</ns3:cad>
          </ns3:TrackPointExtension>
        </extensions>
      </trkpt>
      <trkpt lat="52.3181824944913387298583984375" lon="1.6463900171220302581787109375">
        <ele>-500</ele>
        <time>2025-09-07T11:16:21.000Z</time>
        <extensions>
          <ns3:TrackPointExtension>
            <ns3:hr>134</ns3:hr>
            <ns3:cad>60</ns3:cad>
          </ns3:TrackPointExtension>
        </extensions>
      </trkpt>
      <trkpt lat="52.31818928383290767669677734375" lon="1.64640317671000957489013671875">
        <ele>-500</ele>
        <time>2025-09-07T11:16:22.000Z</time>
        <extensions>
          <ns3:TrackPointExtension>
            <ns3:hr>134</ns3:hr>
            <ns3:cad>60</ns3:cad>
          </ns3:TrackPointExtension>
        </extensions>
      </trkpt>
      <trkpt lat="52.3182280920445919036865234375" lon="1.646473668515682220458984375">
        <ele>-500</ele>
        <time>2025-09-07T11:16:27.000Z</time>
        <extensions>
          <ns3:TrackPointExtension>
            <ns3:hr>133</ns3:hr>
            <ns3:cad>61</ns3:cad>
          </ns3:TrackPointExtension>
        </extensions>
      </trkpt>
      <trkpt lat="52.3182450234889984130859375" lon="1.646534688770771026611328125">
        <ele>-500</ele>
        <time>2025-09-07T11:16:30.000Z</time>
        <extensions>
          <ns3:TrackPointExtension>
            <ns3:hr>134</ns3:hr>
            <ns3:cad>61</ns3:cad>
          </ns3:TrackPointExtension>
        </extensions>
      </trkpt>
      <trkpt lat="52.31827042065560817718505859375" lon="1.6465942002832889556884765625">
        <ele>-500</ele>
        <time>2025-09-07T11:16:33.000Z</time>
        <extensions>
          <ns3:TrackPointExtension>
            <ns3:hr>137</ns3:hr>
            <ns3:cad>0</ns3:cad>
          </ns3:TrackPointExtension>
        </extensions>
      </trkpt>
      <trkpt lat="52.31829875148832798004150390625" lon="1.6466589085757732391357421875">
        <ele>-500</ele>
        <time>2025-09-07T11:16:37.000Z</time>
        <extensions>
          <ns3:TrackPointExtension>
            <ns3:hr>138</ns3:hr>
            <ns3:cad>0</ns3:cad>
          </ns3:TrackPointExtension>
        </extensions>
      </trkpt>
      <trkpt lat="52.318306379020214080810546875" lon="1.64667609147727489471435546875">
        <ele>-500</ele>
        <time>2025-09-07T11:16:38.000Z</time>
        <extensions>
          <ns3:TrackPointExtension>
            <ns3:hr>138</ns3:hr>
            <ns3:cad>0</ns3:cad>
          </ns3:TrackPointExtension>
        </extensions>
      </trkpt>
      <trkpt lat="52.3183638788759708404541015625" lon="1.646761000156402587890625">
        <ele>-500</ele>
        <time>2025-09-07T11:16:43.000Z</time>
        <extensions>
          <ns3:TrackPointExtension>
            <ns3:hr>137</ns3:hr>
            <ns3:cad>60</ns3:cad>
          </ns3:TrackPointExtension>
        </extensions>
      </trkpt>
      <trkpt lat="52.31837301515042781829833984375" lon="1.646785475313663482666015625">
        <ele>-500</ele>
        <time>2025-09-07T11:16:44.000Z</time>
        <extensions>
          <ns3:TrackPointExtension>
            <ns3:hr>136</ns3:hr>
            <ns3:cad>60</ns3:cad>
          </ns3:TrackPointExtension>
        </extensions>
      </trkpt>
      <trkpt lat="52.318400256335735321044921875" lon="1.6468516923487186431884765625">
        <ele>-500</ele>
        <time>2025-09-07T11:16:47.000Z</time>
        <extensions>
          <ns3:TrackPointExtension>
            <ns3:hr>136</ns3:hr>
            <ns3:cad>0</ns3:cad>
          </ns3:TrackPointExtension>
        </extensions>
      </trkpt>
      <trkpt lat="52.318443171679973602294921875" lon="1.6469539515674114227294921875">
        <ele>-500</ele>
        <time>2025-09-07T11:16:51.000Z</time>
        <extensions>
          <ns3:TrackPointExtension>
            <ns3:hr>140</ns3:hr>
            <ns3:cad>0</ns3:cad>
          </ns3:TrackPointExtension>
        </extensions>
      </trkpt>
      <trkpt lat="52.31846940703690052032470703125" lon="1.64700700901448726654052734375">
        <ele>-500</ele>
        <time>2025-09-07T11:16:53.000Z</time>
        <extensions>
          <ns3:TrackPointExtension>
            <ns3:hr>135</ns3:hr>
            <ns3:cad>0</ns3:cad>
          </ns3:TrackPointExtension>
        </extensions>
      </trkpt>
      <trkpt lat="52.3184808902442455291748046875" lon="1.64703215472400188446044921875">
        <ele>-500</ele>
        <time>2025-09-07T11:16:54.000Z</time>
        <extensions>
          <ns3:TrackPointExtension>
            <ns3:hr>135</ns3:hr>
            <ns3:cad>80</ns3:cad>
          </ns3:TrackPointExtension>
        </extensions>
      </trkpt>
      <trkpt lat="52.318492121994495391845703125" lon="1.64705947972834110260009765625">
        <ele>-500</ele>
        <time>2025-09-07T11:16:55.000Z</time>
        <extensions>
          <ns3:TrackPointExtension>
            <ns3:hr>135</ns3:hr>
            <ns3:cad>80</ns3:cad>
          </ns3:TrackPointExtension>
        </extensions>
      </trkpt>
      <trkpt lat="52.31852506287395954132080078125" lon="1.6471712104976177215576171875">
        <ele>-500</ele>
        <time>2025-09-07T11:16:59.000Z</time>
        <extensions>
          <ns3:TrackPointExtension>
            <ns3:hr>134</ns3:hr>
            <ns3:cad>80</ns3:cad>
          </ns3:TrackPointExtension>
        </extensions>
      </trkpt>
      <trkpt lat="52.318539731204509735107421875" lon="1.6472290456295013427734375">
        <ele>-500</ele>
        <time>2025-09-07T11:17:01.000Z</time>
        <extensions>
          <ns3:TrackPointExtension>
            <ns3:hr>137</ns3:hr>
            <ns3:cad>81</ns3:cad>
          </ns3:TrackPointExtension>
        </extensions>
      </trkpt>
      <trkpt lat="52.31856009922921657562255859375" lon="1.6472875513136386871337890625">
        <ele>-500</ele>
        <time>2025-09-07T11:17:03.000Z</time>
        <extensions>
          <ns3:TrackPointExtension>
            <ns3:hr>140</ns3:hr>
            <ns3:cad>81</ns3:cad>
          </ns3:TrackPointExtension>
        </extensions>
      </trkpt>
      <trkpt lat="52.318591363728046417236328125" lon="1.64737547747790813446044921875">
        <ele>-500</ele>
        <time>2025-09-07T11:17:06.000Z</time>
        <extensions>
          <ns3:TrackPointExtension>
            <ns3:hr>143</ns3:hr>
            <ns3:cad>82</ns3:cad>
          </ns3:TrackPointExtension>
        </extensions>
      </trkpt>
      <trkpt lat="52.3186072893440723419189453125" lon="1.64743800647556781768798828125">
        <ele>-500</ele>
        <time>2025-09-07T11:17:08.000Z</time>
        <extensions>
          <ns3:TrackPointExtension>
            <ns3:hr>143</ns3:hr>
            <ns3:cad>82</ns3:cad>
          </ns3:TrackPointExtension>
        </extensions>
      </trkpt>
      <trkpt lat="52.318638302385807037353515625" lon="1.64759005419909954071044921875">
        <ele>-500</ele>
        <time>2025-09-07T11:17:13.000Z</time>
        <extensions>
          <ns3:TrackPointExtension>
            <ns3:hr>143</ns3:hr>
            <ns3:cad>82</ns3:cad>
          </ns3:TrackPointExtension>
        </extensions>
      </trkpt>
      <trkpt lat="52.31865406036376953125" lon="1.64765342138707637786865234375">
        <ele>-500</ele>
        <time>2025-09-07T11:17:15.000Z</time>
        <extensions>
          <ns3:TrackPointExtension>
            <ns3:hr>142</ns3:hr>
            <ns3:cad>82</ns3:cad>
          </ns3:TrackPointExtension>
        </extensions>
      </trkpt>
      <trkpt lat="52.318695299327373504638671875" lon="1.64777747355401515960693359375">
        <ele>-500</ele>
        <time>2025-09-07T11:17:19.000Z</time>
        <extensions>
          <ns3:TrackPointExtension>
            <ns3:hr>144</ns3:hr>
            <ns3:cad>81</ns3:cad>
          </ns3:TrackPointExtension>
        </extensions>
      </trkpt>
      <trkpt lat="52.31873511336743831634521484375" lon="1.6478964127600193023681640625">
        <ele>-500</ele>
        <time>2025-09-07T11:17:23.000Z</time>
        <extensions>
          <ns3:TrackPointExtension>
            <ns3:hr>143</ns3:hr>
            <ns3:cad>80</ns3:cad>
          </ns3:TrackPointExtension>
        </extensions>
      </trkpt>
      <trkpt lat="52.3187506198883056640625" lon="1.64802842773497104644775390625">
        <ele>-500</ele>
        <time>2025-09-07T11:17:27.000Z</time>
        <extensions>
          <ns3:TrackPointExtension>
            <ns3:hr>143</ns3:hr>
            <ns3:cad>80</ns3:cad>
          </ns3:TrackPointExtension>
        </extensions>
      </trkpt>
      <trkpt lat="52.31876277364790439605712890625" lon="1.6481136716902256011962890625">
        <ele>-500</ele>
        <time>2025-09-07T11:17:30.000Z</time>
        <extensions>
          <ns3:TrackPointExtension>
            <ns3:hr>142</ns3:hr>
            <ns3:cad>81</ns3:cad>
          </ns3:TrackPointExtension>
        </extensions>
      </trkpt>
      <trkpt lat="52.3188056051731109619140625" lon="1.64828122593462467193603515625">
        <ele>-500</ele>
        <time>2025-09-07T11:17:36.000Z</time>
        <extensions>
          <ns3:TrackPointExtension>
            <ns3:hr>144</ns3:hr>
            <ns3:cad>81</ns3:cad>
          </ns3:TrackPointExtension>
        </extensions>
      </trkpt>
      <trkpt lat="52.3188144899904727935791015625" lon="1.64831073023378849029541015625">
        <ele>-500</ele>
        <time>2025-09-07T11:17:37.000Z</time>
        <extensions>
          <ns3:TrackPointExtension>
            <ns3:hr>143</ns3:hr>
            <ns3:cad>81</ns3:cad>
          </ns3:TrackPointExtension>
        </extensions>
      </trkpt>
      <trkpt lat="52.31886335648596286773681640625" lon="1.64848457090556621551513671875">
        <ele>-500</ele>
        <time>2025-09-07T11:17:43.000Z</time>
        <extensions>
          <ns3:TrackPointExtension>
            <ns3:hr>146</ns3:hr>
            <ns3:cad>82</ns3:cad>
          </ns3:TrackPointExtension>
        </extensions>
      </trkpt>
      <trkpt lat="52.31888137757778167724609375" lon="1.64853570051491260528564453125">
        <ele>-500</ele>
        <time>2025-09-07T11:17:45.000Z</time>
        <extensions>
          <ns3:TrackPointExtension>
            <ns3:hr>145</ns3:hr>
            <ns3:cad>81</ns3:cad>
          </ns3:TrackPointExtension>
        </extensions>
      </trkpt>
      <trkpt lat="52.31889839284121990203857421875" lon="1.6485897637903690338134765625">
        <ele>-500</ele>
        <time>2025-09-07T11:17:47.000Z</time>
        <extensions>
          <ns3:TrackPointExtension>
            <ns3:hr>144</ns3:hr>
            <ns3:cad>80</ns3:cad>
          </ns3:TrackPointExtension>
        </extensions>
      </trkpt>
      <trkpt lat="52.3189284838736057281494140625" lon="1.64875715039670467376708984375">
        <ele>-500</ele>
        <time>2025-09-07T11:17:52.000Z</time>
        <extensions>
          <ns3:TrackPointExtension>
            <ns3:hr>144</ns3:hr>
            <ns3:cad>81</ns3:cad>
          </ns3:TrackPointExtension>
        </extensions>
      </trkpt>
      <trkpt lat="52.3189532943069934844970703125" lon="1.64886779151856899261474609375">
        <ele>-500</ele>
        <time>2025-09-07T11:17:56.000Z</time>
        <extensions>
          <ns3:TrackPointExtension>
            <ns3:hr>144</ns3:hr>
            <ns3:cad>81</ns3:cad>
          </ns3:TrackPointExtension>
        </extensions>
      </trkpt>
      <trkpt lat="52.31897483579814434051513671875" lon="1.64891682565212249755859375">
        <ele>-500</ele>
        <time>2025-09-07T11:17:58.000Z</time>
        <extensions>
          <ns3:TrackPointExtension>
            <ns3:hr>144</ns3:hr>
            <ns3:cad>80</ns3:cad>
          </ns3:TrackPointExtension>
        </extensions>
      </trkpt>
      <trkpt lat="52.3189858160912990570068359375" lon="1.64894289337098598480224609375">
        <ele>-500</ele>
        <time>2025-09-07T11:17:59.000Z</time>
        <extensions>
          <ns3:TrackPointExtension>
            <ns3:hr>147</ns3:hr>
            <ns3:cad>80</ns3:cad>
          </ns3:TrackPointExtension>
        </extensions>
      </trkpt>
      <trkpt lat="52.31901691295206546783447265625" lon="1.6490222699940204620361328125">
        <ele>-500</ele>
        <time>2025-09-07T11:18:02.000Z</time>
        <extensions>
          <ns3:TrackPointExtension>
            <ns3:hr>146</ns3:hr>
            <ns3:cad>81</ns3:cad>
          </ns3:TrackPointExtension>
        </extensions>
      </trkpt>
      <trkpt lat="52.31903099454939365386962890625" lon="1.64910256862640380859375">
        <ele>-500</ele>
        <time>2025-09-07T11:18:05.000Z</time>
        <extensions>
          <ns3:TrackPointExtension>
            <ns3:hr>143</ns3:hr>
            <ns3:cad>80</ns3:cad>
          </ns3:TrackPointExtension>
        </extensions>
      </trkpt>
      <trkpt lat="52.31906569562852382659912109375" lon="1.6491912491619586944580078125">
        <ele>-500</ele>
        <time>2025-09-07T11:18:09.000Z</time>
        <extensions>
          <ns3:TrackPointExtension>
            <ns3:hr>145</ns3:hr>
            <ns3:cad>80</ns3:cad>
          </ns3:TrackPointExtension>
        </extensions>
      </trkpt>
      <trkpt lat="52.3191457428038120269775390625" lon="1.649385206401348114013671875">
        <ele>-500</ele>
        <time>2025-09-07T11:18:17.000Z</time>
        <extensions>
          <ns3:TrackPointExtension>
            <ns3:hr>144</ns3:hr>
            <ns3:cad>81</ns3:cad>
          </ns3:TrackPointExtension>
        </extensions>
      </trkpt>
      <trkpt lat="52.31915236450731754302978515625" lon="1.6494142077863216400146484375">
        <ele>-500</ele>
        <time>2025-09-07T11:18:18.000Z</time>
        <extensions>
          <ns3:TrackPointExtension>
            <ns3:hr>145</ns3:hr>
            <ns3:cad>81</ns3:cad>
          </ns3:TrackPointExtension>
        </extensions>
      </trkpt>
      <trkpt lat="52.319182790815830230712890625" lon="1.64952510036528110504150390625">
        <ele>-500</ele>
        <time>2025-09-07T11:18:22.000Z</time>
        <extensions>
          <ns3:TrackPointExtension>
            <ns3:hr>149</ns3:hr>
            <ns3:cad>80</ns3:cad>
          </ns3:TrackPointExtension>
        </extensions>
      </trkpt>
      <trkpt lat="52.31919385492801666259765625" lon="1.6495520062744617462158203125">
        <ele>-500</ele>
        <time>2025-09-07T11:18:23.000Z</time>
        <extensions>
          <ns3:TrackPointExtension>
            <ns3:hr>149</ns3:hr>
            <ns3:cad>80</ns3:cad>
          </ns3:TrackPointExtension>
        </extensions>
      </trkpt>
      <trkpt lat="52.31924171559512615203857421875" lon="1.64965485222637653350830078125">
        <ele>-500</ele>
        <time>2025-09-07T11:18:27.000Z</time>
        <extensions>
          <ns3:TrackPointExtension>
            <ns3:hr>149</ns3:hr>
            <ns3:cad>82</ns3:cad>
          </ns3:TrackPointExtension>
        </extensions>
      </trkpt>
      <trkpt lat="52.31927021406590938568115234375" lon="1.64971075952053070068359375">
        <ele>-500</ele>
        <time>2025-09-07T11:18:29.000Z</time>
        <extensions>
          <ns3:TrackPointExtension>
            <ns3:hr>152</ns3:hr>
            <ns3:cad>82</ns3:cad>
          </ns3:TrackPointExtension>
        </extensions>
      </trkpt>
      <trkpt lat="52.31929116882383823394775390625" lon="1.6497622244060039520263671875">
        <ele>-500</ele>
        <time>2025-09-07T11:18:31.000Z</time>
        <extensions>
          <ns3:TrackPointExtension>
            <ns3:hr>152</ns3:hr>
            <ns3:cad>81</ns3:cad>
          </ns3:TrackPointExtension>
        </extensions>
      </trkpt>
      <trkpt lat="52.31931388378143310546875" lon="1.649837829172611236572265625">
        <ele>-500</ele>
        <time>2025-09-07T11:18:34.000Z</time>
        <extensions>
          <ns3:TrackPointExtension>
            <ns3:hr>152</ns3:hr>
            <ns3:cad>82</ns3:cad>
          </ns3:TrackPointExtension>
        </extensions>
      </trkpt>
      <trkpt lat="52.319354116916656494140625" lon="1.64993430487811565399169921875">
        <ele>-500</ele>
        <time>2025-09-07T11:18:38.000Z</time>
        <extensions>
          <ns3:TrackPointExtension>
            <ns3:hr>149</ns3:hr>
            <ns3:cad>82</ns3:cad>
          </ns3:TrackPointExtension>
        </extensions>
      </trkpt>
      <trkpt lat="52.31937498785555362701416015625" lon="1.649977974593639373779296875">
        <ele>-500</ele>
        <time>2025-09-07T11:18:40.000Z</time>
        <extensions>
          <ns3:TrackPointExtension>
            <ns3:hr>148</ns3:hr>
            <ns3:cad>82</ns3:cad>
          </ns3:TrackPointExtension>
        </extensions>
      </trkpt>
      <trkpt lat="52.31944262981414794921875" lon="1.6501501388847827911376953125">
        <ele>-500</ele>
        <time>2025-09-07T11:18:46.000Z</time>
        <extensions>
          <ns3:TrackPointExtension>
            <ns3:hr>149</ns3:hr>
            <ns3:cad>82</ns3:cad>
          </ns3:TrackPointExtension>
        </extensions>
      </trkpt>
      <trkpt lat="52.31946551240980625152587890625" lon="1.650211326777935028076171875">
        <ele>-500</ele>
        <time>2025-09-07T11:18:48.000Z</time>
        <extensions>
          <ns3:TrackPointExtension>
            <ns3:hr>150</ns3:hr>
            <ns3:cad>82</ns3:cad>
          </ns3:TrackPointExtension>
        </extensions>
      </trkpt>
      <trkpt lat="52.31951395981013774871826171875" lon="1.65032942779362201690673828125">
        <ele>-500</ele>
        <time>2025-09-07T11:18:52.000Z</time>
        <extensions>
          <ns3:TrackPointExtension>
            <ns3:hr>151</ns3:hr>
            <ns3:cad>82</ns3:cad>
          </ns3:TrackPointExtension>
        </extensions>
      </trkpt>
      <trkpt lat="52.319566346704959869384765625" lon="1.65043755434453487396240234375">
        <ele>-500</ele>
        <time>2025-09-07T11:18:56.000Z</time>
        <extensions>
          <ns3:TrackPointExtension>
            <ns3:hr>152</ns3:hr>
            <ns3:cad>81</ns3:cad>
          </ns3:TrackPointExtension>
        </extensions>
      </trkpt>
      <trkpt lat="52.31957917101681232452392578125" lon="1.6504622809588909149169921875">
        <ele>-500</ele>
        <time>2025-09-07T11:18:57.000Z</time>
        <extensions>
          <ns3:TrackPointExtension>
            <ns3:hr>152</ns3:hr>
            <ns3:cad>81</ns3:cad>
          </ns3:TrackPointExtension>
        </extensions>
      </trkpt>
      <trkpt lat="52.31961705721914768218994140625" lon="1.65060167200863361358642578125">
        <ele>-500</ele>
        <time>2025-09-07T11:19:02.000Z</time>
        <extensions>
          <ns3:TrackPointExtension>
            <ns3:hr>152</ns3:hr>
            <ns3:cad>81</ns3:cad>
          </ns3:TrackPointExtension>
        </extensions>
      </trkpt>
      <trkpt lat="52.31962627731263637542724609375" lon="1.650632433593273162841796875">
        <ele>-500</ele>
        <time>2025-09-07T11:19:03.000Z</time>
        <extensions>
          <ns3:TrackPointExtension>
            <ns3:hr>153</ns3:hr>
            <ns3:cad>81</ns3:cad>
          </ns3:TrackPointExtension>
        </extensions>
      </trkpt>
      <trkpt lat="52.31967573054134845733642578125" lon="1.65072388015687465667724609375">
        <ele>-500</ele>
        <time>2025-09-07T11:19:07.000Z</time>
        <extensions>
          <ns3:TrackPointExtension>
            <ns3:hr>152</ns3:hr>
            <ns3:cad>82</ns3:cad>
          </ns3:TrackPointExtension>
        </extensions>
      </trkpt>
      <trkpt lat="52.319717891514301300048828125" lon="1.6507942043244838714599609375">
        <ele>-500</ele>
        <time>2025-09-07T11:19:10.000Z</time>
        <extensions>
          <ns3:TrackPointExtension>
            <ns3:hr>152</ns3:hr>
            <ns3:cad>82</ns3:cad>
          </ns3:TrackPointExtension>
        </extensions>
      </trkpt>
      <trkpt lat="52.3197442106902599334716796875" lon="1.65085069835186004638671875">
        <ele>-500</ele>
        <time>2025-09-07T11:19:12.000Z</time>
        <extensions>
          <ns3:TrackPointExtension>
            <ns3:hr>152</ns3:hr>
            <ns3:cad>82</ns3:cad>
          </ns3:TrackPointExtension>
        </extensions>
      </trkpt>
      <trkpt lat="52.3197998665273189544677734375" lon="1.65098120458424091339111328125">
        <ele>-500</ele>
        <time>2025-09-07T11:19:17.000Z</time>
        <extensions>
          <ns3:TrackPointExtension>
            <ns3:hr>153</ns3:hr>
            <ns3:cad>81</ns3:cad>
          </ns3:TrackPointExtension>
        </extensions>
      </trkpt>
      <trkpt lat="52.31980849988758563995361328125" lon="1.65100970305502414703369140625">
        <ele>-500</ele>
        <time>2025-09-07T11:19:18.000Z</time>
        <extensions>
          <ns3:TrackPointExtension>
            <ns3:hr>153</ns3:hr>
            <ns3:cad>81</ns3:cad>
          </ns3:TrackPointExtension>
        </extensions>
      </trkpt>
      <trkpt lat="52.319848649203777313232421875" lon="1.65112939663231372833251953125">
        <ele>-500</ele>
        <time>2025-09-07T11:19:23.000Z</time>
        <extensions>
          <ns3:TrackPointExtension>
            <ns3:hr>153</ns3:hr>
            <ns3:cad>81</ns3:cad>
          </ns3:TrackPointExtension>
        </extensions>
      </trkpt>
      <trkpt lat="52.31989935971796512603759765625" lon="1.65123634971678256988525390625">
        <ele>-500</ele>
        <time>2025-09-07T11:19:28.000Z</time>
        <extensions>
          <ns3:TrackPointExtension>
            <ns3:hr>154</ns3:hr>
            <ns3:cad>80</ns3:cad>
          </ns3:TrackPointExtension>
        </extensions>
      </trkpt>
      <trkpt lat="52.3199457116425037384033203125" lon="1.6513018123805522918701171875">
        <ele>-500</ele>
        <time>2025-09-07T11:19:32.000Z</time>
        <extensions>
          <ns3:TrackPointExtension>
            <ns3:hr>152</ns3:hr>
            <ns3:cad>80</ns3:cad>
          </ns3:TrackPointExtension>
        </extensions>
      </trkpt>
      <trkpt lat="52.31998887844383716583251953125" lon="1.6514171473681926727294921875">
        <ele>-500</ele>
        <time>2025-09-07T11:19:37.000Z</time>
        <extensions>
          <ns3:TrackPointExtension>
            <ns3:hr>150</ns3:hr>
            <ns3:cad>80</ns3:cad>
          </ns3:TrackPointExtension>
        </extensions>
      </trkpt>
      <trkpt lat="52.32006632722914218902587890625" lon="1.6515998728573322296142578125">
        <ele>-500</ele>
        <time>2025-09-07T11:19:45.000Z</time>
        <extensions>
          <ns3:TrackPointExtension>
            <ns3:hr>152</ns3:hr>
            <ns3:cad>81</ns3:cad>
          </ns3:TrackPointExtension>
        </extensions>
      </trkpt>
      <trkpt lat="52.3201042972505092620849609375" lon="1.651825010776519775390625">
        <ele>-500</ele>
        <time>2025-09-07T11:19:53.000Z</time>
        <extensions>
          <ns3:TrackPointExtension>
            <ns3:hr>151</ns3:hr>
            <ns3:cad>81</ns3:cad>
          </ns3:TrackPointExtension>
        </extensions>
      </trkpt>
      <trkpt lat="52.32013673521578311920166015625" lon="1.65201301686465740203857421875">
        <ele>-500</ele>
        <time>2025-09-07T11:19:59.000Z</time>
        <extensions>
          <ns3:TrackPointExtension>
            <ns3:hr>154</ns3:hr>
            <ns3:cad>81</ns3:cad>
          </ns3:TrackPointExtension>
        </extensions>
      </trkpt>
      <trkpt lat="52.32015031389892101287841796875" lon="1.65206900797784328460693359375">
        <ele>-500</ele>
        <time>2025-09-07T11:20:01.000Z</time>
        <extensions>
          <ns3:TrackPointExtension>
            <ns3:hr>154</ns3:hr>
            <ns3:cad>81</ns3:cad>
          </ns3:TrackPointExtension>
        </extensions>
      </trkpt>
      <trkpt lat="52.32024217955768108367919921875" lon="1.65222222916781902313232421875">
        <ele>-500</ele>
        <time>2025-09-07T11:20:08.000Z</time>
        <extensions>
          <ns3:TrackPointExtension>
            <ns3:hr>153</ns3:hr>
            <ns3:cad>81</ns3:cad>
          </ns3:TrackPointExtension>
        </extensions>
      </trkpt>
      <trkpt lat="52.320401184260845184326171875" lon="1.65228827856481075286865234375">
        <ele>-500</ele>
        <time>2025-09-07T11:20:16.000Z</time>
        <extensions>
          <ns3:TrackPointExtension>
            <ns3:hr>151</ns3:hr>
            <ns3:cad>81</ns3:cad>
          </ns3:TrackPointExtension>
        </extensions>
      </trkpt>
      <trkpt lat="52.32046245597302913665771484375" lon="1.65235407650470733642578125">
        <ele>-500</ele>
        <time>2025-09-07T11:20:20.000Z</time>
        <extensions>
          <ns3:TrackPointExtension>
            <ns3:hr>149</ns3:hr>
            <ns3:cad>82</ns3:cad>
          </ns3:TrackPointExtension>
        </extensions>
      </trkpt>
      <trkpt lat="52.3205036111176013946533203125" lon="1.65241300128400325775146484375">
        <ele>-500</ele>
        <time>2025-09-07T11:20:23.000Z</time>
        <extensions>
          <ns3:TrackPointExtension>
            <ns3:hr>148</ns3:hr>
            <ns3:cad>82</ns3:cad>
          </ns3:TrackPointExtension>
        </extensions>
      </trkpt>
      <trkpt lat="52.32052951119840145111083984375" lon="1.65245105512440204620361328125">
        <ele>-500</ele>
        <time>2025-09-07T11:20:25.000Z</time>
        <extensions>
          <ns3:TrackPointExtension>
            <ns3:hr>148</ns3:hr>
            <ns3:cad>81</ns3:cad>
          </ns3:TrackPointExtension>
        </extensions>
      </trkpt>
      <trkpt lat="52.3206015117466449737548828125" lon="1.65253453887999057769775390625">
        <ele>-500</ele>
        <time>2025-09-07T11:20:30.000Z</time>
        <extensions>
          <ns3:TrackPointExtension>
            <ns3:hr>146</ns3:hr>
            <ns3:cad>82</ns3:cad>
          </ns3:TrackPointExtension>
        </extensions>
      </trkpt>
      <trkpt lat="52.32066999189555644989013671875" lon="1.65263612754642963409423828125">
        <ele>-500</ele>
        <time>2025-09-07T11:20:35.000Z</time>
        <extensions>
          <ns3:TrackPointExtension>
            <ns3:hr>144</ns3:hr>
            <ns3:cad>81</ns3:cad>
          </ns3:TrackPointExtension>
        </extensions>
      </trkpt>
      <trkpt lat="52.320704944431781768798828125" lon="1.65269278921186923980712890625">
        <ele>-500</ele>
        <time>2025-09-07T11:20:38.000Z</time>
        <extensions>
          <ns3:TrackPointExtension>
            <ns3:hr>143</ns3:hr>
            <ns3:cad>82</ns3:cad>
          </ns3:TrackPointExtension>
        </extensions>
      </trkpt>
      <trkpt lat="52.3207341134548187255859375" lon="1.652741990983486175537109375">
        <ele>-500</ele>
        <time>2025-09-07T11:20:40.000Z</time>
        <extensions>
          <ns3:TrackPointExtension>
            <ns3:hr>143</ns3:hr>
            <ns3:cad>82</ns3:cad>
          </ns3:TrackPointExtension>
        </extensions>
      </trkpt>
      <trkpt lat="52.32079823501408100128173828125" lon="1.652857996523380279541015625">
        <ele>-500</ele>
        <time>2025-09-07T11:20:45.000Z</time>
        <extensions>
          <ns3:TrackPointExtension>
            <ns3:hr>142</ns3:hr>
            <ns3:cad>81</ns3:cad>
          </ns3:TrackPointExtension>
        </extensions>
      </trkpt>
      <trkpt lat="52.32081164605915546417236328125" lon="1.652882806956768035888671875">
        <ele>-500</ele>
        <time>2025-09-07T11:20:46.000Z</time>
        <extensions>
          <ns3:TrackPointExtension>
            <ns3:hr>142</ns3:hr>
            <ns3:cad>81</ns3:cad>
          </ns3:TrackPointExtension>
        </extensions>
      </trkpt>
      <trkpt lat="52.32085271738469600677490234375" lon="1.65297676809132099151611328125">
        <ele>-500</ele>
        <time>2025-09-07T11:20:50.000Z</time>
        <extensions>
          <ns3:TrackPointExtension>
            <ns3:hr>144</ns3:hr>
            <ns3:cad>81</ns3:cad>
          </ns3:TrackPointExtension>
        </extensions>
      </trkpt>
      <trkpt lat="52.3209039308130741119384765625" lon="1.6531030833721160888671875">
        <ele>-500</ele>
        <time>2025-09-07T11:20:55.000Z</time>
        <extensions>
          <ns3:TrackPointExtension>
            <ns3:hr>142</ns3:hr>
            <ns3:cad>81</ns3:cad>
          </ns3:TrackPointExtension>
        </extensions>
      </trkpt>
      <trkpt lat="52.32096939347684383392333984375" lon="1.653268039226531982421875">
        <ele>-500</ele>
        <time>2025-09-07T11:21:02.000Z</time>
        <extensions>
          <ns3:TrackPointExtension>
            <ns3:hr>144</ns3:hr>
            <ns3:cad>81</ns3:cad>
          </ns3:TrackPointExtension>
        </extensions>
      </trkpt>
      <trkpt lat="52.3209894262254238128662109375" lon="1.65330885909497737884521484375">
        <ele>-500</ele>
        <time>2025-09-07T11:21:04.000Z</time>
        <extensions>
          <ns3:TrackPointExtension>
            <ns3:hr>145</ns3:hr>
            <ns3:cad>81</ns3:cad>
          </ns3:TrackPointExtension>
        </extensions>
      </trkpt>
      <trkpt lat="52.3210098780691623687744140625" lon="1.65335646830499172210693359375">
        <ele>-500</ele>
        <time>2025-09-07T11:21:06.000Z</time>
        <extensions>
          <ns3:TrackPointExtension>
            <ns3:hr>146</ns3:hr>
            <ns3:cad>81</ns3:cad>
          </ns3:TrackPointExtension>
        </extensions>
      </trkpt>
      <trkpt lat="52.3210373707115650177001953125" lon="1.65340709500014781951904296875">
        <ele>-500</ele>
        <time>2025-09-07T11:21:08.000Z</time>
        <extensions>
          <ns3:TrackPointExtension>
            <ns3:hr>145</ns3:hr>
            <ns3:cad>81</ns3:cad>
          </ns3:TrackPointExtension>
        </extensions>
      </trkpt>
      <trkpt lat="52.321063019335269927978515625" lon="1.65346073918044567108154296875">
        <ele>-500</ele>
        <time>2025-09-07T11:21:10.000Z</time>
        <extensions>
          <ns3:TrackPointExtension>
            <ns3:hr>145</ns3:hr>
            <ns3:cad>81</ns3:cad>
          </ns3:TrackPointExtension>
        </extensions>
      </trkpt>
      <trkpt lat="52.32107550837099552154541015625" lon="1.6534858010709285736083984375">
        <ele>-500</ele>
        <time>2025-09-07T11:21:11.000Z</time>
        <extensions>
          <ns3:TrackPointExtension>
            <ns3:hr>145</ns3:hr>
            <ns3:cad>81</ns3:cad>
          </ns3:TrackPointExtension>
        </extensions>
      </trkpt>
      <trkpt lat="52.32108741067349910736083984375" lon="1.653509773313999176025390625">
        <ele>-500</ele>
        <time>2025-09-07T11:21:12.000Z</time>
        <extensions>
          <ns3:TrackPointExtension>
            <ns3:hr>145</ns3:hr>
            <ns3:cad>82</ns3:cad>
          </ns3:TrackPointExtension>
        </extensions>
      </trkpt>
      <trkpt lat="52.3211087845265865325927734375" lon="1.65355260483920574188232421875">
        <ele>-500</ele>
        <time>2025-09-07T11:21:14.000Z</time>
        <extensions>
          <ns3:TrackPointExtension>
            <ns3:hr>145</ns3:hr>
            <ns3:cad>82</ns3:cad>
          </ns3:TrackPointExtension>
        </extensions>
      </trkpt>
      <trkpt lat="52.32113032601773738861083984375" lon="1.65359132923185825347900390625">
        <ele>-500</ele>
        <time>2025-09-07T11:21:16.000Z</time>
        <extensions>
          <ns3:TrackPointExtension>
            <ns3:hr>145</ns3:hr>
            <ns3:cad>81</ns3:cad>
          </ns3:TrackPointExtension>
        </extensions>
      </trkpt>
      <trkpt lat="52.32114977203309535980224609375" lon="1.65363223291933536529541015625">
        <ele>-500</ele>
        <time>2025-09-07T11:21:18.000Z</time>
        <extensions>
          <ns3:TrackPointExtension>
            <ns3:hr>146</ns3:hr>
            <ns3:cad>81</ns3:cad>
          </ns3:TrackPointExtension>
        </extensions>
      </trkpt>
      <trkpt lat="52.321170307695865631103515625" lon="1.6536772437393665313720703125">
        <ele>-500</ele>
        <time>2025-09-07T11:21:20.000Z</time>
        <extensions>
          <ns3:TrackPointExtension>
            <ns3:hr>146</ns3:hr>
            <ns3:cad>81</ns3:cad>
          </ns3:TrackPointExtension>
        </extensions>
      </trkpt>
      <trkpt lat="52.32117910869419574737548828125" lon="1.6537040658295154571533203125">
        <ele>-500</ele>
        <time>2025-09-07T11:21:21.000Z</time>
        <extensions>
          <ns3:TrackPointExtension>
            <ns3:hr>146</ns3:hr>
            <ns3:cad>81</ns3:cad>
          </ns3:TrackPointExtension>
        </extensions>
      </trkpt>
      <trkpt lat="52.32119134627282619476318359375" lon="1.65373298339545726776123046875">
        <ele>-500</ele>
        <time>2025-09-07T11:21:22.000Z</time>
        <extensions>
          <ns3:TrackPointExtension>
            <ns3:hr>147</ns3:hr>
            <ns3:cad>82</ns3:cad>
          </ns3:TrackPointExtension>
        </extensions>
      </trkpt>
      <trkpt lat="52.32121917419135570526123046875" lon="1.65378361009061336517333984375">
        <ele>-500</ele>
        <time>2025-09-07T11:21:24.000Z</time>
        <extensions>
          <ns3:TrackPointExtension>
            <ns3:hr>145</ns3:hr>
            <ns3:cad>82</ns3:cad>
          </ns3:TrackPointExtension>
        </extensions>
      </trkpt>
      <trkpt lat="52.3212432302534580230712890625" lon="1.65382619015872478485107421875">
        <ele>-500</ele>
        <time>2025-09-07T11:21:26.000Z</time>
        <extensions>
          <ns3:TrackPointExtension>
            <ns3:hr>145</ns3:hr>
            <ns3:cad>82</ns3:cad>
          </ns3:TrackPointExtension>
        </extensions>
      </trkpt>
      <trkpt lat="52.3212606646120548248291015625" lon="1.6538586281239986419677734375">
        <ele>-500</ele>
        <time>2025-09-07T11:21:28.000Z</time>
        <extensions>
          <ns3:TrackPointExtension>
            <ns3:hr>145</ns3:hr>
            <ns3:cad>82</ns3:cad>
          </ns3:TrackPointExtension>
        </extensions>
      </trkpt>
      <trkpt lat="52.32127851806581020355224609375" lon="1.653894670307636260986328125">
        <ele>-500</ele>
        <time>2025-09-07T11:21:30.000Z</time>
        <extensions>
          <ns3:TrackPointExtension>
            <ns3:hr>146</ns3:hr>
            <ns3:cad>82</ns3:cad>
          </ns3:TrackPointExtension>
        </extensions>
      </trkpt>
      <trkpt lat="52.3212891630828380584716796875" lon="1.653918810188770294189453125">
        <ele>-500</ele>
        <time>2025-09-07T11:21:32.000Z</time>
        <extensions>
          <ns3:TrackPointExtension>
            <ns3:hr>147</ns3:hr>
            <ns3:cad>41</ns3:cad>
          </ns3:TrackPointExtension>
        </extensions>
      </trkpt>
      <trkpt lat="52.32129871845245361328125" lon="1.653941608965396881103515625">
        <ele>-500</ele>
        <time>2025-09-07T11:21:34.000Z</time>
        <extensions>
          <ns3:TrackPointExtension>
            <ns3:hr>147</ns3:hr>
            <ns3:cad>0</ns3:cad>
          </ns3:TrackPointExtension>
        </extensions>
      </trkpt>
      <trkpt lat="52.32130450196564197540283203125" lon="1.6539454646408557891845703125">
        <ele>-500</ele>
        <time>2025-09-07T11:21:35.000Z</time>
        <extensions>
          <ns3:TrackPointExtension>
            <ns3:hr>147</ns3:hr>
            <ns3:cad>0</ns3:cad>
          </ns3:TrackPointExtension>
        </extensions>
      </trkpt>
      <trkpt lat="52.32130609452724456787109375" lon="1.65394856594502925872802734375">
        <ele>-500</ele>
        <time>2025-09-07T11:21:36.000Z</time>
        <extensions>
          <ns3:TrackPointExtension>
            <ns3:hr>147</ns3:hr>
            <ns3:cad>0</ns3:cad>
          </ns3:TrackPointExtension>
        </extensions>
      </trkpt>
      <trkpt lat="52.3213139735162258148193359375" lon="1.6539548523724079132080078125">
        <ele>-500</ele>
        <time>2025-09-07T11:21:38.000Z</time>
        <extensions>
          <ns3:TrackPointExtension>
            <ns3:hr>146</ns3:hr>
            <ns3:cad>0</ns3:cad>
          </ns3:TrackPointExtension>
        </extensions>
      </trkpt>
      <trkpt lat="52.321332581341266632080078125" lon="1.6539645753800868988037109375">
        <ele>-500</ele>
        <time>2025-09-07T11:21:40.000Z</time>
        <extensions>
          <ns3:TrackPointExtension>
            <ns3:hr>145</ns3:hr>
            <ns3:cad>0</ns3:cad>
          </ns3:TrackPointExtension>
        </extensions>
      </trkpt>
      <trkpt lat="52.32135194353759288787841796875" lon="1.65399936027824878692626953125">
        <ele>-500</ele>
        <time>2025-09-07T11:21:42.000Z</time>
        <extensions>
          <ns3:TrackPointExtension>
            <ns3:hr>144</ns3:hr>
            <ns3:cad>0</ns3:cad>
          </ns3:TrackPointExtension>
        </extensions>
      </trkpt>
      <trkpt lat="52.32137180864810943603515625" lon="1.6540400125086307525634765625">
        <ele>-500</ele>
        <time>2025-09-07T11:21:44.000Z</time>
        <extensions>
          <ns3:TrackPointExtension>
            <ns3:hr>143</ns3:hr>
            <ns3:cad>0</ns3:cad>
          </ns3:TrackPointExtension>
        </extensions>
      </trkpt>
      <trkpt lat="52.32138547115027904510498046875" lon="1.65406473912298679351806640625">
        <ele>-500</ele>
        <time>2025-09-07T11:21:45.000Z</time>
        <extensions>
          <ns3:TrackPointExtension>
            <ns3:hr>141</ns3:hr>
            <ns3:cad>80</ns3:cad>
          </ns3:TrackPointExtension>
        </extensions>
      </trkpt>
      <trkpt lat="52.3213994689285755157470703125" lon="1.65408636443316936492919921875">
        <ele>-500</ele>
        <time>2025-09-07T11:21:46.000Z</time>
        <extensions>
          <ns3:TrackPointExtension>
            <ns3:hr>140</ns3:hr>
            <ns3:cad>80</ns3:cad>
          </ns3:TrackPointExtension>
        </extensions>
      </trkpt>
      <trkpt lat="52.321425788104534149169921875" lon="1.65414051152765750885009765625">
        <ele>-500</ele>
        <time>2025-09-07T11:21:48.000Z</time>
        <extensions>
          <ns3:TrackPointExtension>
            <ns3:hr>139</ns3:hr>
            <ns3:cad>81</ns3:cad>
          </ns3:TrackPointExtension>
        </extensions>
      </trkpt>
      <trkpt lat="52.32145487330853939056396484375" lon="1.6541945748031139373779296875">
        <ele>-500</ele>
        <time>2025-09-07T11:21:50.000Z</time>
        <extensions>
          <ns3:TrackPointExtension>
            <ns3:hr>139</ns3:hr>
            <ns3:cad>82</ns3:cad>
          </ns3:TrackPointExtension>
        </extensions>
      </trkpt>
      <trkpt lat="52.32148236595094203948974609375" lon="1.6542482189834117889404296875">
        <ele>-500</ele>
        <time>2025-09-07T11:21:52.000Z</time>
        <extensions>
          <ns3:TrackPointExtension>
            <ns3:hr>138</ns3:hr>
            <ns3:cad>82</ns3:cad>
          </ns3:TrackPointExtension>
        </extensions>
      </trkpt>
      <trkpt lat="52.32149560935795307159423828125" lon="1.6542767174541950225830078125">
        <ele>-500</ele>
        <time>2025-09-07T11:21:53.000Z</time>
        <extensions>
          <ns3:TrackPointExtension>
            <ns3:hr>139</ns3:hr>
            <ns3:cad>82</ns3:cad>
          </ns3:TrackPointExtension>
        </extensions>
      </trkpt>
      <trkpt lat="52.3215084336698055267333984375" lon="1.65430270135402679443359375">
        <ele>-500</ele>
        <time>2025-09-07T11:21:54.000Z</time>
        <extensions>
          <ns3:TrackPointExtension>
            <ns3:hr>139</ns3:hr>
            <ns3:cad>82</ns3:cad>
          </ns3:TrackPointExtension>
        </extensions>
      </trkpt>
      <trkpt lat="52.32153483666479587554931640625" lon="1.65435441769659519195556640625">
        <ele>-500</ele>
        <time>2025-09-07T11:21:56.000Z</time>
        <extensions>
          <ns3:TrackPointExtension>
            <ns3:hr>140</ns3:hr>
            <ns3:cad>83</ns3:cad>
          </ns3:TrackPointExtension>
        </extensions>
      </trkpt>
      <trkpt lat="52.32156098820269107818603515625" lon="1.65441401302814483642578125">
        <ele>-500</ele>
        <time>2025-09-07T11:21:58.000Z</time>
        <extensions>
          <ns3:TrackPointExtension>
            <ns3:hr>140</ns3:hr>
            <ns3:cad>83</ns3:cad>
          </ns3:TrackPointExtension>
        </extensions>
      </trkpt>
      <trkpt lat="52.3215848766267299652099609375" lon="1.6544668190181255340576171875">
        <ele>-500</ele>
        <time>2025-09-07T11:22:00.000Z</time>
        <extensions>
          <ns3:TrackPointExtension>
            <ns3:hr>143</ns3:hr>
            <ns3:cad>83</ns3:cad>
          </ns3:TrackPointExtension>
        </extensions>
      </trkpt>
      <trkpt lat="52.32159703038632869720458984375" lon="1.65449255146086215972900390625">
        <ele>-500</ele>
        <time>2025-09-07T11:22:01.000Z</time>
        <extensions>
          <ns3:TrackPointExtension>
            <ns3:hr>145</ns3:hr>
            <ns3:cad>83</ns3:cad>
          </ns3:TrackPointExtension>
        </extensions>
      </trkpt>
      <trkpt lat="52.321606166660785675048828125" lon="1.6545167751610279083251953125">
        <ele>-500</ele>
        <time>2025-09-07T11:22:02.000Z</time>
        <extensions>
          <ns3:TrackPointExtension>
            <ns3:hr>144</ns3:hr>
            <ns3:cad>83</ns3:cad>
          </ns3:TrackPointExtension>
        </extensions>
      </trkpt>
      <trkpt lat="52.3216324858367443084716796875" lon="1.654566228389739990234375">
        <ele>-500</ele>
        <time>2025-09-07T11:22:04.000Z</time>
        <extensions>
          <ns3:TrackPointExtension>
            <ns3:hr>142</ns3:hr>
            <ns3:cad>83</ns3:cad>
          </ns3:TrackPointExtension>
        </extensions>
      </trkpt>
      <trkpt lat="52.3216619901359081268310546875" lon="1.65461945347487926483154296875">
        <ele>-500</ele>
        <time>2025-09-07T11:22:06.000Z</time>
        <extensions>
          <ns3:TrackPointExtension>
            <ns3:hr>143</ns3:hr>
            <ns3:cad>83</ns3:cad>
          </ns3:TrackPointExtension>
        </extensions>
      </trkpt>
      <trkpt lat="52.32169074006378650665283203125" lon="1.65467577986419200897216796875">
        <ele>-500</ele>
        <time>2025-09-07T11:22:08.000Z</time>
        <extensions>
          <ns3:TrackPointExtension>
            <ns3:hr>145</ns3:hr>
            <ns3:cad>83</ns3:cad>
          </ns3:TrackPointExtension>
        </extensions>
      </trkpt>
      <trkpt lat="52.32170281000435352325439453125" lon="1.65470193140208721160888671875">
        <ele>-500</ele>
        <time>2025-09-07T11:22:09.000Z</time>
        <extensions>
          <ns3:TrackPointExtension>
            <ns3:hr>146</ns3:hr>
            <ns3:cad>83</ns3:cad>
          </ns3:TrackPointExtension>
        </extensions>
      </trkpt>
      <trkpt lat="52.321730218827724456787109375" lon="1.65476127527654170989990234375">
        <ele>-500</ele>
        <time>2025-09-07T11:22:11.000Z</time>
        <extensions>
          <ns3:TrackPointExtension>
            <ns3:hr>146</ns3:hr>
            <ns3:cad>82</ns3:cad>
          </ns3:TrackPointExtension>
        </extensions>
      </trkpt>
      <trkpt lat="52.321770451962947845458984375" lon="1.65484962053596973419189453125">
        <ele>-500</ele>
        <time>2025-09-07T11:22:14.000Z</time>
        <extensions>
          <ns3:TrackPointExtension>
            <ns3:hr>147</ns3:hr>
            <ns3:cad>84</ns3:cad>
          </ns3:TrackPointExtension>
        </extensions>
      </trkpt>
      <trkpt lat="52.3217961005866527557373046875" lon="1.654912568628787994384765625">
        <ele>-500</ele>
        <time>2025-09-07T11:22:16.000Z</time>
        <extensions>
          <ns3:TrackPointExtension>
            <ns3:hr>147</ns3:hr>
            <ns3:cad>82</ns3:cad>
          </ns3:TrackPointExtension>
        </extensions>
      </trkpt>
      <trkpt lat="52.3218085058033466339111328125" lon="1.65494106709957122802734375">
        <ele>-500</ele>
        <time>2025-09-07T11:22:17.000Z</time>
        <extensions>
          <ns3:TrackPointExtension>
            <ns3:hr>148</ns3:hr>
            <ns3:cad>82</ns3:cad>
          </ns3:TrackPointExtension>
        </extensions>
      </trkpt>
      <trkpt lat="52.32184446416795253753662109375" lon="1.6550196893513202667236328125">
        <ele>-500</ele>
        <time>2025-09-07T11:22:20.000Z</time>
        <extensions>
          <ns3:TrackPointExtension>
            <ns3:hr>149</ns3:hr>
            <ns3:cad>82</ns3:cad>
          </ns3:TrackPointExtension>
        </extensions>
      </trkpt>
      <trkpt lat="52.32188017107546329498291015625" lon="1.65510040707886219024658203125">
        <ele>-500</ele>
        <time>2025-09-07T11:22:23.000Z</time>
        <extensions>
          <ns3:TrackPointExtension>
            <ns3:hr>149</ns3:hr>
            <ns3:cad>82</ns3:cad>
          </ns3:TrackPointExtension>
        </extensions>
      </trkpt>
      <trkpt lat="52.321909926831722259521484375" lon="1.6551819629967212677001953125">
        <ele>-500</ele>
        <time>2025-09-07T11:22:26.000Z</time>
        <extensions>
          <ns3:TrackPointExtension>
            <ns3:hr>150</ns3:hr>
            <ns3:cad>82</ns3:cad>
          </ns3:TrackPointExtension>
        </extensions>
      </trkpt>
      <trkpt lat="52.3219466395676136016845703125" lon="1.6552661173045635223388671875">
        <ele>-500</ele>
        <time>2025-09-07T11:22:29.000Z</time>
        <extensions>
          <ns3:TrackPointExtension>
            <ns3:hr>151</ns3:hr>
            <ns3:cad>82</ns3:cad>
          </ns3:TrackPointExtension>
        </extensions>
      </trkpt>
      <trkpt lat="52.32197052799165248870849609375" lon="1.655320934951305389404296875">
        <ele>-500</ele>
        <time>2025-09-07T11:22:31.000Z</time>
        <extensions>
          <ns3:TrackPointExtension>
            <ns3:hr>151</ns3:hr>
            <ns3:cad>82</ns3:cad>
          </ns3:TrackPointExtension>
        </extensions>
      </trkpt>
      <trkpt lat="52.32198243029415607452392578125" lon="1.655348427593708038330078125">
        <ele>-500</ele>
        <time>2025-09-07T11:22:32.000Z</time>
        <extensions>
          <ns3:TrackPointExtension>
            <ns3:hr>151</ns3:hr>
            <ns3:cad>82</ns3:cad>
          </ns3:TrackPointExtension>
        </extensions>
      </trkpt>
      <trkpt lat="52.32201226986944675445556640625" lon="1.65541757829487323760986328125">
        <ele>-500</ele>
        <time>2025-09-07T11:22:35.000Z</time>
        <extensions>
          <ns3:TrackPointExtension>
            <ns3:hr>151</ns3:hr>
            <ns3:cad>82</ns3:cad>
          </ns3:TrackPointExtension>
        </extensions>
      </trkpt>
      <trkpt lat="52.32203297317028045654296875" lon="1.65546552278101444244384765625">
        <ele>-500</ele>
        <time>2025-09-07T11:22:37.000Z</time>
        <extensions>
          <ns3:TrackPointExtension>
            <ns3:hr>151</ns3:hr>
            <ns3:cad>82</ns3:cad>
          </ns3:TrackPointExtension>
        </extensions>
      </trkpt>
      <trkpt lat="52.3220545984804630279541015625" lon="1.65551145561039447784423828125">
        <ele>-500</ele>
        <time>2025-09-07T11:22:39.000Z</time>
        <extensions>
          <ns3:TrackPointExtension>
            <ns3:hr>151</ns3:hr>
            <ns3:cad>82</ns3:cad>
          </ns3:TrackPointExtension>
        </extensions>
      </trkpt>
      <trkpt lat="52.32207722961902618408203125" lon="1.655559651553630828857421875">
        <ele>-500</ele>
        <time>2025-09-07T11:22:41.000Z</time>
        <extensions>
          <ns3:TrackPointExtension>
            <ns3:hr>151</ns3:hr>
            <ns3:cad>82</ns3:cad>
          </ns3:TrackPointExtension>
        </extensions>
      </trkpt>
      <trkpt lat="52.32209843583405017852783203125" lon="1.6556164808571338653564453125">
        <ele>-500</ele>
        <time>2025-09-07T11:22:43.000Z</time>
        <extensions>
          <ns3:TrackPointExtension>
            <ns3:hr>150</ns3:hr>
            <ns3:cad>82</ns3:cad>
          </ns3:TrackPointExtension>
        </extensions>
      </trkpt>
      <trkpt lat="52.32212073169648647308349609375" lon="1.6556627489626407623291015625">
        <ele>-500</ele>
        <time>2025-09-07T11:22:45.000Z</time>
        <extensions>
          <ns3:TrackPointExtension>
            <ns3:hr>150</ns3:hr>
            <ns3:cad>82</ns3:cad>
          </ns3:TrackPointExtension>
        </extensions>
      </trkpt>
      <trkpt lat="52.3221323825418949127197265625" lon="1.65568672120571136474609375">
        <ele>-500</ele>
        <time>2025-09-07T11:22:46.000Z</time>
        <extensions>
          <ns3:TrackPointExtension>
            <ns3:hr>149</ns3:hr>
            <ns3:cad>82</ns3:cad>
          </ns3:TrackPointExtension>
        </extensions>
      </trkpt>
      <trkpt lat="52.3221444524824619293212890625" lon="1.655709184706211090087890625">
        <ele>-500</ele>
        <time>2025-09-07T11:22:47.000Z</time>
        <extensions>
          <ns3:TrackPointExtension>
            <ns3:hr>149</ns3:hr>
            <ns3:cad>82</ns3:cad>
          </ns3:TrackPointExtension>
        </extensions>
      </trkpt>
      <trkpt lat="52.32216917909681797027587890625" lon="1.65575955994427204132080078125">
        <ele>-500</ele>
        <time>2025-09-07T11:22:49.000Z</time>
        <extensions>
          <ns3:TrackPointExtension>
            <ns3:hr>149</ns3:hr>
            <ns3:cad>82</ns3:cad>
          </ns3:TrackPointExtension>
        </extensions>
      </trkpt>
      <trkpt lat="52.3221974261105060577392578125" lon="1.6558152996003627777099609375">
        <ele>-500</ele>
        <time>2025-09-07T11:22:51.000Z</time>
        <extensions>
          <ns3:TrackPointExtension>
            <ns3:hr>149</ns3:hr>
            <ns3:cad>82</ns3:cad>
          </ns3:TrackPointExtension>
        </extensions>
      </trkpt>
      <trkpt lat="52.32222206890583038330078125" lon="1.65586684830486774444580078125">
        <ele>-500</ele>
        <time>2025-09-07T11:22:53.000Z</time>
        <extensions>
          <ns3:TrackPointExtension>
            <ns3:hr>150</ns3:hr>
            <ns3:cad>82</ns3:cad>
          </ns3:TrackPointExtension>
        </extensions>
      </trkpt>
      <trkpt lat="52.3222460411489009857177734375" lon="1.6559229232370853424072265625">
        <ele>-500</ele>
        <time>2025-09-07T11:22:55.000Z</time>
        <extensions>
          <ns3:TrackPointExtension>
            <ns3:hr>150</ns3:hr>
            <ns3:cad>82</ns3:cad>
          </ns3:TrackPointExtension>
        </extensions>
      </trkpt>
      <trkpt lat="52.32227127067744731903076171875" lon="1.65597480721771717071533203125">
        <ele>-500</ele>
        <time>2025-09-07T11:22:57.000Z</time>
        <extensions>
          <ns3:TrackPointExtension>
            <ns3:hr>150</ns3:hr>
            <ns3:cad>82</ns3:cad>
          </ns3:TrackPointExtension>
        </extensions>
      </trkpt>
      <trkpt lat="52.32229490764439105987548828125" lon="1.65602174587547779083251953125">
        <ele>-500</ele>
        <time>2025-09-07T11:22:59.000Z</time>
        <extensions>
          <ns3:TrackPointExtension>
            <ns3:hr>151</ns3:hr>
            <ns3:cad>81</ns3:cad>
          </ns3:TrackPointExtension>
        </extensions>
      </trkpt>
      <trkpt lat="52.32231871224939823150634765625" lon="1.65606633760035037994384765625">
        <ele>-500</ele>
        <time>2025-09-07T11:23:01.000Z</time>
        <extensions>
          <ns3:TrackPointExtension>
            <ns3:hr>151</ns3:hr>
            <ns3:cad>82</ns3:cad>
          </ns3:TrackPointExtension>
        </extensions>
      </trkpt>
      <trkpt lat="52.3223382420837879180908203125" lon="1.65611646138131618499755859375">
        <ele>-500</ele>
        <time>2025-09-07T11:23:03.000Z</time>
        <extensions>
          <ns3:TrackPointExtension>
            <ns3:hr>151</ns3:hr>
            <ns3:cad>81</ns3:cad>
          </ns3:TrackPointExtension>
        </extensions>
      </trkpt>
      <trkpt lat="52.3223613761365413665771484375" lon="1.65616549551486968994140625">
        <ele>-499.79998779296875</ele>
        <time>2025-09-07T11:23:05.000Z</time>
        <extensions>
          <ns3:TrackPointExtension>
            <ns3:hr>152</ns3:hr>
            <ns3:cad>81</ns3:cad>
          </ns3:TrackPointExtension>
        </extensions>
      </trkpt>
      <trkpt lat="52.3223858512938022613525390625" lon="1.65621419437229633331298828125">
        <ele>-498.79998779296875</ele>
        <time>2025-09-07T11:23:07.000Z</time>
        <extensions>
          <ns3:TrackPointExtension>
            <ns3:hr>152</ns3:hr>
            <ns3:cad>81</ns3:cad>
          </ns3:TrackPointExtension>
        </extensions>
      </trkpt>
      <trkpt lat="52.32241108082234859466552734375" lon="1.65626582689583301544189453125">
        <ele>-497.79998779296875</ele>
        <time>2025-09-07T11:23:09.000Z</time>
        <extensions>
          <ns3:TrackPointExtension>
            <ns3:hr>153</ns3:hr>
            <ns3:cad>81</ns3:cad>
          </ns3:TrackPointExtension>
        </extensions>
      </trkpt>
      <trkpt lat="52.3224324546754360198974609375" lon="1.65631460957229137420654296875">
        <ele>-496.79998779296875</ele>
        <time>2025-09-07T11:23:11.000Z</time>
        <extensions>
          <ns3:TrackPointExtension>
            <ns3:hr>153</ns3:hr>
            <ns3:cad>81</ns3:cad>
          </ns3:TrackPointExtension>
        </extensions>
      </trkpt>
      <trkpt lat="52.3224498890340328216552734375" lon="1.656365655362606048583984375">
        <ele>-495.600006103515625</ele>
        <time>2025-09-07T11:23:13.000Z</time>
        <extensions>
          <ns3:TrackPointExtension>
            <ns3:hr>153</ns3:hr>
            <ns3:cad>81</ns3:cad>
          </ns3:TrackPointExtension>
        </extensions>
      </trkpt>
      <trkpt lat="52.3224726878106594085693359375" lon="1.6564184613525867462158203125">
        <ele>-494.600006103515625</ele>
        <time>2025-09-07T11:23:15.000Z</time>
        <extensions>
          <ns3:TrackPointExtension>
            <ns3:hr>153</ns3:hr>
            <ns3:cad>81</ns3:cad>
          </ns3:TrackPointExtension>
        </extensions>
      </trkpt>
      <trkpt lat="52.32248467393219470977783203125" lon="1.656449139118194580078125">
        <ele>-494.20001220703125</ele>
        <time>2025-09-07T11:23:16.000Z</time>
        <extensions>
          <ns3:TrackPointExtension>
            <ns3:hr>153</ns3:hr>
            <ns3:cad>81</ns3:cad>
          </ns3:TrackPointExtension>
        </extensions>
      </trkpt>
      <trkpt lat="52.3224951513111591339111328125" lon="1.65647403337061405181884765625">
        <ele>-493.600006103515625</ele>
        <time>2025-09-07T11:23:17.000Z</time>
        <extensions>
          <ns3:TrackPointExtension>
            <ns3:hr>155</ns3:hr>
            <ns3:cad>81</ns3:cad>
          </ns3:TrackPointExtension>
        </extensions>
      </trkpt>
      <trkpt lat="52.3225176148116588592529296875" lon="1.65652851574122905731201171875">
        <ele>-492.600006103515625</ele>
        <time>2025-09-07T11:23:19.000Z</time>
        <extensions>
          <ns3:TrackPointExtension>
            <ns3:hr>153</ns3:hr>
            <ns3:cad>82</ns3:cad>
          </ns3:TrackPointExtension>
        </extensions>
      </trkpt>
      <trkpt lat="52.32253991067409515380859375" lon="1.65658098645508289337158203125">
        <ele>-491.600006103515625</ele>
        <time>2025-09-07T11:23:21.000Z</time>
        <extensions>
          <ns3:TrackPointExtension>
            <ns3:hr>155</ns3:hr>
            <ns3:cad>82</ns3:cad>
          </ns3:TrackPointExtension>
        </extensions>
      </trkpt>
      <trkpt lat="52.32255139388144016265869140625" lon="1.656603701412677764892578125">
        <ele>-491</ele>
        <time>2025-09-07T11:23:22.000Z</time>
        <extensions>
          <ns3:TrackPointExtension>
            <ns3:hr>154</ns3:hr>
            <ns3:cad>82</ns3:cad>
          </ns3:TrackPointExtension>
        </extensions>
      </trkpt>
      <trkpt lat="52.32256539165973663330078125" lon="1.65662758983671665191650390625">
        <ele>-490.600006103515625</ele>
        <time>2025-09-07T11:23:23.000Z</time>
        <extensions>
          <ns3:TrackPointExtension>
            <ns3:hr>153</ns3:hr>
            <ns3:cad>82</ns3:cad>
          </ns3:TrackPointExtension>
        </extensions>
      </trkpt>
      <trkpt lat="52.3225890286266803741455078125" lon="1.65667352266609668731689453125">
        <ele>-489.600006103515625</ele>
        <time>2025-09-07T11:23:25.000Z</time>
        <extensions>
          <ns3:TrackPointExtension>
            <ns3:hr>153</ns3:hr>
            <ns3:cad>82</ns3:cad>
          </ns3:TrackPointExtension>
        </extensions>
      </trkpt>
      <trkpt lat="52.32262649573385715484619140625" lon="1.656752564013004302978515625">
        <ele>-488</ele>
        <time>2025-09-07T11:23:28.000Z</time>
        <extensions>
          <ns3:TrackPointExtension>
            <ns3:hr>153</ns3:hr>
            <ns3:cad>82</ns3:cad>
          </ns3:TrackPointExtension>
        </extensions>
      </trkpt>
      <trkpt lat="52.32264745049178600311279296875" lon="1.6568020172417163848876953125">
        <ele>-487</ele>
        <time>2025-09-07T11:23:30.000Z</time>
        <extensions>
          <ns3:TrackPointExtension>
            <ns3:hr>153</ns3:hr>
            <ns3:cad>82</ns3:cad>
          </ns3:TrackPointExtension>
        </extensions>
      </trkpt>
      <trkpt lat="52.32265658676624298095703125" lon="1.65682640857994556427001953125">
        <ele>-486.600006103515625</ele>
        <time>2025-09-07T11:23:31.000Z</time>
        <extensions>
          <ns3:TrackPointExtension>
            <ns3:hr>153</ns3:hr>
            <ns3:cad>82</ns3:cad>
          </ns3:TrackPointExtension>
        </extensions>
      </trkpt>
      <trkpt lat="52.32268701307475566864013671875" lon="1.65690184570848941802978515625">
        <ele>-485.20001220703125</ele>
        <time>2025-09-07T11:23:34.000Z</time>
        <extensions>
          <ns3:TrackPointExtension>
            <ns3:hr>153</ns3:hr>
            <ns3:cad>83</ns3:cad>
          </ns3:TrackPointExtension>
        </extensions>
      </trkpt>
      <trkpt lat="52.32271467335522174835205078125" lon="1.6569746844470500946044921875">
        <ele>-483.79998779296875</ele>
        <time>2025-09-07T11:23:37.000Z</time>
        <extensions>
          <ns3:TrackPointExtension>
            <ns3:hr>154</ns3:hr>
            <ns3:cad>82</ns3:cad>
          </ns3:TrackPointExtension>
        </extensions>
      </trkpt>
      <trkpt lat="52.32273713685572147369384765625" lon="1.65703293867409229278564453125">
        <ele>-482.79998779296875</ele>
        <time>2025-09-07T11:23:39.000Z</time>
        <extensions>
          <ns3:TrackPointExtension>
            <ns3:hr>154</ns3:hr>
            <ns3:cad>81</ns3:cad>
          </ns3:TrackPointExtension>
        </extensions>
      </trkpt>
      <trkpt lat="52.32274903915822505950927734375" lon="1.65706336498260498046875">
        <ele>-482.399993896484375</ele>
        <time>2025-09-07T11:23:40.000Z</time>
        <extensions>
          <ns3:TrackPointExtension>
            <ns3:hr>154</ns3:hr>
            <ns3:cad>81</ns3:cad>
          </ns3:TrackPointExtension>
        </extensions>
      </trkpt>
      <trkpt lat="52.32278105802834033966064453125" lon="1.6571456752717494964599609375">
        <ele>-481</ele>
        <time>2025-09-07T11:23:43.000Z</time>
        <extensions>
          <ns3:TrackPointExtension>
            <ns3:hr>153</ns3:hr>
            <ns3:cad>82</ns3:cad>
          </ns3:TrackPointExtension>
        </extensions>
      </trkpt>
      <trkpt lat="52.32281559146940708160400390625" lon="1.65721717290580272674560546875">
        <ele>-479.600006103515625</ele>
        <time>2025-09-07T11:23:46.000Z</time>
        <extensions>
          <ns3:TrackPointExtension>
            <ns3:hr>153</ns3:hr>
            <ns3:cad>81</ns3:cad>
          </ns3:TrackPointExtension>
        </extensions>
      </trkpt>
      <trkpt lat="52.32284794561564922332763671875" lon="1.65729713626205921173095703125">
        <ele>-478.20001220703125</ele>
        <time>2025-09-07T11:23:49.000Z</time>
        <extensions>
          <ns3:TrackPointExtension>
            <ns3:hr>153</ns3:hr>
            <ns3:cad>82</ns3:cad>
          </ns3:TrackPointExtension>
        </extensions>
      </trkpt>
      <trkpt lat="52.32287895865738391876220703125" lon="1.6573731601238250732421875">
        <ele>-477</ele>
        <time>2025-09-07T11:23:52.000Z</time>
        <extensions>
          <ns3:TrackPointExtension>
            <ns3:hr>153</ns3:hr>
            <ns3:cad>81</ns3:cad>
          </ns3:TrackPointExtension>
        </extensions>
      </trkpt>
      <trkpt lat="52.32289102859795093536376953125" lon="1.65739889256656169891357421875">
        <ele>-476.600006103515625</ele>
        <time>2025-09-07T11:23:53.000Z</time>
        <extensions>
          <ns3:TrackPointExtension>
            <ns3:hr>153</ns3:hr>
            <ns3:cad>81</ns3:cad>
          </ns3:TrackPointExtension>
        </extensions>
      </trkpt>
      <trkpt lat="52.3229135759174823760986328125" lon="1.65744918398559093475341796875">
        <ele>-475.600006103515625</ele>
        <time>2025-09-07T11:23:55.000Z</time>
        <extensions>
          <ns3:TrackPointExtension>
            <ns3:hr>152</ns3:hr>
            <ns3:cad>81</ns3:cad>
          </ns3:TrackPointExtension>
        </extensions>
      </trkpt>
      <trkpt lat="52.322944588959217071533203125" lon="1.65752344764769077301025390625">
        <ele>-474.399993896484375</ele>
        <time>2025-09-07T11:23:58.000Z</time>
        <extensions>
          <ns3:TrackPointExtension>
            <ns3:hr>152</ns3:hr>
            <ns3:cad>81</ns3:cad>
          </ns3:TrackPointExtension>
        </extensions>
      </trkpt>
      <trkpt lat="52.32298239134252071380615234375" lon="1.657600142061710357666015625">
        <ele>-473.20001220703125</ele>
        <time>2025-09-07T11:24:01.000Z</time>
        <extensions>
          <ns3:TrackPointExtension>
            <ns3:hr>152</ns3:hr>
            <ns3:cad>81</ns3:cad>
          </ns3:TrackPointExtension>
        </extensions>
      </trkpt>
      <trkpt lat="52.32301876880228519439697265625" lon="1.6576750762760639190673828125">
        <ele>-472</ele>
        <time>2025-09-07T11:24:04.000Z</time>
        <extensions>
          <ns3:TrackPointExtension>
            <ns3:hr>151</ns3:hr>
            <ns3:cad>81</ns3:cad>
          </ns3:TrackPointExtension>
        </extensions>
      </trkpt>
      <trkpt lat="52.3230453394353389739990234375" lon="1.657721512019634246826171875">
        <ele>-471.20001220703125</ele>
        <time>2025-09-07T11:24:06.000Z</time>
        <extensions>
          <ns3:TrackPointExtension>
            <ns3:hr>152</ns3:hr>
            <ns3:cad>81</ns3:cad>
          </ns3:TrackPointExtension>
        </extensions>
      </trkpt>
      <trkpt lat="52.3230569064617156982421875" lon="1.6577438078820705413818359375">
        <ele>-470.79998779296875</ele>
        <time>2025-09-07T11:24:07.000Z</time>
        <extensions>
          <ns3:TrackPointExtension>
            <ns3:hr>154</ns3:hr>
            <ns3:cad>81</ns3:cad>
          </ns3:TrackPointExtension>
        </extensions>
      </trkpt>
      <trkpt lat="52.32309185899794101715087890625" lon="1.65781815536320209503173828125">
        <ele>-469.399993896484375</ele>
        <time>2025-09-07T11:24:10.000Z</time>
        <extensions>
          <ns3:TrackPointExtension>
            <ns3:hr>152</ns3:hr>
            <ns3:cad>82</ns3:cad>
          </ns3:TrackPointExtension>
        </extensions>
      </trkpt>
      <trkpt lat="52.32312404550611972808837890625" lon="1.65789577178657054901123046875">
        <ele>-468.20001220703125</ele>
        <time>2025-09-07T11:24:13.000Z</time>
        <extensions>
          <ns3:TrackPointExtension>
            <ns3:hr>152</ns3:hr>
            <ns3:cad>82</ns3:cad>
          </ns3:TrackPointExtension>
        </extensions>
      </trkpt>
      <trkpt lat="52.32314047403633594512939453125" lon="1.657945476472377777099609375">
        <ele>-467.20001220703125</ele>
        <time>2025-09-07T11:24:15.000Z</time>
        <extensions>
          <ns3:TrackPointExtension>
            <ns3:hr>153</ns3:hr>
            <ns3:cad>81</ns3:cad>
          </ns3:TrackPointExtension>
        </extensions>
      </trkpt>
      <trkpt lat="52.32315002940595149993896484375" lon="1.65797221474349498748779296875">
        <ele>-466.79998779296875</ele>
        <time>2025-09-07T11:24:16.000Z</time>
        <extensions>
          <ns3:TrackPointExtension>
            <ns3:hr>153</ns3:hr>
            <ns3:cad>81</ns3:cad>
          </ns3:TrackPointExtension>
        </extensions>
      </trkpt>
      <trkpt lat="52.32318003661930561065673828125" lon="1.658056117594242095947265625">
        <ele>-465.600006103515625</ele>
        <time>2025-09-07T11:24:19.000Z</time>
        <extensions>
          <ns3:TrackPointExtension>
            <ns3:hr>153</ns3:hr>
            <ns3:cad>81</ns3:cad>
          </ns3:TrackPointExtension>
        </extensions>
      </trkpt>
      <trkpt lat="52.3232156597077846527099609375" lon="1.65813247673213481903076171875">
        <ele>-464.600006103515625</ele>
        <time>2025-09-07T11:24:22.000Z</time>
        <extensions>
          <ns3:TrackPointExtension>
            <ns3:hr>152</ns3:hr>
            <ns3:cad>81</ns3:cad>
          </ns3:TrackPointExtension>
        </extensions>
      </trkpt>
      <trkpt lat="52.3232381232082843780517578125" lon="1.65818394161760807037353515625">
        <ele>-463.79998779296875</ele>
        <time>2025-09-07T11:24:24.000Z</time>
        <extensions>
          <ns3:TrackPointExtension>
            <ns3:hr>151</ns3:hr>
            <ns3:cad>81</ns3:cad>
          </ns3:TrackPointExtension>
        </extensions>
      </trkpt>
      <trkpt lat="52.3232481814920902252197265625" lon="1.658206991851329803466796875">
        <ele>-463.399993896484375</ele>
        <time>2025-09-07T11:24:25.000Z</time>
        <extensions>
          <ns3:TrackPointExtension>
            <ns3:hr>151</ns3:hr>
            <ns3:cad>81</ns3:cad>
          </ns3:TrackPointExtension>
        </extensions>
      </trkpt>
      <trkpt lat="52.323280870914459228515625" lon="1.6582668386399745941162109375">
        <ele>-462.20001220703125</ele>
        <time>2025-09-07T11:24:28.000Z</time>
        <extensions>
          <ns3:TrackPointExtension>
            <ns3:hr>151</ns3:hr>
            <ns3:cad>81</ns3:cad>
          </ns3:TrackPointExtension>
        </extensions>
      </trkpt>
      <trkpt lat="52.32330643571913242340087890625" lon="1.658349819481372833251953125">
        <ele>-461.20001220703125</ele>
        <time>2025-09-07T11:24:31.000Z</time>
        <extensions>
          <ns3:TrackPointExtension>
            <ns3:hr>149</ns3:hr>
            <ns3:cad>81</ns3:cad>
          </ns3:TrackPointExtension>
        </extensions>
      </trkpt>
      <trkpt lat="52.32333057560026645660400390625" lon="1.65842919610440731048583984375">
        <ele>-460.20001220703125</ele>
        <time>2025-09-07T11:24:34.000Z</time>
        <extensions>
          <ns3:TrackPointExtension>
            <ns3:hr>149</ns3:hr>
            <ns3:cad>81</ns3:cad>
          </ns3:TrackPointExtension>
        </extensions>
      </trkpt>
      <trkpt lat="52.32335639186203479766845703125" lon="1.6584965027868747711181640625">
        <ele>-459</ele>
        <time>2025-09-07T11:24:37.000Z</time>
        <extensions>
          <ns3:TrackPointExtension>
            <ns3:hr>148</ns3:hr>
            <ns3:cad>81</ns3:cad>
          </ns3:TrackPointExtension>
        </extensions>
      </trkpt>
      <trkpt lat="52.3233621753752231597900390625" lon="1.65851217694580554962158203125">
        <ele>-458.79998779296875</ele>
        <time>2025-09-07T11:24:38.000Z</time>
        <extensions>
          <ns3:TrackPointExtension>
            <ns3:hr>148</ns3:hr>
            <ns3:cad>81</ns3:cad>
          </ns3:TrackPointExtension>
        </extensions>
      </trkpt>
      <trkpt lat="52.323379106819629669189453125" lon="1.65854520164430141448974609375">
        <ele>-458</ele>
        <time>2025-09-07T11:24:40.000Z</time>
        <extensions>
          <ns3:TrackPointExtension>
            <ns3:hr>147</ns3:hr>
            <ns3:cad>81</ns3:cad>
          </ns3:TrackPointExtension>
        </extensions>
      </trkpt>
      <trkpt lat="52.32338405214250087738037109375" lon="1.65856464765965938568115234375">
        <ele>-457.79998779296875</ele>
        <time>2025-09-07T11:24:41.000Z</time>
        <extensions>
          <ns3:TrackPointExtension>
            <ns3:hr>151</ns3:hr>
            <ns3:cad>80</ns3:cad>
          </ns3:TrackPointExtension>
        </extensions>
      </trkpt>
      <trkpt lat="52.3233883269131183624267578125" lon="1.6585950739681720733642578125">
        <ele>-457</ele>
        <time>2025-09-07T11:24:43.000Z</time>
        <extensions>
          <ns3:TrackPointExtension>
            <ns3:hr>150</ns3:hr>
            <ns3:cad>0</ns3:cad>
          </ns3:TrackPointExtension>
        </extensions>
      </trkpt>
      <trkpt lat="52.323386482894420623779296875" lon="1.65861343033611774444580078125">
        <ele>-456.399993896484375</ele>
        <time>2025-09-07T11:24:45.000Z</time>
        <extensions>
          <ns3:TrackPointExtension>
            <ns3:hr>150</ns3:hr>
            <ns3:cad>0</ns3:cad>
          </ns3:TrackPointExtension>
        </extensions>
      </trkpt>
      <trkpt lat="52.323385141789913177490234375" lon="1.65861929766833782196044921875">
        <ele>-456</ele>
        <time>2025-09-07T11:24:46.000Z</time>
        <extensions>
          <ns3:TrackPointExtension>
            <ns3:hr>150</ns3:hr>
            <ns3:cad>0</ns3:cad>
          </ns3:TrackPointExtension>
        </extensions>
      </trkpt>
      <trkpt lat="52.323387823998928070068359375" lon="1.65862868539988994598388671875">
        <ele>-455</ele>
        <time>2025-09-07T11:24:49.000Z</time>
        <extensions>
          <ns3:TrackPointExtension>
            <ns3:hr>149</ns3:hr>
            <ns3:cad>0</ns3:cad>
          </ns3:TrackPointExtension>
        </extensions>
      </trkpt>
      <trkpt lat="52.32340986840426921844482421875" lon="1.658671014010906219482421875">
        <ele>-453.79998779296875</ele>
        <time>2025-09-07T11:24:53.000Z</time>
        <extensions>
          <ns3:TrackPointExtension>
            <ns3:hr>147</ns3:hr>
            <ns3:cad>51</ns3:cad>
          </ns3:TrackPointExtension>
        </extensions>
      </trkpt>
      <trkpt lat="52.32342369854450225830078125" lon="1.65868945419788360595703125">
        <ele>-453.20001220703125</ele>
        <time>2025-09-07T11:24:55.000Z</time>
        <extensions>
          <ns3:TrackPointExtension>
            <ns3:hr>145</ns3:hr>
            <ns3:cad>51</ns3:cad>
          </ns3:TrackPointExtension>
        </extensions>
      </trkpt>
      <trkpt lat="52.32343618758022785186767578125" lon="1.65872222743928432464599609375">
        <ele>-452.600006103515625</ele>
        <time>2025-09-07T11:24:57.000Z</time>
        <extensions>
          <ns3:TrackPointExtension>
            <ns3:hr>145</ns3:hr>
            <ns3:cad>48</ns3:cad>
          </ns3:TrackPointExtension>
        </extensions>
      </trkpt>
      <trkpt lat="52.32346585951745510101318359375" lon="1.65876966901123523712158203125">
        <ele>-451.399993896484375</ele>
        <time>2025-09-07T11:25:01.000Z</time>
        <extensions>
          <ns3:TrackPointExtension>
            <ns3:hr>144</ns3:hr>
            <ns3:cad>54</ns3:cad>
          </ns3:TrackPointExtension>
        </extensions>
      </trkpt>
      <trkpt lat="52.323494441807270050048828125" lon="1.65882079862058162689208984375">
        <ele>-450.79998779296875</ele>
        <time>2025-09-07T11:25:04.000Z</time>
        <extensions>
          <ns3:TrackPointExtension>
            <ns3:hr>142</ns3:hr>
            <ns3:cad>54</ns3:cad>
          </ns3:TrackPointExtension>
        </extensions>
      </trkpt>
      <trkpt lat="52.3235120438039302825927734375" lon="1.658858768641948699951171875">
        <ele>-450.20001220703125</ele>
        <time>2025-09-07T11:25:06.000Z</time>
        <extensions>
          <ns3:TrackPointExtension>
            <ns3:hr>142</ns3:hr>
            <ns3:cad>57</ns3:cad>
          </ns3:TrackPointExtension>
        </extensions>
      </trkpt>
      <trkpt lat="52.32353442348539829254150390625" lon="1.6589176096022129058837890625">
        <ele>-449.79998779296875</ele>
        <time>2025-09-07T11:25:09.000Z</time>
        <extensions>
          <ns3:TrackPointExtension>
            <ns3:hr>139</ns3:hr>
            <ns3:cad>58</ns3:cad>
          </ns3:TrackPointExtension>
        </extensions>
      </trkpt>
      <trkpt lat="52.323558814823627471923828125" lon="1.65897150523960590362548828125">
        <ele>-449.399993896484375</ele>
        <time>2025-09-07T11:25:12.000Z</time>
        <extensions>
          <ns3:TrackPointExtension>
            <ns3:hr>136</ns3:hr>
            <ns3:cad>59</ns3:cad>
          </ns3:TrackPointExtension>
        </extensions>
      </trkpt>
      <trkpt lat="52.3235676996409893035888671875" lon="1.65899011306464672088623046875">
        <ele>-449.20001220703125</ele>
        <time>2025-09-07T11:25:13.000Z</time>
        <extensions>
          <ns3:TrackPointExtension>
            <ns3:hr>135</ns3:hr>
            <ns3:cad>59</ns3:cad>
          </ns3:TrackPointExtension>
        </extensions>
      </trkpt>
      <trkpt lat="52.323575913906097412109375" lon="1.6590084694325923919677734375">
        <ele>-449.20001220703125</ele>
        <time>2025-09-07T11:25:14.000Z</time>
        <extensions>
          <ns3:TrackPointExtension>
            <ns3:hr>136</ns3:hr>
            <ns3:cad>58</ns3:cad>
          </ns3:TrackPointExtension>
        </extensions>
      </trkpt>
      <trkpt lat="52.3235978744924068450927734375" lon="1.6590627841651439666748046875">
        <ele>-448.79998779296875</ele>
        <time>2025-09-07T11:25:17.000Z</time>
        <extensions>
          <ns3:TrackPointExtension>
            <ns3:hr>133</ns3:hr>
            <ns3:cad>58</ns3:cad>
          </ns3:TrackPointExtension>
        </extensions>
      </trkpt>
      <trkpt lat="52.323613464832305908203125" lon="1.6591016761958599090576171875">
        <ele>-448.600006103515625</ele>
        <time>2025-09-07T11:25:19.000Z</time>
        <extensions>
          <ns3:TrackPointExtension>
            <ns3:hr>130</ns3:hr>
            <ns3:cad>58</ns3:cad>
          </ns3:TrackPointExtension>
        </extensions>
      </trkpt>
      <trkpt lat="52.3236324079334735870361328125" lon="1.6591429151594638824462890625">
        <ele>-448.399993896484375</ele>
        <time>2025-09-07T11:25:21.000Z</time>
        <extensions>
          <ns3:TrackPointExtension>
            <ns3:hr>127</ns3:hr>
            <ns3:cad>57</ns3:cad>
          </ns3:TrackPointExtension>
        </extensions>
      </trkpt>
      <trkpt lat="52.32366099022328853607177734375" lon="1.65919773280620574951171875">
        <ele>-448.20001220703125</ele>
        <time>2025-09-07T11:25:24.000Z</time>
        <extensions>
          <ns3:TrackPointExtension>
            <ns3:hr>126</ns3:hr>
            <ns3:cad>60</ns3:cad>
          </ns3:TrackPointExtension>
        </extensions>
      </trkpt>
      <trkpt lat="52.3236706294119358062744140625" lon="1.65921240113675594329833984375">
        <ele>-448.20001220703125</ele>
        <time>2025-09-07T11:25:25.000Z</time>
        <extensions>
          <ns3:TrackPointExtension>
            <ns3:hr>125</ns3:hr>
            <ns3:cad>60</ns3:cad>
          </ns3:TrackPointExtension>
        </extensions>
      </trkpt>
      <trkpt lat="52.32368655502796173095703125" lon="1.6592357866466045379638671875">
        <ele>-448.20001220703125</ele>
        <time>2025-09-07T11:25:27.000Z</time>
        <extensions>
          <ns3:TrackPointExtension>
            <ns3:hr>126</ns3:hr>
            <ns3:cad>60</ns3:cad>
          </ns3:TrackPointExtension>
        </extensions>
      </trkpt>
      <trkpt lat="52.32370524667203426361083984375" lon="1.65926185436546802520751953125">
        <ele>-448</ele>
        <time>2025-09-07T11:25:29.000Z</time>
        <extensions>
          <ns3:TrackPointExtension>
            <ns3:hr>126</ns3:hr>
            <ns3:cad>60</ns3:cad>
          </ns3:TrackPointExtension>
        </extensions>
      </trkpt>
      <trkpt lat="52.32373173348605632781982421875" lon="1.65931667201220989227294921875">
        <ele>-447.79998779296875</ele>
        <time>2025-09-07T11:25:32.000Z</time>
        <extensions>
          <ns3:TrackPointExtension>
            <ns3:hr>126</ns3:hr>
            <ns3:cad>60</ns3:cad>
          </ns3:TrackPointExtension>
        </extensions>
      </trkpt>
      <trkpt lat="52.32378755696117877960205078125" lon="1.65945061482489109039306640625">
        <ele>-447.600006103515625</ele>
        <time>2025-09-07T11:25:40.000Z</time>
        <extensions>
          <ns3:TrackPointExtension>
            <ns3:hr>125</ns3:hr>
            <ns3:cad>60</ns3:cad>
          </ns3:TrackPointExtension>
        </extensions>
      </trkpt>
      <trkpt lat="52.32382192276418209075927734375" lon="1.65950777940452098846435546875">
        <ele>-447.399993896484375</ele>
        <time>2025-09-07T11:25:45.000Z</time>
        <extensions>
          <ns3:TrackPointExtension>
            <ns3:hr>126</ns3:hr>
            <ns3:cad>60</ns3:cad>
          </ns3:TrackPointExtension>
        </extensions>
      </trkpt>
      <trkpt lat="52.3238174803555011749267578125" lon="1.6595140658318996429443359375">
        <ele>-447.399993896484375</ele>
        <time>2025-09-07T11:25:46.000Z</time>
        <extensions>
          <ns3:TrackPointExtension>
            <ns3:hr>125</ns3:hr>
            <ns3:cad>60</ns3:cad>
          </ns3:TrackPointExtension>
        </extensions>
      </trkpt>
      <trkpt lat="52.32379652559757232666015625" lon="1.65952655486762523651123046875">
        <ele>-447.399993896484375</ele>
        <time>2025-09-07T11:25:48.000Z</time>
        <extensions>
          <ns3:TrackPointExtension>
            <ns3:hr>122</ns3:hr>
            <ns3:cad>59</ns3:cad>
          </ns3:TrackPointExtension>
        </extensions>
      </trkpt>
      <trkpt lat="52.3237360082566738128662109375" lon="1.65958908386528491973876953125">
        <ele>-447.399993896484375</ele>
        <time>2025-09-07T11:25:53.000Z</time>
        <extensions>
          <ns3:TrackPointExtension>
            <ns3:hr>121</ns3:hr>
            <ns3:cad>75</ns3:cad>
          </ns3:TrackPointExtension>
        </extensions>
      </trkpt>
      <trkpt lat="52.32366752810776233673095703125" lon="1.65964758954942226409912109375">
        <ele>-447.20001220703125</ele>
        <time>2025-09-07T11:25:57.000Z</time>
        <extensions>
          <ns3:TrackPointExtension>
            <ns3:hr>121</ns3:hr>
            <ns3:cad>78</ns3:cad>
          </ns3:TrackPointExtension>
        </extensions>
      </trkpt>
      <trkpt lat="52.32363383285701274871826171875" lon="1.65968782268464565277099609375">
        <ele>-447</ele>
        <time>2025-09-07T11:25:59.000Z</time>
        <extensions>
          <ns3:TrackPointExtension>
            <ns3:hr>125</ns3:hr>
            <ns3:cad>79</ns3:cad>
          </ns3:TrackPointExtension>
        </extensions>
      </trkpt>
      <trkpt lat="52.32361706905066967010498046875" lon="1.65970928035676479339599609375">
        <ele>-447</ele>
        <time>2025-09-07T11:26:00.000Z</time>
        <extensions>
          <ns3:TrackPointExtension>
            <ns3:hr>125</ns3:hr>
            <ns3:cad>80</ns3:cad>
          </ns3:TrackPointExtension>
        </extensions>
      </trkpt>
      <trkpt lat="52.32357918284833431243896484375" lon="1.6597464121878147125244140625">
        <ele>-446.79998779296875</ele>
        <time>2025-09-07T11:26:02.000Z</time>
        <extensions>
          <ns3:TrackPointExtension>
            <ns3:hr>128</ns3:hr>
            <ns3:cad>80</ns3:cad>
          </ns3:TrackPointExtension>
        </extensions>
      </trkpt>
      <trkpt lat="52.3235385306179523468017578125" lon="1.65977650322020053863525390625">
        <ele>-446.79998779296875</ele>
        <time>2025-09-07T11:26:04.000Z</time>
        <extensions>
          <ns3:TrackPointExtension>
            <ns3:hr>132</ns3:hr>
            <ns3:cad>80</ns3:cad>
          </ns3:TrackPointExtension>
        </extensions>
      </trkpt>
      <trkpt lat="52.323487065732479095458984375" lon="1.6598195023834705352783203125">
        <ele>-446.399993896484375</ele>
        <time>2025-09-07T11:26:07.000Z</time>
        <extensions>
          <ns3:TrackPointExtension>
            <ns3:hr>135</ns3:hr>
            <ns3:cad>81</ns3:cad>
          </ns3:TrackPointExtension>
        </extensions>
      </trkpt>
      <trkpt lat="52.32345127500593662261962890625" lon="1.65984976105391979217529296875">
        <ele>-446.20001220703125</ele>
        <time>2025-09-07T11:26:09.000Z</time>
        <extensions>
          <ns3:TrackPointExtension>
            <ns3:hr>136</ns3:hr>
            <ns3:cad>80</ns3:cad>
          </ns3:TrackPointExtension>
        </extensions>
      </trkpt>
      <trkpt lat="52.32334323227405548095703125" lon="1.6599103622138500213623046875">
        <ele>-445</ele>
        <time>2025-09-07T11:26:15.000Z</time>
        <extensions>
          <ns3:TrackPointExtension>
            <ns3:hr>137</ns3:hr>
            <ns3:cad>80</ns3:cad>
          </ns3:TrackPointExtension>
        </extensions>
      </trkpt>
      <trkpt lat="52.32332454062998294830322265625" lon="1.65992251597344875335693359375">
        <ele>-444.600006103515625</ele>
        <time>2025-09-07T11:26:16.000Z</time>
        <extensions>
          <ns3:TrackPointExtension>
            <ns3:hr>137</ns3:hr>
            <ns3:cad>80</ns3:cad>
          </ns3:TrackPointExtension>
        </extensions>
      </trkpt>
      <trkpt lat="52.3232696391642093658447265625" lon="1.659952104091644287109375">
        <ele>-443.79998779296875</ele>
        <time>2025-09-07T11:26:19.000Z</time>
        <extensions>
          <ns3:TrackPointExtension>
            <ns3:hr>141</ns3:hr>
            <ns3:cad>79</ns3:cad>
          </ns3:TrackPointExtension>
        </extensions>
      </trkpt>
      <trkpt lat="52.32319260947406291961669921875" lon="1.659977249801158905029296875">
        <ele>-442.79998779296875</ele>
        <time>2025-09-07T11:26:23.000Z</time>
        <extensions>
          <ns3:TrackPointExtension>
            <ns3:hr>140</ns3:hr>
            <ns3:cad>79</ns3:cad>
          </ns3:TrackPointExtension>
        </extensions>
      </trkpt>
      <trkpt lat="52.32317349873483180999755859375" lon="1.65998303331434726715087890625">
        <ele>-442.399993896484375</ele>
        <time>2025-09-07T11:26:24.000Z</time>
        <extensions>
          <ns3:TrackPointExtension>
            <ns3:hr>143</ns3:hr>
            <ns3:cad>79</ns3:cad>
          </ns3:TrackPointExtension>
        </extensions>
      </trkpt>
      <trkpt lat="52.32311717234551906585693359375" lon="1.6599985398352146148681640625">
        <ele>-441.600006103515625</ele>
        <time>2025-09-07T11:26:27.000Z</time>
        <extensions>
          <ns3:TrackPointExtension>
            <ns3:hr>145</ns3:hr>
            <ns3:cad>79</ns3:cad>
          </ns3:TrackPointExtension>
        </extensions>
      </trkpt>
      <trkpt lat="52.32307844795286655426025390625" lon="1.66000935249030590057373046875">
        <ele>-441</ele>
        <time>2025-09-07T11:26:29.000Z</time>
        <extensions>
          <ns3:TrackPointExtension>
            <ns3:hr>148</ns3:hr>
            <ns3:cad>79</ns3:cad>
          </ns3:TrackPointExtension>
        </extensions>
      </trkpt>
      <trkpt lat="52.323042489588260650634765625" lon="1.66001890785992145538330078125">
        <ele>-440.399993896484375</ele>
        <time>2025-09-07T11:26:31.000Z</time>
        <extensions>
          <ns3:TrackPointExtension>
            <ns3:hr>150</ns3:hr>
            <ns3:cad>79</ns3:cad>
          </ns3:TrackPointExtension>
        </extensions>
      </trkpt>
      <trkpt lat="52.323025055229663848876953125" lon="1.66002360172569751739501953125">
        <ele>-440.20001220703125</ele>
        <time>2025-09-07T11:26:32.000Z</time>
        <extensions>
          <ns3:TrackPointExtension>
            <ns3:hr>150</ns3:hr>
            <ns3:cad>79</ns3:cad>
          </ns3:TrackPointExtension>
        </extensions>
      </trkpt>
      <trkpt lat="52.32297652401030063629150390625" lon="1.660042293369770050048828125">
        <ele>-439.20001220703125</ele>
        <time>2025-09-07T11:26:35.000Z</time>
        <extensions>
          <ns3:TrackPointExtension>
            <ns3:hr>150</ns3:hr>
            <ns3:cad>80</ns3:cad>
          </ns3:TrackPointExtension>
        </extensions>
      </trkpt>
      <trkpt lat="52.32292606495320796966552734375" lon="1.660063751041889190673828125">
        <ele>-438.20001220703125</ele>
        <time>2025-09-07T11:26:38.000Z</time>
        <extensions>
          <ns3:TrackPointExtension>
            <ns3:hr>150</ns3:hr>
            <ns3:cad>80</ns3:cad>
          </ns3:TrackPointExtension>
        </extensions>
      </trkpt>
      <trkpt lat="52.3228932917118072509765625" lon="1.66008495725691318511962890625">
        <ele>-437.600006103515625</ele>
        <time>2025-09-07T11:26:40.000Z</time>
        <extensions>
          <ns3:TrackPointExtension>
            <ns3:hr>150</ns3:hr>
            <ns3:cad>80</ns3:cad>
          </ns3:TrackPointExtension>
        </extensions>
      </trkpt>
      <trkpt lat="52.322872839868068695068359375" lon="1.660092584788799285888671875">
        <ele>-437.20001220703125</ele>
        <time>2025-09-07T11:26:41.000Z</time>
        <extensions>
          <ns3:TrackPointExtension>
            <ns3:hr>150</ns3:hr>
            <ns3:cad>80</ns3:cad>
          </ns3:TrackPointExtension>
        </extensions>
      </trkpt>
      <trkpt lat="52.3228128254413604736328125" lon="1.6601116955280303955078125">
        <ele>-436.20001220703125</ele>
        <time>2025-09-07T11:26:44.000Z</time>
        <extensions>
          <ns3:TrackPointExtension>
            <ns3:hr>150</ns3:hr>
            <ns3:cad>80</ns3:cad>
          </ns3:TrackPointExtension>
        </extensions>
      </trkpt>
      <trkpt lat="52.32277703471481800079345703125" lon="1.66012971661984920501708984375">
        <ele>-435.399993896484375</ele>
        <time>2025-09-07T11:26:46.000Z</time>
        <extensions>
          <ns3:TrackPointExtension>
            <ns3:hr>150</ns3:hr>
            <ns3:cad>80</ns3:cad>
          </ns3:TrackPointExtension>
        </extensions>
      </trkpt>
      <trkpt lat="52.32275943271815776824951171875" lon="1.660140864551067352294921875">
        <ele>-435</ele>
        <time>2025-09-07T11:26:47.000Z</time>
        <extensions>
          <ns3:TrackPointExtension>
            <ns3:hr>150</ns3:hr>
            <ns3:cad>80</ns3:cad>
          </ns3:TrackPointExtension>
        </extensions>
      </trkpt>
      <trkpt lat="52.3227120749652385711669921875" lon="1.66016777046024799346923828125">
        <ele>-433.79998779296875</ele>
        <time>2025-09-07T11:26:50.000Z</time>
        <extensions>
          <ns3:TrackPointExtension>
            <ns3:hr>150</ns3:hr>
            <ns3:cad>81</ns3:cad>
          </ns3:TrackPointExtension>
        </extensions>
      </trkpt>
      <trkpt lat="52.3226570896804332733154296875" lon="1.66020465083420276641845703125">
        <ele>-432.399993896484375</ele>
        <time>2025-09-07T11:26:53.000Z</time>
        <extensions>
          <ns3:TrackPointExtension>
            <ns3:hr>150</ns3:hr>
            <ns3:cad>80</ns3:cad>
          </ns3:TrackPointExtension>
        </extensions>
      </trkpt>
      <trkpt lat="52.32262440025806427001953125" lon="1.66022392921149730682373046875">
        <ele>-431.399993896484375</ele>
        <time>2025-09-07T11:26:55.000Z</time>
        <extensions>
          <ns3:TrackPointExtension>
            <ns3:hr>150</ns3:hr>
            <ns3:cad>80</ns3:cad>
          </ns3:TrackPointExtension>
        </extensions>
      </trkpt>
      <trkpt lat="52.322605960071086883544921875" lon="1.66023650206625461578369140625">
        <ele>-430.79998779296875</ele>
        <time>2025-09-07T11:26:56.000Z</time>
        <extensions>
          <ns3:TrackPointExtension>
            <ns3:hr>150</ns3:hr>
            <ns3:cad>80</ns3:cad>
          </ns3:TrackPointExtension>
        </extensions>
      </trkpt>
      <trkpt lat="52.32255239970982074737548828125" lon="1.66027606464922428131103515625">
        <ele>-429.399993896484375</ele>
        <time>2025-09-07T11:26:59.000Z</time>
        <extensions>
          <ns3:TrackPointExtension>
            <ns3:hr>150</ns3:hr>
            <ns3:cad>81</ns3:cad>
          </ns3:TrackPointExtension>
        </extensions>
      </trkpt>
      <trkpt lat="52.32249741442501544952392578125" lon="1.66031110100448131561279296875">
        <ele>-428</ele>
        <time>2025-09-07T11:27:02.000Z</time>
        <extensions>
          <ns3:TrackPointExtension>
            <ns3:hr>150</ns3:hr>
            <ns3:cad>80</ns3:cad>
          </ns3:TrackPointExtension>
        </extensions>
      </trkpt>
      <trkpt lat="52.32246237806975841522216796875" lon="1.66033037938177585601806640625">
        <ele>-427.20001220703125</ele>
        <time>2025-09-07T11:27:04.000Z</time>
        <extensions>
          <ns3:TrackPointExtension>
            <ns3:hr>151</ns3:hr>
            <ns3:cad>80</ns3:cad>
          </ns3:TrackPointExtension>
        </extensions>
      </trkpt>
      <trkpt lat="52.32244611717760562896728515625" lon="1.66033926419913768768310546875">
        <ele>-426.600006103515625</ele>
        <time>2025-09-07T11:27:05.000Z</time>
        <extensions>
          <ns3:TrackPointExtension>
            <ns3:hr>151</ns3:hr>
            <ns3:cad>80</ns3:cad>
          </ns3:TrackPointExtension>
        </extensions>
      </trkpt>
      <trkpt lat="52.32238895259797573089599609375" lon="1.66036038659512996673583984375">
        <ele>-425.399993896484375</ele>
        <time>2025-09-07T11:27:08.000Z</time>
        <extensions>
          <ns3:TrackPointExtension>
            <ns3:hr>152</ns3:hr>
            <ns3:cad>80</ns3:cad>
          </ns3:TrackPointExtension>
        </extensions>
      </trkpt>
      <trkpt lat="52.32233044691383838653564453125" lon="1.66038419120013713836669921875">
        <ele>-424.20001220703125</ele>
        <time>2025-09-07T11:27:11.000Z</time>
        <extensions>
          <ns3:TrackPointExtension>
            <ns3:hr>152</ns3:hr>
            <ns3:cad>81</ns3:cad>
          </ns3:TrackPointExtension>
        </extensions>
      </trkpt>
      <trkpt lat="52.32229490764439105987548828125" lon="1.66039994917809963226318359375">
        <ele>-423.399993896484375</ele>
        <time>2025-09-07T11:27:13.000Z</time>
        <extensions>
          <ns3:TrackPointExtension>
            <ns3:hr>152</ns3:hr>
            <ns3:cad>81</ns3:cad>
          </ns3:TrackPointExtension>
        </extensions>
      </trkpt>
      <trkpt lat="52.32227931730449199676513671875" lon="1.66040983982384204864501953125">
        <ele>-423</ele>
        <time>2025-09-07T11:27:14.000Z</time>
        <extensions>
          <ns3:TrackPointExtension>
            <ns3:hr>152</ns3:hr>
            <ns3:cad>81</ns3:cad>
          </ns3:TrackPointExtension>
        </extensions>
      </trkpt>
      <trkpt lat="52.32223011553287506103515625" lon="1.66045376099646091461181640625">
        <ele>-421.79998779296875</ele>
        <time>2025-09-07T11:27:17.000Z</time>
        <extensions>
          <ns3:TrackPointExtension>
            <ns3:hr>153</ns3:hr>
            <ns3:cad>81</ns3:cad>
          </ns3:TrackPointExtension>
        </extensions>
      </trkpt>
      <trkpt lat="52.32220287434756755828857421875" lon="1.66048762388527393341064453125">
        <ele>-421</ele>
        <time>2025-09-07T11:27:19.000Z</time>
        <extensions>
          <ns3:TrackPointExtension>
            <ns3:hr>154</ns3:hr>
            <ns3:cad>81</ns3:cad>
          </ns3:TrackPointExtension>
        </extensions>
      </trkpt>
      <trkpt lat="52.32219046913087368011474609375" lon="1.6605105064809322357177734375">
        <ele>-420.600006103515625</ele>
        <time>2025-09-07T11:27:20.000Z</time>
        <extensions>
          <ns3:TrackPointExtension>
            <ns3:hr>154</ns3:hr>
            <ns3:cad>81</ns3:cad>
          </ns3:TrackPointExtension>
        </extensions>
      </trkpt>
      <trkpt lat="52.32214638032019138336181640625" lon="1.6605705209076404571533203125">
        <ele>-419.600006103515625</ele>
        <time>2025-09-07T11:27:23.000Z</time>
        <extensions>
          <ns3:TrackPointExtension>
            <ns3:hr>154</ns3:hr>
            <ns3:cad>81</ns3:cad>
          </ns3:TrackPointExtension>
        </extensions>
      </trkpt>
      <trkpt lat="52.322077564895153045654296875" lon="1.66060455143451690673828125">
        <ele>-418.399993896484375</ele>
        <time>2025-09-07T11:27:26.000Z</time>
        <extensions>
          <ns3:TrackPointExtension>
            <ns3:hr>154</ns3:hr>
            <ns3:cad>81</ns3:cad>
          </ns3:TrackPointExtension>
        </extensions>
      </trkpt>
      <trkpt lat="52.32200891710817813873291015625" lon="1.660643778741359710693359375">
        <ele>-417.399993896484375</ele>
        <time>2025-09-07T11:27:29.000Z</time>
        <extensions>
          <ns3:TrackPointExtension>
            <ns3:hr>155</ns3:hr>
            <ns3:cad>81</ns3:cad>
          </ns3:TrackPointExtension>
        </extensions>
      </trkpt>
      <trkpt lat="52.32195384800434112548828125" lon="1.6606868617236614227294921875">
        <ele>-416.399993896484375</ele>
        <time>2025-09-07T11:27:32.000Z</time>
        <extensions>
          <ns3:TrackPointExtension>
            <ns3:hr>156</ns3:hr>
            <ns3:cad>81</ns3:cad>
          </ns3:TrackPointExtension>
        </extensions>
      </trkpt>
      <trkpt lat="52.32193775475025177001953125" lon="1.660704128444194793701171875">
        <ele>-416</ele>
        <time>2025-09-07T11:27:33.000Z</time>
        <extensions>
          <ns3:TrackPointExtension>
            <ns3:hr>156</ns3:hr>
            <ns3:cad>81</ns3:cad>
          </ns3:TrackPointExtension>
        </extensions>
      </trkpt>
      <trkpt lat="52.32188251800835132598876953125" lon="1.66078652255237102508544921875">
        <ele>-414.79998779296875</ele>
        <time>2025-09-07T11:27:37.000Z</time>
        <extensions>
          <ns3:TrackPointExtension>
            <ns3:hr>156</ns3:hr>
            <ns3:cad>81</ns3:cad>
          </ns3:TrackPointExtension>
        </extensions>
      </trkpt>
      <trkpt lat="52.32185251079499721527099609375" lon="1.6608172841370105743408203125">
        <ele>-414.399993896484375</ele>
        <time>2025-09-07T11:27:39.000Z</time>
        <extensions>
          <ns3:TrackPointExtension>
            <ns3:hr>155</ns3:hr>
            <ns3:cad>81</ns3:cad>
          </ns3:TrackPointExtension>
        </extensions>
      </trkpt>
      <trkpt lat="52.3218162171542644500732421875" lon="1.660836227238178253173828125">
        <ele>-413.79998779296875</ele>
        <time>2025-09-07T11:27:41.000Z</time>
        <extensions>
          <ns3:TrackPointExtension>
            <ns3:hr>154</ns3:hr>
            <ns3:cad>81</ns3:cad>
          </ns3:TrackPointExtension>
        </extensions>
      </trkpt>
      <trkpt lat="52.32172946445643901824951171875" lon="1.66090051643550395965576171875">
        <ele>-412.600006103515625</ele>
        <time>2025-09-07T11:27:46.000Z</time>
        <extensions>
          <ns3:TrackPointExtension>
            <ns3:hr>152</ns3:hr>
            <ns3:cad>80</ns3:cad>
          </ns3:TrackPointExtension>
        </extensions>
      </trkpt>
      <trkpt lat="52.32169325463473796844482421875" lon="1.6609242372214794158935546875">
        <ele>-412.20001220703125</ele>
        <time>2025-09-07T11:27:48.000Z</time>
        <extensions>
          <ns3:TrackPointExtension>
            <ns3:hr>155</ns3:hr>
            <ns3:cad>79</ns3:cad>
          </ns3:TrackPointExtension>
        </extensions>
      </trkpt>
      <trkpt lat="52.3216294683516025543212890625" lon="1.66096371598541736602783203125">
        <ele>-411.399993896484375</ele>
        <time>2025-09-07T11:27:51.000Z</time>
        <extensions>
          <ns3:TrackPointExtension>
            <ns3:hr>156</ns3:hr>
            <ns3:cad>79</ns3:cad>
          </ns3:TrackPointExtension>
        </extensions>
      </trkpt>
      <trkpt lat="52.32160876505076885223388671875" lon="1.6609775461256504058837890625">
        <ele>-411.20001220703125</ele>
        <time>2025-09-07T11:27:52.000Z</time>
        <extensions>
          <ns3:TrackPointExtension>
            <ns3:hr>155</ns3:hr>
            <ns3:cad>79</ns3:cad>
          </ns3:TrackPointExtension>
        </extensions>
      </trkpt>
      <trkpt lat="52.321567274630069732666015625" lon="1.66102976538240909576416015625">
        <ele>-410.399993896484375</ele>
        <time>2025-09-07T11:27:56.000Z</time>
        <extensions>
          <ns3:TrackPointExtension>
            <ns3:hr>155</ns3:hr>
            <ns3:cad>79</ns3:cad>
          </ns3:TrackPointExtension>
        </extensions>
      </trkpt>
      <trkpt lat="52.3215650953352451324462890625" lon="1.66103479452431201934814453125">
        <ele>-410.20001220703125</ele>
        <time>2025-09-07T11:27:57.000Z</time>
        <extensions>
          <ns3:TrackPointExtension>
            <ns3:hr>155</ns3:hr>
            <ns3:cad>79</ns3:cad>
          </ns3:TrackPointExtension>
        </extensions>
      </trkpt>
      <trkpt lat="52.3215439729392528533935546875" lon="1.66105038486421108245849609375">
        <ele>-409.20001220703125</ele>
        <time>2025-09-07T11:28:02.000Z</time>
        <extensions>
          <ns3:TrackPointExtension>
            <ns3:hr>155</ns3:hr>
            <ns3:cad>0</ns3:cad>
          </ns3:TrackPointExtension>
        </extensions>
      </trkpt>
      <trkpt lat="52.321532405912876129150390625" lon="1.66106765158474445343017578125">
        <ele>-408.79998779296875</ele>
        <time>2025-09-07T11:28:04.000Z</time>
        <extensions>
          <ns3:TrackPointExtension>
            <ns3:hr>155</ns3:hr>
            <ns3:cad>0</ns3:cad>
          </ns3:TrackPointExtension>
        </extensions>
      </trkpt>
      <trkpt lat="52.32151740230619907379150390625" lon="1.6611094772815704345703125">
        <ele>-408.20001220703125</ele>
        <time>2025-09-07T11:28:07.000Z</time>
        <extensions>
          <ns3:TrackPointExtension>
            <ns3:hr>153</ns3:hr>
            <ns3:cad>0</ns3:cad>
          </ns3:TrackPointExtension>
        </extensions>
      </trkpt>
      <trkpt lat="52.321482114493846893310546875" lon="1.66121131740510463714599609375">
        <ele>-407.399993896484375</ele>
        <time>2025-09-07T11:28:12.000Z</time>
        <extensions>
          <ns3:TrackPointExtension>
            <ns3:hr>151</ns3:hr>
            <ns3:cad>0</ns3:cad>
          </ns3:TrackPointExtension>
        </extensions>
      </trkpt>
      <trkpt lat="52.32147633098065853118896484375" lon="1.66123160161077976226806640625">
        <ele>-407.20001220703125</ele>
        <time>2025-09-07T11:28:13.000Z</time>
        <extensions>
          <ns3:TrackPointExtension>
            <ns3:hr>150</ns3:hr>
            <ns3:cad>0</ns3:cad>
          </ns3:TrackPointExtension>
        </extensions>
      </trkpt>
      <trkpt lat="52.3214497603476047515869140625" lon="1.6613294184207916259765625">
        <ele>-406.600006103515625</ele>
        <time>2025-09-07T11:28:18.000Z</time>
        <extensions>
          <ns3:TrackPointExtension>
            <ns3:hr>149</ns3:hr>
            <ns3:cad>0</ns3:cad>
          </ns3:TrackPointExtension>
        </extensions>
      </trkpt>
      <trkpt lat="52.3214135505259037017822265625" lon="1.66142740286886692047119140625">
        <ele>-406.600006103515625</ele>
        <time>2025-09-07T11:28:25.000Z</time>
        <extensions>
          <ns3:TrackPointExtension>
            <ns3:hr>149</ns3:hr>
            <ns3:cad>0</ns3:cad>
          </ns3:TrackPointExtension>
        </extensions>
      </trkpt>
      <trkpt lat="52.3213885724544525146484375" lon="1.66148305870592594146728515625">
        <ele>-406.79998779296875</ele>
        <time>2025-09-07T11:28:30.000Z</time>
        <extensions>
          <ns3:TrackPointExtension>
            <ns3:hr>145</ns3:hr>
            <ns3:cad>0</ns3:cad>
          </ns3:TrackPointExtension>
        </extensions>
      </trkpt>
      <trkpt lat="52.32136644423007965087890625" lon="1.6615351103246212005615234375">
        <ele>-407</ele>
        <time>2025-09-07T11:28:34.000Z</time>
        <extensions>
          <ns3:TrackPointExtension>
            <ns3:hr>141</ns3:hr>
            <ns3:cad>55</ns3:cad>
          </ns3:TrackPointExtension>
        </extensions>
      </trkpt>
      <trkpt lat="52.3213511891663074493408203125" lon="1.66156637482345104217529296875">
        <ele>-407</ele>
        <time>2025-09-07T11:28:36.000Z</time>
        <extensions>
          <ns3:TrackPointExtension>
            <ns3:hr>136</ns3:hr>
            <ns3:cad>0</ns3:cad>
          </ns3:TrackPointExtension>
        </extensions>
      </trkpt>
      <trkpt lat="52.3213428072631359100341796875" lon="1.6615803726017475128173828125">
        <ele>-407.20001220703125</ele>
        <time>2025-09-07T11:28:37.000Z</time>
        <extensions>
          <ns3:TrackPointExtension>
            <ns3:hr>133</ns3:hr>
            <ns3:cad>54</ns3:cad>
          </ns3:TrackPointExtension>
        </extensions>
      </trkpt>
      <trkpt lat="52.321324534714221954345703125" lon="1.66160174645483493804931640625">
        <ele>-407.399993896484375</ele>
        <time>2025-09-07T11:28:39.000Z</time>
        <extensions>
          <ns3:TrackPointExtension>
            <ns3:hr>130</ns3:hr>
            <ns3:cad>55</ns3:cad>
          </ns3:TrackPointExtension>
        </extensions>
      </trkpt>
      <trkpt lat="52.32128539122641086578369140625" lon="1.6616625152528285980224609375">
        <ele>-407.600006103515625</ele>
        <time>2025-09-07T11:28:43.000Z</time>
        <extensions>
          <ns3:TrackPointExtension>
            <ns3:hr>127</ns3:hr>
            <ns3:cad>57</ns3:cad>
          </ns3:TrackPointExtension>
        </extensions>
      </trkpt>
      <trkpt lat="52.32124214060604572296142578125" lon="1.66172211058437824249267578125">
        <ele>-408</ele>
        <time>2025-09-07T11:28:48.000Z</time>
        <extensions>
          <ns3:TrackPointExtension>
            <ns3:hr>126</ns3:hr>
            <ns3:cad>0</ns3:cad>
          </ns3:TrackPointExtension>
        </extensions>
      </trkpt>
      <trkpt lat="52.32120391912758350372314453125" lon="1.66175178252160549163818359375">
        <ele>-405.79998779296875</ele>
        <time>2025-09-07T11:28:52.000Z</time>
        <extensions>
          <ns3:TrackPointExtension>
            <ns3:hr>129</ns3:hr>
            <ns3:cad>0</ns3:cad>
          </ns3:TrackPointExtension>
        </extensions>
      </trkpt>
      <trkpt lat="52.32118941843509674072265625" lon="1.6617744974792003631591796875">
        <ele>-404.20001220703125</ele>
        <time>2025-09-07T11:28:54.000Z</time>
        <extensions>
          <ns3:TrackPointExtension>
            <ns3:hr>129</ns3:hr>
            <ns3:cad>60</ns3:cad>
          </ns3:TrackPointExtension>
        </extensions>
      </trkpt>
      <trkpt lat="52.32117055915296077728271484375" lon="1.661797799170017242431640625">
        <ele>-402.600006103515625</ele>
        <time>2025-09-07T11:28:56.000Z</time>
        <extensions>
          <ns3:TrackPointExtension>
            <ns3:hr>131</ns3:hr>
            <ns3:cad>59</ns3:cad>
          </ns3:TrackPointExtension>
        </extensions>
      </trkpt>
      <trkpt lat="52.3211498558521270751953125" lon="1.6618217714130878448486328125">
        <ele>-401.20001220703125</ele>
        <time>2025-09-07T11:28:58.000Z</time>
        <extensions>
          <ns3:TrackPointExtension>
            <ns3:hr>129</ns3:hr>
            <ns3:cad>59</ns3:cad>
          </ns3:TrackPointExtension>
        </extensions>
      </trkpt>
      <trkpt lat="52.3211391270160675048828125" lon="1.661835014820098876953125">
        <ele>-400.399993896484375</ele>
        <time>2025-09-07T11:28:59.000Z</time>
        <extensions>
          <ns3:TrackPointExtension>
            <ns3:hr>127</ns3:hr>
            <ns3:cad>0</ns3:cad>
          </ns3:TrackPointExtension>
        </extensions>
      </trkpt>
      <trkpt lat="52.3211285658180713653564453125" lon="1.661846749484539031982421875">
        <ele>-399.600006103515625</ele>
        <time>2025-09-07T11:29:00.000Z</time>
        <extensions>
          <ns3:TrackPointExtension>
            <ns3:hr>128</ns3:hr>
            <ns3:cad>0</ns3:cad>
          </ns3:TrackPointExtension>
        </extensions>
      </trkpt>
      <trkpt lat="52.321117334067821502685546875" lon="1.66186175309121608734130859375">
        <ele>-399</ele>
        <time>2025-09-07T11:29:01.000Z</time>
        <extensions>
          <ns3:TrackPointExtension>
            <ns3:hr>125</ns3:hr>
            <ns3:cad>0</ns3:cad>
          </ns3:TrackPointExtension>
        </extensions>
      </trkpt>
      <trkpt lat="52.3211069405078887939453125" lon="1.66187516413629055023193359375">
        <ele>-398.20001220703125</ele>
        <time>2025-09-07T11:29:02.000Z</time>
        <extensions>
          <ns3:TrackPointExtension>
            <ns3:hr>125</ns3:hr>
            <ns3:cad>0</ns3:cad>
          </ns3:TrackPointExtension>
        </extensions>
      </trkpt>
      <trkpt lat="52.32108841650187969207763671875" lon="1.66190542280673980712890625">
        <ele>-396.79998779296875</ele>
        <time>2025-09-07T11:29:04.000Z</time>
        <extensions>
          <ns3:TrackPointExtension>
            <ns3:hr>125</ns3:hr>
            <ns3:cad>60</ns3:cad>
          </ns3:TrackPointExtension>
        </extensions>
      </trkpt>
      <trkpt lat="52.32108120806515216827392578125" lon="1.66191673837602138519287109375">
        <ele>-396</ele>
        <time>2025-09-07T11:29:05.000Z</time>
        <extensions>
          <ns3:TrackPointExtension>
            <ns3:hr>128</ns3:hr>
            <ns3:cad>60</ns3:cad>
          </ns3:TrackPointExtension>
        </extensions>
      </trkpt>
      <trkpt lat="52.3210747539997100830078125" lon="1.66192344389855861663818359375">
        <ele>-395.20001220703125</ele>
        <time>2025-09-07T11:29:06.000Z</time>
        <extensions>
          <ns3:TrackPointExtension>
            <ns3:hr>126</ns3:hr>
            <ns3:cad>60</ns3:cad>
          </ns3:TrackPointExtension>
        </extensions>
      </trkpt>
      <trkpt lat="52.32106444425880908966064453125" lon="1.66194406338036060333251953125">
        <ele>-393.79998779296875</ele>
        <time>2025-09-07T11:29:08.000Z</time>
        <extensions>
          <ns3:TrackPointExtension>
            <ns3:hr>128</ns3:hr>
            <ns3:cad>0</ns3:cad>
          </ns3:TrackPointExtension>
        </extensions>
      </trkpt>
      <trkpt lat="52.321054302155971527099609375" lon="1.66196602396667003631591796875">
        <ele>-392.399993896484375</ele>
        <time>2025-09-07T11:29:10.000Z</time>
        <extensions>
          <ns3:TrackPointExtension>
            <ns3:hr>130</ns3:hr>
            <ns3:cad>0</ns3:cad>
          </ns3:TrackPointExtension>
        </extensions>
      </trkpt>
      <trkpt lat="52.32104801572859287261962890625" lon="1.661975495517253875732421875">
        <ele>-391.79998779296875</ele>
        <time>2025-09-07T11:29:11.000Z</time>
        <extensions>
          <ns3:TrackPointExtension>
            <ns3:hr>127</ns3:hr>
            <ns3:cad>57</ns3:cad>
          </ns3:TrackPointExtension>
        </extensions>
      </trkpt>
      <trkpt lat="52.32104348950088024139404296875" lon="1.661982201039791107177734375">
        <ele>-391</ele>
        <time>2025-09-07T11:29:12.000Z</time>
        <extensions>
          <ns3:TrackPointExtension>
            <ns3:hr>127</ns3:hr>
            <ns3:cad>57</ns3:cad>
          </ns3:TrackPointExtension>
        </extensions>
      </trkpt>
      <trkpt lat="52.3210380412638187408447265625" lon="1.66198932565748691558837890625">
        <ele>-389.600006103515625</ele>
        <time>2025-09-07T11:29:14.000Z</time>
        <extensions>
          <ns3:TrackPointExtension>
            <ns3:hr>127</ns3:hr>
            <ns3:cad>0</ns3:cad>
          </ns3:TrackPointExtension>
        </extensions>
      </trkpt>
      <trkpt lat="52.32103527523577213287353515625" lon="1.66198379360139369964599609375">
        <ele>-388.20001220703125</ele>
        <time>2025-09-07T11:29:16.000Z</time>
        <extensions>
          <ns3:TrackPointExtension>
            <ns3:hr>127</ns3:hr>
            <ns3:cad>0</ns3:cad>
          </ns3:TrackPointExtension>
        </extensions>
      </trkpt>
      <trkpt lat="52.32103158719837665557861328125" lon="1.6619850508868694305419921875">
        <ele>-387</ele>
        <time>2025-09-07T11:29:18.000Z</time>
        <extensions>
          <ns3:TrackPointExtension>
            <ns3:hr>127</ns3:hr>
            <ns3:cad>0</ns3:cad>
          </ns3:TrackPointExtension>
        </extensions>
      </trkpt>
      <trkpt lat="52.32102354057133197784423828125" lon="1.6619867272675037384033203125">
        <ele>-385.600006103515625</ele>
        <time>2025-09-07T11:29:20.000Z</time>
        <extensions>
          <ns3:TrackPointExtension>
            <ns3:hr>128</ns3:hr>
            <ns3:cad>0</ns3:cad>
          </ns3:TrackPointExtension>
        </extensions>
      </trkpt>
      <trkpt lat="52.32101105153560638427734375" lon="1.66198714636266231536865234375">
        <ele>-384.79998779296875</ele>
        <time>2025-09-07T11:29:21.000Z</time>
        <extensions>
          <ns3:TrackPointExtension>
            <ns3:hr>126</ns3:hr>
            <ns3:cad>0</ns3:cad>
          </ns3:TrackPointExtension>
        </extensions>
      </trkpt>
      <trkpt lat="52.321001999080181121826171875" lon="1.66199033148586750030517578125">
        <ele>-384.20001220703125</ele>
        <time>2025-09-07T11:29:22.000Z</time>
        <extensions>
          <ns3:TrackPointExtension>
            <ns3:hr>126</ns3:hr>
            <ns3:cad>0</ns3:cad>
          </ns3:TrackPointExtension>
        </extensions>
      </trkpt>
      <trkpt lat="52.3209797032177448272705078125" lon="1.66200474835932254791259765625">
        <ele>-383</ele>
        <time>2025-09-07T11:29:24.000Z</time>
        <extensions>
          <ns3:TrackPointExtension>
            <ns3:hr>124</ns3:hr>
            <ns3:cad>0</ns3:cad>
          </ns3:TrackPointExtension>
        </extensions>
      </trkpt>
      <trkpt lat="52.32095899991691112518310546875" lon="1.6620182432234287261962890625">
        <ele>-381.600006103515625</ele>
        <time>2025-09-07T11:29:26.000Z</time>
        <extensions>
          <ns3:TrackPointExtension>
            <ns3:hr>124</ns3:hr>
            <ns3:cad>52</ns3:cad>
          </ns3:TrackPointExtension>
        </extensions>
      </trkpt>
      <trkpt lat="52.32093569822609424591064453125" lon="1.66203777305781841278076171875">
        <ele>-380.399993896484375</ele>
        <time>2025-09-07T11:29:28.000Z</time>
        <extensions>
          <ns3:TrackPointExtension>
            <ns3:hr>125</ns3:hr>
            <ns3:cad>52</ns3:cad>
          </ns3:TrackPointExtension>
        </extensions>
      </trkpt>
      <trkpt lat="52.32091172598302364349365234375" lon="1.66205822490155696868896484375">
        <ele>-379</ele>
        <time>2025-09-07T11:29:30.000Z</time>
        <extensions>
          <ns3:TrackPointExtension>
            <ns3:hr>125</ns3:hr>
            <ns3:cad>52</ns3:cad>
          </ns3:TrackPointExtension>
        </extensions>
      </trkpt>
      <trkpt lat="52.3208901844918727874755859375" lon="1.6620852984488010406494140625">
        <ele>-377.79998779296875</ele>
        <time>2025-09-07T11:29:32.000Z</time>
        <extensions>
          <ns3:TrackPointExtension>
            <ns3:hr>123</ns3:hr>
            <ns3:cad>52</ns3:cad>
          </ns3:TrackPointExtension>
        </extensions>
      </trkpt>
      <trkpt lat="52.3208709061145782470703125" lon="1.66213382966816425323486328125">
        <ele>-376.79998779296875</ele>
        <time>2025-09-07T11:29:34.000Z</time>
        <extensions>
          <ns3:TrackPointExtension>
            <ns3:hr>122</ns3:hr>
            <ns3:cad>59</ns3:cad>
          </ns3:TrackPointExtension>
        </extensions>
      </trkpt>
      <trkpt lat="52.32085053808987140655517578125" lon="1.66217288933694362640380859375">
        <ele>-375.79998779296875</ele>
        <time>2025-09-07T11:29:36.000Z</time>
        <extensions>
          <ns3:TrackPointExtension>
            <ns3:hr>123</ns3:hr>
            <ns3:cad>60</ns3:cad>
          </ns3:TrackPointExtension>
        </extensions>
      </trkpt>
      <trkpt lat="52.320821620523929595947265625" lon="1.66223558597266674041748046875">
        <ele>-374.20001220703125</ele>
        <time>2025-09-07T11:29:39.000Z</time>
        <extensions>
          <ns3:TrackPointExtension>
            <ns3:hr>123</ns3:hr>
            <ns3:cad>0</ns3:cad>
          </ns3:TrackPointExtension>
        </extensions>
      </trkpt>
      <trkpt lat="52.32081214897334575653076171875" lon="1.66225939057767391204833984375">
        <ele>-373.79998779296875</ele>
        <time>2025-09-07T11:29:40.000Z</time>
        <extensions>
          <ns3:TrackPointExtension>
            <ns3:hr>125</ns3:hr>
            <ns3:cad>0</ns3:cad>
          </ns3:TrackPointExtension>
        </extensions>
      </trkpt>
      <trkpt lat="52.32080443762242794036865234375" lon="1.66227850131690502166748046875">
        <ele>-373.20001220703125</ele>
        <time>2025-09-07T11:29:41.000Z</time>
        <extensions>
          <ns3:TrackPointExtension>
            <ns3:hr>121</ns3:hr>
            <ns3:cad>0</ns3:cad>
          </ns3:TrackPointExtension>
        </extensions>
      </trkpt>
      <trkpt lat="52.3207969777286052703857421875" lon="1.6622981987893581390380859375">
        <ele>-372.79998779296875</ele>
        <time>2025-09-07T11:29:42.000Z</time>
        <extensions>
          <ns3:TrackPointExtension>
            <ns3:hr>120</ns3:hr>
            <ns3:cad>0</ns3:cad>
          </ns3:TrackPointExtension>
        </extensions>
      </trkpt>
      <trkpt lat="52.32077107764780521392822265625" lon="1.66234656237065792083740234375">
        <ele>-371.600006103515625</ele>
        <time>2025-09-07T11:29:45.000Z</time>
        <extensions>
          <ns3:TrackPointExtension>
            <ns3:hr>119</ns3:hr>
            <ns3:cad>61</ns3:cad>
          </ns3:TrackPointExtension>
        </extensions>
      </trkpt>
      <trkpt lat="52.3207604326307773590087890625" lon="1.6623739711940288543701171875">
        <ele>-370.79998779296875</ele>
        <time>2025-09-07T11:29:47.000Z</time>
        <extensions>
          <ns3:TrackPointExtension>
            <ns3:hr>119</ns3:hr>
            <ns3:cad>60</ns3:cad>
          </ns3:TrackPointExtension>
        </extensions>
      </trkpt>
      <trkpt lat="52.320755235850811004638671875" lon="1.66239065118134021759033203125">
        <ele>-370.399993896484375</ele>
        <time>2025-09-07T11:29:48.000Z</time>
        <extensions>
          <ns3:TrackPointExtension>
            <ns3:hr>119</ns3:hr>
            <ns3:cad>58</ns3:cad>
          </ns3:TrackPointExtension>
        </extensions>
      </trkpt>
      <trkpt lat="52.3207356221973896026611328125" lon="1.6624427028000354766845703125">
        <ele>-369.20001220703125</ele>
        <time>2025-09-07T11:29:51.000Z</time>
        <extensions>
          <ns3:TrackPointExtension>
            <ns3:hr>119</ns3:hr>
            <ns3:cad>56</ns3:cad>
          </ns3:TrackPointExtension>
        </extensions>
      </trkpt>
      <trkpt lat="52.32071642763912677764892578125" lon="1.66247145272791385650634765625">
        <ele>-368.20001220703125</ele>
        <time>2025-09-07T11:29:54.000Z</time>
        <extensions>
          <ns3:TrackPointExtension>
            <ns3:hr>118</ns3:hr>
            <ns3:cad>0</ns3:cad>
          </ns3:TrackPointExtension>
        </extensions>
      </trkpt>
      <trkpt lat="52.32069597579538822174072265625" lon="1.66249274276196956634521484375">
        <ele>-367</ele>
        <time>2025-09-07T11:29:58.000Z</time>
        <extensions>
          <ns3:TrackPointExtension>
            <ns3:hr>117</ns3:hr>
            <ns3:cad>0</ns3:cad>
          </ns3:TrackPointExtension>
        </extensions>
      </trkpt>
      <trkpt lat="52.320676110684871673583984375" lon="1.66251805610954761505126953125">
        <ele>-366.399993896484375</ele>
        <time>2025-09-07T11:30:00.000Z</time>
        <extensions>
          <ns3:TrackPointExtension>
            <ns3:hr>114</ns3:hr>
            <ns3:cad>0</ns3:cad>
          </ns3:TrackPointExtension>
        </extensions>
      </trkpt>
      <trkpt lat="52.32065322808921337127685546875" lon="1.662552170455455780029296875">
        <ele>-365.79998779296875</ele>
        <time>2025-09-07T11:30:02.000Z</time>
        <extensions>
          <ns3:TrackPointExtension>
            <ns3:hr>114</ns3:hr>
            <ns3:cad>0</ns3:cad>
          </ns3:TrackPointExtension>
        </extensions>
      </trkpt>
      <trkpt lat="52.32060310430824756622314453125" lon="1.66260824538767337799072265625">
        <ele>-364.79998779296875</ele>
        <time>2025-09-07T11:30:06.000Z</time>
        <extensions>
          <ns3:TrackPointExtension>
            <ns3:hr>116</ns3:hr>
            <ns3:cad>0</ns3:cad>
          </ns3:TrackPointExtension>
        </extensions>
      </trkpt>
      <trkpt lat="52.32057527638971805572509765625" lon="1.6626401804387569427490234375">
        <ele>-364.20001220703125</ele>
        <time>2025-09-07T11:30:08.000Z</time>
        <extensions>
          <ns3:TrackPointExtension>
            <ns3:hr>117</ns3:hr>
            <ns3:cad>0</ns3:cad>
          </ns3:TrackPointExtension>
        </extensions>
      </trkpt>
      <trkpt lat="52.32054024003446102142333984375" lon="1.66269307024776935577392578125">
        <ele>-363.600006103515625</ele>
        <time>2025-09-07T11:30:11.000Z</time>
        <extensions>
          <ns3:TrackPointExtension>
            <ns3:hr>117</ns3:hr>
            <ns3:cad>53</ns3:cad>
          </ns3:TrackPointExtension>
        </extensions>
      </trkpt>
      <trkpt lat="52.3204985819756984710693359375" lon="1.66278208605945110321044921875">
        <ele>-362.399993896484375</ele>
        <time>2025-09-07T11:30:16.000Z</time>
        <extensions>
          <ns3:TrackPointExtension>
            <ns3:hr>118</ns3:hr>
            <ns3:cad>0</ns3:cad>
          </ns3:TrackPointExtension>
        </extensions>
      </trkpt>
      <trkpt lat="52.3204471170902252197265625" lon="1.66285115294158458709716796875">
        <ele>-361.399993896484375</ele>
        <time>2025-09-07T11:30:21.000Z</time>
        <extensions>
          <ns3:TrackPointExtension>
            <ns3:hr>118</ns3:hr>
            <ns3:cad>0</ns3:cad>
          </ns3:TrackPointExtension>
        </extensions>
      </trkpt>
      <trkpt lat="52.3204124160110950469970703125" lon="1.66289113461971282958984375">
        <ele>-360.79998779296875</ele>
        <time>2025-09-07T11:30:24.000Z</time>
        <extensions>
          <ns3:TrackPointExtension>
            <ns3:hr>117</ns3:hr>
            <ns3:cad>0</ns3:cad>
          </ns3:TrackPointExtension>
        </extensions>
      </trkpt>
      <trkpt lat="52.32038282789289951324462890625" lon="1.662929356098175048828125">
        <ele>-360.20001220703125</ele>
        <time>2025-09-07T11:30:27.000Z</time>
        <extensions>
          <ns3:TrackPointExtension>
            <ns3:hr>117</ns3:hr>
            <ns3:cad>0</ns3:cad>
          </ns3:TrackPointExtension>
        </extensions>
      </trkpt>
      <trkpt lat="52.32031828723847866058349609375" lon="1.66301409713923931121826171875">
        <ele>-359</ele>
        <time>2025-09-07T11:30:33.000Z</time>
        <extensions>
          <ns3:TrackPointExtension>
            <ns3:hr>115</ns3:hr>
            <ns3:cad>61</ns3:cad>
          </ns3:TrackPointExtension>
        </extensions>
      </trkpt>
      <trkpt lat="52.32025424949824810028076171875" lon="1.6631192900240421295166015625">
        <ele>-358</ele>
        <time>2025-09-07T11:30:40.000Z</time>
        <extensions>
          <ns3:TrackPointExtension>
            <ns3:hr>115</ns3:hr>
            <ns3:cad>57</ns3:cad>
          </ns3:TrackPointExtension>
        </extensions>
      </trkpt>
      <trkpt lat="52.32024234719574451446533203125" lon="1.66313597001135349273681640625">
        <ele>-357.79998779296875</ele>
        <time>2025-09-07T11:30:41.000Z</time>
        <extensions>
          <ns3:TrackPointExtension>
            <ns3:hr>115</ns3:hr>
            <ns3:cad>57</ns3:cad>
          </ns3:TrackPointExtension>
        </extensions>
      </trkpt>
      <trkpt lat="52.32018669135868549346923828125" lon="1.66323437355458736419677734375">
        <ele>-356.79998779296875</ele>
        <time>2025-09-07T11:30:47.000Z</time>
        <extensions>
          <ns3:TrackPointExtension>
            <ns3:hr>116</ns3:hr>
            <ns3:cad>0</ns3:cad>
          </ns3:TrackPointExtension>
        </extensions>
      </trkpt>
      <trkpt lat="52.3201190494000911712646484375" lon="1.6633144207298755645751953125">
        <ele>-356</ele>
        <time>2025-09-07T11:30:52.000Z</time>
        <extensions>
          <ns3:TrackPointExtension>
            <ns3:hr>119</ns3:hr>
            <ns3:cad>0</ns3:cad>
          </ns3:TrackPointExtension>
        </extensions>
      </trkpt>
      <trkpt lat="52.3200945742428302764892578125" lon="1.66335373185575008392333984375">
        <ele>-355.79998779296875</ele>
        <time>2025-09-07T11:30:54.000Z</time>
        <extensions>
          <ns3:TrackPointExtension>
            <ns3:hr>118</ns3:hr>
            <ns3:cad>0</ns3:cad>
          </ns3:TrackPointExtension>
        </extensions>
      </trkpt>
      <trkpt lat="52.32007336802780628204345703125" lon="1.66339212097227573394775390625">
        <ele>-355.600006103515625</ele>
        <time>2025-09-07T11:30:56.000Z</time>
        <extensions>
          <ns3:TrackPointExtension>
            <ns3:hr>119</ns3:hr>
            <ns3:cad>0</ns3:cad>
          </ns3:TrackPointExtension>
        </extensions>
      </trkpt>
      <trkpt lat="52.3200214840471744537353515625" lon="1.6634780354797840118408203125">
        <ele>-354.79998779296875</ele>
        <time>2025-09-07T11:31:01.000Z</time>
        <extensions>
          <ns3:TrackPointExtension>
            <ns3:hr>116</ns3:hr>
            <ns3:cad>60</ns3:cad>
          </ns3:TrackPointExtension>
        </extensions>
      </trkpt>
      <trkpt lat="52.32001150958240032196044921875" lon="1.6634937934577465057373046875">
        <ele>-354.79998779296875</ele>
        <time>2025-09-07T11:31:02.000Z</time>
        <extensions>
          <ns3:TrackPointExtension>
            <ns3:hr>116</ns3:hr>
            <ns3:cad>60</ns3:cad>
          </ns3:TrackPointExtension>
        </extensions>
      </trkpt>
      <trkpt lat="52.31998602859675884246826171875" lon="1.6635367088019847869873046875">
        <ele>-354.399993896484375</ele>
        <time>2025-09-07T11:31:05.000Z</time>
        <extensions>
          <ns3:TrackPointExtension>
            <ns3:hr>117</ns3:hr>
            <ns3:cad>0</ns3:cad>
          </ns3:TrackPointExtension>
        </extensions>
      </trkpt>
      <trkpt lat="52.31991495005786418914794921875" lon="1.6636119782924652099609375">
        <ele>-353.600006103515625</ele>
        <time>2025-09-07T11:31:11.000Z</time>
        <extensions>
          <ns3:TrackPointExtension>
            <ns3:hr>117</ns3:hr>
            <ns3:cad>57</ns3:cad>
          </ns3:TrackPointExtension>
        </extensions>
      </trkpt>
      <trkpt lat="52.31982911936938762664794921875" lon="1.66372790001332759857177734375">
        <ele>-352.79998779296875</ele>
        <time>2025-09-07T11:31:17.000Z</time>
        <extensions>
          <ns3:TrackPointExtension>
            <ns3:hr>118</ns3:hr>
            <ns3:cad>60</ns3:cad>
          </ns3:TrackPointExtension>
        </extensions>
      </trkpt>
      <trkpt lat="52.31980808079242706298828125" lon="1.66375924833118915557861328125">
        <ele>-352.600006103515625</ele>
        <time>2025-09-07T11:31:19.000Z</time>
        <extensions>
          <ns3:TrackPointExtension>
            <ns3:hr>119</ns3:hr>
            <ns3:cad>60</ns3:cad>
          </ns3:TrackPointExtension>
        </extensions>
      </trkpt>
      <trkpt lat="52.31980011798441410064697265625" lon="1.66377265937626361846923828125">
        <ele>-352.399993896484375</ele>
        <time>2025-09-07T11:31:20.000Z</time>
        <extensions>
          <ns3:TrackPointExtension>
            <ns3:hr>116</ns3:hr>
            <ns3:cad>60</ns3:cad>
          </ns3:TrackPointExtension>
        </extensions>
      </trkpt>
      <trkpt lat="52.31978125870227813720703125" lon="1.66380174458026885986328125">
        <ele>-352</ele>
        <time>2025-09-07T11:31:22.000Z</time>
        <extensions>
          <ns3:TrackPointExtension>
            <ns3:hr>117</ns3:hr>
            <ns3:cad>60</ns3:cad>
          </ns3:TrackPointExtension>
        </extensions>
      </trkpt>
      <trkpt lat="52.319762147963047027587890625" lon="1.6638314165174961090087890625">
        <ele>-351.600006103515625</ele>
        <time>2025-09-07T11:31:24.000Z</time>
        <extensions>
          <ns3:TrackPointExtension>
            <ns3:hr>120</ns3:hr>
            <ns3:cad>60</ns3:cad>
          </ns3:TrackPointExtension>
        </extensions>
      </trkpt>
      <trkpt lat="52.31975334696471691131591796875" lon="1.663847006857395172119140625">
        <ele>-351.600006103515625</ele>
        <time>2025-09-07T11:31:25.000Z</time>
        <extensions>
          <ns3:TrackPointExtension>
            <ns3:hr>123</ns3:hr>
            <ns3:cad>58</ns3:cad>
          </ns3:TrackPointExtension>
        </extensions>
      </trkpt>
      <trkpt lat="52.3197080008685588836669921875" lon="1.66392839513719081878662109375">
        <ele>-350.600006103515625</ele>
        <time>2025-09-07T11:31:30.000Z</time>
        <extensions>
          <ns3:TrackPointExtension>
            <ns3:hr>117</ns3:hr>
            <ns3:cad>0</ns3:cad>
          </ns3:TrackPointExtension>
        </extensions>
      </trkpt>
      <trkpt lat="52.3196865431964397430419921875" lon="1.66395840235054492950439453125">
        <ele>-350.399993896484375</ele>
        <time>2025-09-07T11:31:32.000Z</time>
        <extensions>
          <ns3:TrackPointExtension>
            <ns3:hr>117</ns3:hr>
            <ns3:cad>0</ns3:cad>
          </ns3:TrackPointExtension>
        </extensions>
      </trkpt>
      <trkpt lat="52.31963239610195159912109375" lon="1.664039455354213714599609375">
        <ele>-349.600006103515625</ele>
        <time>2025-09-07T11:31:38.000Z</time>
        <extensions>
          <ns3:TrackPointExtension>
            <ns3:hr>118</ns3:hr>
            <ns3:cad>59</ns3:cad>
          </ns3:TrackPointExtension>
        </extensions>
      </trkpt>
      <trkpt lat="52.3196107707917690277099609375" lon="1.6640657745301723480224609375">
        <ele>-349.20001220703125</ele>
        <time>2025-09-07T11:31:40.000Z</time>
        <extensions>
          <ns3:TrackPointExtension>
            <ns3:hr>118</ns3:hr>
            <ns3:cad>61</ns3:cad>
          </ns3:TrackPointExtension>
        </extensions>
      </trkpt>
      <trkpt lat="52.3195668496191501617431640625" lon="1.66408798657357692718505859375">
        <ele>-348.79998779296875</ele>
        <time>2025-09-07T11:31:43.000Z</time>
        <extensions>
          <ns3:TrackPointExtension>
            <ns3:hr>121</ns3:hr>
            <ns3:cad>61</ns3:cad>
          </ns3:TrackPointExtension>
        </extensions>
      </trkpt>
      <trkpt lat="52.31955519877374172210693359375" lon="1.66409452445805072784423828125">
        <ele>-348.79998779296875</ele>
        <time>2025-09-07T11:31:44.000Z</time>
        <extensions>
          <ns3:TrackPointExtension>
            <ns3:hr>122</ns3:hr>
            <ns3:cad>61</ns3:cad>
          </ns3:TrackPointExtension>
        </extensions>
      </trkpt>
      <trkpt lat="52.319512031972408294677734375" lon="1.6641261242330074310302734375">
        <ele>-348.20001220703125</ele>
        <time>2025-09-07T11:31:49.000Z</time>
        <extensions>
          <ns3:TrackPointExtension>
            <ns3:hr>121</ns3:hr>
            <ns3:cad>61</ns3:cad>
          </ns3:TrackPointExtension>
        </extensions>
      </trkpt>
      <trkpt lat="52.31946299783885478973388671875" lon="1.6641626693308353424072265625">
        <ele>-347.79998779296875</ele>
        <time>2025-09-07T11:31:54.000Z</time>
        <extensions>
          <ns3:TrackPointExtension>
            <ns3:hr>122</ns3:hr>
            <ns3:cad>60</ns3:cad>
          </ns3:TrackPointExtension>
        </extensions>
      </trkpt>
      <trkpt lat="52.31944522820413112640380859375" lon="1.66419410146772861480712890625">
        <ele>-347.79998779296875</ele>
        <time>2025-09-07T11:31:56.000Z</time>
        <extensions>
          <ns3:TrackPointExtension>
            <ns3:hr>122</ns3:hr>
            <ns3:cad>60</ns3:cad>
          </ns3:TrackPointExtension>
        </extensions>
      </trkpt>
      <trkpt lat="52.3194092698395252227783203125" lon="1.66427372954785823822021484375">
        <ele>-347.600006103515625</ele>
        <time>2025-09-07T11:32:00.000Z</time>
        <extensions>
          <ns3:TrackPointExtension>
            <ns3:hr>123</ns3:hr>
            <ns3:cad>0</ns3:cad>
          </ns3:TrackPointExtension>
        </extensions>
      </trkpt>
      <trkpt lat="52.319364510476589202880859375" lon="1.664366014301776885986328125">
        <ele>-347.600006103515625</ele>
        <time>2025-09-07T11:32:05.000Z</time>
        <extensions>
          <ns3:TrackPointExtension>
            <ns3:hr>120</ns3:hr>
            <ns3:cad>59</ns3:cad>
          </ns3:TrackPointExtension>
        </extensions>
      </trkpt>
      <trkpt lat="52.31935202144086360931396484375" lon="1.66438168846070766448974609375">
        <ele>-347.600006103515625</ele>
        <time>2025-09-07T11:32:06.000Z</time>
        <extensions>
          <ns3:TrackPointExtension>
            <ns3:hr>117</ns3:hr>
            <ns3:cad>59</ns3:cad>
          </ns3:TrackPointExtension>
        </extensions>
      </trkpt>
      <trkpt lat="52.31934137642383575439453125" lon="1.66439719498157501220703125">
        <ele>-347.600006103515625</ele>
        <time>2025-09-07T11:32:07.000Z</time>
        <extensions>
          <ns3:TrackPointExtension>
            <ns3:hr>117</ns3:hr>
            <ns3:cad>0</ns3:cad>
          </ns3:TrackPointExtension>
        </extensions>
      </trkpt>
      <trkpt lat="52.319265939295291900634765625" lon="1.66450121439993381500244140625">
        <ele>-347.79998779296875</ele>
        <time>2025-09-07T11:32:14.000Z</time>
        <extensions>
          <ns3:TrackPointExtension>
            <ns3:hr>117</ns3:hr>
            <ns3:cad>60</ns3:cad>
          </ns3:TrackPointExtension>
        </extensions>
      </trkpt>
      <trkpt lat="52.3192218504846096038818359375" lon="1.66460431180894374847412109375">
        <ele>-348.20001220703125</ele>
        <time>2025-09-07T11:32:21.000Z</time>
        <extensions>
          <ns3:TrackPointExtension>
            <ns3:hr>117</ns3:hr>
            <ns3:cad>60</ns3:cad>
          </ns3:TrackPointExtension>
        </extensions>
      </trkpt>
      <trkpt lat="52.31920458376407623291015625" lon="1.6646565310657024383544921875">
        <ele>-348.600006103515625</ele>
        <time>2025-09-07T11:32:25.000Z</time>
        <extensions>
          <ns3:TrackPointExtension>
            <ns3:hr>118</ns3:hr>
            <ns3:cad>0</ns3:cad>
          </ns3:TrackPointExtension>
        </extensions>
      </trkpt>
      <trkpt lat="52.3191973753273487091064453125" lon="1.664672456681728363037109375">
        <ele>-348.79998779296875</ele>
        <time>2025-09-07T11:32:26.000Z</time>
        <extensions>
          <ns3:TrackPointExtension>
            <ns3:hr>115</ns3:hr>
            <ns3:cad>0</ns3:cad>
          </ns3:TrackPointExtension>
        </extensions>
      </trkpt>
      <trkpt lat="52.31916979886591434478759765625" lon="1.66471562348306179046630859375">
        <ele>-349</ele>
        <time>2025-09-07T11:32:29.000Z</time>
        <extensions>
          <ns3:TrackPointExtension>
            <ns3:hr>119</ns3:hr>
            <ns3:cad>0</ns3:cad>
          </ns3:TrackPointExtension>
        </extensions>
      </trkpt>
      <trkpt lat="52.31915052048861980438232421875" lon="1.664742529392242431640625">
        <ele>-349.20001220703125</ele>
        <time>2025-09-07T11:32:31.000Z</time>
        <extensions>
          <ns3:TrackPointExtension>
            <ns3:hr>119</ns3:hr>
            <ns3:cad>0</ns3:cad>
          </ns3:TrackPointExtension>
        </extensions>
      </trkpt>
      <trkpt lat="52.31910844333469867706298828125" lon="1.6648042201995849609375">
        <ele>-349.79998779296875</ele>
        <time>2025-09-07T11:32:35.000Z</time>
        <extensions>
          <ns3:TrackPointExtension>
            <ns3:hr>119</ns3:hr>
            <ns3:cad>0</ns3:cad>
          </ns3:TrackPointExtension>
        </extensions>
      </trkpt>
      <trkpt lat="52.3190604150295257568359375" lon="1.66485778056085109710693359375">
        <ele>-350.399993896484375</ele>
        <time>2025-09-07T11:32:39.000Z</time>
        <extensions>
          <ns3:TrackPointExtension>
            <ns3:hr>117</ns3:hr>
            <ns3:cad>0</ns3:cad>
          </ns3:TrackPointExtension>
        </extensions>
      </trkpt>
      <trkpt lat="52.31901573948562145233154296875" lon="1.66487940587103366851806640625">
        <ele>-350.79998779296875</ele>
        <time>2025-09-07T11:32:42.000Z</time>
        <extensions>
          <ns3:TrackPointExtension>
            <ns3:hr>120</ns3:hr>
            <ns3:cad>0</ns3:cad>
          </ns3:TrackPointExtension>
        </extensions>
      </trkpt>
      <trkpt lat="52.3190045915544033050537109375" lon="1.66489030234515666961669921875">
        <ele>-350.79998779296875</ele>
        <time>2025-09-07T11:32:43.000Z</time>
        <extensions>
          <ns3:TrackPointExtension>
            <ns3:hr>121</ns3:hr>
            <ns3:cad>0</ns3:cad>
          </ns3:TrackPointExtension>
        </extensions>
      </trkpt>
      <trkpt lat="52.31896494515240192413330078125" lon="1.6649539209902286529541015625">
        <ele>-351.399993896484375</ele>
        <time>2025-09-07T11:32:47.000Z</time>
        <extensions>
          <ns3:TrackPointExtension>
            <ns3:hr>122</ns3:hr>
            <ns3:cad>0</ns3:cad>
          </ns3:TrackPointExtension>
        </extensions>
      </trkpt>
      <trkpt lat="52.3189231194555759429931640625" lon="1.6650132648646831512451171875">
        <ele>-352</ele>
        <time>2025-09-07T11:32:51.000Z</time>
        <extensions>
          <ns3:TrackPointExtension>
            <ns3:hr>122</ns3:hr>
            <ns3:cad>0</ns3:cad>
          </ns3:TrackPointExtension>
        </extensions>
      </trkpt>
      <trkpt lat="52.3188838921487331390380859375" lon="1.6650576889514923095703125">
        <ele>-352.399993896484375</ele>
        <time>2025-09-07T11:32:54.000Z</time>
        <extensions>
          <ns3:TrackPointExtension>
            <ns3:hr>122</ns3:hr>
            <ns3:cad>57</ns3:cad>
          </ns3:TrackPointExtension>
        </extensions>
      </trkpt>
      <trkpt lat="52.31883435510098934173583984375" lon="1.6651386581361293792724609375">
        <ele>-353.20001220703125</ele>
        <time>2025-09-07T11:32:59.000Z</time>
        <extensions>
          <ns3:TrackPointExtension>
            <ns3:hr>121</ns3:hr>
            <ns3:cad>58</ns3:cad>
          </ns3:TrackPointExtension>
        </extensions>
      </trkpt>
      <trkpt lat="52.3188071139156818389892578125" lon="1.6651762090623378753662109375">
        <ele>-353.600006103515625</ele>
        <time>2025-09-07T11:33:01.000Z</time>
        <extensions>
          <ns3:TrackPointExtension>
            <ns3:hr>120</ns3:hr>
            <ns3:cad>62</ns3:cad>
          </ns3:TrackPointExtension>
        </extensions>
      </trkpt>
      <trkpt lat="52.31875858269631862640380859375" lon="1.665237061679363250732421875">
        <ele>-354.399993896484375</ele>
        <time>2025-09-07T11:33:06.000Z</time>
        <extensions>
          <ns3:TrackPointExtension>
            <ns3:hr>123</ns3:hr>
            <ns3:cad>0</ns3:cad>
          </ns3:TrackPointExtension>
        </extensions>
      </trkpt>
      <trkpt lat="52.31874818913638591766357421875" lon="1.665237061679363250732421875">
        <ele>-354.600006103515625</ele>
        <time>2025-09-07T11:33:08.000Z</time>
        <extensions>
          <ns3:TrackPointExtension>
            <ns3:hr>121</ns3:hr>
            <ns3:cad>0</ns3:cad>
          </ns3:TrackPointExtension>
        </extensions>
      </trkpt>
      <trkpt lat="52.31873125769197940826416015625" lon="1.6652481257915496826171875">
        <ele>-355.20001220703125</ele>
        <time>2025-09-07T11:33:13.000Z</time>
        <extensions>
          <ns3:TrackPointExtension>
            <ns3:hr>118</ns3:hr>
            <ns3:cad>0</ns3:cad>
          </ns3:TrackPointExtension>
        </extensions>
      </trkpt>
      <trkpt lat="52.3187256418168544769287109375" lon="1.665255837142467498779296875">
        <ele>-355.20001220703125</ele>
        <time>2025-09-07T11:33:14.000Z</time>
        <extensions>
          <ns3:TrackPointExtension>
            <ns3:hr>118</ns3:hr>
            <ns3:cad>0</ns3:cad>
          </ns3:TrackPointExtension>
        </extensions>
      </trkpt>
      <trkpt lat="52.3186532221734523773193359375" lon="1.6653596051037311553955078125">
        <ele>-355.600006103515625</ele>
        <time>2025-09-07T11:33:22.000Z</time>
        <extensions>
          <ns3:TrackPointExtension>
            <ns3:hr>119</ns3:hr>
            <ns3:cad>0</ns3:cad>
          </ns3:TrackPointExtension>
        </extensions>
      </trkpt>
      <trkpt lat="52.31862832792103290557861328125" lon="1.66540595702826976776123046875">
        <ele>-355.600006103515625</ele>
        <time>2025-09-07T11:33:25.000Z</time>
        <extensions>
          <ns3:TrackPointExtension>
            <ns3:hr>117</ns3:hr>
            <ns3:cad>58</ns3:cad>
          </ns3:TrackPointExtension>
        </extensions>
      </trkpt>
      <trkpt lat="52.31858189217746257781982421875" lon="1.66546261869370937347412109375">
        <ele>-356</ele>
        <time>2025-09-07T11:33:29.000Z</time>
        <extensions>
          <ns3:TrackPointExtension>
            <ns3:hr>118</ns3:hr>
            <ns3:cad>0</ns3:cad>
          </ns3:TrackPointExtension>
        </extensions>
      </trkpt>
      <trkpt lat="52.31851718388497829437255859375" lon="1.6655322723090648651123046875">
        <ele>-356.600006103515625</ele>
        <time>2025-09-07T11:33:34.000Z</time>
        <extensions>
          <ns3:TrackPointExtension>
            <ns3:hr>121</ns3:hr>
            <ns3:cad>58</ns3:cad>
          </ns3:TrackPointExtension>
        </extensions>
      </trkpt>
      <trkpt lat="52.3184859193861484527587890625" lon="1.66557745076715946197509765625">
        <ele>-357.20001220703125</ele>
        <time>2025-09-07T11:33:37.000Z</time>
        <extensions>
          <ns3:TrackPointExtension>
            <ns3:hr>119</ns3:hr>
            <ns3:cad>55</ns3:cad>
          </ns3:TrackPointExtension>
        </extensions>
      </trkpt>
      <trkpt lat="52.31843269430100917816162109375" lon="1.6656241379678249359130859375">
        <ele>-357.79998779296875</ele>
        <time>2025-09-07T11:33:41.000Z</time>
        <extensions>
          <ns3:TrackPointExtension>
            <ns3:hr>119</ns3:hr>
            <ns3:cad>58</ns3:cad>
          </ns3:TrackPointExtension>
        </extensions>
      </trkpt>
      <trkpt lat="52.3184051178395748138427734375" lon="1.66564643383026123046875">
        <ele>-358.20001220703125</ele>
        <time>2025-09-07T11:33:43.000Z</time>
        <extensions>
          <ns3:TrackPointExtension>
            <ns3:hr>119</ns3:hr>
            <ns3:cad>58</ns3:cad>
          </ns3:TrackPointExtension>
        </extensions>
      </trkpt>
      <trkpt lat="52.3183630406856536865234375" lon="1.6657126508653163909912109375">
        <ele>-358.79998779296875</ele>
        <time>2025-09-07T11:33:47.000Z</time>
        <extensions>
          <ns3:TrackPointExtension>
            <ns3:hr>119</ns3:hr>
            <ns3:cad>0</ns3:cad>
          </ns3:TrackPointExtension>
        </extensions>
      </trkpt>
      <trkpt lat="52.3183135874569416046142578125" lon="1.6657776944339275360107421875">
        <ele>-359.600006103515625</ele>
        <time>2025-09-07T11:33:51.000Z</time>
        <extensions>
          <ns3:TrackPointExtension>
            <ns3:hr>116</ns3:hr>
            <ns3:cad>59</ns3:cad>
          </ns3:TrackPointExtension>
        </extensions>
      </trkpt>
      <trkpt lat="52.31829263269901275634765625" lon="1.66580175049602985382080078125">
        <ele>-360</ele>
        <time>2025-09-07T11:33:53.000Z</time>
        <extensions>
          <ns3:TrackPointExtension>
            <ns3:hr>113</ns3:hr>
            <ns3:cad>59</ns3:cad>
          </ns3:TrackPointExtension>
        </extensions>
      </trkpt>
      <trkpt lat="52.31822029687464237213134765625" lon="1.66586461476981639862060546875">
        <ele>-360.79998779296875</ele>
        <time>2025-09-07T11:34:00.000Z</time>
        <extensions>
          <ns3:TrackPointExtension>
            <ns3:hr>113</ns3:hr>
            <ns3:cad>58</ns3:cad>
          </ns3:TrackPointExtension>
        </extensions>
      </trkpt>
      <trkpt lat="52.3182019405066967010498046875" lon="1.66588121093809604644775390625">
        <ele>-361</ele>
        <time>2025-09-07T11:34:02.000Z</time>
        <extensions>
          <ns3:TrackPointExtension>
            <ns3:hr>112</ns3:hr>
            <ns3:cad>58</ns3:cad>
          </ns3:TrackPointExtension>
        </extensions>
      </trkpt>
      <trkpt lat="52.31814720667898654937744140625" lon="1.6659144870936870574951171875">
        <ele>-361.399993896484375</ele>
        <time>2025-09-07T11:34:08.000Z</time>
        <extensions>
          <ns3:TrackPointExtension>
            <ns3:hr>112</ns3:hr>
            <ns3:cad>58</ns3:cad>
          </ns3:TrackPointExtension>
        </extensions>
      </trkpt>
      <trkpt lat="52.3181063868105411529541015625" lon="1.665944159030914306640625">
        <ele>-361.600006103515625</ele>
        <time>2025-09-07T11:34:13.000Z</time>
        <extensions>
          <ns3:TrackPointExtension>
            <ns3:hr>115</ns3:hr>
            <ns3:cad>60</ns3:cad>
          </ns3:TrackPointExtension>
        </extensions>
      </trkpt>
      <trkpt lat="52.31808467768132686614990234375" lon="1.6659755073487758636474609375">
        <ele>-361.600006103515625</ele>
        <time>2025-09-07T11:34:16.000Z</time>
        <extensions>
          <ns3:TrackPointExtension>
            <ns3:hr>115</ns3:hr>
            <ns3:cad>59</ns3:cad>
          </ns3:TrackPointExtension>
        </extensions>
      </trkpt>
      <trkpt lat="52.31805450282990932464599609375" lon="1.66602605022490024566650390625">
        <ele>-361.79998779296875</ele>
        <time>2025-09-07T11:34:19.000Z</time>
        <extensions>
          <ns3:TrackPointExtension>
            <ns3:hr>118</ns3:hr>
            <ns3:cad>60</ns3:cad>
          </ns3:TrackPointExtension>
        </extensions>
      </trkpt>
      <trkpt lat="52.318020053207874298095703125" lon="1.6660807840526103973388671875">
        <ele>-361.79998779296875</ele>
        <time>2025-09-07T11:34:23.000Z</time>
        <extensions>
          <ns3:TrackPointExtension>
            <ns3:hr>121</ns3:hr>
            <ns3:cad>62</ns3:cad>
          </ns3:TrackPointExtension>
        </extensions>
      </trkpt>
      <trkpt lat="52.31800521723926067352294921875" lon="1.66610844433307647705078125">
        <ele>-362</ele>
        <time>2025-09-07T11:34:25.000Z</time>
        <extensions>
          <ns3:TrackPointExtension>
            <ns3:hr>121</ns3:hr>
            <ns3:cad>62</ns3:cad>
          </ns3:TrackPointExtension>
        </extensions>
      </trkpt>
      <trkpt lat="52.31799490749835968017578125" lon="1.6661216877400875091552734375">
        <ele>-362</ele>
        <time>2025-09-07T11:34:26.000Z</time>
        <extensions>
          <ns3:TrackPointExtension>
            <ns3:hr>119</ns3:hr>
            <ns3:cad>61</ns3:cad>
          </ns3:TrackPointExtension>
        </extensions>
      </trkpt>
      <trkpt lat="52.3179231584072113037109375" lon="1.6661729849874973297119140625">
        <ele>-362.20001220703125</ele>
        <time>2025-09-07T11:34:33.000Z</time>
        <extensions>
          <ns3:TrackPointExtension>
            <ns3:hr>117</ns3:hr>
            <ns3:cad>58</ns3:cad>
          </ns3:TrackPointExtension>
        </extensions>
      </trkpt>
      <trkpt lat="52.31785736046731472015380859375" lon="1.666275747120380401611328125">
        <ele>-362.600006103515625</ele>
        <time>2025-09-07T11:34:41.000Z</time>
        <extensions>
          <ns3:TrackPointExtension>
            <ns3:hr>117</ns3:hr>
            <ns3:cad>59</ns3:cad>
          </ns3:TrackPointExtension>
        </extensions>
      </trkpt>
      <trkpt lat="52.31782785616815090179443359375" lon="1.66630089282989501953125">
        <ele>-362.600006103515625</ele>
        <time>2025-09-07T11:34:44.000Z</time>
        <extensions>
          <ns3:TrackPointExtension>
            <ns3:hr>120</ns3:hr>
            <ns3:cad>60</ns3:cad>
          </ns3:TrackPointExtension>
        </extensions>
      </trkpt>
      <trkpt lat="52.31778829358518123626708984375" lon="1.66636384092271327972412109375">
        <ele>-362.79998779296875</ele>
        <time>2025-09-07T11:34:48.000Z</time>
        <extensions>
          <ns3:TrackPointExtension>
            <ns3:hr>120</ns3:hr>
            <ns3:cad>61</ns3:cad>
          </ns3:TrackPointExtension>
        </extensions>
      </trkpt>
      <trkpt lat="52.31772475875914096832275390625" lon="1.666469536721706390380859375">
        <ele>-362.79998779296875</ele>
        <time>2025-09-07T11:34:54.000Z</time>
        <extensions>
          <ns3:TrackPointExtension>
            <ns3:hr>115</ns3:hr>
            <ns3:cad>60</ns3:cad>
          </ns3:TrackPointExtension>
        </extensions>
      </trkpt>
      <trkpt lat="52.3177137784659862518310546875" lon="1.6664886474609375">
        <ele>-363</ele>
        <time>2025-09-07T11:34:55.000Z</time>
        <extensions>
          <ns3:TrackPointExtension>
            <ns3:hr>115</ns3:hr>
            <ns3:cad>62</ns3:cad>
          </ns3:TrackPointExtension>
        </extensions>
      </trkpt>
      <trkpt lat="52.31770112179219722747802734375" lon="1.6665109433233737945556640625">
        <ele>-363</ele>
        <time>2025-09-07T11:34:56.000Z</time>
        <extensions>
          <ns3:TrackPointExtension>
            <ns3:hr>115</ns3:hr>
            <ns3:cad>62</ns3:cad>
          </ns3:TrackPointExtension>
        </extensions>
      </trkpt>
      <trkpt lat="52.3176587931811809539794921875" lon="1.66657757945358753204345703125">
        <ele>-363</ele>
        <time>2025-09-07T11:35:00.000Z</time>
        <extensions>
          <ns3:TrackPointExtension>
            <ns3:hr>114</ns3:hr>
            <ns3:cad>59</ns3:cad>
          </ns3:TrackPointExtension>
        </extensions>
      </trkpt>
      <trkpt lat="52.317637838423252105712890625" lon="1.66660021059215068817138671875">
        <ele>-363</ele>
        <time>2025-09-07T11:35:02.000Z</time>
        <extensions>
          <ns3:TrackPointExtension>
            <ns3:hr>111</ns3:hr>
            <ns3:cad>60</ns3:cad>
          </ns3:TrackPointExtension>
        </extensions>
      </trkpt>
      <trkpt lat="52.31762233190238475799560546875" lon="1.6666279546916484832763671875">
        <ele>-363</ele>
        <time>2025-09-07T11:35:04.000Z</time>
        <extensions>
          <ns3:TrackPointExtension>
            <ns3:hr>115</ns3:hr>
            <ns3:cad>60</ns3:cad>
          </ns3:TrackPointExtension>
        </extensions>
      </trkpt>
      <trkpt lat="52.3175330646336078643798828125" lon="1.66683238931000232696533203125">
        <ele>-363.20001220703125</ele>
        <time>2025-09-07T11:35:12.000Z</time>
        <extensions>
          <ns3:TrackPointExtension>
            <ns3:hr>114</ns3:hr>
            <ns3:cad>58</ns3:cad>
          </ns3:TrackPointExtension>
        </extensions>
      </trkpt>
      <trkpt lat="52.3174549452960491180419921875" lon="1.6670265980064868927001953125">
        <ele>-363.79998779296875</ele>
        <time>2025-09-07T11:35:19.000Z</time>
        <extensions>
          <ns3:TrackPointExtension>
            <ns3:hr>114</ns3:hr>
            <ns3:cad>58</ns3:cad>
          </ns3:TrackPointExtension>
        </extensions>
      </trkpt>
      <trkpt lat="52.31741731055080890655517578125" lon="1.66712257079780101776123046875">
        <ele>-364</ele>
        <time>2025-09-07T11:35:23.000Z</time>
        <extensions>
          <ns3:TrackPointExtension>
            <ns3:hr>115</ns3:hr>
            <ns3:cad>60</ns3:cad>
          </ns3:TrackPointExtension>
        </extensions>
      </trkpt>
      <trkpt lat="52.317370288074016571044921875" lon="1.66719297878444194793701171875">
        <ele>-364.399993896484375</ele>
        <time>2025-09-07T11:35:27.000Z</time>
        <extensions>
          <ns3:TrackPointExtension>
            <ns3:hr>114</ns3:hr>
            <ns3:cad>58</ns3:cad>
          </ns3:TrackPointExtension>
        </extensions>
      </trkpt>
      <trkpt lat="52.31732863001525402069091796875" lon="1.6672599501907825469970703125">
        <ele>-365</ele>
        <time>2025-09-07T11:35:32.000Z</time>
        <extensions>
          <ns3:TrackPointExtension>
            <ns3:hr>111</ns3:hr>
            <ns3:cad>59</ns3:cad>
          </ns3:TrackPointExtension>
        </extensions>
      </trkpt>
      <trkpt lat="52.317319996654987335205078125" lon="1.66727378033101558685302734375">
        <ele>-365.20001220703125</ele>
        <time>2025-09-07T11:35:33.000Z</time>
        <extensions>
          <ns3:TrackPointExtension>
            <ns3:hr>110</ns3:hr>
            <ns3:cad>58</ns3:cad>
          </ns3:TrackPointExtension>
        </extensions>
      </trkpt>
      <trkpt lat="52.31729275546967983245849609375" lon="1.6673129238188266754150390625">
        <ele>-365.600006103515625</ele>
        <time>2025-09-07T11:35:36.000Z</time>
        <extensions>
          <ns3:TrackPointExtension>
            <ns3:hr>110</ns3:hr>
            <ns3:cad>59</ns3:cad>
          </ns3:TrackPointExtension>
        </extensions>
      </trkpt>
      <trkpt lat="52.31727180071175098419189453125" lon="1.6673555038869380950927734375">
        <ele>-365.79998779296875</ele>
        <time>2025-09-07T11:35:39.000Z</time>
        <extensions>
          <ns3:TrackPointExtension>
            <ns3:hr>112</ns3:hr>
            <ns3:cad>58</ns3:cad>
          </ns3:TrackPointExtension>
        </extensions>
      </trkpt>
      <trkpt lat="52.3172383569180965423583984375" lon="1.667417027056217193603515625">
        <ele>-366.20001220703125</ele>
        <time>2025-09-07T11:35:43.000Z</time>
        <extensions>
          <ns3:TrackPointExtension>
            <ns3:hr>113</ns3:hr>
            <ns3:cad>58</ns3:cad>
          </ns3:TrackPointExtension>
        </extensions>
      </trkpt>
      <trkpt lat="52.317233495414257049560546875" lon="1.66743136011064052581787109375">
        <ele>-366.399993896484375</ele>
        <time>2025-09-07T11:35:44.000Z</time>
        <extensions>
          <ns3:TrackPointExtension>
            <ns3:hr>110</ns3:hr>
            <ns3:cad>58</ns3:cad>
          </ns3:TrackPointExtension>
        </extensions>
      </trkpt>
      <trkpt lat="52.31716283597052097320556640625" lon="1.66749321855604648590087890625">
        <ele>-367</ele>
        <time>2025-09-07T11:35:51.000Z</time>
        <extensions>
          <ns3:TrackPointExtension>
            <ns3:hr>107</ns3:hr>
            <ns3:cad>56</ns3:cad>
          </ns3:TrackPointExtension>
        </extensions>
      </trkpt>
      <trkpt lat="52.31714875437319278717041015625" lon="1.66750109754502773284912109375">
        <ele>-367</ele>
        <time>2025-09-07T11:35:52.000Z</time>
        <extensions>
          <ns3:TrackPointExtension>
            <ns3:hr>110</ns3:hr>
            <ns3:cad>57</ns3:cad>
          </ns3:TrackPointExtension>
        </extensions>
      </trkpt>
      <trkpt lat="52.317102737724781036376953125" lon="1.66753579862415790557861328125">
        <ele>-367.399993896484375</ele>
        <time>2025-09-07T11:35:56.000Z</time>
        <extensions>
          <ns3:TrackPointExtension>
            <ns3:hr>111</ns3:hr>
            <ns3:cad>58</ns3:cad>
          </ns3:TrackPointExtension>
        </extensions>
      </trkpt>
      <trkpt lat="52.31707667000591754913330078125" lon="1.667612828314304351806640625">
        <ele>-367.600006103515625</ele>
        <time>2025-09-07T11:36:00.000Z</time>
        <extensions>
          <ns3:TrackPointExtension>
            <ns3:hr>110</ns3:hr>
            <ns3:cad>59</ns3:cad>
          </ns3:TrackPointExtension>
        </extensions>
      </trkpt>
      <trkpt lat="52.31702201999723911285400390625" lon="1.6677323542535305023193359375">
        <ele>-368</ele>
        <time>2025-09-07T11:36:07.000Z</time>
        <extensions>
          <ns3:TrackPointExtension>
            <ns3:hr>108</ns3:hr>
            <ns3:cad>56</ns3:cad>
          </ns3:TrackPointExtension>
        </extensions>
      </trkpt>
      <trkpt lat="52.31701564975082874298095703125" lon="1.667742244899272918701171875">
        <ele>-368</ele>
        <time>2025-09-07T11:36:08.000Z</time>
        <extensions>
          <ns3:TrackPointExtension>
            <ns3:hr>109</ns3:hr>
            <ns3:cad>55</ns3:cad>
          </ns3:TrackPointExtension>
        </extensions>
      </trkpt>
      <trkpt lat="52.3170006461441516876220703125" lon="1.6677769459784030914306640625">
        <ele>-368</ele>
        <time>2025-09-07T11:36:10.000Z</time>
        <extensions>
          <ns3:TrackPointExtension>
            <ns3:hr>105</ns3:hr>
            <ns3:cad>56</ns3:cad>
          </ns3:TrackPointExtension>
        </extensions>
      </trkpt>
      <trkpt lat="52.31697860173881053924560546875" lon="1.667848527431488037109375">
        <ele>-368.20001220703125</ele>
        <time>2025-09-07T11:36:14.000Z</time>
        <extensions>
          <ns3:TrackPointExtension>
            <ns3:hr>107</ns3:hr>
            <ns3:cad>56</ns3:cad>
          </ns3:TrackPointExtension>
        </extensions>
      </trkpt>
      <trkpt lat="52.31697424314916133880615234375" lon="1.66787870228290557861328125">
        <ele>-368.399993896484375</ele>
        <time>2025-09-07T11:36:16.000Z</time>
        <extensions>
          <ns3:TrackPointExtension>
            <ns3:hr>109</ns3:hr>
            <ns3:cad>56</ns3:cad>
          </ns3:TrackPointExtension>
        </extensions>
      </trkpt>
      <trkpt lat="52.31694607995450496673583984375" lon="1.6680161654949188232421875">
        <ele>-368.399993896484375</ele>
        <time>2025-09-07T11:36:22.000Z</time>
        <extensions>
          <ns3:TrackPointExtension>
            <ns3:hr>110</ns3:hr>
            <ns3:cad>58</ns3:cad>
          </ns3:TrackPointExtension>
        </extensions>
      </trkpt>
      <trkpt lat="52.31685622595250606536865234375" lon="1.6681943647563457489013671875">
        <ele>-368.600006103515625</ele>
        <time>2025-09-07T11:36:32.000Z</time>
        <extensions>
          <ns3:TrackPointExtension>
            <ns3:hr>108</ns3:hr>
            <ns3:cad>55</ns3:cad>
          </ns3:TrackPointExtension>
        </extensions>
      </trkpt>
      <trkpt lat="52.3167646117508411407470703125" lon="1.66835504584014415740966796875">
        <ele>-368.600006103515625</ele>
        <time>2025-09-07T11:36:40.000Z</time>
        <extensions>
          <ns3:TrackPointExtension>
            <ns3:hr>108</ns3:hr>
            <ns3:cad>60</ns3:cad>
          </ns3:TrackPointExtension>
        </extensions>
      </trkpt>
      <trkpt lat="52.31670602224767208099365234375" lon="1.66843115352094173431396484375">
        <ele>-368.600006103515625</ele>
        <time>2025-09-07T11:36:47.000Z</time>
        <extensions>
          <ns3:TrackPointExtension>
            <ns3:hr>110</ns3:hr>
            <ns3:cad>58</ns3:cad>
          </ns3:TrackPointExtension>
        </extensions>
      </trkpt>
      <trkpt lat="52.31668330729007720947265625" lon="1.66846853680908679962158203125">
        <ele>-368.600006103515625</ele>
        <time>2025-09-07T11:36:50.000Z</time>
        <extensions>
          <ns3:TrackPointExtension>
            <ns3:hr>107</ns3:hr>
            <ns3:cad>59</ns3:cad>
          </ns3:TrackPointExtension>
        </extensions>
      </trkpt>
      <trkpt lat="52.31664441525936126708984375" lon="1.66853525675833225250244140625">
        <ele>-368.600006103515625</ele>
        <time>2025-09-07T11:36:54.000Z</time>
        <extensions>
          <ns3:TrackPointExtension>
            <ns3:hr>106</ns3:hr>
            <ns3:cad>57</ns3:cad>
          </ns3:TrackPointExtension>
        </extensions>
      </trkpt>
      <trkpt lat="52.31656420044600963592529296875" lon="1.668705157935619354248046875">
        <ele>-368</ele>
        <time>2025-09-07T11:37:03.000Z</time>
        <extensions>
          <ns3:TrackPointExtension>
            <ns3:hr>107</ns3:hr>
            <ns3:cad>56</ns3:cad>
          </ns3:TrackPointExtension>
        </extensions>
      </trkpt>
      <trkpt lat="52.3165201954543590545654296875" lon="1.66880917735397815704345703125">
        <ele>-367.600006103515625</ele>
        <time>2025-09-07T11:37:10.000Z</time>
        <extensions>
          <ns3:TrackPointExtension>
            <ns3:hr>109</ns3:hr>
            <ns3:cad>54</ns3:cad>
          </ns3:TrackPointExtension>
        </extensions>
      </trkpt>
      <trkpt lat="52.31646177358925342559814453125" lon="1.66890657506883144378662109375">
        <ele>-367.79998779296875</ele>
        <time>2025-09-07T11:37:16.000Z</time>
        <extensions>
          <ns3:TrackPointExtension>
            <ns3:hr>106</ns3:hr>
            <ns3:cad>61</ns3:cad>
          </ns3:TrackPointExtension>
        </extensions>
      </trkpt>
      <trkpt lat="52.316408045589923858642578125" lon="1.66899810545146465301513671875">
        <ele>-368</ele>
        <time>2025-09-07T11:37:21.000Z</time>
        <extensions>
          <ns3:TrackPointExtension>
            <ns3:hr>108</ns3:hr>
            <ns3:cad>61</ns3:cad>
          </ns3:TrackPointExtension>
        </extensions>
      </trkpt>
      <trkpt lat="52.31639765202999114990234375" lon="1.66901738382875919342041015625">
        <ele>-368</ele>
        <time>2025-09-07T11:37:22.000Z</time>
        <extensions>
          <ns3:TrackPointExtension>
            <ns3:hr>105</ns3:hr>
            <ns3:cad>61</ns3:cad>
          </ns3:TrackPointExtension>
        </extensions>
      </trkpt>
      <trkpt lat="52.31637828983366489410400390625" lon="1.6690543480217456817626953125">
        <ele>-368</ele>
        <time>2025-09-07T11:37:24.000Z</time>
        <extensions>
          <ns3:TrackPointExtension>
            <ns3:hr>108</ns3:hr>
            <ns3:cad>61</ns3:cad>
          </ns3:TrackPointExtension>
        </extensions>
      </trkpt>
      <trkpt lat="52.3163512162864208221435546875" lon="1.66909600608050823211669921875">
        <ele>-368.20001220703125</ele>
        <time>2025-09-07T11:37:27.000Z</time>
        <extensions>
          <ns3:TrackPointExtension>
            <ns3:hr>111</ns3:hr>
            <ns3:cad>60</ns3:cad>
          </ns3:TrackPointExtension>
        </extensions>
      </trkpt>
      <trkpt lat="52.31634157709777355194091796875" lon="1.669109500944614410400390625">
        <ele>-368.20001220703125</ele>
        <time>2025-09-07T11:37:28.000Z</time>
        <extensions>
          <ns3:TrackPointExtension>
            <ns3:hr>111</ns3:hr>
            <ns3:cad>61</ns3:cad>
          </ns3:TrackPointExtension>
        </extensions>
      </trkpt>
      <trkpt lat="52.3162995837628841400146484375" lon="1.669182591140270233154296875">
        <ele>-368.20001220703125</ele>
        <time>2025-09-07T11:37:32.000Z</time>
        <extensions>
          <ns3:TrackPointExtension>
            <ns3:hr>108</ns3:hr>
            <ns3:cad>61</ns3:cad>
          </ns3:TrackPointExtension>
        </extensions>
      </trkpt>
      <trkpt lat="52.31627787463366985321044921875" lon="1.66924185119569301605224609375">
        <ele>-367.399993896484375</ele>
        <time>2025-09-07T11:37:36.000Z</time>
        <extensions>
          <ns3:TrackPointExtension>
            <ns3:hr>107</ns3:hr>
            <ns3:cad>59</ns3:cad>
          </ns3:TrackPointExtension>
        </extensions>
      </trkpt>
      <trkpt lat="52.316277287900447845458984375" lon="1.669251658022403717041015625">
        <ele>-367.20001220703125</ele>
        <time>2025-09-07T11:37:37.000Z</time>
        <extensions>
          <ns3:TrackPointExtension>
            <ns3:hr>109</ns3:hr>
            <ns3:cad>59</ns3:cad>
          </ns3:TrackPointExtension>
        </extensions>
      </trkpt>
      <trkpt lat="52.3162751086056232452392578125" lon="1.66929088532924652099609375">
        <ele>-366</ele>
        <time>2025-09-07T11:37:41.000Z</time>
        <extensions>
          <ns3:TrackPointExtension>
            <ns3:hr>108</ns3:hr>
            <ns3:cad>0</ns3:cad>
          </ns3:TrackPointExtension>
        </extensions>
      </trkpt>
      <trkpt lat="52.31626144610345363616943359375" lon="1.6693282686173915863037109375">
        <ele>-365</ele>
        <time>2025-09-07T11:37:44.000Z</time>
        <extensions>
          <ns3:TrackPointExtension>
            <ns3:hr>113</ns3:hr>
            <ns3:cad>42</ns3:cad>
          </ns3:TrackPointExtension>
        </extensions>
      </trkpt>
      <trkpt lat="52.31625842861831188201904296875" lon="1.66933472268283367156982421875">
        <ele>-364.600006103515625</ele>
        <time>2025-09-07T11:37:45.000Z</time>
        <extensions>
          <ns3:TrackPointExtension>
            <ns3:hr>114</ns3:hr>
            <ns3:cad>42</ns3:cad>
          </ns3:TrackPointExtension>
        </extensions>
      </trkpt>
      <trkpt lat="52.316252477467060089111328125" lon="1.6693503968417644500732421875">
        <ele>-363.79998779296875</ele>
        <time>2025-09-07T11:37:47.000Z</time>
        <extensions>
          <ns3:TrackPointExtension>
            <ns3:hr>115</ns3:hr>
            <ns3:cad>49</ns3:cad>
          </ns3:TrackPointExtension>
        </extensions>
      </trkpt>
      <trkpt lat="52.3162372224032878875732421875" lon="1.6693721897900104522705078125">
        <ele>-362.600006103515625</ele>
        <time>2025-09-07T11:37:50.000Z</time>
        <extensions>
          <ns3:TrackPointExtension>
            <ns3:hr>113</ns3:hr>
            <ns3:cad>0</ns3:cad>
          </ns3:TrackPointExtension>
        </extensions>
      </trkpt>
      <trkpt lat="52.31625960208475589752197265625" lon="1.66937059722840785980224609375">
        <ele>-361.399993896484375</ele>
        <time>2025-09-07T11:37:53.000Z</time>
        <extensions>
          <ns3:TrackPointExtension>
            <ns3:hr>114</ns3:hr>
            <ns3:cad>55</ns3:cad>
          </ns3:TrackPointExtension>
        </extensions>
      </trkpt>
      <trkpt lat="52.31626764871180057525634765625" lon="1.6693671606481075286865234375">
        <ele>-361</ele>
        <time>2025-09-07T11:37:54.000Z</time>
        <extensions>
          <ns3:TrackPointExtension>
            <ns3:hr>113</ns3:hr>
            <ns3:cad>53</ns3:cad>
          </ns3:TrackPointExtension>
        </extensions>
      </trkpt>
      <trkpt lat="52.3162787966430187225341796875" lon="1.6693674959242343902587890625">
        <ele>-360.20001220703125</ele>
        <time>2025-09-07T11:37:56.000Z</time>
        <extensions>
          <ns3:TrackPointExtension>
            <ns3:hr>111</ns3:hr>
            <ns3:cad>0</ns3:cad>
          </ns3:TrackPointExtension>
        </extensions>
      </trkpt>
      <trkpt lat="52.31629983521997928619384765625" lon="1.66939205490052700042724609375">
        <ele>-359.20001220703125</ele>
        <time>2025-09-07T11:37:59.000Z</time>
        <extensions>
          <ns3:TrackPointExtension>
            <ns3:hr>110</ns3:hr>
            <ns3:cad>54</ns3:cad>
          </ns3:TrackPointExtension>
        </extensions>
      </trkpt>
      <trkpt lat="52.31631928123533725738525390625" lon="1.66941166855394840240478515625">
        <ele>-358.399993896484375</ele>
        <time>2025-09-07T11:38:01.000Z</time>
        <extensions>
          <ns3:TrackPointExtension>
            <ns3:hr>114</ns3:hr>
            <ns3:cad>54</ns3:cad>
          </ns3:TrackPointExtension>
        </extensions>
      </trkpt>
      <trkpt lat="52.31632933951914310455322265625" lon="1.66942088864743709564208984375">
        <ele>-358</ele>
        <time>2025-09-07T11:38:02.000Z</time>
        <extensions>
          <ns3:TrackPointExtension>
            <ns3:hr>112</ns3:hr>
            <ns3:cad>56</ns3:cad>
          </ns3:TrackPointExtension>
        </extensions>
      </trkpt>
      <trkpt lat="52.3163639567792415618896484375" lon="1.66945290751755237579345703125">
        <ele>-356.79998779296875</ele>
        <time>2025-09-07T11:38:05.000Z</time>
        <extensions>
          <ns3:TrackPointExtension>
            <ns3:hr>114</ns3:hr>
            <ns3:cad>58</ns3:cad>
          </ns3:TrackPointExtension>
        </extensions>
      </trkpt>
      <trkpt lat="52.3164041899144649505615234375" lon="1.66948945261538028717041015625">
        <ele>-355.600006103515625</ele>
        <time>2025-09-07T11:38:08.000Z</time>
        <extensions>
          <ns3:TrackPointExtension>
            <ns3:hr>115</ns3:hr>
            <ns3:cad>58</ns3:cad>
          </ns3:TrackPointExtension>
        </extensions>
      </trkpt>
      <trkpt lat="52.3164427466690540313720703125" lon="1.6695267520844936370849609375">
        <ele>-354.399993896484375</ele>
        <time>2025-09-07T11:38:11.000Z</time>
        <extensions>
          <ns3:TrackPointExtension>
            <ns3:hr>115</ns3:hr>
            <ns3:cad>61</ns3:cad>
          </ns3:TrackPointExtension>
        </extensions>
      </trkpt>
      <trkpt lat="52.3164481110870838165283203125" lon="1.66953203268349170684814453125">
        <ele>-353.20001220703125</ele>
        <time>2025-09-07T11:38:14.000Z</time>
        <extensions>
          <ns3:TrackPointExtension>
            <ns3:hr>115</ns3:hr>
            <ns3:cad>0</ns3:cad>
          </ns3:TrackPointExtension>
        </extensions>
      </trkpt>
      <trkpt lat="52.31645255349576473236083984375" lon="1.6695575974881649017333984375">
        <ele>-352.20001220703125</ele>
        <time>2025-09-07T11:38:17.000Z</time>
        <extensions>
          <ns3:TrackPointExtension>
            <ns3:hr>114</ns3:hr>
            <ns3:cad>0</ns3:cad>
          </ns3:TrackPointExtension>
        </extensions>
      </trkpt>
      <trkpt lat="52.31646311469376087188720703125" lon="1.66958567686378955841064453125">
        <ele>-351</ele>
        <time>2025-09-07T11:38:20.000Z</time>
        <extensions>
          <ns3:TrackPointExtension>
            <ns3:hr>111</ns3:hr>
            <ns3:cad>49</ns3:cad>
          </ns3:TrackPointExtension>
        </extensions>
      </trkpt>
      <trkpt lat="52.31647250242531299591064453125" lon="1.66960277594625949859619140625">
        <ele>-350.399993896484375</ele>
        <time>2025-09-07T11:38:22.000Z</time>
        <extensions>
          <ns3:TrackPointExtension>
            <ns3:hr>112</ns3:hr>
            <ns3:cad>52</ns3:cad>
          </ns3:TrackPointExtension>
        </extensions>
      </trkpt>
      <trkpt lat="52.31647987850010395050048828125" lon="1.6696115769445896148681640625">
        <ele>-350</ele>
        <time>2025-09-07T11:38:23.000Z</time>
        <extensions>
          <ns3:TrackPointExtension>
            <ns3:hr>112</ns3:hr>
            <ns3:cad>52</ns3:cad>
          </ns3:TrackPointExtension>
        </extensions>
      </trkpt>
      <trkpt lat="52.316513322293758392333984375" lon="1.6696625389158725738525390625">
        <ele>-348.600006103515625</ele>
        <time>2025-09-07T11:38:27.000Z</time>
        <extensions>
          <ns3:TrackPointExtension>
            <ns3:hr>113</ns3:hr>
            <ns3:cad>53</ns3:cad>
          </ns3:TrackPointExtension>
        </extensions>
      </trkpt>
      <trkpt lat="52.31654391624033451080322265625" lon="1.66970738209784030914306640625">
        <ele>-347.399993896484375</ele>
        <time>2025-09-07T11:38:31.000Z</time>
        <extensions>
          <ns3:TrackPointExtension>
            <ns3:hr>112</ns3:hr>
            <ns3:cad>54</ns3:cad>
          </ns3:TrackPointExtension>
        </extensions>
      </trkpt>
      <trkpt lat="52.316581718623638153076171875" lon="1.66974158026278018951416015625">
        <ele>-346.399993896484375</ele>
        <time>2025-09-07T11:38:34.000Z</time>
        <extensions>
          <ns3:TrackPointExtension>
            <ns3:hr>112</ns3:hr>
            <ns3:cad>56</ns3:cad>
          </ns3:TrackPointExtension>
        </extensions>
      </trkpt>
      <trkpt lat="52.31659588403999805450439453125" lon="1.66975599713623523712158203125">
        <ele>-346.20001220703125</ele>
        <time>2025-09-07T11:38:35.000Z</time>
        <extensions>
          <ns3:TrackPointExtension>
            <ns3:hr>114</ns3:hr>
            <ns3:cad>58</ns3:cad>
          </ns3:TrackPointExtension>
        </extensions>
      </trkpt>
      <trkpt lat="52.31664575636386871337890625" lon="1.66980528272688388824462890625">
        <ele>-345</ele>
        <time>2025-09-07T11:38:39.000Z</time>
        <extensions>
          <ns3:TrackPointExtension>
            <ns3:hr>115</ns3:hr>
            <ns3:cad>58</ns3:cad>
          </ns3:TrackPointExtension>
        </extensions>
      </trkpt>
      <trkpt lat="52.31668121181428432464599609375" lon="1.66984015144407749176025390625">
        <ele>-344</ele>
        <time>2025-09-07T11:38:43.000Z</time>
        <extensions>
          <ns3:TrackPointExtension>
            <ns3:hr>115</ns3:hr>
            <ns3:cad>60</ns3:cad>
          </ns3:TrackPointExtension>
        </extensions>
      </trkpt>
      <trkpt lat="52.316692359745502471923828125" lon="1.66985171847045421600341796875">
        <ele>-343.600006103515625</ele>
        <time>2025-09-07T11:38:44.000Z</time>
        <extensions>
          <ns3:TrackPointExtension>
            <ns3:hr>115</ns3:hr>
            <ns3:cad>60</ns3:cad>
          </ns3:TrackPointExtension>
        </extensions>
      </trkpt>
      <trkpt lat="52.316743321716785430908203125" lon="1.66990737430751323699951171875">
        <ele>-342.79998779296875</ele>
        <time>2025-09-07T11:38:48.000Z</time>
        <extensions>
          <ns3:TrackPointExtension>
            <ns3:hr>114</ns3:hr>
            <ns3:cad>56</ns3:cad>
          </ns3:TrackPointExtension>
        </extensions>
      </trkpt>
      <trkpt lat="52.31676419265568256378173828125" lon="1.669940985739231109619140625">
        <ele>-342.600006103515625</ele>
        <time>2025-09-07T11:38:50.000Z</time>
        <extensions>
          <ns3:TrackPointExtension>
            <ns3:hr>111</ns3:hr>
            <ns3:cad>56</ns3:cad>
          </ns3:TrackPointExtension>
        </extensions>
      </trkpt>
      <trkpt lat="52.3168045096099376678466796875" lon="1.6699776984751224517822265625">
        <ele>-342</ele>
        <time>2025-09-07T11:38:53.000Z</time>
        <extensions>
          <ns3:TrackPointExtension>
            <ns3:hr>110</ns3:hr>
            <ns3:cad>56</ns3:cad>
          </ns3:TrackPointExtension>
        </extensions>
      </trkpt>
      <trkpt lat="52.31682018376886844635009765625" lon="1.66998465545475482940673828125">
        <ele>-341.79998779296875</ele>
        <time>2025-09-07T11:38:54.000Z</time>
        <extensions>
          <ns3:TrackPointExtension>
            <ns3:hr>112</ns3:hr>
            <ns3:cad>56</ns3:cad>
          </ns3:TrackPointExtension>
        </extensions>
      </trkpt>
      <trkpt lat="52.31684868223965167999267578125" lon="1.66999001987278461456298828125">
        <ele>-341.600006103515625</ele>
        <time>2025-09-07T11:38:56.000Z</time>
        <extensions>
          <ns3:TrackPointExtension>
            <ns3:hr>109</ns3:hr>
            <ns3:cad>50</ns3:cad>
          </ns3:TrackPointExtension>
        </extensions>
      </trkpt>
      <trkpt lat="52.3168692179024219512939453125" lon="1.67000435292720794677734375">
        <ele>-341.399993896484375</ele>
        <time>2025-09-07T11:38:59.000Z</time>
        <extensions>
          <ns3:TrackPointExtension>
            <ns3:hr>109</ns3:hr>
            <ns3:cad>48</ns3:cad>
          </ns3:TrackPointExtension>
        </extensions>
      </trkpt>
      <trkpt lat="52.31693149544298648834228515625" lon="1.6700531356036663055419921875">
        <ele>-342.20001220703125</ele>
        <time>2025-09-07T11:39:07.000Z</time>
        <extensions>
          <ns3:TrackPointExtension>
            <ns3:hr>107</ns3:hr>
            <ns3:cad>0</ns3:cad>
          </ns3:TrackPointExtension>
        </extensions>
      </trkpt>
      <trkpt lat="52.316993772983551025390625" lon="1.67009093798696994781494140625">
        <ele>-343</ele>
        <time>2025-09-07T11:39:12.000Z</time>
        <extensions>
          <ns3:TrackPointExtension>
            <ns3:hr>109</ns3:hr>
            <ns3:cad>56</ns3:cad>
          </ns3:TrackPointExtension>
        </extensions>
      </trkpt>
      <trkpt lat="52.3170170746743679046630859375" lon="1.6700967215001583099365234375">
        <ele>-343.600006103515625</ele>
        <time>2025-09-07T11:39:14.000Z</time>
        <extensions>
          <ns3:TrackPointExtension>
            <ns3:hr>106</ns3:hr>
            <ns3:cad>56</ns3:cad>
          </ns3:TrackPointExtension>
        </extensions>
      </trkpt>
      <trkpt lat="52.3170407116413116455078125" lon="1.670109964907169342041015625">
        <ele>-344.399993896484375</ele>
        <time>2025-09-07T11:39:16.000Z</time>
        <extensions>
          <ns3:TrackPointExtension>
            <ns3:hr>108</ns3:hr>
            <ns3:cad>56</ns3:cad>
          </ns3:TrackPointExtension>
        </extensions>
      </trkpt>
      <trkpt lat="52.31706962920725345611572265625" lon="1.67012547142803668975830078125">
        <ele>-345.399993896484375</ele>
        <time>2025-09-07T11:39:19.000Z</time>
        <extensions>
          <ns3:TrackPointExtension>
            <ns3:hr>108</ns3:hr>
            <ns3:cad>55</ns3:cad>
          </ns3:TrackPointExtension>
        </extensions>
      </trkpt>
      <trkpt lat="52.317082621157169342041015625" lon="1.67013670317828655242919921875">
        <ele>-346.20001220703125</ele>
        <time>2025-09-07T11:39:21.000Z</time>
        <extensions>
          <ns3:TrackPointExtension>
            <ns3:hr>109</ns3:hr>
            <ns3:cad>55</ns3:cad>
          </ns3:TrackPointExtension>
        </extensions>
      </trkpt>
      <trkpt lat="52.31708924286067485809326171875" lon="1.67014592327177524566650390625">
        <ele>-346.399993896484375</ele>
        <time>2025-09-07T11:39:22.000Z</time>
        <extensions>
          <ns3:TrackPointExtension>
            <ns3:hr>108</ns3:hr>
            <ns3:cad>56</ns3:cad>
          </ns3:TrackPointExtension>
        </extensions>
      </trkpt>
      <trkpt lat="52.317110784351825714111328125" lon="1.6701728291809558868408203125">
        <ele>-347.600006103515625</ele>
        <time>2025-09-07T11:39:25.000Z</time>
        <extensions>
          <ns3:TrackPointExtension>
            <ns3:hr>108</ns3:hr>
            <ns3:cad>56</ns3:cad>
          </ns3:TrackPointExtension>
        </extensions>
      </trkpt>
      <trkpt lat="52.3171277157962322235107421875" lon="1.67018079198896884918212890625">
        <ele>-348.600006103515625</ele>
        <time>2025-09-07T11:39:28.000Z</time>
        <extensions>
          <ns3:TrackPointExtension>
            <ns3:hr>108</ns3:hr>
            <ns3:cad>0</ns3:cad>
          </ns3:TrackPointExtension>
        </extensions>
      </trkpt>
      <trkpt lat="52.31713098473846912384033203125" lon="1.67018163017928600311279296875">
        <ele>-349</ele>
        <time>2025-09-07T11:39:29.000Z</time>
        <extensions>
          <ns3:TrackPointExtension>
            <ns3:hr>111</ns3:hr>
            <ns3:cad>0</ns3:cad>
          </ns3:TrackPointExtension>
        </extensions>
      </trkpt>
      <trkpt lat="52.31713718734681606292724609375" lon="1.6701956279575824737548828125">
        <ele>-349.79998779296875</ele>
        <time>2025-09-07T11:39:31.000Z</time>
        <extensions>
          <ns3:TrackPointExtension>
            <ns3:hr>109</ns3:hr>
            <ns3:cad>0</ns3:cad>
          </ns3:TrackPointExtension>
        </extensions>
      </trkpt>
      <trkpt lat="52.3171371035277843475341796875" lon="1.670209877192974090576171875">
        <ele>-350.79998779296875</ele>
        <time>2025-09-07T11:39:34.000Z</time>
        <extensions>
          <ns3:TrackPointExtension>
            <ns3:hr>109</ns3:hr>
            <ns3:cad>0</ns3:cad>
          </ns3:TrackPointExtension>
        </extensions>
      </trkpt>
      <trkpt lat="52.31713919900357723236083984375" lon="1.670217253267765045166015625">
        <ele>-351</ele>
        <time>2025-09-07T11:39:35.000Z</time>
        <extensions>
          <ns3:TrackPointExtension>
            <ns3:hr>107</ns3:hr>
            <ns3:cad>0</ns3:cad>
          </ns3:TrackPointExtension>
        </extensions>
      </trkpt>
      <trkpt lat="52.31715562753379344940185546875" lon="1.670223958790302276611328125">
        <ele>-351.79998779296875</ele>
        <time>2025-09-07T11:39:37.000Z</time>
        <extensions>
          <ns3:TrackPointExtension>
            <ns3:hr>110</ns3:hr>
            <ns3:cad>0</ns3:cad>
          </ns3:TrackPointExtension>
        </extensions>
      </trkpt>
      <trkpt lat="52.317167781293392181396484375" lon="1.67022655718028545379638671875">
        <ele>-352</ele>
        <time>2025-09-07T11:39:38.000Z</time>
        <extensions>
          <ns3:TrackPointExtension>
            <ns3:hr>109</ns3:hr>
            <ns3:cad>0</ns3:cad>
          </ns3:TrackPointExtension>
        </extensions>
      </trkpt>
      <trkpt lat="52.3172209225594997406005859375" lon="1.6702231205999851226806640625">
        <ele>-353.20001220703125</ele>
        <time>2025-09-07T11:39:43.000Z</time>
        <extensions>
          <ns3:TrackPointExtension>
            <ns3:hr>109</ns3:hr>
            <ns3:cad>59</ns3:cad>
          </ns3:TrackPointExtension>
        </extensions>
      </trkpt>
      <trkpt lat="52.31726962141692638397216796875" lon="1.6702187620103359222412109375">
        <ele>-354.20001220703125</ele>
        <time>2025-09-07T11:39:48.000Z</time>
        <extensions>
          <ns3:TrackPointExtension>
            <ns3:hr>111</ns3:hr>
            <ns3:cad>60</ns3:cad>
          </ns3:TrackPointExtension>
        </extensions>
      </trkpt>
      <trkpt lat="52.3172879777848720550537109375" lon="1.67022303678095340728759765625">
        <ele>-354.399993896484375</ele>
        <time>2025-09-07T11:39:49.000Z</time>
        <extensions>
          <ns3:TrackPointExtension>
            <ns3:hr>112</ns3:hr>
            <ns3:cad>61</ns3:cad>
          </ns3:TrackPointExtension>
        </extensions>
      </trkpt>
      <trkpt lat="52.31729996390640735626220703125" lon="1.67022764682769775390625">
        <ele>-351.600006103515625</ele>
        <time>2025-09-07T11:39:50.000Z</time>
        <extensions>
          <ns3:TrackPointExtension>
            <ns3:hr>112</ns3:hr>
            <ns3:cad>60</ns3:cad>
          </ns3:TrackPointExtension>
        </extensions>
      </trkpt>
      <trkpt lat="52.31731102801859378814697265625" lon="1.6702316701412200927734375">
        <ele>-348.79998779296875</ele>
        <time>2025-09-07T11:39:51.000Z</time>
        <extensions>
          <ns3:TrackPointExtension>
            <ns3:hr>111</ns3:hr>
            <ns3:cad>60</ns3:cad>
          </ns3:TrackPointExtension>
        </extensions>
      </trkpt>
      <trkpt lat="52.31732108630239963531494140625" lon="1.67023502290248870849609375">
        <ele>-346.20001220703125</ele>
        <time>2025-09-07T11:39:52.000Z</time>
        <extensions>
          <ns3:TrackPointExtension>
            <ns3:hr>113</ns3:hr>
            <ns3:cad>60</ns3:cad>
          </ns3:TrackPointExtension>
        </extensions>
      </trkpt>
      <trkpt lat="52.3173315636813640594482421875" lon="1.670241393148899078369140625">
        <ele>-343.399993896484375</ele>
        <time>2025-09-07T11:39:53.000Z</time>
        <extensions>
          <ns3:TrackPointExtension>
            <ns3:hr>112</ns3:hr>
            <ns3:cad>60</ns3:cad>
          </ns3:TrackPointExtension>
        </extensions>
      </trkpt>
      <trkpt lat="52.317341454327106475830078125" lon="1.67024583555757999420166015625">
        <ele>-340.79998779296875</ele>
        <time>2025-09-07T11:39:54.000Z</time>
        <extensions>
          <ns3:TrackPointExtension>
            <ns3:hr>108</ns3:hr>
            <ns3:cad>60</ns3:cad>
          </ns3:TrackPointExtension>
        </extensions>
      </trkpt>
      <trkpt lat="52.31735042296350002288818359375" lon="1.6702569834887981414794921875">
        <ele>-338.20001220703125</ele>
        <time>2025-09-07T11:39:55.000Z</time>
        <extensions>
          <ns3:TrackPointExtension>
            <ns3:hr>108</ns3:hr>
            <ns3:cad>60</ns3:cad>
          </ns3:TrackPointExtension>
        </extensions>
      </trkpt>
      <trkpt lat="52.31736031360924243927001953125" lon="1.67026880197227001190185546875">
        <ele>-335.600006103515625</ele>
        <time>2025-09-07T11:39:56.000Z</time>
        <extensions>
          <ns3:TrackPointExtension>
            <ns3:hr>108</ns3:hr>
            <ns3:cad>60</ns3:cad>
          </ns3:TrackPointExtension>
        </extensions>
      </trkpt>
      <trkpt lat="52.3173681087791919708251953125" lon="1.67028036899864673614501953125">
        <ele>-333</ele>
        <time>2025-09-07T11:39:57.000Z</time>
        <extensions>
          <ns3:TrackPointExtension>
            <ns3:hr>107</ns3:hr>
            <ns3:cad>60</ns3:cad>
          </ns3:TrackPointExtension>
        </extensions>
      </trkpt>
      <trkpt lat="52.317373640835285186767578125" lon="1.6702905111014842987060546875">
        <ele>-330.399993896484375</ele>
        <time>2025-09-07T11:39:58.000Z</time>
        <extensions>
          <ns3:TrackPointExtension>
            <ns3:hr>107</ns3:hr>
            <ns3:cad>60</ns3:cad>
          </ns3:TrackPointExtension>
        </extensions>
      </trkpt>
      <trkpt lat="52.31737908907234668731689453125" lon="1.67029813863337039947509765625">
        <ele>-328</ele>
        <time>2025-09-07T11:39:59.000Z</time>
        <extensions>
          <ns3:TrackPointExtension>
            <ns3:hr>107</ns3:hr>
            <ns3:cad>60</ns3:cad>
          </ns3:TrackPointExtension>
        </extensions>
      </trkpt>
      <trkpt lat="52.31738411821424961090087890625" lon="1.670304425060749053955078125">
        <ele>-325.399993896484375</ele>
        <time>2025-09-07T11:40:00.000Z</time>
        <extensions>
          <ns3:TrackPointExtension>
            <ns3:hr>106</ns3:hr>
            <ns3:cad>60</ns3:cad>
          </ns3:TrackPointExtension>
        </extensions>
      </trkpt>
      <trkpt lat="52.31739166192710399627685546875" lon="1.67031255550682544708251953125">
        <ele>-323</ele>
        <time>2025-09-07T11:40:01.000Z</time>
        <extensions>
          <ns3:TrackPointExtension>
            <ns3:hr>108</ns3:hr>
            <ns3:cad>60</ns3:cad>
          </ns3:TrackPointExtension>
        </extensions>
      </trkpt>
      <trkpt lat="52.31740222312510013580322265625" lon="1.6703136451542377471923828125">
        <ele>-320.600006103515625</ele>
        <time>2025-09-07T11:40:02.000Z</time>
        <extensions>
          <ns3:TrackPointExtension>
            <ns3:hr>106</ns3:hr>
            <ns3:cad>59</ns3:cad>
          </ns3:TrackPointExtension>
        </extensions>
      </trkpt>
      <trkpt lat="52.31740959919989109039306640625" lon="1.67031926102936267852783203125">
        <ele>-318.20001220703125</ele>
        <time>2025-09-07T11:40:03.000Z</time>
        <extensions>
          <ns3:TrackPointExtension>
            <ns3:hr>106</ns3:hr>
            <ns3:cad>58</ns3:cad>
          </ns3:TrackPointExtension>
        </extensions>
      </trkpt>
      <trkpt lat="52.3174190707504749298095703125" lon="1.670326553285121917724609375">
        <ele>-315.79998779296875</ele>
        <time>2025-09-07T11:40:04.000Z</time>
        <extensions>
          <ns3:TrackPointExtension>
            <ns3:hr>106</ns3:hr>
            <ns3:cad>56</ns3:cad>
          </ns3:TrackPointExtension>
        </extensions>
      </trkpt>
      <trkpt lat="52.31743038631975650787353515625" lon="1.67033468373119831085205078125">
        <ele>-313.600006103515625</ele>
        <time>2025-09-07T11:40:05.000Z</time>
        <extensions>
          <ns3:TrackPointExtension>
            <ns3:hr>104</ns3:hr>
            <ns3:cad>55</ns3:cad>
          </ns3:TrackPointExtension>
        </extensions>
      </trkpt>
      <trkpt lat="52.317439354956150054931640625" lon="1.67034340091049671173095703125">
        <ele>-311.20001220703125</ele>
        <time>2025-09-07T11:40:06.000Z</time>
        <extensions>
          <ns3:TrackPointExtension>
            <ns3:hr>104</ns3:hr>
            <ns3:cad>54</ns3:cad>
          </ns3:TrackPointExtension>
        </extensions>
      </trkpt>
      <trkpt lat="52.31745117343962192535400390625" lon="1.6703495196998119354248046875">
        <ele>-309</ele>
        <time>2025-09-07T11:40:07.000Z</time>
        <extensions>
          <ns3:TrackPointExtension>
            <ns3:hr>104</ns3:hr>
            <ns3:cad>54</ns3:cad>
          </ns3:TrackPointExtension>
        </extensions>
      </trkpt>
      <trkpt lat="52.31746223755180835723876953125" lon="1.67035379447042942047119140625">
        <ele>-306.600006103515625</ele>
        <time>2025-09-07T11:40:08.000Z</time>
        <extensions>
          <ns3:TrackPointExtension>
            <ns3:hr>103</ns3:hr>
            <ns3:cad>0</ns3:cad>
          </ns3:TrackPointExtension>
        </extensions>
      </trkpt>
      <trkpt lat="52.31746944598853588104248046875" lon="1.67035572230815887451171875">
        <ele>-304.600006103515625</ele>
        <time>2025-09-07T11:40:09.000Z</time>
        <extensions>
          <ns3:TrackPointExtension>
            <ns3:hr>104</ns3:hr>
            <ns3:cad>0</ns3:cad>
          </ns3:TrackPointExtension>
        </extensions>
      </trkpt>
      <trkpt lat="52.31747187674045562744140625" lon="1.67034859769046306610107421875">
        <ele>-302.399993896484375</ele>
        <time>2025-09-07T11:40:10.000Z</time>
        <extensions>
          <ns3:TrackPointExtension>
            <ns3:hr>102</ns3:hr>
            <ns3:cad>0</ns3:cad>
          </ns3:TrackPointExtension>
        </extensions>
      </trkpt>
      <trkpt lat="52.31747631914913654327392578125" lon="1.6703485138714313507080078125">
        <ele>-300.20001220703125</ele>
        <time>2025-09-07T11:40:11.000Z</time>
        <extensions>
          <ns3:TrackPointExtension>
            <ns3:hr>102</ns3:hr>
            <ns3:cad>0</ns3:cad>
          </ns3:TrackPointExtension>
        </extensions>
      </trkpt>
      <trkpt lat="52.31748470105230808258056640625" lon="1.670351363718509674072265625">
        <ele>-298</ele>
        <time>2025-09-07T11:40:12.000Z</time>
        <extensions>
          <ns3:TrackPointExtension>
            <ns3:hr>102</ns3:hr>
            <ns3:cad>0</ns3:cad>
          </ns3:TrackPointExtension>
        </extensions>
      </trkpt>
      <trkpt lat="52.31749467551708221435546875" lon="1.67034172452986240386962890625">
        <ele>-296</ele>
        <time>2025-09-07T11:40:13.000Z</time>
        <extensions>
          <ns3:TrackPointExtension>
            <ns3:hr>104</ns3:hr>
            <ns3:cad>0</ns3:cad>
          </ns3:TrackPointExtension>
        </extensions>
      </trkpt>
      <trkpt lat="52.31750213541090488433837890625" lon="1.6703404672443866729736328125">
        <ele>-293.79998779296875</ele>
        <time>2025-09-07T11:40:14.000Z</time>
        <extensions>
          <ns3:TrackPointExtension>
            <ns3:hr>104</ns3:hr>
            <ns3:cad>0</ns3:cad>
          </ns3:TrackPointExtension>
        </extensions>
      </trkpt>
      <trkpt lat="52.31750112958252429962158203125" lon="1.670338623225688934326171875">
        <ele>-291.79998779296875</ele>
        <time>2025-09-07T11:40:15.000Z</time>
        <extensions>
          <ns3:TrackPointExtension>
            <ns3:hr>104</ns3:hr>
            <ns3:cad>0</ns3:cad>
          </ns3:TrackPointExtension>
        </extensions>
      </trkpt>
      <trkpt lat="52.31750565581023693084716796875" lon="1.67034407146275043487548828125">
        <ele>-289.79998779296875</ele>
        <time>2025-09-07T11:40:16.000Z</time>
        <extensions>
          <ns3:TrackPointExtension>
            <ns3:hr>102</ns3:hr>
            <ns3:cad>0</ns3:cad>
          </ns3:TrackPointExtension>
        </extensions>
      </trkpt>
      <trkpt lat="52.3175089247524738311767578125" lon="1.67034423910081386566162109375">
        <ele>-287.79998779296875</ele>
        <time>2025-09-07T11:40:17.000Z</time>
        <extensions>
          <ns3:TrackPointExtension>
            <ns3:hr>102</ns3:hr>
            <ns3:cad>0</ns3:cad>
          </ns3:TrackPointExtension>
        </extensions>
      </trkpt>
      <trkpt lat="52.3175100982189178466796875" lon="1.67034440673887729644775390625">
        <ele>-285.79998779296875</ele>
        <time>2025-09-07T11:40:18.000Z</time>
        <extensions>
          <ns3:TrackPointExtension>
            <ns3:hr>102</ns3:hr>
            <ns3:cad>0</ns3:cad>
          </ns3:TrackPointExtension>
        </extensions>
      </trkpt>
      <trkpt lat="52.317514456808567047119140625" lon="1.67034273035824298858642578125">
        <ele>-283.79998779296875</ele>
        <time>2025-09-07T11:40:19.000Z</time>
        <extensions>
          <ns3:TrackPointExtension>
            <ns3:hr>101</ns3:hr>
            <ns3:cad>0</ns3:cad>
          </ns3:TrackPointExtension>
        </extensions>
      </trkpt>
      <trkpt lat="52.31752057559788227081298828125" lon="1.67034440673887729644775390625">
        <ele>-281.79998779296875</ele>
        <time>2025-09-07T11:40:20.000Z</time>
        <extensions>
          <ns3:TrackPointExtension>
            <ns3:hr>101</ns3:hr>
            <ns3:cad>0</ns3:cad>
          </ns3:TrackPointExtension>
        </extensions>
      </trkpt>
      <trkpt lat="52.31752007268369197845458984375" lon="1.67033954523503780364990234375">
        <ele>-280</ele>
        <time>2025-09-07T11:40:21.000Z</time>
        <extensions>
          <ns3:TrackPointExtension>
            <ns3:hr>101</ns3:hr>
            <ns3:cad>0</ns3:cad>
          </ns3:TrackPointExtension>
        </extensions>
      </trkpt>
      <trkpt lat="52.3175223357975482940673828125" lon="1.67033719830214977264404296875">
        <ele>-278.20001220703125</ele>
        <time>2025-09-07T11:40:22.000Z</time>
        <extensions>
          <ns3:TrackPointExtension>
            <ns3:hr>101</ns3:hr>
            <ns3:cad>0</ns3:cad>
          </ns3:TrackPointExtension>
        </extensions>
      </trkpt>
      <trkpt lat="52.317524850368499755859375" lon="1.6703381203114986419677734375">
        <ele>-276.20001220703125</ele>
        <time>2025-09-07T11:40:23.000Z</time>
        <extensions>
          <ns3:TrackPointExtension>
            <ns3:hr>102</ns3:hr>
            <ns3:cad>0</ns3:cad>
          </ns3:TrackPointExtension>
        </extensions>
      </trkpt>
      <trkpt lat="52.3175275325775146484375" lon="1.67033837176859378814697265625">
        <ele>-274.600006103515625</ele>
        <time>2025-09-07T11:40:24.000Z</time>
        <extensions>
          <ns3:TrackPointExtension>
            <ns3:hr>102</ns3:hr>
            <ns3:cad>0</ns3:cad>
          </ns3:TrackPointExtension>
        </extensions>
      </trkpt>
      <trkpt lat="52.3175297118723392486572265625" lon="1.670341305434703826904296875">
        <ele>-272.79998779296875</ele>
        <time>2025-09-07T11:40:25.000Z</time>
        <extensions>
          <ns3:TrackPointExtension>
            <ns3:hr>102</ns3:hr>
            <ns3:cad>0</ns3:cad>
          </ns3:TrackPointExtension>
        </extensions>
      </trkpt>
      <trkpt lat="52.3175333999097347259521484375" lon="1.6703428141772747039794921875">
        <ele>-271.20001220703125</ele>
        <time>2025-09-07T11:40:26.000Z</time>
        <extensions>
          <ns3:TrackPointExtension>
            <ns3:hr>101</ns3:hr>
            <ns3:cad>0</ns3:cad>
          </ns3:TrackPointExtension>
        </extensions>
      </trkpt>
      <trkpt lat="52.31754002161324024200439453125" lon="1.67035304009914398193359375">
        <ele>-269.600006103515625</ele>
        <time>2025-09-07T11:40:27.000Z</time>
        <extensions>
          <ns3:TrackPointExtension>
            <ns3:hr>100</ns3:hr>
            <ns3:cad>0</ns3:cad>
          </ns3:TrackPointExtension>
        </extensions>
      </trkpt>
      <trkpt lat="52.31754153035581111907958984375" lon="1.670345328748226165771484375">
        <ele>-267.79998779296875</ele>
        <time>2025-09-07T11:40:28.000Z</time>
        <extensions>
          <ns3:TrackPointExtension>
            <ns3:hr>102</ns3:hr>
            <ns3:cad>0</ns3:cad>
          </ns3:TrackPointExtension>
        </extensions>
      </trkpt>
      <trkpt lat="52.31754370965063571929931640625" lon="1.6703424789011478424072265625">
        <ele>-266.20001220703125</ele>
        <time>2025-09-07T11:40:29.000Z</time>
        <extensions>
          <ns3:TrackPointExtension>
            <ns3:hr>102</ns3:hr>
            <ns3:cad>0</ns3:cad>
          </ns3:TrackPointExtension>
        </extensions>
      </trkpt>
      <trkpt lat="52.31754605658352375030517578125" lon="1.67034474201500415802001953125">
        <ele>-264.600006103515625</ele>
        <time>2025-09-07T11:40:30.000Z</time>
        <extensions>
          <ns3:TrackPointExtension>
            <ns3:hr>100</ns3:hr>
            <ns3:cad>0</ns3:cad>
          </ns3:TrackPointExtension>
        </extensions>
      </trkpt>
      <trkpt lat="52.31754387728869915008544921875" lon="1.67034490965306758880615234375">
        <ele>-263</ele>
        <time>2025-09-07T11:40:31.000Z</time>
        <extensions>
          <ns3:TrackPointExtension>
            <ns3:hr>100</ns3:hr>
            <ns3:cad>0</ns3:cad>
          </ns3:TrackPointExtension>
        </extensions>
      </trkpt>
      <trkpt lat="52.3175447992980480194091796875" lon="1.67034658603370189666748046875">
        <ele>-261.600006103515625</ele>
        <time>2025-09-07T11:40:32.000Z</time>
        <extensions>
          <ns3:TrackPointExtension>
            <ns3:hr>100</ns3:hr>
            <ns3:cad>0</ns3:cad>
          </ns3:TrackPointExtension>
        </extensions>
      </trkpt>
      <trkpt lat="52.31754563748836517333984375" lon="1.67034767568111419677734375">
        <ele>-260</ele>
        <time>2025-09-07T11:40:33.000Z</time>
        <extensions>
          <ns3:TrackPointExtension>
            <ns3:hr>101</ns3:hr>
            <ns3:cad>0</ns3:cad>
          </ns3:TrackPointExtension>
        </extensions>
      </trkpt>
      <trkpt lat="52.31754605658352375030517578125" lon="1.67034365236759185791015625">
        <ele>-258.399993896484375</ele>
        <time>2025-09-07T11:40:34.000Z</time>
        <extensions>
          <ns3:TrackPointExtension>
            <ns3:hr>100</ns3:hr>
            <ns3:cad>0</ns3:cad>
          </ns3:TrackPointExtension>
        </extensions>
      </trkpt>
      <trkpt lat="52.31754806824028491973876953125" lon="1.6703468374907970428466796875">
        <ele>-257</ele>
        <time>2025-09-07T11:40:35.000Z</time>
        <extensions>
          <ns3:TrackPointExtension>
            <ns3:hr>98</ns3:hr>
            <ns3:cad>0</ns3:cad>
          </ns3:TrackPointExtension>
        </extensions>
      </trkpt>
      <trkpt lat="52.3175441287457942962646484375" lon="1.67034256272017955780029296875">
        <ele>-255.399993896484375</ele>
        <time>2025-09-07T11:40:36.000Z</time>
        <extensions>
          <ns3:TrackPointExtension>
            <ns3:hr>96</ns3:hr>
            <ns3:cad>0</ns3:cad>
          </ns3:TrackPointExtension>
        </extensions>
      </trkpt>
      <trkpt lat="52.31754035688936710357666015625" lon="1.67034407146275043487548828125">
        <ele>-254</ele>
        <time>2025-09-07T11:40:37.000Z</time>
        <extensions>
          <ns3:TrackPointExtension>
            <ns3:hr>97</ns3:hr>
            <ns3:cad>0</ns3:cad>
          </ns3:TrackPointExtension>
        </extensions>
      </trkpt>
      <trkpt lat="52.31753985397517681121826171875" lon="1.67034641839563846588134765625">
        <ele>-252.399993896484375</ele>
        <time>2025-09-07T11:40:38.000Z</time>
        <extensions>
          <ns3:TrackPointExtension>
            <ns3:hr>103</ns3:hr>
            <ns3:cad>0</ns3:cad>
          </ns3:TrackPointExtension>
        </extensions>
      </trkpt>
      <trkpt lat="52.31754069216549396514892578125" lon="1.67034658603370189666748046875">
        <ele>-251</ele>
        <time>2025-09-07T11:40:39.000Z</time>
        <extensions>
          <ns3:TrackPointExtension>
            <ns3:hr>103</ns3:hr>
            <ns3:cad>0</ns3:cad>
          </ns3:TrackPointExtension>
        </extensions>
      </trkpt>
      <trkpt lat="52.31754270382225513458251953125" lon="1.6703468374907970428466796875">
        <ele>-249.399993896484375</ele>
        <time>2025-09-07T11:40:40.000Z</time>
        <extensions>
          <ns3:TrackPointExtension>
            <ns3:hr>103</ns3:hr>
            <ns3:cad>0</ns3:cad>
          </ns3:TrackPointExtension>
        </extensions>
      </trkpt>
      <trkpt lat="52.31754161417484283447265625" lon="1.670348010957241058349609375">
        <ele>-248</ele>
        <time>2025-09-07T11:40:41.000Z</time>
        <extensions>
          <ns3:TrackPointExtension>
            <ns3:hr>103</ns3:hr>
            <ns3:cad>0</ns3:cad>
          </ns3:TrackPointExtension>
        </extensions>
      </trkpt>
      <trkpt lat="52.31754320673644542694091796875" lon="1.67034725658595561981201171875">
        <ele>-246.600006103515625</ele>
        <time>2025-09-07T11:40:42.000Z</time>
        <extensions>
          <ns3:TrackPointExtension>
            <ns3:hr>104</ns3:hr>
            <ns3:cad>0</ns3:cad>
          </ns3:TrackPointExtension>
        </extensions>
      </trkpt>
      <trkpt lat="52.31754521839320659637451171875" lon="1.67033686302602291107177734375">
        <ele>-245.1999969482421875</ele>
        <time>2025-09-07T11:40:43.000Z</time>
        <extensions>
          <ns3:TrackPointExtension>
            <ns3:hr>104</ns3:hr>
            <ns3:cad>0</ns3:cad>
          </ns3:TrackPointExtension>
        </extensions>
      </trkpt>
      <trkpt lat="52.3175481520593166351318359375" lon="1.67033501900732517242431640625">
        <ele>-243.600006103515625</ele>
        <time>2025-09-07T11:40:44.000Z</time>
        <extensions>
          <ns3:TrackPointExtension>
            <ns3:hr>104</ns3:hr>
            <ns3:cad>0</ns3:cad>
          </ns3:TrackPointExtension>
        </extensions>
      </trkpt>
      <trkpt lat="52.31754756532609462738037109375" lon="1.6703317500650882720947265625">
        <ele>-242.1999969482421875</ele>
        <time>2025-09-07T11:40:45.000Z</time>
        <extensions>
          <ns3:TrackPointExtension>
            <ns3:hr>104</ns3:hr>
            <ns3:cad>0</ns3:cad>
          </ns3:TrackPointExtension>
        </extensions>
      </trkpt>
      <trkpt lat="52.317550666630268096923828125" lon="1.67033024132251739501953125">
        <ele>-240.8000030517578125</ele>
        <time>2025-09-07T11:40:46.000Z</time>
        <extensions>
          <ns3:TrackPointExtension>
            <ns3:hr>104</ns3:hr>
            <ns3:cad>0</ns3:cad>
          </ns3:TrackPointExtension>
        </extensions>
      </trkpt>
      <trkpt lat="52.31755343265831470489501953125" lon="1.6703267209231853485107421875">
        <ele>-239.600006103515625</ele>
        <time>2025-09-07T11:40:47.000Z</time>
        <extensions>
          <ns3:TrackPointExtension>
            <ns3:hr>104</ns3:hr>
            <ns3:cad>0</ns3:cad>
          </ns3:TrackPointExtension>
        </extensions>
      </trkpt>
      <trkpt lat="52.317556031048297882080078125" lon="1.67032781057059764862060546875">
        <ele>-238.1999969482421875</ele>
        <time>2025-09-07T11:40:48.000Z</time>
        <extensions>
          <ns3:TrackPointExtension>
            <ns3:hr>104</ns3:hr>
            <ns3:cad>0</ns3:cad>
          </ns3:TrackPointExtension>
        </extensions>
      </trkpt>
      <trkpt lat="52.31755913235247135162353515625" lon="1.6703287325799465179443359375">
        <ele>-236.8000030517578125</ele>
        <time>2025-09-07T11:40:49.000Z</time>
        <extensions>
          <ns3:TrackPointExtension>
            <ns3:hr>104</ns3:hr>
            <ns3:cad>0</ns3:cad>
          </ns3:TrackPointExtension>
        </extensions>
      </trkpt>
      <trkpt lat="52.31755929999053478240966796875" lon="1.67032890021800994873046875">
        <ele>-235.600006103515625</ele>
        <time>2025-09-07T11:40:50.000Z</time>
        <extensions>
          <ns3:TrackPointExtension>
            <ns3:hr>105</ns3:hr>
            <ns3:cad>0</ns3:cad>
          </ns3:TrackPointExtension>
        </extensions>
      </trkpt>
      <trkpt lat="52.31755946762859821319580078125" lon="1.67032898403704166412353515625">
        <ele>-234.399993896484375</ele>
        <time>2025-09-07T11:40:51.000Z</time>
        <extensions>
          <ns3:TrackPointExtension>
            <ns3:hr>104</ns3:hr>
            <ns3:cad>0</ns3:cad>
          </ns3:TrackPointExtension>
        </extensions>
      </trkpt>
      <trkpt lat="52.31755946762859821319580078125" lon="1.67032890021800994873046875">
        <ele>-233.1999969482421875</ele>
        <time>2025-09-07T11:40:52.000Z</time>
        <extensions>
          <ns3:TrackPointExtension>
            <ns3:hr>105</ns3:hr>
            <ns3:cad>0</ns3:cad>
          </ns3:TrackPointExtension>
        </extensions>
      </trkpt>
      <trkpt lat="52.3175585456192493438720703125" lon="1.67032864876091480255126953125">
        <ele>-232</ele>
        <time>2025-09-07T11:40:53.000Z</time>
        <extensions>
          <ns3:TrackPointExtension>
            <ns3:hr>105</ns3:hr>
            <ns3:cad>0</ns3:cad>
          </ns3:TrackPointExtension>
        </extensions>
      </trkpt>
      <trkpt lat="52.31755795888602733612060546875" lon="1.67033015750348567962646484375">
        <ele>-230.8000030517578125</ele>
        <time>2025-09-07T11:40:54.000Z</time>
        <extensions>
          <ns3:TrackPointExtension>
            <ns3:hr>106</ns3:hr>
            <ns3:cad>0</ns3:cad>
          </ns3:TrackPointExtension>
        </extensions>
      </trkpt>
      <trkpt lat="52.31755862943828105926513671875" lon="1.67033652774989604949951171875">
        <ele>-229.8000030517578125</ele>
        <time>2025-09-07T11:40:55.000Z</time>
        <extensions>
          <ns3:TrackPointExtension>
            <ns3:hr>104</ns3:hr>
            <ns3:cad>0</ns3:cad>
          </ns3:TrackPointExtension>
        </extensions>
      </trkpt>
      <trkpt lat="52.31756181456148624420166015625" lon="1.6703443229198455810546875">
        <ele>-228.600006103515625</ele>
        <time>2025-09-07T11:40:56.000Z</time>
        <extensions>
          <ns3:TrackPointExtension>
            <ns3:hr>105</ns3:hr>
            <ns3:cad>0</ns3:cad>
          </ns3:TrackPointExtension>
        </extensions>
      </trkpt>
      <trkpt lat="52.31756214983761310577392578125" lon="1.67035077698528766632080078125">
        <ele>-227.600006103515625</ele>
        <time>2025-09-07T11:40:57.000Z</time>
        <extensions>
          <ns3:TrackPointExtension>
            <ns3:hr>106</ns3:hr>
            <ns3:cad>0</ns3:cad>
          </ns3:TrackPointExtension>
        </extensions>
      </trkpt>
      <trkpt lat="52.31756567023694515228271484375" lon="1.670357398688793182373046875">
        <ele>-226.600006103515625</ele>
        <time>2025-09-07T11:40:58.000Z</time>
        <extensions>
          <ns3:TrackPointExtension>
            <ns3:hr>105</ns3:hr>
            <ns3:cad>0</ns3:cad>
          </ns3:TrackPointExtension>
        </extensions>
      </trkpt>
      <trkpt lat="52.31757254339754581451416015625" lon="1.67037785053253173828125">
        <ele>-225.600006103515625</ele>
        <time>2025-09-07T11:40:59.000Z</time>
        <extensions>
          <ns3:TrackPointExtension>
            <ns3:hr>104</ns3:hr>
            <ns3:cad>55</ns3:cad>
          </ns3:TrackPointExtension>
        </extensions>
      </trkpt>
      <trkpt lat="52.3175798356533050537109375" lon="1.670393608510494232177734375">
        <ele>-224.600006103515625</ele>
        <time>2025-09-07T11:41:00.000Z</time>
        <extensions>
          <ns3:TrackPointExtension>
            <ns3:hr>104</ns3:hr>
            <ns3:cad>57</ns3:cad>
          </ns3:TrackPointExtension>
        </extensions>
      </trkpt>
      <trkpt lat="52.31758679263293743133544921875" lon="1.6704041697084903717041015625">
        <ele>-223.600006103515625</ele>
        <time>2025-09-07T11:41:01.000Z</time>
        <extensions>
          <ns3:TrackPointExtension>
            <ns3:hr>104</ns3:hr>
            <ns3:cad>57</ns3:cad>
          </ns3:TrackPointExtension>
        </extensions>
      </trkpt>
      <trkpt lat="52.317605316638946533203125" lon="1.6704212687909603118896484375">
        <ele>-221.600006103515625</ele>
        <time>2025-09-07T11:41:03.000Z</time>
        <extensions>
          <ns3:TrackPointExtension>
            <ns3:hr>104</ns3:hr>
            <ns3:cad>57</ns3:cad>
          </ns3:TrackPointExtension>
        </extensions>
      </trkpt>
      <trkpt lat="52.3176329769194126129150390625" lon="1.670441888272762298583984375">
        <ele>-219.600006103515625</ele>
        <time>2025-09-07T11:41:05.000Z</time>
        <extensions>
          <ns3:TrackPointExtension>
            <ns3:hr>103</ns3:hr>
            <ns3:cad>60</ns3:cad>
          </ns3:TrackPointExtension>
        </extensions>
      </trkpt>
      <trkpt lat="52.31766340322792530059814453125" lon="1.6704625077545642852783203125">
        <ele>-218</ele>
        <time>2025-09-07T11:41:07.000Z</time>
        <extensions>
          <ns3:TrackPointExtension>
            <ns3:hr>104</ns3:hr>
            <ns3:cad>62</ns3:cad>
          </ns3:TrackPointExtension>
        </extensions>
      </trkpt>
      <trkpt lat="52.31769315898418426513671875" lon="1.67048488743603229522705078125">
        <ele>-216.1999969482421875</ele>
        <time>2025-09-07T11:41:09.000Z</time>
        <extensions>
          <ns3:TrackPointExtension>
            <ns3:hr>106</ns3:hr>
            <ns3:cad>62</ns3:cad>
          </ns3:TrackPointExtension>
        </extensions>
      </trkpt>
      <trkpt lat="52.3177030496299266815185546875" lon="1.67049846611917018890380859375">
        <ele>-215.1999969482421875</ele>
        <time>2025-09-07T11:41:10.000Z</time>
        <extensions>
          <ns3:TrackPointExtension>
            <ns3:hr>104</ns3:hr>
            <ns3:cad>62</ns3:cad>
          </ns3:TrackPointExtension>
        </extensions>
      </trkpt>
      <trkpt lat="52.31771352700889110565185546875" lon="1.67051422409713268280029296875">
        <ele>-214.399993896484375</ele>
        <time>2025-09-07T11:41:11.000Z</time>
        <extensions>
          <ns3:TrackPointExtension>
            <ns3:hr>103</ns3:hr>
            <ns3:cad>62</ns3:cad>
          </ns3:TrackPointExtension>
        </extensions>
      </trkpt>
      <trkpt lat="52.3177412711083889007568359375" lon="1.6705374419689178466796875">
        <ele>-212.8000030517578125</ele>
        <time>2025-09-07T11:41:13.000Z</time>
        <extensions>
          <ns3:TrackPointExtension>
            <ns3:hr>102</ns3:hr>
            <ns3:cad>62</ns3:cad>
          </ns3:TrackPointExtension>
        </extensions>
      </trkpt>
      <trkpt lat="52.31777069158852100372314453125" lon="1.6705600731074810028076171875">
        <ele>-211.1999969482421875</ele>
        <time>2025-09-07T11:41:15.000Z</time>
        <extensions>
          <ns3:TrackPointExtension>
            <ns3:hr>103</ns3:hr>
            <ns3:cad>0</ns3:cad>
          </ns3:TrackPointExtension>
        </extensions>
      </trkpt>
      <trkpt lat="52.31780421920120716094970703125" lon="1.6705805249512195587158203125">
        <ele>-209.600006103515625</ele>
        <time>2025-09-07T11:41:17.000Z</time>
        <extensions>
          <ns3:TrackPointExtension>
            <ns3:hr>103</ns3:hr>
            <ns3:cad>57</ns3:cad>
          </ns3:TrackPointExtension>
        </extensions>
      </trkpt>
      <trkpt lat="52.31781947426497936248779296875" lon="1.67058848775923252105712890625">
        <ele>-209</ele>
        <time>2025-09-07T11:41:18.000Z</time>
        <extensions>
          <ns3:TrackPointExtension>
            <ns3:hr>104</ns3:hr>
            <ns3:cad>0</ns3:cad>
          </ns3:TrackPointExtension>
        </extensions>
      </trkpt>
      <trkpt lat="52.317834980785846710205078125" lon="1.6705966182053089141845703125">
        <ele>-208.1999969482421875</ele>
        <time>2025-09-07T11:41:19.000Z</time>
        <extensions>
          <ns3:TrackPointExtension>
            <ns3:hr>105</ns3:hr>
            <ns3:cad>0</ns3:cad>
          </ns3:TrackPointExtension>
        </extensions>
      </trkpt>
      <trkpt lat="52.3178653232753276824951171875" lon="1.67060759849846363067626953125">
        <ele>-207</ele>
        <time>2025-09-07T11:41:21.000Z</time>
        <extensions>
          <ns3:TrackPointExtension>
            <ns3:hr>104</ns3:hr>
            <ns3:cad>60</ns3:cad>
          </ns3:TrackPointExtension>
        </extensions>
      </trkpt>
      <trkpt lat="52.317896671593189239501953125" lon="1.6706192493438720703125">
        <ele>-205.8000030517578125</ele>
        <time>2025-09-07T11:41:23.000Z</time>
        <extensions>
          <ns3:TrackPointExtension>
            <ns3:hr>102</ns3:hr>
            <ns3:cad>60</ns3:cad>
          </ns3:TrackPointExtension>
        </extensions>
      </trkpt>
      <trkpt lat="52.31792517006397247314453125" lon="1.670640371739864349365234375">
        <ele>-204.600006103515625</ele>
        <time>2025-09-07T11:41:25.000Z</time>
        <extensions>
          <ns3:TrackPointExtension>
            <ns3:hr>105</ns3:hr>
            <ns3:cad>60</ns3:cad>
          </ns3:TrackPointExtension>
        </extensions>
      </trkpt>
      <trkpt lat="52.31795425526797771453857421875" lon="1.67066241614520549774169921875">
        <ele>-203.600006103515625</ele>
        <time>2025-09-07T11:41:27.000Z</time>
        <extensions>
          <ns3:TrackPointExtension>
            <ns3:hr>105</ns3:hr>
            <ns3:cad>60</ns3:cad>
          </ns3:TrackPointExtension>
        </extensions>
      </trkpt>
      <trkpt lat="52.3179830051958560943603515625" lon="1.67068169452250003814697265625">
        <ele>-202.399993896484375</ele>
        <time>2025-09-07T11:41:29.000Z</time>
        <extensions>
          <ns3:TrackPointExtension>
            <ns3:hr>108</ns3:hr>
            <ns3:cad>62</ns3:cad>
          </ns3:TrackPointExtension>
        </extensions>
      </trkpt>
      <trkpt lat="52.3180148564279079437255859375" lon="1.67070440948009490966796875">
        <ele>-201.399993896484375</ele>
        <time>2025-09-07T11:41:31.000Z</time>
        <extensions>
          <ns3:TrackPointExtension>
            <ns3:hr>107</ns3:hr>
            <ns3:cad>60</ns3:cad>
          </ns3:TrackPointExtension>
        </extensions>
      </trkpt>
      <trkpt lat="52.31806154362857341766357421875" lon="1.670736931264400482177734375">
        <ele>-200</ele>
        <time>2025-09-07T11:41:34.000Z</time>
        <extensions>
          <ns3:TrackPointExtension>
            <ns3:hr>106</ns3:hr>
            <ns3:cad>59</ns3:cad>
          </ns3:TrackPointExtension>
        </extensions>
      </trkpt>
      <trkpt lat="52.31807562522590160369873046875" lon="1.67074732482433319091796875">
        <ele>-199.600006103515625</ele>
        <time>2025-09-07T11:41:35.000Z</time>
        <extensions>
          <ns3:TrackPointExtension>
            <ns3:hr>106</ns3:hr>
            <ns3:cad>59</ns3:cad>
          </ns3:TrackPointExtension>
        </extensions>
      </trkpt>
      <trkpt lat="52.318103201687335968017578125" lon="1.67076534591615200042724609375">
        <ele>-198.600006103515625</ele>
        <time>2025-09-07T11:41:37.000Z</time>
        <extensions>
          <ns3:TrackPointExtension>
            <ns3:hr>106</ns3:hr>
            <ns3:cad>59</ns3:cad>
          </ns3:TrackPointExtension>
        </extensions>
      </trkpt>
      <trkpt lat="52.31813966296613216400146484375" lon="1.670794598758220672607421875">
        <ele>-197.399993896484375</ele>
        <time>2025-09-07T11:41:40.000Z</time>
        <extensions>
          <ns3:TrackPointExtension>
            <ns3:hr>106</ns3:hr>
            <ns3:cad>57</ns3:cad>
          </ns3:TrackPointExtension>
        </extensions>
      </trkpt>
      <trkpt lat="52.31816388666629791259765625" lon="1.67081597261130809783935546875">
        <ele>-196.600006103515625</ele>
        <time>2025-09-07T11:41:42.000Z</time>
        <extensions>
          <ns3:TrackPointExtension>
            <ns3:hr>103</ns3:hr>
            <ns3:cad>57</ns3:cad>
          </ns3:TrackPointExtension>
        </extensions>
      </trkpt>
      <trkpt lat="52.31817662715911865234375" lon="1.670826114714145660400390625">
        <ele>-196.1999969482421875</ele>
        <time>2025-09-07T11:41:43.000Z</time>
        <extensions>
          <ns3:TrackPointExtension>
            <ns3:hr>103</ns3:hr>
            <ns3:cad>57</ns3:cad>
          </ns3:TrackPointExtension>
        </extensions>
      </trkpt>
      <trkpt lat="52.31818802654743194580078125" lon="1.67083625681698322296142578125">
        <ele>-195.8000030517578125</ele>
        <time>2025-09-07T11:41:44.000Z</time>
        <extensions>
          <ns3:TrackPointExtension>
            <ns3:hr>103</ns3:hr>
            <ns3:cad>57</ns3:cad>
          </ns3:TrackPointExtension>
        </extensions>
      </trkpt>
      <trkpt lat="52.318211831152439117431640625" lon="1.67085570283234119415283203125">
        <ele>-195</ele>
        <time>2025-09-07T11:41:46.000Z</time>
        <extensions>
          <ns3:TrackPointExtension>
            <ns3:hr>104</ns3:hr>
            <ns3:cad>58</ns3:cad>
          </ns3:TrackPointExtension>
        </extensions>
      </trkpt>
      <trkpt lat="52.31825281865894794464111328125" lon="1.67089124210178852081298828125">
        <ele>-194</ele>
        <time>2025-09-07T11:41:49.000Z</time>
        <extensions>
          <ns3:TrackPointExtension>
            <ns3:hr>102</ns3:hr>
            <ns3:cad>56</ns3:cad>
          </ns3:TrackPointExtension>
        </extensions>
      </trkpt>
      <trkpt lat="52.3182850889861583709716796875" lon="1.67091923765838146209716796875">
        <ele>-193</ele>
        <time>2025-09-07T11:41:52.000Z</time>
        <extensions>
          <ns3:TrackPointExtension>
            <ns3:hr>105</ns3:hr>
            <ns3:cad>56</ns3:cad>
          </ns3:TrackPointExtension>
        </extensions>
      </trkpt>
      <trkpt lat="52.31829338707029819488525390625" lon="1.67092996649444103240966796875">
        <ele>-192.600006103515625</ele>
        <time>2025-09-07T11:41:53.000Z</time>
        <extensions>
          <ns3:TrackPointExtension>
            <ns3:hr>105</ns3:hr>
            <ns3:cad>52</ns3:cad>
          </ns3:TrackPointExtension>
        </extensions>
      </trkpt>
      <trkpt lat="52.31832942925393581390380859375" lon="1.67098578996956348419189453125">
        <ele>-191.600006103515625</ele>
        <time>2025-09-07T11:41:56.000Z</time>
        <extensions>
          <ns3:TrackPointExtension>
            <ns3:hr>105</ns3:hr>
            <ns3:cad>0</ns3:cad>
          </ns3:TrackPointExtension>
        </extensions>
      </trkpt>
      <trkpt lat="52.31837720610201358795166015625" lon="1.67101780883967876434326171875">
        <ele>-190.399993896484375</ele>
        <time>2025-09-07T11:42:00.000Z</time>
        <extensions>
          <ns3:TrackPointExtension>
            <ns3:hr>104</ns3:hr>
            <ns3:cad>0</ns3:cad>
          </ns3:TrackPointExtension>
        </extensions>
      </trkpt>
      <trkpt lat="52.31844208203256130218505859375" lon="1.67105938307940959930419921875">
        <ele>-189.1999969482421875</ele>
        <time>2025-09-07T11:42:05.000Z</time>
        <extensions>
          <ns3:TrackPointExtension>
            <ns3:hr>104</ns3:hr>
            <ns3:cad>0</ns3:cad>
          </ns3:TrackPointExtension>
        </extensions>
      </trkpt>
      <trkpt lat="52.3184510506689548492431640625" lon="1.67106977663934230804443359375">
        <ele>-189</ele>
        <time>2025-09-07T11:42:06.000Z</time>
        <extensions>
          <ns3:TrackPointExtension>
            <ns3:hr>101</ns3:hr>
            <ns3:cad>0</ns3:cad>
          </ns3:TrackPointExtension>
        </extensions>
      </trkpt>
      <trkpt lat="52.31846370734274387359619140625" lon="1.6710792481899261474609375">
        <ele>-188.8000030517578125</ele>
        <time>2025-09-07T11:42:07.000Z</time>
        <extensions>
          <ns3:TrackPointExtension>
            <ns3:hr>103</ns3:hr>
            <ns3:cad>59</ns3:cad>
          </ns3:TrackPointExtension>
        </extensions>
      </trkpt>
      <trkpt lat="52.318510897457599639892578125" lon="1.67110447771847248077392578125">
        <ele>-188.1999969482421875</ele>
        <time>2025-09-07T11:42:10.000Z</time>
        <extensions>
          <ns3:TrackPointExtension>
            <ns3:hr>104</ns3:hr>
            <ns3:cad>58</ns3:cad>
          </ns3:TrackPointExtension>
        </extensions>
      </trkpt>
      <trkpt lat="52.318584658205509185791015625" lon="1.67114554904401302337646484375">
        <ele>-187.1999969482421875</ele>
        <time>2025-09-07T11:42:15.000Z</time>
        <extensions>
          <ns3:TrackPointExtension>
            <ns3:hr>107</ns3:hr>
            <ns3:cad>60</ns3:cad>
          </ns3:TrackPointExtension>
        </extensions>
      </trkpt>
      <trkpt lat="52.31859999708831310272216796875" lon="1.67115493677556514739990234375">
        <ele>-187</ele>
        <time>2025-09-07T11:42:16.000Z</time>
        <extensions>
          <ns3:TrackPointExtension>
            <ns3:hr>106</ns3:hr>
            <ns3:cad>0</ns3:cad>
          </ns3:TrackPointExtension>
        </extensions>
      </trkpt>
      <trkpt lat="52.3186931200325489044189453125" lon="1.67123573832213878631591796875">
        <ele>-186</ele>
        <time>2025-09-07T11:42:23.000Z</time>
        <extensions>
          <ns3:TrackPointExtension>
            <ns3:hr>108</ns3:hr>
            <ns3:cad>61</ns3:cad>
          </ns3:TrackPointExtension>
        </extensions>
      </trkpt>
      <trkpt lat="52.318718768656253814697265625" lon="1.67125719599425792694091796875">
        <ele>-185.600006103515625</ele>
        <time>2025-09-07T11:42:25.000Z</time>
        <extensions>
          <ns3:TrackPointExtension>
            <ns3:hr>108</ns3:hr>
            <ns3:cad>60</ns3:cad>
          </ns3:TrackPointExtension>
        </extensions>
      </trkpt>
      <trkpt lat="52.3187792859971523284912109375" lon="1.67134218849241733551025390625">
        <ele>-185.1999969482421875</ele>
        <time>2025-09-07T11:42:30.000Z</time>
        <extensions>
          <ns3:TrackPointExtension>
            <ns3:hr>105</ns3:hr>
            <ns3:cad>60</ns3:cad>
          </ns3:TrackPointExtension>
        </extensions>
      </trkpt>
      <trkpt lat="52.31881423853337764739990234375" lon="1.67138912715017795562744140625">
        <ele>-184.8000030517578125</ele>
        <time>2025-09-07T11:42:33.000Z</time>
        <extensions>
          <ns3:TrackPointExtension>
            <ns3:hr>107</ns3:hr>
            <ns3:cad>60</ns3:cad>
          </ns3:TrackPointExtension>
        </extensions>
      </trkpt>
      <trkpt lat="52.31889001093804836273193359375" lon="1.6715152747929096221923828125">
        <ele>-184.399993896484375</ele>
        <time>2025-09-07T11:42:41.000Z</time>
        <extensions>
          <ns3:TrackPointExtension>
            <ns3:hr>107</ns3:hr>
            <ns3:cad>61</ns3:cad>
          </ns3:TrackPointExtension>
        </extensions>
      </trkpt>
      <trkpt lat="52.3189854808151721954345703125" lon="1.6716316156089305877685546875">
        <ele>-184.1999969482421875</ele>
        <time>2025-09-07T11:42:50.000Z</time>
        <extensions>
          <ns3:TrackPointExtension>
            <ns3:hr>102</ns3:hr>
            <ns3:cad>59</ns3:cad>
          </ns3:TrackPointExtension>
        </extensions>
      </trkpt>
      <trkpt lat="52.31908597983419895172119140625" lon="1.6717640496790409088134765625">
        <ele>-184.399993896484375</ele>
        <time>2025-09-07T11:42:59.000Z</time>
        <extensions>
          <ns3:TrackPointExtension>
            <ns3:hr>104</ns3:hr>
            <ns3:cad>0</ns3:cad>
          </ns3:TrackPointExtension>
        </extensions>
      </trkpt>
      <trkpt lat="52.319166027009487152099609375" lon="1.67184694670140743255615234375">
        <ele>-184.399993896484375</ele>
        <time>2025-09-07T11:43:06.000Z</time>
        <extensions>
          <ns3:TrackPointExtension>
            <ns3:hr>107</ns3:hr>
            <ns3:cad>58</ns3:cad>
          </ns3:TrackPointExtension>
        </extensions>
      </trkpt>
      <trkpt lat="52.31917449273169040679931640625" lon="1.6718606092035770416259765625">
        <ele>-184.399993896484375</ele>
        <time>2025-09-07T11:43:07.000Z</time>
        <extensions>
          <ns3:TrackPointExtension>
            <ns3:hr>108</ns3:hr>
            <ns3:cad>58</ns3:cad>
          </ns3:TrackPointExtension>
        </extensions>
      </trkpt>
      <trkpt lat="52.31922310777008533477783203125" lon="1.6719360463321208953857421875">
        <ele>-184.600006103515625</ele>
        <time>2025-09-07T11:43:13.000Z</time>
        <extensions>
          <ns3:TrackPointExtension>
            <ns3:hr>110</ns3:hr>
            <ns3:cad>0</ns3:cad>
          </ns3:TrackPointExtension>
        </extensions>
      </trkpt>
      <trkpt lat="52.31923718936741352081298828125" lon="1.67198306880891323089599609375">
        <ele>-185</ele>
        <time>2025-09-07T11:43:24.000Z</time>
        <extensions>
          <ns3:TrackPointExtension>
            <ns3:hr>110</ns3:hr>
            <ns3:cad>0</ns3:cad>
          </ns3:TrackPointExtension>
        </extensions>
      </trkpt>
      <trkpt lat="52.31930038891732692718505859375" lon="1.67207091115415096282958984375">
        <ele>-185.399993896484375</ele>
        <time>2025-09-07T11:43:33.000Z</time>
        <extensions>
          <ns3:TrackPointExtension>
            <ns3:hr>107</ns3:hr>
            <ns3:cad>56</ns3:cad>
          </ns3:TrackPointExtension>
        </extensions>
      </trkpt>
      <trkpt lat="52.319322265684604644775390625" lon="1.6720963083207607269287109375">
        <ele>-185.399993896484375</ele>
        <time>2025-09-07T11:43:36.000Z</time>
        <extensions>
          <ns3:TrackPointExtension>
            <ns3:hr>104</ns3:hr>
            <ns3:cad>55</ns3:cad>
          </ns3:TrackPointExtension>
        </extensions>
      </trkpt>
      <trkpt lat="52.3194786719977855682373046875" lon="1.67222329415380954742431640625">
        <ele>-185.600006103515625</ele>
        <time>2025-09-07T11:43:48.000Z</time>
        <extensions>
          <ns3:TrackPointExtension>
            <ns3:hr>107</ns3:hr>
            <ns3:cad>56</ns3:cad>
          </ns3:TrackPointExtension>
        </extensions>
      </trkpt>
      <trkpt lat="52.31952636502683162689208984375" lon="1.67225296609103679656982421875">
        <ele>-185.8000030517578125</ele>
        <time>2025-09-07T11:43:51.000Z</time>
        <extensions>
          <ns3:TrackPointExtension>
            <ns3:hr>105</ns3:hr>
            <ns3:cad>58</ns3:cad>
          </ns3:TrackPointExtension>
        </extensions>
      </trkpt>
      <trkpt lat="52.319539524614810943603515625" lon="1.67226503603160381317138671875">
        <ele>-185.8000030517578125</ele>
        <time>2025-09-07T11:43:52.000Z</time>
        <extensions>
          <ns3:TrackPointExtension>
            <ns3:hr>105</ns3:hr>
            <ns3:cad>58</ns3:cad>
          </ns3:TrackPointExtension>
        </extensions>
      </trkpt>
      <trkpt lat="52.319585122168064117431640625" lon="1.67229588143527507781982421875">
        <ele>-186.1999969482421875</ele>
        <time>2025-09-07T11:43:55.000Z</time>
        <extensions>
          <ns3:TrackPointExtension>
            <ns3:hr>108</ns3:hr>
            <ns3:cad>60</ns3:cad>
          </ns3:TrackPointExtension>
        </extensions>
      </trkpt>
      <trkpt lat="52.3196198232471942901611328125" lon="1.67231868021190166473388671875">
        <ele>-186.600006103515625</ele>
        <time>2025-09-07T11:43:58.000Z</time>
        <extensions>
          <ns3:TrackPointExtension>
            <ns3:hr>105</ns3:hr>
            <ns3:cad>60</ns3:cad>
          </ns3:TrackPointExtension>
        </extensions>
      </trkpt>
      <trkpt lat="52.31965343467891216278076171875" lon="1.67234650813043117523193359375">
        <ele>-187</ele>
        <time>2025-09-07T11:44:01.000Z</time>
        <extensions>
          <ns3:TrackPointExtension>
            <ns3:hr>106</ns3:hr>
            <ns3:cad>56</ns3:cad>
          </ns3:TrackPointExtension>
        </extensions>
      </trkpt>
      <trkpt lat="52.31972602196037769317626953125" lon="1.67239780537784099578857421875">
        <ele>-187.8000030517578125</ele>
        <time>2025-09-07T11:44:07.000Z</time>
        <extensions>
          <ns3:TrackPointExtension>
            <ns3:hr>106</ns3:hr>
            <ns3:cad>58</ns3:cad>
          </ns3:TrackPointExtension>
        </extensions>
      </trkpt>
      <trkpt lat="52.319747395813465118408203125" lon="1.6724138148128986358642578125">
        <ele>-188</ele>
        <time>2025-09-07T11:44:09.000Z</time>
        <extensions>
          <ns3:TrackPointExtension>
            <ns3:hr>105</ns3:hr>
            <ns3:cad>0</ns3:cad>
          </ns3:TrackPointExtension>
        </extensions>
      </trkpt>
      <trkpt lat="52.3197727091610431671142578125" lon="1.67243837378919124603271484375">
        <ele>-188.8000030517578125</ele>
        <time>2025-09-07T11:44:14.000Z</time>
        <extensions>
          <ns3:TrackPointExtension>
            <ns3:hr>103</ns3:hr>
            <ns3:cad>0</ns3:cad>
          </ns3:TrackPointExtension>
        </extensions>
      </trkpt>
      <trkpt lat="52.31977882795035839080810546875" lon="1.6724339313805103302001953125">
        <ele>-189.1999969482421875</ele>
        <time>2025-09-07T11:44:17.000Z</time>
        <extensions>
          <ns3:TrackPointExtension>
            <ns3:hr>102</ns3:hr>
            <ns3:cad>0</ns3:cad>
          </ns3:TrackPointExtension>
        </extensions>
      </trkpt>
      <trkpt lat="52.3197730444371700286865234375" lon="1.67243150062859058380126953125">
        <ele>-189.399993896484375</ele>
        <time>2025-09-07T11:44:20.000Z</time>
        <extensions>
          <ns3:TrackPointExtension>
            <ns3:hr>105</ns3:hr>
            <ns3:cad>0</ns3:cad>
          </ns3:TrackPointExtension>
        </extensions>
      </trkpt>
      <trkpt lat="52.31976960785686969757080078125" lon="1.672440804541110992431640625">
        <ele>-190</ele>
        <time>2025-09-07T11:44:24.000Z</time>
        <extensions>
          <ns3:TrackPointExtension>
            <ns3:hr>104</ns3:hr>
            <ns3:cad>0</ns3:cad>
          </ns3:TrackPointExtension>
        </extensions>
      </trkpt>
      <trkpt lat="52.31978553347289562225341796875" lon="1.672456562519073486328125">
        <ele>-190.1999969482421875</ele>
        <time>2025-09-07T11:44:26.000Z</time>
        <extensions>
          <ns3:TrackPointExtension>
            <ns3:hr>104</ns3:hr>
            <ns3:cad>50</ns3:cad>
          </ns3:TrackPointExtension>
        </extensions>
      </trkpt>
      <trkpt lat="52.319842278957366943359375" lon="1.6724983043968677520751953125">
        <ele>-190.600006103515625</ele>
        <time>2025-09-07T11:44:30.000Z</time>
        <extensions>
          <ns3:TrackPointExtension>
            <ns3:hr>105</ns3:hr>
            <ns3:cad>54</ns3:cad>
          </ns3:TrackPointExtension>
        </extensions>
      </trkpt>
      <trkpt lat="52.31990572996437549591064453125" lon="1.67255370877683162689208984375">
        <ele>-191</ele>
        <time>2025-09-07T11:44:35.000Z</time>
        <extensions>
          <ns3:TrackPointExtension>
            <ns3:hr>102</ns3:hr>
            <ns3:cad>56</ns3:cad>
          </ns3:TrackPointExtension>
        </extensions>
      </trkpt>
      <trkpt lat="52.3199289478361606597900390625" lon="1.672570221126079559326171875">
        <ele>-191.1999969482421875</ele>
        <time>2025-09-07T11:44:37.000Z</time>
        <extensions>
          <ns3:TrackPointExtension>
            <ns3:hr>102</ns3:hr>
            <ns3:cad>57</ns3:cad>
          </ns3:TrackPointExtension>
        </extensions>
      </trkpt>
      <trkpt lat="52.3199547640979290008544921875" lon="1.6725824587047100067138671875">
        <ele>-191.399993896484375</ele>
        <time>2025-09-07T11:44:39.000Z</time>
        <extensions>
          <ns3:TrackPointExtension>
            <ns3:hr>105</ns3:hr>
            <ns3:cad>0</ns3:cad>
          </ns3:TrackPointExtension>
        </extensions>
      </trkpt>
      <trkpt lat="52.320029027760028839111328125" lon="1.6726402938365936279296875">
        <ele>-192</ele>
        <time>2025-09-07T11:44:46.000Z</time>
        <extensions>
          <ns3:TrackPointExtension>
            <ns3:hr>104</ns3:hr>
            <ns3:cad>0</ns3:cad>
          </ns3:TrackPointExtension>
        </extensions>
      </trkpt>
      <trkpt lat="52.32006548903882503509521484375" lon="1.67269553057849407196044921875">
        <ele>-192.1999969482421875</ele>
        <time>2025-09-07T11:44:50.000Z</time>
        <extensions>
          <ns3:TrackPointExtension>
            <ns3:hr>102</ns3:hr>
            <ns3:cad>57</ns3:cad>
          </ns3:TrackPointExtension>
        </extensions>
      </trkpt>
      <trkpt lat="52.32008225284516811370849609375" lon="1.672712378203868865966796875">
        <ele>-192.399993896484375</ele>
        <time>2025-09-07T11:44:51.000Z</time>
        <extensions>
          <ns3:TrackPointExtension>
            <ns3:hr>99</ns3:hr>
            <ns3:cad>57</ns3:cad>
          </ns3:TrackPointExtension>
        </extensions>
      </trkpt>
      <trkpt lat="52.32010890729725360870361328125" lon="1.67274079285562038421630859375">
        <ele>-192.600006103515625</ele>
        <time>2025-09-07T11:44:53.000Z</time>
        <extensions>
          <ns3:TrackPointExtension>
            <ns3:hr>98</ns3:hr>
            <ns3:cad>61</ns3:cad>
          </ns3:TrackPointExtension>
        </extensions>
      </trkpt>
      <trkpt lat="52.3201408423483371734619140625" lon="1.67278370819985866546630859375">
        <ele>-192.8000030517578125</ele>
        <time>2025-09-07T11:44:56.000Z</time>
        <extensions>
          <ns3:TrackPointExtension>
            <ns3:hr>101</ns3:hr>
            <ns3:cad>56</ns3:cad>
          </ns3:TrackPointExtension>
        </extensions>
      </trkpt>
      <trkpt lat="52.320158779621124267578125" lon="1.67281421832740306854248046875">
        <ele>-193</ele>
        <time>2025-09-07T11:44:58.000Z</time>
        <extensions>
          <ns3:TrackPointExtension>
            <ns3:hr>98</ns3:hr>
            <ns3:cad>60</ns3:cad>
          </ns3:TrackPointExtension>
        </extensions>
      </trkpt>
      <trkpt lat="52.320182584226131439208984375" lon="1.67284573428332805633544921875">
        <ele>-193.1999969482421875</ele>
        <time>2025-09-07T11:45:00.000Z</time>
        <extensions>
          <ns3:TrackPointExtension>
            <ns3:hr>102</ns3:hr>
            <ns3:cad>58</ns3:cad>
          </ns3:TrackPointExtension>
        </extensions>
      </trkpt>
      <trkpt lat="52.32019440270960330963134765625" lon="1.67286585085093975067138671875">
        <ele>-193.399993896484375</ele>
        <time>2025-09-07T11:45:01.000Z</time>
        <extensions>
          <ns3:TrackPointExtension>
            <ns3:hr>101</ns3:hr>
            <ns3:cad>58</ns3:cad>
          </ns3:TrackPointExtension>
        </extensions>
      </trkpt>
      <trkpt lat="52.32020370662212371826171875" lon="1.6728828661143779754638671875">
        <ele>-193.399993896484375</ele>
        <time>2025-09-07T11:45:02.000Z</time>
        <extensions>
          <ns3:TrackPointExtension>
            <ns3:hr>102</ns3:hr>
            <ns3:cad>59</ns3:cad>
          </ns3:TrackPointExtension>
        </extensions>
      </trkpt>
      <trkpt lat="52.32023748569190502166748046875" lon="1.6729567945003509521484375">
        <ele>-194.1999969482421875</ele>
        <time>2025-09-07T11:45:07.000Z</time>
        <extensions>
          <ns3:TrackPointExtension>
            <ns3:hr>99</ns3:hr>
            <ns3:cad>56</ns3:cad>
          </ns3:TrackPointExtension>
        </extensions>
      </trkpt>
      <trkpt lat="52.3202219791710376739501953125" lon="1.67299090884625911712646484375">
        <ele>-194.399993896484375</ele>
        <time>2025-09-07T11:45:09.000Z</time>
        <extensions>
          <ns3:TrackPointExtension>
            <ns3:hr>100</ns3:hr>
            <ns3:cad>56</ns3:cad>
          </ns3:TrackPointExtension>
        </extensions>
      </trkpt>
      <trkpt lat="52.320242263376712799072265625" lon="1.67301756329834461212158203125">
        <ele>-195.399993896484375</ele>
        <time>2025-09-07T11:45:16.000Z</time>
        <extensions>
          <ns3:TrackPointExtension>
            <ns3:hr>98</ns3:hr>
            <ns3:cad>0</ns3:cad>
          </ns3:TrackPointExtension>
        </extensions>
      </trkpt>
      <trkpt lat="52.3202508129179477691650390625" lon="1.67302762158215045928955078125">
        <ele>-195.600006103515625</ele>
        <time>2025-09-07T11:45:17.000Z</time>
        <extensions>
          <ns3:TrackPointExtension>
            <ns3:hr>98</ns3:hr>
            <ns3:cad>0</ns3:cad>
          </ns3:TrackPointExtension>
        </extensions>
      </trkpt>
      <trkpt lat="52.3203114978969097137451171875" lon="1.67312585748732089996337890625">
        <ele>-196.600006103515625</ele>
        <time>2025-09-07T11:45:23.000Z</time>
        <extensions>
          <ns3:TrackPointExtension>
            <ns3:hr>100</ns3:hr>
            <ns3:cad>0</ns3:cad>
          </ns3:TrackPointExtension>
        </extensions>
      </trkpt>
      <trkpt lat="52.32035248540341854095458984375" lon="1.67320498265326023101806640625">
        <ele>-197.399993896484375</ele>
        <time>2025-09-07T11:45:28.000Z</time>
        <extensions>
          <ns3:TrackPointExtension>
            <ns3:hr>101</ns3:hr>
            <ns3:cad>57</ns3:cad>
          </ns3:TrackPointExtension>
        </extensions>
      </trkpt>
      <trkpt lat="52.32035868801176548004150390625" lon="1.673219315707683563232421875">
        <ele>-197.600006103515625</ele>
        <time>2025-09-07T11:45:29.000Z</time>
        <extensions>
          <ns3:TrackPointExtension>
            <ns3:hr>104</ns3:hr>
            <ns3:cad>57</ns3:cad>
          </ns3:TrackPointExtension>
        </extensions>
      </trkpt>
      <trkpt lat="52.32036505825817584991455078125" lon="1.67323532514274120330810546875">
        <ele>-197.600006103515625</ele>
        <time>2025-09-07T11:45:30.000Z</time>
        <extensions>
          <ns3:TrackPointExtension>
            <ns3:hr>103</ns3:hr>
            <ns3:cad>56</ns3:cad>
          </ns3:TrackPointExtension>
        </extensions>
      </trkpt>
      <trkpt lat="52.32044837437570095062255859375" lon="1.6733509115874767303466796875">
        <ele>-198.8000030517578125</ele>
        <time>2025-09-07T11:45:38.000Z</time>
        <extensions>
          <ns3:TrackPointExtension>
            <ns3:hr>101</ns3:hr>
            <ns3:cad>57</ns3:cad>
          </ns3:TrackPointExtension>
        </extensions>
      </trkpt>
      <trkpt lat="52.3204653896391391754150390625" lon="1.67337513528764247894287109375">
        <ele>-199</ele>
        <time>2025-09-07T11:45:40.000Z</time>
        <extensions>
          <ns3:TrackPointExtension>
            <ns3:hr>102</ns3:hr>
            <ns3:cad>0</ns3:cad>
          </ns3:TrackPointExtension>
        </extensions>
      </trkpt>
      <trkpt lat="52.3204927146434783935546875" lon="1.67343028821051120758056640625">
        <ele>-199.600006103515625</ele>
        <time>2025-09-07T11:45:43.000Z</time>
        <extensions>
          <ns3:TrackPointExtension>
            <ns3:hr>105</ns3:hr>
            <ns3:cad>0</ns3:cad>
          </ns3:TrackPointExtension>
        </extensions>
      </trkpt>
      <trkpt lat="52.32051274739205837249755859375" lon="1.67346096597611904144287109375">
        <ele>-199.8000030517578125</ele>
        <time>2025-09-07T11:45:45.000Z</time>
        <extensions>
          <ns3:TrackPointExtension>
            <ns3:hr>104</ns3:hr>
            <ns3:cad>58</ns3:cad>
          </ns3:TrackPointExtension>
        </extensions>
      </trkpt>
      <trkpt lat="52.3205414973199367523193359375" lon="1.67350723408162593841552734375">
        <ele>-200.399993896484375</ele>
        <time>2025-09-07T11:45:48.000Z</time>
        <extensions>
          <ns3:TrackPointExtension>
            <ns3:hr>107</ns3:hr>
            <ns3:cad>58</ns3:cad>
          </ns3:TrackPointExtension>
        </extensions>
      </trkpt>
      <trkpt lat="52.3205490410327911376953125" lon="1.6735229082405567169189453125">
        <ele>-200.600006103515625</ele>
        <time>2025-09-07T11:45:49.000Z</time>
        <extensions>
          <ns3:TrackPointExtension>
            <ns3:hr>105</ns3:hr>
            <ns3:cad>58</ns3:cad>
          </ns3:TrackPointExtension>
        </extensions>
      </trkpt>
      <trkpt lat="52.32056672684848308563232421875" lon="1.67355249635875225067138671875">
        <ele>-201</ele>
        <time>2025-09-07T11:45:51.000Z</time>
        <extensions>
          <ns3:TrackPointExtension>
            <ns3:hr>106</ns3:hr>
            <ns3:cad>58</ns3:cad>
          </ns3:TrackPointExtension>
        </extensions>
      </trkpt>
      <trkpt lat="52.320579551160335540771484375" lon="1.67357948608696460723876953125">
        <ele>-201.8000030517578125</ele>
        <time>2025-09-07T11:45:56.000Z</time>
        <extensions>
          <ns3:TrackPointExtension>
            <ns3:hr>106</ns3:hr>
            <ns3:cad>0</ns3:cad>
          </ns3:TrackPointExtension>
        </extensions>
      </trkpt>
      <trkpt lat="52.3205807246267795562744140625" lon="1.67358116246759891510009765625">
        <ele>-202</ele>
        <time>2025-09-07T11:45:57.000Z</time>
        <extensions>
          <ns3:TrackPointExtension>
            <ns3:hr>108</ns3:hr>
            <ns3:cad>0</ns3:cad>
          </ns3:TrackPointExtension>
        </extensions>
      </trkpt>
      <trkpt lat="52.3205827362835407257080078125" lon="1.67360999621450901031494140625">
        <ele>-203</ele>
        <time>2025-09-07T11:46:03.000Z</time>
        <extensions>
          <ns3:TrackPointExtension>
            <ns3:hr>109</ns3:hr>
            <ns3:cad>0</ns3:cad>
          </ns3:TrackPointExtension>
        </extensions>
      </trkpt>
      <trkpt lat="52.32060126028954982757568359375" lon="1.6736342199146747589111328125">
        <ele>-203.1999969482421875</ele>
        <time>2025-09-07T11:46:05.000Z</time>
        <extensions>
          <ns3:TrackPointExtension>
            <ns3:hr>110</ns3:hr>
            <ns3:cad>0</ns3:cad>
          </ns3:TrackPointExtension>
        </extensions>
      </trkpt>
      <trkpt lat="52.32065490446984767913818359375" lon="1.67369834147393703460693359375">
        <ele>-204</ele>
        <time>2025-09-07T11:46:10.000Z</time>
        <extensions>
          <ns3:TrackPointExtension>
            <ns3:hr>110</ns3:hr>
            <ns3:cad>60</ns3:cad>
          </ns3:TrackPointExtension>
        </extensions>
      </trkpt>
      <trkpt lat="52.32066311873495578765869140625" lon="1.67371326126158237457275390625">
        <ele>-204.1999969482421875</ele>
        <time>2025-09-07T11:46:11.000Z</time>
        <extensions>
          <ns3:TrackPointExtension>
            <ns3:hr>109</ns3:hr>
            <ns3:cad>60</ns3:cad>
          </ns3:TrackPointExtension>
        </extensions>
      </trkpt>
      <trkpt lat="52.32070796191692352294921875" lon="1.6737857647240161895751953125">
        <ele>-205.1999969482421875</ele>
        <time>2025-09-07T11:46:16.000Z</time>
        <extensions>
          <ns3:TrackPointExtension>
            <ns3:hr>111</ns3:hr>
            <ns3:cad>60</ns3:cad>
          </ns3:TrackPointExtension>
        </extensions>
      </trkpt>
      <trkpt lat="52.32072112150490283966064453125" lon="1.67379875667393207550048828125">
        <ele>-205.399993896484375</ele>
        <time>2025-09-07T11:46:17.000Z</time>
        <extensions>
          <ns3:TrackPointExtension>
            <ns3:hr>114</ns3:hr>
            <ns3:cad>60</ns3:cad>
          </ns3:TrackPointExtension>
        </extensions>
      </trkpt>
      <trkpt lat="52.32073000632226467132568359375" lon="1.6738095693290233612060546875">
        <ele>-205.600006103515625</ele>
        <time>2025-09-07T11:46:18.000Z</time>
        <extensions>
          <ns3:TrackPointExtension>
            <ns3:hr>113</ns3:hr>
            <ns3:cad>60</ns3:cad>
          </ns3:TrackPointExtension>
        </extensions>
      </trkpt>
      <trkpt lat="52.32075213454663753509521484375" lon="1.67384468950331211090087890625">
        <ele>-206.399993896484375</ele>
        <time>2025-09-07T11:46:21.000Z</time>
        <extensions>
          <ns3:TrackPointExtension>
            <ns3:hr>112</ns3:hr>
            <ns3:cad>60</ns3:cad>
          </ns3:TrackPointExtension>
        </extensions>
      </trkpt>
      <trkpt lat="52.3207865841686725616455078125" lon="1.67390990070998668670654296875">
        <ele>-207.399993896484375</ele>
        <time>2025-09-07T11:46:25.000Z</time>
        <extensions>
          <ns3:TrackPointExtension>
            <ns3:hr>110</ns3:hr>
            <ns3:cad>57</ns3:cad>
          </ns3:TrackPointExtension>
        </extensions>
      </trkpt>
      <trkpt lat="52.3208043538033962249755859375" lon="1.67394208721816539764404296875">
        <ele>-208</ele>
        <time>2025-09-07T11:46:27.000Z</time>
        <extensions>
          <ns3:TrackPointExtension>
            <ns3:hr>111</ns3:hr>
            <ns3:cad>60</ns3:cad>
          </ns3:TrackPointExtension>
        </extensions>
      </trkpt>
      <trkpt lat="52.32082656584680080413818359375" lon="1.6739768721163272857666015625">
        <ele>-208.399993896484375</ele>
        <time>2025-09-07T11:46:29.000Z</time>
        <extensions>
          <ns3:TrackPointExtension>
            <ns3:hr>112</ns3:hr>
            <ns3:cad>61</ns3:cad>
          </ns3:TrackPointExtension>
        </extensions>
      </trkpt>
      <trkpt lat="52.32086814008653163909912109375" lon="1.67403713800013065338134765625">
        <ele>-209.399993896484375</ele>
        <time>2025-09-07T11:46:33.000Z</time>
        <extensions>
          <ns3:TrackPointExtension>
            <ns3:hr>113</ns3:hr>
            <ns3:cad>61</ns3:cad>
          </ns3:TrackPointExtension>
        </extensions>
      </trkpt>
      <trkpt lat="52.3208921961486339569091796875" lon="1.67408089153468608856201171875">
        <ele>-210.1999969482421875</ele>
        <time>2025-09-07T11:46:36.000Z</time>
        <extensions>
          <ns3:TrackPointExtension>
            <ns3:hr>114</ns3:hr>
            <ns3:cad>60</ns3:cad>
          </ns3:TrackPointExtension>
        </extensions>
      </trkpt>
      <trkpt lat="52.32090787030756473541259765625" lon="1.674116514623165130615234375">
        <ele>-210.600006103515625</ele>
        <time>2025-09-07T11:46:38.000Z</time>
        <extensions>
          <ns3:TrackPointExtension>
            <ns3:hr>113</ns3:hr>
            <ns3:cad>0</ns3:cad>
          </ns3:TrackPointExtension>
        </extensions>
      </trkpt>
      <trkpt lat="52.32094466686248779296875" lon="1.6741475276648998260498046875">
        <ele>-211.1999969482421875</ele>
        <time>2025-09-07T11:46:41.000Z</time>
        <extensions>
          <ns3:TrackPointExtension>
            <ns3:hr>110</ns3:hr>
            <ns3:cad>0</ns3:cad>
          </ns3:TrackPointExtension>
        </extensions>
      </trkpt>
      <trkpt lat="52.320963442325592041015625" lon="1.67417225427925586700439453125">
        <ele>-211.600006103515625</ele>
        <time>2025-09-07T11:46:43.000Z</time>
        <extensions>
          <ns3:TrackPointExtension>
            <ns3:hr>112</ns3:hr>
            <ns3:cad>0</ns3:cad>
          </ns3:TrackPointExtension>
        </extensions>
      </trkpt>
      <trkpt lat="52.32097324915230274200439453125" lon="1.674184910953044891357421875">
        <ele>-211.8000030517578125</ele>
        <time>2025-09-07T11:46:44.000Z</time>
        <extensions>
          <ns3:TrackPointExtension>
            <ns3:hr>109</ns3:hr>
            <ns3:cad>57</ns3:cad>
          </ns3:TrackPointExtension>
        </extensions>
      </trkpt>
      <trkpt lat="52.32102303765714168548583984375" lon="1.67425406165421009063720703125">
        <ele>-212.8000030517578125</ele>
        <time>2025-09-07T11:46:51.000Z</time>
        <extensions>
          <ns3:TrackPointExtension>
            <ns3:hr>108</ns3:hr>
            <ns3:cad>57</ns3:cad>
          </ns3:TrackPointExtension>
        </extensions>
      </trkpt>
      <trkpt lat="52.3210534639656543731689453125" lon="1.6742893494665622711181640625">
        <ele>-213.399993896484375</ele>
        <time>2025-09-07T11:46:54.000Z</time>
        <extensions>
          <ns3:TrackPointExtension>
            <ns3:hr>106</ns3:hr>
            <ns3:cad>57</ns3:cad>
          </ns3:TrackPointExtension>
        </extensions>
      </trkpt>
      <trkpt lat="52.3210762627422809600830078125" lon="1.67432379908859729766845703125">
        <ele>-213.600006103515625</ele>
        <time>2025-09-07T11:46:56.000Z</time>
        <extensions>
          <ns3:TrackPointExtension>
            <ns3:hr>105</ns3:hr>
            <ns3:cad>57</ns3:cad>
          </ns3:TrackPointExtension>
        </extensions>
      </trkpt>
      <trkpt lat="52.32109688222408294677734375" lon="1.67435816489160060882568359375">
        <ele>-214</ele>
        <time>2025-09-07T11:46:58.000Z</time>
        <extensions>
          <ns3:TrackPointExtension>
            <ns3:hr>106</ns3:hr>
            <ns3:cad>61</ns3:cad>
          </ns3:TrackPointExtension>
        </extensions>
      </trkpt>
      <trkpt lat="52.32113669626414775848388671875" lon="1.67441868223249912261962890625">
        <ele>-214.399993896484375</ele>
        <time>2025-09-07T11:47:02.000Z</time>
        <extensions>
          <ns3:TrackPointExtension>
            <ns3:hr>105</ns3:hr>
            <ns3:cad>60</ns3:cad>
          </ns3:TrackPointExtension>
        </extensions>
      </trkpt>
      <trkpt lat="52.321193106472492218017578125" lon="1.67449629865586757659912109375">
        <ele>-215</ele>
        <time>2025-09-07T11:47:07.000Z</time>
        <extensions>
          <ns3:TrackPointExtension>
            <ns3:hr>107</ns3:hr>
            <ns3:cad>58</ns3:cad>
          </ns3:TrackPointExtension>
        </extensions>
      </trkpt>
      <trkpt lat="52.3212061822414398193359375" lon="1.67450870387256145477294921875">
        <ele>-215</ele>
        <time>2025-09-07T11:47:08.000Z</time>
        <extensions>
          <ns3:TrackPointExtension>
            <ns3:hr>104</ns3:hr>
            <ns3:cad>58</ns3:cad>
          </ns3:TrackPointExtension>
        </extensions>
      </trkpt>
      <trkpt lat="52.32125907205045223236083984375" lon="1.6745478473603725433349609375">
        <ele>-215.399993896484375</ele>
        <time>2025-09-07T11:47:12.000Z</time>
        <extensions>
          <ns3:TrackPointExtension>
            <ns3:hr>108</ns3:hr>
            <ns3:cad>60</ns3:cad>
          </ns3:TrackPointExtension>
        </extensions>
      </trkpt>
      <trkpt lat="52.3213049210608005523681640625" lon="1.67457274161279201507568359375">
        <ele>-215.600006103515625</ele>
        <time>2025-09-07T11:47:15.000Z</time>
        <extensions>
          <ns3:TrackPointExtension>
            <ns3:hr>105</ns3:hr>
            <ns3:cad>59</ns3:cad>
          </ns3:TrackPointExtension>
        </extensions>
      </trkpt>
      <trkpt lat="52.32135915197432041168212890625" lon="1.67461481876671314239501953125">
        <ele>-215.8000030517578125</ele>
        <time>2025-09-07T11:47:19.000Z</time>
        <extensions>
          <ns3:TrackPointExtension>
            <ns3:hr>109</ns3:hr>
            <ns3:cad>60</ns3:cad>
          </ns3:TrackPointExtension>
        </extensions>
      </trkpt>
      <trkpt lat="52.3213827051222324371337890625" lon="1.67464231140911579132080078125">
        <ele>-216</ele>
        <time>2025-09-07T11:47:21.000Z</time>
        <extensions>
          <ns3:TrackPointExtension>
            <ns3:hr>112</ns3:hr>
            <ns3:cad>61</ns3:cad>
          </ns3:TrackPointExtension>
        </extensions>
      </trkpt>
      <trkpt lat="52.32140743173658847808837890625" lon="1.67467365972697734832763671875">
        <ele>-216</ele>
        <time>2025-09-07T11:47:23.000Z</time>
        <extensions>
          <ns3:TrackPointExtension>
            <ns3:hr>115</ns3:hr>
            <ns3:cad>60</ns3:cad>
          </ns3:TrackPointExtension>
        </extensions>
      </trkpt>
      <trkpt lat="52.32143106870353221893310546875" lon="1.674707271158695220947265625">
        <ele>-216</ele>
        <time>2025-09-07T11:47:25.000Z</time>
        <extensions>
          <ns3:TrackPointExtension>
            <ns3:hr>114</ns3:hr>
            <ns3:cad>60</ns3:cad>
          </ns3:TrackPointExtension>
        </extensions>
      </trkpt>
      <trkpt lat="52.32145235873758792877197265625" lon="1.6747404634952545166015625">
        <ele>-216</ele>
        <time>2025-09-07T11:47:27.000Z</time>
        <extensions>
          <ns3:TrackPointExtension>
            <ns3:hr>117</ns3:hr>
            <ns3:cad>60</ns3:cad>
          </ns3:TrackPointExtension>
        </extensions>
      </trkpt>
      <trkpt lat="52.32146007008850574493408203125" lon="1.674760915338993072509765625">
        <ele>-216</ele>
        <time>2025-09-07T11:47:28.000Z</time>
        <extensions>
          <ns3:TrackPointExtension>
            <ns3:hr>120</ns3:hr>
            <ns3:cad>61</ns3:cad>
          </ns3:TrackPointExtension>
        </extensions>
      </trkpt>
      <trkpt lat="52.32149493880569934844970703125" lon="1.67484649457037448883056640625">
        <ele>-216.1999969482421875</ele>
        <time>2025-09-07T11:47:32.000Z</time>
        <extensions>
          <ns3:TrackPointExtension>
            <ns3:hr>121</ns3:hr>
            <ns3:cad>60</ns3:cad>
          </ns3:TrackPointExtension>
        </extensions>
      </trkpt>
      <trkpt lat="52.32157641090452671051025390625" lon="1.67502368800342082977294921875">
        <ele>-216.399993896484375</ele>
        <time>2025-09-07T11:47:41.000Z</time>
        <extensions>
          <ns3:TrackPointExtension>
            <ns3:hr>120</ns3:hr>
            <ns3:cad>60</ns3:cad>
          </ns3:TrackPointExtension>
        </extensions>
      </trkpt>
      <trkpt lat="52.3216566257178783416748046875" lon="1.67514924891293048858642578125">
        <ele>-216.399993896484375</ele>
        <time>2025-09-07T11:47:48.000Z</time>
        <extensions>
          <ns3:TrackPointExtension>
            <ns3:hr>121</ns3:hr>
            <ns3:cad>0</ns3:cad>
          </ns3:TrackPointExtension>
        </extensions>
      </trkpt>
      <trkpt lat="52.321746312081813812255859375" lon="1.67531512677669525146484375">
        <ele>-216.399993896484375</ele>
        <time>2025-09-07T11:47:57.000Z</time>
        <extensions>
          <ns3:TrackPointExtension>
            <ns3:hr>122</ns3:hr>
            <ns3:cad>65</ns3:cad>
          </ns3:TrackPointExtension>
        </extensions>
      </trkpt>
      <trkpt lat="52.32186265289783477783203125" lon="1.67547631077468395233154296875">
        <ele>-216.399993896484375</ele>
        <time>2025-09-07T11:48:06.000Z</time>
        <extensions>
          <ns3:TrackPointExtension>
            <ns3:hr>122</ns3:hr>
            <ns3:cad>61</ns3:cad>
          </ns3:TrackPointExtension>
        </extensions>
      </trkpt>
      <trkpt lat="52.32190431095659732818603515625" lon="1.67549760080873966217041015625">
        <ele>-216.399993896484375</ele>
        <time>2025-09-07T11:48:12.000Z</time>
        <extensions>
          <ns3:TrackPointExtension>
            <ns3:hr>121</ns3:hr>
            <ns3:cad>0</ns3:cad>
          </ns3:TrackPointExtension>
        </extensions>
      </trkpt>
      <trkpt lat="52.3219087533652782440185546875" lon="1.67549877427518367767333984375">
        <ele>-216.399993896484375</ele>
        <time>2025-09-07T11:48:17.000Z</time>
        <extensions>
          <ns3:TrackPointExtension>
            <ns3:hr>124</ns3:hr>
            <ns3:cad>0</ns3:cad>
          </ns3:TrackPointExtension>
        </extensions>
      </trkpt>
      <trkpt lat="52.32194839976727962493896484375" lon="1.675548143684864044189453125">
        <ele>-216.399993896484375</ele>
        <time>2025-09-07T11:48:22.000Z</time>
        <extensions>
          <ns3:TrackPointExtension>
            <ns3:hr>124</ns3:hr>
            <ns3:cad>0</ns3:cad>
          </ns3:TrackPointExtension>
        </extensions>
      </trkpt>
      <trkpt lat="52.32204060070216655731201171875" lon="1.67565803043544292449951171875">
        <ele>-216.8000030517578125</ele>
        <time>2025-09-07T11:48:30.000Z</time>
        <extensions>
          <ns3:TrackPointExtension>
            <ns3:hr>122</ns3:hr>
            <ns3:cad>60</ns3:cad>
          </ns3:TrackPointExtension>
        </extensions>
      </trkpt>
      <trkpt lat="52.322084605693817138671875" lon="1.6757055558264255523681640625">
        <ele>-217</ele>
        <time>2025-09-07T11:48:34.000Z</time>
        <extensions>
          <ns3:TrackPointExtension>
            <ns3:hr>121</ns3:hr>
            <ns3:cad>61</ns3:cad>
          </ns3:TrackPointExtension>
        </extensions>
      </trkpt>
      <trkpt lat="52.3221055604517459869384765625" lon="1.675737909972667694091796875">
        <ele>-217</ele>
        <time>2025-09-07T11:48:36.000Z</time>
        <extensions>
          <ns3:TrackPointExtension>
            <ns3:hr>120</ns3:hr>
            <ns3:cad>60</ns3:cad>
          </ns3:TrackPointExtension>
        </extensions>
      </trkpt>
      <trkpt lat="52.32214839197695255279541015625" lon="1.67581946589052677154541015625">
        <ele>-217</ele>
        <time>2025-09-07T11:48:41.000Z</time>
        <extensions>
          <ns3:TrackPointExtension>
            <ns3:hr>117</ns3:hr>
            <ns3:cad>58</ns3:cad>
          </ns3:TrackPointExtension>
        </extensions>
      </trkpt>
      <trkpt lat="52.32216817326843738555908203125" lon="1.6758788935840129852294921875">
        <ele>-216.8000030517578125</ele>
        <time>2025-09-07T11:48:44.000Z</time>
        <extensions>
          <ns3:TrackPointExtension>
            <ns3:hr>121</ns3:hr>
            <ns3:cad>58</ns3:cad>
          </ns3:TrackPointExtension>
        </extensions>
      </trkpt>
      <trkpt lat="52.32224361039698123931884765625" lon="1.67599012143909931182861328125">
        <ele>-216.399993896484375</ele>
        <time>2025-09-07T11:48:51.000Z</time>
        <extensions>
          <ns3:TrackPointExtension>
            <ns3:hr>124</ns3:hr>
            <ns3:cad>61</ns3:cad>
          </ns3:TrackPointExtension>
        </extensions>
      </trkpt>
      <trkpt lat="52.322272360324859619140625" lon="1.67602591216564178466796875">
        <ele>-216.1999969482421875</ele>
        <time>2025-09-07T11:48:53.000Z</time>
        <extensions>
          <ns3:TrackPointExtension>
            <ns3:hr>125</ns3:hr>
            <ns3:cad>61</ns3:cad>
          </ns3:TrackPointExtension>
        </extensions>
      </trkpt>
      <trkpt lat="52.3223275132477283477783203125" lon="1.676098667085170745849609375">
        <ele>-216</ele>
        <time>2025-09-07T11:48:57.000Z</time>
        <extensions>
          <ns3:TrackPointExtension>
            <ns3:hr>122</ns3:hr>
            <ns3:cad>60</ns3:cad>
          </ns3:TrackPointExtension>
        </extensions>
      </trkpt>
      <trkpt lat="52.3223395831882953643798828125" lon="1.67611752636730670928955078125">
        <ele>-216</ele>
        <time>2025-09-07T11:48:58.000Z</time>
        <extensions>
          <ns3:TrackPointExtension>
            <ns3:hr>122</ns3:hr>
            <ns3:cad>60</ns3:cad>
          </ns3:TrackPointExtension>
        </extensions>
      </trkpt>
      <trkpt lat="52.322390042245388031005859375" lon="1.6762044467031955718994140625">
        <ele>-215.600006103515625</ele>
        <time>2025-09-07T11:49:03.000Z</time>
        <extensions>
          <ns3:TrackPointExtension>
            <ns3:hr>124</ns3:hr>
            <ns3:cad>60</ns3:cad>
          </ns3:TrackPointExtension>
        </extensions>
      </trkpt>
      <trkpt lat="52.32242859899997711181640625" lon="1.6763016767799854278564453125">
        <ele>-215.399993896484375</ele>
        <time>2025-09-07T11:49:08.000Z</time>
        <extensions>
          <ns3:TrackPointExtension>
            <ns3:hr>120</ns3:hr>
            <ns3:cad>60</ns3:cad>
          </ns3:TrackPointExtension>
        </extensions>
      </trkpt>
      <trkpt lat="52.3224529065191745758056640625" lon="1.6763901896774768829345703125">
        <ele>-215.1999969482421875</ele>
        <time>2025-09-07T11:49:12.000Z</time>
        <extensions>
          <ns3:TrackPointExtension>
            <ns3:hr>118</ns3:hr>
            <ns3:cad>62</ns3:cad>
          </ns3:TrackPointExtension>
        </extensions>
      </trkpt>
      <trkpt lat="52.32246019877493381500244140625" lon="1.6764463484287261962890625">
        <ele>-215</ele>
        <time>2025-09-07T11:49:15.000Z</time>
        <extensions>
          <ns3:TrackPointExtension>
            <ns3:hr>119</ns3:hr>
            <ns3:cad>60</ns3:cad>
          </ns3:TrackPointExtension>
        </extensions>
      </trkpt>
      <trkpt lat="52.32248014770448207855224609375" lon="1.67649571783840656280517578125">
        <ele>-214.8000030517578125</ele>
        <time>2025-09-07T11:49:18.000Z</time>
        <extensions>
          <ns3:TrackPointExtension>
            <ns3:hr>116</ns3:hr>
            <ns3:cad>60</ns3:cad>
          </ns3:TrackPointExtension>
        </extensions>
      </trkpt>
      <trkpt lat="52.32248852960765361785888671875" lon="1.676511056721210479736328125">
        <ele>-214.8000030517578125</ele>
        <time>2025-09-07T11:49:19.000Z</time>
        <extensions>
          <ns3:TrackPointExtension>
            <ns3:hr>115</ns3:hr>
            <ns3:cad>58</ns3:cad>
          </ns3:TrackPointExtension>
        </extensions>
      </trkpt>
      <trkpt lat="52.3225177824497222900390625" lon="1.67653829790651798248291015625">
        <ele>-214.600006103515625</ele>
        <time>2025-09-07T11:49:21.000Z</time>
        <extensions>
          <ns3:TrackPointExtension>
            <ns3:hr>112</ns3:hr>
            <ns3:cad>58</ns3:cad>
          </ns3:TrackPointExtension>
        </extensions>
      </trkpt>
      <trkpt lat="52.32255592010915279388427734375" lon="1.6765829734504222869873046875">
        <ele>-214.600006103515625</ele>
        <time>2025-09-07T11:49:24.000Z</time>
        <extensions>
          <ns3:TrackPointExtension>
            <ns3:hr>115</ns3:hr>
            <ns3:cad>60</ns3:cad>
          </ns3:TrackPointExtension>
        </extensions>
      </trkpt>
      <trkpt lat="52.32259212993085384368896484375" lon="1.6766268946230411529541015625">
        <ele>-214.399993896484375</ele>
        <time>2025-09-07T11:49:27.000Z</time>
        <extensions>
          <ns3:TrackPointExtension>
            <ns3:hr>116</ns3:hr>
            <ns3:cad>60</ns3:cad>
          </ns3:TrackPointExtension>
        </extensions>
      </trkpt>
      <trkpt lat="52.3226185329258441925048828125" lon="1.6766540519893169403076171875">
        <ele>-214.399993896484375</ele>
        <time>2025-09-07T11:49:29.000Z</time>
        <extensions>
          <ns3:TrackPointExtension>
            <ns3:hr>119</ns3:hr>
            <ns3:cad>60</ns3:cad>
          </ns3:TrackPointExtension>
        </extensions>
      </trkpt>
      <trkpt lat="52.32267804443836212158203125" lon="1.676726639270782470703125">
        <ele>-214.1999969482421875</ele>
        <time>2025-09-07T11:49:35.000Z</time>
        <extensions>
          <ns3:TrackPointExtension>
            <ns3:hr>121</ns3:hr>
            <ns3:cad>67</ns3:cad>
          </ns3:TrackPointExtension>
        </extensions>
      </trkpt>
      <trkpt lat="52.3226840794086456298828125" lon="1.67673728428781032562255859375">
        <ele>-214.1999969482421875</ele>
        <time>2025-09-07T11:49:36.000Z</time>
        <extensions>
          <ns3:TrackPointExtension>
            <ns3:hr>118</ns3:hr>
            <ns3:cad>67</ns3:cad>
          </ns3:TrackPointExtension>
        </extensions>
      </trkpt>
      <trkpt lat="52.32272230088710784912109375" lon="1.67678355239331722259521484375">
        <ele>-214</ele>
        <time>2025-09-07T11:49:40.000Z</time>
        <extensions>
          <ns3:TrackPointExtension>
            <ns3:hr>114</ns3:hr>
            <ns3:cad>61</ns3:cad>
          </ns3:TrackPointExtension>
        </extensions>
      </trkpt>
      <trkpt lat="52.3227274976670742034912109375" lon="1.67678497731685638427734375">
        <ele>-214</ele>
        <time>2025-09-07T11:49:41.000Z</time>
        <extensions>
          <ns3:TrackPointExtension>
            <ns3:hr>110</ns3:hr>
            <ns3:cad>0</ns3:cad>
          </ns3:TrackPointExtension>
        </extensions>
      </trkpt>
      <trkpt lat="52.3227308504283428192138671875" lon="1.67678824625909328460693359375">
        <ele>-214</ele>
        <time>2025-09-07T11:49:42.000Z</time>
        <extensions>
          <ns3:TrackPointExtension>
            <ns3:hr>107</ns3:hr>
            <ns3:cad>0</ns3:cad>
          </ns3:TrackPointExtension>
        </extensions>
      </trkpt>
      <trkpt lat="52.32274015434086322784423828125" lon="1.67679210193455219268798828125">
        <ele>-214</ele>
        <time>2025-09-07T11:49:43.000Z</time>
        <extensions>
          <ns3:TrackPointExtension>
            <ns3:hr>106</ns3:hr>
            <ns3:cad>0</ns3:cad>
          </ns3:TrackPointExtension>
        </extensions>
      </trkpt>
      <trkpt lat="52.32280083931982517242431640625" lon="1.6768567264080047607421875">
        <ele>-213.399993896484375</ele>
        <time>2025-09-07T11:49:51.000Z</time>
        <extensions>
          <ns3:TrackPointExtension>
            <ns3:hr>102</ns3:hr>
            <ns3:cad>56</ns3:cad>
          </ns3:TrackPointExtension>
        </extensions>
      </trkpt>
      <trkpt lat="52.3228139989078044891357421875" lon="1.67686401866376399993896484375">
        <ele>-213.399993896484375</ele>
        <time>2025-09-07T11:49:52.000Z</time>
        <extensions>
          <ns3:TrackPointExtension>
            <ns3:hr>106</ns3:hr>
            <ns3:cad>56</ns3:cad>
          </ns3:TrackPointExtension>
        </extensions>
      </trkpt>
      <trkpt lat="52.322824560105800628662109375" lon="1.67687055654823780059814453125">
        <ele>-213.399993896484375</ele>
        <time>2025-09-07T11:49:53.000Z</time>
        <extensions>
          <ns3:TrackPointExtension>
            <ns3:hr>113</ns3:hr>
            <ns3:cad>55</ns3:cad>
          </ns3:TrackPointExtension>
        </extensions>
      </trkpt>
      <trkpt lat="52.322832606732845306396484375" lon="1.67687977664172649383544921875">
        <ele>-213.1999969482421875</ele>
        <time>2025-09-07T11:49:54.000Z</time>
        <extensions>
          <ns3:TrackPointExtension>
            <ns3:hr>114</ns3:hr>
            <ns3:cad>55</ns3:cad>
          </ns3:TrackPointExtension>
        </extensions>
      </trkpt>
      <trkpt lat="52.32284928672015666961669921875" lon="1.67690374888479709625244140625">
        <ele>-213</ele>
        <time>2025-09-07T11:49:56.000Z</time>
        <extensions>
          <ns3:TrackPointExtension>
            <ns3:hr>113</ns3:hr>
            <ns3:cad>56</ns3:cad>
          </ns3:TrackPointExtension>
        </extensions>
      </trkpt>
      <trkpt lat="52.3228891007602214813232421875" lon="1.67701120488345623016357421875">
        <ele>-211.8000030517578125</ele>
        <time>2025-09-07T11:50:02.000Z</time>
        <extensions>
          <ns3:TrackPointExtension>
            <ns3:hr>114</ns3:hr>
            <ns3:cad>58</ns3:cad>
          </ns3:TrackPointExtension>
        </extensions>
      </trkpt>
      <trkpt lat="52.32294701971113681793212890625" lon="1.67712000198662281036376953125">
        <ele>-210.8000030517578125</ele>
        <time>2025-09-07T11:50:08.000Z</time>
        <extensions>
          <ns3:TrackPointExtension>
            <ns3:hr>117</ns3:hr>
            <ns3:cad>60</ns3:cad>
          </ns3:TrackPointExtension>
        </extensions>
      </trkpt>
      <trkpt lat="52.3229777812957763671875" lon="1.67716576717793941497802734375">
        <ele>-210.399993896484375</ele>
        <time>2025-09-07T11:50:11.000Z</time>
        <extensions>
          <ns3:TrackPointExtension>
            <ns3:hr>121</ns3:hr>
            <ns3:cad>60</ns3:cad>
          </ns3:TrackPointExtension>
        </extensions>
      </trkpt>
      <trkpt lat="52.3229885101318359375" lon="1.67717733420431613922119140625">
        <ele>-210.399993896484375</ele>
        <time>2025-09-07T11:50:12.000Z</time>
        <extensions>
          <ns3:TrackPointExtension>
            <ns3:hr>118</ns3:hr>
            <ns3:cad>60</ns3:cad>
          </ns3:TrackPointExtension>
        </extensions>
      </trkpt>
      <trkpt lat="52.32301600277423858642578125" lon="1.6772005520761013031005859375">
        <ele>-210.1999969482421875</ele>
        <time>2025-09-07T11:50:14.000Z</time>
        <extensions>
          <ns3:TrackPointExtension>
            <ns3:hr>121</ns3:hr>
            <ns3:cad>61</ns3:cad>
          </ns3:TrackPointExtension>
        </extensions>
      </trkpt>
      <trkpt lat="52.3230274021625518798828125" lon="1.6772132925689220428466796875">
        <ele>-210</ele>
        <time>2025-09-07T11:50:15.000Z</time>
        <extensions>
          <ns3:TrackPointExtension>
            <ns3:hr>124</ns3:hr>
            <ns3:cad>61</ns3:cad>
          </ns3:TrackPointExtension>
        </extensions>
      </trkpt>
      <trkpt lat="52.3230453394353389739990234375" lon="1.677241958677768707275390625">
        <ele>-209.8000030517578125</ele>
        <time>2025-09-07T11:50:17.000Z</time>
        <extensions>
          <ns3:TrackPointExtension>
            <ns3:hr>128</ns3:hr>
            <ns3:cad>61</ns3:cad>
          </ns3:TrackPointExtension>
        </extensions>
      </trkpt>
      <trkpt lat="52.32307945378124713897705078125" lon="1.67728722095489501953125">
        <ele>-209.399993896484375</ele>
        <time>2025-09-07T11:50:20.000Z</time>
        <extensions>
          <ns3:TrackPointExtension>
            <ns3:hr>131</ns3:hr>
            <ns3:cad>59</ns3:cad>
          </ns3:TrackPointExtension>
        </extensions>
      </trkpt>
      <trkpt lat="52.3231224529445171356201171875" lon="1.67734195478260517120361328125">
        <ele>-209.1999969482421875</ele>
        <time>2025-09-07T11:50:23.000Z</time>
        <extensions>
          <ns3:TrackPointExtension>
            <ns3:hr>131</ns3:hr>
            <ns3:cad>61</ns3:cad>
          </ns3:TrackPointExtension>
        </extensions>
      </trkpt>
      <trkpt lat="52.32318322174251079559326171875" lon="1.67738101445138454437255859375">
        <ele>-208.8000030517578125</ele>
        <time>2025-09-07T11:50:26.000Z</time>
        <extensions>
          <ns3:TrackPointExtension>
            <ns3:hr>133</ns3:hr>
            <ns3:cad>61</ns3:cad>
          </ns3:TrackPointExtension>
        </extensions>
      </trkpt>
      <trkpt lat="52.3232159949839115142822265625" lon="1.6774292103946208953857421875">
        <ele>-208.399993896484375</ele>
        <time>2025-09-07T11:50:29.000Z</time>
        <extensions>
          <ns3:TrackPointExtension>
            <ns3:hr>130</ns3:hr>
            <ns3:cad>60</ns3:cad>
          </ns3:TrackPointExtension>
        </extensions>
      </trkpt>
      <trkpt lat="52.3232314176857471466064453125" lon="1.67746466584503650665283203125">
        <ele>-208.1999969482421875</ele>
        <time>2025-09-07T11:50:31.000Z</time>
        <extensions>
          <ns3:TrackPointExtension>
            <ns3:hr>131</ns3:hr>
            <ns3:cad>61</ns3:cad>
          </ns3:TrackPointExtension>
        </extensions>
      </trkpt>
      <trkpt lat="52.323284558951854705810546875" lon="1.6775286197662353515625">
        <ele>-207.8000030517578125</ele>
        <time>2025-09-07T11:50:35.000Z</time>
        <extensions>
          <ns3:TrackPointExtension>
            <ns3:hr>131</ns3:hr>
            <ns3:cad>0</ns3:cad>
          </ns3:TrackPointExtension>
        </extensions>
      </trkpt>
      <trkpt lat="52.32329755090177059173583984375" lon="1.677561812102794647216796875">
        <ele>-207.399993896484375</ele>
        <time>2025-09-07T11:50:37.000Z</time>
        <extensions>
          <ns3:TrackPointExtension>
            <ns3:hr>131</ns3:hr>
            <ns3:cad>0</ns3:cad>
          </ns3:TrackPointExtension>
        </extensions>
      </trkpt>
      <trkpt lat="52.3232956230640411376953125" lon="1.6775794140994548797607421875">
        <ele>-207.399993896484375</ele>
        <time>2025-09-07T11:50:38.000Z</time>
        <extensions>
          <ns3:TrackPointExtension>
            <ns3:hr>132</ns3:hr>
            <ns3:cad>62</ns3:cad>
          </ns3:TrackPointExtension>
        </extensions>
      </trkpt>
      <trkpt lat="52.32330895029008388519287109375" lon="1.67765057645738124847412109375">
        <ele>-206.600006103515625</ele>
        <time>2025-09-07T11:50:44.000Z</time>
        <extensions>
          <ns3:TrackPointExtension>
            <ns3:hr>130</ns3:hr>
            <ns3:cad>0</ns3:cad>
          </ns3:TrackPointExtension>
        </extensions>
      </trkpt>
      <trkpt lat="52.32332043349742889404296875" lon="1.67768175713717937469482421875">
        <ele>-206.399993896484375</ele>
        <time>2025-09-07T11:50:46.000Z</time>
        <extensions>
          <ns3:TrackPointExtension>
            <ns3:hr>132</ns3:hr>
            <ns3:cad>0</ns3:cad>
          </ns3:TrackPointExtension>
        </extensions>
      </trkpt>
      <trkpt lat="52.32331481762230396270751953125" lon="1.6776716150343418121337890625">
        <ele>-206.1999969482421875</ele>
        <time>2025-09-07T11:50:48.000Z</time>
        <extensions>
          <ns3:TrackPointExtension>
            <ns3:hr>129</ns3:hr>
            <ns3:cad>49</ns3:cad>
          </ns3:TrackPointExtension>
        </extensions>
      </trkpt>
      <trkpt lat="52.3233075253665447235107421875" lon="1.67765225283801555633544921875">
        <ele>-206</ele>
        <time>2025-09-07T11:50:50.000Z</time>
        <extensions>
          <ns3:TrackPointExtension>
            <ns3:hr>126</ns3:hr>
            <ns3:cad>49</ns3:cad>
          </ns3:TrackPointExtension>
        </extensions>
      </trkpt>
      <trkpt lat="52.32330593280494213104248046875" lon="1.67767035774886608123779296875">
        <ele>-205.8000030517578125</ele>
        <time>2025-09-07T11:50:52.000Z</time>
        <extensions>
          <ns3:TrackPointExtension>
            <ns3:hr>125</ns3:hr>
            <ns3:cad>0</ns3:cad>
          </ns3:TrackPointExtension>
        </extensions>
      </trkpt>
      <trkpt lat="52.323310039937496185302734375" lon="1.67768997140228748321533203125">
        <ele>-205.399993896484375</ele>
        <time>2025-09-07T11:50:54.000Z</time>
        <extensions>
          <ns3:TrackPointExtension>
            <ns3:hr>125</ns3:hr>
            <ns3:cad>48</ns3:cad>
          </ns3:TrackPointExtension>
        </extensions>
      </trkpt>
      <trkpt lat="52.323324121534824371337890625" lon="1.67777999304234981536865234375">
        <ele>-204.8000030517578125</ele>
        <time>2025-09-07T11:51:00.000Z</time>
        <extensions>
          <ns3:TrackPointExtension>
            <ns3:hr>125</ns3:hr>
            <ns3:cad>54</ns3:cad>
          </ns3:TrackPointExtension>
        </extensions>
      </trkpt>
      <trkpt lat="52.3233413882553577423095703125" lon="1.677805222570896148681640625">
        <ele>-204.399993896484375</ele>
        <time>2025-09-07T11:51:02.000Z</time>
        <extensions>
          <ns3:TrackPointExtension>
            <ns3:hr>122</ns3:hr>
            <ns3:cad>54</ns3:cad>
          </ns3:TrackPointExtension>
        </extensions>
      </trkpt>
      <trkpt lat="52.3233913443982601165771484375" lon="1.67792784981429576873779296875">
        <ele>-203.1999969482421875</ele>
        <time>2025-09-07T11:51:09.000Z</time>
        <extensions>
          <ns3:TrackPointExtension>
            <ns3:hr>122</ns3:hr>
            <ns3:cad>53</ns3:cad>
          </ns3:TrackPointExtension>
        </extensions>
      </trkpt>
      <trkpt lat="52.32340550981462001800537109375" lon="1.678006388247013092041015625">
        <ele>-202.600006103515625</ele>
        <time>2025-09-07T11:51:13.000Z</time>
        <extensions>
          <ns3:TrackPointExtension>
            <ns3:hr>125</ns3:hr>
            <ns3:cad>56</ns3:cad>
          </ns3:TrackPointExtension>
        </extensions>
      </trkpt>
      <trkpt lat="52.32341657392680644989013671875" lon="1.67804938741028308868408203125">
        <ele>-202.1999969482421875</ele>
        <time>2025-09-07T11:51:15.000Z</time>
        <extensions>
          <ns3:TrackPointExtension>
            <ns3:hr>126</ns3:hr>
            <ns3:cad>56</ns3:cad>
          </ns3:TrackPointExtension>
        </extensions>
      </trkpt>
      <trkpt lat="52.3234215192496776580810546875" lon="1.6780712641775608062744140625">
        <ele>-202</ele>
        <time>2025-09-07T11:51:16.000Z</time>
        <extensions>
          <ns3:TrackPointExtension>
            <ns3:hr>125</ns3:hr>
            <ns3:cad>56</ns3:cad>
          </ns3:TrackPointExtension>
        </extensions>
      </trkpt>
      <trkpt lat="52.32344674877822399139404296875" lon="1.6781638003885746002197265625">
        <ele>-201</ele>
        <time>2025-09-07T11:51:21.000Z</time>
        <extensions>
          <ns3:TrackPointExtension>
            <ns3:hr>125</ns3:hr>
            <ns3:cad>55</ns3:cad>
          </ns3:TrackPointExtension>
        </extensions>
      </trkpt>
      <trkpt lat="52.323468960821628570556640625" lon="1.67821166105568408966064453125">
        <ele>-200.600006103515625</ele>
        <time>2025-09-07T11:51:24.000Z</time>
        <extensions>
          <ns3:TrackPointExtension>
            <ns3:hr>126</ns3:hr>
            <ns3:cad>57</ns3:cad>
          </ns3:TrackPointExtension>
        </extensions>
      </trkpt>
      <trkpt lat="52.32349050231277942657470703125" lon="1.6782684065401554107666015625">
        <ele>-200</ele>
        <time>2025-09-07T11:51:27.000Z</time>
        <extensions>
          <ns3:TrackPointExtension>
            <ns3:hr>127</ns3:hr>
            <ns3:cad>57</ns3:cad>
          </ns3:TrackPointExtension>
        </extensions>
      </trkpt>
      <trkpt lat="52.3235157318413257598876953125" lon="1.6783297620713710784912109375">
        <ele>-199.399993896484375</ele>
        <time>2025-09-07T11:51:31.000Z</time>
        <extensions>
          <ns3:TrackPointExtension>
            <ns3:hr>125</ns3:hr>
            <ns3:cad>57</ns3:cad>
          </ns3:TrackPointExtension>
        </extensions>
      </trkpt>
      <trkpt lat="52.323538362979888916015625" lon="1.67836287058889865875244140625">
        <ele>-199</ele>
        <time>2025-09-07T11:51:33.000Z</time>
        <extensions>
          <ns3:TrackPointExtension>
            <ns3:hr>123</ns3:hr>
            <ns3:cad>57</ns3:cad>
          </ns3:TrackPointExtension>
        </extensions>
      </trkpt>
      <trkpt lat="52.32361120171844959259033203125" lon="1.6784709133207798004150390625">
        <ele>-198</ele>
        <time>2025-09-07T11:51:39.000Z</time>
        <extensions>
          <ns3:TrackPointExtension>
            <ns3:hr>125</ns3:hr>
            <ns3:cad>59</ns3:cad>
          </ns3:TrackPointExtension>
        </extensions>
      </trkpt>
      <trkpt lat="52.3236250318586826324462890625" lon="1.6785062849521636962890625">
        <ele>-197.399993896484375</ele>
        <time>2025-09-07T11:51:41.000Z</time>
        <extensions>
          <ns3:TrackPointExtension>
            <ns3:hr>125</ns3:hr>
            <ns3:cad>60</ns3:cad>
          </ns3:TrackPointExtension>
        </extensions>
      </trkpt>
      <trkpt lat="52.32365461997687816619873046875" lon="1.67855766601860523223876953125">
        <ele>-196.8000030517578125</ele>
        <time>2025-09-07T11:51:44.000Z</time>
        <extensions>
          <ns3:TrackPointExtension>
            <ns3:hr>124</ns3:hr>
            <ns3:cad>60</ns3:cad>
          </ns3:TrackPointExtension>
        </extensions>
      </trkpt>
      <trkpt lat="52.3236712999641895294189453125" lon="1.6785899363458156585693359375">
        <ele>-196.1999969482421875</ele>
        <time>2025-09-07T11:51:46.000Z</time>
        <extensions>
          <ns3:TrackPointExtension>
            <ns3:hr>120</ns3:hr>
            <ns3:cad>59</ns3:cad>
          </ns3:TrackPointExtension>
        </extensions>
      </trkpt>
      <trkpt lat="52.323686219751834869384765625" lon="1.678620614111423492431640625">
        <ele>-195.600006103515625</ele>
        <time>2025-09-07T11:51:48.000Z</time>
        <extensions>
          <ns3:TrackPointExtension>
            <ns3:hr>120</ns3:hr>
            <ns3:cad>60</ns3:cad>
          </ns3:TrackPointExtension>
        </extensions>
      </trkpt>
      <trkpt lat="52.32370776124298572540283203125" lon="1.678663194179534912109375">
        <ele>-194.8000030517578125</ele>
        <time>2025-09-07T11:51:51.000Z</time>
        <extensions>
          <ns3:TrackPointExtension>
            <ns3:hr>119</ns3:hr>
            <ns3:cad>58</ns3:cad>
          </ns3:TrackPointExtension>
        </extensions>
      </trkpt>
      <trkpt lat="52.32371681369841098785400390625" lon="1.678676605224609375">
        <ele>-194.399993896484375</ele>
        <time>2025-09-07T11:51:52.000Z</time>
        <extensions>
          <ns3:TrackPointExtension>
            <ns3:hr>122</ns3:hr>
            <ns3:cad>57</ns3:cad>
          </ns3:TrackPointExtension>
        </extensions>
      </trkpt>
      <trkpt lat="52.32374288141727447509765625" lon="1.6787220351397991180419921875">
        <ele>-193.399993896484375</ele>
        <time>2025-09-07T11:51:55.000Z</time>
        <extensions>
          <ns3:TrackPointExtension>
            <ns3:hr>120</ns3:hr>
            <ns3:cad>55</ns3:cad>
          </ns3:TrackPointExtension>
        </extensions>
      </trkpt>
      <trkpt lat="52.32375754974782466888427734375" lon="1.67876981198787689208984375">
        <ele>-192.1999969482421875</ele>
        <time>2025-09-07T11:51:58.000Z</time>
        <extensions>
          <ns3:TrackPointExtension>
            <ns3:hr>119</ns3:hr>
            <ns3:cad>55</ns3:cad>
          </ns3:TrackPointExtension>
        </extensions>
      </trkpt>
      <trkpt lat="52.3237685300409793853759765625" lon="1.67878783307969570159912109375">
        <ele>-191.8000030517578125</ele>
        <time>2025-09-07T11:51:59.000Z</time>
        <extensions>
          <ns3:TrackPointExtension>
            <ns3:hr>120</ns3:hr>
            <ns3:cad>56</ns3:cad>
          </ns3:TrackPointExtension>
        </extensions>
      </trkpt>
      <trkpt lat="52.32377951033413410186767578125" lon="1.67882077395915985107421875">
        <ele>-191</ele>
        <time>2025-09-07T11:52:01.000Z</time>
        <extensions>
          <ns3:TrackPointExtension>
            <ns3:hr>119</ns3:hr>
            <ns3:cad>57</ns3:cad>
          </ns3:TrackPointExtension>
        </extensions>
      </trkpt>
      <trkpt lat="52.323804907500743865966796875" lon="1.67887785471975803375244140625">
        <ele>-189.8000030517578125</ele>
        <time>2025-09-07T11:52:04.000Z</time>
        <extensions>
          <ns3:TrackPointExtension>
            <ns3:hr>117</ns3:hr>
            <ns3:cad>58</ns3:cad>
          </ns3:TrackPointExtension>
        </extensions>
      </trkpt>
      <trkpt lat="52.32381999492645263671875" lon="1.6789372824132442474365234375">
        <ele>-188.8000030517578125</ele>
        <time>2025-09-07T11:52:07.000Z</time>
        <extensions>
          <ns3:TrackPointExtension>
            <ns3:hr>120</ns3:hr>
            <ns3:cad>58</ns3:cad>
          </ns3:TrackPointExtension>
        </extensions>
      </trkpt>
      <trkpt lat="52.32382426969707012176513671875" lon="1.678955554962158203125">
        <ele>-188.399993896484375</ele>
        <time>2025-09-07T11:52:08.000Z</time>
        <extensions>
          <ns3:TrackPointExtension>
            <ns3:hr>121</ns3:hr>
            <ns3:cad>58</ns3:cad>
          </ns3:TrackPointExtension>
        </extensions>
      </trkpt>
      <trkpt lat="52.3238318972289562225341796875" lon="1.6789939440786838531494140625">
        <ele>-187.600006103515625</ele>
        <time>2025-09-07T11:52:10.000Z</time>
        <extensions>
          <ns3:TrackPointExtension>
            <ns3:hr>120</ns3:hr>
            <ns3:cad>58</ns3:cad>
          </ns3:TrackPointExtension>
        </extensions>
      </trkpt>
      <trkpt lat="52.3238466493785381317138671875" lon="1.6790449060499668121337890625">
        <ele>-186.600006103515625</ele>
        <time>2025-09-07T11:52:13.000Z</time>
        <extensions>
          <ns3:TrackPointExtension>
            <ns3:hr>118</ns3:hr>
            <ns3:cad>56</ns3:cad>
          </ns3:TrackPointExtension>
        </extensions>
      </trkpt>
      <trkpt lat="52.323871292173862457275390625" lon="1.679092012345790863037109375">
        <ele>-185.399993896484375</ele>
        <time>2025-09-07T11:52:16.000Z</time>
        <extensions>
          <ns3:TrackPointExtension>
            <ns3:hr>118</ns3:hr>
            <ns3:cad>57</ns3:cad>
          </ns3:TrackPointExtension>
        </extensions>
      </trkpt>
      <trkpt lat="52.3238862119615077972412109375" lon="1.67911958880722522735595703125">
        <ele>-184.600006103515625</ele>
        <time>2025-09-07T11:52:18.000Z</time>
        <extensions>
          <ns3:TrackPointExtension>
            <ns3:hr>117</ns3:hr>
            <ns3:cad>0</ns3:cad>
          </ns3:TrackPointExtension>
        </extensions>
      </trkpt>
      <trkpt lat="52.32388981617987155914306640625" lon="1.67913459241390228271484375">
        <ele>-184.1999969482421875</ele>
        <time>2025-09-07T11:52:19.000Z</time>
        <extensions>
          <ns3:TrackPointExtension>
            <ns3:hr>116</ns3:hr>
            <ns3:cad>0</ns3:cad>
          </ns3:TrackPointExtension>
        </extensions>
      </trkpt>
      <trkpt lat="52.3239173926413059234619140625" lon="1.67917910031974315643310546875">
        <ele>-183</ele>
        <time>2025-09-07T11:52:22.000Z</time>
        <extensions>
          <ns3:TrackPointExtension>
            <ns3:hr>118</ns3:hr>
            <ns3:cad>53</ns3:cad>
          </ns3:TrackPointExtension>
        </extensions>
      </trkpt>
      <trkpt lat="52.32392535544931888580322265625" lon="1.679222099483013153076171875">
        <ele>-181.8000030517578125</ele>
        <time>2025-09-07T11:52:25.000Z</time>
        <extensions>
          <ns3:TrackPointExtension>
            <ns3:hr>118</ns3:hr>
            <ns3:cad>50</ns3:cad>
          </ns3:TrackPointExtension>
        </extensions>
      </trkpt>
      <trkpt lat="52.32393055222928524017333984375" lon="1.679235510528087615966796875">
        <ele>-181.399993896484375</ele>
        <time>2025-09-07T11:52:26.000Z</time>
        <extensions>
          <ns3:TrackPointExtension>
            <ns3:hr>118</ns3:hr>
            <ns3:cad>48</ns3:cad>
          </ns3:TrackPointExtension>
        </extensions>
      </trkpt>
      <trkpt lat="52.32394027523696422576904296875" lon="1.6792792640626430511474609375">
        <ele>-180.600006103515625</ele>
        <time>2025-09-07T11:52:28.000Z</time>
        <extensions>
          <ns3:TrackPointExtension>
            <ns3:hr>116</ns3:hr>
            <ns3:cad>48</ns3:cad>
          </ns3:TrackPointExtension>
        </extensions>
      </trkpt>
      <trkpt lat="52.32396860606968402862548828125" lon="1.67932796292006969451904296875">
        <ele>-179.1999969482421875</ele>
        <time>2025-09-07T11:52:31.000Z</time>
        <extensions>
          <ns3:TrackPointExtension>
            <ns3:hr>116</ns3:hr>
            <ns3:cad>50</ns3:cad>
          </ns3:TrackPointExtension>
        </extensions>
      </trkpt>
      <trkpt lat="52.324000038206577301025390625" lon="1.679374314844608306884765625">
        <ele>-178</ele>
        <time>2025-09-07T11:52:34.000Z</time>
        <extensions>
          <ns3:TrackPointExtension>
            <ns3:hr>118</ns3:hr>
            <ns3:cad>52</ns3:cad>
          </ns3:TrackPointExtension>
        </extensions>
      </trkpt>
      <trkpt lat="52.32403147034347057342529296875" lon="1.67941329069435596466064453125">
        <ele>-176.600006103515625</ele>
        <time>2025-09-07T11:52:37.000Z</time>
        <extensions>
          <ns3:TrackPointExtension>
            <ns3:hr>118</ns3:hr>
            <ns3:cad>55</ns3:cad>
          </ns3:TrackPointExtension>
        </extensions>
      </trkpt>
      <trkpt lat="52.32405410148203372955322265625" lon="1.67943374253809452056884765625">
        <ele>-175.600006103515625</ele>
        <time>2025-09-07T11:52:39.000Z</time>
        <extensions>
          <ns3:TrackPointExtension>
            <ns3:hr>121</ns3:hr>
            <ns3:cad>55</ns3:cad>
          </ns3:TrackPointExtension>
        </extensions>
      </trkpt>
      <trkpt lat="52.32406566850841045379638671875" lon="1.679444722831249237060546875">
        <ele>-175</ele>
        <time>2025-09-07T11:52:40.000Z</time>
        <extensions>
          <ns3:TrackPointExtension>
            <ns3:hr>117</ns3:hr>
            <ns3:cad>55</ns3:cad>
          </ns3:TrackPointExtension>
        </extensions>
      </trkpt>
      <trkpt lat="52.32410372234880924224853515625" lon="1.67947464622557163238525390625">
        <ele>-173.600006103515625</ele>
        <time>2025-09-07T11:52:43.000Z</time>
        <extensions>
          <ns3:TrackPointExtension>
            <ns3:hr>119</ns3:hr>
            <ns3:cad>57</ns3:cad>
          </ns3:TrackPointExtension>
        </extensions>
      </trkpt>
      <trkpt lat="52.32412367127835750579833984375" lon="1.67949023656547069549560546875">
        <ele>-172.600006103515625</ele>
        <time>2025-09-07T11:52:45.000Z</time>
        <extensions>
          <ns3:TrackPointExtension>
            <ns3:hr>122</ns3:hr>
            <ns3:cad>0</ns3:cad>
          </ns3:TrackPointExtension>
        </extensions>
      </trkpt>
      <trkpt lat="52.32413574121892452239990234375" lon="1.679497696459293365478515625">
        <ele>-172.1999969482421875</ele>
        <time>2025-09-07T11:52:46.000Z</time>
        <extensions>
          <ns3:TrackPointExtension>
            <ns3:hr>121</ns3:hr>
            <ns3:cad>0</ns3:cad>
          </ns3:TrackPointExtension>
        </extensions>
      </trkpt>
      <trkpt lat="52.3241544328629970550537109375" lon="1.67952259071171283721923828125">
        <ele>-170.8000030517578125</ele>
        <time>2025-09-07T11:52:49.000Z</time>
        <extensions>
          <ns3:TrackPointExtension>
            <ns3:hr>122</ns3:hr>
            <ns3:cad>0</ns3:cad>
          </ns3:TrackPointExtension>
        </extensions>
      </trkpt>
      <trkpt lat="52.32415719889104366302490234375" lon="1.67950901202857494354248046875">
        <ele>-170</ele>
        <time>2025-09-07T11:52:51.000Z</time>
        <extensions>
          <ns3:TrackPointExtension>
            <ns3:hr>122</ns3:hr>
            <ns3:cad>0</ns3:cad>
          </ns3:TrackPointExtension>
        </extensions>
      </trkpt>
      <trkpt lat="52.324161641299724578857421875" lon="1.6794987022876739501953125">
        <ele>-169.600006103515625</ele>
        <time>2025-09-07T11:52:52.000Z</time>
        <extensions>
          <ns3:TrackPointExtension>
            <ns3:hr>120</ns3:hr>
            <ns3:cad>0</ns3:cad>
          </ns3:TrackPointExtension>
        </extensions>
      </trkpt>
      <trkpt lat="52.3241661675274372100830078125" lon="1.6794914938509464263916015625">
        <ele>-168.1999969482421875</ele>
        <time>2025-09-07T11:52:55.000Z</time>
        <extensions>
          <ns3:TrackPointExtension>
            <ns3:hr>119</ns3:hr>
            <ns3:cad>0</ns3:cad>
          </ns3:TrackPointExtension>
        </extensions>
      </trkpt>
      <trkpt lat="52.32415937818586826324462890625" lon="1.67948101647198200225830078125">
        <ele>-167</ele>
        <time>2025-09-07T11:52:58.000Z</time>
        <extensions>
          <ns3:TrackPointExtension>
            <ns3:hr>116</ns3:hr>
            <ns3:cad>0</ns3:cad>
          </ns3:TrackPointExtension>
        </extensions>
      </trkpt>
      <trkpt lat="52.32415887527167797088623046875" lon="1.67948663234710693359375">
        <ele>-166.1999969482421875</ele>
        <time>2025-09-07T11:53:00.000Z</time>
        <extensions>
          <ns3:TrackPointExtension>
            <ns3:hr>115</ns3:hr>
            <ns3:cad>0</ns3:cad>
          </ns3:TrackPointExtension>
        </extensions>
      </trkpt>
      <trkpt lat="52.324158959090709686279296875" lon="1.67949627153575420379638671875">
        <ele>-166</ele>
        <time>2025-09-07T11:53:01.000Z</time>
        <extensions>
          <ns3:TrackPointExtension>
            <ns3:hr>115</ns3:hr>
            <ns3:cad>0</ns3:cad>
          </ns3:TrackPointExtension>
        </extensions>
      </trkpt>
      <trkpt lat="52.32414579950273036956787109375" lon="1.6796420328319072723388671875">
        <ele>-164.8000030517578125</ele>
        <time>2025-09-07T11:53:08.000Z</time>
        <extensions>
          <ns3:TrackPointExtension>
            <ns3:hr>114</ns3:hr>
            <ns3:cad>61</ns3:cad>
          </ns3:TrackPointExtension>
        </extensions>
      </trkpt>
      <trkpt lat="52.324139177799224853515625" lon="1.67988116852939128875732421875">
        <ele>-164.8000030517578125</ele>
        <time>2025-09-07T11:53:17.000Z</time>
        <extensions>
          <ns3:TrackPointExtension>
            <ns3:hr>114</ns3:hr>
            <ns3:cad>0</ns3:cad>
          </ns3:TrackPointExtension>
        </extensions>
      </trkpt>
      <trkpt lat="52.32412031851708889007568359375" lon="1.68007797561585903167724609375">
        <ele>-165.1999969482421875</ele>
        <time>2025-09-07T11:53:25.000Z</time>
        <extensions>
          <ns3:TrackPointExtension>
            <ns3:hr>112</ns3:hr>
            <ns3:cad>0</ns3:cad>
          </ns3:TrackPointExtension>
        </extensions>
      </trkpt>
      <trkpt lat="52.3241232521831989288330078125" lon="1.6802391596138477325439453125">
        <ele>-166</ele>
        <time>2025-09-07T11:53:33.000Z</time>
        <extensions>
          <ns3:TrackPointExtension>
            <ns3:hr>111</ns3:hr>
            <ns3:cad>59</ns3:cad>
          </ns3:TrackPointExtension>
        </extensions>
      </trkpt>
      <trkpt lat="52.3241242580115795135498046875" lon="1.68025977909564971923828125">
        <ele>-166</ele>
        <time>2025-09-07T11:53:34.000Z</time>
        <extensions>
          <ns3:TrackPointExtension>
            <ns3:hr>112</ns3:hr>
            <ns3:cad>58</ns3:cad>
          </ns3:TrackPointExtension>
        </extensions>
      </trkpt>
      <trkpt lat="52.32412501238286495208740234375" lon="1.68029540218412876129150390625">
        <ele>-166.1999969482421875</ele>
        <time>2025-09-07T11:53:36.000Z</time>
        <extensions>
          <ns3:TrackPointExtension>
            <ns3:hr>109</ns3:hr>
            <ns3:cad>58</ns3:cad>
          </ns3:TrackPointExtension>
        </extensions>
      </trkpt>
      <trkpt lat="52.32412518002092838287353515625" lon="1.6803142614662647247314453125">
        <ele>-166.399993896484375</ele>
        <time>2025-09-07T11:53:37.000Z</time>
        <extensions>
          <ns3:TrackPointExtension>
            <ns3:hr>112</ns3:hr>
            <ns3:cad>58</ns3:cad>
          </ns3:TrackPointExtension>
        </extensions>
      </trkpt>
      <trkpt lat="52.3241152055561542510986328125" lon="1.68033756315708160400390625">
        <ele>-166.399993896484375</ele>
        <time>2025-09-07T11:53:38.000Z</time>
        <extensions>
          <ns3:TrackPointExtension>
            <ns3:hr>111</ns3:hr>
            <ns3:cad>58</ns3:cad>
          </ns3:TrackPointExtension>
        </extensions>
      </trkpt>
      <trkpt lat="52.32411277480423450469970703125" lon="1.68035566806793212890625">
        <ele>-166.399993896484375</ele>
        <time>2025-09-07T11:53:39.000Z</time>
        <extensions>
          <ns3:TrackPointExtension>
            <ns3:hr>114</ns3:hr>
            <ns3:cad>58</ns3:cad>
          </ns3:TrackPointExtension>
        </extensions>
      </trkpt>
      <trkpt lat="52.324108667671680450439453125" lon="1.680375449359416961669921875">
        <ele>-166.600006103515625</ele>
        <time>2025-09-07T11:53:40.000Z</time>
        <extensions>
          <ns3:TrackPointExtension>
            <ns3:hr>111</ns3:hr>
            <ns3:cad>0</ns3:cad>
          </ns3:TrackPointExtension>
        </extensions>
      </trkpt>
      <trkpt lat="52.32410590164363384246826171875" lon="1.68039464391767978668212890625">
        <ele>-166.600006103515625</ele>
        <time>2025-09-07T11:53:41.000Z</time>
        <extensions>
          <ns3:TrackPointExtension>
            <ns3:hr>112</ns3:hr>
            <ns3:cad>0</ns3:cad>
          </ns3:TrackPointExtension>
        </extensions>
      </trkpt>
      <trkpt lat="52.324091233313083648681640625" lon="1.6804825700819492340087890625">
        <ele>-167</ele>
        <time>2025-09-07T11:53:44.000Z</time>
        <extensions>
          <ns3:TrackPointExtension>
            <ns3:hr>112</ns3:hr>
            <ns3:cad>0</ns3:cad>
          </ns3:TrackPointExtension>
        </extensions>
      </trkpt>
      <trkpt lat="52.32408897019922733306884765625" lon="1.68050243519246578216552734375">
        <ele>-167.1999969482421875</ele>
        <time>2025-09-07T11:53:46.000Z</time>
        <extensions>
          <ns3:TrackPointExtension>
            <ns3:hr>109</ns3:hr>
            <ns3:cad>0</ns3:cad>
          </ns3:TrackPointExtension>
        </extensions>
      </trkpt>
      <trkpt lat="52.32408695854246616363525390625" lon="1.6805804707109928131103515625">
        <ele>-167.399993896484375</ele>
        <time>2025-09-07T11:53:49.000Z</time>
        <extensions>
          <ns3:TrackPointExtension>
            <ns3:hr>110</ns3:hr>
            <ns3:cad>56</ns3:cad>
          </ns3:TrackPointExtension>
        </extensions>
      </trkpt>
      <trkpt lat="52.32412568293511867523193359375" lon="1.68058088980615139007568359375">
        <ele>-167.600006103515625</ele>
        <time>2025-09-07T11:53:51.000Z</time>
        <extensions>
          <ns3:TrackPointExtension>
            <ns3:hr>111</ns3:hr>
            <ns3:cad>0</ns3:cad>
          </ns3:TrackPointExtension>
        </extensions>
      </trkpt>
      <trkpt lat="52.32413557358086109161376953125" lon="1.68058021925389766693115234375">
        <ele>-167.600006103515625</ele>
        <time>2025-09-07T11:53:52.000Z</time>
        <extensions>
          <ns3:TrackPointExtension>
            <ns3:hr>114</ns3:hr>
            <ns3:cad>0</ns3:cad>
          </ns3:TrackPointExtension>
        </extensions>
      </trkpt>
      <trkpt lat="52.32412937097251415252685546875" lon="1.68061978183686733245849609375">
        <ele>-167.1999969482421875</ele>
        <time>2025-09-07T11:53:58.000Z</time>
        <extensions>
          <ns3:TrackPointExtension>
            <ns3:hr>117</ns3:hr>
            <ns3:cad>0</ns3:cad>
          </ns3:TrackPointExtension>
        </extensions>
      </trkpt>
      <trkpt lat="52.3241376690566539764404296875" lon="1.6806233860552310943603515625">
        <ele>-167</ele>
        <time>2025-09-07T11:54:00.000Z</time>
        <extensions>
          <ns3:TrackPointExtension>
            <ns3:hr>114</ns3:hr>
            <ns3:cad>0</ns3:cad>
          </ns3:TrackPointExtension>
        </extensions>
      </trkpt>
      <trkpt lat="52.32414722442626953125" lon="1.68065817095339298248291015625">
        <ele>-166.1999969482421875</ele>
        <time>2025-09-07T11:54:05.000Z</time>
        <extensions>
          <ns3:TrackPointExtension>
            <ns3:hr>114</ns3:hr>
            <ns3:cad>0</ns3:cad>
          </ns3:TrackPointExtension>
        </extensions>
      </trkpt>
      <trkpt lat="52.3241591267287731170654296875" lon="1.68065833859145641326904296875">
        <ele>-166.1999969482421875</ele>
        <time>2025-09-07T11:54:06.000Z</time>
        <extensions>
          <ns3:TrackPointExtension>
            <ns3:hr>114</ns3:hr>
            <ns3:cad>41</ns3:cad>
          </ns3:TrackPointExtension>
        </extensions>
      </trkpt>
      <trkpt lat="52.3241995275020599365234375" lon="1.68066613376140594482421875">
        <ele>-165.8000030517578125</ele>
        <time>2025-09-07T11:54:08.000Z</time>
        <extensions>
          <ns3:TrackPointExtension>
            <ns3:hr>115</ns3:hr>
            <ns3:cad>0</ns3:cad>
          </ns3:TrackPointExtension>
        </extensions>
      </trkpt>
      <trkpt lat="52.3242623917758464813232421875" lon="1.6806294210255146026611328125">
        <ele>-165.600006103515625</ele>
        <time>2025-09-07T11:54:10.000Z</time>
        <extensions>
          <ns3:TrackPointExtension>
            <ns3:hr>115</ns3:hr>
            <ns3:cad>0</ns3:cad>
          </ns3:TrackPointExtension>
        </extensions>
      </trkpt>
      <trkpt lat="52.32433958910405635833740234375" lon="1.68064467608928680419921875">
        <ele>-165.1999969482421875</ele>
        <time>2025-09-07T11:54:14.000Z</time>
        <extensions>
          <ns3:TrackPointExtension>
            <ns3:hr>112</ns3:hr>
            <ns3:cad>58</ns3:cad>
          </ns3:TrackPointExtension>
        </extensions>
      </trkpt>
      <trkpt lat="52.324399016797542572021484375" lon="1.6806502081453800201416015625">
        <ele>-164.8000030517578125</ele>
        <time>2025-09-07T11:54:18.000Z</time>
        <extensions>
          <ns3:TrackPointExtension>
            <ns3:hr>112</ns3:hr>
            <ns3:cad>56</ns3:cad>
          </ns3:TrackPointExtension>
        </extensions>
      </trkpt>
      <trkpt lat="52.32443447224795818328857421875" lon="1.68065682984888553619384765625">
        <ele>-164.600006103515625</ele>
        <time>2025-09-07T11:54:21.000Z</time>
        <extensions>
          <ns3:TrackPointExtension>
            <ns3:hr>112</ns3:hr>
            <ns3:cad>56</ns3:cad>
          </ns3:TrackPointExtension>
        </extensions>
      </trkpt>
    </trkseg>
  </trk>
</gpx>
